<?xml version="1.0" encoding="UTF-8" standalone="no" ?>
<gpx xmlns="http://www.topografix.com/GPX/1/1" xmlns:xsi="http://www.w3.org/2001/XMLSchema-instance" xsi:schemaLocation="http://www.topografix.com/GPX/1/1 http://www.topografix.com/GPX/1/1/gpx.xsd" version="1.1" creator="VisuGPX - https://www.visugpx.com">
  <metadata>
    <name>N-S-Nantes La Chapelle Nord Sur Erdre Ligné St Mars du Désert Carquefou Sainte Luce Nantes</name>
    <desc><![CDATA[N-S-Nantes La Chapelle Nord Sur Erdre Ligné St Mars du Désert Carquefou Sainte Luce Nantes]]></desc>
  </metadata>
  <trk>
    <name><![CDATA[2022-07-09 08:43 GMT+2]]></name>
    <trkseg>
      <trkpt lat="47.1679" lon="-1.62647">
        <ele>74</ele>
        <time>2022-07-09T06:43:22Z</time>
      </trkpt>
      <trkpt lat="47.1678" lon="-1.62643">
        <ele>78</ele>
        <time>2022-07-09T06:43:23Z</time>
      </trkpt>
      <trkpt lat="47.1679" lon="-1.62646">
        <ele>72</ele>
        <time>2022-07-09T06:43:24Z</time>
      </trkpt>
      <trkpt lat="47.16781" lon="-1.62649">
        <ele>69</ele>
        <time>2022-07-09T06:43:29Z</time>
      </trkpt>
      <trkpt lat="47.16792" lon="-1.62644">
        <ele>79</ele>
        <time>2022-07-09T06:45:09Z</time>
      </trkpt>
      <trkpt lat="47.16799" lon="-1.62634">
        <ele>78</ele>
        <time>2022-07-09T06:45:11Z</time>
      </trkpt>
      <trkpt lat="47.16806" lon="-1.62622">
        <ele>78</ele>
        <time>2022-07-09T06:45:13Z</time>
      </trkpt>
      <trkpt lat="47.16813" lon="-1.6261">
        <ele>77</ele>
        <time>2022-07-09T06:45:15Z</time>
      </trkpt>
      <trkpt lat="47.1682" lon="-1.62597">
        <ele>77</ele>
        <time>2022-07-09T06:45:17Z</time>
      </trkpt>
      <trkpt lat="47.16827" lon="-1.62586">
        <ele>77</ele>
        <time>2022-07-09T06:45:19Z</time>
      </trkpt>
      <trkpt lat="47.16829" lon="-1.6257">
        <ele>78</ele>
        <time>2022-07-09T06:45:21Z</time>
      </trkpt>
      <trkpt lat="47.16819" lon="-1.62558">
        <ele>77</ele>
        <time>2022-07-09T06:45:23Z</time>
      </trkpt>
      <trkpt lat="47.16809" lon="-1.62549">
        <ele>76</ele>
        <time>2022-07-09T06:45:25Z</time>
      </trkpt>
      <trkpt lat="47.16799" lon="-1.62542">
        <ele>75</ele>
        <time>2022-07-09T06:45:27Z</time>
      </trkpt>
      <trkpt lat="47.16789" lon="-1.62535">
        <ele>75</ele>
        <time>2022-07-09T06:45:29Z</time>
      </trkpt>
      <trkpt lat="47.16778" lon="-1.62528">
        <ele>74</ele>
        <time>2022-07-09T06:45:31Z</time>
      </trkpt>
      <trkpt lat="47.16767" lon="-1.62521">
        <ele>73</ele>
        <time>2022-07-09T06:45:33Z</time>
      </trkpt>
      <trkpt lat="47.16756" lon="-1.62514">
        <ele>73</ele>
        <time>2022-07-09T06:45:35Z</time>
      </trkpt>
      <trkpt lat="47.16745" lon="-1.62508">
        <ele>73</ele>
        <time>2022-07-09T06:45:37Z</time>
      </trkpt>
      <trkpt lat="47.16734" lon="-1.62503">
        <ele>72</ele>
        <time>2022-07-09T06:45:39Z</time>
      </trkpt>
      <trkpt lat="47.16724" lon="-1.62498">
        <ele>72</ele>
        <time>2022-07-09T06:45:41Z</time>
      </trkpt>
      <trkpt lat="47.16714" lon="-1.62494">
        <ele>71</ele>
        <time>2022-07-09T06:45:43Z</time>
      </trkpt>
      <trkpt lat="47.1671" lon="-1.6248">
        <ele>71</ele>
        <time>2022-07-09T06:45:45Z</time>
      </trkpt>
      <trkpt lat="47.16712" lon="-1.62463">
        <ele>71</ele>
        <time>2022-07-09T06:45:47Z</time>
      </trkpt>
      <trkpt lat="47.16714" lon="-1.62445">
        <ele>71</ele>
        <time>2022-07-09T06:45:49Z</time>
      </trkpt>
      <trkpt lat="47.16716" lon="-1.62428">
        <ele>71</ele>
        <time>2022-07-09T06:45:51Z</time>
      </trkpt>
      <trkpt lat="47.16721" lon="-1.62411">
        <ele>71</ele>
        <time>2022-07-09T06:45:53Z</time>
      </trkpt>
      <trkpt lat="47.16727" lon="-1.62395">
        <ele>71</ele>
        <time>2022-07-09T06:45:55Z</time>
      </trkpt>
      <trkpt lat="47.16731" lon="-1.62379">
        <ele>72</ele>
        <time>2022-07-09T06:45:57Z</time>
      </trkpt>
      <trkpt lat="47.16738" lon="-1.62365">
        <ele>72</ele>
        <time>2022-07-09T06:45:59Z</time>
      </trkpt>
      <trkpt lat="47.16748" lon="-1.62354">
        <ele>73</ele>
        <time>2022-07-09T06:46:01Z</time>
      </trkpt>
      <trkpt lat="47.16764" lon="-1.62341">
        <ele>74</ele>
        <time>2022-07-09T06:46:04Z</time>
      </trkpt>
      <trkpt lat="47.16774" lon="-1.62335">
        <ele>74</ele>
        <time>2022-07-09T06:46:06Z</time>
      </trkpt>
      <trkpt lat="47.1679" lon="-1.62326">
        <ele>74</ele>
        <time>2022-07-09T06:46:09Z</time>
      </trkpt>
      <trkpt lat="47.16801" lon="-1.6232">
        <ele>75</ele>
        <time>2022-07-09T06:46:11Z</time>
      </trkpt>
      <trkpt lat="47.16811" lon="-1.62313">
        <ele>75</ele>
        <time>2022-07-09T06:46:13Z</time>
      </trkpt>
      <trkpt lat="47.16821" lon="-1.62306">
        <ele>75</ele>
        <time>2022-07-09T06:46:15Z</time>
      </trkpt>
      <trkpt lat="47.16835" lon="-1.62292">
        <ele>74</ele>
        <time>2022-07-09T06:46:18Z</time>
      </trkpt>
      <trkpt lat="47.16844" lon="-1.62281">
        <ele>74</ele>
        <time>2022-07-09T06:46:20Z</time>
      </trkpt>
      <trkpt lat="47.16858" lon="-1.62264">
        <ele>74</ele>
        <time>2022-07-09T06:46:23Z</time>
      </trkpt>
      <trkpt lat="47.16867" lon="-1.62253">
        <ele>74</ele>
        <time>2022-07-09T06:46:25Z</time>
      </trkpt>
      <trkpt lat="47.1688" lon="-1.62236">
        <ele>74</ele>
        <time>2022-07-09T06:46:28Z</time>
      </trkpt>
      <trkpt lat="47.16889" lon="-1.62224">
        <ele>74</ele>
        <time>2022-07-09T06:46:30Z</time>
      </trkpt>
      <trkpt lat="47.16897" lon="-1.62212">
        <ele>74</ele>
        <time>2022-07-09T06:46:32Z</time>
      </trkpt>
      <trkpt lat="47.16906" lon="-1.62199">
        <ele>74</ele>
        <time>2022-07-09T06:46:34Z</time>
      </trkpt>
      <trkpt lat="47.16914" lon="-1.62186">
        <ele>75</ele>
        <time>2022-07-09T06:46:36Z</time>
      </trkpt>
      <trkpt lat="47.16922" lon="-1.62171">
        <ele>75</ele>
        <time>2022-07-09T06:46:38Z</time>
      </trkpt>
      <trkpt lat="47.16929" lon="-1.62157">
        <ele>74</ele>
        <time>2022-07-09T06:46:40Z</time>
      </trkpt>
      <trkpt lat="47.16937" lon="-1.62142">
        <ele>74</ele>
        <time>2022-07-09T06:46:42Z</time>
      </trkpt>
      <trkpt lat="47.16944" lon="-1.62128">
        <ele>73</ele>
        <time>2022-07-09T06:46:44Z</time>
      </trkpt>
      <trkpt lat="47.16951" lon="-1.62114">
        <ele>73</ele>
        <time>2022-07-09T06:46:46Z</time>
      </trkpt>
      <trkpt lat="47.16959" lon="-1.621">
        <ele>73</ele>
        <time>2022-07-09T06:46:48Z</time>
      </trkpt>
      <trkpt lat="47.16966" lon="-1.62086">
        <ele>72</ele>
        <time>2022-07-09T06:46:50Z</time>
      </trkpt>
      <trkpt lat="47.16973" lon="-1.62072">
        <ele>72</ele>
        <time>2022-07-09T06:46:52Z</time>
      </trkpt>
      <trkpt lat="47.1698" lon="-1.62059">
        <ele>72</ele>
        <time>2022-07-09T06:46:54Z</time>
      </trkpt>
      <trkpt lat="47.16988" lon="-1.62045">
        <ele>72</ele>
        <time>2022-07-09T06:46:56Z</time>
      </trkpt>
      <trkpt lat="47.16996" lon="-1.62032">
        <ele>72</ele>
        <time>2022-07-09T06:46:58Z</time>
      </trkpt>
      <trkpt lat="47.17004" lon="-1.62019">
        <ele>72</ele>
        <time>2022-07-09T06:47:00Z</time>
      </trkpt>
      <trkpt lat="47.17013" lon="-1.62007">
        <ele>72</ele>
        <time>2022-07-09T06:47:02Z</time>
      </trkpt>
      <trkpt lat="47.17021" lon="-1.61994">
        <ele>72</ele>
        <time>2022-07-09T06:47:04Z</time>
      </trkpt>
      <trkpt lat="47.1703" lon="-1.61981">
        <ele>73</ele>
        <time>2022-07-09T06:47:06Z</time>
      </trkpt>
      <trkpt lat="47.17039" lon="-1.61969">
        <ele>73</ele>
        <time>2022-07-09T06:47:08Z</time>
      </trkpt>
      <trkpt lat="47.17048" lon="-1.61956">
        <ele>73</ele>
        <time>2022-07-09T06:47:10Z</time>
      </trkpt>
      <trkpt lat="47.17057" lon="-1.61944">
        <ele>74</ele>
        <time>2022-07-09T06:47:12Z</time>
      </trkpt>
      <trkpt lat="47.17066" lon="-1.61934">
        <ele>74</ele>
        <time>2022-07-09T06:47:14Z</time>
      </trkpt>
      <trkpt lat="47.17074" lon="-1.61923">
        <ele>74</ele>
        <time>2022-07-09T06:47:16Z</time>
      </trkpt>
      <trkpt lat="47.17084" lon="-1.61913">
        <ele>74</ele>
        <time>2022-07-09T06:47:18Z</time>
      </trkpt>
      <trkpt lat="47.17093" lon="-1.61904">
        <ele>75</ele>
        <time>2022-07-09T06:47:20Z</time>
      </trkpt>
      <trkpt lat="47.17103" lon="-1.61895">
        <ele>74</ele>
        <time>2022-07-09T06:47:22Z</time>
      </trkpt>
      <trkpt lat="47.17113" lon="-1.61886">
        <ele>74</ele>
        <time>2022-07-09T06:47:24Z</time>
      </trkpt>
      <trkpt lat="47.17123" lon="-1.61876">
        <ele>74</ele>
        <time>2022-07-09T06:47:26Z</time>
      </trkpt>
      <trkpt lat="47.17133" lon="-1.61867">
        <ele>74</ele>
        <time>2022-07-09T06:47:28Z</time>
      </trkpt>
      <trkpt lat="47.17142" lon="-1.61858">
        <ele>74</ele>
        <time>2022-07-09T06:47:30Z</time>
      </trkpt>
      <trkpt lat="47.17152" lon="-1.61848">
        <ele>74</ele>
        <time>2022-07-09T06:47:32Z</time>
      </trkpt>
      <trkpt lat="47.17162" lon="-1.61839">
        <ele>73</ele>
        <time>2022-07-09T06:47:34Z</time>
      </trkpt>
      <trkpt lat="47.17172" lon="-1.6183">
        <ele>73</ele>
        <time>2022-07-09T06:47:36Z</time>
      </trkpt>
      <trkpt lat="47.17182" lon="-1.6182">
        <ele>73</ele>
        <time>2022-07-09T06:47:38Z</time>
      </trkpt>
      <trkpt lat="47.17192" lon="-1.6181">
        <ele>73</ele>
        <time>2022-07-09T06:47:40Z</time>
      </trkpt>
      <trkpt lat="47.17202" lon="-1.618">
        <ele>73</ele>
        <time>2022-07-09T06:47:42Z</time>
      </trkpt>
      <trkpt lat="47.17212" lon="-1.61789">
        <ele>74</ele>
        <time>2022-07-09T06:47:44Z</time>
      </trkpt>
      <trkpt lat="47.17219" lon="-1.61775">
        <ele>73</ele>
        <time>2022-07-09T06:47:46Z</time>
      </trkpt>
      <trkpt lat="47.17224" lon="-1.61759">
        <ele>73</ele>
        <time>2022-07-09T06:47:48Z</time>
      </trkpt>
      <trkpt lat="47.17231" lon="-1.61746">
        <ele>73</ele>
        <time>2022-07-09T06:47:50Z</time>
      </trkpt>
      <trkpt lat="47.17241" lon="-1.61734">
        <ele>73</ele>
        <time>2022-07-09T06:47:52Z</time>
      </trkpt>
      <trkpt lat="47.17248" lon="-1.61721">
        <ele>73</ele>
        <time>2022-07-09T06:47:54Z</time>
      </trkpt>
      <trkpt lat="47.17255" lon="-1.61707">
        <ele>73</ele>
        <time>2022-07-09T06:47:56Z</time>
      </trkpt>
      <trkpt lat="47.17262" lon="-1.61692">
        <ele>73</ele>
        <time>2022-07-09T06:47:58Z</time>
      </trkpt>
      <trkpt lat="47.17268" lon="-1.61679">
        <ele>73</ele>
        <time>2022-07-09T06:48:00Z</time>
      </trkpt>
      <trkpt lat="47.17275" lon="-1.61665">
        <ele>73</ele>
        <time>2022-07-09T06:48:02Z</time>
      </trkpt>
      <trkpt lat="47.17282" lon="-1.61651">
        <ele>74</ele>
        <time>2022-07-09T06:48:04Z</time>
      </trkpt>
      <trkpt lat="47.1729" lon="-1.61637">
        <ele>74</ele>
        <time>2022-07-09T06:48:06Z</time>
      </trkpt>
      <trkpt lat="47.17298" lon="-1.61624">
        <ele>75</ele>
        <time>2022-07-09T06:48:08Z</time>
      </trkpt>
      <trkpt lat="47.17307" lon="-1.61611">
        <ele>75</ele>
        <time>2022-07-09T06:48:10Z</time>
      </trkpt>
      <trkpt lat="47.17315" lon="-1.61599">
        <ele>75</ele>
        <time>2022-07-09T06:48:12Z</time>
      </trkpt>
      <trkpt lat="47.17323" lon="-1.61587">
        <ele>76</ele>
        <time>2022-07-09T06:48:14Z</time>
      </trkpt>
      <trkpt lat="47.17332" lon="-1.61575">
        <ele>76</ele>
        <time>2022-07-09T06:48:16Z</time>
      </trkpt>
      <trkpt lat="47.17341" lon="-1.61565">
        <ele>77</ele>
        <time>2022-07-09T06:48:18Z</time>
      </trkpt>
      <trkpt lat="47.1735" lon="-1.61554">
        <ele>77</ele>
        <time>2022-07-09T06:48:20Z</time>
      </trkpt>
      <trkpt lat="47.1736" lon="-1.61544">
        <ele>78</ele>
        <time>2022-07-09T06:48:22Z</time>
      </trkpt>
      <trkpt lat="47.1737" lon="-1.61533">
        <ele>78</ele>
        <time>2022-07-09T06:48:24Z</time>
      </trkpt>
      <trkpt lat="47.1738" lon="-1.61523">
        <ele>78</ele>
        <time>2022-07-09T06:48:26Z</time>
      </trkpt>
      <trkpt lat="47.17391" lon="-1.61514">
        <ele>79</ele>
        <time>2022-07-09T06:48:28Z</time>
      </trkpt>
      <trkpt lat="47.17402" lon="-1.61506">
        <ele>79</ele>
        <time>2022-07-09T06:48:30Z</time>
      </trkpt>
      <trkpt lat="47.17413" lon="-1.61497">
        <ele>78</ele>
        <time>2022-07-09T06:48:32Z</time>
      </trkpt>
      <trkpt lat="47.17426" lon="-1.61488">
        <ele>79</ele>
        <time>2022-07-09T06:48:34Z</time>
      </trkpt>
      <trkpt lat="47.17437" lon="-1.61481">
        <ele>78</ele>
        <time>2022-07-09T06:48:36Z</time>
      </trkpt>
      <trkpt lat="47.17449" lon="-1.61474">
        <ele>78</ele>
        <time>2022-07-09T06:48:38Z</time>
      </trkpt>
      <trkpt lat="47.17461" lon="-1.61469">
        <ele>78</ele>
        <time>2022-07-09T06:48:40Z</time>
      </trkpt>
      <trkpt lat="47.17472" lon="-1.61464">
        <ele>77</ele>
        <time>2022-07-09T06:48:42Z</time>
      </trkpt>
      <trkpt lat="47.17484" lon="-1.61459">
        <ele>76</ele>
        <time>2022-07-09T06:48:44Z</time>
      </trkpt>
      <trkpt lat="47.17496" lon="-1.61455">
        <ele>75</ele>
        <time>2022-07-09T06:48:46Z</time>
      </trkpt>
      <trkpt lat="47.17504" lon="-1.61449">
        <ele>74</ele>
        <time>2022-07-09T06:48:48Z</time>
      </trkpt>
      <trkpt lat="47.1751" lon="-1.61438">
        <ele>73</ele>
        <time>2022-07-09T06:48:50Z</time>
      </trkpt>
      <trkpt lat="47.17514" lon="-1.6142">
        <ele>71</ele>
        <time>2022-07-09T06:48:52Z</time>
      </trkpt>
      <trkpt lat="47.17518" lon="-1.614">
        <ele>69</ele>
        <time>2022-07-09T06:48:54Z</time>
      </trkpt>
      <trkpt lat="47.17523" lon="-1.6138">
        <ele>68</ele>
        <time>2022-07-09T06:48:56Z</time>
      </trkpt>
      <trkpt lat="47.17527" lon="-1.6136">
        <ele>68</ele>
        <time>2022-07-09T06:48:58Z</time>
      </trkpt>
      <trkpt lat="47.17525" lon="-1.61341">
        <ele>67</ele>
        <time>2022-07-09T06:49:00Z</time>
      </trkpt>
      <trkpt lat="47.1752" lon="-1.61324">
        <ele>67</ele>
        <time>2022-07-09T06:49:02Z</time>
      </trkpt>
      <trkpt lat="47.1752" lon="-1.61306">
        <ele>66</ele>
        <time>2022-07-09T06:49:04Z</time>
      </trkpt>
      <trkpt lat="47.17517" lon="-1.61287">
        <ele>64</ele>
        <time>2022-07-09T06:49:06Z</time>
      </trkpt>
      <trkpt lat="47.17509" lon="-1.61271">
        <ele>64</ele>
        <time>2022-07-09T06:49:08Z</time>
      </trkpt>
      <trkpt lat="47.17501" lon="-1.61255">
        <ele>63</ele>
        <time>2022-07-09T06:49:10Z</time>
      </trkpt>
      <trkpt lat="47.17494" lon="-1.61239">
        <ele>63</ele>
        <time>2022-07-09T06:49:12Z</time>
      </trkpt>
      <trkpt lat="47.17487" lon="-1.61222">
        <ele>62</ele>
        <time>2022-07-09T06:49:14Z</time>
      </trkpt>
      <trkpt lat="47.1748" lon="-1.61206">
        <ele>63</ele>
        <time>2022-07-09T06:49:16Z</time>
      </trkpt>
      <trkpt lat="47.17473" lon="-1.6119">
        <ele>62</ele>
        <time>2022-07-09T06:49:18Z</time>
      </trkpt>
      <trkpt lat="47.17467" lon="-1.61174">
        <ele>62</ele>
        <time>2022-07-09T06:49:20Z</time>
      </trkpt>
      <trkpt lat="47.17461" lon="-1.61158">
        <ele>62</ele>
        <time>2022-07-09T06:49:22Z</time>
      </trkpt>
      <trkpt lat="47.17454" lon="-1.61141">
        <ele>61</ele>
        <time>2022-07-09T06:49:24Z</time>
      </trkpt>
      <trkpt lat="47.17447" lon="-1.61125">
        <ele>61</ele>
        <time>2022-07-09T06:49:26Z</time>
      </trkpt>
      <trkpt lat="47.1744" lon="-1.61107">
        <ele>61</ele>
        <time>2022-07-09T06:49:28Z</time>
      </trkpt>
      <trkpt lat="47.17435" lon="-1.61088">
        <ele>60</ele>
        <time>2022-07-09T06:49:30Z</time>
      </trkpt>
      <trkpt lat="47.17428" lon="-1.6107">
        <ele>60</ele>
        <time>2022-07-09T06:49:32Z</time>
      </trkpt>
      <trkpt lat="47.17423" lon="-1.61051">
        <ele>60</ele>
        <time>2022-07-09T06:49:34Z</time>
      </trkpt>
      <trkpt lat="47.17421" lon="-1.61033">
        <ele>60</ele>
        <time>2022-07-09T06:49:36Z</time>
      </trkpt>
      <trkpt lat="47.17421" lon="-1.61018">
        <ele>60</ele>
        <time>2022-07-09T06:49:38Z</time>
      </trkpt>
      <trkpt lat="47.1743" lon="-1.61019">
        <ele>61</ele>
        <time>2022-07-09T06:49:41Z</time>
      </trkpt>
      <trkpt lat="47.17435" lon="-1.61033">
        <ele>61</ele>
        <time>2022-07-09T06:49:43Z</time>
      </trkpt>
      <trkpt lat="47.17439" lon="-1.61049">
        <ele>62</ele>
        <time>2022-07-09T06:49:45Z</time>
      </trkpt>
      <trkpt lat="47.17446" lon="-1.61065">
        <ele>62</ele>
        <time>2022-07-09T06:49:47Z</time>
      </trkpt>
      <trkpt lat="47.17454" lon="-1.61079">
        <ele>62</ele>
        <time>2022-07-09T06:49:49Z</time>
      </trkpt>
      <trkpt lat="47.17465" lon="-1.61091">
        <ele>62</ele>
        <time>2022-07-09T06:49:51Z</time>
      </trkpt>
      <trkpt lat="47.17477" lon="-1.611">
        <ele>62</ele>
        <time>2022-07-09T06:49:53Z</time>
      </trkpt>
      <trkpt lat="47.1749" lon="-1.61102">
        <ele>62</ele>
        <time>2022-07-09T06:49:55Z</time>
      </trkpt>
      <trkpt lat="47.17504" lon="-1.611">
        <ele>62</ele>
        <time>2022-07-09T06:49:57Z</time>
      </trkpt>
      <trkpt lat="47.17516" lon="-1.61093">
        <ele>62</ele>
        <time>2022-07-09T06:49:59Z</time>
      </trkpt>
      <trkpt lat="47.17528" lon="-1.61083">
        <ele>61</ele>
        <time>2022-07-09T06:50:01Z</time>
      </trkpt>
      <trkpt lat="47.1754" lon="-1.61073">
        <ele>61</ele>
        <time>2022-07-09T06:50:03Z</time>
      </trkpt>
      <trkpt lat="47.17551" lon="-1.61063">
        <ele>60</ele>
        <time>2022-07-09T06:50:05Z</time>
      </trkpt>
      <trkpt lat="47.17563" lon="-1.61053">
        <ele>60</ele>
        <time>2022-07-09T06:50:07Z</time>
      </trkpt>
      <trkpt lat="47.17574" lon="-1.61043">
        <ele>60</ele>
        <time>2022-07-09T06:50:09Z</time>
      </trkpt>
      <trkpt lat="47.17585" lon="-1.61033">
        <ele>60</ele>
        <time>2022-07-09T06:50:11Z</time>
      </trkpt>
      <trkpt lat="47.17596" lon="-1.61023">
        <ele>60</ele>
        <time>2022-07-09T06:50:13Z</time>
      </trkpt>
      <trkpt lat="47.17608" lon="-1.61012">
        <ele>61</ele>
        <time>2022-07-09T06:50:15Z</time>
      </trkpt>
      <trkpt lat="47.1762" lon="-1.61002">
        <ele>61</ele>
        <time>2022-07-09T06:50:17Z</time>
      </trkpt>
      <trkpt lat="47.17632" lon="-1.60992">
        <ele>61</ele>
        <time>2022-07-09T06:50:19Z</time>
      </trkpt>
      <trkpt lat="47.17643" lon="-1.60981">
        <ele>61</ele>
        <time>2022-07-09T06:50:21Z</time>
      </trkpt>
      <trkpt lat="47.17655" lon="-1.60972">
        <ele>61</ele>
        <time>2022-07-09T06:50:23Z</time>
      </trkpt>
      <trkpt lat="47.17668" lon="-1.60967">
        <ele>61</ele>
        <time>2022-07-09T06:50:25Z</time>
      </trkpt>
      <trkpt lat="47.17681" lon="-1.60969">
        <ele>61</ele>
        <time>2022-07-09T06:50:27Z</time>
      </trkpt>
      <trkpt lat="47.17692" lon="-1.6097">
        <ele>62</ele>
        <time>2022-07-09T06:50:29Z</time>
      </trkpt>
      <trkpt lat="47.17704" lon="-1.60966">
        <ele>62</ele>
        <time>2022-07-09T06:50:31Z</time>
      </trkpt>
      <trkpt lat="47.17715" lon="-1.60959">
        <ele>62</ele>
        <time>2022-07-09T06:50:33Z</time>
      </trkpt>
      <trkpt lat="47.17727" lon="-1.60951">
        <ele>62</ele>
        <time>2022-07-09T06:50:35Z</time>
      </trkpt>
      <trkpt lat="47.17738" lon="-1.60944">
        <ele>62</ele>
        <time>2022-07-09T06:50:37Z</time>
      </trkpt>
      <trkpt lat="47.17749" lon="-1.60935">
        <ele>62</ele>
        <time>2022-07-09T06:50:39Z</time>
      </trkpt>
      <trkpt lat="47.1776" lon="-1.60926">
        <ele>61</ele>
        <time>2022-07-09T06:50:41Z</time>
      </trkpt>
      <trkpt lat="47.17771" lon="-1.60918">
        <ele>61</ele>
        <time>2022-07-09T06:50:43Z</time>
      </trkpt>
      <trkpt lat="47.17783" lon="-1.60909">
        <ele>61</ele>
        <time>2022-07-09T06:50:45Z</time>
      </trkpt>
      <trkpt lat="47.17794" lon="-1.609">
        <ele>61</ele>
        <time>2022-07-09T06:50:47Z</time>
      </trkpt>
      <trkpt lat="47.17805" lon="-1.6089">
        <ele>62</ele>
        <time>2022-07-09T06:50:49Z</time>
      </trkpt>
      <trkpt lat="47.17816" lon="-1.60879">
        <ele>61</ele>
        <time>2022-07-09T06:50:51Z</time>
      </trkpt>
      <trkpt lat="47.17825" lon="-1.60866">
        <ele>61</ele>
        <time>2022-07-09T06:50:53Z</time>
      </trkpt>
      <trkpt lat="47.17834" lon="-1.60851">
        <ele>60</ele>
        <time>2022-07-09T06:50:55Z</time>
      </trkpt>
      <trkpt lat="47.17841" lon="-1.60835">
        <ele>60</ele>
        <time>2022-07-09T06:50:57Z</time>
      </trkpt>
      <trkpt lat="47.17846" lon="-1.60817">
        <ele>59</ele>
        <time>2022-07-09T06:50:59Z</time>
      </trkpt>
      <trkpt lat="47.1785" lon="-1.608">
        <ele>58</ele>
        <time>2022-07-09T06:51:01Z</time>
      </trkpt>
      <trkpt lat="47.17854" lon="-1.60782">
        <ele>57</ele>
        <time>2022-07-09T06:51:03Z</time>
      </trkpt>
      <trkpt lat="47.17858" lon="-1.60764">
        <ele>57</ele>
        <time>2022-07-09T06:51:05Z</time>
      </trkpt>
      <trkpt lat="47.17862" lon="-1.60746">
        <ele>56</ele>
        <time>2022-07-09T06:51:07Z</time>
      </trkpt>
      <trkpt lat="47.17865" lon="-1.60728">
        <ele>56</ele>
        <time>2022-07-09T06:51:09Z</time>
      </trkpt>
      <trkpt lat="47.17869" lon="-1.6071">
        <ele>56</ele>
        <time>2022-07-09T06:51:11Z</time>
      </trkpt>
      <trkpt lat="47.17874" lon="-1.60692">
        <ele>56</ele>
        <time>2022-07-09T06:51:13Z</time>
      </trkpt>
      <trkpt lat="47.17879" lon="-1.60674">
        <ele>55</ele>
        <time>2022-07-09T06:51:15Z</time>
      </trkpt>
      <trkpt lat="47.17884" lon="-1.60658">
        <ele>55</ele>
        <time>2022-07-09T06:51:17Z</time>
      </trkpt>
      <trkpt lat="47.17889" lon="-1.60642">
        <ele>55</ele>
        <time>2022-07-09T06:51:19Z</time>
      </trkpt>
      <trkpt lat="47.17894" lon="-1.60628">
        <ele>56</ele>
        <time>2022-07-09T06:51:21Z</time>
      </trkpt>
      <trkpt lat="47.17898" lon="-1.60615">
        <ele>56</ele>
        <time>2022-07-09T06:51:23Z</time>
      </trkpt>
      <trkpt lat="47.17901" lon="-1.60602">
        <ele>56</ele>
        <time>2022-07-09T06:51:25Z</time>
      </trkpt>
      <trkpt lat="47.17905" lon="-1.60587">
        <ele>57</ele>
        <time>2022-07-09T06:51:28Z</time>
      </trkpt>
      <trkpt lat="47.17917" lon="-1.60583">
        <ele>58</ele>
        <time>2022-07-09T06:51:33Z</time>
      </trkpt>
      <trkpt lat="47.17927" lon="-1.60584">
        <ele>57</ele>
        <time>2022-07-09T06:51:35Z</time>
      </trkpt>
      <trkpt lat="47.17939" lon="-1.60581">
        <ele>58</ele>
        <time>2022-07-09T06:51:37Z</time>
      </trkpt>
      <trkpt lat="47.17952" lon="-1.60576">
        <ele>58</ele>
        <time>2022-07-09T06:51:39Z</time>
      </trkpt>
      <trkpt lat="47.17965" lon="-1.60567">
        <ele>57</ele>
        <time>2022-07-09T06:51:41Z</time>
      </trkpt>
      <trkpt lat="47.17975" lon="-1.60552">
        <ele>57</ele>
        <time>2022-07-09T06:51:43Z</time>
      </trkpt>
      <trkpt lat="47.17991" lon="-1.60554">
        <ele>57</ele>
        <time>2022-07-09T06:51:45Z</time>
      </trkpt>
      <trkpt lat="47.18006" lon="-1.60551">
        <ele>58</ele>
        <time>2022-07-09T06:51:47Z</time>
      </trkpt>
      <trkpt lat="47.1802" lon="-1.60548">
        <ele>59</ele>
        <time>2022-07-09T06:51:49Z</time>
      </trkpt>
      <trkpt lat="47.18035" lon="-1.60552">
        <ele>59</ele>
        <time>2022-07-09T06:51:51Z</time>
      </trkpt>
      <trkpt lat="47.18049" lon="-1.60559">
        <ele>59</ele>
        <time>2022-07-09T06:51:53Z</time>
      </trkpt>
      <trkpt lat="47.18062" lon="-1.60566">
        <ele>58</ele>
        <time>2022-07-09T06:51:55Z</time>
      </trkpt>
      <trkpt lat="47.18075" lon="-1.60573">
        <ele>58</ele>
        <time>2022-07-09T06:51:57Z</time>
      </trkpt>
      <trkpt lat="47.18088" lon="-1.6058">
        <ele>58</ele>
        <time>2022-07-09T06:51:59Z</time>
      </trkpt>
      <trkpt lat="47.18101" lon="-1.60586">
        <ele>59</ele>
        <time>2022-07-09T06:52:01Z</time>
      </trkpt>
      <trkpt lat="47.18114" lon="-1.60591">
        <ele>59</ele>
        <time>2022-07-09T06:52:03Z</time>
      </trkpt>
      <trkpt lat="47.18127" lon="-1.60596">
        <ele>59</ele>
        <time>2022-07-09T06:52:05Z</time>
      </trkpt>
      <trkpt lat="47.1814" lon="-1.60599">
        <ele>59</ele>
        <time>2022-07-09T06:52:07Z</time>
      </trkpt>
      <trkpt lat="47.18153" lon="-1.60601">
        <ele>59</ele>
        <time>2022-07-09T06:52:09Z</time>
      </trkpt>
      <trkpt lat="47.18166" lon="-1.60601">
        <ele>60</ele>
        <time>2022-07-09T06:52:11Z</time>
      </trkpt>
      <trkpt lat="47.18178" lon="-1.60598">
        <ele>60</ele>
        <time>2022-07-09T06:52:13Z</time>
      </trkpt>
      <trkpt lat="47.18188" lon="-1.60591">
        <ele>60</ele>
        <time>2022-07-09T06:52:15Z</time>
      </trkpt>
      <trkpt lat="47.18193" lon="-1.60576">
        <ele>59</ele>
        <time>2022-07-09T06:52:17Z</time>
      </trkpt>
      <trkpt lat="47.18205" lon="-1.60568">
        <ele>58</ele>
        <time>2022-07-09T06:52:19Z</time>
      </trkpt>
      <trkpt lat="47.18218" lon="-1.60562">
        <ele>59</ele>
        <time>2022-07-09T06:52:21Z</time>
      </trkpt>
      <trkpt lat="47.18231" lon="-1.60555">
        <ele>60</ele>
        <time>2022-07-09T06:52:23Z</time>
      </trkpt>
      <trkpt lat="47.18243" lon="-1.60546">
        <ele>61</ele>
        <time>2022-07-09T06:52:25Z</time>
      </trkpt>
      <trkpt lat="47.18256" lon="-1.60536">
        <ele>62</ele>
        <time>2022-07-09T06:52:27Z</time>
      </trkpt>
      <trkpt lat="47.18268" lon="-1.60525">
        <ele>62</ele>
        <time>2022-07-09T06:52:29Z</time>
      </trkpt>
      <trkpt lat="47.18279" lon="-1.60512">
        <ele>62</ele>
        <time>2022-07-09T06:52:31Z</time>
      </trkpt>
      <trkpt lat="47.18291" lon="-1.605">
        <ele>62</ele>
        <time>2022-07-09T06:52:33Z</time>
      </trkpt>
      <trkpt lat="47.18303" lon="-1.60488">
        <ele>61</ele>
        <time>2022-07-09T06:52:35Z</time>
      </trkpt>
      <trkpt lat="47.18315" lon="-1.60475">
        <ele>61</ele>
        <time>2022-07-09T06:52:37Z</time>
      </trkpt>
      <trkpt lat="47.18326" lon="-1.60463">
        <ele>60</ele>
        <time>2022-07-09T06:52:39Z</time>
      </trkpt>
      <trkpt lat="47.18336" lon="-1.60449">
        <ele>60</ele>
        <time>2022-07-09T06:52:41Z</time>
      </trkpt>
      <trkpt lat="47.18347" lon="-1.60436">
        <ele>60</ele>
        <time>2022-07-09T06:52:43Z</time>
      </trkpt>
      <trkpt lat="47.18358" lon="-1.60423">
        <ele>60</ele>
        <time>2022-07-09T06:52:45Z</time>
      </trkpt>
      <trkpt lat="47.18368" lon="-1.60409">
        <ele>60</ele>
        <time>2022-07-09T06:52:47Z</time>
      </trkpt>
      <trkpt lat="47.18378" lon="-1.60396">
        <ele>61</ele>
        <time>2022-07-09T06:52:49Z</time>
      </trkpt>
      <trkpt lat="47.18389" lon="-1.60382">
        <ele>61</ele>
        <time>2022-07-09T06:52:51Z</time>
      </trkpt>
      <trkpt lat="47.18399" lon="-1.60369">
        <ele>61</ele>
        <time>2022-07-09T06:52:53Z</time>
      </trkpt>
      <trkpt lat="47.18409" lon="-1.60354">
        <ele>62</ele>
        <time>2022-07-09T06:52:55Z</time>
      </trkpt>
      <trkpt lat="47.18419" lon="-1.6034">
        <ele>62</ele>
        <time>2022-07-09T06:52:57Z</time>
      </trkpt>
      <trkpt lat="47.18429" lon="-1.60325">
        <ele>62</ele>
        <time>2022-07-09T06:52:59Z</time>
      </trkpt>
      <trkpt lat="47.18439" lon="-1.60309">
        <ele>62</ele>
        <time>2022-07-09T06:53:01Z</time>
      </trkpt>
      <trkpt lat="47.18448" lon="-1.60293">
        <ele>62</ele>
        <time>2022-07-09T06:53:03Z</time>
      </trkpt>
      <trkpt lat="47.18458" lon="-1.60277">
        <ele>61</ele>
        <time>2022-07-09T06:53:05Z</time>
      </trkpt>
      <trkpt lat="47.18468" lon="-1.60262">
        <ele>60</ele>
        <time>2022-07-09T06:53:07Z</time>
      </trkpt>
      <trkpt lat="47.18477" lon="-1.60245">
        <ele>60</ele>
        <time>2022-07-09T06:53:09Z</time>
      </trkpt>
      <trkpt lat="47.18486" lon="-1.60228">
        <ele>60</ele>
        <time>2022-07-09T06:53:11Z</time>
      </trkpt>
      <trkpt lat="47.18495" lon="-1.60211">
        <ele>59</ele>
        <time>2022-07-09T06:53:13Z</time>
      </trkpt>
      <trkpt lat="47.18503" lon="-1.60195">
        <ele>58</ele>
        <time>2022-07-09T06:53:15Z</time>
      </trkpt>
      <trkpt lat="47.18512" lon="-1.60178">
        <ele>58</ele>
        <time>2022-07-09T06:53:17Z</time>
      </trkpt>
      <trkpt lat="47.1852" lon="-1.60161">
        <ele>58</ele>
        <time>2022-07-09T06:53:19Z</time>
      </trkpt>
      <trkpt lat="47.18528" lon="-1.60143">
        <ele>58</ele>
        <time>2022-07-09T06:53:21Z</time>
      </trkpt>
      <trkpt lat="47.18536" lon="-1.60125">
        <ele>58</ele>
        <time>2022-07-09T06:53:23Z</time>
      </trkpt>
      <trkpt lat="47.18544" lon="-1.60108">
        <ele>57</ele>
        <time>2022-07-09T06:53:25Z</time>
      </trkpt>
      <trkpt lat="47.18552" lon="-1.60089">
        <ele>57</ele>
        <time>2022-07-09T06:53:27Z</time>
      </trkpt>
      <trkpt lat="47.18559" lon="-1.60071">
        <ele>57</ele>
        <time>2022-07-09T06:53:29Z</time>
      </trkpt>
      <trkpt lat="47.18566" lon="-1.60053">
        <ele>57</ele>
        <time>2022-07-09T06:53:31Z</time>
      </trkpt>
      <trkpt lat="47.18573" lon="-1.60034">
        <ele>57</ele>
        <time>2022-07-09T06:53:33Z</time>
      </trkpt>
      <trkpt lat="47.1858" lon="-1.60015">
        <ele>56</ele>
        <time>2022-07-09T06:53:35Z</time>
      </trkpt>
      <trkpt lat="47.18586" lon="-1.59996">
        <ele>56</ele>
        <time>2022-07-09T06:53:37Z</time>
      </trkpt>
      <trkpt lat="47.18592" lon="-1.59977">
        <ele>56</ele>
        <time>2022-07-09T06:53:39Z</time>
      </trkpt>
      <trkpt lat="47.18598" lon="-1.59958">
        <ele>56</ele>
        <time>2022-07-09T06:53:41Z</time>
      </trkpt>
      <trkpt lat="47.18604" lon="-1.59938">
        <ele>55</ele>
        <time>2022-07-09T06:53:43Z</time>
      </trkpt>
      <trkpt lat="47.1861" lon="-1.59918">
        <ele>56</ele>
        <time>2022-07-09T06:53:45Z</time>
      </trkpt>
      <trkpt lat="47.18615" lon="-1.59899">
        <ele>55</ele>
        <time>2022-07-09T06:53:47Z</time>
      </trkpt>
      <trkpt lat="47.1862" lon="-1.59881">
        <ele>55</ele>
        <time>2022-07-09T06:53:49Z</time>
      </trkpt>
      <trkpt lat="47.18623" lon="-1.59863">
        <ele>55</ele>
        <time>2022-07-09T06:53:51Z</time>
      </trkpt>
      <trkpt lat="47.18619" lon="-1.59847">
        <ele>55</ele>
        <time>2022-07-09T06:53:53Z</time>
      </trkpt>
      <trkpt lat="47.18614" lon="-1.59831">
        <ele>54</ele>
        <time>2022-07-09T06:53:56Z</time>
      </trkpt>
      <trkpt lat="47.18621" lon="-1.59818">
        <ele>55</ele>
        <time>2022-07-09T06:53:59Z</time>
      </trkpt>
      <trkpt lat="47.18627" lon="-1.59808">
        <ele>55</ele>
        <time>2022-07-09T06:54:01Z</time>
      </trkpt>
      <trkpt lat="47.1863" lon="-1.5979">
        <ele>56</ele>
        <time>2022-07-09T06:54:03Z</time>
      </trkpt>
      <trkpt lat="47.18635" lon="-1.59773">
        <ele>56</ele>
        <time>2022-07-09T06:54:05Z</time>
      </trkpt>
      <trkpt lat="47.18644" lon="-1.5976">
        <ele>57</ele>
        <time>2022-07-09T06:54:07Z</time>
      </trkpt>
      <trkpt lat="47.18652" lon="-1.59746">
        <ele>58</ele>
        <time>2022-07-09T06:54:09Z</time>
      </trkpt>
      <trkpt lat="47.18656" lon="-1.59726">
        <ele>57</ele>
        <time>2022-07-09T06:54:11Z</time>
      </trkpt>
      <trkpt lat="47.18659" lon="-1.59706">
        <ele>57</ele>
        <time>2022-07-09T06:54:13Z</time>
      </trkpt>
      <trkpt lat="47.18663" lon="-1.59686">
        <ele>56</ele>
        <time>2022-07-09T06:54:15Z</time>
      </trkpt>
      <trkpt lat="47.18669" lon="-1.59665">
        <ele>55</ele>
        <time>2022-07-09T06:54:17Z</time>
      </trkpt>
      <trkpt lat="47.18673" lon="-1.59645">
        <ele>55</ele>
        <time>2022-07-09T06:54:19Z</time>
      </trkpt>
      <trkpt lat="47.18676" lon="-1.59623">
        <ele>54</ele>
        <time>2022-07-09T06:54:21Z</time>
      </trkpt>
      <trkpt lat="47.18679" lon="-1.59602">
        <ele>55</ele>
        <time>2022-07-09T06:54:23Z</time>
      </trkpt>
      <trkpt lat="47.18681" lon="-1.5958">
        <ele>56</ele>
        <time>2022-07-09T06:54:25Z</time>
      </trkpt>
      <trkpt lat="47.18684" lon="-1.59559">
        <ele>56</ele>
        <time>2022-07-09T06:54:27Z</time>
      </trkpt>
      <trkpt lat="47.18687" lon="-1.59538">
        <ele>55</ele>
        <time>2022-07-09T06:54:29Z</time>
      </trkpt>
      <trkpt lat="47.18689" lon="-1.59517">
        <ele>55</ele>
        <time>2022-07-09T06:54:31Z</time>
      </trkpt>
      <trkpt lat="47.18691" lon="-1.59495">
        <ele>54</ele>
        <time>2022-07-09T06:54:33Z</time>
      </trkpt>
      <trkpt lat="47.18694" lon="-1.59473">
        <ele>54</ele>
        <time>2022-07-09T06:54:35Z</time>
      </trkpt>
      <trkpt lat="47.18696" lon="-1.59451">
        <ele>54</ele>
        <time>2022-07-09T06:54:37Z</time>
      </trkpt>
      <trkpt lat="47.18699" lon="-1.59428">
        <ele>53</ele>
        <time>2022-07-09T06:54:39Z</time>
      </trkpt>
      <trkpt lat="47.18701" lon="-1.59406">
        <ele>53</ele>
        <time>2022-07-09T06:54:41Z</time>
      </trkpt>
      <trkpt lat="47.18704" lon="-1.59384">
        <ele>53</ele>
        <time>2022-07-09T06:54:43Z</time>
      </trkpt>
      <trkpt lat="47.18706" lon="-1.59362">
        <ele>53</ele>
        <time>2022-07-09T06:54:45Z</time>
      </trkpt>
      <trkpt lat="47.18709" lon="-1.5934">
        <ele>53</ele>
        <time>2022-07-09T06:54:47Z</time>
      </trkpt>
      <trkpt lat="47.18711" lon="-1.59317">
        <ele>53</ele>
        <time>2022-07-09T06:54:49Z</time>
      </trkpt>
      <trkpt lat="47.18714" lon="-1.59294">
        <ele>53</ele>
        <time>2022-07-09T06:54:51Z</time>
      </trkpt>
      <trkpt lat="47.18716" lon="-1.59272">
        <ele>53</ele>
        <time>2022-07-09T06:54:53Z</time>
      </trkpt>
      <trkpt lat="47.18718" lon="-1.59249">
        <ele>53</ele>
        <time>2022-07-09T06:54:55Z</time>
      </trkpt>
      <trkpt lat="47.18721" lon="-1.59226">
        <ele>52</ele>
        <time>2022-07-09T06:54:57Z</time>
      </trkpt>
      <trkpt lat="47.18723" lon="-1.59203">
        <ele>52</ele>
        <time>2022-07-09T06:54:59Z</time>
      </trkpt>
      <trkpt lat="47.18726" lon="-1.5918">
        <ele>53</ele>
        <time>2022-07-09T06:55:01Z</time>
      </trkpt>
      <trkpt lat="47.18728" lon="-1.59157">
        <ele>53</ele>
        <time>2022-07-09T06:55:03Z</time>
      </trkpt>
      <trkpt lat="47.18731" lon="-1.59134">
        <ele>53</ele>
        <time>2022-07-09T06:55:05Z</time>
      </trkpt>
      <trkpt lat="47.18734" lon="-1.5911">
        <ele>53</ele>
        <time>2022-07-09T06:55:07Z</time>
      </trkpt>
      <trkpt lat="47.18737" lon="-1.59086">
        <ele>53</ele>
        <time>2022-07-09T06:55:09Z</time>
      </trkpt>
      <trkpt lat="47.18739" lon="-1.59062">
        <ele>53</ele>
        <time>2022-07-09T06:55:11Z</time>
      </trkpt>
      <trkpt lat="47.18741" lon="-1.59039">
        <ele>53</ele>
        <time>2022-07-09T06:55:13Z</time>
      </trkpt>
      <trkpt lat="47.18744" lon="-1.59016">
        <ele>53</ele>
        <time>2022-07-09T06:55:15Z</time>
      </trkpt>
      <trkpt lat="47.18746" lon="-1.58993">
        <ele>54</ele>
        <time>2022-07-09T06:55:17Z</time>
      </trkpt>
      <trkpt lat="47.18748" lon="-1.58971">
        <ele>54</ele>
        <time>2022-07-09T06:55:19Z</time>
      </trkpt>
      <trkpt lat="47.1875" lon="-1.5895">
        <ele>54</ele>
        <time>2022-07-09T06:55:21Z</time>
      </trkpt>
      <trkpt lat="47.18753" lon="-1.58928">
        <ele>54</ele>
        <time>2022-07-09T06:55:23Z</time>
      </trkpt>
      <trkpt lat="47.18755" lon="-1.58907">
        <ele>54</ele>
        <time>2022-07-09T06:55:25Z</time>
      </trkpt>
      <trkpt lat="47.18758" lon="-1.58887">
        <ele>55</ele>
        <time>2022-07-09T06:55:27Z</time>
      </trkpt>
      <trkpt lat="47.18761" lon="-1.58866">
        <ele>55</ele>
        <time>2022-07-09T06:55:29Z</time>
      </trkpt>
      <trkpt lat="47.18763" lon="-1.58845">
        <ele>55</ele>
        <time>2022-07-09T06:55:31Z</time>
      </trkpt>
      <trkpt lat="47.18766" lon="-1.58824">
        <ele>55</ele>
        <time>2022-07-09T06:55:33Z</time>
      </trkpt>
      <trkpt lat="47.18766" lon="-1.58803">
        <ele>55</ele>
        <time>2022-07-09T06:55:35Z</time>
      </trkpt>
      <trkpt lat="47.18765" lon="-1.58783">
        <ele>55</ele>
        <time>2022-07-09T06:55:37Z</time>
      </trkpt>
      <trkpt lat="47.1876" lon="-1.58763">
        <ele>54</ele>
        <time>2022-07-09T06:55:39Z</time>
      </trkpt>
      <trkpt lat="47.18759" lon="-1.58741">
        <ele>54</ele>
        <time>2022-07-09T06:55:41Z</time>
      </trkpt>
      <trkpt lat="47.18764" lon="-1.58721">
        <ele>55</ele>
        <time>2022-07-09T06:55:43Z</time>
      </trkpt>
      <trkpt lat="47.18774" lon="-1.58706">
        <ele>56</ele>
        <time>2022-07-09T06:55:45Z</time>
      </trkpt>
      <trkpt lat="47.18783" lon="-1.58691">
        <ele>57</ele>
        <time>2022-07-09T06:55:47Z</time>
      </trkpt>
      <trkpt lat="47.1879" lon="-1.58674">
        <ele>58</ele>
        <time>2022-07-09T06:55:49Z</time>
      </trkpt>
      <trkpt lat="47.18793" lon="-1.58654">
        <ele>58</ele>
        <time>2022-07-09T06:55:51Z</time>
      </trkpt>
      <trkpt lat="47.18798" lon="-1.58632">
        <ele>58</ele>
        <time>2022-07-09T06:55:53Z</time>
      </trkpt>
      <trkpt lat="47.18803" lon="-1.5861">
        <ele>58</ele>
        <time>2022-07-09T06:55:55Z</time>
      </trkpt>
      <trkpt lat="47.18809" lon="-1.58589">
        <ele>57</ele>
        <time>2022-07-09T06:55:57Z</time>
      </trkpt>
      <trkpt lat="47.18814" lon="-1.58569">
        <ele>57</ele>
        <time>2022-07-09T06:55:59Z</time>
      </trkpt>
      <trkpt lat="47.1882" lon="-1.58548">
        <ele>57</ele>
        <time>2022-07-09T06:56:01Z</time>
      </trkpt>
      <trkpt lat="47.18825" lon="-1.58527">
        <ele>57</ele>
        <time>2022-07-09T06:56:03Z</time>
      </trkpt>
      <trkpt lat="47.18831" lon="-1.58507">
        <ele>57</ele>
        <time>2022-07-09T06:56:05Z</time>
      </trkpt>
      <trkpt lat="47.18837" lon="-1.58487">
        <ele>56</ele>
        <time>2022-07-09T06:56:07Z</time>
      </trkpt>
      <trkpt lat="47.18843" lon="-1.58467">
        <ele>56</ele>
        <time>2022-07-09T06:56:09Z</time>
      </trkpt>
      <trkpt lat="47.18849" lon="-1.58446">
        <ele>56</ele>
        <time>2022-07-09T06:56:11Z</time>
      </trkpt>
      <trkpt lat="47.18856" lon="-1.58425">
        <ele>56</ele>
        <time>2022-07-09T06:56:13Z</time>
      </trkpt>
      <trkpt lat="47.18862" lon="-1.58405">
        <ele>56</ele>
        <time>2022-07-09T06:56:15Z</time>
      </trkpt>
      <trkpt lat="47.18869" lon="-1.58384">
        <ele>56</ele>
        <time>2022-07-09T06:56:17Z</time>
      </trkpt>
      <trkpt lat="47.18875" lon="-1.58364">
        <ele>56</ele>
        <time>2022-07-09T06:56:19Z</time>
      </trkpt>
      <trkpt lat="47.18882" lon="-1.58344">
        <ele>56</ele>
        <time>2022-07-09T06:56:21Z</time>
      </trkpt>
      <trkpt lat="47.18889" lon="-1.58324">
        <ele>57</ele>
        <time>2022-07-09T06:56:23Z</time>
      </trkpt>
      <trkpt lat="47.18896" lon="-1.58304">
        <ele>57</ele>
        <time>2022-07-09T06:56:25Z</time>
      </trkpt>
      <trkpt lat="47.18903" lon="-1.58285">
        <ele>57</ele>
        <time>2022-07-09T06:56:27Z</time>
      </trkpt>
      <trkpt lat="47.18909" lon="-1.58265">
        <ele>57</ele>
        <time>2022-07-09T06:56:29Z</time>
      </trkpt>
      <trkpt lat="47.18916" lon="-1.58245">
        <ele>57</ele>
        <time>2022-07-09T06:56:31Z</time>
      </trkpt>
      <trkpt lat="47.18924" lon="-1.58224">
        <ele>57</ele>
        <time>2022-07-09T06:56:33Z</time>
      </trkpt>
      <trkpt lat="47.18931" lon="-1.58204">
        <ele>57</ele>
        <time>2022-07-09T06:56:35Z</time>
      </trkpt>
      <trkpt lat="47.18938" lon="-1.58183">
        <ele>57</ele>
        <time>2022-07-09T06:56:37Z</time>
      </trkpt>
      <trkpt lat="47.18946" lon="-1.58161">
        <ele>57</ele>
        <time>2022-07-09T06:56:39Z</time>
      </trkpt>
      <trkpt lat="47.18954" lon="-1.5814">
        <ele>57</ele>
        <time>2022-07-09T06:56:41Z</time>
      </trkpt>
      <trkpt lat="47.18961" lon="-1.58119">
        <ele>56</ele>
        <time>2022-07-09T06:56:43Z</time>
      </trkpt>
      <trkpt lat="47.18968" lon="-1.58097">
        <ele>56</ele>
        <time>2022-07-09T06:56:45Z</time>
      </trkpt>
      <trkpt lat="47.18976" lon="-1.58076">
        <ele>56</ele>
        <time>2022-07-09T06:56:47Z</time>
      </trkpt>
      <trkpt lat="47.18984" lon="-1.58055">
        <ele>56</ele>
        <time>2022-07-09T06:56:49Z</time>
      </trkpt>
      <trkpt lat="47.18991" lon="-1.58033">
        <ele>56</ele>
        <time>2022-07-09T06:56:51Z</time>
      </trkpt>
      <trkpt lat="47.18999" lon="-1.58013">
        <ele>56</ele>
        <time>2022-07-09T06:56:53Z</time>
      </trkpt>
      <trkpt lat="47.19007" lon="-1.57991">
        <ele>56</ele>
        <time>2022-07-09T06:56:55Z</time>
      </trkpt>
      <trkpt lat="47.19014" lon="-1.5797">
        <ele>56</ele>
        <time>2022-07-09T06:56:57Z</time>
      </trkpt>
      <trkpt lat="47.19022" lon="-1.57949">
        <ele>57</ele>
        <time>2022-07-09T06:56:59Z</time>
      </trkpt>
      <trkpt lat="47.19029" lon="-1.57928">
        <ele>57</ele>
        <time>2022-07-09T06:57:01Z</time>
      </trkpt>
      <trkpt lat="47.19037" lon="-1.57906">
        <ele>57</ele>
        <time>2022-07-09T06:57:03Z</time>
      </trkpt>
      <trkpt lat="47.19045" lon="-1.57886">
        <ele>57</ele>
        <time>2022-07-09T06:57:05Z</time>
      </trkpt>
      <trkpt lat="47.19052" lon="-1.57864">
        <ele>57</ele>
        <time>2022-07-09T06:57:07Z</time>
      </trkpt>
      <trkpt lat="47.19059" lon="-1.57843">
        <ele>57</ele>
        <time>2022-07-09T06:57:09Z</time>
      </trkpt>
      <trkpt lat="47.19066" lon="-1.57822">
        <ele>57</ele>
        <time>2022-07-09T06:57:11Z</time>
      </trkpt>
      <trkpt lat="47.19073" lon="-1.57802">
        <ele>57</ele>
        <time>2022-07-09T06:57:13Z</time>
      </trkpt>
      <trkpt lat="47.19081" lon="-1.5778">
        <ele>57</ele>
        <time>2022-07-09T06:57:15Z</time>
      </trkpt>
      <trkpt lat="47.19089" lon="-1.5776">
        <ele>57</ele>
        <time>2022-07-09T06:57:17Z</time>
      </trkpt>
      <trkpt lat="47.19096" lon="-1.57739">
        <ele>57</ele>
        <time>2022-07-09T06:57:19Z</time>
      </trkpt>
      <trkpt lat="47.19104" lon="-1.57718">
        <ele>57</ele>
        <time>2022-07-09T06:57:21Z</time>
      </trkpt>
      <trkpt lat="47.19111" lon="-1.57698">
        <ele>57</ele>
        <time>2022-07-09T06:57:23Z</time>
      </trkpt>
      <trkpt lat="47.19119" lon="-1.57677">
        <ele>57</ele>
        <time>2022-07-09T06:57:25Z</time>
      </trkpt>
      <trkpt lat="47.19126" lon="-1.57657">
        <ele>58</ele>
        <time>2022-07-09T06:57:27Z</time>
      </trkpt>
      <trkpt lat="47.19133" lon="-1.57637">
        <ele>58</ele>
        <time>2022-07-09T06:57:29Z</time>
      </trkpt>
      <trkpt lat="47.19141" lon="-1.57616">
        <ele>58</ele>
        <time>2022-07-09T06:57:31Z</time>
      </trkpt>
      <trkpt lat="47.19148" lon="-1.57595">
        <ele>58</ele>
        <time>2022-07-09T06:57:33Z</time>
      </trkpt>
      <trkpt lat="47.19155" lon="-1.57574">
        <ele>58</ele>
        <time>2022-07-09T06:57:35Z</time>
      </trkpt>
      <trkpt lat="47.19162" lon="-1.57554">
        <ele>58</ele>
        <time>2022-07-09T06:57:37Z</time>
      </trkpt>
      <trkpt lat="47.19169" lon="-1.57534">
        <ele>58</ele>
        <time>2022-07-09T06:57:39Z</time>
      </trkpt>
      <trkpt lat="47.19176" lon="-1.57515">
        <ele>59</ele>
        <time>2022-07-09T06:57:41Z</time>
      </trkpt>
      <trkpt lat="47.19183" lon="-1.57494">
        <ele>59</ele>
        <time>2022-07-09T06:57:43Z</time>
      </trkpt>
      <trkpt lat="47.1919" lon="-1.57472">
        <ele>59</ele>
        <time>2022-07-09T06:57:45Z</time>
      </trkpt>
      <trkpt lat="47.19196" lon="-1.5745">
        <ele>59</ele>
        <time>2022-07-09T06:57:47Z</time>
      </trkpt>
      <trkpt lat="47.19202" lon="-1.57428">
        <ele>58</ele>
        <time>2022-07-09T06:57:49Z</time>
      </trkpt>
      <trkpt lat="47.19208" lon="-1.57406">
        <ele>58</ele>
        <time>2022-07-09T06:57:51Z</time>
      </trkpt>
      <trkpt lat="47.19214" lon="-1.57385">
        <ele>57</ele>
        <time>2022-07-09T06:57:53Z</time>
      </trkpt>
      <trkpt lat="47.1922" lon="-1.57363">
        <ele>57</ele>
        <time>2022-07-09T06:57:55Z</time>
      </trkpt>
      <trkpt lat="47.19225" lon="-1.57342">
        <ele>57</ele>
        <time>2022-07-09T06:57:57Z</time>
      </trkpt>
      <trkpt lat="47.19229" lon="-1.5732">
        <ele>56</ele>
        <time>2022-07-09T06:57:59Z</time>
      </trkpt>
      <trkpt lat="47.19233" lon="-1.57298">
        <ele>56</ele>
        <time>2022-07-09T06:58:01Z</time>
      </trkpt>
      <trkpt lat="47.19237" lon="-1.57276">
        <ele>56</ele>
        <time>2022-07-09T06:58:03Z</time>
      </trkpt>
      <trkpt lat="47.1924" lon="-1.57254">
        <ele>56</ele>
        <time>2022-07-09T06:58:05Z</time>
      </trkpt>
      <trkpt lat="47.19244" lon="-1.57232">
        <ele>56</ele>
        <time>2022-07-09T06:58:07Z</time>
      </trkpt>
      <trkpt lat="47.19246" lon="-1.57209">
        <ele>55</ele>
        <time>2022-07-09T06:58:09Z</time>
      </trkpt>
      <trkpt lat="47.19249" lon="-1.57187">
        <ele>55</ele>
        <time>2022-07-09T06:58:11Z</time>
      </trkpt>
      <trkpt lat="47.19252" lon="-1.57164">
        <ele>56</ele>
        <time>2022-07-09T06:58:13Z</time>
      </trkpt>
      <trkpt lat="47.19256" lon="-1.57142">
        <ele>56</ele>
        <time>2022-07-09T06:58:15Z</time>
      </trkpt>
      <trkpt lat="47.19258" lon="-1.57119">
        <ele>56</ele>
        <time>2022-07-09T06:58:17Z</time>
      </trkpt>
      <trkpt lat="47.1926" lon="-1.57097">
        <ele>57</ele>
        <time>2022-07-09T06:58:19Z</time>
      </trkpt>
      <trkpt lat="47.19262" lon="-1.57079">
        <ele>57</ele>
        <time>2022-07-09T06:58:21Z</time>
      </trkpt>
      <trkpt lat="47.1926" lon="-1.57066">
        <ele>56</ele>
        <time>2022-07-09T06:58:24Z</time>
      </trkpt>
      <trkpt lat="47.19256" lon="-1.57052">
        <ele>57</ele>
        <time>2022-07-09T06:58:26Z</time>
      </trkpt>
      <trkpt lat="47.19257" lon="-1.57036">
        <ele>56</ele>
        <time>2022-07-09T06:58:28Z</time>
      </trkpt>
      <trkpt lat="47.19266" lon="-1.57018">
        <ele>56</ele>
        <time>2022-07-09T06:58:30Z</time>
      </trkpt>
      <trkpt lat="47.19272" lon="-1.56999">
        <ele>56</ele>
        <time>2022-07-09T06:58:32Z</time>
      </trkpt>
      <trkpt lat="47.19274" lon="-1.56977">
        <ele>56</ele>
        <time>2022-07-09T06:58:34Z</time>
      </trkpt>
      <trkpt lat="47.19276" lon="-1.56955">
        <ele>56</ele>
        <time>2022-07-09T06:58:36Z</time>
      </trkpt>
      <trkpt lat="47.19278" lon="-1.56934">
        <ele>56</ele>
        <time>2022-07-09T06:58:38Z</time>
      </trkpt>
      <trkpt lat="47.19278" lon="-1.56912">
        <ele>56</ele>
        <time>2022-07-09T06:58:40Z</time>
      </trkpt>
      <trkpt lat="47.19281" lon="-1.5689">
        <ele>57</ele>
        <time>2022-07-09T06:58:42Z</time>
      </trkpt>
      <trkpt lat="47.19284" lon="-1.56867">
        <ele>57</ele>
        <time>2022-07-09T06:58:44Z</time>
      </trkpt>
      <trkpt lat="47.19287" lon="-1.56845">
        <ele>56</ele>
        <time>2022-07-09T06:58:46Z</time>
      </trkpt>
      <trkpt lat="47.1929" lon="-1.56821">
        <ele>57</ele>
        <time>2022-07-09T06:58:48Z</time>
      </trkpt>
      <trkpt lat="47.19291" lon="-1.56797">
        <ele>56</ele>
        <time>2022-07-09T06:58:50Z</time>
      </trkpt>
      <trkpt lat="47.19291" lon="-1.56773">
        <ele>56</ele>
        <time>2022-07-09T06:58:52Z</time>
      </trkpt>
      <trkpt lat="47.19291" lon="-1.5675">
        <ele>56</ele>
        <time>2022-07-09T06:58:54Z</time>
      </trkpt>
      <trkpt lat="47.19291" lon="-1.56727">
        <ele>56</ele>
        <time>2022-07-09T06:58:56Z</time>
      </trkpt>
      <trkpt lat="47.19291" lon="-1.56705">
        <ele>56</ele>
        <time>2022-07-09T06:58:58Z</time>
      </trkpt>
      <trkpt lat="47.19291" lon="-1.56683">
        <ele>56</ele>
        <time>2022-07-09T06:59:00Z</time>
      </trkpt>
      <trkpt lat="47.1929" lon="-1.5666">
        <ele>56</ele>
        <time>2022-07-09T06:59:02Z</time>
      </trkpt>
      <trkpt lat="47.19288" lon="-1.56638">
        <ele>56</ele>
        <time>2022-07-09T06:59:04Z</time>
      </trkpt>
      <trkpt lat="47.19287" lon="-1.56616">
        <ele>56</ele>
        <time>2022-07-09T06:59:06Z</time>
      </trkpt>
      <trkpt lat="47.19284" lon="-1.56594">
        <ele>56</ele>
        <time>2022-07-09T06:59:08Z</time>
      </trkpt>
      <trkpt lat="47.19282" lon="-1.5657">
        <ele>56</ele>
        <time>2022-07-09T06:59:10Z</time>
      </trkpt>
      <trkpt lat="47.1928" lon="-1.56549">
        <ele>56</ele>
        <time>2022-07-09T06:59:12Z</time>
      </trkpt>
      <trkpt lat="47.19277" lon="-1.56527">
        <ele>55</ele>
        <time>2022-07-09T06:59:14Z</time>
      </trkpt>
      <trkpt lat="47.19275" lon="-1.56505">
        <ele>56</ele>
        <time>2022-07-09T06:59:16Z</time>
      </trkpt>
      <trkpt lat="47.19272" lon="-1.56484">
        <ele>56</ele>
        <time>2022-07-09T06:59:18Z</time>
      </trkpt>
      <trkpt lat="47.1927" lon="-1.56463">
        <ele>56</ele>
        <time>2022-07-09T06:59:20Z</time>
      </trkpt>
      <trkpt lat="47.19267" lon="-1.56441">
        <ele>56</ele>
        <time>2022-07-09T06:59:22Z</time>
      </trkpt>
      <trkpt lat="47.19266" lon="-1.5642">
        <ele>56</ele>
        <time>2022-07-09T06:59:24Z</time>
      </trkpt>
      <trkpt lat="47.19265" lon="-1.56398">
        <ele>56</ele>
        <time>2022-07-09T06:59:26Z</time>
      </trkpt>
      <trkpt lat="47.19263" lon="-1.56378">
        <ele>56</ele>
        <time>2022-07-09T06:59:28Z</time>
      </trkpt>
      <trkpt lat="47.1926" lon="-1.56357">
        <ele>56</ele>
        <time>2022-07-09T06:59:30Z</time>
      </trkpt>
      <trkpt lat="47.19255" lon="-1.56338">
        <ele>57</ele>
        <time>2022-07-09T06:59:32Z</time>
      </trkpt>
      <trkpt lat="47.19246" lon="-1.5632">
        <ele>57</ele>
        <time>2022-07-09T06:59:34Z</time>
      </trkpt>
      <trkpt lat="47.19237" lon="-1.56301">
        <ele>57</ele>
        <time>2022-07-09T06:59:36Z</time>
      </trkpt>
      <trkpt lat="47.19235" lon="-1.56279">
        <ele>56</ele>
        <time>2022-07-09T06:59:38Z</time>
      </trkpt>
      <trkpt lat="47.1924" lon="-1.56258">
        <ele>56</ele>
        <time>2022-07-09T06:59:40Z</time>
      </trkpt>
      <trkpt lat="47.19246" lon="-1.56237">
        <ele>56</ele>
        <time>2022-07-09T06:59:42Z</time>
      </trkpt>
      <trkpt lat="47.19245" lon="-1.56211">
        <ele>56</ele>
        <time>2022-07-09T06:59:44Z</time>
      </trkpt>
      <trkpt lat="47.19244" lon="-1.56188">
        <ele>55</ele>
        <time>2022-07-09T06:59:46Z</time>
      </trkpt>
      <trkpt lat="47.19244" lon="-1.56164">
        <ele>55</ele>
        <time>2022-07-09T06:59:48Z</time>
      </trkpt>
      <trkpt lat="47.19244" lon="-1.56141">
        <ele>55</ele>
        <time>2022-07-09T06:59:50Z</time>
      </trkpt>
      <trkpt lat="47.19244" lon="-1.56118">
        <ele>55</ele>
        <time>2022-07-09T06:59:52Z</time>
      </trkpt>
      <trkpt lat="47.19243" lon="-1.56095">
        <ele>55</ele>
        <time>2022-07-09T06:59:54Z</time>
      </trkpt>
      <trkpt lat="47.19242" lon="-1.56071">
        <ele>55</ele>
        <time>2022-07-09T06:59:56Z</time>
      </trkpt>
      <trkpt lat="47.1924" lon="-1.56048">
        <ele>56</ele>
        <time>2022-07-09T06:59:58Z</time>
      </trkpt>
      <trkpt lat="47.19238" lon="-1.56025">
        <ele>56</ele>
        <time>2022-07-09T07:00:00Z</time>
      </trkpt>
      <trkpt lat="47.19236" lon="-1.56003">
        <ele>57</ele>
        <time>2022-07-09T07:00:02Z</time>
      </trkpt>
      <trkpt lat="47.19234" lon="-1.5598">
        <ele>56</ele>
        <time>2022-07-09T07:00:04Z</time>
      </trkpt>
      <trkpt lat="47.19231" lon="-1.55957">
        <ele>57</ele>
        <time>2022-07-09T07:00:06Z</time>
      </trkpt>
      <trkpt lat="47.19228" lon="-1.55934">
        <ele>56</ele>
        <time>2022-07-09T07:00:08Z</time>
      </trkpt>
      <trkpt lat="47.19226" lon="-1.55912">
        <ele>56</ele>
        <time>2022-07-09T07:00:10Z</time>
      </trkpt>
      <trkpt lat="47.19224" lon="-1.5589">
        <ele>56</ele>
        <time>2022-07-09T07:00:12Z</time>
      </trkpt>
      <trkpt lat="47.19222" lon="-1.55868">
        <ele>56</ele>
        <time>2022-07-09T07:00:14Z</time>
      </trkpt>
      <trkpt lat="47.19222" lon="-1.55846">
        <ele>56</ele>
        <time>2022-07-09T07:00:16Z</time>
      </trkpt>
      <trkpt lat="47.19221" lon="-1.55822">
        <ele>56</ele>
        <time>2022-07-09T07:00:18Z</time>
      </trkpt>
      <trkpt lat="47.1922" lon="-1.55799">
        <ele>56</ele>
        <time>2022-07-09T07:00:20Z</time>
      </trkpt>
      <trkpt lat="47.1922" lon="-1.55776">
        <ele>56</ele>
        <time>2022-07-09T07:00:22Z</time>
      </trkpt>
      <trkpt lat="47.1922" lon="-1.55755">
        <ele>57</ele>
        <time>2022-07-09T07:00:24Z</time>
      </trkpt>
      <trkpt lat="47.1922" lon="-1.55732">
        <ele>57</ele>
        <time>2022-07-09T07:00:26Z</time>
      </trkpt>
      <trkpt lat="47.19221" lon="-1.55709">
        <ele>58</ele>
        <time>2022-07-09T07:00:28Z</time>
      </trkpt>
      <trkpt lat="47.19221" lon="-1.55688">
        <ele>57</ele>
        <time>2022-07-09T07:00:30Z</time>
      </trkpt>
      <trkpt lat="47.19221" lon="-1.55665">
        <ele>57</ele>
        <time>2022-07-09T07:00:32Z</time>
      </trkpt>
      <trkpt lat="47.19222" lon="-1.55642">
        <ele>56</ele>
        <time>2022-07-09T07:00:34Z</time>
      </trkpt>
      <trkpt lat="47.19223" lon="-1.5562">
        <ele>56</ele>
        <time>2022-07-09T07:00:36Z</time>
      </trkpt>
      <trkpt lat="47.19224" lon="-1.55599">
        <ele>55</ele>
        <time>2022-07-09T07:00:38Z</time>
      </trkpt>
      <trkpt lat="47.19226" lon="-1.55579">
        <ele>55</ele>
        <time>2022-07-09T07:00:40Z</time>
      </trkpt>
      <trkpt lat="47.19228" lon="-1.55558">
        <ele>55</ele>
        <time>2022-07-09T07:00:42Z</time>
      </trkpt>
      <trkpt lat="47.19231" lon="-1.55537">
        <ele>55</ele>
        <time>2022-07-09T07:00:44Z</time>
      </trkpt>
      <trkpt lat="47.19232" lon="-1.55517">
        <ele>56</ele>
        <time>2022-07-09T07:00:46Z</time>
      </trkpt>
      <trkpt lat="47.19232" lon="-1.55497">
        <ele>55</ele>
        <time>2022-07-09T07:00:48Z</time>
      </trkpt>
      <trkpt lat="47.19232" lon="-1.55477">
        <ele>55</ele>
        <time>2022-07-09T07:00:50Z</time>
      </trkpt>
      <trkpt lat="47.19225" lon="-1.55459">
        <ele>54</ele>
        <time>2022-07-09T07:00:52Z</time>
      </trkpt>
      <trkpt lat="47.19217" lon="-1.55441">
        <ele>54</ele>
        <time>2022-07-09T07:00:54Z</time>
      </trkpt>
      <trkpt lat="47.19219" lon="-1.55418">
        <ele>54</ele>
        <time>2022-07-09T07:00:56Z</time>
      </trkpt>
      <trkpt lat="47.19229" lon="-1.55403">
        <ele>54</ele>
        <time>2022-07-09T07:00:58Z</time>
      </trkpt>
      <trkpt lat="47.19239" lon="-1.55389">
        <ele>55</ele>
        <time>2022-07-09T07:01:00Z</time>
      </trkpt>
      <trkpt lat="47.19245" lon="-1.55371">
        <ele>55</ele>
        <time>2022-07-09T07:01:02Z</time>
      </trkpt>
      <trkpt lat="47.19251" lon="-1.55352">
        <ele>55</ele>
        <time>2022-07-09T07:01:04Z</time>
      </trkpt>
      <trkpt lat="47.19257" lon="-1.55332">
        <ele>56</ele>
        <time>2022-07-09T07:01:06Z</time>
      </trkpt>
      <trkpt lat="47.19261" lon="-1.55312">
        <ele>56</ele>
        <time>2022-07-09T07:01:08Z</time>
      </trkpt>
      <trkpt lat="47.19266" lon="-1.5529">
        <ele>55</ele>
        <time>2022-07-09T07:01:10Z</time>
      </trkpt>
      <trkpt lat="47.1927" lon="-1.5527">
        <ele>55</ele>
        <time>2022-07-09T07:01:12Z</time>
      </trkpt>
      <trkpt lat="47.19274" lon="-1.55251">
        <ele>55</ele>
        <time>2022-07-09T07:01:14Z</time>
      </trkpt>
      <trkpt lat="47.19278" lon="-1.55231">
        <ele>55</ele>
        <time>2022-07-09T07:01:16Z</time>
      </trkpt>
      <trkpt lat="47.19284" lon="-1.55213">
        <ele>55</ele>
        <time>2022-07-09T07:01:18Z</time>
      </trkpt>
      <trkpt lat="47.1929" lon="-1.55194">
        <ele>55</ele>
        <time>2022-07-09T07:01:20Z</time>
      </trkpt>
      <trkpt lat="47.19295" lon="-1.55176">
        <ele>55</ele>
        <time>2022-07-09T07:01:22Z</time>
      </trkpt>
      <trkpt lat="47.193" lon="-1.55158">
        <ele>56</ele>
        <time>2022-07-09T07:01:24Z</time>
      </trkpt>
      <trkpt lat="47.19304" lon="-1.5514">
        <ele>56</ele>
        <time>2022-07-09T07:01:26Z</time>
      </trkpt>
      <trkpt lat="47.19309" lon="-1.55122">
        <ele>56</ele>
        <time>2022-07-09T07:01:28Z</time>
      </trkpt>
      <trkpt lat="47.19313" lon="-1.55105">
        <ele>57</ele>
        <time>2022-07-09T07:01:30Z</time>
      </trkpt>
      <trkpt lat="47.19318" lon="-1.55088">
        <ele>57</ele>
        <time>2022-07-09T07:01:32Z</time>
      </trkpt>
      <trkpt lat="47.19322" lon="-1.5507">
        <ele>57</ele>
        <time>2022-07-09T07:01:34Z</time>
      </trkpt>
      <trkpt lat="47.19326" lon="-1.55053">
        <ele>58</ele>
        <time>2022-07-09T07:01:36Z</time>
      </trkpt>
      <trkpt lat="47.1933" lon="-1.55037">
        <ele>59</ele>
        <time>2022-07-09T07:01:38Z</time>
      </trkpt>
      <trkpt lat="47.19334" lon="-1.55019">
        <ele>60</ele>
        <time>2022-07-09T07:01:40Z</time>
      </trkpt>
      <trkpt lat="47.1934" lon="-1.54994">
        <ele>61</ele>
        <time>2022-07-09T07:01:43Z</time>
      </trkpt>
      <trkpt lat="47.19345" lon="-1.54977">
        <ele>61</ele>
        <time>2022-07-09T07:01:45Z</time>
      </trkpt>
      <trkpt lat="47.1935" lon="-1.5496">
        <ele>61</ele>
        <time>2022-07-09T07:01:47Z</time>
      </trkpt>
      <trkpt lat="47.19354" lon="-1.54943">
        <ele>61</ele>
        <time>2022-07-09T07:01:49Z</time>
      </trkpt>
      <trkpt lat="47.19358" lon="-1.54925">
        <ele>62</ele>
        <time>2022-07-09T07:01:51Z</time>
      </trkpt>
      <trkpt lat="47.19362" lon="-1.54907">
        <ele>61</ele>
        <time>2022-07-09T07:01:53Z</time>
      </trkpt>
      <trkpt lat="47.19366" lon="-1.54887">
        <ele>61</ele>
        <time>2022-07-09T07:01:55Z</time>
      </trkpt>
      <trkpt lat="47.19373" lon="-1.54856">
        <ele>62</ele>
        <time>2022-07-09T07:01:58Z</time>
      </trkpt>
      <trkpt lat="47.19377" lon="-1.54836">
        <ele>62</ele>
        <time>2022-07-09T07:02:00Z</time>
      </trkpt>
      <trkpt lat="47.19382" lon="-1.54816">
        <ele>61</ele>
        <time>2022-07-09T07:02:02Z</time>
      </trkpt>
      <trkpt lat="47.19391" lon="-1.54784">
        <ele>59</ele>
        <time>2022-07-09T07:02:05Z</time>
      </trkpt>
      <trkpt lat="47.19397" lon="-1.54762">
        <ele>58</ele>
        <time>2022-07-09T07:02:07Z</time>
      </trkpt>
      <trkpt lat="47.19405" lon="-1.54728">
        <ele>56</ele>
        <time>2022-07-09T07:02:10Z</time>
      </trkpt>
      <trkpt lat="47.1941" lon="-1.54706">
        <ele>56</ele>
        <time>2022-07-09T07:02:12Z</time>
      </trkpt>
      <trkpt lat="47.19415" lon="-1.54682">
        <ele>56</ele>
        <time>2022-07-09T07:02:14Z</time>
      </trkpt>
      <trkpt lat="47.19422" lon="-1.5466">
        <ele>55</ele>
        <time>2022-07-09T07:02:16Z</time>
      </trkpt>
      <trkpt lat="47.19427" lon="-1.54641">
        <ele>55</ele>
        <time>2022-07-09T07:02:18Z</time>
      </trkpt>
      <trkpt lat="47.19431" lon="-1.54623">
        <ele>55</ele>
        <time>2022-07-09T07:02:20Z</time>
      </trkpt>
      <trkpt lat="47.19426" lon="-1.54604">
        <ele>55</ele>
        <time>2022-07-09T07:02:22Z</time>
      </trkpt>
      <trkpt lat="47.19424" lon="-1.54585">
        <ele>55</ele>
        <time>2022-07-09T07:02:24Z</time>
      </trkpt>
      <trkpt lat="47.19431" lon="-1.54566">
        <ele>55</ele>
        <time>2022-07-09T07:02:26Z</time>
      </trkpt>
      <trkpt lat="47.19442" lon="-1.54554">
        <ele>55</ele>
        <time>2022-07-09T07:02:28Z</time>
      </trkpt>
      <trkpt lat="47.19452" lon="-1.54541">
        <ele>56</ele>
        <time>2022-07-09T07:02:30Z</time>
      </trkpt>
      <trkpt lat="47.19458" lon="-1.54523">
        <ele>56</ele>
        <time>2022-07-09T07:02:32Z</time>
      </trkpt>
      <trkpt lat="47.19464" lon="-1.54504">
        <ele>56</ele>
        <time>2022-07-09T07:02:34Z</time>
      </trkpt>
      <trkpt lat="47.1947" lon="-1.54487">
        <ele>56</ele>
        <time>2022-07-09T07:02:36Z</time>
      </trkpt>
      <trkpt lat="47.19475" lon="-1.54469">
        <ele>55</ele>
        <time>2022-07-09T07:02:38Z</time>
      </trkpt>
      <trkpt lat="47.19485" lon="-1.54458">
        <ele>56</ele>
        <time>2022-07-09T07:02:40Z</time>
      </trkpt>
      <trkpt lat="47.19497" lon="-1.54448">
        <ele>56</ele>
        <time>2022-07-09T07:02:42Z</time>
      </trkpt>
      <trkpt lat="47.19509" lon="-1.54439">
        <ele>57</ele>
        <time>2022-07-09T07:02:44Z</time>
      </trkpt>
      <trkpt lat="47.1952" lon="-1.54431">
        <ele>57</ele>
        <time>2022-07-09T07:02:46Z</time>
      </trkpt>
      <trkpt lat="47.19532" lon="-1.54422">
        <ele>58</ele>
        <time>2022-07-09T07:02:48Z</time>
      </trkpt>
      <trkpt lat="47.19544" lon="-1.54412">
        <ele>58</ele>
        <time>2022-07-09T07:02:50Z</time>
      </trkpt>
      <trkpt lat="47.19555" lon="-1.54402">
        <ele>58</ele>
        <time>2022-07-09T07:02:52Z</time>
      </trkpt>
      <trkpt lat="47.19567" lon="-1.54393">
        <ele>58</ele>
        <time>2022-07-09T07:02:54Z</time>
      </trkpt>
      <trkpt lat="47.19579" lon="-1.54383">
        <ele>58</ele>
        <time>2022-07-09T07:02:56Z</time>
      </trkpt>
      <trkpt lat="47.19591" lon="-1.54374">
        <ele>58</ele>
        <time>2022-07-09T07:02:58Z</time>
      </trkpt>
      <trkpt lat="47.19603" lon="-1.54364">
        <ele>58</ele>
        <time>2022-07-09T07:03:00Z</time>
      </trkpt>
      <trkpt lat="47.19614" lon="-1.54352">
        <ele>58</ele>
        <time>2022-07-09T07:03:02Z</time>
      </trkpt>
      <trkpt lat="47.19624" lon="-1.54338">
        <ele>58</ele>
        <time>2022-07-09T07:03:04Z</time>
      </trkpt>
      <trkpt lat="47.19633" lon="-1.54323">
        <ele>58</ele>
        <time>2022-07-09T07:03:06Z</time>
      </trkpt>
      <trkpt lat="47.19644" lon="-1.54309">
        <ele>58</ele>
        <time>2022-07-09T07:03:08Z</time>
      </trkpt>
      <trkpt lat="47.19655" lon="-1.543">
        <ele>58</ele>
        <time>2022-07-09T07:03:10Z</time>
      </trkpt>
      <trkpt lat="47.19667" lon="-1.5429">
        <ele>58</ele>
        <time>2022-07-09T07:03:12Z</time>
      </trkpt>
      <trkpt lat="47.19678" lon="-1.54281">
        <ele>58</ele>
        <time>2022-07-09T07:03:14Z</time>
      </trkpt>
      <trkpt lat="47.19689" lon="-1.54272">
        <ele>59</ele>
        <time>2022-07-09T07:03:16Z</time>
      </trkpt>
      <trkpt lat="47.19702" lon="-1.54265">
        <ele>59</ele>
        <time>2022-07-09T07:03:18Z</time>
      </trkpt>
      <trkpt lat="47.19715" lon="-1.54257">
        <ele>60</ele>
        <time>2022-07-09T07:03:20Z</time>
      </trkpt>
      <trkpt lat="47.19726" lon="-1.54249">
        <ele>60</ele>
        <time>2022-07-09T07:03:22Z</time>
      </trkpt>
      <trkpt lat="47.19737" lon="-1.5424">
        <ele>60</ele>
        <time>2022-07-09T07:03:24Z</time>
      </trkpt>
      <trkpt lat="47.19746" lon="-1.54231">
        <ele>60</ele>
        <time>2022-07-09T07:03:26Z</time>
      </trkpt>
      <trkpt lat="47.19754" lon="-1.54223">
        <ele>59</ele>
        <time>2022-07-09T07:03:28Z</time>
      </trkpt>
      <trkpt lat="47.19761" lon="-1.54215">
        <ele>59</ele>
        <time>2022-07-09T07:03:30Z</time>
      </trkpt>
      <trkpt lat="47.19769" lon="-1.54204">
        <ele>58</ele>
        <time>2022-07-09T07:03:33Z</time>
      </trkpt>
      <trkpt lat="47.1978" lon="-1.54201">
        <ele>59</ele>
        <time>2022-07-09T07:03:36Z</time>
      </trkpt>
      <trkpt lat="47.19792" lon="-1.5421">
        <ele>59</ele>
        <time>2022-07-09T07:03:39Z</time>
      </trkpt>
      <trkpt lat="47.198" lon="-1.54216">
        <ele>59</ele>
        <time>2022-07-09T07:03:41Z</time>
      </trkpt>
      <trkpt lat="47.19809" lon="-1.54223">
        <ele>60</ele>
        <time>2022-07-09T07:03:43Z</time>
      </trkpt>
      <trkpt lat="47.19818" lon="-1.5423">
        <ele>61</ele>
        <time>2022-07-09T07:03:45Z</time>
      </trkpt>
      <trkpt lat="47.1983" lon="-1.54238">
        <ele>61</ele>
        <time>2022-07-09T07:03:47Z</time>
      </trkpt>
      <trkpt lat="47.19842" lon="-1.54245">
        <ele>61</ele>
        <time>2022-07-09T07:03:49Z</time>
      </trkpt>
      <trkpt lat="47.19854" lon="-1.54253">
        <ele>61</ele>
        <time>2022-07-09T07:03:51Z</time>
      </trkpt>
      <trkpt lat="47.19865" lon="-1.5426">
        <ele>61</ele>
        <time>2022-07-09T07:03:53Z</time>
      </trkpt>
      <trkpt lat="47.19876" lon="-1.54268">
        <ele>62</ele>
        <time>2022-07-09T07:03:55Z</time>
      </trkpt>
      <trkpt lat="47.19887" lon="-1.54275">
        <ele>62</ele>
        <time>2022-07-09T07:03:57Z</time>
      </trkpt>
      <trkpt lat="47.19898" lon="-1.54283">
        <ele>63</ele>
        <time>2022-07-09T07:03:59Z</time>
      </trkpt>
      <trkpt lat="47.19909" lon="-1.54291">
        <ele>63</ele>
        <time>2022-07-09T07:04:01Z</time>
      </trkpt>
      <trkpt lat="47.1992" lon="-1.54298">
        <ele>63</ele>
        <time>2022-07-09T07:04:03Z</time>
      </trkpt>
      <trkpt lat="47.19931" lon="-1.54305">
        <ele>63</ele>
        <time>2022-07-09T07:04:05Z</time>
      </trkpt>
      <trkpt lat="47.19943" lon="-1.54313">
        <ele>64</ele>
        <time>2022-07-09T07:04:07Z</time>
      </trkpt>
      <trkpt lat="47.19954" lon="-1.5432">
        <ele>63</ele>
        <time>2022-07-09T07:04:09Z</time>
      </trkpt>
      <trkpt lat="47.19966" lon="-1.54328">
        <ele>64</ele>
        <time>2022-07-09T07:04:11Z</time>
      </trkpt>
      <trkpt lat="47.19978" lon="-1.54336">
        <ele>64</ele>
        <time>2022-07-09T07:04:13Z</time>
      </trkpt>
      <trkpt lat="47.19991" lon="-1.54344">
        <ele>63</ele>
        <time>2022-07-09T07:04:15Z</time>
      </trkpt>
      <trkpt lat="47.20003" lon="-1.54352">
        <ele>63</ele>
        <time>2022-07-09T07:04:17Z</time>
      </trkpt>
      <trkpt lat="47.20015" lon="-1.54361">
        <ele>62</ele>
        <time>2022-07-09T07:04:19Z</time>
      </trkpt>
      <trkpt lat="47.20028" lon="-1.54369">
        <ele>62</ele>
        <time>2022-07-09T07:04:21Z</time>
      </trkpt>
      <trkpt lat="47.2004" lon="-1.54378">
        <ele>62</ele>
        <time>2022-07-09T07:04:23Z</time>
      </trkpt>
      <trkpt lat="47.20053" lon="-1.54388">
        <ele>63</ele>
        <time>2022-07-09T07:04:25Z</time>
      </trkpt>
      <trkpt lat="47.20066" lon="-1.54396">
        <ele>62</ele>
        <time>2022-07-09T07:04:27Z</time>
      </trkpt>
      <trkpt lat="47.20079" lon="-1.54406">
        <ele>62</ele>
        <time>2022-07-09T07:04:29Z</time>
      </trkpt>
      <trkpt lat="47.20092" lon="-1.54412">
        <ele>61</ele>
        <time>2022-07-09T07:04:31Z</time>
      </trkpt>
      <trkpt lat="47.20104" lon="-1.54407">
        <ele>61</ele>
        <time>2022-07-09T07:04:33Z</time>
      </trkpt>
      <trkpt lat="47.2011" lon="-1.5439">
        <ele>59</ele>
        <time>2022-07-09T07:04:35Z</time>
      </trkpt>
      <trkpt lat="47.20118" lon="-1.54376">
        <ele>58</ele>
        <time>2022-07-09T07:04:37Z</time>
      </trkpt>
      <trkpt lat="47.20132" lon="-1.54372">
        <ele>59</ele>
        <time>2022-07-09T07:04:39Z</time>
      </trkpt>
      <trkpt lat="47.20145" lon="-1.54369">
        <ele>60</ele>
        <time>2022-07-09T07:04:41Z</time>
      </trkpt>
      <trkpt lat="47.20157" lon="-1.54362">
        <ele>61</ele>
        <time>2022-07-09T07:04:43Z</time>
      </trkpt>
      <trkpt lat="47.20169" lon="-1.54352">
        <ele>61</ele>
        <time>2022-07-09T07:04:45Z</time>
      </trkpt>
      <trkpt lat="47.20182" lon="-1.54342">
        <ele>61</ele>
        <time>2022-07-09T07:04:47Z</time>
      </trkpt>
      <trkpt lat="47.20193" lon="-1.54331">
        <ele>61</ele>
        <time>2022-07-09T07:04:49Z</time>
      </trkpt>
      <trkpt lat="47.20204" lon="-1.54322">
        <ele>62</ele>
        <time>2022-07-09T07:04:51Z</time>
      </trkpt>
      <trkpt lat="47.20215" lon="-1.54314">
        <ele>62</ele>
        <time>2022-07-09T07:04:53Z</time>
      </trkpt>
      <trkpt lat="47.20223" lon="-1.54305">
        <ele>62</ele>
        <time>2022-07-09T07:04:55Z</time>
      </trkpt>
      <trkpt lat="47.20231" lon="-1.54294">
        <ele>63</ele>
        <time>2022-07-09T07:04:57Z</time>
      </trkpt>
      <trkpt lat="47.20236" lon="-1.54283">
        <ele>63</ele>
        <time>2022-07-09T07:04:59Z</time>
      </trkpt>
      <trkpt lat="47.20244" lon="-1.54273">
        <ele>62</ele>
        <time>2022-07-09T07:05:01Z</time>
      </trkpt>
      <trkpt lat="47.20256" lon="-1.54273">
        <ele>62</ele>
        <time>2022-07-09T07:05:04Z</time>
      </trkpt>
      <trkpt lat="47.20268" lon="-1.54265">
        <ele>63</ele>
        <time>2022-07-09T07:05:06Z</time>
      </trkpt>
      <trkpt lat="47.2028" lon="-1.54255">
        <ele>64</ele>
        <time>2022-07-09T07:05:08Z</time>
      </trkpt>
      <trkpt lat="47.20291" lon="-1.54242">
        <ele>65</ele>
        <time>2022-07-09T07:05:10Z</time>
      </trkpt>
      <trkpt lat="47.20299" lon="-1.54226">
        <ele>65</ele>
        <time>2022-07-09T07:05:12Z</time>
      </trkpt>
      <trkpt lat="47.20306" lon="-1.54208">
        <ele>64</ele>
        <time>2022-07-09T07:05:14Z</time>
      </trkpt>
      <trkpt lat="47.20314" lon="-1.54191">
        <ele>62</ele>
        <time>2022-07-09T07:05:16Z</time>
      </trkpt>
      <trkpt lat="47.20322" lon="-1.54174">
        <ele>61</ele>
        <time>2022-07-09T07:05:18Z</time>
      </trkpt>
      <trkpt lat="47.20329" lon="-1.54155">
        <ele>60</ele>
        <time>2022-07-09T07:05:20Z</time>
      </trkpt>
      <trkpt lat="47.20335" lon="-1.54138">
        <ele>59</ele>
        <time>2022-07-09T07:05:22Z</time>
      </trkpt>
      <trkpt lat="47.20341" lon="-1.54121">
        <ele>59</ele>
        <time>2022-07-09T07:05:24Z</time>
      </trkpt>
      <trkpt lat="47.20348" lon="-1.54104">
        <ele>59</ele>
        <time>2022-07-09T07:05:26Z</time>
      </trkpt>
      <trkpt lat="47.20354" lon="-1.54087">
        <ele>59</ele>
        <time>2022-07-09T07:05:28Z</time>
      </trkpt>
      <trkpt lat="47.20358" lon="-1.54072">
        <ele>59</ele>
        <time>2022-07-09T07:05:30Z</time>
      </trkpt>
      <trkpt lat="47.20361" lon="-1.54059">
        <ele>60</ele>
        <time>2022-07-09T07:05:32Z</time>
      </trkpt>
      <trkpt lat="47.20363" lon="-1.54044">
        <ele>59</ele>
        <time>2022-07-09T07:05:34Z</time>
      </trkpt>
      <trkpt lat="47.20369" lon="-1.54029">
        <ele>58</ele>
        <time>2022-07-09T07:05:36Z</time>
      </trkpt>
      <trkpt lat="47.20378" lon="-1.54016">
        <ele>58</ele>
        <time>2022-07-09T07:05:38Z</time>
      </trkpt>
      <trkpt lat="47.20387" lon="-1.54001">
        <ele>58</ele>
        <time>2022-07-09T07:05:40Z</time>
      </trkpt>
      <trkpt lat="47.20396" lon="-1.53987">
        <ele>57</ele>
        <time>2022-07-09T07:05:42Z</time>
      </trkpt>
      <trkpt lat="47.20406" lon="-1.53973">
        <ele>57</ele>
        <time>2022-07-09T07:05:44Z</time>
      </trkpt>
      <trkpt lat="47.20416" lon="-1.5396">
        <ele>58</ele>
        <time>2022-07-09T07:05:46Z</time>
      </trkpt>
      <trkpt lat="47.20424" lon="-1.53945">
        <ele>58</ele>
        <time>2022-07-09T07:05:48Z</time>
      </trkpt>
      <trkpt lat="47.20433" lon="-1.53931">
        <ele>59</ele>
        <time>2022-07-09T07:05:50Z</time>
      </trkpt>
      <trkpt lat="47.2044" lon="-1.53917">
        <ele>60</ele>
        <time>2022-07-09T07:05:52Z</time>
      </trkpt>
      <trkpt lat="47.20446" lon="-1.539">
        <ele>61</ele>
        <time>2022-07-09T07:05:54Z</time>
      </trkpt>
      <trkpt lat="47.20455" lon="-1.53886">
        <ele>63</ele>
        <time>2022-07-09T07:05:56Z</time>
      </trkpt>
      <trkpt lat="47.20465" lon="-1.53874">
        <ele>63</ele>
        <time>2022-07-09T07:05:58Z</time>
      </trkpt>
      <trkpt lat="47.20473" lon="-1.53862">
        <ele>65</ele>
        <time>2022-07-09T07:06:00Z</time>
      </trkpt>
      <trkpt lat="47.20479" lon="-1.5385">
        <ele>65</ele>
        <time>2022-07-09T07:06:02Z</time>
      </trkpt>
      <trkpt lat="47.20482" lon="-1.53835">
        <ele>66</ele>
        <time>2022-07-09T07:06:04Z</time>
      </trkpt>
      <trkpt lat="47.20484" lon="-1.53821">
        <ele>67</ele>
        <time>2022-07-09T07:06:06Z</time>
      </trkpt>
      <trkpt lat="47.20489" lon="-1.53804">
        <ele>65</ele>
        <time>2022-07-09T07:06:09Z</time>
      </trkpt>
      <trkpt lat="47.20492" lon="-1.5379">
        <ele>64</ele>
        <time>2022-07-09T07:06:11Z</time>
      </trkpt>
      <trkpt lat="47.20499" lon="-1.53779">
        <ele>63</ele>
        <time>2022-07-09T07:06:13Z</time>
      </trkpt>
      <trkpt lat="47.20512" lon="-1.53778">
        <ele>62</ele>
        <time>2022-07-09T07:06:15Z</time>
      </trkpt>
      <trkpt lat="47.20524" lon="-1.53786">
        <ele>61</ele>
        <time>2022-07-09T07:06:17Z</time>
      </trkpt>
      <trkpt lat="47.20536" lon="-1.53795">
        <ele>61</ele>
        <time>2022-07-09T07:06:19Z</time>
      </trkpt>
      <trkpt lat="47.20546" lon="-1.53805">
        <ele>60</ele>
        <time>2022-07-09T07:06:21Z</time>
      </trkpt>
      <trkpt lat="47.20558" lon="-1.53815">
        <ele>60</ele>
        <time>2022-07-09T07:06:23Z</time>
      </trkpt>
      <trkpt lat="47.2057" lon="-1.53825">
        <ele>59</ele>
        <time>2022-07-09T07:06:25Z</time>
      </trkpt>
      <trkpt lat="47.20583" lon="-1.53834">
        <ele>59</ele>
        <time>2022-07-09T07:06:27Z</time>
      </trkpt>
      <trkpt lat="47.20595" lon="-1.53844">
        <ele>59</ele>
        <time>2022-07-09T07:06:29Z</time>
      </trkpt>
      <trkpt lat="47.20606" lon="-1.53855">
        <ele>60</ele>
        <time>2022-07-09T07:06:31Z</time>
      </trkpt>
      <trkpt lat="47.20619" lon="-1.53864">
        <ele>61</ele>
        <time>2022-07-09T07:06:33Z</time>
      </trkpt>
      <trkpt lat="47.20631" lon="-1.53874">
        <ele>61</ele>
        <time>2022-07-09T07:06:35Z</time>
      </trkpt>
      <trkpt lat="47.20642" lon="-1.53884">
        <ele>61</ele>
        <time>2022-07-09T07:06:37Z</time>
      </trkpt>
      <trkpt lat="47.20653" lon="-1.53892">
        <ele>61</ele>
        <time>2022-07-09T07:06:39Z</time>
      </trkpt>
      <trkpt lat="47.20665" lon="-1.53899">
        <ele>61</ele>
        <time>2022-07-09T07:06:41Z</time>
      </trkpt>
      <trkpt lat="47.20677" lon="-1.53909">
        <ele>61</ele>
        <time>2022-07-09T07:06:43Z</time>
      </trkpt>
      <trkpt lat="47.20689" lon="-1.53919">
        <ele>61</ele>
        <time>2022-07-09T07:06:45Z</time>
      </trkpt>
      <trkpt lat="47.207" lon="-1.53929">
        <ele>61</ele>
        <time>2022-07-09T07:06:47Z</time>
      </trkpt>
      <trkpt lat="47.20711" lon="-1.53939">
        <ele>62</ele>
        <time>2022-07-09T07:06:49Z</time>
      </trkpt>
      <trkpt lat="47.20723" lon="-1.53949">
        <ele>62</ele>
        <time>2022-07-09T07:06:51Z</time>
      </trkpt>
      <trkpt lat="47.20734" lon="-1.53958">
        <ele>62</ele>
        <time>2022-07-09T07:06:53Z</time>
      </trkpt>
      <trkpt lat="47.20747" lon="-1.53968">
        <ele>62</ele>
        <time>2022-07-09T07:06:55Z</time>
      </trkpt>
      <trkpt lat="47.20759" lon="-1.53977">
        <ele>62</ele>
        <time>2022-07-09T07:06:57Z</time>
      </trkpt>
      <trkpt lat="47.2077" lon="-1.53987">
        <ele>62</ele>
        <time>2022-07-09T07:06:59Z</time>
      </trkpt>
      <trkpt lat="47.20782" lon="-1.53996">
        <ele>62</ele>
        <time>2022-07-09T07:07:01Z</time>
      </trkpt>
      <trkpt lat="47.20794" lon="-1.54004">
        <ele>63</ele>
        <time>2022-07-09T07:07:03Z</time>
      </trkpt>
      <trkpt lat="47.20806" lon="-1.54013">
        <ele>64</ele>
        <time>2022-07-09T07:07:05Z</time>
      </trkpt>
      <trkpt lat="47.20817" lon="-1.54022">
        <ele>64</ele>
        <time>2022-07-09T07:07:07Z</time>
      </trkpt>
      <trkpt lat="47.20829" lon="-1.54031">
        <ele>65</ele>
        <time>2022-07-09T07:07:09Z</time>
      </trkpt>
      <trkpt lat="47.20841" lon="-1.54039">
        <ele>65</ele>
        <time>2022-07-09T07:07:11Z</time>
      </trkpt>
      <trkpt lat="47.20854" lon="-1.54047">
        <ele>66</ele>
        <time>2022-07-09T07:07:13Z</time>
      </trkpt>
      <trkpt lat="47.20866" lon="-1.54055">
        <ele>66</ele>
        <time>2022-07-09T07:07:15Z</time>
      </trkpt>
      <trkpt lat="47.20876" lon="-1.54067">
        <ele>66</ele>
        <time>2022-07-09T07:07:17Z</time>
      </trkpt>
      <trkpt lat="47.20885" lon="-1.54079">
        <ele>67</ele>
        <time>2022-07-09T07:07:19Z</time>
      </trkpt>
      <trkpt lat="47.20895" lon="-1.5409">
        <ele>68</ele>
        <time>2022-07-09T07:07:21Z</time>
      </trkpt>
      <trkpt lat="47.20906" lon="-1.54099">
        <ele>68</ele>
        <time>2022-07-09T07:07:23Z</time>
      </trkpt>
      <trkpt lat="47.20917" lon="-1.54108">
        <ele>69</ele>
        <time>2022-07-09T07:07:25Z</time>
      </trkpt>
      <trkpt lat="47.20929" lon="-1.54116">
        <ele>69</ele>
        <time>2022-07-09T07:07:27Z</time>
      </trkpt>
      <trkpt lat="47.20938" lon="-1.54127">
        <ele>69</ele>
        <time>2022-07-09T07:07:29Z</time>
      </trkpt>
      <trkpt lat="47.20949" lon="-1.54137">
        <ele>69</ele>
        <time>2022-07-09T07:07:31Z</time>
      </trkpt>
      <trkpt lat="47.20959" lon="-1.54147">
        <ele>69</ele>
        <time>2022-07-09T07:07:33Z</time>
      </trkpt>
      <trkpt lat="47.2097" lon="-1.54157">
        <ele>69</ele>
        <time>2022-07-09T07:07:35Z</time>
      </trkpt>
      <trkpt lat="47.2098" lon="-1.54166">
        <ele>69</ele>
        <time>2022-07-09T07:07:37Z</time>
      </trkpt>
      <trkpt lat="47.2099" lon="-1.54175">
        <ele>68</ele>
        <time>2022-07-09T07:07:39Z</time>
      </trkpt>
      <trkpt lat="47.21001" lon="-1.54185">
        <ele>68</ele>
        <time>2022-07-09T07:07:41Z</time>
      </trkpt>
      <trkpt lat="47.21012" lon="-1.54194">
        <ele>68</ele>
        <time>2022-07-09T07:07:43Z</time>
      </trkpt>
      <trkpt lat="47.21022" lon="-1.54202">
        <ele>68</ele>
        <time>2022-07-09T07:07:45Z</time>
      </trkpt>
      <trkpt lat="47.21033" lon="-1.54211">
        <ele>67</ele>
        <time>2022-07-09T07:07:47Z</time>
      </trkpt>
      <trkpt lat="47.21043" lon="-1.54221">
        <ele>67</ele>
        <time>2022-07-09T07:07:49Z</time>
      </trkpt>
      <trkpt lat="47.21054" lon="-1.5423">
        <ele>66</ele>
        <time>2022-07-09T07:07:51Z</time>
      </trkpt>
      <trkpt lat="47.21065" lon="-1.54239">
        <ele>66</ele>
        <time>2022-07-09T07:07:53Z</time>
      </trkpt>
      <trkpt lat="47.21076" lon="-1.54248">
        <ele>65</ele>
        <time>2022-07-09T07:07:55Z</time>
      </trkpt>
      <trkpt lat="47.21087" lon="-1.54257">
        <ele>65</ele>
        <time>2022-07-09T07:07:57Z</time>
      </trkpt>
      <trkpt lat="47.21098" lon="-1.54266">
        <ele>65</ele>
        <time>2022-07-09T07:07:59Z</time>
      </trkpt>
      <trkpt lat="47.21109" lon="-1.54275">
        <ele>65</ele>
        <time>2022-07-09T07:08:01Z</time>
      </trkpt>
      <trkpt lat="47.2112" lon="-1.54284">
        <ele>64</ele>
        <time>2022-07-09T07:08:03Z</time>
      </trkpt>
      <trkpt lat="47.21132" lon="-1.54293">
        <ele>64</ele>
        <time>2022-07-09T07:08:05Z</time>
      </trkpt>
      <trkpt lat="47.21144" lon="-1.54304">
        <ele>63</ele>
        <time>2022-07-09T07:08:07Z</time>
      </trkpt>
      <trkpt lat="47.21157" lon="-1.54315">
        <ele>63</ele>
        <time>2022-07-09T07:08:09Z</time>
      </trkpt>
      <trkpt lat="47.2117" lon="-1.54325">
        <ele>62</ele>
        <time>2022-07-09T07:08:11Z</time>
      </trkpt>
      <trkpt lat="47.21185" lon="-1.5433">
        <ele>62</ele>
        <time>2022-07-09T07:08:13Z</time>
      </trkpt>
      <trkpt lat="47.21199" lon="-1.54338">
        <ele>62</ele>
        <time>2022-07-09T07:08:15Z</time>
      </trkpt>
      <trkpt lat="47.2121" lon="-1.54353">
        <ele>62</ele>
        <time>2022-07-09T07:08:17Z</time>
      </trkpt>
      <trkpt lat="47.21221" lon="-1.54367">
        <ele>62</ele>
        <time>2022-07-09T07:08:19Z</time>
      </trkpt>
      <trkpt lat="47.21234" lon="-1.54377">
        <ele>62</ele>
        <time>2022-07-09T07:08:21Z</time>
      </trkpt>
      <trkpt lat="47.21246" lon="-1.54387">
        <ele>63</ele>
        <time>2022-07-09T07:08:23Z</time>
      </trkpt>
      <trkpt lat="47.21257" lon="-1.54396">
        <ele>63</ele>
        <time>2022-07-09T07:08:25Z</time>
      </trkpt>
      <trkpt lat="47.2127" lon="-1.54406">
        <ele>63</ele>
        <time>2022-07-09T07:08:27Z</time>
      </trkpt>
      <trkpt lat="47.21283" lon="-1.54416">
        <ele>63</ele>
        <time>2022-07-09T07:08:29Z</time>
      </trkpt>
      <trkpt lat="47.21295" lon="-1.54426">
        <ele>63</ele>
        <time>2022-07-09T07:08:31Z</time>
      </trkpt>
      <trkpt lat="47.21307" lon="-1.54436">
        <ele>62</ele>
        <time>2022-07-09T07:08:33Z</time>
      </trkpt>
      <trkpt lat="47.21318" lon="-1.54446">
        <ele>62</ele>
        <time>2022-07-09T07:08:35Z</time>
      </trkpt>
      <trkpt lat="47.2133" lon="-1.54455">
        <ele>61</ele>
        <time>2022-07-09T07:08:37Z</time>
      </trkpt>
      <trkpt lat="47.21342" lon="-1.54462">
        <ele>61</ele>
        <time>2022-07-09T07:08:39Z</time>
      </trkpt>
      <trkpt lat="47.21354" lon="-1.54471">
        <ele>62</ele>
        <time>2022-07-09T07:08:41Z</time>
      </trkpt>
      <trkpt lat="47.21367" lon="-1.54481">
        <ele>62</ele>
        <time>2022-07-09T07:08:43Z</time>
      </trkpt>
      <trkpt lat="47.21379" lon="-1.54491">
        <ele>62</ele>
        <time>2022-07-09T07:08:45Z</time>
      </trkpt>
      <trkpt lat="47.21392" lon="-1.54501">
        <ele>62</ele>
        <time>2022-07-09T07:08:47Z</time>
      </trkpt>
      <trkpt lat="47.21403" lon="-1.54512">
        <ele>63</ele>
        <time>2022-07-09T07:08:49Z</time>
      </trkpt>
      <trkpt lat="47.21415" lon="-1.54523">
        <ele>63</ele>
        <time>2022-07-09T07:08:51Z</time>
      </trkpt>
      <trkpt lat="47.21426" lon="-1.54532">
        <ele>64</ele>
        <time>2022-07-09T07:08:53Z</time>
      </trkpt>
      <trkpt lat="47.21437" lon="-1.54542">
        <ele>65</ele>
        <time>2022-07-09T07:08:55Z</time>
      </trkpt>
      <trkpt lat="47.21449" lon="-1.54551">
        <ele>64</ele>
        <time>2022-07-09T07:08:57Z</time>
      </trkpt>
      <trkpt lat="47.2146" lon="-1.54561">
        <ele>65</ele>
        <time>2022-07-09T07:08:59Z</time>
      </trkpt>
      <trkpt lat="47.21472" lon="-1.5457">
        <ele>65</ele>
        <time>2022-07-09T07:09:01Z</time>
      </trkpt>
      <trkpt lat="47.21483" lon="-1.5458">
        <ele>66</ele>
        <time>2022-07-09T07:09:03Z</time>
      </trkpt>
      <trkpt lat="47.21494" lon="-1.54593">
        <ele>66</ele>
        <time>2022-07-09T07:09:05Z</time>
      </trkpt>
      <trkpt lat="47.21505" lon="-1.54604">
        <ele>67</ele>
        <time>2022-07-09T07:09:07Z</time>
      </trkpt>
      <trkpt lat="47.21515" lon="-1.54613">
        <ele>68</ele>
        <time>2022-07-09T07:09:09Z</time>
      </trkpt>
      <trkpt lat="47.21526" lon="-1.54622">
        <ele>68</ele>
        <time>2022-07-09T07:09:11Z</time>
      </trkpt>
      <trkpt lat="47.21535" lon="-1.5463">
        <ele>69</ele>
        <time>2022-07-09T07:09:13Z</time>
      </trkpt>
      <trkpt lat="47.21546" lon="-1.54638">
        <ele>69</ele>
        <time>2022-07-09T07:09:15Z</time>
      </trkpt>
      <trkpt lat="47.21555" lon="-1.54646">
        <ele>68</ele>
        <time>2022-07-09T07:09:17Z</time>
      </trkpt>
      <trkpt lat="47.21564" lon="-1.54654">
        <ele>68</ele>
        <time>2022-07-09T07:09:19Z</time>
      </trkpt>
      <trkpt lat="47.21574" lon="-1.54662">
        <ele>67</ele>
        <time>2022-07-09T07:09:21Z</time>
      </trkpt>
      <trkpt lat="47.21585" lon="-1.5467">
        <ele>66</ele>
        <time>2022-07-09T07:09:23Z</time>
      </trkpt>
      <trkpt lat="47.21597" lon="-1.54678">
        <ele>65</ele>
        <time>2022-07-09T07:09:25Z</time>
      </trkpt>
      <trkpt lat="47.2161" lon="-1.54681">
        <ele>64</ele>
        <time>2022-07-09T07:09:27Z</time>
      </trkpt>
      <trkpt lat="47.21623" lon="-1.5468">
        <ele>63</ele>
        <time>2022-07-09T07:09:29Z</time>
      </trkpt>
      <trkpt lat="47.21633" lon="-1.54678">
        <ele>62</ele>
        <time>2022-07-09T07:09:31Z</time>
      </trkpt>
      <trkpt lat="47.21645" lon="-1.54677">
        <ele>61</ele>
        <time>2022-07-09T07:09:33Z</time>
      </trkpt>
      <trkpt lat="47.21656" lon="-1.54685">
        <ele>61</ele>
        <time>2022-07-09T07:09:35Z</time>
      </trkpt>
      <trkpt lat="47.21667" lon="-1.54699">
        <ele>60</ele>
        <time>2022-07-09T07:09:37Z</time>
      </trkpt>
      <trkpt lat="47.2168" lon="-1.54709">
        <ele>60</ele>
        <time>2022-07-09T07:09:39Z</time>
      </trkpt>
      <trkpt lat="47.21693" lon="-1.5472">
        <ele>61</ele>
        <time>2022-07-09T07:09:41Z</time>
      </trkpt>
      <trkpt lat="47.21706" lon="-1.54729">
        <ele>62</ele>
        <time>2022-07-09T07:09:43Z</time>
      </trkpt>
      <trkpt lat="47.21717" lon="-1.5474">
        <ele>63</ele>
        <time>2022-07-09T07:09:45Z</time>
      </trkpt>
      <trkpt lat="47.21729" lon="-1.5475">
        <ele>63</ele>
        <time>2022-07-09T07:09:47Z</time>
      </trkpt>
      <trkpt lat="47.2174" lon="-1.54758">
        <ele>64</ele>
        <time>2022-07-09T07:09:49Z</time>
      </trkpt>
      <trkpt lat="47.21751" lon="-1.54764">
        <ele>65</ele>
        <time>2022-07-09T07:09:51Z</time>
      </trkpt>
      <trkpt lat="47.21763" lon="-1.54771">
        <ele>66</ele>
        <time>2022-07-09T07:09:53Z</time>
      </trkpt>
      <trkpt lat="47.21774" lon="-1.54778">
        <ele>67</ele>
        <time>2022-07-09T07:09:55Z</time>
      </trkpt>
      <trkpt lat="47.21785" lon="-1.54787">
        <ele>68</ele>
        <time>2022-07-09T07:09:57Z</time>
      </trkpt>
      <trkpt lat="47.21797" lon="-1.54795">
        <ele>69</ele>
        <time>2022-07-09T07:09:59Z</time>
      </trkpt>
      <trkpt lat="47.21809" lon="-1.54803">
        <ele>70</ele>
        <time>2022-07-09T07:10:01Z</time>
      </trkpt>
      <trkpt lat="47.21819" lon="-1.54811">
        <ele>70</ele>
        <time>2022-07-09T07:10:03Z</time>
      </trkpt>
      <trkpt lat="47.2183" lon="-1.5482">
        <ele>71</ele>
        <time>2022-07-09T07:10:05Z</time>
      </trkpt>
      <trkpt lat="47.21841" lon="-1.54828">
        <ele>71</ele>
        <time>2022-07-09T07:10:07Z</time>
      </trkpt>
      <trkpt lat="47.21851" lon="-1.54837">
        <ele>71</ele>
        <time>2022-07-09T07:10:09Z</time>
      </trkpt>
      <trkpt lat="47.21861" lon="-1.54844">
        <ele>72</ele>
        <time>2022-07-09T07:10:11Z</time>
      </trkpt>
      <trkpt lat="47.2187" lon="-1.54854">
        <ele>73</ele>
        <time>2022-07-09T07:10:13Z</time>
      </trkpt>
      <trkpt lat="47.21879" lon="-1.54864">
        <ele>74</ele>
        <time>2022-07-09T07:10:15Z</time>
      </trkpt>
      <trkpt lat="47.21889" lon="-1.54874">
        <ele>74</ele>
        <time>2022-07-09T07:10:17Z</time>
      </trkpt>
      <trkpt lat="47.21899" lon="-1.54881">
        <ele>74</ele>
        <time>2022-07-09T07:10:19Z</time>
      </trkpt>
      <trkpt lat="47.21908" lon="-1.5489">
        <ele>74</ele>
        <time>2022-07-09T07:10:21Z</time>
      </trkpt>
      <trkpt lat="47.21917" lon="-1.54897">
        <ele>75</ele>
        <time>2022-07-09T07:10:23Z</time>
      </trkpt>
      <trkpt lat="47.21927" lon="-1.54905">
        <ele>75</ele>
        <time>2022-07-09T07:10:25Z</time>
      </trkpt>
      <trkpt lat="47.21937" lon="-1.54913">
        <ele>75</ele>
        <time>2022-07-09T07:10:27Z</time>
      </trkpt>
      <trkpt lat="47.21948" lon="-1.54922">
        <ele>75</ele>
        <time>2022-07-09T07:10:29Z</time>
      </trkpt>
      <trkpt lat="47.21958" lon="-1.54931">
        <ele>75</ele>
        <time>2022-07-09T07:10:31Z</time>
      </trkpt>
      <trkpt lat="47.21968" lon="-1.54941">
        <ele>74</ele>
        <time>2022-07-09T07:10:33Z</time>
      </trkpt>
      <trkpt lat="47.21978" lon="-1.54949">
        <ele>74</ele>
        <time>2022-07-09T07:10:35Z</time>
      </trkpt>
      <trkpt lat="47.21988" lon="-1.54955">
        <ele>75</ele>
        <time>2022-07-09T07:10:37Z</time>
      </trkpt>
      <trkpt lat="47.21998" lon="-1.54963">
        <ele>75</ele>
        <time>2022-07-09T07:10:39Z</time>
      </trkpt>
      <trkpt lat="47.22008" lon="-1.54972">
        <ele>75</ele>
        <time>2022-07-09T07:10:41Z</time>
      </trkpt>
      <trkpt lat="47.22019" lon="-1.54981">
        <ele>75</ele>
        <time>2022-07-09T07:10:43Z</time>
      </trkpt>
      <trkpt lat="47.2203" lon="-1.5499">
        <ele>75</ele>
        <time>2022-07-09T07:10:45Z</time>
      </trkpt>
      <trkpt lat="47.22042" lon="-1.55">
        <ele>74</ele>
        <time>2022-07-09T07:10:47Z</time>
      </trkpt>
      <trkpt lat="47.22053" lon="-1.55009">
        <ele>74</ele>
        <time>2022-07-09T07:10:49Z</time>
      </trkpt>
      <trkpt lat="47.22065" lon="-1.55019">
        <ele>73</ele>
        <time>2022-07-09T07:10:51Z</time>
      </trkpt>
      <trkpt lat="47.22077" lon="-1.55028">
        <ele>73</ele>
        <time>2022-07-09T07:10:53Z</time>
      </trkpt>
      <trkpt lat="47.22089" lon="-1.55037">
        <ele>72</ele>
        <time>2022-07-09T07:10:55Z</time>
      </trkpt>
      <trkpt lat="47.221" lon="-1.55047">
        <ele>72</ele>
        <time>2022-07-09T07:10:57Z</time>
      </trkpt>
      <trkpt lat="47.22111" lon="-1.55056">
        <ele>72</ele>
        <time>2022-07-09T07:10:59Z</time>
      </trkpt>
      <trkpt lat="47.22122" lon="-1.55065">
        <ele>71</ele>
        <time>2022-07-09T07:11:01Z</time>
      </trkpt>
      <trkpt lat="47.22134" lon="-1.55075">
        <ele>70</ele>
        <time>2022-07-09T07:11:03Z</time>
      </trkpt>
      <trkpt lat="47.22146" lon="-1.55084">
        <ele>70</ele>
        <time>2022-07-09T07:11:05Z</time>
      </trkpt>
      <trkpt lat="47.22158" lon="-1.55094">
        <ele>69</ele>
        <time>2022-07-09T07:11:07Z</time>
      </trkpt>
      <trkpt lat="47.2217" lon="-1.55104">
        <ele>69</ele>
        <time>2022-07-09T07:11:09Z</time>
      </trkpt>
      <trkpt lat="47.22182" lon="-1.55114">
        <ele>70</ele>
        <time>2022-07-09T07:11:11Z</time>
      </trkpt>
      <trkpt lat="47.22193" lon="-1.55122">
        <ele>71</ele>
        <time>2022-07-09T07:11:13Z</time>
      </trkpt>
      <trkpt lat="47.22205" lon="-1.55133">
        <ele>72</ele>
        <time>2022-07-09T07:11:15Z</time>
      </trkpt>
      <trkpt lat="47.22218" lon="-1.55145">
        <ele>72</ele>
        <time>2022-07-09T07:11:17Z</time>
      </trkpt>
      <trkpt lat="47.22232" lon="-1.55159">
        <ele>72</ele>
        <time>2022-07-09T07:11:19Z</time>
      </trkpt>
      <trkpt lat="47.22246" lon="-1.55174">
        <ele>72</ele>
        <time>2022-07-09T07:11:21Z</time>
      </trkpt>
      <trkpt lat="47.22262" lon="-1.55184">
        <ele>70</ele>
        <time>2022-07-09T07:11:23Z</time>
      </trkpt>
      <trkpt lat="47.22275" lon="-1.55198">
        <ele>69</ele>
        <time>2022-07-09T07:11:25Z</time>
      </trkpt>
      <trkpt lat="47.22288" lon="-1.55209">
        <ele>69</ele>
        <time>2022-07-09T07:11:27Z</time>
      </trkpt>
      <trkpt lat="47.223" lon="-1.55221">
        <ele>68</ele>
        <time>2022-07-09T07:11:29Z</time>
      </trkpt>
      <trkpt lat="47.2231" lon="-1.55234">
        <ele>67</ele>
        <time>2022-07-09T07:11:31Z</time>
      </trkpt>
      <trkpt lat="47.22316" lon="-1.55249">
        <ele>65</ele>
        <time>2022-07-09T07:11:34Z</time>
      </trkpt>
      <trkpt lat="47.22327" lon="-1.55251">
        <ele>64</ele>
        <time>2022-07-09T07:11:36Z</time>
      </trkpt>
      <trkpt lat="47.22338" lon="-1.55257">
        <ele>63</ele>
        <time>2022-07-09T07:11:38Z</time>
      </trkpt>
      <trkpt lat="47.2235" lon="-1.5526">
        <ele>63</ele>
        <time>2022-07-09T07:11:40Z</time>
      </trkpt>
      <trkpt lat="47.22363" lon="-1.55263">
        <ele>63</ele>
        <time>2022-07-09T07:11:42Z</time>
      </trkpt>
      <trkpt lat="47.22376" lon="-1.55265">
        <ele>63</ele>
        <time>2022-07-09T07:11:44Z</time>
      </trkpt>
      <trkpt lat="47.22389" lon="-1.55266">
        <ele>62</ele>
        <time>2022-07-09T07:11:46Z</time>
      </trkpt>
      <trkpt lat="47.22402" lon="-1.55269">
        <ele>62</ele>
        <time>2022-07-09T07:11:48Z</time>
      </trkpt>
      <trkpt lat="47.22416" lon="-1.55272">
        <ele>62</ele>
        <time>2022-07-09T07:11:50Z</time>
      </trkpt>
      <trkpt lat="47.22429" lon="-1.55274">
        <ele>61</ele>
        <time>2022-07-09T07:11:52Z</time>
      </trkpt>
      <trkpt lat="47.22443" lon="-1.55276">
        <ele>61</ele>
        <time>2022-07-09T07:11:54Z</time>
      </trkpt>
      <trkpt lat="47.22456" lon="-1.5528">
        <ele>61</ele>
        <time>2022-07-09T07:11:56Z</time>
      </trkpt>
      <trkpt lat="47.22469" lon="-1.55283">
        <ele>60</ele>
        <time>2022-07-09T07:11:58Z</time>
      </trkpt>
      <trkpt lat="47.22482" lon="-1.55285">
        <ele>60</ele>
        <time>2022-07-09T07:12:00Z</time>
      </trkpt>
      <trkpt lat="47.22495" lon="-1.55288">
        <ele>60</ele>
        <time>2022-07-09T07:12:02Z</time>
      </trkpt>
      <trkpt lat="47.22508" lon="-1.55291">
        <ele>60</ele>
        <time>2022-07-09T07:12:04Z</time>
      </trkpt>
      <trkpt lat="47.22521" lon="-1.55294">
        <ele>60</ele>
        <time>2022-07-09T07:12:06Z</time>
      </trkpt>
      <trkpt lat="47.22534" lon="-1.55297">
        <ele>59</ele>
        <time>2022-07-09T07:12:08Z</time>
      </trkpt>
      <trkpt lat="47.22546" lon="-1.55299">
        <ele>58</ele>
        <time>2022-07-09T07:12:10Z</time>
      </trkpt>
      <trkpt lat="47.2256" lon="-1.553">
        <ele>59</ele>
        <time>2022-07-09T07:12:12Z</time>
      </trkpt>
      <trkpt lat="47.22573" lon="-1.55303">
        <ele>59</ele>
        <time>2022-07-09T07:12:14Z</time>
      </trkpt>
      <trkpt lat="47.22586" lon="-1.55305">
        <ele>58</ele>
        <time>2022-07-09T07:12:16Z</time>
      </trkpt>
      <trkpt lat="47.22598" lon="-1.55309">
        <ele>58</ele>
        <time>2022-07-09T07:12:18Z</time>
      </trkpt>
      <trkpt lat="47.2261" lon="-1.55311">
        <ele>58</ele>
        <time>2022-07-09T07:12:20Z</time>
      </trkpt>
      <trkpt lat="47.22622" lon="-1.55314">
        <ele>59</ele>
        <time>2022-07-09T07:12:22Z</time>
      </trkpt>
      <trkpt lat="47.22634" lon="-1.55315">
        <ele>59</ele>
        <time>2022-07-09T07:12:24Z</time>
      </trkpt>
      <trkpt lat="47.22646" lon="-1.55316">
        <ele>59</ele>
        <time>2022-07-09T07:12:26Z</time>
      </trkpt>
      <trkpt lat="47.22657" lon="-1.55317">
        <ele>60</ele>
        <time>2022-07-09T07:12:28Z</time>
      </trkpt>
      <trkpt lat="47.22667" lon="-1.55318">
        <ele>61</ele>
        <time>2022-07-09T07:12:30Z</time>
      </trkpt>
      <trkpt lat="47.22677" lon="-1.5532">
        <ele>61</ele>
        <time>2022-07-09T07:12:32Z</time>
      </trkpt>
      <trkpt lat="47.22689" lon="-1.5532">
        <ele>61</ele>
        <time>2022-07-09T07:12:34Z</time>
      </trkpt>
      <trkpt lat="47.227" lon="-1.55317">
        <ele>62</ele>
        <time>2022-07-09T07:12:36Z</time>
      </trkpt>
      <trkpt lat="47.22711" lon="-1.55309">
        <ele>61</ele>
        <time>2022-07-09T07:12:38Z</time>
      </trkpt>
      <trkpt lat="47.22719" lon="-1.553">
        <ele>61</ele>
        <time>2022-07-09T07:12:40Z</time>
      </trkpt>
      <trkpt lat="47.22725" lon="-1.55289">
        <ele>60</ele>
        <time>2022-07-09T07:12:42Z</time>
      </trkpt>
      <trkpt lat="47.22732" lon="-1.55279">
        <ele>60</ele>
        <time>2022-07-09T07:12:44Z</time>
      </trkpt>
      <trkpt lat="47.22742" lon="-1.55272">
        <ele>60</ele>
        <time>2022-07-09T07:12:46Z</time>
      </trkpt>
      <trkpt lat="47.22751" lon="-1.5526">
        <ele>60</ele>
        <time>2022-07-09T07:12:48Z</time>
      </trkpt>
      <trkpt lat="47.22758" lon="-1.5525">
        <ele>60</ele>
        <time>2022-07-09T07:12:50Z</time>
      </trkpt>
      <trkpt lat="47.22766" lon="-1.55239">
        <ele>60</ele>
        <time>2022-07-09T07:12:52Z</time>
      </trkpt>
      <trkpt lat="47.22773" lon="-1.55228">
        <ele>60</ele>
        <time>2022-07-09T07:12:54Z</time>
      </trkpt>
      <trkpt lat="47.22782" lon="-1.55216">
        <ele>61</ele>
        <time>2022-07-09T07:12:57Z</time>
      </trkpt>
      <trkpt lat="47.22793" lon="-1.5521">
        <ele>61</ele>
        <time>2022-07-09T07:13:01Z</time>
      </trkpt>
      <trkpt lat="47.228" lon="-1.55217">
        <ele>61</ele>
        <time>2022-07-09T07:13:03Z</time>
      </trkpt>
      <trkpt lat="47.22808" lon="-1.5523">
        <ele>62</ele>
        <time>2022-07-09T07:13:05Z</time>
      </trkpt>
      <trkpt lat="47.22815" lon="-1.55241">
        <ele>63</ele>
        <time>2022-07-09T07:13:07Z</time>
      </trkpt>
      <trkpt lat="47.22822" lon="-1.55252">
        <ele>64</ele>
        <time>2022-07-09T07:13:09Z</time>
      </trkpt>
      <trkpt lat="47.22829" lon="-1.55262">
        <ele>65</ele>
        <time>2022-07-09T07:13:11Z</time>
      </trkpt>
      <trkpt lat="47.22836" lon="-1.55273">
        <ele>65</ele>
        <time>2022-07-09T07:13:13Z</time>
      </trkpt>
      <trkpt lat="47.22844" lon="-1.55284">
        <ele>65</ele>
        <time>2022-07-09T07:13:15Z</time>
      </trkpt>
      <trkpt lat="47.22851" lon="-1.55295">
        <ele>65</ele>
        <time>2022-07-09T07:13:17Z</time>
      </trkpt>
      <trkpt lat="47.22858" lon="-1.55306">
        <ele>65</ele>
        <time>2022-07-09T07:13:19Z</time>
      </trkpt>
      <trkpt lat="47.22869" lon="-1.55296">
        <ele>65</ele>
        <time>2022-07-09T07:13:22Z</time>
      </trkpt>
      <trkpt lat="47.22877" lon="-1.55287">
        <ele>65</ele>
        <time>2022-07-09T07:13:24Z</time>
      </trkpt>
      <trkpt lat="47.22886" lon="-1.55275">
        <ele>65</ele>
        <time>2022-07-09T07:13:26Z</time>
      </trkpt>
      <trkpt lat="47.22895" lon="-1.55264">
        <ele>65</ele>
        <time>2022-07-09T07:13:28Z</time>
      </trkpt>
      <trkpt lat="47.22904" lon="-1.55251">
        <ele>65</ele>
        <time>2022-07-09T07:13:30Z</time>
      </trkpt>
      <trkpt lat="47.22914" lon="-1.55238">
        <ele>64</ele>
        <time>2022-07-09T07:13:32Z</time>
      </trkpt>
      <trkpt lat="47.22924" lon="-1.55225">
        <ele>64</ele>
        <time>2022-07-09T07:13:34Z</time>
      </trkpt>
      <trkpt lat="47.22935" lon="-1.55211">
        <ele>63</ele>
        <time>2022-07-09T07:13:36Z</time>
      </trkpt>
      <trkpt lat="47.22946" lon="-1.55197">
        <ele>63</ele>
        <time>2022-07-09T07:13:38Z</time>
      </trkpt>
      <trkpt lat="47.22957" lon="-1.55184">
        <ele>62</ele>
        <time>2022-07-09T07:13:40Z</time>
      </trkpt>
      <trkpt lat="47.22968" lon="-1.55169">
        <ele>61</ele>
        <time>2022-07-09T07:13:42Z</time>
      </trkpt>
      <trkpt lat="47.2298" lon="-1.55154">
        <ele>61</ele>
        <time>2022-07-09T07:13:44Z</time>
      </trkpt>
      <trkpt lat="47.22992" lon="-1.5514">
        <ele>60</ele>
        <time>2022-07-09T07:13:46Z</time>
      </trkpt>
      <trkpt lat="47.23003" lon="-1.55126">
        <ele>60</ele>
        <time>2022-07-09T07:13:48Z</time>
      </trkpt>
      <trkpt lat="47.23013" lon="-1.55113">
        <ele>60</ele>
        <time>2022-07-09T07:13:50Z</time>
      </trkpt>
      <trkpt lat="47.23023" lon="-1.55101">
        <ele>60</ele>
        <time>2022-07-09T07:13:52Z</time>
      </trkpt>
      <trkpt lat="47.23034" lon="-1.55088">
        <ele>60</ele>
        <time>2022-07-09T07:13:54Z</time>
      </trkpt>
      <trkpt lat="47.23045" lon="-1.55076">
        <ele>60</ele>
        <time>2022-07-09T07:13:56Z</time>
      </trkpt>
      <trkpt lat="47.23056" lon="-1.55064">
        <ele>60</ele>
        <time>2022-07-09T07:13:58Z</time>
      </trkpt>
      <trkpt lat="47.23067" lon="-1.55052">
        <ele>60</ele>
        <time>2022-07-09T07:14:00Z</time>
      </trkpt>
      <trkpt lat="47.23078" lon="-1.55039">
        <ele>59</ele>
        <time>2022-07-09T07:14:02Z</time>
      </trkpt>
      <trkpt lat="47.23089" lon="-1.55027">
        <ele>58</ele>
        <time>2022-07-09T07:14:04Z</time>
      </trkpt>
      <trkpt lat="47.23099" lon="-1.55016">
        <ele>57</ele>
        <time>2022-07-09T07:14:06Z</time>
      </trkpt>
      <trkpt lat="47.23109" lon="-1.55004">
        <ele>57</ele>
        <time>2022-07-09T07:14:08Z</time>
      </trkpt>
      <trkpt lat="47.23118" lon="-1.54993">
        <ele>58</ele>
        <time>2022-07-09T07:14:10Z</time>
      </trkpt>
      <trkpt lat="47.23128" lon="-1.54983">
        <ele>59</ele>
        <time>2022-07-09T07:14:12Z</time>
      </trkpt>
      <trkpt lat="47.23138" lon="-1.54973">
        <ele>59</ele>
        <time>2022-07-09T07:14:14Z</time>
      </trkpt>
      <trkpt lat="47.23147" lon="-1.54962">
        <ele>59</ele>
        <time>2022-07-09T07:14:16Z</time>
      </trkpt>
      <trkpt lat="47.23157" lon="-1.54952">
        <ele>59</ele>
        <time>2022-07-09T07:14:18Z</time>
      </trkpt>
      <trkpt lat="47.23168" lon="-1.54941">
        <ele>59</ele>
        <time>2022-07-09T07:14:20Z</time>
      </trkpt>
      <trkpt lat="47.23178" lon="-1.5493">
        <ele>59</ele>
        <time>2022-07-09T07:14:22Z</time>
      </trkpt>
      <trkpt lat="47.23189" lon="-1.54921">
        <ele>59</ele>
        <time>2022-07-09T07:14:24Z</time>
      </trkpt>
      <trkpt lat="47.232" lon="-1.54912">
        <ele>59</ele>
        <time>2022-07-09T07:14:26Z</time>
      </trkpt>
      <trkpt lat="47.23211" lon="-1.54903">
        <ele>59</ele>
        <time>2022-07-09T07:14:28Z</time>
      </trkpt>
      <trkpt lat="47.23223" lon="-1.54896">
        <ele>59</ele>
        <time>2022-07-09T07:14:30Z</time>
      </trkpt>
      <trkpt lat="47.23234" lon="-1.54891">
        <ele>60</ele>
        <time>2022-07-09T07:14:32Z</time>
      </trkpt>
      <trkpt lat="47.23246" lon="-1.54886">
        <ele>60</ele>
        <time>2022-07-09T07:14:34Z</time>
      </trkpt>
      <trkpt lat="47.23259" lon="-1.54879">
        <ele>59</ele>
        <time>2022-07-09T07:14:36Z</time>
      </trkpt>
      <trkpt lat="47.23271" lon="-1.54877">
        <ele>60</ele>
        <time>2022-07-09T07:14:38Z</time>
      </trkpt>
      <trkpt lat="47.23283" lon="-1.54875">
        <ele>60</ele>
        <time>2022-07-09T07:14:40Z</time>
      </trkpt>
      <trkpt lat="47.23296" lon="-1.54875">
        <ele>59</ele>
        <time>2022-07-09T07:14:42Z</time>
      </trkpt>
      <trkpt lat="47.23309" lon="-1.54875">
        <ele>60</ele>
        <time>2022-07-09T07:14:44Z</time>
      </trkpt>
      <trkpt lat="47.23321" lon="-1.54877">
        <ele>61</ele>
        <time>2022-07-09T07:14:46Z</time>
      </trkpt>
      <trkpt lat="47.23333" lon="-1.54879">
        <ele>61</ele>
        <time>2022-07-09T07:14:48Z</time>
      </trkpt>
      <trkpt lat="47.23345" lon="-1.54882">
        <ele>62</ele>
        <time>2022-07-09T07:14:50Z</time>
      </trkpt>
      <trkpt lat="47.23359" lon="-1.54882">
        <ele>62</ele>
        <time>2022-07-09T07:14:52Z</time>
      </trkpt>
      <trkpt lat="47.23372" lon="-1.5488">
        <ele>62</ele>
        <time>2022-07-09T07:14:54Z</time>
      </trkpt>
      <trkpt lat="47.23385" lon="-1.54881">
        <ele>62</ele>
        <time>2022-07-09T07:14:56Z</time>
      </trkpt>
      <trkpt lat="47.23398" lon="-1.54883">
        <ele>61</ele>
        <time>2022-07-09T07:14:58Z</time>
      </trkpt>
      <trkpt lat="47.23411" lon="-1.54884">
        <ele>61</ele>
        <time>2022-07-09T07:15:00Z</time>
      </trkpt>
      <trkpt lat="47.23423" lon="-1.54885">
        <ele>61</ele>
        <time>2022-07-09T07:15:02Z</time>
      </trkpt>
      <trkpt lat="47.23435" lon="-1.54887">
        <ele>60</ele>
        <time>2022-07-09T07:15:04Z</time>
      </trkpt>
      <trkpt lat="47.23447" lon="-1.54889">
        <ele>60</ele>
        <time>2022-07-09T07:15:06Z</time>
      </trkpt>
      <trkpt lat="47.23459" lon="-1.54891">
        <ele>59</ele>
        <time>2022-07-09T07:15:08Z</time>
      </trkpt>
      <trkpt lat="47.23472" lon="-1.54893">
        <ele>59</ele>
        <time>2022-07-09T07:15:10Z</time>
      </trkpt>
      <trkpt lat="47.23484" lon="-1.54896">
        <ele>59</ele>
        <time>2022-07-09T07:15:12Z</time>
      </trkpt>
      <trkpt lat="47.23496" lon="-1.54899">
        <ele>59</ele>
        <time>2022-07-09T07:15:14Z</time>
      </trkpt>
      <trkpt lat="47.23508" lon="-1.54902">
        <ele>59</ele>
        <time>2022-07-09T07:15:16Z</time>
      </trkpt>
      <trkpt lat="47.23519" lon="-1.54905">
        <ele>59</ele>
        <time>2022-07-09T07:15:18Z</time>
      </trkpt>
      <trkpt lat="47.2353" lon="-1.54907">
        <ele>59</ele>
        <time>2022-07-09T07:15:20Z</time>
      </trkpt>
      <trkpt lat="47.23541" lon="-1.54911">
        <ele>60</ele>
        <time>2022-07-09T07:15:22Z</time>
      </trkpt>
      <trkpt lat="47.2355" lon="-1.54922">
        <ele>62</ele>
        <time>2022-07-09T07:15:24Z</time>
      </trkpt>
      <trkpt lat="47.23557" lon="-1.54936">
        <ele>63</ele>
        <time>2022-07-09T07:15:26Z</time>
      </trkpt>
      <trkpt lat="47.23565" lon="-1.54947">
        <ele>63</ele>
        <time>2022-07-09T07:15:28Z</time>
      </trkpt>
      <trkpt lat="47.23573" lon="-1.54958">
        <ele>63</ele>
        <time>2022-07-09T07:15:30Z</time>
      </trkpt>
      <trkpt lat="47.23579" lon="-1.54973">
        <ele>64</ele>
        <time>2022-07-09T07:15:32Z</time>
      </trkpt>
      <trkpt lat="47.23584" lon="-1.54987">
        <ele>64</ele>
        <time>2022-07-09T07:15:34Z</time>
      </trkpt>
      <trkpt lat="47.23589" lon="-1.54999">
        <ele>64</ele>
        <time>2022-07-09T07:15:36Z</time>
      </trkpt>
      <trkpt lat="47.23598" lon="-1.55012">
        <ele>64</ele>
        <time>2022-07-09T07:15:39Z</time>
      </trkpt>
      <trkpt lat="47.23607" lon="-1.55023">
        <ele>65</ele>
        <time>2022-07-09T07:15:41Z</time>
      </trkpt>
      <trkpt lat="47.23616" lon="-1.55033">
        <ele>63</ele>
        <time>2022-07-09T07:15:43Z</time>
      </trkpt>
      <trkpt lat="47.23626" lon="-1.55041">
        <ele>62</ele>
        <time>2022-07-09T07:15:45Z</time>
      </trkpt>
      <trkpt lat="47.23637" lon="-1.55045">
        <ele>62</ele>
        <time>2022-07-09T07:15:47Z</time>
      </trkpt>
      <trkpt lat="47.23648" lon="-1.55048">
        <ele>62</ele>
        <time>2022-07-09T07:15:49Z</time>
      </trkpt>
      <trkpt lat="47.2366" lon="-1.55052">
        <ele>61</ele>
        <time>2022-07-09T07:15:51Z</time>
      </trkpt>
      <trkpt lat="47.2367" lon="-1.55057">
        <ele>59</ele>
        <time>2022-07-09T07:15:53Z</time>
      </trkpt>
      <trkpt lat="47.23679" lon="-1.55066">
        <ele>60</ele>
        <time>2022-07-09T07:15:55Z</time>
      </trkpt>
      <trkpt lat="47.23688" lon="-1.55072">
        <ele>61</ele>
        <time>2022-07-09T07:15:57Z</time>
      </trkpt>
      <trkpt lat="47.23699" lon="-1.55077">
        <ele>61</ele>
        <time>2022-07-09T07:15:59Z</time>
      </trkpt>
      <trkpt lat="47.2371" lon="-1.55085">
        <ele>62</ele>
        <time>2022-07-09T07:16:01Z</time>
      </trkpt>
      <trkpt lat="47.23717" lon="-1.55099">
        <ele>62</ele>
        <time>2022-07-09T07:16:03Z</time>
      </trkpt>
      <trkpt lat="47.2372" lon="-1.55115">
        <ele>62</ele>
        <time>2022-07-09T07:16:05Z</time>
      </trkpt>
      <trkpt lat="47.23724" lon="-1.5513">
        <ele>63</ele>
        <time>2022-07-09T07:16:07Z</time>
      </trkpt>
      <trkpt lat="47.23727" lon="-1.55145">
        <ele>63</ele>
        <time>2022-07-09T07:16:09Z</time>
      </trkpt>
      <trkpt lat="47.23733" lon="-1.55154">
        <ele>63</ele>
        <time>2022-07-09T07:16:11Z</time>
      </trkpt>
      <trkpt lat="47.23743" lon="-1.55156">
        <ele>63</ele>
        <time>2022-07-09T07:16:13Z</time>
      </trkpt>
      <trkpt lat="47.23754" lon="-1.55158">
        <ele>64</ele>
        <time>2022-07-09T07:16:15Z</time>
      </trkpt>
      <trkpt lat="47.23765" lon="-1.55161">
        <ele>64</ele>
        <time>2022-07-09T07:16:17Z</time>
      </trkpt>
      <trkpt lat="47.23776" lon="-1.55165">
        <ele>64</ele>
        <time>2022-07-09T07:16:19Z</time>
      </trkpt>
      <trkpt lat="47.23787" lon="-1.55169">
        <ele>64</ele>
        <time>2022-07-09T07:16:21Z</time>
      </trkpt>
      <trkpt lat="47.23797" lon="-1.55175">
        <ele>64</ele>
        <time>2022-07-09T07:16:23Z</time>
      </trkpt>
      <trkpt lat="47.23807" lon="-1.55183">
        <ele>64</ele>
        <time>2022-07-09T07:16:25Z</time>
      </trkpt>
      <trkpt lat="47.23816" lon="-1.55193">
        <ele>64</ele>
        <time>2022-07-09T07:16:27Z</time>
      </trkpt>
      <trkpt lat="47.23825" lon="-1.55205">
        <ele>63</ele>
        <time>2022-07-09T07:16:29Z</time>
      </trkpt>
      <trkpt lat="47.23835" lon="-1.55226">
        <ele>63</ele>
        <time>2022-07-09T07:16:32Z</time>
      </trkpt>
      <trkpt lat="47.23842" lon="-1.55242">
        <ele>62</ele>
        <time>2022-07-09T07:16:34Z</time>
      </trkpt>
      <trkpt lat="47.23851" lon="-1.55263">
        <ele>61</ele>
        <time>2022-07-09T07:16:37Z</time>
      </trkpt>
      <trkpt lat="47.23857" lon="-1.55278">
        <ele>60</ele>
        <time>2022-07-09T07:16:39Z</time>
      </trkpt>
      <trkpt lat="47.23867" lon="-1.55298">
        <ele>61</ele>
        <time>2022-07-09T07:16:42Z</time>
      </trkpt>
      <trkpt lat="47.23875" lon="-1.5531">
        <ele>61</ele>
        <time>2022-07-09T07:16:44Z</time>
      </trkpt>
      <trkpt lat="47.23884" lon="-1.55321">
        <ele>61</ele>
        <time>2022-07-09T07:16:46Z</time>
      </trkpt>
      <trkpt lat="47.23893" lon="-1.55334">
        <ele>62</ele>
        <time>2022-07-09T07:16:48Z</time>
      </trkpt>
      <trkpt lat="47.23902" lon="-1.55344">
        <ele>62</ele>
        <time>2022-07-09T07:16:50Z</time>
      </trkpt>
      <trkpt lat="47.23911" lon="-1.55355">
        <ele>63</ele>
        <time>2022-07-09T07:16:52Z</time>
      </trkpt>
      <trkpt lat="47.23919" lon="-1.55366">
        <ele>63</ele>
        <time>2022-07-09T07:16:54Z</time>
      </trkpt>
      <trkpt lat="47.23926" lon="-1.55376">
        <ele>63</ele>
        <time>2022-07-09T07:16:56Z</time>
      </trkpt>
      <trkpt lat="47.23933" lon="-1.55387">
        <ele>64</ele>
        <time>2022-07-09T07:16:58Z</time>
      </trkpt>
      <trkpt lat="47.23938" lon="-1.55399">
        <ele>64</ele>
        <time>2022-07-09T07:17:00Z</time>
      </trkpt>
      <trkpt lat="47.23948" lon="-1.55418">
        <ele>65</ele>
        <time>2022-07-09T07:17:04Z</time>
      </trkpt>
      <trkpt lat="47.23951" lon="-1.55437">
        <ele>67</ele>
        <time>2022-07-09T07:17:07Z</time>
      </trkpt>
      <trkpt lat="47.23948" lon="-1.55452">
        <ele>67</ele>
        <time>2022-07-09T07:17:09Z</time>
      </trkpt>
      <trkpt lat="47.23946" lon="-1.5547">
        <ele>68</ele>
        <time>2022-07-09T07:17:11Z</time>
      </trkpt>
      <trkpt lat="47.2395" lon="-1.55483">
        <ele>70</ele>
        <time>2022-07-09T07:17:13Z</time>
      </trkpt>
      <trkpt lat="47.23957" lon="-1.55498">
        <ele>71</ele>
        <time>2022-07-09T07:17:15Z</time>
      </trkpt>
      <trkpt lat="47.23966" lon="-1.5551">
        <ele>71</ele>
        <time>2022-07-09T07:17:17Z</time>
      </trkpt>
      <trkpt lat="47.23976" lon="-1.55522">
        <ele>71</ele>
        <time>2022-07-09T07:17:19Z</time>
      </trkpt>
      <trkpt lat="47.23986" lon="-1.55532">
        <ele>70</ele>
        <time>2022-07-09T07:17:21Z</time>
      </trkpt>
      <trkpt lat="47.23996" lon="-1.55542">
        <ele>71</ele>
        <time>2022-07-09T07:17:23Z</time>
      </trkpt>
      <trkpt lat="47.24007" lon="-1.55552">
        <ele>71</ele>
        <time>2022-07-09T07:17:25Z</time>
      </trkpt>
      <trkpt lat="47.24018" lon="-1.55564">
        <ele>71</ele>
        <time>2022-07-09T07:17:27Z</time>
      </trkpt>
      <trkpt lat="47.24028" lon="-1.55575">
        <ele>71</ele>
        <time>2022-07-09T07:17:29Z</time>
      </trkpt>
      <trkpt lat="47.24037" lon="-1.55586">
        <ele>72</ele>
        <time>2022-07-09T07:17:31Z</time>
      </trkpt>
      <trkpt lat="47.24047" lon="-1.55597">
        <ele>72</ele>
        <time>2022-07-09T07:17:33Z</time>
      </trkpt>
      <trkpt lat="47.24056" lon="-1.55608">
        <ele>72</ele>
        <time>2022-07-09T07:17:35Z</time>
      </trkpt>
      <trkpt lat="47.24065" lon="-1.55618">
        <ele>72</ele>
        <time>2022-07-09T07:17:37Z</time>
      </trkpt>
      <trkpt lat="47.24073" lon="-1.55628">
        <ele>73</ele>
        <time>2022-07-09T07:17:39Z</time>
      </trkpt>
      <trkpt lat="47.24083" lon="-1.55637">
        <ele>74</ele>
        <time>2022-07-09T07:17:41Z</time>
      </trkpt>
      <trkpt lat="47.24094" lon="-1.55644">
        <ele>74</ele>
        <time>2022-07-09T07:17:43Z</time>
      </trkpt>
      <trkpt lat="47.24106" lon="-1.55652">
        <ele>74</ele>
        <time>2022-07-09T07:17:45Z</time>
      </trkpt>
      <trkpt lat="47.24118" lon="-1.55657">
        <ele>73</ele>
        <time>2022-07-09T07:17:47Z</time>
      </trkpt>
      <trkpt lat="47.24131" lon="-1.55654">
        <ele>71</ele>
        <time>2022-07-09T07:17:49Z</time>
      </trkpt>
      <trkpt lat="47.24145" lon="-1.55652">
        <ele>71</ele>
        <time>2022-07-09T07:17:51Z</time>
      </trkpt>
      <trkpt lat="47.24159" lon="-1.55651">
        <ele>71</ele>
        <time>2022-07-09T07:17:53Z</time>
      </trkpt>
      <trkpt lat="47.24176" lon="-1.5565">
        <ele>71</ele>
        <time>2022-07-09T07:17:55Z</time>
      </trkpt>
      <trkpt lat="47.24185" lon="-1.55649">
        <ele>71</ele>
        <time>2022-07-09T07:17:56Z</time>
      </trkpt>
      <trkpt lat="47.24202" lon="-1.55648">
        <ele>71</ele>
        <time>2022-07-09T07:17:58Z</time>
      </trkpt>
      <trkpt lat="47.24218" lon="-1.55646">
        <ele>70</ele>
        <time>2022-07-09T07:18:00Z</time>
      </trkpt>
      <trkpt lat="47.24234" lon="-1.55646">
        <ele>70</ele>
        <time>2022-07-09T07:18:02Z</time>
      </trkpt>
      <trkpt lat="47.24243" lon="-1.55645">
        <ele>70</ele>
        <time>2022-07-09T07:18:03Z</time>
      </trkpt>
      <trkpt lat="47.2426" lon="-1.55643">
        <ele>69</ele>
        <time>2022-07-09T07:18:05Z</time>
      </trkpt>
      <trkpt lat="47.24276" lon="-1.55642">
        <ele>68</ele>
        <time>2022-07-09T07:18:07Z</time>
      </trkpt>
      <trkpt lat="47.24292" lon="-1.5564">
        <ele>68</ele>
        <time>2022-07-09T07:18:09Z</time>
      </trkpt>
      <trkpt lat="47.24306" lon="-1.55639">
        <ele>68</ele>
        <time>2022-07-09T07:18:11Z</time>
      </trkpt>
      <trkpt lat="47.2432" lon="-1.55639">
        <ele>68</ele>
        <time>2022-07-09T07:18:13Z</time>
      </trkpt>
      <trkpt lat="47.24333" lon="-1.55638">
        <ele>68</ele>
        <time>2022-07-09T07:18:15Z</time>
      </trkpt>
      <trkpt lat="47.24347" lon="-1.55636">
        <ele>66</ele>
        <time>2022-07-09T07:18:17Z</time>
      </trkpt>
      <trkpt lat="47.2436" lon="-1.55633">
        <ele>64</ele>
        <time>2022-07-09T07:18:19Z</time>
      </trkpt>
      <trkpt lat="47.24371" lon="-1.55629">
        <ele>64</ele>
        <time>2022-07-09T07:18:21Z</time>
      </trkpt>
      <trkpt lat="47.24381" lon="-1.55623">
        <ele>65</ele>
        <time>2022-07-09T07:18:23Z</time>
      </trkpt>
      <trkpt lat="47.24392" lon="-1.5562">
        <ele>65</ele>
        <time>2022-07-09T07:18:25Z</time>
      </trkpt>
      <trkpt lat="47.24404" lon="-1.55619">
        <ele>66</ele>
        <time>2022-07-09T07:18:27Z</time>
      </trkpt>
      <trkpt lat="47.24415" lon="-1.55618">
        <ele>66</ele>
        <time>2022-07-09T07:18:29Z</time>
      </trkpt>
      <trkpt lat="47.24426" lon="-1.55617">
        <ele>66</ele>
        <time>2022-07-09T07:18:31Z</time>
      </trkpt>
      <trkpt lat="47.24437" lon="-1.55616">
        <ele>66</ele>
        <time>2022-07-09T07:18:33Z</time>
      </trkpt>
      <trkpt lat="47.24447" lon="-1.55615">
        <ele>66</ele>
        <time>2022-07-09T07:18:35Z</time>
      </trkpt>
      <trkpt lat="47.24458" lon="-1.55613">
        <ele>68</ele>
        <time>2022-07-09T07:18:37Z</time>
      </trkpt>
      <trkpt lat="47.24469" lon="-1.5561">
        <ele>68</ele>
        <time>2022-07-09T07:18:39Z</time>
      </trkpt>
      <trkpt lat="47.24479" lon="-1.55607">
        <ele>68</ele>
        <time>2022-07-09T07:18:41Z</time>
      </trkpt>
      <trkpt lat="47.2449" lon="-1.55603">
        <ele>68</ele>
        <time>2022-07-09T07:18:43Z</time>
      </trkpt>
      <trkpt lat="47.245" lon="-1.556">
        <ele>68</ele>
        <time>2022-07-09T07:18:45Z</time>
      </trkpt>
      <trkpt lat="47.24511" lon="-1.55597">
        <ele>68</ele>
        <time>2022-07-09T07:18:47Z</time>
      </trkpt>
      <trkpt lat="47.2452" lon="-1.55592">
        <ele>68</ele>
        <time>2022-07-09T07:18:49Z</time>
      </trkpt>
      <trkpt lat="47.2453" lon="-1.55587">
        <ele>68</ele>
        <time>2022-07-09T07:18:51Z</time>
      </trkpt>
      <trkpt lat="47.2454" lon="-1.5558">
        <ele>68</ele>
        <time>2022-07-09T07:18:53Z</time>
      </trkpt>
      <trkpt lat="47.2455" lon="-1.55572">
        <ele>68</ele>
        <time>2022-07-09T07:18:55Z</time>
      </trkpt>
      <trkpt lat="47.2456" lon="-1.55564">
        <ele>68</ele>
        <time>2022-07-09T07:18:57Z</time>
      </trkpt>
      <trkpt lat="47.24571" lon="-1.55556">
        <ele>68</ele>
        <time>2022-07-09T07:18:59Z</time>
      </trkpt>
      <trkpt lat="47.24582" lon="-1.55551">
        <ele>67</ele>
        <time>2022-07-09T07:19:01Z</time>
      </trkpt>
      <trkpt lat="47.24594" lon="-1.55545">
        <ele>66</ele>
        <time>2022-07-09T07:19:03Z</time>
      </trkpt>
      <trkpt lat="47.24605" lon="-1.5554">
        <ele>66</ele>
        <time>2022-07-09T07:19:05Z</time>
      </trkpt>
      <trkpt lat="47.24617" lon="-1.55537">
        <ele>66</ele>
        <time>2022-07-09T07:19:07Z</time>
      </trkpt>
      <trkpt lat="47.24628" lon="-1.55536">
        <ele>66</ele>
        <time>2022-07-09T07:19:09Z</time>
      </trkpt>
      <trkpt lat="47.24637" lon="-1.55535">
        <ele>66</ele>
        <time>2022-07-09T07:19:11Z</time>
      </trkpt>
      <trkpt lat="47.24646" lon="-1.5553">
        <ele>66</ele>
        <time>2022-07-09T07:19:13Z</time>
      </trkpt>
      <trkpt lat="47.24658" lon="-1.55528">
        <ele>65</ele>
        <time>2022-07-09T07:19:15Z</time>
      </trkpt>
      <trkpt lat="47.2467" lon="-1.55528">
        <ele>65</ele>
        <time>2022-07-09T07:19:17Z</time>
      </trkpt>
      <trkpt lat="47.24682" lon="-1.55527">
        <ele>66</ele>
        <time>2022-07-09T07:19:19Z</time>
      </trkpt>
      <trkpt lat="47.24693" lon="-1.55525">
        <ele>66</ele>
        <time>2022-07-09T07:19:21Z</time>
      </trkpt>
      <trkpt lat="47.24704" lon="-1.55522">
        <ele>67</ele>
        <time>2022-07-09T07:19:23Z</time>
      </trkpt>
      <trkpt lat="47.24714" lon="-1.55519">
        <ele>67</ele>
        <time>2022-07-09T07:19:25Z</time>
      </trkpt>
      <trkpt lat="47.24724" lon="-1.55516">
        <ele>67</ele>
        <time>2022-07-09T07:19:27Z</time>
      </trkpt>
      <trkpt lat="47.24733" lon="-1.55513">
        <ele>68</ele>
        <time>2022-07-09T07:19:29Z</time>
      </trkpt>
      <trkpt lat="47.24742" lon="-1.55509">
        <ele>69</ele>
        <time>2022-07-09T07:19:31Z</time>
      </trkpt>
      <trkpt lat="47.24755" lon="-1.55504">
        <ele>70</ele>
        <time>2022-07-09T07:19:34Z</time>
      </trkpt>
      <trkpt lat="47.24764" lon="-1.55501">
        <ele>71</ele>
        <time>2022-07-09T07:19:36Z</time>
      </trkpt>
      <trkpt lat="47.24773" lon="-1.55496">
        <ele>71</ele>
        <time>2022-07-09T07:19:38Z</time>
      </trkpt>
      <trkpt lat="47.24783" lon="-1.55493">
        <ele>71</ele>
        <time>2022-07-09T07:19:40Z</time>
      </trkpt>
      <trkpt lat="47.24792" lon="-1.5549">
        <ele>72</ele>
        <time>2022-07-09T07:19:42Z</time>
      </trkpt>
      <trkpt lat="47.24802" lon="-1.55486">
        <ele>73</ele>
        <time>2022-07-09T07:19:44Z</time>
      </trkpt>
      <trkpt lat="47.24811" lon="-1.55482">
        <ele>74</ele>
        <time>2022-07-09T07:19:46Z</time>
      </trkpt>
      <trkpt lat="47.2482" lon="-1.55478">
        <ele>74</ele>
        <time>2022-07-09T07:19:48Z</time>
      </trkpt>
      <trkpt lat="47.24829" lon="-1.55475">
        <ele>75</ele>
        <time>2022-07-09T07:19:50Z</time>
      </trkpt>
      <trkpt lat="47.24838" lon="-1.55471">
        <ele>76</ele>
        <time>2022-07-09T07:19:52Z</time>
      </trkpt>
      <trkpt lat="47.24847" lon="-1.55467">
        <ele>77</ele>
        <time>2022-07-09T07:19:54Z</time>
      </trkpt>
      <trkpt lat="47.24856" lon="-1.55463">
        <ele>77</ele>
        <time>2022-07-09T07:19:56Z</time>
      </trkpt>
      <trkpt lat="47.24865" lon="-1.55458">
        <ele>78</ele>
        <time>2022-07-09T07:19:58Z</time>
      </trkpt>
      <trkpt lat="47.24874" lon="-1.55454">
        <ele>78</ele>
        <time>2022-07-09T07:20:00Z</time>
      </trkpt>
      <trkpt lat="47.24887" lon="-1.5545">
        <ele>79</ele>
        <time>2022-07-09T07:20:03Z</time>
      </trkpt>
      <trkpt lat="47.24896" lon="-1.55447">
        <ele>80</ele>
        <time>2022-07-09T07:20:05Z</time>
      </trkpt>
      <trkpt lat="47.24909" lon="-1.55443">
        <ele>80</ele>
        <time>2022-07-09T07:20:08Z</time>
      </trkpt>
      <trkpt lat="47.24919" lon="-1.55431">
        <ele>81</ele>
        <time>2022-07-09T07:20:11Z</time>
      </trkpt>
      <trkpt lat="47.24933" lon="-1.55426">
        <ele>81</ele>
        <time>2022-07-09T07:20:14Z</time>
      </trkpt>
      <trkpt lat="47.24943" lon="-1.55427">
        <ele>81</ele>
        <time>2022-07-09T07:20:16Z</time>
      </trkpt>
      <trkpt lat="47.24953" lon="-1.55425">
        <ele>81</ele>
        <time>2022-07-09T07:20:18Z</time>
      </trkpt>
      <trkpt lat="47.24963" lon="-1.55421">
        <ele>81</ele>
        <time>2022-07-09T07:20:20Z</time>
      </trkpt>
      <trkpt lat="47.24973" lon="-1.55417">
        <ele>81</ele>
        <time>2022-07-09T07:20:22Z</time>
      </trkpt>
      <trkpt lat="47.24983" lon="-1.55414">
        <ele>81</ele>
        <time>2022-07-09T07:20:24Z</time>
      </trkpt>
      <trkpt lat="47.24993" lon="-1.55411">
        <ele>81</ele>
        <time>2022-07-09T07:20:26Z</time>
      </trkpt>
      <trkpt lat="47.25002" lon="-1.55407">
        <ele>80</ele>
        <time>2022-07-09T07:20:28Z</time>
      </trkpt>
      <trkpt lat="47.25013" lon="-1.55402">
        <ele>79</ele>
        <time>2022-07-09T07:20:30Z</time>
      </trkpt>
      <trkpt lat="47.25024" lon="-1.55398">
        <ele>79</ele>
        <time>2022-07-09T07:20:32Z</time>
      </trkpt>
      <trkpt lat="47.25036" lon="-1.55394">
        <ele>78</ele>
        <time>2022-07-09T07:20:34Z</time>
      </trkpt>
      <trkpt lat="47.25048" lon="-1.55389">
        <ele>77</ele>
        <time>2022-07-09T07:20:36Z</time>
      </trkpt>
      <trkpt lat="47.25061" lon="-1.55383">
        <ele>76</ele>
        <time>2022-07-09T07:20:38Z</time>
      </trkpt>
      <trkpt lat="47.25075" lon="-1.55377">
        <ele>75</ele>
        <time>2022-07-09T07:20:40Z</time>
      </trkpt>
      <trkpt lat="47.25091" lon="-1.55372">
        <ele>75</ele>
        <time>2022-07-09T07:20:42Z</time>
      </trkpt>
      <trkpt lat="47.25107" lon="-1.55367">
        <ele>75</ele>
        <time>2022-07-09T07:20:44Z</time>
      </trkpt>
      <trkpt lat="47.25123" lon="-1.5536">
        <ele>74</ele>
        <time>2022-07-09T07:20:46Z</time>
      </trkpt>
      <trkpt lat="47.2514" lon="-1.55355">
        <ele>73</ele>
        <time>2022-07-09T07:20:48Z</time>
      </trkpt>
      <trkpt lat="47.25157" lon="-1.55348">
        <ele>72</ele>
        <time>2022-07-09T07:20:50Z</time>
      </trkpt>
      <trkpt lat="47.25175" lon="-1.55342">
        <ele>71</ele>
        <time>2022-07-09T07:20:52Z</time>
      </trkpt>
      <trkpt lat="47.25191" lon="-1.55335">
        <ele>71</ele>
        <time>2022-07-09T07:20:54Z</time>
      </trkpt>
      <trkpt lat="47.25207" lon="-1.5533">
        <ele>70</ele>
        <time>2022-07-09T07:20:56Z</time>
      </trkpt>
      <trkpt lat="47.25221" lon="-1.55324">
        <ele>70</ele>
        <time>2022-07-09T07:20:58Z</time>
      </trkpt>
      <trkpt lat="47.25233" lon="-1.55314">
        <ele>69</ele>
        <time>2022-07-09T07:21:00Z</time>
      </trkpt>
      <trkpt lat="47.25246" lon="-1.55311">
        <ele>70</ele>
        <time>2022-07-09T07:21:02Z</time>
      </trkpt>
      <trkpt lat="47.25259" lon="-1.5531">
        <ele>70</ele>
        <time>2022-07-09T07:21:04Z</time>
      </trkpt>
      <trkpt lat="47.25273" lon="-1.55305">
        <ele>70</ele>
        <time>2022-07-09T07:21:06Z</time>
      </trkpt>
      <trkpt lat="47.25285" lon="-1.55299">
        <ele>70</ele>
        <time>2022-07-09T07:21:08Z</time>
      </trkpt>
      <trkpt lat="47.25298" lon="-1.55294">
        <ele>70</ele>
        <time>2022-07-09T07:21:10Z</time>
      </trkpt>
      <trkpt lat="47.25311" lon="-1.55289">
        <ele>70</ele>
        <time>2022-07-09T07:21:12Z</time>
      </trkpt>
      <trkpt lat="47.25323" lon="-1.55284">
        <ele>71</ele>
        <time>2022-07-09T07:21:14Z</time>
      </trkpt>
      <trkpt lat="47.25336" lon="-1.55279">
        <ele>71</ele>
        <time>2022-07-09T07:21:16Z</time>
      </trkpt>
      <trkpt lat="47.25348" lon="-1.55274">
        <ele>71</ele>
        <time>2022-07-09T07:21:18Z</time>
      </trkpt>
      <trkpt lat="47.2536" lon="-1.5527">
        <ele>71</ele>
        <time>2022-07-09T07:21:20Z</time>
      </trkpt>
      <trkpt lat="47.25373" lon="-1.55265">
        <ele>71</ele>
        <time>2022-07-09T07:21:22Z</time>
      </trkpt>
      <trkpt lat="47.25386" lon="-1.5526">
        <ele>70</ele>
        <time>2022-07-09T07:21:24Z</time>
      </trkpt>
      <trkpt lat="47.25398" lon="-1.55255">
        <ele>70</ele>
        <time>2022-07-09T07:21:26Z</time>
      </trkpt>
      <trkpt lat="47.25411" lon="-1.55252">
        <ele>70</ele>
        <time>2022-07-09T07:21:28Z</time>
      </trkpt>
      <trkpt lat="47.25424" lon="-1.5525">
        <ele>69</ele>
        <time>2022-07-09T07:21:30Z</time>
      </trkpt>
      <trkpt lat="47.25437" lon="-1.55249">
        <ele>69</ele>
        <time>2022-07-09T07:21:32Z</time>
      </trkpt>
      <trkpt lat="47.25451" lon="-1.55248">
        <ele>68</ele>
        <time>2022-07-09T07:21:34Z</time>
      </trkpt>
      <trkpt lat="47.25463" lon="-1.5525">
        <ele>68</ele>
        <time>2022-07-09T07:21:36Z</time>
      </trkpt>
      <trkpt lat="47.25476" lon="-1.55254">
        <ele>69</ele>
        <time>2022-07-09T07:21:38Z</time>
      </trkpt>
      <trkpt lat="47.25488" lon="-1.55258">
        <ele>69</ele>
        <time>2022-07-09T07:21:40Z</time>
      </trkpt>
      <trkpt lat="47.25502" lon="-1.55263">
        <ele>69</ele>
        <time>2022-07-09T07:21:42Z</time>
      </trkpt>
      <trkpt lat="47.25515" lon="-1.55268">
        <ele>69</ele>
        <time>2022-07-09T07:21:44Z</time>
      </trkpt>
      <trkpt lat="47.25529" lon="-1.55275">
        <ele>69</ele>
        <time>2022-07-09T07:21:46Z</time>
      </trkpt>
      <trkpt lat="47.25542" lon="-1.55283">
        <ele>69</ele>
        <time>2022-07-09T07:21:48Z</time>
      </trkpt>
      <trkpt lat="47.25554" lon="-1.55293">
        <ele>68</ele>
        <time>2022-07-09T07:21:50Z</time>
      </trkpt>
      <trkpt lat="47.25567" lon="-1.55305">
        <ele>68</ele>
        <time>2022-07-09T07:21:52Z</time>
      </trkpt>
      <trkpt lat="47.2558" lon="-1.55317">
        <ele>67</ele>
        <time>2022-07-09T07:21:54Z</time>
      </trkpt>
      <trkpt lat="47.2559" lon="-1.5533">
        <ele>68</ele>
        <time>2022-07-09T07:21:56Z</time>
      </trkpt>
      <trkpt lat="47.25602" lon="-1.55346">
        <ele>69</ele>
        <time>2022-07-09T07:21:58Z</time>
      </trkpt>
      <trkpt lat="47.25613" lon="-1.55362">
        <ele>69</ele>
        <time>2022-07-09T07:22:00Z</time>
      </trkpt>
      <trkpt lat="47.25622" lon="-1.55381">
        <ele>68</ele>
        <time>2022-07-09T07:22:02Z</time>
      </trkpt>
      <trkpt lat="47.25631" lon="-1.55398">
        <ele>69</ele>
        <time>2022-07-09T07:22:04Z</time>
      </trkpt>
      <trkpt lat="47.25638" lon="-1.55416">
        <ele>70</ele>
        <time>2022-07-09T07:22:06Z</time>
      </trkpt>
      <trkpt lat="47.25645" lon="-1.55435">
        <ele>70</ele>
        <time>2022-07-09T07:22:08Z</time>
      </trkpt>
      <trkpt lat="47.25652" lon="-1.55454">
        <ele>70</ele>
        <time>2022-07-09T07:22:10Z</time>
      </trkpt>
      <trkpt lat="47.25659" lon="-1.55473">
        <ele>71</ele>
        <time>2022-07-09T07:22:12Z</time>
      </trkpt>
      <trkpt lat="47.25665" lon="-1.5549">
        <ele>70</ele>
        <time>2022-07-09T07:22:14Z</time>
      </trkpt>
      <trkpt lat="47.25671" lon="-1.55508">
        <ele>70</ele>
        <time>2022-07-09T07:22:16Z</time>
      </trkpt>
      <trkpt lat="47.25678" lon="-1.55525">
        <ele>70</ele>
        <time>2022-07-09T07:22:18Z</time>
      </trkpt>
      <trkpt lat="47.25684" lon="-1.55543">
        <ele>70</ele>
        <time>2022-07-09T07:22:20Z</time>
      </trkpt>
      <trkpt lat="47.2569" lon="-1.5556">
        <ele>69</ele>
        <time>2022-07-09T07:22:22Z</time>
      </trkpt>
      <trkpt lat="47.25698" lon="-1.55575">
        <ele>69</ele>
        <time>2022-07-09T07:22:24Z</time>
      </trkpt>
      <trkpt lat="47.25706" lon="-1.55591">
        <ele>69</ele>
        <time>2022-07-09T07:22:26Z</time>
      </trkpt>
      <trkpt lat="47.25715" lon="-1.55605">
        <ele>69</ele>
        <time>2022-07-09T07:22:28Z</time>
      </trkpt>
      <trkpt lat="47.25725" lon="-1.55619">
        <ele>68</ele>
        <time>2022-07-09T07:22:30Z</time>
      </trkpt>
      <trkpt lat="47.25735" lon="-1.55631">
        <ele>68</ele>
        <time>2022-07-09T07:22:32Z</time>
      </trkpt>
      <trkpt lat="47.25745" lon="-1.55643">
        <ele>68</ele>
        <time>2022-07-09T07:22:34Z</time>
      </trkpt>
      <trkpt lat="47.25756" lon="-1.55655">
        <ele>68</ele>
        <time>2022-07-09T07:22:36Z</time>
      </trkpt>
      <trkpt lat="47.25767" lon="-1.55665">
        <ele>67</ele>
        <time>2022-07-09T07:22:38Z</time>
      </trkpt>
      <trkpt lat="47.25779" lon="-1.55675">
        <ele>67</ele>
        <time>2022-07-09T07:22:40Z</time>
      </trkpt>
      <trkpt lat="47.25791" lon="-1.55684">
        <ele>67</ele>
        <time>2022-07-09T07:22:42Z</time>
      </trkpt>
      <trkpt lat="47.25803" lon="-1.55691">
        <ele>67</ele>
        <time>2022-07-09T07:22:44Z</time>
      </trkpt>
      <trkpt lat="47.25816" lon="-1.55697">
        <ele>66</ele>
        <time>2022-07-09T07:22:46Z</time>
      </trkpt>
      <trkpt lat="47.25828" lon="-1.55702">
        <ele>66</ele>
        <time>2022-07-09T07:22:48Z</time>
      </trkpt>
      <trkpt lat="47.25842" lon="-1.55706">
        <ele>65</ele>
        <time>2022-07-09T07:22:50Z</time>
      </trkpt>
      <trkpt lat="47.25856" lon="-1.55708">
        <ele>64</ele>
        <time>2022-07-09T07:22:52Z</time>
      </trkpt>
      <trkpt lat="47.25871" lon="-1.5571">
        <ele>63</ele>
        <time>2022-07-09T07:22:54Z</time>
      </trkpt>
      <trkpt lat="47.25886" lon="-1.55712">
        <ele>62</ele>
        <time>2022-07-09T07:22:56Z</time>
      </trkpt>
      <trkpt lat="47.25901" lon="-1.55714">
        <ele>62</ele>
        <time>2022-07-09T07:22:58Z</time>
      </trkpt>
      <trkpt lat="47.25915" lon="-1.55714">
        <ele>62</ele>
        <time>2022-07-09T07:23:00Z</time>
      </trkpt>
      <trkpt lat="47.25927" lon="-1.55712">
        <ele>63</ele>
        <time>2022-07-09T07:23:02Z</time>
      </trkpt>
      <trkpt lat="47.25936" lon="-1.55711">
        <ele>63</ele>
        <time>2022-07-09T07:23:04Z</time>
      </trkpt>
      <trkpt lat="47.25942" lon="-1.55699">
        <ele>64</ele>
        <time>2022-07-09T07:23:07Z</time>
      </trkpt>
      <trkpt lat="47.25946" lon="-1.55684">
        <ele>64</ele>
        <time>2022-07-09T07:23:09Z</time>
      </trkpt>
      <trkpt lat="47.2595" lon="-1.55668">
        <ele>63</ele>
        <time>2022-07-09T07:23:11Z</time>
      </trkpt>
      <trkpt lat="47.25954" lon="-1.55653">
        <ele>63</ele>
        <time>2022-07-09T07:23:13Z</time>
      </trkpt>
      <trkpt lat="47.25961" lon="-1.55639">
        <ele>62</ele>
        <time>2022-07-09T07:23:15Z</time>
      </trkpt>
      <trkpt lat="47.25969" lon="-1.55627">
        <ele>62</ele>
        <time>2022-07-09T07:23:17Z</time>
      </trkpt>
      <trkpt lat="47.25979" lon="-1.55618">
        <ele>61</ele>
        <time>2022-07-09T07:23:19Z</time>
      </trkpt>
      <trkpt lat="47.25986" lon="-1.55608">
        <ele>60</ele>
        <time>2022-07-09T07:23:21Z</time>
      </trkpt>
      <trkpt lat="47.25999" lon="-1.55601">
        <ele>60</ele>
        <time>2022-07-09T07:23:24Z</time>
      </trkpt>
      <trkpt lat="47.26005" lon="-1.55589">
        <ele>59</ele>
        <time>2022-07-09T07:23:26Z</time>
      </trkpt>
      <trkpt lat="47.26007" lon="-1.5557">
        <ele>57</ele>
        <time>2022-07-09T07:23:28Z</time>
      </trkpt>
      <trkpt lat="47.26013" lon="-1.55551">
        <ele>56</ele>
        <time>2022-07-09T07:23:30Z</time>
      </trkpt>
      <trkpt lat="47.26019" lon="-1.55532">
        <ele>55</ele>
        <time>2022-07-09T07:23:32Z</time>
      </trkpt>
      <trkpt lat="47.26025" lon="-1.55513">
        <ele>55</ele>
        <time>2022-07-09T07:23:34Z</time>
      </trkpt>
      <trkpt lat="47.26031" lon="-1.55494">
        <ele>54</ele>
        <time>2022-07-09T07:23:36Z</time>
      </trkpt>
      <trkpt lat="47.26037" lon="-1.55476">
        <ele>54</ele>
        <time>2022-07-09T07:23:38Z</time>
      </trkpt>
      <trkpt lat="47.26043" lon="-1.55459">
        <ele>54</ele>
        <time>2022-07-09T07:23:40Z</time>
      </trkpt>
      <trkpt lat="47.26047" lon="-1.55443">
        <ele>54</ele>
        <time>2022-07-09T07:23:42Z</time>
      </trkpt>
      <trkpt lat="47.26051" lon="-1.55427">
        <ele>54</ele>
        <time>2022-07-09T07:23:44Z</time>
      </trkpt>
      <trkpt lat="47.26056" lon="-1.55411">
        <ele>54</ele>
        <time>2022-07-09T07:23:46Z</time>
      </trkpt>
      <trkpt lat="47.26062" lon="-1.55395">
        <ele>54</ele>
        <time>2022-07-09T07:23:48Z</time>
      </trkpt>
      <trkpt lat="47.26069" lon="-1.5538">
        <ele>54</ele>
        <time>2022-07-09T07:23:50Z</time>
      </trkpt>
      <trkpt lat="47.26075" lon="-1.55366">
        <ele>54</ele>
        <time>2022-07-09T07:23:52Z</time>
      </trkpt>
      <trkpt lat="47.26082" lon="-1.55352">
        <ele>54</ele>
        <time>2022-07-09T07:23:54Z</time>
      </trkpt>
      <trkpt lat="47.26089" lon="-1.55337">
        <ele>54</ele>
        <time>2022-07-09T07:23:56Z</time>
      </trkpt>
      <trkpt lat="47.26095" lon="-1.55322">
        <ele>54</ele>
        <time>2022-07-09T07:23:58Z</time>
      </trkpt>
      <trkpt lat="47.26102" lon="-1.55308">
        <ele>55</ele>
        <time>2022-07-09T07:24:00Z</time>
      </trkpt>
      <trkpt lat="47.26109" lon="-1.55297">
        <ele>55</ele>
        <time>2022-07-09T07:24:02Z</time>
      </trkpt>
      <trkpt lat="47.26114" lon="-1.55285">
        <ele>55</ele>
        <time>2022-07-09T07:24:04Z</time>
      </trkpt>
      <trkpt lat="47.26117" lon="-1.5527">
        <ele>55</ele>
        <time>2022-07-09T07:24:06Z</time>
      </trkpt>
      <trkpt lat="47.26121" lon="-1.55254">
        <ele>55</ele>
        <time>2022-07-09T07:24:08Z</time>
      </trkpt>
      <trkpt lat="47.26126" lon="-1.55237">
        <ele>55</ele>
        <time>2022-07-09T07:24:10Z</time>
      </trkpt>
      <trkpt lat="47.26131" lon="-1.55219">
        <ele>55</ele>
        <time>2022-07-09T07:24:12Z</time>
      </trkpt>
      <trkpt lat="47.26136" lon="-1.55203">
        <ele>54</ele>
        <time>2022-07-09T07:24:14Z</time>
      </trkpt>
      <trkpt lat="47.26141" lon="-1.55186">
        <ele>55</ele>
        <time>2022-07-09T07:24:16Z</time>
      </trkpt>
      <trkpt lat="47.26147" lon="-1.55169">
        <ele>54</ele>
        <time>2022-07-09T07:24:18Z</time>
      </trkpt>
      <trkpt lat="47.26153" lon="-1.55153">
        <ele>54</ele>
        <time>2022-07-09T07:24:20Z</time>
      </trkpt>
      <trkpt lat="47.26159" lon="-1.55137">
        <ele>54</ele>
        <time>2022-07-09T07:24:22Z</time>
      </trkpt>
      <trkpt lat="47.26165" lon="-1.55121">
        <ele>55</ele>
        <time>2022-07-09T07:24:24Z</time>
      </trkpt>
      <trkpt lat="47.26171" lon="-1.55105">
        <ele>55</ele>
        <time>2022-07-09T07:24:26Z</time>
      </trkpt>
      <trkpt lat="47.26177" lon="-1.55089">
        <ele>56</ele>
        <time>2022-07-09T07:24:28Z</time>
      </trkpt>
      <trkpt lat="47.26185" lon="-1.55074">
        <ele>55</ele>
        <time>2022-07-09T07:24:30Z</time>
      </trkpt>
      <trkpt lat="47.26192" lon="-1.55059">
        <ele>56</ele>
        <time>2022-07-09T07:24:32Z</time>
      </trkpt>
      <trkpt lat="47.26199" lon="-1.55044">
        <ele>56</ele>
        <time>2022-07-09T07:24:34Z</time>
      </trkpt>
      <trkpt lat="47.26206" lon="-1.55029">
        <ele>57</ele>
        <time>2022-07-09T07:24:36Z</time>
      </trkpt>
      <trkpt lat="47.26212" lon="-1.55014">
        <ele>58</ele>
        <time>2022-07-09T07:24:38Z</time>
      </trkpt>
      <trkpt lat="47.2622" lon="-1.55001">
        <ele>59</ele>
        <time>2022-07-09T07:24:40Z</time>
      </trkpt>
      <trkpt lat="47.26227" lon="-1.54987">
        <ele>59</ele>
        <time>2022-07-09T07:24:42Z</time>
      </trkpt>
      <trkpt lat="47.26235" lon="-1.54975">
        <ele>59</ele>
        <time>2022-07-09T07:24:44Z</time>
      </trkpt>
      <trkpt lat="47.26243" lon="-1.54961">
        <ele>59</ele>
        <time>2022-07-09T07:24:46Z</time>
      </trkpt>
      <trkpt lat="47.26251" lon="-1.54948">
        <ele>60</ele>
        <time>2022-07-09T07:24:48Z</time>
      </trkpt>
      <trkpt lat="47.26259" lon="-1.54936">
        <ele>60</ele>
        <time>2022-07-09T07:24:50Z</time>
      </trkpt>
      <trkpt lat="47.26266" lon="-1.54923">
        <ele>60</ele>
        <time>2022-07-09T07:24:52Z</time>
      </trkpt>
      <trkpt lat="47.26274" lon="-1.54911">
        <ele>61</ele>
        <time>2022-07-09T07:24:54Z</time>
      </trkpt>
      <trkpt lat="47.26282" lon="-1.54899">
        <ele>62</ele>
        <time>2022-07-09T07:24:56Z</time>
      </trkpt>
      <trkpt lat="47.26291" lon="-1.54889">
        <ele>63</ele>
        <time>2022-07-09T07:24:58Z</time>
      </trkpt>
      <trkpt lat="47.263" lon="-1.5488">
        <ele>64</ele>
        <time>2022-07-09T07:25:00Z</time>
      </trkpt>
      <trkpt lat="47.2631" lon="-1.5487">
        <ele>64</ele>
        <time>2022-07-09T07:25:02Z</time>
      </trkpt>
      <trkpt lat="47.2632" lon="-1.54863">
        <ele>65</ele>
        <time>2022-07-09T07:25:04Z</time>
      </trkpt>
      <trkpt lat="47.26331" lon="-1.54861">
        <ele>65</ele>
        <time>2022-07-09T07:25:06Z</time>
      </trkpt>
      <trkpt lat="47.26341" lon="-1.54862">
        <ele>65</ele>
        <time>2022-07-09T07:25:08Z</time>
      </trkpt>
      <trkpt lat="47.26348" lon="-1.54847">
        <ele>63</ele>
        <time>2022-07-09T07:25:11Z</time>
      </trkpt>
      <trkpt lat="47.26352" lon="-1.54833">
        <ele>62</ele>
        <time>2022-07-09T07:25:13Z</time>
      </trkpt>
      <trkpt lat="47.26357" lon="-1.54818">
        <ele>62</ele>
        <time>2022-07-09T07:25:15Z</time>
      </trkpt>
      <trkpt lat="47.26365" lon="-1.54805">
        <ele>61</ele>
        <time>2022-07-09T07:25:17Z</time>
      </trkpt>
      <trkpt lat="47.26373" lon="-1.54795">
        <ele>61</ele>
        <time>2022-07-09T07:25:19Z</time>
      </trkpt>
      <trkpt lat="47.26382" lon="-1.54785">
        <ele>61</ele>
        <time>2022-07-09T07:25:21Z</time>
      </trkpt>
      <trkpt lat="47.26391" lon="-1.54775">
        <ele>61</ele>
        <time>2022-07-09T07:25:23Z</time>
      </trkpt>
      <trkpt lat="47.26399" lon="-1.54766">
        <ele>61</ele>
        <time>2022-07-09T07:25:25Z</time>
      </trkpt>
      <trkpt lat="47.26407" lon="-1.54756">
        <ele>61</ele>
        <time>2022-07-09T07:25:27Z</time>
      </trkpt>
      <trkpt lat="47.26415" lon="-1.54747">
        <ele>62</ele>
        <time>2022-07-09T07:25:29Z</time>
      </trkpt>
      <trkpt lat="47.26422" lon="-1.54739">
        <ele>63</ele>
        <time>2022-07-09T07:25:31Z</time>
      </trkpt>
      <trkpt lat="47.2643" lon="-1.5473">
        <ele>63</ele>
        <time>2022-07-09T07:25:33Z</time>
      </trkpt>
      <trkpt lat="47.26438" lon="-1.54723">
        <ele>64</ele>
        <time>2022-07-09T07:25:35Z</time>
      </trkpt>
      <trkpt lat="47.26447" lon="-1.54714">
        <ele>65</ele>
        <time>2022-07-09T07:25:37Z</time>
      </trkpt>
      <trkpt lat="47.26455" lon="-1.54707">
        <ele>65</ele>
        <time>2022-07-09T07:25:39Z</time>
      </trkpt>
      <trkpt lat="47.26464" lon="-1.547">
        <ele>65</ele>
        <time>2022-07-09T07:25:41Z</time>
      </trkpt>
      <trkpt lat="47.26472" lon="-1.54694">
        <ele>66</ele>
        <time>2022-07-09T07:25:43Z</time>
      </trkpt>
      <trkpt lat="47.26481" lon="-1.54689">
        <ele>66</ele>
        <time>2022-07-09T07:25:45Z</time>
      </trkpt>
      <trkpt lat="47.26493" lon="-1.54681">
        <ele>67</ele>
        <time>2022-07-09T07:25:48Z</time>
      </trkpt>
      <trkpt lat="47.26503" lon="-1.54674">
        <ele>68</ele>
        <time>2022-07-09T07:25:51Z</time>
      </trkpt>
      <trkpt lat="47.26513" lon="-1.54667">
        <ele>69</ele>
        <time>2022-07-09T07:25:54Z</time>
      </trkpt>
      <trkpt lat="47.26525" lon="-1.54661">
        <ele>71</ele>
        <time>2022-07-09T07:25:57Z</time>
      </trkpt>
      <trkpt lat="47.26536" lon="-1.54655">
        <ele>72</ele>
        <time>2022-07-09T07:26:00Z</time>
      </trkpt>
      <trkpt lat="47.26548" lon="-1.54649">
        <ele>72</ele>
        <time>2022-07-09T07:26:03Z</time>
      </trkpt>
      <trkpt lat="47.26561" lon="-1.54643">
        <ele>73</ele>
        <time>2022-07-09T07:26:06Z</time>
      </trkpt>
      <trkpt lat="47.2657" lon="-1.54639">
        <ele>73</ele>
        <time>2022-07-09T07:26:08Z</time>
      </trkpt>
      <trkpt lat="47.26583" lon="-1.54634">
        <ele>73</ele>
        <time>2022-07-09T07:26:11Z</time>
      </trkpt>
      <trkpt lat="47.26592" lon="-1.5463">
        <ele>74</ele>
        <time>2022-07-09T07:26:13Z</time>
      </trkpt>
      <trkpt lat="47.266" lon="-1.54627">
        <ele>74</ele>
        <time>2022-07-09T07:26:15Z</time>
      </trkpt>
      <trkpt lat="47.26613" lon="-1.54623">
        <ele>74</ele>
        <time>2022-07-09T07:26:18Z</time>
      </trkpt>
      <trkpt lat="47.26626" lon="-1.54619">
        <ele>75</ele>
        <time>2022-07-09T07:26:21Z</time>
      </trkpt>
      <trkpt lat="47.26638" lon="-1.54615">
        <ele>76</ele>
        <time>2022-07-09T07:26:24Z</time>
      </trkpt>
      <trkpt lat="47.26647" lon="-1.54612">
        <ele>76</ele>
        <time>2022-07-09T07:26:26Z</time>
      </trkpt>
      <trkpt lat="47.2666" lon="-1.54607">
        <ele>78</ele>
        <time>2022-07-09T07:26:29Z</time>
      </trkpt>
      <trkpt lat="47.26672" lon="-1.54605">
        <ele>79</ele>
        <time>2022-07-09T07:26:32Z</time>
      </trkpt>
      <trkpt lat="47.26685" lon="-1.54604">
        <ele>79</ele>
        <time>2022-07-09T07:26:35Z</time>
      </trkpt>
      <trkpt lat="47.26698" lon="-1.54601">
        <ele>80</ele>
        <time>2022-07-09T07:26:38Z</time>
      </trkpt>
      <trkpt lat="47.26711" lon="-1.54599">
        <ele>80</ele>
        <time>2022-07-09T07:26:41Z</time>
      </trkpt>
      <trkpt lat="47.26724" lon="-1.54598">
        <ele>81</ele>
        <time>2022-07-09T07:26:44Z</time>
      </trkpt>
      <trkpt lat="47.26733" lon="-1.54597">
        <ele>81</ele>
        <time>2022-07-09T07:26:46Z</time>
      </trkpt>
      <trkpt lat="47.26743" lon="-1.54597">
        <ele>82</ele>
        <time>2022-07-09T07:26:48Z</time>
      </trkpt>
      <trkpt lat="47.26753" lon="-1.54597">
        <ele>82</ele>
        <time>2022-07-09T07:26:50Z</time>
      </trkpt>
      <trkpt lat="47.26763" lon="-1.54596">
        <ele>82</ele>
        <time>2022-07-09T07:26:52Z</time>
      </trkpt>
      <trkpt lat="47.26772" lon="-1.54595">
        <ele>82</ele>
        <time>2022-07-09T07:26:54Z</time>
      </trkpt>
      <trkpt lat="47.26782" lon="-1.54595">
        <ele>83</ele>
        <time>2022-07-09T07:26:56Z</time>
      </trkpt>
      <trkpt lat="47.26792" lon="-1.54596">
        <ele>82</ele>
        <time>2022-07-09T07:26:58Z</time>
      </trkpt>
      <trkpt lat="47.26803" lon="-1.54595">
        <ele>82</ele>
        <time>2022-07-09T07:27:00Z</time>
      </trkpt>
      <trkpt lat="47.26812" lon="-1.54596">
        <ele>82</ele>
        <time>2022-07-09T07:27:02Z</time>
      </trkpt>
      <trkpt lat="47.26821" lon="-1.54596">
        <ele>83</ele>
        <time>2022-07-09T07:27:04Z</time>
      </trkpt>
      <trkpt lat="47.26831" lon="-1.54597">
        <ele>83</ele>
        <time>2022-07-09T07:27:06Z</time>
      </trkpt>
      <trkpt lat="47.26841" lon="-1.54599">
        <ele>82</ele>
        <time>2022-07-09T07:27:08Z</time>
      </trkpt>
      <trkpt lat="47.26851" lon="-1.54601">
        <ele>82</ele>
        <time>2022-07-09T07:27:10Z</time>
      </trkpt>
      <trkpt lat="47.26861" lon="-1.54605">
        <ele>82</ele>
        <time>2022-07-09T07:27:12Z</time>
      </trkpt>
      <trkpt lat="47.2687" lon="-1.5461">
        <ele>82</ele>
        <time>2022-07-09T07:27:14Z</time>
      </trkpt>
      <trkpt lat="47.2688" lon="-1.54616">
        <ele>82</ele>
        <time>2022-07-09T07:27:16Z</time>
      </trkpt>
      <trkpt lat="47.26891" lon="-1.54619">
        <ele>83</ele>
        <time>2022-07-09T07:27:18Z</time>
      </trkpt>
      <trkpt lat="47.26902" lon="-1.54622">
        <ele>83</ele>
        <time>2022-07-09T07:27:20Z</time>
      </trkpt>
      <trkpt lat="47.26913" lon="-1.54622">
        <ele>84</ele>
        <time>2022-07-09T07:27:22Z</time>
      </trkpt>
      <trkpt lat="47.26924" lon="-1.5462">
        <ele>84</ele>
        <time>2022-07-09T07:27:24Z</time>
      </trkpt>
      <trkpt lat="47.26935" lon="-1.54618">
        <ele>85</ele>
        <time>2022-07-09T07:27:26Z</time>
      </trkpt>
      <trkpt lat="47.26946" lon="-1.54617">
        <ele>85</ele>
        <time>2022-07-09T07:27:28Z</time>
      </trkpt>
      <trkpt lat="47.26957" lon="-1.54616">
        <ele>86</ele>
        <time>2022-07-09T07:27:30Z</time>
      </trkpt>
      <trkpt lat="47.26967" lon="-1.54615">
        <ele>86</ele>
        <time>2022-07-09T07:27:32Z</time>
      </trkpt>
      <trkpt lat="47.26978" lon="-1.54615">
        <ele>86</ele>
        <time>2022-07-09T07:27:34Z</time>
      </trkpt>
      <trkpt lat="47.26989" lon="-1.54613">
        <ele>87</ele>
        <time>2022-07-09T07:27:36Z</time>
      </trkpt>
      <trkpt lat="47.27" lon="-1.54613">
        <ele>87</ele>
        <time>2022-07-09T07:27:38Z</time>
      </trkpt>
      <trkpt lat="47.27012" lon="-1.54612">
        <ele>87</ele>
        <time>2022-07-09T07:27:40Z</time>
      </trkpt>
      <trkpt lat="47.27024" lon="-1.54613">
        <ele>87</ele>
        <time>2022-07-09T07:27:42Z</time>
      </trkpt>
      <trkpt lat="47.27036" lon="-1.54616">
        <ele>86</ele>
        <time>2022-07-09T07:27:44Z</time>
      </trkpt>
      <trkpt lat="47.27048" lon="-1.54618">
        <ele>85</ele>
        <time>2022-07-09T07:27:46Z</time>
      </trkpt>
      <trkpt lat="47.2706" lon="-1.5462">
        <ele>85</ele>
        <time>2022-07-09T07:27:48Z</time>
      </trkpt>
      <trkpt lat="47.27071" lon="-1.54622">
        <ele>85</ele>
        <time>2022-07-09T07:27:50Z</time>
      </trkpt>
      <trkpt lat="47.27083" lon="-1.54625">
        <ele>85</ele>
        <time>2022-07-09T07:27:52Z</time>
      </trkpt>
      <trkpt lat="47.27094" lon="-1.54628">
        <ele>85</ele>
        <time>2022-07-09T07:27:54Z</time>
      </trkpt>
      <trkpt lat="47.27105" lon="-1.54632">
        <ele>85</ele>
        <time>2022-07-09T07:27:56Z</time>
      </trkpt>
      <trkpt lat="47.27117" lon="-1.54636">
        <ele>85</ele>
        <time>2022-07-09T07:27:58Z</time>
      </trkpt>
      <trkpt lat="47.27128" lon="-1.5464">
        <ele>85</ele>
        <time>2022-07-09T07:28:00Z</time>
      </trkpt>
      <trkpt lat="47.27139" lon="-1.54644">
        <ele>85</ele>
        <time>2022-07-09T07:28:02Z</time>
      </trkpt>
      <trkpt lat="47.2715" lon="-1.54647">
        <ele>85</ele>
        <time>2022-07-09T07:28:04Z</time>
      </trkpt>
      <trkpt lat="47.27161" lon="-1.54649">
        <ele>85</ele>
        <time>2022-07-09T07:28:06Z</time>
      </trkpt>
      <trkpt lat="47.27173" lon="-1.54653">
        <ele>84</ele>
        <time>2022-07-09T07:28:08Z</time>
      </trkpt>
      <trkpt lat="47.27184" lon="-1.54655">
        <ele>84</ele>
        <time>2022-07-09T07:28:10Z</time>
      </trkpt>
      <trkpt lat="47.27196" lon="-1.54659">
        <ele>84</ele>
        <time>2022-07-09T07:28:12Z</time>
      </trkpt>
      <trkpt lat="47.27207" lon="-1.54661">
        <ele>85</ele>
        <time>2022-07-09T07:28:14Z</time>
      </trkpt>
      <trkpt lat="47.27218" lon="-1.54665">
        <ele>84</ele>
        <time>2022-07-09T07:28:16Z</time>
      </trkpt>
      <trkpt lat="47.27229" lon="-1.54671">
        <ele>84</ele>
        <time>2022-07-09T07:28:18Z</time>
      </trkpt>
      <trkpt lat="47.2724" lon="-1.54676">
        <ele>83</ele>
        <time>2022-07-09T07:28:20Z</time>
      </trkpt>
      <trkpt lat="47.27251" lon="-1.54679">
        <ele>82</ele>
        <time>2022-07-09T07:28:22Z</time>
      </trkpt>
      <trkpt lat="47.27262" lon="-1.5468">
        <ele>83</ele>
        <time>2022-07-09T07:28:24Z</time>
      </trkpt>
      <trkpt lat="47.27272" lon="-1.54682">
        <ele>83</ele>
        <time>2022-07-09T07:28:26Z</time>
      </trkpt>
      <trkpt lat="47.27283" lon="-1.54685">
        <ele>83</ele>
        <time>2022-07-09T07:28:28Z</time>
      </trkpt>
      <trkpt lat="47.27293" lon="-1.54688">
        <ele>83</ele>
        <time>2022-07-09T07:28:30Z</time>
      </trkpt>
      <trkpt lat="47.27303" lon="-1.54692">
        <ele>84</ele>
        <time>2022-07-09T07:28:32Z</time>
      </trkpt>
      <trkpt lat="47.27315" lon="-1.54696">
        <ele>84</ele>
        <time>2022-07-09T07:28:34Z</time>
      </trkpt>
      <trkpt lat="47.27326" lon="-1.54699">
        <ele>84</ele>
        <time>2022-07-09T07:28:36Z</time>
      </trkpt>
      <trkpt lat="47.27337" lon="-1.54703">
        <ele>84</ele>
        <time>2022-07-09T07:28:38Z</time>
      </trkpt>
      <trkpt lat="47.27348" lon="-1.54706">
        <ele>84</ele>
        <time>2022-07-09T07:28:40Z</time>
      </trkpt>
      <trkpt lat="47.27358" lon="-1.5471">
        <ele>85</ele>
        <time>2022-07-09T07:28:42Z</time>
      </trkpt>
      <trkpt lat="47.27366" lon="-1.54717">
        <ele>85</ele>
        <time>2022-07-09T07:28:44Z</time>
      </trkpt>
      <trkpt lat="47.27375" lon="-1.54725">
        <ele>85</ele>
        <time>2022-07-09T07:28:46Z</time>
      </trkpt>
      <trkpt lat="47.27382" lon="-1.54736">
        <ele>86</ele>
        <time>2022-07-09T07:28:48Z</time>
      </trkpt>
      <trkpt lat="47.2739" lon="-1.54746">
        <ele>86</ele>
        <time>2022-07-09T07:28:50Z</time>
      </trkpt>
      <trkpt lat="47.27396" lon="-1.54755">
        <ele>87</ele>
        <time>2022-07-09T07:28:52Z</time>
      </trkpt>
      <trkpt lat="47.27406" lon="-1.54766">
        <ele>88</ele>
        <time>2022-07-09T07:28:55Z</time>
      </trkpt>
      <trkpt lat="47.27419" lon="-1.54772">
        <ele>89</ele>
        <time>2022-07-09T07:28:58Z</time>
      </trkpt>
      <trkpt lat="47.27428" lon="-1.5477">
        <ele>88</ele>
        <time>2022-07-09T07:29:00Z</time>
      </trkpt>
      <trkpt lat="47.27437" lon="-1.54765">
        <ele>88</ele>
        <time>2022-07-09T07:29:02Z</time>
      </trkpt>
      <trkpt lat="47.27445" lon="-1.54759">
        <ele>88</ele>
        <time>2022-07-09T07:29:04Z</time>
      </trkpt>
      <trkpt lat="47.27453" lon="-1.54751">
        <ele>87</ele>
        <time>2022-07-09T07:29:06Z</time>
      </trkpt>
      <trkpt lat="47.27462" lon="-1.54744">
        <ele>86</ele>
        <time>2022-07-09T07:29:08Z</time>
      </trkpt>
      <trkpt lat="47.27471" lon="-1.54743">
        <ele>86</ele>
        <time>2022-07-09T07:29:10Z</time>
      </trkpt>
      <trkpt lat="47.27481" lon="-1.54743">
        <ele>87</ele>
        <time>2022-07-09T07:29:12Z</time>
      </trkpt>
      <trkpt lat="47.27491" lon="-1.54745">
        <ele>87</ele>
        <time>2022-07-09T07:29:14Z</time>
      </trkpt>
      <trkpt lat="47.275" lon="-1.54747">
        <ele>87</ele>
        <time>2022-07-09T07:29:16Z</time>
      </trkpt>
      <trkpt lat="47.2751" lon="-1.5475">
        <ele>87</ele>
        <time>2022-07-09T07:29:18Z</time>
      </trkpt>
      <trkpt lat="47.2752" lon="-1.54752">
        <ele>87</ele>
        <time>2022-07-09T07:29:20Z</time>
      </trkpt>
      <trkpt lat="47.27529" lon="-1.54755">
        <ele>87</ele>
        <time>2022-07-09T07:29:22Z</time>
      </trkpt>
      <trkpt lat="47.27542" lon="-1.54759">
        <ele>88</ele>
        <time>2022-07-09T07:29:25Z</time>
      </trkpt>
      <trkpt lat="47.27551" lon="-1.54762">
        <ele>88</ele>
        <time>2022-07-09T07:29:27Z</time>
      </trkpt>
      <trkpt lat="47.27564" lon="-1.54766">
        <ele>89</ele>
        <time>2022-07-09T07:29:30Z</time>
      </trkpt>
      <trkpt lat="47.27574" lon="-1.5477">
        <ele>90</ele>
        <time>2022-07-09T07:29:32Z</time>
      </trkpt>
      <trkpt lat="47.27582" lon="-1.54775">
        <ele>90</ele>
        <time>2022-07-09T07:29:34Z</time>
      </trkpt>
      <trkpt lat="47.27591" lon="-1.54789">
        <ele>90</ele>
        <time>2022-07-09T07:29:37Z</time>
      </trkpt>
      <trkpt lat="47.27596" lon="-1.54803">
        <ele>91</ele>
        <time>2022-07-09T07:29:42Z</time>
      </trkpt>
      <trkpt lat="47.27604" lon="-1.54815">
        <ele>91</ele>
        <time>2022-07-09T07:29:45Z</time>
      </trkpt>
      <trkpt lat="47.27613" lon="-1.54822">
        <ele>92</ele>
        <time>2022-07-09T07:29:47Z</time>
      </trkpt>
      <trkpt lat="47.27623" lon="-1.54825">
        <ele>91</ele>
        <time>2022-07-09T07:29:49Z</time>
      </trkpt>
      <trkpt lat="47.27634" lon="-1.54821">
        <ele>91</ele>
        <time>2022-07-09T07:29:51Z</time>
      </trkpt>
      <trkpt lat="47.27643" lon="-1.54815">
        <ele>91</ele>
        <time>2022-07-09T07:29:53Z</time>
      </trkpt>
      <trkpt lat="47.27654" lon="-1.54811">
        <ele>90</ele>
        <time>2022-07-09T07:29:55Z</time>
      </trkpt>
      <trkpt lat="47.27666" lon="-1.54809">
        <ele>89</ele>
        <time>2022-07-09T07:29:57Z</time>
      </trkpt>
      <trkpt lat="47.27677" lon="-1.5481">
        <ele>89</ele>
        <time>2022-07-09T07:29:59Z</time>
      </trkpt>
      <trkpt lat="47.27689" lon="-1.54812">
        <ele>89</ele>
        <time>2022-07-09T07:30:01Z</time>
      </trkpt>
      <trkpt lat="47.27702" lon="-1.54814">
        <ele>89</ele>
        <time>2022-07-09T07:30:03Z</time>
      </trkpt>
      <trkpt lat="47.27714" lon="-1.54816">
        <ele>88</ele>
        <time>2022-07-09T07:30:05Z</time>
      </trkpt>
      <trkpt lat="47.27727" lon="-1.5482">
        <ele>88</ele>
        <time>2022-07-09T07:30:07Z</time>
      </trkpt>
      <trkpt lat="47.27739" lon="-1.54823">
        <ele>88</ele>
        <time>2022-07-09T07:30:09Z</time>
      </trkpt>
      <trkpt lat="47.27752" lon="-1.54828">
        <ele>88</ele>
        <time>2022-07-09T07:30:11Z</time>
      </trkpt>
      <trkpt lat="47.27766" lon="-1.54831">
        <ele>87</ele>
        <time>2022-07-09T07:30:13Z</time>
      </trkpt>
      <trkpt lat="47.27779" lon="-1.54835">
        <ele>87</ele>
        <time>2022-07-09T07:30:15Z</time>
      </trkpt>
      <trkpt lat="47.27793" lon="-1.54839">
        <ele>86</ele>
        <time>2022-07-09T07:30:17Z</time>
      </trkpt>
      <trkpt lat="47.27807" lon="-1.54843">
        <ele>85</ele>
        <time>2022-07-09T07:30:19Z</time>
      </trkpt>
      <trkpt lat="47.27821" lon="-1.54847">
        <ele>85</ele>
        <time>2022-07-09T07:30:21Z</time>
      </trkpt>
      <trkpt lat="47.27836" lon="-1.54852">
        <ele>84</ele>
        <time>2022-07-09T07:30:23Z</time>
      </trkpt>
      <trkpt lat="47.27851" lon="-1.54857">
        <ele>84</ele>
        <time>2022-07-09T07:30:25Z</time>
      </trkpt>
      <trkpt lat="47.27865" lon="-1.54861">
        <ele>84</ele>
        <time>2022-07-09T07:30:27Z</time>
      </trkpt>
      <trkpt lat="47.2788" lon="-1.54865">
        <ele>83</ele>
        <time>2022-07-09T07:30:29Z</time>
      </trkpt>
      <trkpt lat="47.27895" lon="-1.5487">
        <ele>82</ele>
        <time>2022-07-09T07:30:31Z</time>
      </trkpt>
      <trkpt lat="47.2791" lon="-1.54874">
        <ele>81</ele>
        <time>2022-07-09T07:30:33Z</time>
      </trkpt>
      <trkpt lat="47.27925" lon="-1.54879">
        <ele>80</ele>
        <time>2022-07-09T07:30:35Z</time>
      </trkpt>
      <trkpt lat="47.27939" lon="-1.54883">
        <ele>80</ele>
        <time>2022-07-09T07:30:37Z</time>
      </trkpt>
      <trkpt lat="47.27953" lon="-1.54887">
        <ele>79</ele>
        <time>2022-07-09T07:30:39Z</time>
      </trkpt>
      <trkpt lat="47.27968" lon="-1.54891">
        <ele>78</ele>
        <time>2022-07-09T07:30:41Z</time>
      </trkpt>
      <trkpt lat="47.27983" lon="-1.54896">
        <ele>78</ele>
        <time>2022-07-09T07:30:43Z</time>
      </trkpt>
      <trkpt lat="47.27997" lon="-1.549">
        <ele>78</ele>
        <time>2022-07-09T07:30:45Z</time>
      </trkpt>
      <trkpt lat="47.28011" lon="-1.54904">
        <ele>77</ele>
        <time>2022-07-09T07:30:47Z</time>
      </trkpt>
      <trkpt lat="47.28026" lon="-1.54907">
        <ele>77</ele>
        <time>2022-07-09T07:30:49Z</time>
      </trkpt>
      <trkpt lat="47.28039" lon="-1.54911">
        <ele>76</ele>
        <time>2022-07-09T07:30:51Z</time>
      </trkpt>
      <trkpt lat="47.28053" lon="-1.54915">
        <ele>76</ele>
        <time>2022-07-09T07:30:53Z</time>
      </trkpt>
      <trkpt lat="47.28067" lon="-1.5492">
        <ele>76</ele>
        <time>2022-07-09T07:30:55Z</time>
      </trkpt>
      <trkpt lat="47.28081" lon="-1.54924">
        <ele>76</ele>
        <time>2022-07-09T07:30:57Z</time>
      </trkpt>
      <trkpt lat="47.28094" lon="-1.54928">
        <ele>76</ele>
        <time>2022-07-09T07:30:59Z</time>
      </trkpt>
      <trkpt lat="47.28108" lon="-1.54933">
        <ele>76</ele>
        <time>2022-07-09T07:31:01Z</time>
      </trkpt>
      <trkpt lat="47.28121" lon="-1.54937">
        <ele>76</ele>
        <time>2022-07-09T07:31:03Z</time>
      </trkpt>
      <trkpt lat="47.28135" lon="-1.54941">
        <ele>76</ele>
        <time>2022-07-09T07:31:05Z</time>
      </trkpt>
      <trkpt lat="47.28147" lon="-1.54944">
        <ele>76</ele>
        <time>2022-07-09T07:31:07Z</time>
      </trkpt>
      <trkpt lat="47.2816" lon="-1.54947">
        <ele>76</ele>
        <time>2022-07-09T07:31:09Z</time>
      </trkpt>
      <trkpt lat="47.28173" lon="-1.54951">
        <ele>76</ele>
        <time>2022-07-09T07:31:11Z</time>
      </trkpt>
      <trkpt lat="47.28185" lon="-1.54953">
        <ele>76</ele>
        <time>2022-07-09T07:31:13Z</time>
      </trkpt>
      <trkpt lat="47.28198" lon="-1.54956">
        <ele>76</ele>
        <time>2022-07-09T07:31:15Z</time>
      </trkpt>
      <trkpt lat="47.2821" lon="-1.54959">
        <ele>77</ele>
        <time>2022-07-09T07:31:17Z</time>
      </trkpt>
      <trkpt lat="47.28222" lon="-1.54961">
        <ele>77</ele>
        <time>2022-07-09T07:31:19Z</time>
      </trkpt>
      <trkpt lat="47.28234" lon="-1.54963">
        <ele>77</ele>
        <time>2022-07-09T07:31:21Z</time>
      </trkpt>
      <trkpt lat="47.28245" lon="-1.54965">
        <ele>77</ele>
        <time>2022-07-09T07:31:23Z</time>
      </trkpt>
      <trkpt lat="47.28257" lon="-1.54966">
        <ele>77</ele>
        <time>2022-07-09T07:31:25Z</time>
      </trkpt>
      <trkpt lat="47.28268" lon="-1.54968">
        <ele>77</ele>
        <time>2022-07-09T07:31:27Z</time>
      </trkpt>
      <trkpt lat="47.28278" lon="-1.54972">
        <ele>77</ele>
        <time>2022-07-09T07:31:29Z</time>
      </trkpt>
      <trkpt lat="47.28287" lon="-1.54978">
        <ele>78</ele>
        <time>2022-07-09T07:31:31Z</time>
      </trkpt>
      <trkpt lat="47.28296" lon="-1.54983">
        <ele>78</ele>
        <time>2022-07-09T07:31:33Z</time>
      </trkpt>
      <trkpt lat="47.28307" lon="-1.54979">
        <ele>78</ele>
        <time>2022-07-09T07:31:35Z</time>
      </trkpt>
      <trkpt lat="47.28317" lon="-1.5497">
        <ele>77</ele>
        <time>2022-07-09T07:31:37Z</time>
      </trkpt>
      <trkpt lat="47.2833" lon="-1.54968">
        <ele>77</ele>
        <time>2022-07-09T07:31:39Z</time>
      </trkpt>
      <trkpt lat="47.28343" lon="-1.5497">
        <ele>77</ele>
        <time>2022-07-09T07:31:41Z</time>
      </trkpt>
      <trkpt lat="47.28355" lon="-1.54972">
        <ele>77</ele>
        <time>2022-07-09T07:31:43Z</time>
      </trkpt>
      <trkpt lat="47.28367" lon="-1.54973">
        <ele>77</ele>
        <time>2022-07-09T07:31:45Z</time>
      </trkpt>
      <trkpt lat="47.28379" lon="-1.54974">
        <ele>77</ele>
        <time>2022-07-09T07:31:47Z</time>
      </trkpt>
      <trkpt lat="47.28391" lon="-1.54975">
        <ele>77</ele>
        <time>2022-07-09T07:31:49Z</time>
      </trkpt>
      <trkpt lat="47.28404" lon="-1.54976">
        <ele>77</ele>
        <time>2022-07-09T07:31:51Z</time>
      </trkpt>
      <trkpt lat="47.28417" lon="-1.54977">
        <ele>77</ele>
        <time>2022-07-09T07:31:53Z</time>
      </trkpt>
      <trkpt lat="47.28429" lon="-1.54978">
        <ele>77</ele>
        <time>2022-07-09T07:31:55Z</time>
      </trkpt>
      <trkpt lat="47.28442" lon="-1.54979">
        <ele>77</ele>
        <time>2022-07-09T07:31:57Z</time>
      </trkpt>
      <trkpt lat="47.28454" lon="-1.54979">
        <ele>76</ele>
        <time>2022-07-09T07:31:59Z</time>
      </trkpt>
      <trkpt lat="47.28466" lon="-1.54979">
        <ele>76</ele>
        <time>2022-07-09T07:32:01Z</time>
      </trkpt>
      <trkpt lat="47.28478" lon="-1.54979">
        <ele>76</ele>
        <time>2022-07-09T07:32:03Z</time>
      </trkpt>
      <trkpt lat="47.28497" lon="-1.54979">
        <ele>75</ele>
        <time>2022-07-09T07:32:06Z</time>
      </trkpt>
      <trkpt lat="47.28509" lon="-1.54979">
        <ele>75</ele>
        <time>2022-07-09T07:32:08Z</time>
      </trkpt>
      <trkpt lat="47.28518" lon="-1.54986">
        <ele>75</ele>
        <time>2022-07-09T07:32:10Z</time>
      </trkpt>
      <trkpt lat="47.28524" lon="-1.55002">
        <ele>76</ele>
        <time>2022-07-09T07:32:13Z</time>
      </trkpt>
      <trkpt lat="47.28533" lon="-1.55016">
        <ele>77</ele>
        <time>2022-07-09T07:32:17Z</time>
      </trkpt>
      <trkpt lat="47.2854" lon="-1.55025">
        <ele>77</ele>
        <time>2022-07-09T07:32:19Z</time>
      </trkpt>
      <trkpt lat="47.28546" lon="-1.55034">
        <ele>77</ele>
        <time>2022-07-09T07:32:21Z</time>
      </trkpt>
      <trkpt lat="47.28555" lon="-1.55043">
        <ele>78</ele>
        <time>2022-07-09T07:32:27Z</time>
      </trkpt>
      <trkpt lat="47.28568" lon="-1.55038">
        <ele>77</ele>
        <time>2022-07-09T07:32:30Z</time>
      </trkpt>
      <trkpt lat="47.28578" lon="-1.55019">
        <ele>76</ele>
        <time>2022-07-09T07:32:33Z</time>
      </trkpt>
      <trkpt lat="47.28584" lon="-1.55004">
        <ele>77</ele>
        <time>2022-07-09T07:32:35Z</time>
      </trkpt>
      <trkpt lat="47.28591" lon="-1.54991">
        <ele>76</ele>
        <time>2022-07-09T07:32:37Z</time>
      </trkpt>
      <trkpt lat="47.286" lon="-1.54979">
        <ele>75</ele>
        <time>2022-07-09T07:32:39Z</time>
      </trkpt>
      <trkpt lat="47.2861" lon="-1.5497">
        <ele>75</ele>
        <time>2022-07-09T07:32:41Z</time>
      </trkpt>
      <trkpt lat="47.28629" lon="-1.54966">
        <ele>75</ele>
        <time>2022-07-09T07:32:44Z</time>
      </trkpt>
      <trkpt lat="47.28643" lon="-1.54964">
        <ele>75</ele>
        <time>2022-07-09T07:32:46Z</time>
      </trkpt>
      <trkpt lat="47.28656" lon="-1.54962">
        <ele>76</ele>
        <time>2022-07-09T07:32:48Z</time>
      </trkpt>
      <trkpt lat="47.28669" lon="-1.54961">
        <ele>76</ele>
        <time>2022-07-09T07:32:50Z</time>
      </trkpt>
      <trkpt lat="47.28682" lon="-1.54961">
        <ele>77</ele>
        <time>2022-07-09T07:32:52Z</time>
      </trkpt>
      <trkpt lat="47.28694" lon="-1.5496">
        <ele>77</ele>
        <time>2022-07-09T07:32:54Z</time>
      </trkpt>
      <trkpt lat="47.28706" lon="-1.54959">
        <ele>77</ele>
        <time>2022-07-09T07:32:56Z</time>
      </trkpt>
      <trkpt lat="47.28717" lon="-1.54957">
        <ele>77</ele>
        <time>2022-07-09T07:32:58Z</time>
      </trkpt>
      <trkpt lat="47.28729" lon="-1.54955">
        <ele>76</ele>
        <time>2022-07-09T07:33:00Z</time>
      </trkpt>
      <trkpt lat="47.28741" lon="-1.54955">
        <ele>76</ele>
        <time>2022-07-09T07:33:02Z</time>
      </trkpt>
      <trkpt lat="47.28752" lon="-1.54953">
        <ele>77</ele>
        <time>2022-07-09T07:33:04Z</time>
      </trkpt>
      <trkpt lat="47.28764" lon="-1.54951">
        <ele>78</ele>
        <time>2022-07-09T07:33:06Z</time>
      </trkpt>
      <trkpt lat="47.28776" lon="-1.54949">
        <ele>78</ele>
        <time>2022-07-09T07:33:08Z</time>
      </trkpt>
      <trkpt lat="47.28788" lon="-1.54947">
        <ele>78</ele>
        <time>2022-07-09T07:33:10Z</time>
      </trkpt>
      <trkpt lat="47.288" lon="-1.54945">
        <ele>78</ele>
        <time>2022-07-09T07:33:12Z</time>
      </trkpt>
      <trkpt lat="47.28812" lon="-1.54943">
        <ele>78</ele>
        <time>2022-07-09T07:33:14Z</time>
      </trkpt>
      <trkpt lat="47.28823" lon="-1.5494">
        <ele>78</ele>
        <time>2022-07-09T07:33:16Z</time>
      </trkpt>
      <trkpt lat="47.28835" lon="-1.54938">
        <ele>78</ele>
        <time>2022-07-09T07:33:18Z</time>
      </trkpt>
      <trkpt lat="47.28847" lon="-1.54936">
        <ele>77</ele>
        <time>2022-07-09T07:33:20Z</time>
      </trkpt>
      <trkpt lat="47.28859" lon="-1.54935">
        <ele>77</ele>
        <time>2022-07-09T07:33:22Z</time>
      </trkpt>
      <trkpt lat="47.28871" lon="-1.54933">
        <ele>77</ele>
        <time>2022-07-09T07:33:24Z</time>
      </trkpt>
      <trkpt lat="47.28882" lon="-1.54931">
        <ele>77</ele>
        <time>2022-07-09T07:33:26Z</time>
      </trkpt>
      <trkpt lat="47.28894" lon="-1.5493">
        <ele>77</ele>
        <time>2022-07-09T07:33:28Z</time>
      </trkpt>
      <trkpt lat="47.28906" lon="-1.54928">
        <ele>77</ele>
        <time>2022-07-09T07:33:30Z</time>
      </trkpt>
      <trkpt lat="47.28919" lon="-1.54926">
        <ele>77</ele>
        <time>2022-07-09T07:33:32Z</time>
      </trkpt>
      <trkpt lat="47.28931" lon="-1.54924">
        <ele>77</ele>
        <time>2022-07-09T07:33:34Z</time>
      </trkpt>
      <trkpt lat="47.28944" lon="-1.54922">
        <ele>76</ele>
        <time>2022-07-09T07:33:36Z</time>
      </trkpt>
      <trkpt lat="47.28956" lon="-1.54924">
        <ele>77</ele>
        <time>2022-07-09T07:33:38Z</time>
      </trkpt>
      <trkpt lat="47.28968" lon="-1.54927">
        <ele>76</ele>
        <time>2022-07-09T07:33:40Z</time>
      </trkpt>
      <trkpt lat="47.28982" lon="-1.5493">
        <ele>76</ele>
        <time>2022-07-09T07:33:42Z</time>
      </trkpt>
      <trkpt lat="47.28995" lon="-1.54932">
        <ele>76</ele>
        <time>2022-07-09T07:33:44Z</time>
      </trkpt>
      <trkpt lat="47.29008" lon="-1.5493">
        <ele>76</ele>
        <time>2022-07-09T07:33:46Z</time>
      </trkpt>
      <trkpt lat="47.29021" lon="-1.54931">
        <ele>76</ele>
        <time>2022-07-09T07:33:48Z</time>
      </trkpt>
      <trkpt lat="47.29032" lon="-1.54931">
        <ele>75</ele>
        <time>2022-07-09T07:33:50Z</time>
      </trkpt>
      <trkpt lat="47.2904" lon="-1.54918">
        <ele>76</ele>
        <time>2022-07-09T07:33:53Z</time>
      </trkpt>
      <trkpt lat="47.29054" lon="-1.54914">
        <ele>76</ele>
        <time>2022-07-09T07:33:56Z</time>
      </trkpt>
      <trkpt lat="47.29063" lon="-1.54913">
        <ele>77</ele>
        <time>2022-07-09T07:33:58Z</time>
      </trkpt>
      <trkpt lat="47.29074" lon="-1.54915">
        <ele>79</ele>
        <time>2022-07-09T07:34:00Z</time>
      </trkpt>
      <trkpt lat="47.29086" lon="-1.54915">
        <ele>79</ele>
        <time>2022-07-09T07:34:02Z</time>
      </trkpt>
      <trkpt lat="47.29097" lon="-1.54915">
        <ele>80</ele>
        <time>2022-07-09T07:34:04Z</time>
      </trkpt>
      <trkpt lat="47.29107" lon="-1.54913">
        <ele>81</ele>
        <time>2022-07-09T07:34:06Z</time>
      </trkpt>
      <trkpt lat="47.29119" lon="-1.54913">
        <ele>82</ele>
        <time>2022-07-09T07:34:08Z</time>
      </trkpt>
      <trkpt lat="47.29129" lon="-1.54914">
        <ele>82</ele>
        <time>2022-07-09T07:34:10Z</time>
      </trkpt>
      <trkpt lat="47.29139" lon="-1.54913">
        <ele>83</ele>
        <time>2022-07-09T07:34:12Z</time>
      </trkpt>
      <trkpt lat="47.2915" lon="-1.54912">
        <ele>83</ele>
        <time>2022-07-09T07:34:14Z</time>
      </trkpt>
      <trkpt lat="47.29161" lon="-1.54913">
        <ele>84</ele>
        <time>2022-07-09T07:34:16Z</time>
      </trkpt>
      <trkpt lat="47.29172" lon="-1.54912">
        <ele>84</ele>
        <time>2022-07-09T07:34:18Z</time>
      </trkpt>
      <trkpt lat="47.29182" lon="-1.54912">
        <ele>85</ele>
        <time>2022-07-09T07:34:20Z</time>
      </trkpt>
      <trkpt lat="47.29193" lon="-1.5491">
        <ele>87</ele>
        <time>2022-07-09T07:34:22Z</time>
      </trkpt>
      <trkpt lat="47.29205" lon="-1.54908">
        <ele>88</ele>
        <time>2022-07-09T07:34:24Z</time>
      </trkpt>
      <trkpt lat="47.29217" lon="-1.54906">
        <ele>88</ele>
        <time>2022-07-09T07:34:26Z</time>
      </trkpt>
      <trkpt lat="47.29227" lon="-1.54905">
        <ele>87</ele>
        <time>2022-07-09T07:34:28Z</time>
      </trkpt>
      <trkpt lat="47.29239" lon="-1.54909">
        <ele>87</ele>
        <time>2022-07-09T07:34:31Z</time>
      </trkpt>
      <trkpt lat="47.29249" lon="-1.54913">
        <ele>87</ele>
        <time>2022-07-09T07:34:33Z</time>
      </trkpt>
      <trkpt lat="47.2926" lon="-1.54915">
        <ele>87</ele>
        <time>2022-07-09T07:34:35Z</time>
      </trkpt>
      <trkpt lat="47.2927" lon="-1.54915">
        <ele>88</ele>
        <time>2022-07-09T07:34:37Z</time>
      </trkpt>
      <trkpt lat="47.2928" lon="-1.54916">
        <ele>88</ele>
        <time>2022-07-09T07:34:39Z</time>
      </trkpt>
      <trkpt lat="47.2929" lon="-1.54915">
        <ele>89</ele>
        <time>2022-07-09T07:34:41Z</time>
      </trkpt>
      <trkpt lat="47.29301" lon="-1.54915">
        <ele>88</ele>
        <time>2022-07-09T07:34:43Z</time>
      </trkpt>
      <trkpt lat="47.29311" lon="-1.54917">
        <ele>88</ele>
        <time>2022-07-09T07:34:45Z</time>
      </trkpt>
      <trkpt lat="47.29321" lon="-1.54916">
        <ele>88</ele>
        <time>2022-07-09T07:34:47Z</time>
      </trkpt>
      <trkpt lat="47.29332" lon="-1.54913">
        <ele>87</ele>
        <time>2022-07-09T07:34:49Z</time>
      </trkpt>
      <trkpt lat="47.29341" lon="-1.54908">
        <ele>87</ele>
        <time>2022-07-09T07:34:51Z</time>
      </trkpt>
      <trkpt lat="47.29349" lon="-1.54899">
        <ele>87</ele>
        <time>2022-07-09T07:34:53Z</time>
      </trkpt>
      <trkpt lat="47.29359" lon="-1.54892">
        <ele>86</ele>
        <time>2022-07-09T07:34:55Z</time>
      </trkpt>
      <trkpt lat="47.29369" lon="-1.54889">
        <ele>85</ele>
        <time>2022-07-09T07:34:57Z</time>
      </trkpt>
      <trkpt lat="47.2938" lon="-1.54889">
        <ele>84</ele>
        <time>2022-07-09T07:34:59Z</time>
      </trkpt>
      <trkpt lat="47.2939" lon="-1.54889">
        <ele>84</ele>
        <time>2022-07-09T07:35:01Z</time>
      </trkpt>
      <trkpt lat="47.294" lon="-1.54889">
        <ele>83</ele>
        <time>2022-07-09T07:35:03Z</time>
      </trkpt>
      <trkpt lat="47.29411" lon="-1.54889">
        <ele>84</ele>
        <time>2022-07-09T07:35:05Z</time>
      </trkpt>
      <trkpt lat="47.29422" lon="-1.54888">
        <ele>83</ele>
        <time>2022-07-09T07:35:07Z</time>
      </trkpt>
      <trkpt lat="47.29432" lon="-1.54888">
        <ele>83</ele>
        <time>2022-07-09T07:35:09Z</time>
      </trkpt>
      <trkpt lat="47.29444" lon="-1.54887">
        <ele>82</ele>
        <time>2022-07-09T07:35:11Z</time>
      </trkpt>
      <trkpt lat="47.29455" lon="-1.54886">
        <ele>82</ele>
        <time>2022-07-09T07:35:13Z</time>
      </trkpt>
      <trkpt lat="47.29468" lon="-1.54886">
        <ele>81</ele>
        <time>2022-07-09T07:35:15Z</time>
      </trkpt>
      <trkpt lat="47.29481" lon="-1.54889">
        <ele>81</ele>
        <time>2022-07-09T07:35:17Z</time>
      </trkpt>
      <trkpt lat="47.29494" lon="-1.54888">
        <ele>80</ele>
        <time>2022-07-09T07:35:19Z</time>
      </trkpt>
      <trkpt lat="47.29506" lon="-1.54887">
        <ele>80</ele>
        <time>2022-07-09T07:35:21Z</time>
      </trkpt>
      <trkpt lat="47.29519" lon="-1.54886">
        <ele>80</ele>
        <time>2022-07-09T07:35:23Z</time>
      </trkpt>
      <trkpt lat="47.29532" lon="-1.54885">
        <ele>80</ele>
        <time>2022-07-09T07:35:25Z</time>
      </trkpt>
      <trkpt lat="47.29546" lon="-1.54885">
        <ele>79</ele>
        <time>2022-07-09T07:35:27Z</time>
      </trkpt>
      <trkpt lat="47.29559" lon="-1.54884">
        <ele>79</ele>
        <time>2022-07-09T07:35:29Z</time>
      </trkpt>
      <trkpt lat="47.29572" lon="-1.54883">
        <ele>79</ele>
        <time>2022-07-09T07:35:31Z</time>
      </trkpt>
      <trkpt lat="47.29586" lon="-1.54882">
        <ele>79</ele>
        <time>2022-07-09T07:35:33Z</time>
      </trkpt>
      <trkpt lat="47.29599" lon="-1.5488">
        <ele>78</ele>
        <time>2022-07-09T07:35:35Z</time>
      </trkpt>
      <trkpt lat="47.29611" lon="-1.54874">
        <ele>79</ele>
        <time>2022-07-09T07:35:37Z</time>
      </trkpt>
      <trkpt lat="47.29623" lon="-1.54868">
        <ele>79</ele>
        <time>2022-07-09T07:35:39Z</time>
      </trkpt>
      <trkpt lat="47.29635" lon="-1.54866">
        <ele>79</ele>
        <time>2022-07-09T07:35:41Z</time>
      </trkpt>
      <trkpt lat="47.29648" lon="-1.54863">
        <ele>79</ele>
        <time>2022-07-09T07:35:43Z</time>
      </trkpt>
      <trkpt lat="47.29661" lon="-1.54862">
        <ele>78</ele>
        <time>2022-07-09T07:35:45Z</time>
      </trkpt>
      <trkpt lat="47.29674" lon="-1.54861">
        <ele>78</ele>
        <time>2022-07-09T07:35:47Z</time>
      </trkpt>
      <trkpt lat="47.29687" lon="-1.54858">
        <ele>78</ele>
        <time>2022-07-09T07:35:49Z</time>
      </trkpt>
      <trkpt lat="47.29698" lon="-1.54855">
        <ele>78</ele>
        <time>2022-07-09T07:35:51Z</time>
      </trkpt>
      <trkpt lat="47.29707" lon="-1.54854">
        <ele>78</ele>
        <time>2022-07-09T07:35:53Z</time>
      </trkpt>
      <trkpt lat="47.29716" lon="-1.54855">
        <ele>78</ele>
        <time>2022-07-09T07:35:56Z</time>
      </trkpt>
      <trkpt lat="47.29727" lon="-1.54851">
        <ele>78</ele>
        <time>2022-07-09T07:36:01Z</time>
      </trkpt>
      <trkpt lat="47.29739" lon="-1.54848">
        <ele>78</ele>
        <time>2022-07-09T07:36:04Z</time>
      </trkpt>
      <trkpt lat="47.29751" lon="-1.54843">
        <ele>77</ele>
        <time>2022-07-09T07:36:06Z</time>
      </trkpt>
      <trkpt lat="47.29763" lon="-1.54837">
        <ele>77</ele>
        <time>2022-07-09T07:36:08Z</time>
      </trkpt>
      <trkpt lat="47.29776" lon="-1.54833">
        <ele>78</ele>
        <time>2022-07-09T07:36:10Z</time>
      </trkpt>
      <trkpt lat="47.29789" lon="-1.54833">
        <ele>78</ele>
        <time>2022-07-09T07:36:12Z</time>
      </trkpt>
      <trkpt lat="47.29802" lon="-1.54838">
        <ele>78</ele>
        <time>2022-07-09T07:36:14Z</time>
      </trkpt>
      <trkpt lat="47.29814" lon="-1.54838">
        <ele>77</ele>
        <time>2022-07-09T07:36:16Z</time>
      </trkpt>
      <trkpt lat="47.29827" lon="-1.54836">
        <ele>77</ele>
        <time>2022-07-09T07:36:18Z</time>
      </trkpt>
      <trkpt lat="47.29841" lon="-1.54833">
        <ele>77</ele>
        <time>2022-07-09T07:36:20Z</time>
      </trkpt>
      <trkpt lat="47.29854" lon="-1.5483">
        <ele>77</ele>
        <time>2022-07-09T07:36:22Z</time>
      </trkpt>
      <trkpt lat="47.29867" lon="-1.54827">
        <ele>76</ele>
        <time>2022-07-09T07:36:24Z</time>
      </trkpt>
      <trkpt lat="47.29881" lon="-1.54823">
        <ele>76</ele>
        <time>2022-07-09T07:36:26Z</time>
      </trkpt>
      <trkpt lat="47.29893" lon="-1.5482">
        <ele>77</ele>
        <time>2022-07-09T07:36:28Z</time>
      </trkpt>
      <trkpt lat="47.29904" lon="-1.54815">
        <ele>77</ele>
        <time>2022-07-09T07:36:30Z</time>
      </trkpt>
      <trkpt lat="47.29915" lon="-1.54812">
        <ele>78</ele>
        <time>2022-07-09T07:36:32Z</time>
      </trkpt>
      <trkpt lat="47.29928" lon="-1.54807">
        <ele>78</ele>
        <time>2022-07-09T07:36:34Z</time>
      </trkpt>
      <trkpt lat="47.2994" lon="-1.54803">
        <ele>78</ele>
        <time>2022-07-09T07:36:36Z</time>
      </trkpt>
      <trkpt lat="47.29954" lon="-1.54799">
        <ele>78</ele>
        <time>2022-07-09T07:36:38Z</time>
      </trkpt>
      <trkpt lat="47.29967" lon="-1.54795">
        <ele>78</ele>
        <time>2022-07-09T07:36:40Z</time>
      </trkpt>
      <trkpt lat="47.2998" lon="-1.5479">
        <ele>77</ele>
        <time>2022-07-09T07:36:42Z</time>
      </trkpt>
      <trkpt lat="47.29993" lon="-1.54785">
        <ele>76</ele>
        <time>2022-07-09T07:36:44Z</time>
      </trkpt>
      <trkpt lat="47.30006" lon="-1.5478">
        <ele>75</ele>
        <time>2022-07-09T07:36:46Z</time>
      </trkpt>
      <trkpt lat="47.30018" lon="-1.54775">
        <ele>75</ele>
        <time>2022-07-09T07:36:48Z</time>
      </trkpt>
      <trkpt lat="47.30031" lon="-1.54771">
        <ele>74</ele>
        <time>2022-07-09T07:36:50Z</time>
      </trkpt>
      <trkpt lat="47.30043" lon="-1.54766">
        <ele>74</ele>
        <time>2022-07-09T07:36:52Z</time>
      </trkpt>
      <trkpt lat="47.30055" lon="-1.54761">
        <ele>74</ele>
        <time>2022-07-09T07:36:54Z</time>
      </trkpt>
      <trkpt lat="47.30067" lon="-1.54755">
        <ele>73</ele>
        <time>2022-07-09T07:36:56Z</time>
      </trkpt>
      <trkpt lat="47.3008" lon="-1.5475">
        <ele>73</ele>
        <time>2022-07-09T07:36:58Z</time>
      </trkpt>
      <trkpt lat="47.30093" lon="-1.54744">
        <ele>73</ele>
        <time>2022-07-09T07:37:00Z</time>
      </trkpt>
      <trkpt lat="47.30105" lon="-1.54737">
        <ele>74</ele>
        <time>2022-07-09T07:37:02Z</time>
      </trkpt>
      <trkpt lat="47.30117" lon="-1.54731">
        <ele>74</ele>
        <time>2022-07-09T07:37:04Z</time>
      </trkpt>
      <trkpt lat="47.30129" lon="-1.54724">
        <ele>75</ele>
        <time>2022-07-09T07:37:06Z</time>
      </trkpt>
      <trkpt lat="47.30142" lon="-1.54719">
        <ele>75</ele>
        <time>2022-07-09T07:37:08Z</time>
      </trkpt>
      <trkpt lat="47.30154" lon="-1.54714">
        <ele>75</ele>
        <time>2022-07-09T07:37:10Z</time>
      </trkpt>
      <trkpt lat="47.30166" lon="-1.54708">
        <ele>75</ele>
        <time>2022-07-09T07:37:12Z</time>
      </trkpt>
      <trkpt lat="47.30179" lon="-1.54702">
        <ele>75</ele>
        <time>2022-07-09T07:37:14Z</time>
      </trkpt>
      <trkpt lat="47.30192" lon="-1.54695">
        <ele>75</ele>
        <time>2022-07-09T07:37:16Z</time>
      </trkpt>
      <trkpt lat="47.30204" lon="-1.54688">
        <ele>75</ele>
        <time>2022-07-09T07:37:18Z</time>
      </trkpt>
      <trkpt lat="47.30218" lon="-1.54681">
        <ele>75</ele>
        <time>2022-07-09T07:37:20Z</time>
      </trkpt>
      <trkpt lat="47.30231" lon="-1.54672">
        <ele>75</ele>
        <time>2022-07-09T07:37:22Z</time>
      </trkpt>
      <trkpt lat="47.30245" lon="-1.54665">
        <ele>74</ele>
        <time>2022-07-09T07:37:24Z</time>
      </trkpt>
      <trkpt lat="47.30259" lon="-1.54657">
        <ele>74</ele>
        <time>2022-07-09T07:37:26Z</time>
      </trkpt>
      <trkpt lat="47.30272" lon="-1.54649">
        <ele>74</ele>
        <time>2022-07-09T07:37:28Z</time>
      </trkpt>
      <trkpt lat="47.30288" lon="-1.54648">
        <ele>73</ele>
        <time>2022-07-09T07:37:30Z</time>
      </trkpt>
      <trkpt lat="47.30301" lon="-1.54657">
        <ele>73</ele>
        <time>2022-07-09T07:37:32Z</time>
      </trkpt>
      <trkpt lat="47.30312" lon="-1.54663">
        <ele>72</ele>
        <time>2022-07-09T07:37:34Z</time>
      </trkpt>
      <trkpt lat="47.30323" lon="-1.54667">
        <ele>71</ele>
        <time>2022-07-09T07:37:36Z</time>
      </trkpt>
      <trkpt lat="47.30334" lon="-1.54667">
        <ele>71</ele>
        <time>2022-07-09T07:37:38Z</time>
      </trkpt>
      <trkpt lat="47.30346" lon="-1.54662">
        <ele>71</ele>
        <time>2022-07-09T07:37:40Z</time>
      </trkpt>
      <trkpt lat="47.30358" lon="-1.54654">
        <ele>70</ele>
        <time>2022-07-09T07:37:42Z</time>
      </trkpt>
      <trkpt lat="47.30369" lon="-1.54641">
        <ele>70</ele>
        <time>2022-07-09T07:37:44Z</time>
      </trkpt>
      <trkpt lat="47.30377" lon="-1.54627">
        <ele>70</ele>
        <time>2022-07-09T07:37:46Z</time>
      </trkpt>
      <trkpt lat="47.30387" lon="-1.54612">
        <ele>69</ele>
        <time>2022-07-09T07:37:48Z</time>
      </trkpt>
      <trkpt lat="47.30398" lon="-1.546">
        <ele>69</ele>
        <time>2022-07-09T07:37:50Z</time>
      </trkpt>
      <trkpt lat="47.30408" lon="-1.54587">
        <ele>68</ele>
        <time>2022-07-09T07:37:52Z</time>
      </trkpt>
      <trkpt lat="47.30417" lon="-1.54577">
        <ele>69</ele>
        <time>2022-07-09T07:37:54Z</time>
      </trkpt>
      <trkpt lat="47.30426" lon="-1.54568">
        <ele>69</ele>
        <time>2022-07-09T07:37:56Z</time>
      </trkpt>
      <trkpt lat="47.30436" lon="-1.54559">
        <ele>70</ele>
        <time>2022-07-09T07:37:58Z</time>
      </trkpt>
      <trkpt lat="47.30445" lon="-1.54552">
        <ele>70</ele>
        <time>2022-07-09T07:38:00Z</time>
      </trkpt>
      <trkpt lat="47.30454" lon="-1.54546">
        <ele>70</ele>
        <time>2022-07-09T07:38:02Z</time>
      </trkpt>
      <trkpt lat="47.30463" lon="-1.5454">
        <ele>71</ele>
        <time>2022-07-09T07:38:04Z</time>
      </trkpt>
      <trkpt lat="47.30472" lon="-1.54534">
        <ele>71</ele>
        <time>2022-07-09T07:38:06Z</time>
      </trkpt>
      <trkpt lat="47.30482" lon="-1.54526">
        <ele>71</ele>
        <time>2022-07-09T07:38:08Z</time>
      </trkpt>
      <trkpt lat="47.30492" lon="-1.54519">
        <ele>71</ele>
        <time>2022-07-09T07:38:10Z</time>
      </trkpt>
      <trkpt lat="47.30501" lon="-1.54512">
        <ele>72</ele>
        <time>2022-07-09T07:38:12Z</time>
      </trkpt>
      <trkpt lat="47.30511" lon="-1.54505">
        <ele>72</ele>
        <time>2022-07-09T07:38:14Z</time>
      </trkpt>
      <trkpt lat="47.30521" lon="-1.54498">
        <ele>72</ele>
        <time>2022-07-09T07:38:16Z</time>
      </trkpt>
      <trkpt lat="47.30529" lon="-1.54489">
        <ele>73</ele>
        <time>2022-07-09T07:38:18Z</time>
      </trkpt>
      <trkpt lat="47.30539" lon="-1.54481">
        <ele>73</ele>
        <time>2022-07-09T07:38:20Z</time>
      </trkpt>
      <trkpt lat="47.30548" lon="-1.54474">
        <ele>73</ele>
        <time>2022-07-09T07:38:22Z</time>
      </trkpt>
      <trkpt lat="47.30556" lon="-1.54466">
        <ele>74</ele>
        <time>2022-07-09T07:38:24Z</time>
      </trkpt>
      <trkpt lat="47.30566" lon="-1.54456">
        <ele>74</ele>
        <time>2022-07-09T07:38:27Z</time>
      </trkpt>
      <trkpt lat="47.30576" lon="-1.54446">
        <ele>75</ele>
        <time>2022-07-09T07:38:30Z</time>
      </trkpt>
      <trkpt lat="47.30585" lon="-1.5444">
        <ele>75</ele>
        <time>2022-07-09T07:38:32Z</time>
      </trkpt>
      <trkpt lat="47.30595" lon="-1.5443">
        <ele>75</ele>
        <time>2022-07-09T07:38:34Z</time>
      </trkpt>
      <trkpt lat="47.30605" lon="-1.54422">
        <ele>75</ele>
        <time>2022-07-09T07:38:36Z</time>
      </trkpt>
      <trkpt lat="47.30615" lon="-1.54413">
        <ele>76</ele>
        <time>2022-07-09T07:38:38Z</time>
      </trkpt>
      <trkpt lat="47.30625" lon="-1.54404">
        <ele>76</ele>
        <time>2022-07-09T07:38:40Z</time>
      </trkpt>
      <trkpt lat="47.30636" lon="-1.54395">
        <ele>77</ele>
        <time>2022-07-09T07:38:42Z</time>
      </trkpt>
      <trkpt lat="47.30646" lon="-1.54384">
        <ele>77</ele>
        <time>2022-07-09T07:38:44Z</time>
      </trkpt>
      <trkpt lat="47.30656" lon="-1.54375">
        <ele>77</ele>
        <time>2022-07-09T07:38:46Z</time>
      </trkpt>
      <trkpt lat="47.30667" lon="-1.54366">
        <ele>76</ele>
        <time>2022-07-09T07:38:48Z</time>
      </trkpt>
      <trkpt lat="47.30678" lon="-1.54357">
        <ele>75</ele>
        <time>2022-07-09T07:38:50Z</time>
      </trkpt>
      <trkpt lat="47.30689" lon="-1.54349">
        <ele>75</ele>
        <time>2022-07-09T07:38:52Z</time>
      </trkpt>
      <trkpt lat="47.307" lon="-1.5434">
        <ele>75</ele>
        <time>2022-07-09T07:38:54Z</time>
      </trkpt>
      <trkpt lat="47.30711" lon="-1.54331">
        <ele>74</ele>
        <time>2022-07-09T07:38:56Z</time>
      </trkpt>
      <trkpt lat="47.30722" lon="-1.54321">
        <ele>73</ele>
        <time>2022-07-09T07:38:58Z</time>
      </trkpt>
      <trkpt lat="47.30733" lon="-1.54311">
        <ele>72</ele>
        <time>2022-07-09T07:39:00Z</time>
      </trkpt>
      <trkpt lat="47.30745" lon="-1.54302">
        <ele>71</ele>
        <time>2022-07-09T07:39:02Z</time>
      </trkpt>
      <trkpt lat="47.30758" lon="-1.54294">
        <ele>70</ele>
        <time>2022-07-09T07:39:04Z</time>
      </trkpt>
      <trkpt lat="47.30771" lon="-1.54293">
        <ele>70</ele>
        <time>2022-07-09T07:39:06Z</time>
      </trkpt>
      <trkpt lat="47.30785" lon="-1.54298">
        <ele>69</ele>
        <time>2022-07-09T07:39:08Z</time>
      </trkpt>
      <trkpt lat="47.30798" lon="-1.54301">
        <ele>69</ele>
        <time>2022-07-09T07:39:10Z</time>
      </trkpt>
      <trkpt lat="47.30812" lon="-1.54294">
        <ele>68</ele>
        <time>2022-07-09T07:39:12Z</time>
      </trkpt>
      <trkpt lat="47.30827" lon="-1.54288">
        <ele>68</ele>
        <time>2022-07-09T07:39:14Z</time>
      </trkpt>
      <trkpt lat="47.30841" lon="-1.54282">
        <ele>67</ele>
        <time>2022-07-09T07:39:16Z</time>
      </trkpt>
      <trkpt lat="47.30853" lon="-1.54273">
        <ele>67</ele>
        <time>2022-07-09T07:39:18Z</time>
      </trkpt>
      <trkpt lat="47.30868" lon="-1.54267">
        <ele>66</ele>
        <time>2022-07-09T07:39:20Z</time>
      </trkpt>
      <trkpt lat="47.30883" lon="-1.54266">
        <ele>65</ele>
        <time>2022-07-09T07:39:22Z</time>
      </trkpt>
      <trkpt lat="47.309" lon="-1.54267">
        <ele>64</ele>
        <time>2022-07-09T07:39:24Z</time>
      </trkpt>
      <trkpt lat="47.30916" lon="-1.54267">
        <ele>64</ele>
        <time>2022-07-09T07:39:26Z</time>
      </trkpt>
      <trkpt lat="47.30932" lon="-1.54269">
        <ele>64</ele>
        <time>2022-07-09T07:39:28Z</time>
      </trkpt>
      <trkpt lat="47.30949" lon="-1.54275">
        <ele>63</ele>
        <time>2022-07-09T07:39:30Z</time>
      </trkpt>
      <trkpt lat="47.30964" lon="-1.54284">
        <ele>63</ele>
        <time>2022-07-09T07:39:32Z</time>
      </trkpt>
      <trkpt lat="47.30978" lon="-1.54288">
        <ele>63</ele>
        <time>2022-07-09T07:39:34Z</time>
      </trkpt>
      <trkpt lat="47.30992" lon="-1.54286">
        <ele>63</ele>
        <time>2022-07-09T07:39:36Z</time>
      </trkpt>
      <trkpt lat="47.31007" lon="-1.54281">
        <ele>62</ele>
        <time>2022-07-09T07:39:38Z</time>
      </trkpt>
      <trkpt lat="47.31023" lon="-1.5428">
        <ele>62</ele>
        <time>2022-07-09T07:39:40Z</time>
      </trkpt>
      <trkpt lat="47.31037" lon="-1.5428">
        <ele>61</ele>
        <time>2022-07-09T07:39:42Z</time>
      </trkpt>
      <trkpt lat="47.31051" lon="-1.54282">
        <ele>59</ele>
        <time>2022-07-09T07:39:44Z</time>
      </trkpt>
      <trkpt lat="47.31066" lon="-1.54284">
        <ele>58</ele>
        <time>2022-07-09T07:39:46Z</time>
      </trkpt>
      <trkpt lat="47.3108" lon="-1.54285">
        <ele>57</ele>
        <time>2022-07-09T07:39:48Z</time>
      </trkpt>
      <trkpt lat="47.31094" lon="-1.54286">
        <ele>57</ele>
        <time>2022-07-09T07:39:50Z</time>
      </trkpt>
      <trkpt lat="47.31108" lon="-1.54287">
        <ele>56</ele>
        <time>2022-07-09T07:39:52Z</time>
      </trkpt>
      <trkpt lat="47.31122" lon="-1.54288">
        <ele>56</ele>
        <time>2022-07-09T07:39:54Z</time>
      </trkpt>
      <trkpt lat="47.31136" lon="-1.54287">
        <ele>55</ele>
        <time>2022-07-09T07:39:56Z</time>
      </trkpt>
      <trkpt lat="47.31149" lon="-1.54287">
        <ele>55</ele>
        <time>2022-07-09T07:39:58Z</time>
      </trkpt>
      <trkpt lat="47.31162" lon="-1.54288">
        <ele>56</ele>
        <time>2022-07-09T07:40:00Z</time>
      </trkpt>
      <trkpt lat="47.31175" lon="-1.5429">
        <ele>55</ele>
        <time>2022-07-09T07:40:02Z</time>
      </trkpt>
      <trkpt lat="47.31188" lon="-1.54295">
        <ele>56</ele>
        <time>2022-07-09T07:40:04Z</time>
      </trkpt>
      <trkpt lat="47.312" lon="-1.543">
        <ele>56</ele>
        <time>2022-07-09T07:40:06Z</time>
      </trkpt>
      <trkpt lat="47.31209" lon="-1.54311">
        <ele>56</ele>
        <time>2022-07-09T07:40:08Z</time>
      </trkpt>
      <trkpt lat="47.31218" lon="-1.54321">
        <ele>57</ele>
        <time>2022-07-09T07:40:10Z</time>
      </trkpt>
      <trkpt lat="47.3123" lon="-1.54326">
        <ele>57</ele>
        <time>2022-07-09T07:40:12Z</time>
      </trkpt>
      <trkpt lat="47.31241" lon="-1.5432">
        <ele>57</ele>
        <time>2022-07-09T07:40:14Z</time>
      </trkpt>
      <trkpt lat="47.3125" lon="-1.54307">
        <ele>57</ele>
        <time>2022-07-09T07:40:16Z</time>
      </trkpt>
      <trkpt lat="47.31262" lon="-1.54301">
        <ele>55</ele>
        <time>2022-07-09T07:40:18Z</time>
      </trkpt>
      <trkpt lat="47.31275" lon="-1.543">
        <ele>56</ele>
        <time>2022-07-09T07:40:20Z</time>
      </trkpt>
      <trkpt lat="47.31288" lon="-1.543">
        <ele>55</ele>
        <time>2022-07-09T07:40:22Z</time>
      </trkpt>
      <trkpt lat="47.31301" lon="-1.54301">
        <ele>55</ele>
        <time>2022-07-09T07:40:24Z</time>
      </trkpt>
      <trkpt lat="47.31314" lon="-1.54302">
        <ele>55</ele>
        <time>2022-07-09T07:40:26Z</time>
      </trkpt>
      <trkpt lat="47.31327" lon="-1.54303">
        <ele>55</ele>
        <time>2022-07-09T07:40:28Z</time>
      </trkpt>
      <trkpt lat="47.31339" lon="-1.54305">
        <ele>56</ele>
        <time>2022-07-09T07:40:30Z</time>
      </trkpt>
      <trkpt lat="47.3135" lon="-1.54311">
        <ele>56</ele>
        <time>2022-07-09T07:40:32Z</time>
      </trkpt>
      <trkpt lat="47.31361" lon="-1.54313">
        <ele>56</ele>
        <time>2022-07-09T07:40:34Z</time>
      </trkpt>
      <trkpt lat="47.31373" lon="-1.54314">
        <ele>57</ele>
        <time>2022-07-09T07:40:36Z</time>
      </trkpt>
      <trkpt lat="47.31386" lon="-1.54315">
        <ele>58</ele>
        <time>2022-07-09T07:40:38Z</time>
      </trkpt>
      <trkpt lat="47.31398" lon="-1.54315">
        <ele>58</ele>
        <time>2022-07-09T07:40:40Z</time>
      </trkpt>
      <trkpt lat="47.31411" lon="-1.54316">
        <ele>59</ele>
        <time>2022-07-09T07:40:42Z</time>
      </trkpt>
      <trkpt lat="47.31424" lon="-1.54318">
        <ele>59</ele>
        <time>2022-07-09T07:40:44Z</time>
      </trkpt>
      <trkpt lat="47.31436" lon="-1.54321">
        <ele>59</ele>
        <time>2022-07-09T07:40:46Z</time>
      </trkpt>
      <trkpt lat="47.31448" lon="-1.54326">
        <ele>60</ele>
        <time>2022-07-09T07:40:48Z</time>
      </trkpt>
      <trkpt lat="47.31459" lon="-1.54328">
        <ele>61</ele>
        <time>2022-07-09T07:40:50Z</time>
      </trkpt>
      <trkpt lat="47.31472" lon="-1.54329">
        <ele>61</ele>
        <time>2022-07-09T07:40:52Z</time>
      </trkpt>
      <trkpt lat="47.31486" lon="-1.5433">
        <ele>61</ele>
        <time>2022-07-09T07:40:54Z</time>
      </trkpt>
      <trkpt lat="47.31498" lon="-1.54332">
        <ele>61</ele>
        <time>2022-07-09T07:40:56Z</time>
      </trkpt>
      <trkpt lat="47.3151" lon="-1.54325">
        <ele>60</ele>
        <time>2022-07-09T07:40:58Z</time>
      </trkpt>
      <trkpt lat="47.31523" lon="-1.54322">
        <ele>61</ele>
        <time>2022-07-09T07:41:00Z</time>
      </trkpt>
      <trkpt lat="47.31536" lon="-1.54321">
        <ele>60</ele>
        <time>2022-07-09T07:41:02Z</time>
      </trkpt>
      <trkpt lat="47.31549" lon="-1.54322">
        <ele>59</ele>
        <time>2022-07-09T07:41:04Z</time>
      </trkpt>
      <trkpt lat="47.31562" lon="-1.54323">
        <ele>59</ele>
        <time>2022-07-09T07:41:06Z</time>
      </trkpt>
      <trkpt lat="47.31574" lon="-1.54324">
        <ele>58</ele>
        <time>2022-07-09T07:41:08Z</time>
      </trkpt>
      <trkpt lat="47.31586" lon="-1.54324">
        <ele>58</ele>
        <time>2022-07-09T07:41:10Z</time>
      </trkpt>
      <trkpt lat="47.31597" lon="-1.54323">
        <ele>59</ele>
        <time>2022-07-09T07:41:12Z</time>
      </trkpt>
      <trkpt lat="47.31606" lon="-1.54324">
        <ele>60</ele>
        <time>2022-07-09T07:41:14Z</time>
      </trkpt>
      <trkpt lat="47.31615" lon="-1.54319">
        <ele>59</ele>
        <time>2022-07-09T07:41:16Z</time>
      </trkpt>
      <trkpt lat="47.31624" lon="-1.54314">
        <ele>59</ele>
        <time>2022-07-09T07:41:18Z</time>
      </trkpt>
      <trkpt lat="47.31632" lon="-1.54306">
        <ele>59</ele>
        <time>2022-07-09T07:41:20Z</time>
      </trkpt>
      <trkpt lat="47.31639" lon="-1.54293">
        <ele>58</ele>
        <time>2022-07-09T07:41:22Z</time>
      </trkpt>
      <trkpt lat="47.3165" lon="-1.54285">
        <ele>58</ele>
        <time>2022-07-09T07:41:24Z</time>
      </trkpt>
      <trkpt lat="47.3166" lon="-1.54278">
        <ele>58</ele>
        <time>2022-07-09T07:41:26Z</time>
      </trkpt>
      <trkpt lat="47.3167" lon="-1.54271">
        <ele>58</ele>
        <time>2022-07-09T07:41:28Z</time>
      </trkpt>
      <trkpt lat="47.3168" lon="-1.54264">
        <ele>58</ele>
        <time>2022-07-09T07:41:30Z</time>
      </trkpt>
      <trkpt lat="47.31691" lon="-1.54256">
        <ele>58</ele>
        <time>2022-07-09T07:41:32Z</time>
      </trkpt>
      <trkpt lat="47.317" lon="-1.54247">
        <ele>58</ele>
        <time>2022-07-09T07:41:34Z</time>
      </trkpt>
      <trkpt lat="47.3171" lon="-1.54239">
        <ele>57</ele>
        <time>2022-07-09T07:41:36Z</time>
      </trkpt>
      <trkpt lat="47.31719" lon="-1.54229">
        <ele>57</ele>
        <time>2022-07-09T07:41:38Z</time>
      </trkpt>
      <trkpt lat="47.31728" lon="-1.54219">
        <ele>57</ele>
        <time>2022-07-09T07:41:40Z</time>
      </trkpt>
      <trkpt lat="47.31737" lon="-1.54209">
        <ele>56</ele>
        <time>2022-07-09T07:41:42Z</time>
      </trkpt>
      <trkpt lat="47.31746" lon="-1.54199">
        <ele>56</ele>
        <time>2022-07-09T07:41:44Z</time>
      </trkpt>
      <trkpt lat="47.31756" lon="-1.54191">
        <ele>56</ele>
        <time>2022-07-09T07:41:46Z</time>
      </trkpt>
      <trkpt lat="47.31764" lon="-1.54179">
        <ele>56</ele>
        <time>2022-07-09T07:41:48Z</time>
      </trkpt>
      <trkpt lat="47.31771" lon="-1.54167">
        <ele>56</ele>
        <time>2022-07-09T07:41:50Z</time>
      </trkpt>
      <trkpt lat="47.31778" lon="-1.54155">
        <ele>56</ele>
        <time>2022-07-09T07:41:52Z</time>
      </trkpt>
      <trkpt lat="47.31785" lon="-1.54143">
        <ele>55</ele>
        <time>2022-07-09T07:41:54Z</time>
      </trkpt>
      <trkpt lat="47.31793" lon="-1.5413">
        <ele>54</ele>
        <time>2022-07-09T07:41:56Z</time>
      </trkpt>
      <trkpt lat="47.318" lon="-1.54117">
        <ele>54</ele>
        <time>2022-07-09T07:41:58Z</time>
      </trkpt>
      <trkpt lat="47.31807" lon="-1.54104">
        <ele>54</ele>
        <time>2022-07-09T07:42:00Z</time>
      </trkpt>
      <trkpt lat="47.31815" lon="-1.54092">
        <ele>53</ele>
        <time>2022-07-09T07:42:02Z</time>
      </trkpt>
      <trkpt lat="47.31822" lon="-1.54078">
        <ele>53</ele>
        <time>2022-07-09T07:42:04Z</time>
      </trkpt>
      <trkpt lat="47.31828" lon="-1.54064">
        <ele>52</ele>
        <time>2022-07-09T07:42:06Z</time>
      </trkpt>
      <trkpt lat="47.31835" lon="-1.54051">
        <ele>52</ele>
        <time>2022-07-09T07:42:08Z</time>
      </trkpt>
      <trkpt lat="47.31842" lon="-1.54038">
        <ele>52</ele>
        <time>2022-07-09T07:42:10Z</time>
      </trkpt>
      <trkpt lat="47.31848" lon="-1.54025">
        <ele>52</ele>
        <time>2022-07-09T07:42:12Z</time>
      </trkpt>
      <trkpt lat="47.31854" lon="-1.54012">
        <ele>52</ele>
        <time>2022-07-09T07:42:14Z</time>
      </trkpt>
      <trkpt lat="47.31861" lon="-1.53999">
        <ele>52</ele>
        <time>2022-07-09T07:42:16Z</time>
      </trkpt>
      <trkpt lat="47.31867" lon="-1.53985">
        <ele>53</ele>
        <time>2022-07-09T07:42:18Z</time>
      </trkpt>
      <trkpt lat="47.31874" lon="-1.53971">
        <ele>53</ele>
        <time>2022-07-09T07:42:20Z</time>
      </trkpt>
      <trkpt lat="47.31881" lon="-1.53957">
        <ele>54</ele>
        <time>2022-07-09T07:42:22Z</time>
      </trkpt>
      <trkpt lat="47.31887" lon="-1.53944">
        <ele>54</ele>
        <time>2022-07-09T07:42:24Z</time>
      </trkpt>
      <trkpt lat="47.31894" lon="-1.5393">
        <ele>54</ele>
        <time>2022-07-09T07:42:26Z</time>
      </trkpt>
      <trkpt lat="47.319" lon="-1.53918">
        <ele>55</ele>
        <time>2022-07-09T07:42:28Z</time>
      </trkpt>
      <trkpt lat="47.31907" lon="-1.53905">
        <ele>55</ele>
        <time>2022-07-09T07:42:30Z</time>
      </trkpt>
      <trkpt lat="47.31913" lon="-1.53891">
        <ele>56</ele>
        <time>2022-07-09T07:42:32Z</time>
      </trkpt>
      <trkpt lat="47.3192" lon="-1.53878">
        <ele>56</ele>
        <time>2022-07-09T07:42:34Z</time>
      </trkpt>
      <trkpt lat="47.31927" lon="-1.53865">
        <ele>56</ele>
        <time>2022-07-09T07:42:36Z</time>
      </trkpt>
      <trkpt lat="47.31934" lon="-1.53851">
        <ele>56</ele>
        <time>2022-07-09T07:42:38Z</time>
      </trkpt>
      <trkpt lat="47.31942" lon="-1.53838">
        <ele>56</ele>
        <time>2022-07-09T07:42:40Z</time>
      </trkpt>
      <trkpt lat="47.31949" lon="-1.53824">
        <ele>56</ele>
        <time>2022-07-09T07:42:42Z</time>
      </trkpt>
      <trkpt lat="47.31955" lon="-1.5381">
        <ele>56</ele>
        <time>2022-07-09T07:42:44Z</time>
      </trkpt>
      <trkpt lat="47.31961" lon="-1.53795">
        <ele>56</ele>
        <time>2022-07-09T07:42:46Z</time>
      </trkpt>
      <trkpt lat="47.31967" lon="-1.53781">
        <ele>57</ele>
        <time>2022-07-09T07:42:48Z</time>
      </trkpt>
      <trkpt lat="47.31975" lon="-1.5377">
        <ele>57</ele>
        <time>2022-07-09T07:42:50Z</time>
      </trkpt>
      <trkpt lat="47.31986" lon="-1.53762">
        <ele>56</ele>
        <time>2022-07-09T07:42:52Z</time>
      </trkpt>
      <trkpt lat="47.31995" lon="-1.53752">
        <ele>57</ele>
        <time>2022-07-09T07:42:54Z</time>
      </trkpt>
      <trkpt lat="47.32001" lon="-1.5374">
        <ele>58</ele>
        <time>2022-07-09T07:42:56Z</time>
      </trkpt>
      <trkpt lat="47.32011" lon="-1.5373">
        <ele>58</ele>
        <time>2022-07-09T07:42:58Z</time>
      </trkpt>
      <trkpt lat="47.32022" lon="-1.53722">
        <ele>58</ele>
        <time>2022-07-09T07:43:00Z</time>
      </trkpt>
      <trkpt lat="47.32032" lon="-1.53715">
        <ele>58</ele>
        <time>2022-07-09T07:43:02Z</time>
      </trkpt>
      <trkpt lat="47.32042" lon="-1.53706">
        <ele>58</ele>
        <time>2022-07-09T07:43:04Z</time>
      </trkpt>
      <trkpt lat="47.32051" lon="-1.53695">
        <ele>59</ele>
        <time>2022-07-09T07:43:06Z</time>
      </trkpt>
      <trkpt lat="47.32058" lon="-1.53682">
        <ele>59</ele>
        <time>2022-07-09T07:43:08Z</time>
      </trkpt>
      <trkpt lat="47.32063" lon="-1.53668">
        <ele>59</ele>
        <time>2022-07-09T07:43:10Z</time>
      </trkpt>
      <trkpt lat="47.32066" lon="-1.53652">
        <ele>60</ele>
        <time>2022-07-09T07:43:12Z</time>
      </trkpt>
      <trkpt lat="47.32067" lon="-1.53637">
        <ele>61</ele>
        <time>2022-07-09T07:43:14Z</time>
      </trkpt>
      <trkpt lat="47.32072" lon="-1.53621">
        <ele>60</ele>
        <time>2022-07-09T07:43:16Z</time>
      </trkpt>
      <trkpt lat="47.3208" lon="-1.53609">
        <ele>60</ele>
        <time>2022-07-09T07:43:18Z</time>
      </trkpt>
      <trkpt lat="47.3209" lon="-1.536">
        <ele>61</ele>
        <time>2022-07-09T07:43:20Z</time>
      </trkpt>
      <trkpt lat="47.321" lon="-1.53592">
        <ele>60</ele>
        <time>2022-07-09T07:43:22Z</time>
      </trkpt>
      <trkpt lat="47.32111" lon="-1.53586">
        <ele>60</ele>
        <time>2022-07-09T07:43:24Z</time>
      </trkpt>
      <trkpt lat="47.32121" lon="-1.53583">
        <ele>61</ele>
        <time>2022-07-09T07:43:26Z</time>
      </trkpt>
      <trkpt lat="47.32131" lon="-1.5358">
        <ele>61</ele>
        <time>2022-07-09T07:43:28Z</time>
      </trkpt>
      <trkpt lat="47.32142" lon="-1.5358">
        <ele>62</ele>
        <time>2022-07-09T07:43:30Z</time>
      </trkpt>
      <trkpt lat="47.32153" lon="-1.53579">
        <ele>63</ele>
        <time>2022-07-09T07:43:32Z</time>
      </trkpt>
      <trkpt lat="47.32165" lon="-1.53579">
        <ele>63</ele>
        <time>2022-07-09T07:43:34Z</time>
      </trkpt>
      <trkpt lat="47.32176" lon="-1.53579">
        <ele>63</ele>
        <time>2022-07-09T07:43:36Z</time>
      </trkpt>
      <trkpt lat="47.32188" lon="-1.53579">
        <ele>63</ele>
        <time>2022-07-09T07:43:38Z</time>
      </trkpt>
      <trkpt lat="47.32199" lon="-1.53579">
        <ele>64</ele>
        <time>2022-07-09T07:43:40Z</time>
      </trkpt>
      <trkpt lat="47.3221" lon="-1.53577">
        <ele>64</ele>
        <time>2022-07-09T07:43:42Z</time>
      </trkpt>
      <trkpt lat="47.32221" lon="-1.53578">
        <ele>64</ele>
        <time>2022-07-09T07:43:44Z</time>
      </trkpt>
      <trkpt lat="47.32232" lon="-1.53578">
        <ele>65</ele>
        <time>2022-07-09T07:43:46Z</time>
      </trkpt>
      <trkpt lat="47.32242" lon="-1.53573">
        <ele>65</ele>
        <time>2022-07-09T07:43:48Z</time>
      </trkpt>
      <trkpt lat="47.32249" lon="-1.53558">
        <ele>64</ele>
        <time>2022-07-09T07:43:50Z</time>
      </trkpt>
      <trkpt lat="47.3225" lon="-1.5354">
        <ele>63</ele>
        <time>2022-07-09T07:43:52Z</time>
      </trkpt>
      <trkpt lat="47.32244" lon="-1.53515">
        <ele>63</ele>
        <time>2022-07-09T07:43:56Z</time>
      </trkpt>
      <trkpt lat="47.3225" lon="-1.53504">
        <ele>63</ele>
        <time>2022-07-09T07:43:58Z</time>
      </trkpt>
      <trkpt lat="47.32262" lon="-1.53507">
        <ele>63</ele>
        <time>2022-07-09T07:44:01Z</time>
      </trkpt>
      <trkpt lat="47.32271" lon="-1.53513">
        <ele>64</ele>
        <time>2022-07-09T07:44:03Z</time>
      </trkpt>
      <trkpt lat="47.32281" lon="-1.5352">
        <ele>65</ele>
        <time>2022-07-09T07:44:05Z</time>
      </trkpt>
      <trkpt lat="47.32291" lon="-1.53525">
        <ele>65</ele>
        <time>2022-07-09T07:44:07Z</time>
      </trkpt>
      <trkpt lat="47.323" lon="-1.53531">
        <ele>66</ele>
        <time>2022-07-09T07:44:09Z</time>
      </trkpt>
      <trkpt lat="47.32309" lon="-1.53536">
        <ele>67</ele>
        <time>2022-07-09T07:44:11Z</time>
      </trkpt>
      <trkpt lat="47.32322" lon="-1.53541">
        <ele>68</ele>
        <time>2022-07-09T07:44:14Z</time>
      </trkpt>
      <trkpt lat="47.32331" lon="-1.53547">
        <ele>69</ele>
        <time>2022-07-09T07:44:17Z</time>
      </trkpt>
      <trkpt lat="47.3234" lon="-1.53551">
        <ele>69</ele>
        <time>2022-07-09T07:44:19Z</time>
      </trkpt>
      <trkpt lat="47.32348" lon="-1.53555">
        <ele>70</ele>
        <time>2022-07-09T07:44:21Z</time>
      </trkpt>
      <trkpt lat="47.32361" lon="-1.53562">
        <ele>72</ele>
        <time>2022-07-09T07:44:24Z</time>
      </trkpt>
      <trkpt lat="47.32374" lon="-1.53568">
        <ele>73</ele>
        <time>2022-07-09T07:44:27Z</time>
      </trkpt>
      <trkpt lat="47.32383" lon="-1.53573">
        <ele>73</ele>
        <time>2022-07-09T07:44:29Z</time>
      </trkpt>
      <trkpt lat="47.32391" lon="-1.53577">
        <ele>73</ele>
        <time>2022-07-09T07:44:31Z</time>
      </trkpt>
      <trkpt lat="47.32404" lon="-1.53583">
        <ele>74</ele>
        <time>2022-07-09T07:44:34Z</time>
      </trkpt>
      <trkpt lat="47.32412" lon="-1.53587">
        <ele>74</ele>
        <time>2022-07-09T07:44:36Z</time>
      </trkpt>
      <trkpt lat="47.32425" lon="-1.53593">
        <ele>74</ele>
        <time>2022-07-09T07:44:39Z</time>
      </trkpt>
      <trkpt lat="47.32437" lon="-1.53599">
        <ele>74</ele>
        <time>2022-07-09T07:44:42Z</time>
      </trkpt>
      <trkpt lat="47.3245" lon="-1.53605">
        <ele>74</ele>
        <time>2022-07-09T07:44:45Z</time>
      </trkpt>
      <trkpt lat="47.32459" lon="-1.53609">
        <ele>75</ele>
        <time>2022-07-09T07:44:47Z</time>
      </trkpt>
      <trkpt lat="47.32467" lon="-1.53613">
        <ele>75</ele>
        <time>2022-07-09T07:44:49Z</time>
      </trkpt>
      <trkpt lat="47.3248" lon="-1.5362">
        <ele>75</ele>
        <time>2022-07-09T07:44:52Z</time>
      </trkpt>
      <trkpt lat="47.32489" lon="-1.53624">
        <ele>75</ele>
        <time>2022-07-09T07:44:54Z</time>
      </trkpt>
      <trkpt lat="47.32501" lon="-1.53629">
        <ele>75</ele>
        <time>2022-07-09T07:44:57Z</time>
      </trkpt>
      <trkpt lat="47.3251" lon="-1.53634">
        <ele>76</ele>
        <time>2022-07-09T07:44:59Z</time>
      </trkpt>
      <trkpt lat="47.32523" lon="-1.5364">
        <ele>76</ele>
        <time>2022-07-09T07:45:02Z</time>
      </trkpt>
      <trkpt lat="47.32531" lon="-1.53645">
        <ele>76</ele>
        <time>2022-07-09T07:45:04Z</time>
      </trkpt>
      <trkpt lat="47.3254" lon="-1.53649">
        <ele>75</ele>
        <time>2022-07-09T07:45:06Z</time>
      </trkpt>
      <trkpt lat="47.32549" lon="-1.53653">
        <ele>76</ele>
        <time>2022-07-09T07:45:08Z</time>
      </trkpt>
      <trkpt lat="47.32559" lon="-1.53657">
        <ele>75</ele>
        <time>2022-07-09T07:45:10Z</time>
      </trkpt>
      <trkpt lat="47.32568" lon="-1.53662">
        <ele>75</ele>
        <time>2022-07-09T07:45:12Z</time>
      </trkpt>
      <trkpt lat="47.32577" lon="-1.53666">
        <ele>75</ele>
        <time>2022-07-09T07:45:14Z</time>
      </trkpt>
      <trkpt lat="47.32587" lon="-1.5367">
        <ele>75</ele>
        <time>2022-07-09T07:45:16Z</time>
      </trkpt>
      <trkpt lat="47.32597" lon="-1.53674">
        <ele>74</ele>
        <time>2022-07-09T07:45:18Z</time>
      </trkpt>
      <trkpt lat="47.32606" lon="-1.53677">
        <ele>74</ele>
        <time>2022-07-09T07:45:20Z</time>
      </trkpt>
      <trkpt lat="47.32616" lon="-1.53682">
        <ele>73</ele>
        <time>2022-07-09T07:45:22Z</time>
      </trkpt>
      <trkpt lat="47.32626" lon="-1.53685">
        <ele>73</ele>
        <time>2022-07-09T07:45:24Z</time>
      </trkpt>
      <trkpt lat="47.32636" lon="-1.53688">
        <ele>73</ele>
        <time>2022-07-09T07:45:26Z</time>
      </trkpt>
      <trkpt lat="47.32646" lon="-1.53691">
        <ele>72</ele>
        <time>2022-07-09T07:45:28Z</time>
      </trkpt>
      <trkpt lat="47.32657" lon="-1.53692">
        <ele>72</ele>
        <time>2022-07-09T07:45:30Z</time>
      </trkpt>
      <trkpt lat="47.32667" lon="-1.53693">
        <ele>72</ele>
        <time>2022-07-09T07:45:32Z</time>
      </trkpt>
      <trkpt lat="47.32678" lon="-1.53691">
        <ele>72</ele>
        <time>2022-07-09T07:45:34Z</time>
      </trkpt>
      <trkpt lat="47.3269" lon="-1.53693">
        <ele>71</ele>
        <time>2022-07-09T07:45:36Z</time>
      </trkpt>
      <trkpt lat="47.32703" lon="-1.53694">
        <ele>70</ele>
        <time>2022-07-09T07:45:38Z</time>
      </trkpt>
      <trkpt lat="47.32716" lon="-1.53696">
        <ele>69</ele>
        <time>2022-07-09T07:45:40Z</time>
      </trkpt>
      <trkpt lat="47.32729" lon="-1.53695">
        <ele>69</ele>
        <time>2022-07-09T07:45:42Z</time>
      </trkpt>
      <trkpt lat="47.32743" lon="-1.53692">
        <ele>68</ele>
        <time>2022-07-09T07:45:44Z</time>
      </trkpt>
      <trkpt lat="47.32757" lon="-1.53687">
        <ele>68</ele>
        <time>2022-07-09T07:45:46Z</time>
      </trkpt>
      <trkpt lat="47.32771" lon="-1.53683">
        <ele>67</ele>
        <time>2022-07-09T07:45:48Z</time>
      </trkpt>
      <trkpt lat="47.32786" lon="-1.53681">
        <ele>66</ele>
        <time>2022-07-09T07:45:50Z</time>
      </trkpt>
      <trkpt lat="47.32801" lon="-1.5368">
        <ele>65</ele>
        <time>2022-07-09T07:45:52Z</time>
      </trkpt>
      <trkpt lat="47.32816" lon="-1.53678">
        <ele>65</ele>
        <time>2022-07-09T07:45:54Z</time>
      </trkpt>
      <trkpt lat="47.32831" lon="-1.53676">
        <ele>65</ele>
        <time>2022-07-09T07:45:56Z</time>
      </trkpt>
      <trkpt lat="47.32846" lon="-1.53673">
        <ele>64</ele>
        <time>2022-07-09T07:45:58Z</time>
      </trkpt>
      <trkpt lat="47.32858" lon="-1.53676">
        <ele>64</ele>
        <time>2022-07-09T07:46:00Z</time>
      </trkpt>
      <trkpt lat="47.32868" lon="-1.53681">
        <ele>65</ele>
        <time>2022-07-09T07:46:02Z</time>
      </trkpt>
      <trkpt lat="47.3288" lon="-1.5368">
        <ele>65</ele>
        <time>2022-07-09T07:46:04Z</time>
      </trkpt>
      <trkpt lat="47.32893" lon="-1.53677">
        <ele>65</ele>
        <time>2022-07-09T07:46:06Z</time>
      </trkpt>
      <trkpt lat="47.32907" lon="-1.53674">
        <ele>64</ele>
        <time>2022-07-09T07:46:08Z</time>
      </trkpt>
      <trkpt lat="47.3292" lon="-1.53671">
        <ele>64</ele>
        <time>2022-07-09T07:46:10Z</time>
      </trkpt>
      <trkpt lat="47.32934" lon="-1.53667">
        <ele>63</ele>
        <time>2022-07-09T07:46:12Z</time>
      </trkpt>
      <trkpt lat="47.32948" lon="-1.53662">
        <ele>63</ele>
        <time>2022-07-09T07:46:14Z</time>
      </trkpt>
      <trkpt lat="47.32963" lon="-1.53657">
        <ele>63</ele>
        <time>2022-07-09T07:46:16Z</time>
      </trkpt>
      <trkpt lat="47.32977" lon="-1.53652">
        <ele>63</ele>
        <time>2022-07-09T07:46:18Z</time>
      </trkpt>
      <trkpt lat="47.32991" lon="-1.53647">
        <ele>62</ele>
        <time>2022-07-09T07:46:20Z</time>
      </trkpt>
      <trkpt lat="47.33004" lon="-1.53641">
        <ele>62</ele>
        <time>2022-07-09T07:46:22Z</time>
      </trkpt>
      <trkpt lat="47.33018" lon="-1.53637">
        <ele>62</ele>
        <time>2022-07-09T07:46:24Z</time>
      </trkpt>
      <trkpt lat="47.33031" lon="-1.53632">
        <ele>62</ele>
        <time>2022-07-09T07:46:26Z</time>
      </trkpt>
      <trkpt lat="47.33043" lon="-1.53629">
        <ele>62</ele>
        <time>2022-07-09T07:46:28Z</time>
      </trkpt>
      <trkpt lat="47.33055" lon="-1.53623">
        <ele>62</ele>
        <time>2022-07-09T07:46:30Z</time>
      </trkpt>
      <trkpt lat="47.33066" lon="-1.53619">
        <ele>63</ele>
        <time>2022-07-09T07:46:32Z</time>
      </trkpt>
      <trkpt lat="47.33076" lon="-1.53616">
        <ele>63</ele>
        <time>2022-07-09T07:46:34Z</time>
      </trkpt>
      <trkpt lat="47.33086" lon="-1.53613">
        <ele>64</ele>
        <time>2022-07-09T07:46:36Z</time>
      </trkpt>
      <trkpt lat="47.33096" lon="-1.53609">
        <ele>64</ele>
        <time>2022-07-09T07:46:38Z</time>
      </trkpt>
      <trkpt lat="47.33105" lon="-1.53605">
        <ele>65</ele>
        <time>2022-07-09T07:46:40Z</time>
      </trkpt>
      <trkpt lat="47.33115" lon="-1.53601">
        <ele>66</ele>
        <time>2022-07-09T07:46:42Z</time>
      </trkpt>
      <trkpt lat="47.33126" lon="-1.53598">
        <ele>66</ele>
        <time>2022-07-09T07:46:44Z</time>
      </trkpt>
      <trkpt lat="47.33135" lon="-1.53596">
        <ele>67</ele>
        <time>2022-07-09T07:46:46Z</time>
      </trkpt>
      <trkpt lat="47.33146" lon="-1.53594">
        <ele>67</ele>
        <time>2022-07-09T07:46:48Z</time>
      </trkpt>
      <trkpt lat="47.33156" lon="-1.5359">
        <ele>67</ele>
        <time>2022-07-09T07:46:50Z</time>
      </trkpt>
      <trkpt lat="47.33166" lon="-1.53586">
        <ele>68</ele>
        <time>2022-07-09T07:46:52Z</time>
      </trkpt>
      <trkpt lat="47.33176" lon="-1.53583">
        <ele>68</ele>
        <time>2022-07-09T07:46:54Z</time>
      </trkpt>
      <trkpt lat="47.33185" lon="-1.5358">
        <ele>69</ele>
        <time>2022-07-09T07:46:56Z</time>
      </trkpt>
      <trkpt lat="47.33195" lon="-1.53577">
        <ele>69</ele>
        <time>2022-07-09T07:46:58Z</time>
      </trkpt>
      <trkpt lat="47.33205" lon="-1.53573">
        <ele>69</ele>
        <time>2022-07-09T07:47:00Z</time>
      </trkpt>
      <trkpt lat="47.33215" lon="-1.53569">
        <ele>70</ele>
        <time>2022-07-09T07:47:02Z</time>
      </trkpt>
      <trkpt lat="47.33224" lon="-1.53565">
        <ele>70</ele>
        <time>2022-07-09T07:47:04Z</time>
      </trkpt>
      <trkpt lat="47.33233" lon="-1.53562">
        <ele>70</ele>
        <time>2022-07-09T07:47:06Z</time>
      </trkpt>
      <trkpt lat="47.33243" lon="-1.53559">
        <ele>70</ele>
        <time>2022-07-09T07:47:08Z</time>
      </trkpt>
      <trkpt lat="47.33255" lon="-1.53551">
        <ele>70</ele>
        <time>2022-07-09T07:47:11Z</time>
      </trkpt>
      <trkpt lat="47.33264" lon="-1.53543">
        <ele>70</ele>
        <time>2022-07-09T07:47:14Z</time>
      </trkpt>
      <trkpt lat="47.33275" lon="-1.5354">
        <ele>71</ele>
        <time>2022-07-09T07:47:17Z</time>
      </trkpt>
      <trkpt lat="47.33287" lon="-1.53535">
        <ele>72</ele>
        <time>2022-07-09T07:47:20Z</time>
      </trkpt>
      <trkpt lat="47.33296" lon="-1.53531">
        <ele>72</ele>
        <time>2022-07-09T07:47:22Z</time>
      </trkpt>
      <trkpt lat="47.33305" lon="-1.53528">
        <ele>72</ele>
        <time>2022-07-09T07:47:24Z</time>
      </trkpt>
      <trkpt lat="47.33315" lon="-1.53525">
        <ele>72</ele>
        <time>2022-07-09T07:47:26Z</time>
      </trkpt>
      <trkpt lat="47.33324" lon="-1.53521">
        <ele>72</ele>
        <time>2022-07-09T07:47:28Z</time>
      </trkpt>
      <trkpt lat="47.33334" lon="-1.53517">
        <ele>71</ele>
        <time>2022-07-09T07:47:30Z</time>
      </trkpt>
      <trkpt lat="47.33344" lon="-1.53512">
        <ele>71</ele>
        <time>2022-07-09T07:47:32Z</time>
      </trkpt>
      <trkpt lat="47.33354" lon="-1.53509">
        <ele>71</ele>
        <time>2022-07-09T07:47:34Z</time>
      </trkpt>
      <trkpt lat="47.33365" lon="-1.53505">
        <ele>70</ele>
        <time>2022-07-09T07:47:36Z</time>
      </trkpt>
      <trkpt lat="47.33375" lon="-1.53501">
        <ele>70</ele>
        <time>2022-07-09T07:47:38Z</time>
      </trkpt>
      <trkpt lat="47.33386" lon="-1.53498">
        <ele>70</ele>
        <time>2022-07-09T07:47:40Z</time>
      </trkpt>
      <trkpt lat="47.33397" lon="-1.53497">
        <ele>69</ele>
        <time>2022-07-09T07:47:42Z</time>
      </trkpt>
      <trkpt lat="47.33408" lon="-1.53495">
        <ele>69</ele>
        <time>2022-07-09T07:47:44Z</time>
      </trkpt>
      <trkpt lat="47.33419" lon="-1.53492">
        <ele>69</ele>
        <time>2022-07-09T07:47:46Z</time>
      </trkpt>
      <trkpt lat="47.33431" lon="-1.53489">
        <ele>69</ele>
        <time>2022-07-09T07:47:48Z</time>
      </trkpt>
      <trkpt lat="47.33445" lon="-1.53487">
        <ele>69</ele>
        <time>2022-07-09T07:47:50Z</time>
      </trkpt>
      <trkpt lat="47.33458" lon="-1.53484">
        <ele>68</ele>
        <time>2022-07-09T07:47:52Z</time>
      </trkpt>
      <trkpt lat="47.33472" lon="-1.53482">
        <ele>68</ele>
        <time>2022-07-09T07:47:54Z</time>
      </trkpt>
      <trkpt lat="47.33484" lon="-1.5348">
        <ele>68</ele>
        <time>2022-07-09T07:47:56Z</time>
      </trkpt>
      <trkpt lat="47.33495" lon="-1.53475">
        <ele>67</ele>
        <time>2022-07-09T07:47:58Z</time>
      </trkpt>
      <trkpt lat="47.33505" lon="-1.53475">
        <ele>66</ele>
        <time>2022-07-09T07:48:00Z</time>
      </trkpt>
      <trkpt lat="47.33516" lon="-1.53477">
        <ele>67</ele>
        <time>2022-07-09T07:48:02Z</time>
      </trkpt>
      <trkpt lat="47.33529" lon="-1.53477">
        <ele>67</ele>
        <time>2022-07-09T07:48:04Z</time>
      </trkpt>
      <trkpt lat="47.33541" lon="-1.53478">
        <ele>67</ele>
        <time>2022-07-09T07:48:06Z</time>
      </trkpt>
      <trkpt lat="47.33554" lon="-1.53478">
        <ele>67</ele>
        <time>2022-07-09T07:48:08Z</time>
      </trkpt>
      <trkpt lat="47.33567" lon="-1.5348">
        <ele>66</ele>
        <time>2022-07-09T07:48:10Z</time>
      </trkpt>
      <trkpt lat="47.3358" lon="-1.5348">
        <ele>65</ele>
        <time>2022-07-09T07:48:12Z</time>
      </trkpt>
      <trkpt lat="47.33594" lon="-1.53481">
        <ele>64</ele>
        <time>2022-07-09T07:48:14Z</time>
      </trkpt>
      <trkpt lat="47.33608" lon="-1.53481">
        <ele>64</ele>
        <time>2022-07-09T07:48:16Z</time>
      </trkpt>
      <trkpt lat="47.33621" lon="-1.53482">
        <ele>63</ele>
        <time>2022-07-09T07:48:18Z</time>
      </trkpt>
      <trkpt lat="47.33636" lon="-1.53481">
        <ele>63</ele>
        <time>2022-07-09T07:48:20Z</time>
      </trkpt>
      <trkpt lat="47.3365" lon="-1.53479">
        <ele>62</ele>
        <time>2022-07-09T07:48:22Z</time>
      </trkpt>
      <trkpt lat="47.33663" lon="-1.53477">
        <ele>62</ele>
        <time>2022-07-09T07:48:24Z</time>
      </trkpt>
      <trkpt lat="47.33676" lon="-1.53473">
        <ele>61</ele>
        <time>2022-07-09T07:48:26Z</time>
      </trkpt>
      <trkpt lat="47.3369" lon="-1.53468">
        <ele>60</ele>
        <time>2022-07-09T07:48:28Z</time>
      </trkpt>
      <trkpt lat="47.33703" lon="-1.53461">
        <ele>60</ele>
        <time>2022-07-09T07:48:30Z</time>
      </trkpt>
      <trkpt lat="47.33715" lon="-1.53453">
        <ele>60</ele>
        <time>2022-07-09T07:48:32Z</time>
      </trkpt>
      <trkpt lat="47.33726" lon="-1.53444">
        <ele>61</ele>
        <time>2022-07-09T07:48:34Z</time>
      </trkpt>
      <trkpt lat="47.33736" lon="-1.53436">
        <ele>61</ele>
        <time>2022-07-09T07:48:36Z</time>
      </trkpt>
      <trkpt lat="47.33751" lon="-1.53423">
        <ele>60</ele>
        <time>2022-07-09T07:48:39Z</time>
      </trkpt>
      <trkpt lat="47.33762" lon="-1.53414">
        <ele>60</ele>
        <time>2022-07-09T07:48:41Z</time>
      </trkpt>
      <trkpt lat="47.33776" lon="-1.534">
        <ele>61</ele>
        <time>2022-07-09T07:48:44Z</time>
      </trkpt>
      <trkpt lat="47.33791" lon="-1.53388">
        <ele>61</ele>
        <time>2022-07-09T07:48:47Z</time>
      </trkpt>
      <trkpt lat="47.338" lon="-1.53379">
        <ele>61</ele>
        <time>2022-07-09T07:48:49Z</time>
      </trkpt>
      <trkpt lat="47.3381" lon="-1.53371">
        <ele>61</ele>
        <time>2022-07-09T07:48:51Z</time>
      </trkpt>
      <trkpt lat="47.33825" lon="-1.53357">
        <ele>61</ele>
        <time>2022-07-09T07:48:54Z</time>
      </trkpt>
      <trkpt lat="47.33834" lon="-1.53347">
        <ele>60</ele>
        <time>2022-07-09T07:48:56Z</time>
      </trkpt>
      <trkpt lat="47.33848" lon="-1.53331">
        <ele>61</ele>
        <time>2022-07-09T07:48:59Z</time>
      </trkpt>
      <trkpt lat="47.33857" lon="-1.53319">
        <ele>62</ele>
        <time>2022-07-09T07:49:01Z</time>
      </trkpt>
      <trkpt lat="47.3387" lon="-1.53302">
        <ele>62</ele>
        <time>2022-07-09T07:49:04Z</time>
      </trkpt>
      <trkpt lat="47.33879" lon="-1.53292">
        <ele>61</ele>
        <time>2022-07-09T07:49:06Z</time>
      </trkpt>
      <trkpt lat="47.33887" lon="-1.53281">
        <ele>62</ele>
        <time>2022-07-09T07:49:08Z</time>
      </trkpt>
      <trkpt lat="47.33896" lon="-1.5327">
        <ele>62</ele>
        <time>2022-07-09T07:49:10Z</time>
      </trkpt>
      <trkpt lat="47.33905" lon="-1.53258">
        <ele>61</ele>
        <time>2022-07-09T07:49:12Z</time>
      </trkpt>
      <trkpt lat="47.33914" lon="-1.53247">
        <ele>62</ele>
        <time>2022-07-09T07:49:14Z</time>
      </trkpt>
      <trkpt lat="47.33923" lon="-1.53235">
        <ele>62</ele>
        <time>2022-07-09T07:49:16Z</time>
      </trkpt>
      <trkpt lat="47.33933" lon="-1.53223">
        <ele>61</ele>
        <time>2022-07-09T07:49:18Z</time>
      </trkpt>
      <trkpt lat="47.33942" lon="-1.5321">
        <ele>61</ele>
        <time>2022-07-09T07:49:20Z</time>
      </trkpt>
      <trkpt lat="47.33952" lon="-1.53198">
        <ele>61</ele>
        <time>2022-07-09T07:49:22Z</time>
      </trkpt>
      <trkpt lat="47.33961" lon="-1.53186">
        <ele>60</ele>
        <time>2022-07-09T07:49:24Z</time>
      </trkpt>
      <trkpt lat="47.33969" lon="-1.53172">
        <ele>60</ele>
        <time>2022-07-09T07:49:26Z</time>
      </trkpt>
      <trkpt lat="47.33975" lon="-1.53157">
        <ele>59</ele>
        <time>2022-07-09T07:49:28Z</time>
      </trkpt>
      <trkpt lat="47.3398" lon="-1.5314">
        <ele>59</ele>
        <time>2022-07-09T07:49:30Z</time>
      </trkpt>
      <trkpt lat="47.33983" lon="-1.53122">
        <ele>59</ele>
        <time>2022-07-09T07:49:32Z</time>
      </trkpt>
      <trkpt lat="47.33985" lon="-1.53102">
        <ele>58</ele>
        <time>2022-07-09T07:49:34Z</time>
      </trkpt>
      <trkpt lat="47.33987" lon="-1.53082">
        <ele>57</ele>
        <time>2022-07-09T07:49:36Z</time>
      </trkpt>
      <trkpt lat="47.3399" lon="-1.53064">
        <ele>57</ele>
        <time>2022-07-09T07:49:38Z</time>
      </trkpt>
      <trkpt lat="47.33993" lon="-1.53045">
        <ele>57</ele>
        <time>2022-07-09T07:49:40Z</time>
      </trkpt>
      <trkpt lat="47.33995" lon="-1.53025">
        <ele>57</ele>
        <time>2022-07-09T07:49:42Z</time>
      </trkpt>
      <trkpt lat="47.33997" lon="-1.53006">
        <ele>57</ele>
        <time>2022-07-09T07:49:44Z</time>
      </trkpt>
      <trkpt lat="47.33998" lon="-1.52987">
        <ele>57</ele>
        <time>2022-07-09T07:49:46Z</time>
      </trkpt>
      <trkpt lat="47.34" lon="-1.5297">
        <ele>57</ele>
        <time>2022-07-09T07:49:48Z</time>
      </trkpt>
      <trkpt lat="47.34002" lon="-1.52953">
        <ele>57</ele>
        <time>2022-07-09T07:49:50Z</time>
      </trkpt>
      <trkpt lat="47.34004" lon="-1.52937">
        <ele>58</ele>
        <time>2022-07-09T07:49:52Z</time>
      </trkpt>
      <trkpt lat="47.34006" lon="-1.52922">
        <ele>58</ele>
        <time>2022-07-09T07:49:54Z</time>
      </trkpt>
      <trkpt lat="47.34008" lon="-1.52907">
        <ele>58</ele>
        <time>2022-07-09T07:49:56Z</time>
      </trkpt>
      <trkpt lat="47.34009" lon="-1.52892">
        <ele>58</ele>
        <time>2022-07-09T07:49:58Z</time>
      </trkpt>
      <trkpt lat="47.3401" lon="-1.52877">
        <ele>58</ele>
        <time>2022-07-09T07:50:00Z</time>
      </trkpt>
      <trkpt lat="47.34012" lon="-1.52862">
        <ele>58</ele>
        <time>2022-07-09T07:50:02Z</time>
      </trkpt>
      <trkpt lat="47.34014" lon="-1.52848">
        <ele>57</ele>
        <time>2022-07-09T07:50:04Z</time>
      </trkpt>
      <trkpt lat="47.34016" lon="-1.52833">
        <ele>57</ele>
        <time>2022-07-09T07:50:06Z</time>
      </trkpt>
      <trkpt lat="47.34019" lon="-1.52818">
        <ele>57</ele>
        <time>2022-07-09T07:50:08Z</time>
      </trkpt>
      <trkpt lat="47.34022" lon="-1.52803">
        <ele>56</ele>
        <time>2022-07-09T07:50:10Z</time>
      </trkpt>
      <trkpt lat="47.34028" lon="-1.5279">
        <ele>56</ele>
        <time>2022-07-09T07:50:12Z</time>
      </trkpt>
      <trkpt lat="47.34033" lon="-1.52774">
        <ele>57</ele>
        <time>2022-07-09T07:50:14Z</time>
      </trkpt>
      <trkpt lat="47.34037" lon="-1.5276">
        <ele>58</ele>
        <time>2022-07-09T07:50:16Z</time>
      </trkpt>
      <trkpt lat="47.3404" lon="-1.52746">
        <ele>57</ele>
        <time>2022-07-09T07:50:18Z</time>
      </trkpt>
      <trkpt lat="47.34042" lon="-1.52733">
        <ele>57</ele>
        <time>2022-07-09T07:50:20Z</time>
      </trkpt>
      <trkpt lat="47.34045" lon="-1.52716">
        <ele>57</ele>
        <time>2022-07-09T07:50:23Z</time>
      </trkpt>
      <trkpt lat="47.34049" lon="-1.52698">
        <ele>57</ele>
        <time>2022-07-09T07:50:26Z</time>
      </trkpt>
      <trkpt lat="47.34053" lon="-1.5268">
        <ele>58</ele>
        <time>2022-07-09T07:50:29Z</time>
      </trkpt>
      <trkpt lat="47.34057" lon="-1.52664">
        <ele>59</ele>
        <time>2022-07-09T07:50:32Z</time>
      </trkpt>
      <trkpt lat="47.34058" lon="-1.52649">
        <ele>59</ele>
        <time>2022-07-09T07:50:35Z</time>
      </trkpt>
      <trkpt lat="47.34064" lon="-1.52638">
        <ele>60</ele>
        <time>2022-07-09T07:50:38Z</time>
      </trkpt>
      <trkpt lat="47.34074" lon="-1.52627">
        <ele>61</ele>
        <time>2022-07-09T07:50:41Z</time>
      </trkpt>
      <trkpt lat="47.34086" lon="-1.52621">
        <ele>63</ele>
        <time>2022-07-09T07:50:44Z</time>
      </trkpt>
      <trkpt lat="47.34098" lon="-1.52619">
        <ele>65</ele>
        <time>2022-07-09T07:50:47Z</time>
      </trkpt>
      <trkpt lat="47.34111" lon="-1.5262">
        <ele>67</ele>
        <time>2022-07-09T07:50:50Z</time>
      </trkpt>
      <trkpt lat="47.34124" lon="-1.52619">
        <ele>67</ele>
        <time>2022-07-09T07:50:53Z</time>
      </trkpt>
      <trkpt lat="47.34135" lon="-1.52621">
        <ele>68</ele>
        <time>2022-07-09T07:50:56Z</time>
      </trkpt>
      <trkpt lat="47.34147" lon="-1.52625">
        <ele>68</ele>
        <time>2022-07-09T07:50:59Z</time>
      </trkpt>
      <trkpt lat="47.34158" lon="-1.52632">
        <ele>69</ele>
        <time>2022-07-09T07:51:02Z</time>
      </trkpt>
      <trkpt lat="47.34169" lon="-1.5264">
        <ele>70</ele>
        <time>2022-07-09T07:51:05Z</time>
      </trkpt>
      <trkpt lat="47.34181" lon="-1.52646">
        <ele>71</ele>
        <time>2022-07-09T07:51:08Z</time>
      </trkpt>
      <trkpt lat="47.34192" lon="-1.52653">
        <ele>72</ele>
        <time>2022-07-09T07:51:11Z</time>
      </trkpt>
      <trkpt lat="47.34204" lon="-1.5266">
        <ele>73</ele>
        <time>2022-07-09T07:51:14Z</time>
      </trkpt>
      <trkpt lat="47.34216" lon="-1.52664">
        <ele>73</ele>
        <time>2022-07-09T07:51:17Z</time>
      </trkpt>
      <trkpt lat="47.34228" lon="-1.52668">
        <ele>73</ele>
        <time>2022-07-09T07:51:20Z</time>
      </trkpt>
      <trkpt lat="47.34241" lon="-1.52672">
        <ele>74</ele>
        <time>2022-07-09T07:51:23Z</time>
      </trkpt>
      <trkpt lat="47.34251" lon="-1.52676">
        <ele>73</ele>
        <time>2022-07-09T07:51:25Z</time>
      </trkpt>
      <trkpt lat="47.34259" lon="-1.52684">
        <ele>74</ele>
        <time>2022-07-09T07:51:27Z</time>
      </trkpt>
      <trkpt lat="47.34268" lon="-1.52694">
        <ele>73</ele>
        <time>2022-07-09T07:51:29Z</time>
      </trkpt>
      <trkpt lat="47.34277" lon="-1.52704">
        <ele>73</ele>
        <time>2022-07-09T07:51:31Z</time>
      </trkpt>
      <trkpt lat="47.34288" lon="-1.52715">
        <ele>72</ele>
        <time>2022-07-09T07:51:33Z</time>
      </trkpt>
      <trkpt lat="47.34298" lon="-1.52726">
        <ele>71</ele>
        <time>2022-07-09T07:51:35Z</time>
      </trkpt>
      <trkpt lat="47.34309" lon="-1.52737">
        <ele>71</ele>
        <time>2022-07-09T07:51:37Z</time>
      </trkpt>
      <trkpt lat="47.34319" lon="-1.52748">
        <ele>70</ele>
        <time>2022-07-09T07:51:39Z</time>
      </trkpt>
      <trkpt lat="47.34329" lon="-1.52759">
        <ele>70</ele>
        <time>2022-07-09T07:51:41Z</time>
      </trkpt>
      <trkpt lat="47.3434" lon="-1.52769">
        <ele>70</ele>
        <time>2022-07-09T07:51:43Z</time>
      </trkpt>
      <trkpt lat="47.3435" lon="-1.52779">
        <ele>70</ele>
        <time>2022-07-09T07:51:45Z</time>
      </trkpt>
      <trkpt lat="47.34361" lon="-1.52789">
        <ele>70</ele>
        <time>2022-07-09T07:51:47Z</time>
      </trkpt>
      <trkpt lat="47.34372" lon="-1.52798">
        <ele>70</ele>
        <time>2022-07-09T07:51:49Z</time>
      </trkpt>
      <trkpt lat="47.34384" lon="-1.52808">
        <ele>71</ele>
        <time>2022-07-09T07:51:51Z</time>
      </trkpt>
      <trkpt lat="47.34395" lon="-1.52817">
        <ele>71</ele>
        <time>2022-07-09T07:51:53Z</time>
      </trkpt>
      <trkpt lat="47.34403" lon="-1.52827">
        <ele>71</ele>
        <time>2022-07-09T07:51:55Z</time>
      </trkpt>
      <trkpt lat="47.34411" lon="-1.52834">
        <ele>71</ele>
        <time>2022-07-09T07:51:57Z</time>
      </trkpt>
      <trkpt lat="47.34421" lon="-1.52841">
        <ele>71</ele>
        <time>2022-07-09T07:51:59Z</time>
      </trkpt>
      <trkpt lat="47.34432" lon="-1.52848">
        <ele>72</ele>
        <time>2022-07-09T07:52:01Z</time>
      </trkpt>
      <trkpt lat="47.34443" lon="-1.52855">
        <ele>72</ele>
        <time>2022-07-09T07:52:03Z</time>
      </trkpt>
      <trkpt lat="47.34452" lon="-1.52865">
        <ele>73</ele>
        <time>2022-07-09T07:52:05Z</time>
      </trkpt>
      <trkpt lat="47.34462" lon="-1.52874">
        <ele>73</ele>
        <time>2022-07-09T07:52:07Z</time>
      </trkpt>
      <trkpt lat="47.34471" lon="-1.52884">
        <ele>73</ele>
        <time>2022-07-09T07:52:09Z</time>
      </trkpt>
      <trkpt lat="47.3448" lon="-1.52894">
        <ele>73</ele>
        <time>2022-07-09T07:52:11Z</time>
      </trkpt>
      <trkpt lat="47.34488" lon="-1.52905">
        <ele>73</ele>
        <time>2022-07-09T07:52:13Z</time>
      </trkpt>
      <trkpt lat="47.34496" lon="-1.52918">
        <ele>73</ele>
        <time>2022-07-09T07:52:15Z</time>
      </trkpt>
      <trkpt lat="47.34503" lon="-1.5293">
        <ele>74</ele>
        <time>2022-07-09T07:52:17Z</time>
      </trkpt>
      <trkpt lat="47.34511" lon="-1.52941">
        <ele>74</ele>
        <time>2022-07-09T07:52:19Z</time>
      </trkpt>
      <trkpt lat="47.34517" lon="-1.52952">
        <ele>74</ele>
        <time>2022-07-09T07:52:21Z</time>
      </trkpt>
      <trkpt lat="47.34524" lon="-1.52961">
        <ele>74</ele>
        <time>2022-07-09T07:52:23Z</time>
      </trkpt>
      <trkpt lat="47.34533" lon="-1.52966">
        <ele>74</ele>
        <time>2022-07-09T07:52:25Z</time>
      </trkpt>
      <trkpt lat="47.34543" lon="-1.5297">
        <ele>74</ele>
        <time>2022-07-09T07:52:27Z</time>
      </trkpt>
      <trkpt lat="47.34552" lon="-1.52979">
        <ele>75</ele>
        <time>2022-07-09T07:52:29Z</time>
      </trkpt>
      <trkpt lat="47.3456" lon="-1.52988">
        <ele>75</ele>
        <time>2022-07-09T07:52:31Z</time>
      </trkpt>
      <trkpt lat="47.34569" lon="-1.52995">
        <ele>76</ele>
        <time>2022-07-09T07:52:33Z</time>
      </trkpt>
      <trkpt lat="47.34578" lon="-1.53003">
        <ele>76</ele>
        <time>2022-07-09T07:52:35Z</time>
      </trkpt>
      <trkpt lat="47.34587" lon="-1.5301">
        <ele>77</ele>
        <time>2022-07-09T07:52:37Z</time>
      </trkpt>
      <trkpt lat="47.34597" lon="-1.53017">
        <ele>78</ele>
        <time>2022-07-09T07:52:39Z</time>
      </trkpt>
      <trkpt lat="47.34606" lon="-1.53024">
        <ele>78</ele>
        <time>2022-07-09T07:52:41Z</time>
      </trkpt>
      <trkpt lat="47.34616" lon="-1.5303">
        <ele>79</ele>
        <time>2022-07-09T07:52:43Z</time>
      </trkpt>
      <trkpt lat="47.34625" lon="-1.53036">
        <ele>79</ele>
        <time>2022-07-09T07:52:45Z</time>
      </trkpt>
      <trkpt lat="47.34634" lon="-1.53041">
        <ele>79</ele>
        <time>2022-07-09T07:52:47Z</time>
      </trkpt>
      <trkpt lat="47.34644" lon="-1.53047">
        <ele>80</ele>
        <time>2022-07-09T07:52:49Z</time>
      </trkpt>
      <trkpt lat="47.34654" lon="-1.53052">
        <ele>80</ele>
        <time>2022-07-09T07:52:51Z</time>
      </trkpt>
      <trkpt lat="47.34664" lon="-1.53056">
        <ele>80</ele>
        <time>2022-07-09T07:52:53Z</time>
      </trkpt>
      <trkpt lat="47.34674" lon="-1.5306">
        <ele>81</ele>
        <time>2022-07-09T07:52:55Z</time>
      </trkpt>
      <trkpt lat="47.34683" lon="-1.53062">
        <ele>81</ele>
        <time>2022-07-09T07:52:57Z</time>
      </trkpt>
      <trkpt lat="47.34693" lon="-1.53065">
        <ele>82</ele>
        <time>2022-07-09T07:52:59Z</time>
      </trkpt>
      <trkpt lat="47.34703" lon="-1.53067">
        <ele>82</ele>
        <time>2022-07-09T07:53:01Z</time>
      </trkpt>
      <trkpt lat="47.34713" lon="-1.53069">
        <ele>82</ele>
        <time>2022-07-09T07:53:03Z</time>
      </trkpt>
      <trkpt lat="47.34723" lon="-1.53071">
        <ele>82</ele>
        <time>2022-07-09T07:53:05Z</time>
      </trkpt>
      <trkpt lat="47.34734" lon="-1.53072">
        <ele>82</ele>
        <time>2022-07-09T07:53:07Z</time>
      </trkpt>
      <trkpt lat="47.34745" lon="-1.53072">
        <ele>82</ele>
        <time>2022-07-09T07:53:09Z</time>
      </trkpt>
      <trkpt lat="47.34757" lon="-1.53071">
        <ele>81</ele>
        <time>2022-07-09T07:53:11Z</time>
      </trkpt>
      <trkpt lat="47.34769" lon="-1.53069">
        <ele>81</ele>
        <time>2022-07-09T07:53:13Z</time>
      </trkpt>
      <trkpt lat="47.34781" lon="-1.53068">
        <ele>81</ele>
        <time>2022-07-09T07:53:15Z</time>
      </trkpt>
      <trkpt lat="47.34795" lon="-1.53065">
        <ele>79</ele>
        <time>2022-07-09T07:53:17Z</time>
      </trkpt>
      <trkpt lat="47.34809" lon="-1.53062">
        <ele>78</ele>
        <time>2022-07-09T07:53:19Z</time>
      </trkpt>
      <trkpt lat="47.34823" lon="-1.5306">
        <ele>77</ele>
        <time>2022-07-09T07:53:21Z</time>
      </trkpt>
      <trkpt lat="47.34836" lon="-1.53058">
        <ele>77</ele>
        <time>2022-07-09T07:53:23Z</time>
      </trkpt>
      <trkpt lat="47.3485" lon="-1.53057">
        <ele>76</ele>
        <time>2022-07-09T07:53:25Z</time>
      </trkpt>
      <trkpt lat="47.34864" lon="-1.53059">
        <ele>75</ele>
        <time>2022-07-09T07:53:27Z</time>
      </trkpt>
      <trkpt lat="47.34877" lon="-1.53061">
        <ele>74</ele>
        <time>2022-07-09T07:53:29Z</time>
      </trkpt>
      <trkpt lat="47.3489" lon="-1.53063">
        <ele>74</ele>
        <time>2022-07-09T07:53:31Z</time>
      </trkpt>
      <trkpt lat="47.34903" lon="-1.53066">
        <ele>74</ele>
        <time>2022-07-09T07:53:33Z</time>
      </trkpt>
      <trkpt lat="47.34915" lon="-1.53069">
        <ele>74</ele>
        <time>2022-07-09T07:53:35Z</time>
      </trkpt>
      <trkpt lat="47.34927" lon="-1.53072">
        <ele>75</ele>
        <time>2022-07-09T07:53:37Z</time>
      </trkpt>
      <trkpt lat="47.3494" lon="-1.53074">
        <ele>74</ele>
        <time>2022-07-09T07:53:39Z</time>
      </trkpt>
      <trkpt lat="47.34952" lon="-1.53077">
        <ele>74</ele>
        <time>2022-07-09T07:53:41Z</time>
      </trkpt>
      <trkpt lat="47.34966" lon="-1.53078">
        <ele>74</ele>
        <time>2022-07-09T07:53:43Z</time>
      </trkpt>
      <trkpt lat="47.34979" lon="-1.53079">
        <ele>73</ele>
        <time>2022-07-09T07:53:45Z</time>
      </trkpt>
      <trkpt lat="47.34993" lon="-1.5308">
        <ele>73</ele>
        <time>2022-07-09T07:53:47Z</time>
      </trkpt>
      <trkpt lat="47.35007" lon="-1.53081">
        <ele>73</ele>
        <time>2022-07-09T07:53:49Z</time>
      </trkpt>
      <trkpt lat="47.35021" lon="-1.53082">
        <ele>72</ele>
        <time>2022-07-09T07:53:51Z</time>
      </trkpt>
      <trkpt lat="47.35034" lon="-1.53083">
        <ele>72</ele>
        <time>2022-07-09T07:53:53Z</time>
      </trkpt>
      <trkpt lat="47.35047" lon="-1.53083">
        <ele>71</ele>
        <time>2022-07-09T07:53:55Z</time>
      </trkpt>
      <trkpt lat="47.35061" lon="-1.53084">
        <ele>71</ele>
        <time>2022-07-09T07:53:57Z</time>
      </trkpt>
      <trkpt lat="47.35075" lon="-1.53084">
        <ele>71</ele>
        <time>2022-07-09T07:53:59Z</time>
      </trkpt>
      <trkpt lat="47.35088" lon="-1.53086">
        <ele>70</ele>
        <time>2022-07-09T07:54:01Z</time>
      </trkpt>
      <trkpt lat="47.35102" lon="-1.53087">
        <ele>70</ele>
        <time>2022-07-09T07:54:03Z</time>
      </trkpt>
      <trkpt lat="47.35116" lon="-1.53088">
        <ele>69</ele>
        <time>2022-07-09T07:54:05Z</time>
      </trkpt>
      <trkpt lat="47.3513" lon="-1.53089">
        <ele>69</ele>
        <time>2022-07-09T07:54:07Z</time>
      </trkpt>
      <trkpt lat="47.35144" lon="-1.5309">
        <ele>69</ele>
        <time>2022-07-09T07:54:09Z</time>
      </trkpt>
      <trkpt lat="47.35157" lon="-1.5309">
        <ele>69</ele>
        <time>2022-07-09T07:54:11Z</time>
      </trkpt>
      <trkpt lat="47.35171" lon="-1.5309">
        <ele>70</ele>
        <time>2022-07-09T07:54:13Z</time>
      </trkpt>
      <trkpt lat="47.35184" lon="-1.53089">
        <ele>70</ele>
        <time>2022-07-09T07:54:15Z</time>
      </trkpt>
      <trkpt lat="47.35197" lon="-1.53088">
        <ele>70</ele>
        <time>2022-07-09T07:54:17Z</time>
      </trkpt>
      <trkpt lat="47.3521" lon="-1.53085">
        <ele>70</ele>
        <time>2022-07-09T07:54:19Z</time>
      </trkpt>
      <trkpt lat="47.35222" lon="-1.53083">
        <ele>70</ele>
        <time>2022-07-09T07:54:21Z</time>
      </trkpt>
      <trkpt lat="47.35236" lon="-1.5308">
        <ele>70</ele>
        <time>2022-07-09T07:54:23Z</time>
      </trkpt>
      <trkpt lat="47.35249" lon="-1.53077">
        <ele>70</ele>
        <time>2022-07-09T07:54:25Z</time>
      </trkpt>
      <trkpt lat="47.35262" lon="-1.53075">
        <ele>69</ele>
        <time>2022-07-09T07:54:27Z</time>
      </trkpt>
      <trkpt lat="47.35274" lon="-1.53073">
        <ele>69</ele>
        <time>2022-07-09T07:54:29Z</time>
      </trkpt>
      <trkpt lat="47.35287" lon="-1.5307">
        <ele>69</ele>
        <time>2022-07-09T07:54:31Z</time>
      </trkpt>
      <trkpt lat="47.353" lon="-1.53068">
        <ele>69</ele>
        <time>2022-07-09T07:54:33Z</time>
      </trkpt>
      <trkpt lat="47.35312" lon="-1.53064">
        <ele>69</ele>
        <time>2022-07-09T07:54:35Z</time>
      </trkpt>
      <trkpt lat="47.35325" lon="-1.53062">
        <ele>69</ele>
        <time>2022-07-09T07:54:37Z</time>
      </trkpt>
      <trkpt lat="47.35338" lon="-1.53058">
        <ele>69</ele>
        <time>2022-07-09T07:54:39Z</time>
      </trkpt>
      <trkpt lat="47.35351" lon="-1.53056">
        <ele>69</ele>
        <time>2022-07-09T07:54:41Z</time>
      </trkpt>
      <trkpt lat="47.35363" lon="-1.53053">
        <ele>69</ele>
        <time>2022-07-09T07:54:43Z</time>
      </trkpt>
      <trkpt lat="47.35376" lon="-1.53051">
        <ele>68</ele>
        <time>2022-07-09T07:54:45Z</time>
      </trkpt>
      <trkpt lat="47.35388" lon="-1.53048">
        <ele>68</ele>
        <time>2022-07-09T07:54:47Z</time>
      </trkpt>
      <trkpt lat="47.35401" lon="-1.53045">
        <ele>68</ele>
        <time>2022-07-09T07:54:49Z</time>
      </trkpt>
      <trkpt lat="47.35413" lon="-1.53042">
        <ele>68</ele>
        <time>2022-07-09T07:54:51Z</time>
      </trkpt>
      <trkpt lat="47.35426" lon="-1.53041">
        <ele>69</ele>
        <time>2022-07-09T07:54:53Z</time>
      </trkpt>
      <trkpt lat="47.3544" lon="-1.5304">
        <ele>69</ele>
        <time>2022-07-09T07:54:55Z</time>
      </trkpt>
      <trkpt lat="47.35453" lon="-1.53038">
        <ele>69</ele>
        <time>2022-07-09T07:54:57Z</time>
      </trkpt>
      <trkpt lat="47.35466" lon="-1.53035">
        <ele>69</ele>
        <time>2022-07-09T07:54:59Z</time>
      </trkpt>
      <trkpt lat="47.35478" lon="-1.53032">
        <ele>70</ele>
        <time>2022-07-09T07:55:01Z</time>
      </trkpt>
      <trkpt lat="47.35489" lon="-1.53029">
        <ele>70</ele>
        <time>2022-07-09T07:55:03Z</time>
      </trkpt>
      <trkpt lat="47.35501" lon="-1.53026">
        <ele>70</ele>
        <time>2022-07-09T07:55:05Z</time>
      </trkpt>
      <trkpt lat="47.35513" lon="-1.53024">
        <ele>70</ele>
        <time>2022-07-09T07:55:07Z</time>
      </trkpt>
      <trkpt lat="47.35524" lon="-1.53021">
        <ele>70</ele>
        <time>2022-07-09T07:55:09Z</time>
      </trkpt>
      <trkpt lat="47.35535" lon="-1.53018">
        <ele>70</ele>
        <time>2022-07-09T07:55:11Z</time>
      </trkpt>
      <trkpt lat="47.35545" lon="-1.53015">
        <ele>70</ele>
        <time>2022-07-09T07:55:13Z</time>
      </trkpt>
      <trkpt lat="47.35556" lon="-1.53012">
        <ele>70</ele>
        <time>2022-07-09T07:55:15Z</time>
      </trkpt>
      <trkpt lat="47.35566" lon="-1.5301">
        <ele>71</ele>
        <time>2022-07-09T07:55:17Z</time>
      </trkpt>
      <trkpt lat="47.35576" lon="-1.53007">
        <ele>71</ele>
        <time>2022-07-09T07:55:19Z</time>
      </trkpt>
      <trkpt lat="47.35587" lon="-1.53004">
        <ele>72</ele>
        <time>2022-07-09T07:55:21Z</time>
      </trkpt>
      <trkpt lat="47.35598" lon="-1.53001">
        <ele>72</ele>
        <time>2022-07-09T07:55:23Z</time>
      </trkpt>
      <trkpt lat="47.35609" lon="-1.52997">
        <ele>72</ele>
        <time>2022-07-09T07:55:25Z</time>
      </trkpt>
      <trkpt lat="47.3562" lon="-1.52994">
        <ele>72</ele>
        <time>2022-07-09T07:55:27Z</time>
      </trkpt>
      <trkpt lat="47.3563" lon="-1.52991">
        <ele>72</ele>
        <time>2022-07-09T07:55:29Z</time>
      </trkpt>
      <trkpt lat="47.3564" lon="-1.52988">
        <ele>73</ele>
        <time>2022-07-09T07:55:31Z</time>
      </trkpt>
      <trkpt lat="47.35651" lon="-1.52984">
        <ele>73</ele>
        <time>2022-07-09T07:55:33Z</time>
      </trkpt>
      <trkpt lat="47.35662" lon="-1.52981">
        <ele>73</ele>
        <time>2022-07-09T07:55:35Z</time>
      </trkpt>
      <trkpt lat="47.35673" lon="-1.52978">
        <ele>73</ele>
        <time>2022-07-09T07:55:37Z</time>
      </trkpt>
      <trkpt lat="47.35684" lon="-1.52974">
        <ele>73</ele>
        <time>2022-07-09T07:55:39Z</time>
      </trkpt>
      <trkpt lat="47.35694" lon="-1.52971">
        <ele>73</ele>
        <time>2022-07-09T07:55:41Z</time>
      </trkpt>
      <trkpt lat="47.35705" lon="-1.52967">
        <ele>73</ele>
        <time>2022-07-09T07:55:43Z</time>
      </trkpt>
      <trkpt lat="47.35716" lon="-1.52964">
        <ele>73</ele>
        <time>2022-07-09T07:55:45Z</time>
      </trkpt>
      <trkpt lat="47.35727" lon="-1.5296">
        <ele>73</ele>
        <time>2022-07-09T07:55:47Z</time>
      </trkpt>
      <trkpt lat="47.35737" lon="-1.52956">
        <ele>73</ele>
        <time>2022-07-09T07:55:49Z</time>
      </trkpt>
      <trkpt lat="47.35747" lon="-1.52951">
        <ele>73</ele>
        <time>2022-07-09T07:55:51Z</time>
      </trkpt>
      <trkpt lat="47.35758" lon="-1.52946">
        <ele>73</ele>
        <time>2022-07-09T07:55:53Z</time>
      </trkpt>
      <trkpt lat="47.35768" lon="-1.52941">
        <ele>73</ele>
        <time>2022-07-09T07:55:55Z</time>
      </trkpt>
      <trkpt lat="47.35779" lon="-1.52935">
        <ele>72</ele>
        <time>2022-07-09T07:55:57Z</time>
      </trkpt>
      <trkpt lat="47.35789" lon="-1.52929">
        <ele>72</ele>
        <time>2022-07-09T07:55:59Z</time>
      </trkpt>
      <trkpt lat="47.358" lon="-1.52922">
        <ele>73</ele>
        <time>2022-07-09T07:56:01Z</time>
      </trkpt>
      <trkpt lat="47.3581" lon="-1.52916">
        <ele>73</ele>
        <time>2022-07-09T07:56:03Z</time>
      </trkpt>
      <trkpt lat="47.3582" lon="-1.5291">
        <ele>74</ele>
        <time>2022-07-09T07:56:05Z</time>
      </trkpt>
      <trkpt lat="47.3583" lon="-1.52904">
        <ele>74</ele>
        <time>2022-07-09T07:56:07Z</time>
      </trkpt>
      <trkpt lat="47.3584" lon="-1.52899">
        <ele>74</ele>
        <time>2022-07-09T07:56:09Z</time>
      </trkpt>
      <trkpt lat="47.3585" lon="-1.52893">
        <ele>74</ele>
        <time>2022-07-09T07:56:11Z</time>
      </trkpt>
      <trkpt lat="47.35861" lon="-1.52888">
        <ele>74</ele>
        <time>2022-07-09T07:56:13Z</time>
      </trkpt>
      <trkpt lat="47.35871" lon="-1.52882">
        <ele>74</ele>
        <time>2022-07-09T07:56:15Z</time>
      </trkpt>
      <trkpt lat="47.35882" lon="-1.52876">
        <ele>74</ele>
        <time>2022-07-09T07:56:17Z</time>
      </trkpt>
      <trkpt lat="47.35892" lon="-1.52869">
        <ele>73</ele>
        <time>2022-07-09T07:56:19Z</time>
      </trkpt>
      <trkpt lat="47.35903" lon="-1.52863">
        <ele>73</ele>
        <time>2022-07-09T07:56:21Z</time>
      </trkpt>
      <trkpt lat="47.35914" lon="-1.52856">
        <ele>73</ele>
        <time>2022-07-09T07:56:23Z</time>
      </trkpt>
      <trkpt lat="47.35926" lon="-1.5285">
        <ele>73</ele>
        <time>2022-07-09T07:56:25Z</time>
      </trkpt>
      <trkpt lat="47.35937" lon="-1.52843">
        <ele>73</ele>
        <time>2022-07-09T07:56:27Z</time>
      </trkpt>
      <trkpt lat="47.35949" lon="-1.52837">
        <ele>73</ele>
        <time>2022-07-09T07:56:29Z</time>
      </trkpt>
      <trkpt lat="47.35961" lon="-1.5283">
        <ele>72</ele>
        <time>2022-07-09T07:56:31Z</time>
      </trkpt>
      <trkpt lat="47.35973" lon="-1.52823">
        <ele>72</ele>
        <time>2022-07-09T07:56:33Z</time>
      </trkpt>
      <trkpt lat="47.35985" lon="-1.52816">
        <ele>71</ele>
        <time>2022-07-09T07:56:35Z</time>
      </trkpt>
      <trkpt lat="47.35997" lon="-1.52809">
        <ele>71</ele>
        <time>2022-07-09T07:56:37Z</time>
      </trkpt>
      <trkpt lat="47.3601" lon="-1.52802">
        <ele>71</ele>
        <time>2022-07-09T07:56:39Z</time>
      </trkpt>
      <trkpt lat="47.36024" lon="-1.52794">
        <ele>70</ele>
        <time>2022-07-09T07:56:41Z</time>
      </trkpt>
      <trkpt lat="47.36038" lon="-1.52786">
        <ele>69</ele>
        <time>2022-07-09T07:56:43Z</time>
      </trkpt>
      <trkpt lat="47.36052" lon="-1.52778">
        <ele>68</ele>
        <time>2022-07-09T07:56:45Z</time>
      </trkpt>
      <trkpt lat="47.36066" lon="-1.52771">
        <ele>68</ele>
        <time>2022-07-09T07:56:47Z</time>
      </trkpt>
      <trkpt lat="47.36081" lon="-1.52763">
        <ele>67</ele>
        <time>2022-07-09T07:56:49Z</time>
      </trkpt>
      <trkpt lat="47.36095" lon="-1.52754">
        <ele>66</ele>
        <time>2022-07-09T07:56:51Z</time>
      </trkpt>
      <trkpt lat="47.36109" lon="-1.52746">
        <ele>65</ele>
        <time>2022-07-09T07:56:53Z</time>
      </trkpt>
      <trkpt lat="47.36123" lon="-1.52738">
        <ele>65</ele>
        <time>2022-07-09T07:56:55Z</time>
      </trkpt>
      <trkpt lat="47.36137" lon="-1.5273">
        <ele>64</ele>
        <time>2022-07-09T07:56:57Z</time>
      </trkpt>
      <trkpt lat="47.36152" lon="-1.52722">
        <ele>63</ele>
        <time>2022-07-09T07:56:59Z</time>
      </trkpt>
      <trkpt lat="47.36165" lon="-1.52715">
        <ele>63</ele>
        <time>2022-07-09T07:57:01Z</time>
      </trkpt>
      <trkpt lat="47.36179" lon="-1.5271">
        <ele>64</ele>
        <time>2022-07-09T07:57:03Z</time>
      </trkpt>
      <trkpt lat="47.36194" lon="-1.52704">
        <ele>63</ele>
        <time>2022-07-09T07:57:05Z</time>
      </trkpt>
      <trkpt lat="47.36207" lon="-1.52698">
        <ele>63</ele>
        <time>2022-07-09T07:57:07Z</time>
      </trkpt>
      <trkpt lat="47.3622" lon="-1.52695">
        <ele>63</ele>
        <time>2022-07-09T07:57:09Z</time>
      </trkpt>
      <trkpt lat="47.36235" lon="-1.52692">
        <ele>62</ele>
        <time>2022-07-09T07:57:11Z</time>
      </trkpt>
      <trkpt lat="47.3625" lon="-1.52688">
        <ele>61</ele>
        <time>2022-07-09T07:57:13Z</time>
      </trkpt>
      <trkpt lat="47.36263" lon="-1.52684">
        <ele>61</ele>
        <time>2022-07-09T07:57:15Z</time>
      </trkpt>
      <trkpt lat="47.36278" lon="-1.52681">
        <ele>61</ele>
        <time>2022-07-09T07:57:17Z</time>
      </trkpt>
      <trkpt lat="47.36292" lon="-1.52677">
        <ele>60</ele>
        <time>2022-07-09T07:57:19Z</time>
      </trkpt>
      <trkpt lat="47.36305" lon="-1.52673">
        <ele>60</ele>
        <time>2022-07-09T07:57:21Z</time>
      </trkpt>
      <trkpt lat="47.36319" lon="-1.52669">
        <ele>61</ele>
        <time>2022-07-09T07:57:23Z</time>
      </trkpt>
      <trkpt lat="47.36334" lon="-1.52667">
        <ele>61</ele>
        <time>2022-07-09T07:57:25Z</time>
      </trkpt>
      <trkpt lat="47.36348" lon="-1.52664">
        <ele>61</ele>
        <time>2022-07-09T07:57:27Z</time>
      </trkpt>
      <trkpt lat="47.36363" lon="-1.5266">
        <ele>60</ele>
        <time>2022-07-09T07:57:29Z</time>
      </trkpt>
      <trkpt lat="47.36378" lon="-1.52657">
        <ele>59</ele>
        <time>2022-07-09T07:57:31Z</time>
      </trkpt>
      <trkpt lat="47.36392" lon="-1.52654">
        <ele>58</ele>
        <time>2022-07-09T07:57:33Z</time>
      </trkpt>
      <trkpt lat="47.36406" lon="-1.52651">
        <ele>58</ele>
        <time>2022-07-09T07:57:35Z</time>
      </trkpt>
      <trkpt lat="47.3642" lon="-1.52647">
        <ele>57</ele>
        <time>2022-07-09T07:57:37Z</time>
      </trkpt>
      <trkpt lat="47.36435" lon="-1.52644">
        <ele>57</ele>
        <time>2022-07-09T07:57:39Z</time>
      </trkpt>
      <trkpt lat="47.36449" lon="-1.52641">
        <ele>56</ele>
        <time>2022-07-09T07:57:41Z</time>
      </trkpt>
      <trkpt lat="47.36462" lon="-1.52637">
        <ele>56</ele>
        <time>2022-07-09T07:57:43Z</time>
      </trkpt>
      <trkpt lat="47.36476" lon="-1.52634">
        <ele>56</ele>
        <time>2022-07-09T07:57:45Z</time>
      </trkpt>
      <trkpt lat="47.3649" lon="-1.5263">
        <ele>57</ele>
        <time>2022-07-09T07:57:47Z</time>
      </trkpt>
      <trkpt lat="47.36502" lon="-1.52625">
        <ele>56</ele>
        <time>2022-07-09T07:57:49Z</time>
      </trkpt>
      <trkpt lat="47.36514" lon="-1.52619">
        <ele>57</ele>
        <time>2022-07-09T07:57:51Z</time>
      </trkpt>
      <trkpt lat="47.36525" lon="-1.52611">
        <ele>57</ele>
        <time>2022-07-09T07:57:53Z</time>
      </trkpt>
      <trkpt lat="47.36537" lon="-1.52603">
        <ele>57</ele>
        <time>2022-07-09T07:57:55Z</time>
      </trkpt>
      <trkpt lat="47.36547" lon="-1.52592">
        <ele>57</ele>
        <time>2022-07-09T07:57:57Z</time>
      </trkpt>
      <trkpt lat="47.36557" lon="-1.52581">
        <ele>57</ele>
        <time>2022-07-09T07:57:59Z</time>
      </trkpt>
      <trkpt lat="47.36566" lon="-1.52569">
        <ele>58</ele>
        <time>2022-07-09T07:58:01Z</time>
      </trkpt>
      <trkpt lat="47.36575" lon="-1.52556">
        <ele>58</ele>
        <time>2022-07-09T07:58:03Z</time>
      </trkpt>
      <trkpt lat="47.36583" lon="-1.52543">
        <ele>59</ele>
        <time>2022-07-09T07:58:05Z</time>
      </trkpt>
      <trkpt lat="47.36592" lon="-1.52529">
        <ele>58</ele>
        <time>2022-07-09T07:58:07Z</time>
      </trkpt>
      <trkpt lat="47.36601" lon="-1.52516">
        <ele>58</ele>
        <time>2022-07-09T07:58:09Z</time>
      </trkpt>
      <trkpt lat="47.36609" lon="-1.52504">
        <ele>58</ele>
        <time>2022-07-09T07:58:11Z</time>
      </trkpt>
      <trkpt lat="47.36618" lon="-1.52491">
        <ele>58</ele>
        <time>2022-07-09T07:58:13Z</time>
      </trkpt>
      <trkpt lat="47.36626" lon="-1.52479">
        <ele>58</ele>
        <time>2022-07-09T07:58:15Z</time>
      </trkpt>
      <trkpt lat="47.36635" lon="-1.52465">
        <ele>58</ele>
        <time>2022-07-09T07:58:17Z</time>
      </trkpt>
      <trkpt lat="47.36644" lon="-1.52452">
        <ele>58</ele>
        <time>2022-07-09T07:58:19Z</time>
      </trkpt>
      <trkpt lat="47.36653" lon="-1.52439">
        <ele>58</ele>
        <time>2022-07-09T07:58:21Z</time>
      </trkpt>
      <trkpt lat="47.36662" lon="-1.52425">
        <ele>59</ele>
        <time>2022-07-09T07:58:23Z</time>
      </trkpt>
      <trkpt lat="47.3667" lon="-1.52412">
        <ele>59</ele>
        <time>2022-07-09T07:58:25Z</time>
      </trkpt>
      <trkpt lat="47.36678" lon="-1.52399">
        <ele>59</ele>
        <time>2022-07-09T07:58:27Z</time>
      </trkpt>
      <trkpt lat="47.36686" lon="-1.52387">
        <ele>59</ele>
        <time>2022-07-09T07:58:29Z</time>
      </trkpt>
      <trkpt lat="47.36696" lon="-1.52375">
        <ele>59</ele>
        <time>2022-07-09T07:58:31Z</time>
      </trkpt>
      <trkpt lat="47.36705" lon="-1.52363">
        <ele>59</ele>
        <time>2022-07-09T07:58:33Z</time>
      </trkpt>
      <trkpt lat="47.36715" lon="-1.52351">
        <ele>59</ele>
        <time>2022-07-09T07:58:35Z</time>
      </trkpt>
      <trkpt lat="47.36725" lon="-1.52341">
        <ele>59</ele>
        <time>2022-07-09T07:58:37Z</time>
      </trkpt>
      <trkpt lat="47.36736" lon="-1.52331">
        <ele>59</ele>
        <time>2022-07-09T07:58:39Z</time>
      </trkpt>
      <trkpt lat="47.36746" lon="-1.52323">
        <ele>60</ele>
        <time>2022-07-09T07:58:41Z</time>
      </trkpt>
      <trkpt lat="47.36757" lon="-1.52316">
        <ele>60</ele>
        <time>2022-07-09T07:58:43Z</time>
      </trkpt>
      <trkpt lat="47.36768" lon="-1.52309">
        <ele>60</ele>
        <time>2022-07-09T07:58:45Z</time>
      </trkpt>
      <trkpt lat="47.36779" lon="-1.52303">
        <ele>60</ele>
        <time>2022-07-09T07:58:47Z</time>
      </trkpt>
      <trkpt lat="47.3679" lon="-1.52297">
        <ele>60</ele>
        <time>2022-07-09T07:58:49Z</time>
      </trkpt>
      <trkpt lat="47.36801" lon="-1.52291">
        <ele>61</ele>
        <time>2022-07-09T07:58:51Z</time>
      </trkpt>
      <trkpt lat="47.36812" lon="-1.52285">
        <ele>61</ele>
        <time>2022-07-09T07:58:53Z</time>
      </trkpt>
      <trkpt lat="47.36822" lon="-1.5228">
        <ele>62</ele>
        <time>2022-07-09T07:58:55Z</time>
      </trkpt>
      <trkpt lat="47.36833" lon="-1.52274">
        <ele>62</ele>
        <time>2022-07-09T07:58:57Z</time>
      </trkpt>
      <trkpt lat="47.36845" lon="-1.52268">
        <ele>62</ele>
        <time>2022-07-09T07:58:59Z</time>
      </trkpt>
      <trkpt lat="47.36855" lon="-1.52262">
        <ele>63</ele>
        <time>2022-07-09T07:59:01Z</time>
      </trkpt>
      <trkpt lat="47.36866" lon="-1.52255">
        <ele>63</ele>
        <time>2022-07-09T07:59:03Z</time>
      </trkpt>
      <trkpt lat="47.36877" lon="-1.5225">
        <ele>63</ele>
        <time>2022-07-09T07:59:05Z</time>
      </trkpt>
      <trkpt lat="47.36887" lon="-1.52244">
        <ele>63</ele>
        <time>2022-07-09T07:59:07Z</time>
      </trkpt>
      <trkpt lat="47.36898" lon="-1.52238">
        <ele>63</ele>
        <time>2022-07-09T07:59:09Z</time>
      </trkpt>
      <trkpt lat="47.3691" lon="-1.52232">
        <ele>63</ele>
        <time>2022-07-09T07:59:11Z</time>
      </trkpt>
      <trkpt lat="47.36921" lon="-1.52226">
        <ele>62</ele>
        <time>2022-07-09T07:59:13Z</time>
      </trkpt>
      <trkpt lat="47.36932" lon="-1.5222">
        <ele>63</ele>
        <time>2022-07-09T07:59:15Z</time>
      </trkpt>
      <trkpt lat="47.36943" lon="-1.52214">
        <ele>63</ele>
        <time>2022-07-09T07:59:17Z</time>
      </trkpt>
      <trkpt lat="47.36955" lon="-1.52207">
        <ele>63</ele>
        <time>2022-07-09T07:59:19Z</time>
      </trkpt>
      <trkpt lat="47.36966" lon="-1.52201">
        <ele>62</ele>
        <time>2022-07-09T07:59:21Z</time>
      </trkpt>
      <trkpt lat="47.36977" lon="-1.52194">
        <ele>62</ele>
        <time>2022-07-09T07:59:23Z</time>
      </trkpt>
      <trkpt lat="47.36989" lon="-1.52188">
        <ele>62</ele>
        <time>2022-07-09T07:59:25Z</time>
      </trkpt>
      <trkpt lat="47.37001" lon="-1.52182">
        <ele>62</ele>
        <time>2022-07-09T07:59:27Z</time>
      </trkpt>
      <trkpt lat="47.37013" lon="-1.52177">
        <ele>61</ele>
        <time>2022-07-09T07:59:29Z</time>
      </trkpt>
      <trkpt lat="47.37025" lon="-1.52175">
        <ele>62</ele>
        <time>2022-07-09T07:59:31Z</time>
      </trkpt>
      <trkpt lat="47.37038" lon="-1.52174">
        <ele>62</ele>
        <time>2022-07-09T07:59:33Z</time>
      </trkpt>
      <trkpt lat="47.37049" lon="-1.52174">
        <ele>63</ele>
        <time>2022-07-09T07:59:35Z</time>
      </trkpt>
      <trkpt lat="47.37061" lon="-1.52174">
        <ele>63</ele>
        <time>2022-07-09T07:59:37Z</time>
      </trkpt>
      <trkpt lat="47.37074" lon="-1.52177">
        <ele>64</ele>
        <time>2022-07-09T07:59:39Z</time>
      </trkpt>
      <trkpt lat="47.37087" lon="-1.5218">
        <ele>64</ele>
        <time>2022-07-09T07:59:41Z</time>
      </trkpt>
      <trkpt lat="47.371" lon="-1.52182">
        <ele>64</ele>
        <time>2022-07-09T07:59:43Z</time>
      </trkpt>
      <trkpt lat="47.37112" lon="-1.52184">
        <ele>64</ele>
        <time>2022-07-09T07:59:45Z</time>
      </trkpt>
      <trkpt lat="47.37125" lon="-1.52184">
        <ele>65</ele>
        <time>2022-07-09T07:59:47Z</time>
      </trkpt>
      <trkpt lat="47.37138" lon="-1.52184">
        <ele>65</ele>
        <time>2022-07-09T07:59:49Z</time>
      </trkpt>
      <trkpt lat="47.3715" lon="-1.52182">
        <ele>64</ele>
        <time>2022-07-09T07:59:51Z</time>
      </trkpt>
      <trkpt lat="47.37163" lon="-1.5218">
        <ele>64</ele>
        <time>2022-07-09T07:59:53Z</time>
      </trkpt>
      <trkpt lat="47.37176" lon="-1.52177">
        <ele>63</ele>
        <time>2022-07-09T07:59:55Z</time>
      </trkpt>
      <trkpt lat="47.37189" lon="-1.52174">
        <ele>63</ele>
        <time>2022-07-09T07:59:57Z</time>
      </trkpt>
      <trkpt lat="47.37201" lon="-1.52172">
        <ele>63</ele>
        <time>2022-07-09T07:59:59Z</time>
      </trkpt>
      <trkpt lat="47.37213" lon="-1.52169">
        <ele>63</ele>
        <time>2022-07-09T08:00:01Z</time>
      </trkpt>
      <trkpt lat="47.37225" lon="-1.52167">
        <ele>65</ele>
        <time>2022-07-09T08:00:03Z</time>
      </trkpt>
      <trkpt lat="47.37236" lon="-1.52165">
        <ele>67</ele>
        <time>2022-07-09T08:00:05Z</time>
      </trkpt>
      <trkpt lat="47.37248" lon="-1.52162">
        <ele>68</ele>
        <time>2022-07-09T08:00:07Z</time>
      </trkpt>
      <trkpt lat="47.37261" lon="-1.52158">
        <ele>68</ele>
        <time>2022-07-09T08:00:09Z</time>
      </trkpt>
      <trkpt lat="47.37275" lon="-1.52156">
        <ele>68</ele>
        <time>2022-07-09T08:00:11Z</time>
      </trkpt>
      <trkpt lat="47.37288" lon="-1.52153">
        <ele>68</ele>
        <time>2022-07-09T08:00:13Z</time>
      </trkpt>
      <trkpt lat="47.37302" lon="-1.5215">
        <ele>67</ele>
        <time>2022-07-09T08:00:15Z</time>
      </trkpt>
      <trkpt lat="47.37315" lon="-1.52147">
        <ele>67</ele>
        <time>2022-07-09T08:00:17Z</time>
      </trkpt>
      <trkpt lat="47.37328" lon="-1.52144">
        <ele>67</ele>
        <time>2022-07-09T08:00:19Z</time>
      </trkpt>
      <trkpt lat="47.37341" lon="-1.52141">
        <ele>68</ele>
        <time>2022-07-09T08:00:21Z</time>
      </trkpt>
      <trkpt lat="47.37355" lon="-1.52137">
        <ele>68</ele>
        <time>2022-07-09T08:00:23Z</time>
      </trkpt>
      <trkpt lat="47.37369" lon="-1.52134">
        <ele>68</ele>
        <time>2022-07-09T08:00:25Z</time>
      </trkpt>
      <trkpt lat="47.37383" lon="-1.52133">
        <ele>68</ele>
        <time>2022-07-09T08:00:27Z</time>
      </trkpt>
      <trkpt lat="47.37399" lon="-1.5213">
        <ele>67</ele>
        <time>2022-07-09T08:00:29Z</time>
      </trkpt>
      <trkpt lat="47.37413" lon="-1.52126">
        <ele>66</ele>
        <time>2022-07-09T08:00:31Z</time>
      </trkpt>
      <trkpt lat="47.37427" lon="-1.52124">
        <ele>65</ele>
        <time>2022-07-09T08:00:33Z</time>
      </trkpt>
      <trkpt lat="47.37442" lon="-1.52121">
        <ele>63</ele>
        <time>2022-07-09T08:00:35Z</time>
      </trkpt>
      <trkpt lat="47.37456" lon="-1.52119">
        <ele>63</ele>
        <time>2022-07-09T08:00:37Z</time>
      </trkpt>
      <trkpt lat="47.37469" lon="-1.52117">
        <ele>62</ele>
        <time>2022-07-09T08:00:39Z</time>
      </trkpt>
      <trkpt lat="47.37483" lon="-1.52116">
        <ele>62</ele>
        <time>2022-07-09T08:00:41Z</time>
      </trkpt>
      <trkpt lat="47.37497" lon="-1.52114">
        <ele>61</ele>
        <time>2022-07-09T08:00:43Z</time>
      </trkpt>
      <trkpt lat="47.3751" lon="-1.52112">
        <ele>61</ele>
        <time>2022-07-09T08:00:45Z</time>
      </trkpt>
      <trkpt lat="47.37524" lon="-1.52109">
        <ele>61</ele>
        <time>2022-07-09T08:00:47Z</time>
      </trkpt>
      <trkpt lat="47.37537" lon="-1.52107">
        <ele>61</ele>
        <time>2022-07-09T08:00:49Z</time>
      </trkpt>
      <trkpt lat="47.3755" lon="-1.52104">
        <ele>60</ele>
        <time>2022-07-09T08:00:51Z</time>
      </trkpt>
      <trkpt lat="47.37563" lon="-1.52101">
        <ele>59</ele>
        <time>2022-07-09T08:00:53Z</time>
      </trkpt>
      <trkpt lat="47.37576" lon="-1.52098">
        <ele>59</ele>
        <time>2022-07-09T08:00:55Z</time>
      </trkpt>
      <trkpt lat="47.37589" lon="-1.52096">
        <ele>59</ele>
        <time>2022-07-09T08:00:57Z</time>
      </trkpt>
      <trkpt lat="47.37601" lon="-1.52094">
        <ele>59</ele>
        <time>2022-07-09T08:00:59Z</time>
      </trkpt>
      <trkpt lat="47.37614" lon="-1.52092">
        <ele>60</ele>
        <time>2022-07-09T08:01:01Z</time>
      </trkpt>
      <trkpt lat="47.37626" lon="-1.5209">
        <ele>60</ele>
        <time>2022-07-09T08:01:03Z</time>
      </trkpt>
      <trkpt lat="47.37638" lon="-1.52088">
        <ele>60</ele>
        <time>2022-07-09T08:01:05Z</time>
      </trkpt>
      <trkpt lat="47.3765" lon="-1.52085">
        <ele>60</ele>
        <time>2022-07-09T08:01:07Z</time>
      </trkpt>
      <trkpt lat="47.37663" lon="-1.52083">
        <ele>61</ele>
        <time>2022-07-09T08:01:09Z</time>
      </trkpt>
      <trkpt lat="47.37675" lon="-1.5208">
        <ele>61</ele>
        <time>2022-07-09T08:01:11Z</time>
      </trkpt>
      <trkpt lat="47.37688" lon="-1.52077">
        <ele>61</ele>
        <time>2022-07-09T08:01:13Z</time>
      </trkpt>
      <trkpt lat="47.37701" lon="-1.52075">
        <ele>61</ele>
        <time>2022-07-09T08:01:15Z</time>
      </trkpt>
      <trkpt lat="47.37713" lon="-1.52074">
        <ele>61</ele>
        <time>2022-07-09T08:01:17Z</time>
      </trkpt>
      <trkpt lat="47.37726" lon="-1.52071">
        <ele>61</ele>
        <time>2022-07-09T08:01:19Z</time>
      </trkpt>
      <trkpt lat="47.37738" lon="-1.52068">
        <ele>61</ele>
        <time>2022-07-09T08:01:21Z</time>
      </trkpt>
      <trkpt lat="47.3775" lon="-1.52066">
        <ele>61</ele>
        <time>2022-07-09T08:01:23Z</time>
      </trkpt>
      <trkpt lat="47.37762" lon="-1.52064">
        <ele>61</ele>
        <time>2022-07-09T08:01:25Z</time>
      </trkpt>
      <trkpt lat="47.37773" lon="-1.52062">
        <ele>61</ele>
        <time>2022-07-09T08:01:27Z</time>
      </trkpt>
      <trkpt lat="47.37786" lon="-1.52059">
        <ele>61</ele>
        <time>2022-07-09T08:01:29Z</time>
      </trkpt>
      <trkpt lat="47.37798" lon="-1.52057">
        <ele>61</ele>
        <time>2022-07-09T08:01:31Z</time>
      </trkpt>
      <trkpt lat="47.3781" lon="-1.52055">
        <ele>61</ele>
        <time>2022-07-09T08:01:33Z</time>
      </trkpt>
      <trkpt lat="47.37822" lon="-1.52054">
        <ele>62</ele>
        <time>2022-07-09T08:01:35Z</time>
      </trkpt>
      <trkpt lat="47.37835" lon="-1.52053">
        <ele>62</ele>
        <time>2022-07-09T08:01:37Z</time>
      </trkpt>
      <trkpt lat="47.37847" lon="-1.52054">
        <ele>62</ele>
        <time>2022-07-09T08:01:39Z</time>
      </trkpt>
      <trkpt lat="47.3786" lon="-1.52057">
        <ele>62</ele>
        <time>2022-07-09T08:01:41Z</time>
      </trkpt>
      <trkpt lat="47.37871" lon="-1.52061">
        <ele>62</ele>
        <time>2022-07-09T08:01:43Z</time>
      </trkpt>
      <trkpt lat="47.37882" lon="-1.52067">
        <ele>62</ele>
        <time>2022-07-09T08:01:45Z</time>
      </trkpt>
      <trkpt lat="47.37894" lon="-1.52073">
        <ele>63</ele>
        <time>2022-07-09T08:01:47Z</time>
      </trkpt>
      <trkpt lat="47.37905" lon="-1.52081">
        <ele>62</ele>
        <time>2022-07-09T08:01:49Z</time>
      </trkpt>
      <trkpt lat="47.37916" lon="-1.52091">
        <ele>62</ele>
        <time>2022-07-09T08:01:51Z</time>
      </trkpt>
      <trkpt lat="47.37927" lon="-1.52101">
        <ele>62</ele>
        <time>2022-07-09T08:01:53Z</time>
      </trkpt>
      <trkpt lat="47.37937" lon="-1.5211">
        <ele>62</ele>
        <time>2022-07-09T08:01:55Z</time>
      </trkpt>
      <trkpt lat="47.37948" lon="-1.52119">
        <ele>63</ele>
        <time>2022-07-09T08:01:57Z</time>
      </trkpt>
      <trkpt lat="47.37958" lon="-1.52127">
        <ele>63</ele>
        <time>2022-07-09T08:01:59Z</time>
      </trkpt>
      <trkpt lat="47.37968" lon="-1.52136">
        <ele>63</ele>
        <time>2022-07-09T08:02:01Z</time>
      </trkpt>
      <trkpt lat="47.37977" lon="-1.52146">
        <ele>63</ele>
        <time>2022-07-09T08:02:03Z</time>
      </trkpt>
      <trkpt lat="47.37987" lon="-1.52154">
        <ele>63</ele>
        <time>2022-07-09T08:02:05Z</time>
      </trkpt>
      <trkpt lat="47.37996" lon="-1.52164">
        <ele>64</ele>
        <time>2022-07-09T08:02:07Z</time>
      </trkpt>
      <trkpt lat="47.38006" lon="-1.52172">
        <ele>64</ele>
        <time>2022-07-09T08:02:09Z</time>
      </trkpt>
      <trkpt lat="47.38016" lon="-1.52181">
        <ele>65</ele>
        <time>2022-07-09T08:02:11Z</time>
      </trkpt>
      <trkpt lat="47.38026" lon="-1.5219">
        <ele>65</ele>
        <time>2022-07-09T08:02:13Z</time>
      </trkpt>
      <trkpt lat="47.38035" lon="-1.52199">
        <ele>67</ele>
        <time>2022-07-09T08:02:15Z</time>
      </trkpt>
      <trkpt lat="47.38044" lon="-1.52207">
        <ele>68</ele>
        <time>2022-07-09T08:02:17Z</time>
      </trkpt>
      <trkpt lat="47.38054" lon="-1.52216">
        <ele>68</ele>
        <time>2022-07-09T08:02:19Z</time>
      </trkpt>
      <trkpt lat="47.38064" lon="-1.52224">
        <ele>68</ele>
        <time>2022-07-09T08:02:21Z</time>
      </trkpt>
      <trkpt lat="47.38073" lon="-1.52232">
        <ele>69</ele>
        <time>2022-07-09T08:02:23Z</time>
      </trkpt>
      <trkpt lat="47.38083" lon="-1.5224">
        <ele>69</ele>
        <time>2022-07-09T08:02:25Z</time>
      </trkpt>
      <trkpt lat="47.38092" lon="-1.52248">
        <ele>69</ele>
        <time>2022-07-09T08:02:27Z</time>
      </trkpt>
      <trkpt lat="47.38101" lon="-1.52256">
        <ele>69</ele>
        <time>2022-07-09T08:02:29Z</time>
      </trkpt>
      <trkpt lat="47.3811" lon="-1.52265">
        <ele>70</ele>
        <time>2022-07-09T08:02:31Z</time>
      </trkpt>
      <trkpt lat="47.3812" lon="-1.52274">
        <ele>69</ele>
        <time>2022-07-09T08:02:33Z</time>
      </trkpt>
      <trkpt lat="47.38129" lon="-1.52281">
        <ele>69</ele>
        <time>2022-07-09T08:02:35Z</time>
      </trkpt>
      <trkpt lat="47.38137" lon="-1.52289">
        <ele>70</ele>
        <time>2022-07-09T08:02:37Z</time>
      </trkpt>
      <trkpt lat="47.38145" lon="-1.52297">
        <ele>70</ele>
        <time>2022-07-09T08:02:39Z</time>
      </trkpt>
      <trkpt lat="47.38155" lon="-1.52306">
        <ele>70</ele>
        <time>2022-07-09T08:02:41Z</time>
      </trkpt>
      <trkpt lat="47.38164" lon="-1.52314">
        <ele>70</ele>
        <time>2022-07-09T08:02:43Z</time>
      </trkpt>
      <trkpt lat="47.38173" lon="-1.52322">
        <ele>70</ele>
        <time>2022-07-09T08:02:45Z</time>
      </trkpt>
      <trkpt lat="47.38182" lon="-1.52331">
        <ele>70</ele>
        <time>2022-07-09T08:02:47Z</time>
      </trkpt>
      <trkpt lat="47.38191" lon="-1.52339">
        <ele>70</ele>
        <time>2022-07-09T08:02:49Z</time>
      </trkpt>
      <trkpt lat="47.382" lon="-1.52347">
        <ele>70</ele>
        <time>2022-07-09T08:02:51Z</time>
      </trkpt>
      <trkpt lat="47.3821" lon="-1.52356">
        <ele>71</ele>
        <time>2022-07-09T08:02:53Z</time>
      </trkpt>
      <trkpt lat="47.38219" lon="-1.52364">
        <ele>71</ele>
        <time>2022-07-09T08:02:55Z</time>
      </trkpt>
      <trkpt lat="47.38228" lon="-1.52373">
        <ele>71</ele>
        <time>2022-07-09T08:02:57Z</time>
      </trkpt>
      <trkpt lat="47.38237" lon="-1.52381">
        <ele>71</ele>
        <time>2022-07-09T08:02:59Z</time>
      </trkpt>
      <trkpt lat="47.38246" lon="-1.52389">
        <ele>71</ele>
        <time>2022-07-09T08:03:01Z</time>
      </trkpt>
      <trkpt lat="47.38256" lon="-1.52397">
        <ele>71</ele>
        <time>2022-07-09T08:03:03Z</time>
      </trkpt>
      <trkpt lat="47.38266" lon="-1.52405">
        <ele>72</ele>
        <time>2022-07-09T08:03:05Z</time>
      </trkpt>
      <trkpt lat="47.38275" lon="-1.52414">
        <ele>71</ele>
        <time>2022-07-09T08:03:07Z</time>
      </trkpt>
      <trkpt lat="47.38285" lon="-1.52421">
        <ele>72</ele>
        <time>2022-07-09T08:03:09Z</time>
      </trkpt>
      <trkpt lat="47.38295" lon="-1.5243">
        <ele>72</ele>
        <time>2022-07-09T08:03:11Z</time>
      </trkpt>
      <trkpt lat="47.38304" lon="-1.52439">
        <ele>72</ele>
        <time>2022-07-09T08:03:13Z</time>
      </trkpt>
      <trkpt lat="47.38314" lon="-1.52447">
        <ele>72</ele>
        <time>2022-07-09T08:03:15Z</time>
      </trkpt>
      <trkpt lat="47.38323" lon="-1.52455">
        <ele>72</ele>
        <time>2022-07-09T08:03:17Z</time>
      </trkpt>
      <trkpt lat="47.38333" lon="-1.52463">
        <ele>71</ele>
        <time>2022-07-09T08:03:19Z</time>
      </trkpt>
      <trkpt lat="47.38342" lon="-1.52472">
        <ele>72</ele>
        <time>2022-07-09T08:03:21Z</time>
      </trkpt>
      <trkpt lat="47.38352" lon="-1.52481">
        <ele>72</ele>
        <time>2022-07-09T08:03:23Z</time>
      </trkpt>
      <trkpt lat="47.38362" lon="-1.52489">
        <ele>72</ele>
        <time>2022-07-09T08:03:25Z</time>
      </trkpt>
      <trkpt lat="47.3837" lon="-1.52498">
        <ele>72</ele>
        <time>2022-07-09T08:03:27Z</time>
      </trkpt>
      <trkpt lat="47.3838" lon="-1.52506">
        <ele>72</ele>
        <time>2022-07-09T08:03:29Z</time>
      </trkpt>
      <trkpt lat="47.38389" lon="-1.52515">
        <ele>72</ele>
        <time>2022-07-09T08:03:31Z</time>
      </trkpt>
      <trkpt lat="47.38399" lon="-1.52524">
        <ele>72</ele>
        <time>2022-07-09T08:03:33Z</time>
      </trkpt>
      <trkpt lat="47.38408" lon="-1.52532">
        <ele>72</ele>
        <time>2022-07-09T08:03:35Z</time>
      </trkpt>
      <trkpt lat="47.38418" lon="-1.52541">
        <ele>73</ele>
        <time>2022-07-09T08:03:37Z</time>
      </trkpt>
      <trkpt lat="47.38427" lon="-1.52549">
        <ele>73</ele>
        <time>2022-07-09T08:03:39Z</time>
      </trkpt>
      <trkpt lat="47.38437" lon="-1.52557">
        <ele>73</ele>
        <time>2022-07-09T08:03:41Z</time>
      </trkpt>
      <trkpt lat="47.38446" lon="-1.52566">
        <ele>73</ele>
        <time>2022-07-09T08:03:43Z</time>
      </trkpt>
      <trkpt lat="47.38455" lon="-1.52575">
        <ele>73</ele>
        <time>2022-07-09T08:03:45Z</time>
      </trkpt>
      <trkpt lat="47.38464" lon="-1.52583">
        <ele>74</ele>
        <time>2022-07-09T08:03:47Z</time>
      </trkpt>
      <trkpt lat="47.38474" lon="-1.52592">
        <ele>74</ele>
        <time>2022-07-09T08:03:49Z</time>
      </trkpt>
      <trkpt lat="47.38483" lon="-1.52601">
        <ele>74</ele>
        <time>2022-07-09T08:03:51Z</time>
      </trkpt>
      <trkpt lat="47.38493" lon="-1.52609">
        <ele>75</ele>
        <time>2022-07-09T08:03:53Z</time>
      </trkpt>
      <trkpt lat="47.38502" lon="-1.52618">
        <ele>75</ele>
        <time>2022-07-09T08:03:55Z</time>
      </trkpt>
      <trkpt lat="47.38512" lon="-1.52625">
        <ele>75</ele>
        <time>2022-07-09T08:03:57Z</time>
      </trkpt>
      <trkpt lat="47.38522" lon="-1.52631">
        <ele>75</ele>
        <time>2022-07-09T08:03:59Z</time>
      </trkpt>
      <trkpt lat="47.38533" lon="-1.52635">
        <ele>74</ele>
        <time>2022-07-09T08:04:01Z</time>
      </trkpt>
      <trkpt lat="47.38545" lon="-1.52638">
        <ele>74</ele>
        <time>2022-07-09T08:04:03Z</time>
      </trkpt>
      <trkpt lat="47.38557" lon="-1.52639">
        <ele>73</ele>
        <time>2022-07-09T08:04:05Z</time>
      </trkpt>
      <trkpt lat="47.38569" lon="-1.52639">
        <ele>73</ele>
        <time>2022-07-09T08:04:07Z</time>
      </trkpt>
      <trkpt lat="47.38583" lon="-1.52636">
        <ele>73</ele>
        <time>2022-07-09T08:04:09Z</time>
      </trkpt>
      <trkpt lat="47.38596" lon="-1.52633">
        <ele>72</ele>
        <time>2022-07-09T08:04:11Z</time>
      </trkpt>
      <trkpt lat="47.3861" lon="-1.52628">
        <ele>71</ele>
        <time>2022-07-09T08:04:13Z</time>
      </trkpt>
      <trkpt lat="47.38624" lon="-1.52623">
        <ele>69</ele>
        <time>2022-07-09T08:04:15Z</time>
      </trkpt>
      <trkpt lat="47.38638" lon="-1.52619">
        <ele>69</ele>
        <time>2022-07-09T08:04:17Z</time>
      </trkpt>
      <trkpt lat="47.38653" lon="-1.52615">
        <ele>68</ele>
        <time>2022-07-09T08:04:19Z</time>
      </trkpt>
      <trkpt lat="47.38668" lon="-1.5261">
        <ele>67</ele>
        <time>2022-07-09T08:04:21Z</time>
      </trkpt>
      <trkpt lat="47.38684" lon="-1.52605">
        <ele>66</ele>
        <time>2022-07-09T08:04:23Z</time>
      </trkpt>
      <trkpt lat="47.38699" lon="-1.526">
        <ele>66</ele>
        <time>2022-07-09T08:04:25Z</time>
      </trkpt>
      <trkpt lat="47.38715" lon="-1.52595">
        <ele>65</ele>
        <time>2022-07-09T08:04:27Z</time>
      </trkpt>
      <trkpt lat="47.38731" lon="-1.5259">
        <ele>64</ele>
        <time>2022-07-09T08:04:29Z</time>
      </trkpt>
      <trkpt lat="47.38747" lon="-1.52585">
        <ele>63</ele>
        <time>2022-07-09T08:04:31Z</time>
      </trkpt>
      <trkpt lat="47.38764" lon="-1.5258">
        <ele>61</ele>
        <time>2022-07-09T08:04:33Z</time>
      </trkpt>
      <trkpt lat="47.3878" lon="-1.52575">
        <ele>61</ele>
        <time>2022-07-09T08:04:35Z</time>
      </trkpt>
      <trkpt lat="47.38796" lon="-1.5257">
        <ele>60</ele>
        <time>2022-07-09T08:04:37Z</time>
      </trkpt>
      <trkpt lat="47.38811" lon="-1.52564">
        <ele>60</ele>
        <time>2022-07-09T08:04:39Z</time>
      </trkpt>
      <trkpt lat="47.38826" lon="-1.5256">
        <ele>59</ele>
        <time>2022-07-09T08:04:41Z</time>
      </trkpt>
      <trkpt lat="47.3884" lon="-1.52555">
        <ele>59</ele>
        <time>2022-07-09T08:04:43Z</time>
      </trkpt>
      <trkpt lat="47.38854" lon="-1.52551">
        <ele>59</ele>
        <time>2022-07-09T08:04:45Z</time>
      </trkpt>
      <trkpt lat="47.38869" lon="-1.52547">
        <ele>59</ele>
        <time>2022-07-09T08:04:47Z</time>
      </trkpt>
      <trkpt lat="47.38883" lon="-1.52543">
        <ele>59</ele>
        <time>2022-07-09T08:04:49Z</time>
      </trkpt>
      <trkpt lat="47.38897" lon="-1.52538">
        <ele>59</ele>
        <time>2022-07-09T08:04:51Z</time>
      </trkpt>
      <trkpt lat="47.38911" lon="-1.52534">
        <ele>59</ele>
        <time>2022-07-09T08:04:53Z</time>
      </trkpt>
      <trkpt lat="47.38926" lon="-1.52529">
        <ele>58</ele>
        <time>2022-07-09T08:04:55Z</time>
      </trkpt>
      <trkpt lat="47.38939" lon="-1.52524">
        <ele>58</ele>
        <time>2022-07-09T08:04:57Z</time>
      </trkpt>
      <trkpt lat="47.38953" lon="-1.52519">
        <ele>57</ele>
        <time>2022-07-09T08:04:59Z</time>
      </trkpt>
      <trkpt lat="47.38967" lon="-1.52515">
        <ele>57</ele>
        <time>2022-07-09T08:05:01Z</time>
      </trkpt>
      <trkpt lat="47.3898" lon="-1.52511">
        <ele>58</ele>
        <time>2022-07-09T08:05:03Z</time>
      </trkpt>
      <trkpt lat="47.38994" lon="-1.52507">
        <ele>58</ele>
        <time>2022-07-09T08:05:05Z</time>
      </trkpt>
      <trkpt lat="47.39008" lon="-1.52503">
        <ele>58</ele>
        <time>2022-07-09T08:05:07Z</time>
      </trkpt>
      <trkpt lat="47.39021" lon="-1.52499">
        <ele>57</ele>
        <time>2022-07-09T08:05:09Z</time>
      </trkpt>
      <trkpt lat="47.39034" lon="-1.52494">
        <ele>57</ele>
        <time>2022-07-09T08:05:11Z</time>
      </trkpt>
      <trkpt lat="47.39047" lon="-1.5249">
        <ele>57</ele>
        <time>2022-07-09T08:05:13Z</time>
      </trkpt>
      <trkpt lat="47.39061" lon="-1.52486">
        <ele>57</ele>
        <time>2022-07-09T08:05:15Z</time>
      </trkpt>
      <trkpt lat="47.3908" lon="-1.52479">
        <ele>57</ele>
        <time>2022-07-09T08:05:18Z</time>
      </trkpt>
      <trkpt lat="47.39099" lon="-1.52473">
        <ele>57</ele>
        <time>2022-07-09T08:05:21Z</time>
      </trkpt>
      <trkpt lat="47.39112" lon="-1.52469">
        <ele>57</ele>
        <time>2022-07-09T08:05:23Z</time>
      </trkpt>
      <trkpt lat="47.39125" lon="-1.52465">
        <ele>57</ele>
        <time>2022-07-09T08:05:25Z</time>
      </trkpt>
      <trkpt lat="47.39138" lon="-1.52462">
        <ele>57</ele>
        <time>2022-07-09T08:05:27Z</time>
      </trkpt>
      <trkpt lat="47.39151" lon="-1.5246">
        <ele>58</ele>
        <time>2022-07-09T08:05:29Z</time>
      </trkpt>
      <trkpt lat="47.39165" lon="-1.52459">
        <ele>58</ele>
        <time>2022-07-09T08:05:31Z</time>
      </trkpt>
      <trkpt lat="47.39178" lon="-1.52459">
        <ele>58</ele>
        <time>2022-07-09T08:05:33Z</time>
      </trkpt>
      <trkpt lat="47.39192" lon="-1.52459">
        <ele>59</ele>
        <time>2022-07-09T08:05:35Z</time>
      </trkpt>
      <trkpt lat="47.39205" lon="-1.52461">
        <ele>59</ele>
        <time>2022-07-09T08:05:37Z</time>
      </trkpt>
      <trkpt lat="47.39218" lon="-1.52465">
        <ele>58</ele>
        <time>2022-07-09T08:05:39Z</time>
      </trkpt>
      <trkpt lat="47.39231" lon="-1.52469">
        <ele>58</ele>
        <time>2022-07-09T08:05:41Z</time>
      </trkpt>
      <trkpt lat="47.39244" lon="-1.52473">
        <ele>58</ele>
        <time>2022-07-09T08:05:43Z</time>
      </trkpt>
      <trkpt lat="47.39257" lon="-1.52479">
        <ele>57</ele>
        <time>2022-07-09T08:05:45Z</time>
      </trkpt>
      <trkpt lat="47.39269" lon="-1.52485">
        <ele>57</ele>
        <time>2022-07-09T08:05:47Z</time>
      </trkpt>
      <trkpt lat="47.39282" lon="-1.52491">
        <ele>57</ele>
        <time>2022-07-09T08:05:49Z</time>
      </trkpt>
      <trkpt lat="47.39294" lon="-1.52497">
        <ele>57</ele>
        <time>2022-07-09T08:05:51Z</time>
      </trkpt>
      <trkpt lat="47.39306" lon="-1.52503">
        <ele>58</ele>
        <time>2022-07-09T08:05:53Z</time>
      </trkpt>
      <trkpt lat="47.39319" lon="-1.52509">
        <ele>58</ele>
        <time>2022-07-09T08:05:55Z</time>
      </trkpt>
      <trkpt lat="47.39332" lon="-1.52515">
        <ele>58</ele>
        <time>2022-07-09T08:05:57Z</time>
      </trkpt>
      <trkpt lat="47.39344" lon="-1.52521">
        <ele>58</ele>
        <time>2022-07-09T08:05:59Z</time>
      </trkpt>
      <trkpt lat="47.39357" lon="-1.52528">
        <ele>58</ele>
        <time>2022-07-09T08:06:01Z</time>
      </trkpt>
      <trkpt lat="47.3937" lon="-1.52535">
        <ele>58</ele>
        <time>2022-07-09T08:06:03Z</time>
      </trkpt>
      <trkpt lat="47.39382" lon="-1.52542">
        <ele>58</ele>
        <time>2022-07-09T08:06:05Z</time>
      </trkpt>
      <trkpt lat="47.39395" lon="-1.52548">
        <ele>58</ele>
        <time>2022-07-09T08:06:07Z</time>
      </trkpt>
      <trkpt lat="47.39407" lon="-1.52554">
        <ele>58</ele>
        <time>2022-07-09T08:06:09Z</time>
      </trkpt>
      <trkpt lat="47.39419" lon="-1.52561">
        <ele>58</ele>
        <time>2022-07-09T08:06:11Z</time>
      </trkpt>
      <trkpt lat="47.39432" lon="-1.52567">
        <ele>58</ele>
        <time>2022-07-09T08:06:13Z</time>
      </trkpt>
      <trkpt lat="47.39445" lon="-1.52573">
        <ele>58</ele>
        <time>2022-07-09T08:06:15Z</time>
      </trkpt>
      <trkpt lat="47.39457" lon="-1.52579">
        <ele>58</ele>
        <time>2022-07-09T08:06:17Z</time>
      </trkpt>
      <trkpt lat="47.3947" lon="-1.52585">
        <ele>58</ele>
        <time>2022-07-09T08:06:19Z</time>
      </trkpt>
      <trkpt lat="47.39483" lon="-1.52592">
        <ele>58</ele>
        <time>2022-07-09T08:06:21Z</time>
      </trkpt>
      <trkpt lat="47.39495" lon="-1.52599">
        <ele>58</ele>
        <time>2022-07-09T08:06:23Z</time>
      </trkpt>
      <trkpt lat="47.39507" lon="-1.52607">
        <ele>59</ele>
        <time>2022-07-09T08:06:25Z</time>
      </trkpt>
      <trkpt lat="47.39518" lon="-1.52615">
        <ele>59</ele>
        <time>2022-07-09T08:06:27Z</time>
      </trkpt>
      <trkpt lat="47.39528" lon="-1.52626">
        <ele>59</ele>
        <time>2022-07-09T08:06:29Z</time>
      </trkpt>
      <trkpt lat="47.39538" lon="-1.52637">
        <ele>60</ele>
        <time>2022-07-09T08:06:31Z</time>
      </trkpt>
      <trkpt lat="47.39548" lon="-1.52649">
        <ele>60</ele>
        <time>2022-07-09T08:06:33Z</time>
      </trkpt>
      <trkpt lat="47.39558" lon="-1.5266">
        <ele>60</ele>
        <time>2022-07-09T08:06:35Z</time>
      </trkpt>
      <trkpt lat="47.39568" lon="-1.5267">
        <ele>60</ele>
        <time>2022-07-09T08:06:37Z</time>
      </trkpt>
      <trkpt lat="47.39579" lon="-1.52679">
        <ele>60</ele>
        <time>2022-07-09T08:06:39Z</time>
      </trkpt>
      <trkpt lat="47.39591" lon="-1.52686">
        <ele>60</ele>
        <time>2022-07-09T08:06:41Z</time>
      </trkpt>
      <trkpt lat="47.39604" lon="-1.5269">
        <ele>59</ele>
        <time>2022-07-09T08:06:43Z</time>
      </trkpt>
      <trkpt lat="47.39617" lon="-1.52692">
        <ele>60</ele>
        <time>2022-07-09T08:06:45Z</time>
      </trkpt>
      <trkpt lat="47.3963" lon="-1.52692">
        <ele>61</ele>
        <time>2022-07-09T08:06:47Z</time>
      </trkpt>
      <trkpt lat="47.39643" lon="-1.5269">
        <ele>61</ele>
        <time>2022-07-09T08:06:49Z</time>
      </trkpt>
      <trkpt lat="47.39656" lon="-1.5269">
        <ele>60</ele>
        <time>2022-07-09T08:06:51Z</time>
      </trkpt>
      <trkpt lat="47.39669" lon="-1.5269">
        <ele>60</ele>
        <time>2022-07-09T08:06:53Z</time>
      </trkpt>
      <trkpt lat="47.39683" lon="-1.52691">
        <ele>60</ele>
        <time>2022-07-09T08:06:55Z</time>
      </trkpt>
      <trkpt lat="47.39696" lon="-1.52696">
        <ele>59</ele>
        <time>2022-07-09T08:06:57Z</time>
      </trkpt>
      <trkpt lat="47.39709" lon="-1.52701">
        <ele>59</ele>
        <time>2022-07-09T08:06:59Z</time>
      </trkpt>
      <trkpt lat="47.39722" lon="-1.52707">
        <ele>58</ele>
        <time>2022-07-09T08:07:01Z</time>
      </trkpt>
      <trkpt lat="47.39735" lon="-1.52714">
        <ele>58</ele>
        <time>2022-07-09T08:07:03Z</time>
      </trkpt>
      <trkpt lat="47.39748" lon="-1.5272">
        <ele>58</ele>
        <time>2022-07-09T08:07:05Z</time>
      </trkpt>
      <trkpt lat="47.39761" lon="-1.52727">
        <ele>58</ele>
        <time>2022-07-09T08:07:07Z</time>
      </trkpt>
      <trkpt lat="47.39774" lon="-1.52733">
        <ele>57</ele>
        <time>2022-07-09T08:07:09Z</time>
      </trkpt>
      <trkpt lat="47.39787" lon="-1.5274">
        <ele>57</ele>
        <time>2022-07-09T08:07:11Z</time>
      </trkpt>
      <trkpt lat="47.39799" lon="-1.52747">
        <ele>57</ele>
        <time>2022-07-09T08:07:13Z</time>
      </trkpt>
      <trkpt lat="47.39813" lon="-1.52754">
        <ele>57</ele>
        <time>2022-07-09T08:07:15Z</time>
      </trkpt>
      <trkpt lat="47.39826" lon="-1.5276">
        <ele>56</ele>
        <time>2022-07-09T08:07:17Z</time>
      </trkpt>
      <trkpt lat="47.39838" lon="-1.52766">
        <ele>56</ele>
        <time>2022-07-09T08:07:19Z</time>
      </trkpt>
      <trkpt lat="47.39851" lon="-1.52772">
        <ele>56</ele>
        <time>2022-07-09T08:07:21Z</time>
      </trkpt>
      <trkpt lat="47.39864" lon="-1.52778">
        <ele>56</ele>
        <time>2022-07-09T08:07:23Z</time>
      </trkpt>
      <trkpt lat="47.39877" lon="-1.52784">
        <ele>56</ele>
        <time>2022-07-09T08:07:25Z</time>
      </trkpt>
      <trkpt lat="47.39889" lon="-1.5279">
        <ele>56</ele>
        <time>2022-07-09T08:07:27Z</time>
      </trkpt>
      <trkpt lat="47.39901" lon="-1.52796">
        <ele>56</ele>
        <time>2022-07-09T08:07:29Z</time>
      </trkpt>
      <trkpt lat="47.39914" lon="-1.52802">
        <ele>56</ele>
        <time>2022-07-09T08:07:31Z</time>
      </trkpt>
      <trkpt lat="47.39927" lon="-1.52808">
        <ele>55</ele>
        <time>2022-07-09T08:07:33Z</time>
      </trkpt>
      <trkpt lat="47.39939" lon="-1.52814">
        <ele>55</ele>
        <time>2022-07-09T08:07:35Z</time>
      </trkpt>
      <trkpt lat="47.39952" lon="-1.52821">
        <ele>55</ele>
        <time>2022-07-09T08:07:37Z</time>
      </trkpt>
      <trkpt lat="47.39964" lon="-1.52826">
        <ele>55</ele>
        <time>2022-07-09T08:07:39Z</time>
      </trkpt>
      <trkpt lat="47.39977" lon="-1.52833">
        <ele>56</ele>
        <time>2022-07-09T08:07:41Z</time>
      </trkpt>
      <trkpt lat="47.39988" lon="-1.5284">
        <ele>55</ele>
        <time>2022-07-09T08:07:43Z</time>
      </trkpt>
      <trkpt lat="47.4" lon="-1.52848">
        <ele>56</ele>
        <time>2022-07-09T08:07:45Z</time>
      </trkpt>
      <trkpt lat="47.40012" lon="-1.52857">
        <ele>56</ele>
        <time>2022-07-09T08:07:47Z</time>
      </trkpt>
      <trkpt lat="47.40023" lon="-1.52867">
        <ele>56</ele>
        <time>2022-07-09T08:07:49Z</time>
      </trkpt>
      <trkpt lat="47.40035" lon="-1.52877">
        <ele>57</ele>
        <time>2022-07-09T08:07:51Z</time>
      </trkpt>
      <trkpt lat="47.40046" lon="-1.52887">
        <ele>57</ele>
        <time>2022-07-09T08:07:53Z</time>
      </trkpt>
      <trkpt lat="47.40057" lon="-1.52899">
        <ele>57</ele>
        <time>2022-07-09T08:07:55Z</time>
      </trkpt>
      <trkpt lat="47.40069" lon="-1.5291">
        <ele>57</ele>
        <time>2022-07-09T08:07:57Z</time>
      </trkpt>
      <trkpt lat="47.4008" lon="-1.52921">
        <ele>57</ele>
        <time>2022-07-09T08:07:59Z</time>
      </trkpt>
      <trkpt lat="47.40091" lon="-1.52932">
        <ele>57</ele>
        <time>2022-07-09T08:08:01Z</time>
      </trkpt>
      <trkpt lat="47.40102" lon="-1.52944">
        <ele>57</ele>
        <time>2022-07-09T08:08:03Z</time>
      </trkpt>
      <trkpt lat="47.40113" lon="-1.52954">
        <ele>57</ele>
        <time>2022-07-09T08:08:05Z</time>
      </trkpt>
      <trkpt lat="47.40124" lon="-1.52965">
        <ele>57</ele>
        <time>2022-07-09T08:08:07Z</time>
      </trkpt>
      <trkpt lat="47.40135" lon="-1.52975">
        <ele>57</ele>
        <time>2022-07-09T08:08:09Z</time>
      </trkpt>
      <trkpt lat="47.40146" lon="-1.52985">
        <ele>58</ele>
        <time>2022-07-09T08:08:11Z</time>
      </trkpt>
      <trkpt lat="47.40157" lon="-1.52995">
        <ele>57</ele>
        <time>2022-07-09T08:08:13Z</time>
      </trkpt>
      <trkpt lat="47.40167" lon="-1.53006">
        <ele>57</ele>
        <time>2022-07-09T08:08:15Z</time>
      </trkpt>
      <trkpt lat="47.40178" lon="-1.53016">
        <ele>58</ele>
        <time>2022-07-09T08:08:17Z</time>
      </trkpt>
      <trkpt lat="47.40189" lon="-1.53026">
        <ele>58</ele>
        <time>2022-07-09T08:08:19Z</time>
      </trkpt>
      <trkpt lat="47.40199" lon="-1.53036">
        <ele>58</ele>
        <time>2022-07-09T08:08:21Z</time>
      </trkpt>
      <trkpt lat="47.4021" lon="-1.53047">
        <ele>58</ele>
        <time>2022-07-09T08:08:23Z</time>
      </trkpt>
      <trkpt lat="47.40221" lon="-1.53057">
        <ele>58</ele>
        <time>2022-07-09T08:08:25Z</time>
      </trkpt>
      <trkpt lat="47.40232" lon="-1.53067">
        <ele>58</ele>
        <time>2022-07-09T08:08:27Z</time>
      </trkpt>
      <trkpt lat="47.40243" lon="-1.53078">
        <ele>58</ele>
        <time>2022-07-09T08:08:29Z</time>
      </trkpt>
      <trkpt lat="47.40255" lon="-1.53089">
        <ele>58</ele>
        <time>2022-07-09T08:08:31Z</time>
      </trkpt>
      <trkpt lat="47.40266" lon="-1.531">
        <ele>57</ele>
        <time>2022-07-09T08:08:33Z</time>
      </trkpt>
      <trkpt lat="47.40278" lon="-1.53111">
        <ele>57</ele>
        <time>2022-07-09T08:08:35Z</time>
      </trkpt>
      <trkpt lat="47.40289" lon="-1.53121">
        <ele>57</ele>
        <time>2022-07-09T08:08:37Z</time>
      </trkpt>
      <trkpt lat="47.403" lon="-1.53131">
        <ele>57</ele>
        <time>2022-07-09T08:08:39Z</time>
      </trkpt>
      <trkpt lat="47.40311" lon="-1.53142">
        <ele>57</ele>
        <time>2022-07-09T08:08:41Z</time>
      </trkpt>
      <trkpt lat="47.40323" lon="-1.53152">
        <ele>58</ele>
        <time>2022-07-09T08:08:43Z</time>
      </trkpt>
      <trkpt lat="47.40334" lon="-1.53162">
        <ele>57</ele>
        <time>2022-07-09T08:08:45Z</time>
      </trkpt>
      <trkpt lat="47.40346" lon="-1.53173">
        <ele>57</ele>
        <time>2022-07-09T08:08:47Z</time>
      </trkpt>
      <trkpt lat="47.40357" lon="-1.53183">
        <ele>58</ele>
        <time>2022-07-09T08:08:49Z</time>
      </trkpt>
      <trkpt lat="47.40367" lon="-1.53193">
        <ele>58</ele>
        <time>2022-07-09T08:08:51Z</time>
      </trkpt>
      <trkpt lat="47.40377" lon="-1.53204">
        <ele>58</ele>
        <time>2022-07-09T08:08:53Z</time>
      </trkpt>
      <trkpt lat="47.40387" lon="-1.53214">
        <ele>59</ele>
        <time>2022-07-09T08:08:55Z</time>
      </trkpt>
      <trkpt lat="47.40397" lon="-1.53225">
        <ele>59</ele>
        <time>2022-07-09T08:08:57Z</time>
      </trkpt>
      <trkpt lat="47.40407" lon="-1.53236">
        <ele>59</ele>
        <time>2022-07-09T08:08:59Z</time>
      </trkpt>
      <trkpt lat="47.40418" lon="-1.53248">
        <ele>59</ele>
        <time>2022-07-09T08:09:01Z</time>
      </trkpt>
      <trkpt lat="47.40429" lon="-1.53261">
        <ele>58</ele>
        <time>2022-07-09T08:09:03Z</time>
      </trkpt>
      <trkpt lat="47.40441" lon="-1.53274">
        <ele>58</ele>
        <time>2022-07-09T08:09:05Z</time>
      </trkpt>
      <trkpt lat="47.40453" lon="-1.53288">
        <ele>58</ele>
        <time>2022-07-09T08:09:07Z</time>
      </trkpt>
      <trkpt lat="47.40464" lon="-1.53301">
        <ele>58</ele>
        <time>2022-07-09T08:09:09Z</time>
      </trkpt>
      <trkpt lat="47.40476" lon="-1.53315">
        <ele>58</ele>
        <time>2022-07-09T08:09:11Z</time>
      </trkpt>
      <trkpt lat="47.40487" lon="-1.53328">
        <ele>59</ele>
        <time>2022-07-09T08:09:13Z</time>
      </trkpt>
      <trkpt lat="47.40497" lon="-1.53342">
        <ele>59</ele>
        <time>2022-07-09T08:09:15Z</time>
      </trkpt>
      <trkpt lat="47.40508" lon="-1.53354">
        <ele>59</ele>
        <time>2022-07-09T08:09:17Z</time>
      </trkpt>
      <trkpt lat="47.40517" lon="-1.53365">
        <ele>59</ele>
        <time>2022-07-09T08:09:19Z</time>
      </trkpt>
      <trkpt lat="47.40528" lon="-1.53379">
        <ele>59</ele>
        <time>2022-07-09T08:09:21Z</time>
      </trkpt>
      <trkpt lat="47.40538" lon="-1.53391">
        <ele>60</ele>
        <time>2022-07-09T08:09:23Z</time>
      </trkpt>
      <trkpt lat="47.40548" lon="-1.53402">
        <ele>60</ele>
        <time>2022-07-09T08:09:25Z</time>
      </trkpt>
      <trkpt lat="47.40558" lon="-1.53415">
        <ele>60</ele>
        <time>2022-07-09T08:09:27Z</time>
      </trkpt>
      <trkpt lat="47.40568" lon="-1.53427">
        <ele>60</ele>
        <time>2022-07-09T08:09:29Z</time>
      </trkpt>
      <trkpt lat="47.40578" lon="-1.53439">
        <ele>60</ele>
        <time>2022-07-09T08:09:31Z</time>
      </trkpt>
      <trkpt lat="47.40587" lon="-1.5345">
        <ele>60</ele>
        <time>2022-07-09T08:09:33Z</time>
      </trkpt>
      <trkpt lat="47.40597" lon="-1.53461">
        <ele>60</ele>
        <time>2022-07-09T08:09:35Z</time>
      </trkpt>
      <trkpt lat="47.40607" lon="-1.53474">
        <ele>59</ele>
        <time>2022-07-09T08:09:37Z</time>
      </trkpt>
      <trkpt lat="47.40617" lon="-1.53486">
        <ele>59</ele>
        <time>2022-07-09T08:09:39Z</time>
      </trkpt>
      <trkpt lat="47.40628" lon="-1.53497">
        <ele>58</ele>
        <time>2022-07-09T08:09:41Z</time>
      </trkpt>
      <trkpt lat="47.40638" lon="-1.5351">
        <ele>58</ele>
        <time>2022-07-09T08:09:43Z</time>
      </trkpt>
      <trkpt lat="47.40648" lon="-1.53521">
        <ele>58</ele>
        <time>2022-07-09T08:09:45Z</time>
      </trkpt>
      <trkpt lat="47.40658" lon="-1.53531">
        <ele>58</ele>
        <time>2022-07-09T08:09:47Z</time>
      </trkpt>
      <trkpt lat="47.40667" lon="-1.53537">
        <ele>58</ele>
        <time>2022-07-09T08:09:49Z</time>
      </trkpt>
      <trkpt lat="47.40677" lon="-1.53538">
        <ele>59</ele>
        <time>2022-07-09T08:09:51Z</time>
      </trkpt>
      <trkpt lat="47.40687" lon="-1.53537">
        <ele>59</ele>
        <time>2022-07-09T08:09:53Z</time>
      </trkpt>
      <trkpt lat="47.407" lon="-1.53534">
        <ele>59</ele>
        <time>2022-07-09T08:09:55Z</time>
      </trkpt>
      <trkpt lat="47.40713" lon="-1.53532">
        <ele>59</ele>
        <time>2022-07-09T08:09:57Z</time>
      </trkpt>
      <trkpt lat="47.40725" lon="-1.5353">
        <ele>59</ele>
        <time>2022-07-09T08:09:59Z</time>
      </trkpt>
      <trkpt lat="47.40738" lon="-1.53529">
        <ele>59</ele>
        <time>2022-07-09T08:10:01Z</time>
      </trkpt>
      <trkpt lat="47.4075" lon="-1.53527">
        <ele>60</ele>
        <time>2022-07-09T08:10:03Z</time>
      </trkpt>
      <trkpt lat="47.40762" lon="-1.53525">
        <ele>61</ele>
        <time>2022-07-09T08:10:05Z</time>
      </trkpt>
      <trkpt lat="47.40774" lon="-1.53523">
        <ele>61</ele>
        <time>2022-07-09T08:10:07Z</time>
      </trkpt>
      <trkpt lat="47.40786" lon="-1.53523">
        <ele>61</ele>
        <time>2022-07-09T08:10:09Z</time>
      </trkpt>
      <trkpt lat="47.40798" lon="-1.53521">
        <ele>61</ele>
        <time>2022-07-09T08:10:11Z</time>
      </trkpt>
      <trkpt lat="47.40809" lon="-1.5352">
        <ele>61</ele>
        <time>2022-07-09T08:10:13Z</time>
      </trkpt>
      <trkpt lat="47.40821" lon="-1.53518">
        <ele>60</ele>
        <time>2022-07-09T08:10:15Z</time>
      </trkpt>
      <trkpt lat="47.40833" lon="-1.53516">
        <ele>60</ele>
        <time>2022-07-09T08:10:17Z</time>
      </trkpt>
      <trkpt lat="47.40845" lon="-1.53515">
        <ele>60</ele>
        <time>2022-07-09T08:10:19Z</time>
      </trkpt>
      <trkpt lat="47.40857" lon="-1.53515">
        <ele>60</ele>
        <time>2022-07-09T08:10:21Z</time>
      </trkpt>
      <trkpt lat="47.40869" lon="-1.53516">
        <ele>60</ele>
        <time>2022-07-09T08:10:23Z</time>
      </trkpt>
      <trkpt lat="47.40881" lon="-1.53518">
        <ele>60</ele>
        <time>2022-07-09T08:10:25Z</time>
      </trkpt>
      <trkpt lat="47.40893" lon="-1.5352">
        <ele>60</ele>
        <time>2022-07-09T08:10:27Z</time>
      </trkpt>
      <trkpt lat="47.40906" lon="-1.53524">
        <ele>60</ele>
        <time>2022-07-09T08:10:29Z</time>
      </trkpt>
      <trkpt lat="47.40919" lon="-1.53527">
        <ele>59</ele>
        <time>2022-07-09T08:10:31Z</time>
      </trkpt>
      <trkpt lat="47.40932" lon="-1.5353">
        <ele>59</ele>
        <time>2022-07-09T08:10:33Z</time>
      </trkpt>
      <trkpt lat="47.40945" lon="-1.53533">
        <ele>59</ele>
        <time>2022-07-09T08:10:35Z</time>
      </trkpt>
      <trkpt lat="47.40958" lon="-1.53535">
        <ele>59</ele>
        <time>2022-07-09T08:10:37Z</time>
      </trkpt>
      <trkpt lat="47.40972" lon="-1.53536">
        <ele>59</ele>
        <time>2022-07-09T08:10:39Z</time>
      </trkpt>
      <trkpt lat="47.40985" lon="-1.53534">
        <ele>59</ele>
        <time>2022-07-09T08:10:41Z</time>
      </trkpt>
      <trkpt lat="47.40998" lon="-1.53527">
        <ele>59</ele>
        <time>2022-07-09T08:10:43Z</time>
      </trkpt>
      <trkpt lat="47.41008" lon="-1.53516">
        <ele>59</ele>
        <time>2022-07-09T08:10:45Z</time>
      </trkpt>
      <trkpt lat="47.41016" lon="-1.53502">
        <ele>59</ele>
        <time>2022-07-09T08:10:47Z</time>
      </trkpt>
      <trkpt lat="47.41023" lon="-1.53487">
        <ele>59</ele>
        <time>2022-07-09T08:10:49Z</time>
      </trkpt>
      <trkpt lat="47.41031" lon="-1.53471">
        <ele>60</ele>
        <time>2022-07-09T08:10:51Z</time>
      </trkpt>
      <trkpt lat="47.41038" lon="-1.53456">
        <ele>59</ele>
        <time>2022-07-09T08:10:53Z</time>
      </trkpt>
      <trkpt lat="47.41046" lon="-1.53439">
        <ele>59</ele>
        <time>2022-07-09T08:10:55Z</time>
      </trkpt>
      <trkpt lat="47.41054" lon="-1.5342">
        <ele>58</ele>
        <time>2022-07-09T08:10:57Z</time>
      </trkpt>
      <trkpt lat="47.41065" lon="-1.53403">
        <ele>58</ele>
        <time>2022-07-09T08:10:59Z</time>
      </trkpt>
      <trkpt lat="47.41079" lon="-1.53394">
        <ele>59</ele>
        <time>2022-07-09T08:11:01Z</time>
      </trkpt>
      <trkpt lat="47.41093" lon="-1.5339">
        <ele>59</ele>
        <time>2022-07-09T08:11:03Z</time>
      </trkpt>
      <trkpt lat="47.41107" lon="-1.53388">
        <ele>59</ele>
        <time>2022-07-09T08:11:05Z</time>
      </trkpt>
      <trkpt lat="47.4112" lon="-1.53387">
        <ele>59</ele>
        <time>2022-07-09T08:11:07Z</time>
      </trkpt>
      <trkpt lat="47.41132" lon="-1.53386">
        <ele>59</ele>
        <time>2022-07-09T08:11:09Z</time>
      </trkpt>
      <trkpt lat="47.41144" lon="-1.53384">
        <ele>60</ele>
        <time>2022-07-09T08:11:11Z</time>
      </trkpt>
      <trkpt lat="47.41154" lon="-1.53382">
        <ele>63</ele>
        <time>2022-07-09T08:11:13Z</time>
      </trkpt>
      <trkpt lat="47.41165" lon="-1.53379">
        <ele>65</ele>
        <time>2022-07-09T08:11:15Z</time>
      </trkpt>
      <trkpt lat="47.41177" lon="-1.53377">
        <ele>65</ele>
        <time>2022-07-09T08:11:17Z</time>
      </trkpt>
      <trkpt lat="47.41189" lon="-1.53374">
        <ele>65</ele>
        <time>2022-07-09T08:11:19Z</time>
      </trkpt>
      <trkpt lat="47.412" lon="-1.53369">
        <ele>65</ele>
        <time>2022-07-09T08:11:21Z</time>
      </trkpt>
      <trkpt lat="47.41211" lon="-1.53363">
        <ele>64</ele>
        <time>2022-07-09T08:11:23Z</time>
      </trkpt>
      <trkpt lat="47.41222" lon="-1.53355">
        <ele>64</ele>
        <time>2022-07-09T08:11:25Z</time>
      </trkpt>
      <trkpt lat="47.41231" lon="-1.53346">
        <ele>63</ele>
        <time>2022-07-09T08:11:27Z</time>
      </trkpt>
      <trkpt lat="47.4124" lon="-1.53335">
        <ele>63</ele>
        <time>2022-07-09T08:11:29Z</time>
      </trkpt>
      <trkpt lat="47.41248" lon="-1.53323">
        <ele>63</ele>
        <time>2022-07-09T08:11:31Z</time>
      </trkpt>
      <trkpt lat="47.41256" lon="-1.5331">
        <ele>62</ele>
        <time>2022-07-09T08:11:33Z</time>
      </trkpt>
      <trkpt lat="47.41263" lon="-1.53296">
        <ele>62</ele>
        <time>2022-07-09T08:11:35Z</time>
      </trkpt>
      <trkpt lat="47.4127" lon="-1.53282">
        <ele>62</ele>
        <time>2022-07-09T08:11:37Z</time>
      </trkpt>
      <trkpt lat="47.41277" lon="-1.53267">
        <ele>62</ele>
        <time>2022-07-09T08:11:39Z</time>
      </trkpt>
      <trkpt lat="47.41284" lon="-1.53251">
        <ele>62</ele>
        <time>2022-07-09T08:11:41Z</time>
      </trkpt>
      <trkpt lat="47.4129" lon="-1.53236">
        <ele>61</ele>
        <time>2022-07-09T08:11:43Z</time>
      </trkpt>
      <trkpt lat="47.41297" lon="-1.53221">
        <ele>61</ele>
        <time>2022-07-09T08:11:45Z</time>
      </trkpt>
      <trkpt lat="47.41302" lon="-1.53206">
        <ele>61</ele>
        <time>2022-07-09T08:11:47Z</time>
      </trkpt>
      <trkpt lat="47.41308" lon="-1.5319">
        <ele>61</ele>
        <time>2022-07-09T08:11:49Z</time>
      </trkpt>
      <trkpt lat="47.41315" lon="-1.53175">
        <ele>61</ele>
        <time>2022-07-09T08:11:51Z</time>
      </trkpt>
      <trkpt lat="47.41321" lon="-1.5316">
        <ele>61</ele>
        <time>2022-07-09T08:11:53Z</time>
      </trkpt>
      <trkpt lat="47.41328" lon="-1.53146">
        <ele>61</ele>
        <time>2022-07-09T08:11:55Z</time>
      </trkpt>
      <trkpt lat="47.41334" lon="-1.53131">
        <ele>61</ele>
        <time>2022-07-09T08:11:57Z</time>
      </trkpt>
      <trkpt lat="47.4134" lon="-1.53117">
        <ele>61</ele>
        <time>2022-07-09T08:11:59Z</time>
      </trkpt>
      <trkpt lat="47.41347" lon="-1.53103">
        <ele>61</ele>
        <time>2022-07-09T08:12:01Z</time>
      </trkpt>
      <trkpt lat="47.41354" lon="-1.53089">
        <ele>61</ele>
        <time>2022-07-09T08:12:03Z</time>
      </trkpt>
      <trkpt lat="47.41361" lon="-1.53075">
        <ele>61</ele>
        <time>2022-07-09T08:12:05Z</time>
      </trkpt>
      <trkpt lat="47.41368" lon="-1.53062">
        <ele>61</ele>
        <time>2022-07-09T08:12:07Z</time>
      </trkpt>
      <trkpt lat="47.41376" lon="-1.53049">
        <ele>61</ele>
        <time>2022-07-09T08:12:09Z</time>
      </trkpt>
      <trkpt lat="47.41384" lon="-1.53038">
        <ele>61</ele>
        <time>2022-07-09T08:12:11Z</time>
      </trkpt>
      <trkpt lat="47.41392" lon="-1.53025">
        <ele>61</ele>
        <time>2022-07-09T08:12:13Z</time>
      </trkpt>
      <trkpt lat="47.414" lon="-1.53014">
        <ele>61</ele>
        <time>2022-07-09T08:12:15Z</time>
      </trkpt>
      <trkpt lat="47.41408" lon="-1.53002">
        <ele>61</ele>
        <time>2022-07-09T08:12:17Z</time>
      </trkpt>
      <trkpt lat="47.41416" lon="-1.5299">
        <ele>61</ele>
        <time>2022-07-09T08:12:19Z</time>
      </trkpt>
      <trkpt lat="47.41425" lon="-1.52978">
        <ele>61</ele>
        <time>2022-07-09T08:12:21Z</time>
      </trkpt>
      <trkpt lat="47.41433" lon="-1.52966">
        <ele>61</ele>
        <time>2022-07-09T08:12:23Z</time>
      </trkpt>
      <trkpt lat="47.41441" lon="-1.52954">
        <ele>62</ele>
        <time>2022-07-09T08:12:25Z</time>
      </trkpt>
      <trkpt lat="47.4145" lon="-1.52942">
        <ele>62</ele>
        <time>2022-07-09T08:12:27Z</time>
      </trkpt>
      <trkpt lat="47.41458" lon="-1.5293">
        <ele>62</ele>
        <time>2022-07-09T08:12:29Z</time>
      </trkpt>
      <trkpt lat="47.41466" lon="-1.52917">
        <ele>62</ele>
        <time>2022-07-09T08:12:31Z</time>
      </trkpt>
      <trkpt lat="47.41475" lon="-1.52905">
        <ele>62</ele>
        <time>2022-07-09T08:12:33Z</time>
      </trkpt>
      <trkpt lat="47.41484" lon="-1.52892">
        <ele>61</ele>
        <time>2022-07-09T08:12:35Z</time>
      </trkpt>
      <trkpt lat="47.41493" lon="-1.5288">
        <ele>62</ele>
        <time>2022-07-09T08:12:37Z</time>
      </trkpt>
      <trkpt lat="47.41501" lon="-1.52866">
        <ele>62</ele>
        <time>2022-07-09T08:12:39Z</time>
      </trkpt>
      <trkpt lat="47.41509" lon="-1.52853">
        <ele>62</ele>
        <time>2022-07-09T08:12:41Z</time>
      </trkpt>
      <trkpt lat="47.41518" lon="-1.52839">
        <ele>62</ele>
        <time>2022-07-09T08:12:43Z</time>
      </trkpt>
      <trkpt lat="47.41526" lon="-1.52825">
        <ele>62</ele>
        <time>2022-07-09T08:12:45Z</time>
      </trkpt>
      <trkpt lat="47.41534" lon="-1.5281">
        <ele>62</ele>
        <time>2022-07-09T08:12:47Z</time>
      </trkpt>
      <trkpt lat="47.41542" lon="-1.52795">
        <ele>62</ele>
        <time>2022-07-09T08:12:49Z</time>
      </trkpt>
      <trkpt lat="47.41549" lon="-1.5278">
        <ele>62</ele>
        <time>2022-07-09T08:12:51Z</time>
      </trkpt>
      <trkpt lat="47.41556" lon="-1.52764">
        <ele>62</ele>
        <time>2022-07-09T08:12:53Z</time>
      </trkpt>
      <trkpt lat="47.41564" lon="-1.52749">
        <ele>62</ele>
        <time>2022-07-09T08:12:55Z</time>
      </trkpt>
      <trkpt lat="47.41571" lon="-1.52734">
        <ele>62</ele>
        <time>2022-07-09T08:12:57Z</time>
      </trkpt>
      <trkpt lat="47.41578" lon="-1.52718">
        <ele>62</ele>
        <time>2022-07-09T08:12:59Z</time>
      </trkpt>
      <trkpt lat="47.41585" lon="-1.52703">
        <ele>63</ele>
        <time>2022-07-09T08:13:01Z</time>
      </trkpt>
      <trkpt lat="47.41592" lon="-1.52687">
        <ele>62</ele>
        <time>2022-07-09T08:13:03Z</time>
      </trkpt>
      <trkpt lat="47.41599" lon="-1.52671">
        <ele>62</ele>
        <time>2022-07-09T08:13:05Z</time>
      </trkpt>
      <trkpt lat="47.41605" lon="-1.52655">
        <ele>62</ele>
        <time>2022-07-09T08:13:07Z</time>
      </trkpt>
      <trkpt lat="47.41612" lon="-1.52638">
        <ele>62</ele>
        <time>2022-07-09T08:13:09Z</time>
      </trkpt>
      <trkpt lat="47.41618" lon="-1.52622">
        <ele>62</ele>
        <time>2022-07-09T08:13:11Z</time>
      </trkpt>
      <trkpt lat="47.41625" lon="-1.52605">
        <ele>62</ele>
        <time>2022-07-09T08:13:13Z</time>
      </trkpt>
      <trkpt lat="47.41631" lon="-1.52588">
        <ele>62</ele>
        <time>2022-07-09T08:13:15Z</time>
      </trkpt>
      <trkpt lat="47.41638" lon="-1.5257">
        <ele>62</ele>
        <time>2022-07-09T08:13:17Z</time>
      </trkpt>
      <trkpt lat="47.41645" lon="-1.52553">
        <ele>62</ele>
        <time>2022-07-09T08:13:19Z</time>
      </trkpt>
      <trkpt lat="47.41651" lon="-1.52536">
        <ele>62</ele>
        <time>2022-07-09T08:13:21Z</time>
      </trkpt>
      <trkpt lat="47.41658" lon="-1.52519">
        <ele>62</ele>
        <time>2022-07-09T08:13:23Z</time>
      </trkpt>
      <trkpt lat="47.41664" lon="-1.52501">
        <ele>62</ele>
        <time>2022-07-09T08:13:25Z</time>
      </trkpt>
      <trkpt lat="47.41671" lon="-1.52484">
        <ele>63</ele>
        <time>2022-07-09T08:13:27Z</time>
      </trkpt>
      <trkpt lat="47.41677" lon="-1.52466">
        <ele>63</ele>
        <time>2022-07-09T08:13:29Z</time>
      </trkpt>
      <trkpt lat="47.41684" lon="-1.52449">
        <ele>63</ele>
        <time>2022-07-09T08:13:31Z</time>
      </trkpt>
      <trkpt lat="47.4169" lon="-1.52431">
        <ele>63</ele>
        <time>2022-07-09T08:13:33Z</time>
      </trkpt>
      <trkpt lat="47.41697" lon="-1.52414">
        <ele>63</ele>
        <time>2022-07-09T08:13:35Z</time>
      </trkpt>
      <trkpt lat="47.41704" lon="-1.52396">
        <ele>63</ele>
        <time>2022-07-09T08:13:37Z</time>
      </trkpt>
      <trkpt lat="47.4171" lon="-1.52379">
        <ele>64</ele>
        <time>2022-07-09T08:13:39Z</time>
      </trkpt>
      <trkpt lat="47.41717" lon="-1.52361">
        <ele>64</ele>
        <time>2022-07-09T08:13:41Z</time>
      </trkpt>
      <trkpt lat="47.41723" lon="-1.52344">
        <ele>64</ele>
        <time>2022-07-09T08:13:43Z</time>
      </trkpt>
      <trkpt lat="47.4173" lon="-1.52326">
        <ele>64</ele>
        <time>2022-07-09T08:13:45Z</time>
      </trkpt>
      <trkpt lat="47.41737" lon="-1.52308">
        <ele>64</ele>
        <time>2022-07-09T08:13:47Z</time>
      </trkpt>
      <trkpt lat="47.41744" lon="-1.5229">
        <ele>64</ele>
        <time>2022-07-09T08:13:49Z</time>
      </trkpt>
      <trkpt lat="47.4175" lon="-1.52271">
        <ele>64</ele>
        <time>2022-07-09T08:13:51Z</time>
      </trkpt>
      <trkpt lat="47.41758" lon="-1.52252">
        <ele>64</ele>
        <time>2022-07-09T08:13:53Z</time>
      </trkpt>
      <trkpt lat="47.41764" lon="-1.52233">
        <ele>64</ele>
        <time>2022-07-09T08:13:55Z</time>
      </trkpt>
      <trkpt lat="47.41771" lon="-1.52214">
        <ele>63</ele>
        <time>2022-07-09T08:13:57Z</time>
      </trkpt>
      <trkpt lat="47.41778" lon="-1.52196">
        <ele>63</ele>
        <time>2022-07-09T08:13:59Z</time>
      </trkpt>
      <trkpt lat="47.41786" lon="-1.52176">
        <ele>63</ele>
        <time>2022-07-09T08:14:01Z</time>
      </trkpt>
      <trkpt lat="47.41793" lon="-1.52157">
        <ele>63</ele>
        <time>2022-07-09T08:14:03Z</time>
      </trkpt>
      <trkpt lat="47.418" lon="-1.52139">
        <ele>62</ele>
        <time>2022-07-09T08:14:05Z</time>
      </trkpt>
      <trkpt lat="47.41807" lon="-1.52119">
        <ele>62</ele>
        <time>2022-07-09T08:14:07Z</time>
      </trkpt>
      <trkpt lat="47.41814" lon="-1.52101">
        <ele>62</ele>
        <time>2022-07-09T08:14:09Z</time>
      </trkpt>
      <trkpt lat="47.41821" lon="-1.52082">
        <ele>62</ele>
        <time>2022-07-09T08:14:11Z</time>
      </trkpt>
      <trkpt lat="47.41828" lon="-1.52063">
        <ele>62</ele>
        <time>2022-07-09T08:14:13Z</time>
      </trkpt>
      <trkpt lat="47.41835" lon="-1.52044">
        <ele>61</ele>
        <time>2022-07-09T08:14:15Z</time>
      </trkpt>
      <trkpt lat="47.41842" lon="-1.52025">
        <ele>61</ele>
        <time>2022-07-09T08:14:17Z</time>
      </trkpt>
      <trkpt lat="47.41849" lon="-1.52006">
        <ele>61</ele>
        <time>2022-07-09T08:14:19Z</time>
      </trkpt>
      <trkpt lat="47.41856" lon="-1.51987">
        <ele>61</ele>
        <time>2022-07-09T08:14:21Z</time>
      </trkpt>
      <trkpt lat="47.41863" lon="-1.51968">
        <ele>60</ele>
        <time>2022-07-09T08:14:23Z</time>
      </trkpt>
      <trkpt lat="47.4187" lon="-1.5195">
        <ele>60</ele>
        <time>2022-07-09T08:14:25Z</time>
      </trkpt>
      <trkpt lat="47.41877" lon="-1.51931">
        <ele>61</ele>
        <time>2022-07-09T08:14:27Z</time>
      </trkpt>
      <trkpt lat="47.41884" lon="-1.51913">
        <ele>61</ele>
        <time>2022-07-09T08:14:29Z</time>
      </trkpt>
      <trkpt lat="47.4189" lon="-1.51895">
        <ele>61</ele>
        <time>2022-07-09T08:14:31Z</time>
      </trkpt>
      <trkpt lat="47.41897" lon="-1.51876">
        <ele>61</ele>
        <time>2022-07-09T08:14:33Z</time>
      </trkpt>
      <trkpt lat="47.41904" lon="-1.51858">
        <ele>61</ele>
        <time>2022-07-09T08:14:35Z</time>
      </trkpt>
      <trkpt lat="47.41912" lon="-1.5184">
        <ele>61</ele>
        <time>2022-07-09T08:14:37Z</time>
      </trkpt>
      <trkpt lat="47.4192" lon="-1.51821">
        <ele>61</ele>
        <time>2022-07-09T08:14:39Z</time>
      </trkpt>
      <trkpt lat="47.41927" lon="-1.51802">
        <ele>61</ele>
        <time>2022-07-09T08:14:41Z</time>
      </trkpt>
      <trkpt lat="47.41935" lon="-1.51783">
        <ele>61</ele>
        <time>2022-07-09T08:14:43Z</time>
      </trkpt>
      <trkpt lat="47.41944" lon="-1.51763">
        <ele>61</ele>
        <time>2022-07-09T08:14:45Z</time>
      </trkpt>
      <trkpt lat="47.41952" lon="-1.51744">
        <ele>62</ele>
        <time>2022-07-09T08:14:47Z</time>
      </trkpt>
      <trkpt lat="47.41961" lon="-1.51724">
        <ele>62</ele>
        <time>2022-07-09T08:14:49Z</time>
      </trkpt>
      <trkpt lat="47.41969" lon="-1.51706">
        <ele>62</ele>
        <time>2022-07-09T08:14:51Z</time>
      </trkpt>
      <trkpt lat="47.41978" lon="-1.51689">
        <ele>62</ele>
        <time>2022-07-09T08:14:53Z</time>
      </trkpt>
      <trkpt lat="47.41987" lon="-1.51673">
        <ele>62</ele>
        <time>2022-07-09T08:14:55Z</time>
      </trkpt>
      <trkpt lat="47.41995" lon="-1.5166">
        <ele>62</ele>
        <time>2022-07-09T08:14:57Z</time>
      </trkpt>
      <trkpt lat="47.42003" lon="-1.51646">
        <ele>62</ele>
        <time>2022-07-09T08:14:59Z</time>
      </trkpt>
      <trkpt lat="47.42011" lon="-1.51633">
        <ele>61</ele>
        <time>2022-07-09T08:15:01Z</time>
      </trkpt>
      <trkpt lat="47.4202" lon="-1.5162">
        <ele>61</ele>
        <time>2022-07-09T08:15:03Z</time>
      </trkpt>
      <trkpt lat="47.42029" lon="-1.51607">
        <ele>61</ele>
        <time>2022-07-09T08:15:05Z</time>
      </trkpt>
      <trkpt lat="47.42037" lon="-1.51593">
        <ele>61</ele>
        <time>2022-07-09T08:15:07Z</time>
      </trkpt>
      <trkpt lat="47.42047" lon="-1.5158">
        <ele>61</ele>
        <time>2022-07-09T08:15:09Z</time>
      </trkpt>
      <trkpt lat="47.42055" lon="-1.51566">
        <ele>61</ele>
        <time>2022-07-09T08:15:11Z</time>
      </trkpt>
      <trkpt lat="47.42064" lon="-1.51553">
        <ele>60</ele>
        <time>2022-07-09T08:15:13Z</time>
      </trkpt>
      <trkpt lat="47.42073" lon="-1.51539">
        <ele>60</ele>
        <time>2022-07-09T08:15:15Z</time>
      </trkpt>
      <trkpt lat="47.4208" lon="-1.51526">
        <ele>60</ele>
        <time>2022-07-09T08:15:17Z</time>
      </trkpt>
      <trkpt lat="47.42089" lon="-1.51512">
        <ele>60</ele>
        <time>2022-07-09T08:15:19Z</time>
      </trkpt>
      <trkpt lat="47.42096" lon="-1.51497">
        <ele>60</ele>
        <time>2022-07-09T08:15:21Z</time>
      </trkpt>
      <trkpt lat="47.42105" lon="-1.51483">
        <ele>60</ele>
        <time>2022-07-09T08:15:23Z</time>
      </trkpt>
      <trkpt lat="47.42112" lon="-1.51468">
        <ele>60</ele>
        <time>2022-07-09T08:15:25Z</time>
      </trkpt>
      <trkpt lat="47.42119" lon="-1.51453">
        <ele>60</ele>
        <time>2022-07-09T08:15:27Z</time>
      </trkpt>
      <trkpt lat="47.42126" lon="-1.51439">
        <ele>60</ele>
        <time>2022-07-09T08:15:29Z</time>
      </trkpt>
      <trkpt lat="47.42133" lon="-1.51424">
        <ele>61</ele>
        <time>2022-07-09T08:15:31Z</time>
      </trkpt>
      <trkpt lat="47.4214" lon="-1.51409">
        <ele>60</ele>
        <time>2022-07-09T08:15:33Z</time>
      </trkpt>
      <trkpt lat="47.42146" lon="-1.51393">
        <ele>61</ele>
        <time>2022-07-09T08:15:35Z</time>
      </trkpt>
      <trkpt lat="47.42153" lon="-1.51378">
        <ele>61</ele>
        <time>2022-07-09T08:15:37Z</time>
      </trkpt>
      <trkpt lat="47.42159" lon="-1.51363">
        <ele>60</ele>
        <time>2022-07-09T08:15:39Z</time>
      </trkpt>
      <trkpt lat="47.42165" lon="-1.51348">
        <ele>61</ele>
        <time>2022-07-09T08:15:41Z</time>
      </trkpt>
      <trkpt lat="47.42172" lon="-1.51333">
        <ele>61</ele>
        <time>2022-07-09T08:15:43Z</time>
      </trkpt>
      <trkpt lat="47.42178" lon="-1.51318">
        <ele>61</ele>
        <time>2022-07-09T08:15:45Z</time>
      </trkpt>
      <trkpt lat="47.42185" lon="-1.51303">
        <ele>61</ele>
        <time>2022-07-09T08:15:47Z</time>
      </trkpt>
      <trkpt lat="47.42191" lon="-1.51289">
        <ele>61</ele>
        <time>2022-07-09T08:15:49Z</time>
      </trkpt>
      <trkpt lat="47.42198" lon="-1.51273">
        <ele>61</ele>
        <time>2022-07-09T08:15:51Z</time>
      </trkpt>
      <trkpt lat="47.42205" lon="-1.51258">
        <ele>61</ele>
        <time>2022-07-09T08:15:53Z</time>
      </trkpt>
      <trkpt lat="47.42211" lon="-1.51244">
        <ele>61</ele>
        <time>2022-07-09T08:15:55Z</time>
      </trkpt>
      <trkpt lat="47.42217" lon="-1.51228">
        <ele>61</ele>
        <time>2022-07-09T08:15:57Z</time>
      </trkpt>
      <trkpt lat="47.42224" lon="-1.51214">
        <ele>62</ele>
        <time>2022-07-09T08:15:59Z</time>
      </trkpt>
      <trkpt lat="47.42231" lon="-1.51199">
        <ele>62</ele>
        <time>2022-07-09T08:16:01Z</time>
      </trkpt>
      <trkpt lat="47.42238" lon="-1.51183">
        <ele>62</ele>
        <time>2022-07-09T08:16:03Z</time>
      </trkpt>
      <trkpt lat="47.42245" lon="-1.51168">
        <ele>62</ele>
        <time>2022-07-09T08:16:05Z</time>
      </trkpt>
      <trkpt lat="47.42252" lon="-1.51152">
        <ele>61</ele>
        <time>2022-07-09T08:16:07Z</time>
      </trkpt>
      <trkpt lat="47.42259" lon="-1.51137">
        <ele>62</ele>
        <time>2022-07-09T08:16:09Z</time>
      </trkpt>
      <trkpt lat="47.42264" lon="-1.51121">
        <ele>62</ele>
        <time>2022-07-09T08:16:11Z</time>
      </trkpt>
      <trkpt lat="47.42271" lon="-1.51106">
        <ele>62</ele>
        <time>2022-07-09T08:16:13Z</time>
      </trkpt>
      <trkpt lat="47.42277" lon="-1.51091">
        <ele>62</ele>
        <time>2022-07-09T08:16:15Z</time>
      </trkpt>
      <trkpt lat="47.42283" lon="-1.51076">
        <ele>62</ele>
        <time>2022-07-09T08:16:17Z</time>
      </trkpt>
      <trkpt lat="47.4229" lon="-1.51061">
        <ele>62</ele>
        <time>2022-07-09T08:16:19Z</time>
      </trkpt>
      <trkpt lat="47.42297" lon="-1.51046">
        <ele>62</ele>
        <time>2022-07-09T08:16:21Z</time>
      </trkpt>
      <trkpt lat="47.42303" lon="-1.51031">
        <ele>62</ele>
        <time>2022-07-09T08:16:23Z</time>
      </trkpt>
      <trkpt lat="47.42309" lon="-1.51016">
        <ele>62</ele>
        <time>2022-07-09T08:16:25Z</time>
      </trkpt>
      <trkpt lat="47.42315" lon="-1.51003">
        <ele>62</ele>
        <time>2022-07-09T08:16:27Z</time>
      </trkpt>
      <trkpt lat="47.42322" lon="-1.50989">
        <ele>62</ele>
        <time>2022-07-09T08:16:29Z</time>
      </trkpt>
      <trkpt lat="47.4233" lon="-1.50973">
        <ele>62</ele>
        <time>2022-07-09T08:16:31Z</time>
      </trkpt>
      <trkpt lat="47.42338" lon="-1.50956">
        <ele>62</ele>
        <time>2022-07-09T08:16:33Z</time>
      </trkpt>
      <trkpt lat="47.42345" lon="-1.50938">
        <ele>62</ele>
        <time>2022-07-09T08:16:35Z</time>
      </trkpt>
      <trkpt lat="47.42353" lon="-1.5092">
        <ele>62</ele>
        <time>2022-07-09T08:16:37Z</time>
      </trkpt>
      <trkpt lat="47.42361" lon="-1.50904">
        <ele>62</ele>
        <time>2022-07-09T08:16:39Z</time>
      </trkpt>
      <trkpt lat="47.4237" lon="-1.50888">
        <ele>62</ele>
        <time>2022-07-09T08:16:41Z</time>
      </trkpt>
      <trkpt lat="47.42381" lon="-1.50873">
        <ele>62</ele>
        <time>2022-07-09T08:16:43Z</time>
      </trkpt>
      <trkpt lat="47.42391" lon="-1.50859">
        <ele>63</ele>
        <time>2022-07-09T08:16:45Z</time>
      </trkpt>
      <trkpt lat="47.42403" lon="-1.50846">
        <ele>62</ele>
        <time>2022-07-09T08:16:47Z</time>
      </trkpt>
      <trkpt lat="47.42416" lon="-1.50835">
        <ele>62</ele>
        <time>2022-07-09T08:16:49Z</time>
      </trkpt>
      <trkpt lat="47.42428" lon="-1.50824">
        <ele>62</ele>
        <time>2022-07-09T08:16:51Z</time>
      </trkpt>
      <trkpt lat="47.42441" lon="-1.50813">
        <ele>62</ele>
        <time>2022-07-09T08:16:53Z</time>
      </trkpt>
      <trkpt lat="47.42453" lon="-1.50802">
        <ele>62</ele>
        <time>2022-07-09T08:16:55Z</time>
      </trkpt>
      <trkpt lat="47.42465" lon="-1.50792">
        <ele>62</ele>
        <time>2022-07-09T08:16:57Z</time>
      </trkpt>
      <trkpt lat="47.42478" lon="-1.50782">
        <ele>61</ele>
        <time>2022-07-09T08:16:59Z</time>
      </trkpt>
      <trkpt lat="47.42491" lon="-1.50771">
        <ele>62</ele>
        <time>2022-07-09T08:17:01Z</time>
      </trkpt>
      <trkpt lat="47.42503" lon="-1.5076">
        <ele>62</ele>
        <time>2022-07-09T08:17:03Z</time>
      </trkpt>
      <trkpt lat="47.42516" lon="-1.5075">
        <ele>62</ele>
        <time>2022-07-09T08:17:05Z</time>
      </trkpt>
      <trkpt lat="47.42529" lon="-1.5074">
        <ele>62</ele>
        <time>2022-07-09T08:17:07Z</time>
      </trkpt>
      <trkpt lat="47.42542" lon="-1.50729">
        <ele>62</ele>
        <time>2022-07-09T08:17:09Z</time>
      </trkpt>
      <trkpt lat="47.42554" lon="-1.50719">
        <ele>62</ele>
        <time>2022-07-09T08:17:11Z</time>
      </trkpt>
      <trkpt lat="47.42567" lon="-1.50709">
        <ele>62</ele>
        <time>2022-07-09T08:17:13Z</time>
      </trkpt>
      <trkpt lat="47.4258" lon="-1.50698">
        <ele>61</ele>
        <time>2022-07-09T08:17:15Z</time>
      </trkpt>
      <trkpt lat="47.42592" lon="-1.50687">
        <ele>62</ele>
        <time>2022-07-09T08:17:17Z</time>
      </trkpt>
      <trkpt lat="47.42605" lon="-1.50677">
        <ele>62</ele>
        <time>2022-07-09T08:17:19Z</time>
      </trkpt>
      <trkpt lat="47.42619" lon="-1.50666">
        <ele>62</ele>
        <time>2022-07-09T08:17:21Z</time>
      </trkpt>
      <trkpt lat="47.42632" lon="-1.50656">
        <ele>62</ele>
        <time>2022-07-09T08:17:23Z</time>
      </trkpt>
      <trkpt lat="47.42645" lon="-1.50646">
        <ele>62</ele>
        <time>2022-07-09T08:17:25Z</time>
      </trkpt>
      <trkpt lat="47.42658" lon="-1.50636">
        <ele>62</ele>
        <time>2022-07-09T08:17:27Z</time>
      </trkpt>
      <trkpt lat="47.4267" lon="-1.50625">
        <ele>62</ele>
        <time>2022-07-09T08:17:29Z</time>
      </trkpt>
      <trkpt lat="47.42683" lon="-1.50615">
        <ele>62</ele>
        <time>2022-07-09T08:17:31Z</time>
      </trkpt>
      <trkpt lat="47.42695" lon="-1.50605">
        <ele>62</ele>
        <time>2022-07-09T08:17:33Z</time>
      </trkpt>
      <trkpt lat="47.42707" lon="-1.50595">
        <ele>62</ele>
        <time>2022-07-09T08:17:35Z</time>
      </trkpt>
      <trkpt lat="47.4272" lon="-1.50585">
        <ele>62</ele>
        <time>2022-07-09T08:17:37Z</time>
      </trkpt>
      <trkpt lat="47.42733" lon="-1.50574">
        <ele>62</ele>
        <time>2022-07-09T08:17:39Z</time>
      </trkpt>
      <trkpt lat="47.42745" lon="-1.50564">
        <ele>62</ele>
        <time>2022-07-09T08:17:41Z</time>
      </trkpt>
      <trkpt lat="47.42758" lon="-1.50553">
        <ele>62</ele>
        <time>2022-07-09T08:17:43Z</time>
      </trkpt>
      <trkpt lat="47.42771" lon="-1.50542">
        <ele>62</ele>
        <time>2022-07-09T08:17:45Z</time>
      </trkpt>
      <trkpt lat="47.42784" lon="-1.50531">
        <ele>62</ele>
        <time>2022-07-09T08:17:47Z</time>
      </trkpt>
      <trkpt lat="47.42796" lon="-1.50521">
        <ele>62</ele>
        <time>2022-07-09T08:17:49Z</time>
      </trkpt>
      <trkpt lat="47.42808" lon="-1.50511">
        <ele>62</ele>
        <time>2022-07-09T08:17:51Z</time>
      </trkpt>
      <trkpt lat="47.42821" lon="-1.50501">
        <ele>61</ele>
        <time>2022-07-09T08:17:53Z</time>
      </trkpt>
      <trkpt lat="47.42833" lon="-1.50491">
        <ele>61</ele>
        <time>2022-07-09T08:17:55Z</time>
      </trkpt>
      <trkpt lat="47.42846" lon="-1.50481">
        <ele>61</ele>
        <time>2022-07-09T08:17:57Z</time>
      </trkpt>
      <trkpt lat="47.42858" lon="-1.50471">
        <ele>61</ele>
        <time>2022-07-09T08:17:59Z</time>
      </trkpt>
      <trkpt lat="47.4287" lon="-1.50461">
        <ele>61</ele>
        <time>2022-07-09T08:18:01Z</time>
      </trkpt>
      <trkpt lat="47.42883" lon="-1.50451">
        <ele>61</ele>
        <time>2022-07-09T08:18:03Z</time>
      </trkpt>
      <trkpt lat="47.42895" lon="-1.50441">
        <ele>61</ele>
        <time>2022-07-09T08:18:05Z</time>
      </trkpt>
      <trkpt lat="47.42907" lon="-1.50431">
        <ele>61</ele>
        <time>2022-07-09T08:18:07Z</time>
      </trkpt>
      <trkpt lat="47.4292" lon="-1.5042">
        <ele>61</ele>
        <time>2022-07-09T08:18:09Z</time>
      </trkpt>
      <trkpt lat="47.42932" lon="-1.5041">
        <ele>61</ele>
        <time>2022-07-09T08:18:11Z</time>
      </trkpt>
      <trkpt lat="47.42944" lon="-1.504">
        <ele>61</ele>
        <time>2022-07-09T08:18:13Z</time>
      </trkpt>
      <trkpt lat="47.42955" lon="-1.5039">
        <ele>61</ele>
        <time>2022-07-09T08:18:15Z</time>
      </trkpt>
      <trkpt lat="47.42967" lon="-1.50381">
        <ele>61</ele>
        <time>2022-07-09T08:18:17Z</time>
      </trkpt>
      <trkpt lat="47.4298" lon="-1.50372">
        <ele>61</ele>
        <time>2022-07-09T08:18:19Z</time>
      </trkpt>
      <trkpt lat="47.42993" lon="-1.50368">
        <ele>61</ele>
        <time>2022-07-09T08:18:21Z</time>
      </trkpt>
      <trkpt lat="47.43005" lon="-1.50366">
        <ele>60</ele>
        <time>2022-07-09T08:18:23Z</time>
      </trkpt>
      <trkpt lat="47.43018" lon="-1.50363">
        <ele>60</ele>
        <time>2022-07-09T08:18:25Z</time>
      </trkpt>
      <trkpt lat="47.43031" lon="-1.50362">
        <ele>61</ele>
        <time>2022-07-09T08:18:27Z</time>
      </trkpt>
      <trkpt lat="47.43044" lon="-1.50361">
        <ele>61</ele>
        <time>2022-07-09T08:18:29Z</time>
      </trkpt>
      <trkpt lat="47.43057" lon="-1.50359">
        <ele>62</ele>
        <time>2022-07-09T08:18:31Z</time>
      </trkpt>
      <trkpt lat="47.43068" lon="-1.50353">
        <ele>62</ele>
        <time>2022-07-09T08:18:33Z</time>
      </trkpt>
      <trkpt lat="47.43079" lon="-1.50342">
        <ele>63</ele>
        <time>2022-07-09T08:18:35Z</time>
      </trkpt>
      <trkpt lat="47.43086" lon="-1.50327">
        <ele>63</ele>
        <time>2022-07-09T08:18:37Z</time>
      </trkpt>
      <trkpt lat="47.43092" lon="-1.50309">
        <ele>63</ele>
        <time>2022-07-09T08:18:39Z</time>
      </trkpt>
      <trkpt lat="47.43098" lon="-1.50291">
        <ele>63</ele>
        <time>2022-07-09T08:18:41Z</time>
      </trkpt>
      <trkpt lat="47.43105" lon="-1.50275">
        <ele>63</ele>
        <time>2022-07-09T08:18:43Z</time>
      </trkpt>
      <trkpt lat="47.43115" lon="-1.50261">
        <ele>63</ele>
        <time>2022-07-09T08:18:45Z</time>
      </trkpt>
      <trkpt lat="47.43127" lon="-1.5025">
        <ele>62</ele>
        <time>2022-07-09T08:18:47Z</time>
      </trkpt>
      <trkpt lat="47.43138" lon="-1.5024">
        <ele>63</ele>
        <time>2022-07-09T08:18:49Z</time>
      </trkpt>
      <trkpt lat="47.4315" lon="-1.50231">
        <ele>63</ele>
        <time>2022-07-09T08:18:51Z</time>
      </trkpt>
      <trkpt lat="47.43161" lon="-1.50221">
        <ele>63</ele>
        <time>2022-07-09T08:18:53Z</time>
      </trkpt>
      <trkpt lat="47.43173" lon="-1.50212">
        <ele>63</ele>
        <time>2022-07-09T08:18:55Z</time>
      </trkpt>
      <trkpt lat="47.43185" lon="-1.50202">
        <ele>63</ele>
        <time>2022-07-09T08:18:57Z</time>
      </trkpt>
      <trkpt lat="47.43196" lon="-1.50192">
        <ele>63</ele>
        <time>2022-07-09T08:18:59Z</time>
      </trkpt>
      <trkpt lat="47.43208" lon="-1.50182">
        <ele>63</ele>
        <time>2022-07-09T08:19:01Z</time>
      </trkpt>
      <trkpt lat="47.4322" lon="-1.50172">
        <ele>63</ele>
        <time>2022-07-09T08:19:03Z</time>
      </trkpt>
      <trkpt lat="47.43232" lon="-1.50162">
        <ele>63</ele>
        <time>2022-07-09T08:19:05Z</time>
      </trkpt>
      <trkpt lat="47.43244" lon="-1.50152">
        <ele>63</ele>
        <time>2022-07-09T08:19:07Z</time>
      </trkpt>
      <trkpt lat="47.43256" lon="-1.50142">
        <ele>63</ele>
        <time>2022-07-09T08:19:09Z</time>
      </trkpt>
      <trkpt lat="47.43268" lon="-1.50133">
        <ele>63</ele>
        <time>2022-07-09T08:19:11Z</time>
      </trkpt>
      <trkpt lat="47.4328" lon="-1.50123">
        <ele>63</ele>
        <time>2022-07-09T08:19:13Z</time>
      </trkpt>
      <trkpt lat="47.43291" lon="-1.50113">
        <ele>63</ele>
        <time>2022-07-09T08:19:15Z</time>
      </trkpt>
      <trkpt lat="47.43303" lon="-1.50103">
        <ele>63</ele>
        <time>2022-07-09T08:19:17Z</time>
      </trkpt>
      <trkpt lat="47.43315" lon="-1.50093">
        <ele>63</ele>
        <time>2022-07-09T08:19:19Z</time>
      </trkpt>
      <trkpt lat="47.43326" lon="-1.50083">
        <ele>63</ele>
        <time>2022-07-09T08:19:21Z</time>
      </trkpt>
      <trkpt lat="47.43338" lon="-1.50074">
        <ele>62</ele>
        <time>2022-07-09T08:19:23Z</time>
      </trkpt>
      <trkpt lat="47.4335" lon="-1.50064">
        <ele>62</ele>
        <time>2022-07-09T08:19:25Z</time>
      </trkpt>
      <trkpt lat="47.43362" lon="-1.50055">
        <ele>61</ele>
        <time>2022-07-09T08:19:27Z</time>
      </trkpt>
      <trkpt lat="47.43374" lon="-1.50046">
        <ele>61</ele>
        <time>2022-07-09T08:19:29Z</time>
      </trkpt>
      <trkpt lat="47.43386" lon="-1.50036">
        <ele>61</ele>
        <time>2022-07-09T08:19:31Z</time>
      </trkpt>
      <trkpt lat="47.43399" lon="-1.50027">
        <ele>60</ele>
        <time>2022-07-09T08:19:33Z</time>
      </trkpt>
      <trkpt lat="47.43412" lon="-1.50018">
        <ele>60</ele>
        <time>2022-07-09T08:19:35Z</time>
      </trkpt>
      <trkpt lat="47.43425" lon="-1.50009">
        <ele>60</ele>
        <time>2022-07-09T08:19:37Z</time>
      </trkpt>
      <trkpt lat="47.43438" lon="-1.5">
        <ele>59</ele>
        <time>2022-07-09T08:19:39Z</time>
      </trkpt>
      <trkpt lat="47.43453" lon="-1.49995">
        <ele>59</ele>
        <time>2022-07-09T08:19:41Z</time>
      </trkpt>
      <trkpt lat="47.43467" lon="-1.49992">
        <ele>58</ele>
        <time>2022-07-09T08:19:43Z</time>
      </trkpt>
      <trkpt lat="47.43481" lon="-1.49989">
        <ele>58</ele>
        <time>2022-07-09T08:19:45Z</time>
      </trkpt>
      <trkpt lat="47.43496" lon="-1.49986">
        <ele>58</ele>
        <time>2022-07-09T08:19:47Z</time>
      </trkpt>
      <trkpt lat="47.4351" lon="-1.49985">
        <ele>57</ele>
        <time>2022-07-09T08:19:49Z</time>
      </trkpt>
      <trkpt lat="47.43523" lon="-1.49984">
        <ele>57</ele>
        <time>2022-07-09T08:19:51Z</time>
      </trkpt>
      <trkpt lat="47.43537" lon="-1.49985">
        <ele>57</ele>
        <time>2022-07-09T08:19:53Z</time>
      </trkpt>
      <trkpt lat="47.43552" lon="-1.49988">
        <ele>57</ele>
        <time>2022-07-09T08:19:55Z</time>
      </trkpt>
      <trkpt lat="47.43565" lon="-1.49993">
        <ele>57</ele>
        <time>2022-07-09T08:19:57Z</time>
      </trkpt>
      <trkpt lat="47.43579" lon="-1.49998">
        <ele>57</ele>
        <time>2022-07-09T08:19:59Z</time>
      </trkpt>
      <trkpt lat="47.43592" lon="-1.50002">
        <ele>58</ele>
        <time>2022-07-09T08:20:01Z</time>
      </trkpt>
      <trkpt lat="47.43604" lon="-1.50007">
        <ele>58</ele>
        <time>2022-07-09T08:20:03Z</time>
      </trkpt>
      <trkpt lat="47.43617" lon="-1.50011">
        <ele>59</ele>
        <time>2022-07-09T08:20:05Z</time>
      </trkpt>
      <trkpt lat="47.4363" lon="-1.50013">
        <ele>60</ele>
        <time>2022-07-09T08:20:07Z</time>
      </trkpt>
      <trkpt lat="47.43642" lon="-1.50014">
        <ele>60</ele>
        <time>2022-07-09T08:20:09Z</time>
      </trkpt>
      <trkpt lat="47.43654" lon="-1.50016">
        <ele>61</ele>
        <time>2022-07-09T08:20:11Z</time>
      </trkpt>
      <trkpt lat="47.43665" lon="-1.50016">
        <ele>61</ele>
        <time>2022-07-09T08:20:13Z</time>
      </trkpt>
      <trkpt lat="47.43677" lon="-1.50014">
        <ele>62</ele>
        <time>2022-07-09T08:20:15Z</time>
      </trkpt>
      <trkpt lat="47.43689" lon="-1.50011">
        <ele>62</ele>
        <time>2022-07-09T08:20:17Z</time>
      </trkpt>
      <trkpt lat="47.437" lon="-1.50009">
        <ele>62</ele>
        <time>2022-07-09T08:20:19Z</time>
      </trkpt>
      <trkpt lat="47.43712" lon="-1.50006">
        <ele>62</ele>
        <time>2022-07-09T08:20:21Z</time>
      </trkpt>
      <trkpt lat="47.43724" lon="-1.50004">
        <ele>62</ele>
        <time>2022-07-09T08:20:23Z</time>
      </trkpt>
      <trkpt lat="47.43736" lon="-1.50001">
        <ele>63</ele>
        <time>2022-07-09T08:20:25Z</time>
      </trkpt>
      <trkpt lat="47.43748" lon="-1.49999">
        <ele>63</ele>
        <time>2022-07-09T08:20:27Z</time>
      </trkpt>
      <trkpt lat="47.4376" lon="-1.49997">
        <ele>63</ele>
        <time>2022-07-09T08:20:29Z</time>
      </trkpt>
      <trkpt lat="47.4377" lon="-1.49994">
        <ele>63</ele>
        <time>2022-07-09T08:20:31Z</time>
      </trkpt>
      <trkpt lat="47.43779" lon="-1.49988">
        <ele>63</ele>
        <time>2022-07-09T08:20:33Z</time>
      </trkpt>
      <trkpt lat="47.43786" lon="-1.49977">
        <ele>63</ele>
        <time>2022-07-09T08:20:35Z</time>
      </trkpt>
      <trkpt lat="47.4379" lon="-1.4996">
        <ele>63</ele>
        <time>2022-07-09T08:20:37Z</time>
      </trkpt>
      <trkpt lat="47.43794" lon="-1.49942">
        <ele>63</ele>
        <time>2022-07-09T08:20:39Z</time>
      </trkpt>
      <trkpt lat="47.43798" lon="-1.49923">
        <ele>62</ele>
        <time>2022-07-09T08:20:41Z</time>
      </trkpt>
      <trkpt lat="47.43803" lon="-1.49903">
        <ele>61</ele>
        <time>2022-07-09T08:20:43Z</time>
      </trkpt>
      <trkpt lat="47.43808" lon="-1.49883">
        <ele>61</ele>
        <time>2022-07-09T08:20:45Z</time>
      </trkpt>
      <trkpt lat="47.43812" lon="-1.49862">
        <ele>60</ele>
        <time>2022-07-09T08:20:47Z</time>
      </trkpt>
      <trkpt lat="47.43817" lon="-1.49841">
        <ele>59</ele>
        <time>2022-07-09T08:20:49Z</time>
      </trkpt>
      <trkpt lat="47.4382" lon="-1.49819">
        <ele>59</ele>
        <time>2022-07-09T08:20:51Z</time>
      </trkpt>
      <trkpt lat="47.43825" lon="-1.49798">
        <ele>57</ele>
        <time>2022-07-09T08:20:53Z</time>
      </trkpt>
      <trkpt lat="47.43829" lon="-1.49777">
        <ele>57</ele>
        <time>2022-07-09T08:20:55Z</time>
      </trkpt>
      <trkpt lat="47.43833" lon="-1.49757">
        <ele>56</ele>
        <time>2022-07-09T08:20:57Z</time>
      </trkpt>
      <trkpt lat="47.43837" lon="-1.49736">
        <ele>55</ele>
        <time>2022-07-09T08:20:59Z</time>
      </trkpt>
      <trkpt lat="47.43841" lon="-1.49715">
        <ele>55</ele>
        <time>2022-07-09T08:21:01Z</time>
      </trkpt>
      <trkpt lat="47.43845" lon="-1.49696">
        <ele>55</ele>
        <time>2022-07-09T08:21:03Z</time>
      </trkpt>
      <trkpt lat="47.43849" lon="-1.49675">
        <ele>55</ele>
        <time>2022-07-09T08:21:05Z</time>
      </trkpt>
      <trkpt lat="47.43853" lon="-1.49655">
        <ele>55</ele>
        <time>2022-07-09T08:21:07Z</time>
      </trkpt>
      <trkpt lat="47.43857" lon="-1.49636">
        <ele>55</ele>
        <time>2022-07-09T08:21:09Z</time>
      </trkpt>
      <trkpt lat="47.43862" lon="-1.49618">
        <ele>55</ele>
        <time>2022-07-09T08:21:11Z</time>
      </trkpt>
      <trkpt lat="47.43869" lon="-1.49601">
        <ele>54</ele>
        <time>2022-07-09T08:21:13Z</time>
      </trkpt>
      <trkpt lat="47.43881" lon="-1.49593">
        <ele>54</ele>
        <time>2022-07-09T08:21:15Z</time>
      </trkpt>
      <trkpt lat="47.43894" lon="-1.49596">
        <ele>54</ele>
        <time>2022-07-09T08:21:17Z</time>
      </trkpt>
      <trkpt lat="47.43906" lon="-1.49602">
        <ele>54</ele>
        <time>2022-07-09T08:21:19Z</time>
      </trkpt>
      <trkpt lat="47.43917" lon="-1.49607">
        <ele>55</ele>
        <time>2022-07-09T08:21:21Z</time>
      </trkpt>
      <trkpt lat="47.43928" lon="-1.49613">
        <ele>56</ele>
        <time>2022-07-09T08:21:23Z</time>
      </trkpt>
      <trkpt lat="47.43939" lon="-1.49619">
        <ele>57</ele>
        <time>2022-07-09T08:21:25Z</time>
      </trkpt>
      <trkpt lat="47.43949" lon="-1.49624">
        <ele>57</ele>
        <time>2022-07-09T08:21:27Z</time>
      </trkpt>
      <trkpt lat="47.4396" lon="-1.49628">
        <ele>58</ele>
        <time>2022-07-09T08:21:29Z</time>
      </trkpt>
      <trkpt lat="47.43971" lon="-1.49631">
        <ele>59</ele>
        <time>2022-07-09T08:21:31Z</time>
      </trkpt>
      <trkpt lat="47.4398" lon="-1.49629">
        <ele>59</ele>
        <time>2022-07-09T08:21:33Z</time>
      </trkpt>
      <trkpt lat="47.43987" lon="-1.4962">
        <ele>59</ele>
        <time>2022-07-09T08:21:35Z</time>
      </trkpt>
      <trkpt lat="47.43989" lon="-1.49601">
        <ele>59</ele>
        <time>2022-07-09T08:21:38Z</time>
      </trkpt>
      <trkpt lat="47.43989" lon="-1.49585">
        <ele>58</ele>
        <time>2022-07-09T08:21:40Z</time>
      </trkpt>
      <trkpt lat="47.4399" lon="-1.49559">
        <ele>58</ele>
        <time>2022-07-09T08:21:43Z</time>
      </trkpt>
      <trkpt lat="47.4399" lon="-1.49542">
        <ele>58</ele>
        <time>2022-07-09T08:21:45Z</time>
      </trkpt>
      <trkpt lat="47.43991" lon="-1.49527">
        <ele>58</ele>
        <time>2022-07-09T08:21:47Z</time>
      </trkpt>
      <trkpt lat="47.43992" lon="-1.49512">
        <ele>58</ele>
        <time>2022-07-09T08:21:49Z</time>
      </trkpt>
      <trkpt lat="47.43992" lon="-1.49497">
        <ele>59</ele>
        <time>2022-07-09T08:21:51Z</time>
      </trkpt>
      <trkpt lat="47.43993" lon="-1.49481">
        <ele>58</ele>
        <time>2022-07-09T08:21:53Z</time>
      </trkpt>
      <trkpt lat="47.43993" lon="-1.49465">
        <ele>58</ele>
        <time>2022-07-09T08:21:55Z</time>
      </trkpt>
      <trkpt lat="47.4399" lon="-1.49448">
        <ele>58</ele>
        <time>2022-07-09T08:21:58Z</time>
      </trkpt>
      <trkpt lat="47.43997" lon="-1.49422">
        <ele>58</ele>
        <time>2022-07-09T08:22:02Z</time>
      </trkpt>
      <trkpt lat="47.43999" lon="-1.49405">
        <ele>58</ele>
        <time>2022-07-09T08:22:04Z</time>
      </trkpt>
      <trkpt lat="47.44002" lon="-1.49388">
        <ele>57</ele>
        <time>2022-07-09T08:22:06Z</time>
      </trkpt>
      <trkpt lat="47.44006" lon="-1.49371">
        <ele>57</ele>
        <time>2022-07-09T08:22:08Z</time>
      </trkpt>
      <trkpt lat="47.44009" lon="-1.49354">
        <ele>58</ele>
        <time>2022-07-09T08:22:10Z</time>
      </trkpt>
      <trkpt lat="47.44012" lon="-1.49338">
        <ele>58</ele>
        <time>2022-07-09T08:22:12Z</time>
      </trkpt>
      <trkpt lat="47.44014" lon="-1.49321">
        <ele>58</ele>
        <time>2022-07-09T08:22:14Z</time>
      </trkpt>
      <trkpt lat="47.44016" lon="-1.49306">
        <ele>58</ele>
        <time>2022-07-09T08:22:16Z</time>
      </trkpt>
      <trkpt lat="47.44017" lon="-1.49289">
        <ele>59</ele>
        <time>2022-07-09T08:22:18Z</time>
      </trkpt>
      <trkpt lat="47.44018" lon="-1.49272">
        <ele>59</ele>
        <time>2022-07-09T08:22:20Z</time>
      </trkpt>
      <trkpt lat="47.44018" lon="-1.49255">
        <ele>59</ele>
        <time>2022-07-09T08:22:22Z</time>
      </trkpt>
      <trkpt lat="47.44019" lon="-1.49239">
        <ele>59</ele>
        <time>2022-07-09T08:22:24Z</time>
      </trkpt>
      <trkpt lat="47.44019" lon="-1.49224">
        <ele>58</ele>
        <time>2022-07-09T08:22:26Z</time>
      </trkpt>
      <trkpt lat="47.44019" lon="-1.49208">
        <ele>59</ele>
        <time>2022-07-09T08:22:28Z</time>
      </trkpt>
      <trkpt lat="47.44018" lon="-1.49194">
        <ele>59</ele>
        <time>2022-07-09T08:22:30Z</time>
      </trkpt>
      <trkpt lat="47.44017" lon="-1.49178">
        <ele>60</ele>
        <time>2022-07-09T08:22:32Z</time>
      </trkpt>
      <trkpt lat="47.44016" lon="-1.49162">
        <ele>60</ele>
        <time>2022-07-09T08:22:34Z</time>
      </trkpt>
      <trkpt lat="47.44016" lon="-1.49147">
        <ele>61</ele>
        <time>2022-07-09T08:22:36Z</time>
      </trkpt>
      <trkpt lat="47.44017" lon="-1.49131">
        <ele>62</ele>
        <time>2022-07-09T08:22:38Z</time>
      </trkpt>
      <trkpt lat="47.44017" lon="-1.49116">
        <ele>62</ele>
        <time>2022-07-09T08:22:40Z</time>
      </trkpt>
      <trkpt lat="47.44017" lon="-1.49101">
        <ele>63</ele>
        <time>2022-07-09T08:22:42Z</time>
      </trkpt>
      <trkpt lat="47.44017" lon="-1.49086">
        <ele>63</ele>
        <time>2022-07-09T08:22:44Z</time>
      </trkpt>
      <trkpt lat="47.44017" lon="-1.49071">
        <ele>64</ele>
        <time>2022-07-09T08:22:46Z</time>
      </trkpt>
      <trkpt lat="47.44016" lon="-1.49056">
        <ele>64</ele>
        <time>2022-07-09T08:22:48Z</time>
      </trkpt>
      <trkpt lat="47.44016" lon="-1.49042">
        <ele>65</ele>
        <time>2022-07-09T08:22:50Z</time>
      </trkpt>
      <trkpt lat="47.44016" lon="-1.49027">
        <ele>66</ele>
        <time>2022-07-09T08:22:52Z</time>
      </trkpt>
      <trkpt lat="47.44016" lon="-1.49012">
        <ele>66</ele>
        <time>2022-07-09T08:22:54Z</time>
      </trkpt>
      <trkpt lat="47.44018" lon="-1.48998">
        <ele>66</ele>
        <time>2022-07-09T08:22:56Z</time>
      </trkpt>
      <trkpt lat="47.44019" lon="-1.48984">
        <ele>67</ele>
        <time>2022-07-09T08:22:58Z</time>
      </trkpt>
      <trkpt lat="47.44021" lon="-1.48968">
        <ele>67</ele>
        <time>2022-07-09T08:23:00Z</time>
      </trkpt>
      <trkpt lat="47.44023" lon="-1.48952">
        <ele>67</ele>
        <time>2022-07-09T08:23:02Z</time>
      </trkpt>
      <trkpt lat="47.44025" lon="-1.48937">
        <ele>67</ele>
        <time>2022-07-09T08:23:04Z</time>
      </trkpt>
      <trkpt lat="47.44027" lon="-1.48921">
        <ele>67</ele>
        <time>2022-07-09T08:23:06Z</time>
      </trkpt>
      <trkpt lat="47.4403" lon="-1.48905">
        <ele>68</ele>
        <time>2022-07-09T08:23:08Z</time>
      </trkpt>
      <trkpt lat="47.44032" lon="-1.48891">
        <ele>68</ele>
        <time>2022-07-09T08:23:10Z</time>
      </trkpt>
      <trkpt lat="47.44034" lon="-1.48874">
        <ele>69</ele>
        <time>2022-07-09T08:23:12Z</time>
      </trkpt>
      <trkpt lat="47.44036" lon="-1.48858">
        <ele>69</ele>
        <time>2022-07-09T08:23:14Z</time>
      </trkpt>
      <trkpt lat="47.4404" lon="-1.48842">
        <ele>70</ele>
        <time>2022-07-09T08:23:16Z</time>
      </trkpt>
      <trkpt lat="47.44042" lon="-1.48825">
        <ele>70</ele>
        <time>2022-07-09T08:23:18Z</time>
      </trkpt>
      <trkpt lat="47.44043" lon="-1.48809">
        <ele>70</ele>
        <time>2022-07-09T08:23:20Z</time>
      </trkpt>
      <trkpt lat="47.44044" lon="-1.48791">
        <ele>69</ele>
        <time>2022-07-09T08:23:22Z</time>
      </trkpt>
      <trkpt lat="47.44047" lon="-1.48773">
        <ele>68</ele>
        <time>2022-07-09T08:23:24Z</time>
      </trkpt>
      <trkpt lat="47.44051" lon="-1.48756">
        <ele>68</ele>
        <time>2022-07-09T08:23:26Z</time>
      </trkpt>
      <trkpt lat="47.44053" lon="-1.48738">
        <ele>68</ele>
        <time>2022-07-09T08:23:28Z</time>
      </trkpt>
      <trkpt lat="47.44055" lon="-1.48721">
        <ele>67</ele>
        <time>2022-07-09T08:23:30Z</time>
      </trkpt>
      <trkpt lat="47.44057" lon="-1.48702">
        <ele>66</ele>
        <time>2022-07-09T08:23:32Z</time>
      </trkpt>
      <trkpt lat="47.4406" lon="-1.48683">
        <ele>66</ele>
        <time>2022-07-09T08:23:34Z</time>
      </trkpt>
      <trkpt lat="47.44063" lon="-1.48664">
        <ele>66</ele>
        <time>2022-07-09T08:23:36Z</time>
      </trkpt>
      <trkpt lat="47.44065" lon="-1.48645">
        <ele>65</ele>
        <time>2022-07-09T08:23:38Z</time>
      </trkpt>
      <trkpt lat="47.44067" lon="-1.48625">
        <ele>65</ele>
        <time>2022-07-09T08:23:40Z</time>
      </trkpt>
      <trkpt lat="47.44068" lon="-1.48605">
        <ele>65</ele>
        <time>2022-07-09T08:23:42Z</time>
      </trkpt>
      <trkpt lat="47.44069" lon="-1.48586">
        <ele>65</ele>
        <time>2022-07-09T08:23:44Z</time>
      </trkpt>
      <trkpt lat="47.44069" lon="-1.48566">
        <ele>64</ele>
        <time>2022-07-09T08:23:46Z</time>
      </trkpt>
      <trkpt lat="47.44069" lon="-1.48547">
        <ele>64</ele>
        <time>2022-07-09T08:23:48Z</time>
      </trkpt>
      <trkpt lat="47.44069" lon="-1.48527">
        <ele>64</ele>
        <time>2022-07-09T08:23:50Z</time>
      </trkpt>
      <trkpt lat="47.44069" lon="-1.48508">
        <ele>64</ele>
        <time>2022-07-09T08:23:52Z</time>
      </trkpt>
      <trkpt lat="47.44069" lon="-1.48488">
        <ele>64</ele>
        <time>2022-07-09T08:23:54Z</time>
      </trkpt>
      <trkpt lat="47.44069" lon="-1.48469">
        <ele>64</ele>
        <time>2022-07-09T08:23:56Z</time>
      </trkpt>
      <trkpt lat="47.44068" lon="-1.48451">
        <ele>65</ele>
        <time>2022-07-09T08:23:58Z</time>
      </trkpt>
      <trkpt lat="47.44068" lon="-1.48433">
        <ele>65</ele>
        <time>2022-07-09T08:24:00Z</time>
      </trkpt>
      <trkpt lat="47.44072" lon="-1.48416">
        <ele>65</ele>
        <time>2022-07-09T08:24:02Z</time>
      </trkpt>
      <trkpt lat="47.44075" lon="-1.48399">
        <ele>65</ele>
        <time>2022-07-09T08:24:04Z</time>
      </trkpt>
      <trkpt lat="47.44072" lon="-1.48381">
        <ele>66</ele>
        <time>2022-07-09T08:24:06Z</time>
      </trkpt>
      <trkpt lat="47.44071" lon="-1.48363">
        <ele>66</ele>
        <time>2022-07-09T08:24:08Z</time>
      </trkpt>
      <trkpt lat="47.44071" lon="-1.48344">
        <ele>65</ele>
        <time>2022-07-09T08:24:10Z</time>
      </trkpt>
      <trkpt lat="47.44071" lon="-1.48327">
        <ele>65</ele>
        <time>2022-07-09T08:24:12Z</time>
      </trkpt>
      <trkpt lat="47.44072" lon="-1.48309">
        <ele>65</ele>
        <time>2022-07-09T08:24:14Z</time>
      </trkpt>
      <trkpt lat="47.44073" lon="-1.48291">
        <ele>65</ele>
        <time>2022-07-09T08:24:16Z</time>
      </trkpt>
      <trkpt lat="47.44073" lon="-1.48273">
        <ele>64</ele>
        <time>2022-07-09T08:24:18Z</time>
      </trkpt>
      <trkpt lat="47.44073" lon="-1.48254">
        <ele>64</ele>
        <time>2022-07-09T08:24:20Z</time>
      </trkpt>
      <trkpt lat="47.44073" lon="-1.48237">
        <ele>64</ele>
        <time>2022-07-09T08:24:22Z</time>
      </trkpt>
      <trkpt lat="47.44074" lon="-1.48219">
        <ele>64</ele>
        <time>2022-07-09T08:24:24Z</time>
      </trkpt>
      <trkpt lat="47.44075" lon="-1.48201">
        <ele>63</ele>
        <time>2022-07-09T08:24:26Z</time>
      </trkpt>
      <trkpt lat="47.44075" lon="-1.48183">
        <ele>64</ele>
        <time>2022-07-09T08:24:28Z</time>
      </trkpt>
      <trkpt lat="47.44076" lon="-1.48165">
        <ele>64</ele>
        <time>2022-07-09T08:24:30Z</time>
      </trkpt>
      <trkpt lat="47.44076" lon="-1.48146">
        <ele>64</ele>
        <time>2022-07-09T08:24:32Z</time>
      </trkpt>
      <trkpt lat="47.44076" lon="-1.48127">
        <ele>63</ele>
        <time>2022-07-09T08:24:34Z</time>
      </trkpt>
      <trkpt lat="47.44076" lon="-1.48109">
        <ele>63</ele>
        <time>2022-07-09T08:24:36Z</time>
      </trkpt>
      <trkpt lat="47.44077" lon="-1.48094">
        <ele>64</ele>
        <time>2022-07-09T08:24:38Z</time>
      </trkpt>
      <trkpt lat="47.44077" lon="-1.48078">
        <ele>64</ele>
        <time>2022-07-09T08:24:40Z</time>
      </trkpt>
      <trkpt lat="47.44076" lon="-1.48062">
        <ele>64</ele>
        <time>2022-07-09T08:24:42Z</time>
      </trkpt>
      <trkpt lat="47.44073" lon="-1.48046">
        <ele>64</ele>
        <time>2022-07-09T08:24:44Z</time>
      </trkpt>
      <trkpt lat="47.44065" lon="-1.48033">
        <ele>64</ele>
        <time>2022-07-09T08:24:46Z</time>
      </trkpt>
      <trkpt lat="47.44056" lon="-1.48019">
        <ele>64</ele>
        <time>2022-07-09T08:24:48Z</time>
      </trkpt>
      <trkpt lat="47.4405" lon="-1.48003">
        <ele>65</ele>
        <time>2022-07-09T08:24:50Z</time>
      </trkpt>
      <trkpt lat="47.44049" lon="-1.47983">
        <ele>64</ele>
        <time>2022-07-09T08:24:52Z</time>
      </trkpt>
      <trkpt lat="47.44053" lon="-1.47966">
        <ele>64</ele>
        <time>2022-07-09T08:24:54Z</time>
      </trkpt>
      <trkpt lat="47.44059" lon="-1.4795">
        <ele>64</ele>
        <time>2022-07-09T08:24:56Z</time>
      </trkpt>
      <trkpt lat="47.4406" lon="-1.47933">
        <ele>64</ele>
        <time>2022-07-09T08:24:58Z</time>
      </trkpt>
      <trkpt lat="47.44057" lon="-1.47915">
        <ele>63</ele>
        <time>2022-07-09T08:25:00Z</time>
      </trkpt>
      <trkpt lat="47.44053" lon="-1.47897">
        <ele>63</ele>
        <time>2022-07-09T08:25:02Z</time>
      </trkpt>
      <trkpt lat="47.4405" lon="-1.47879">
        <ele>64</ele>
        <time>2022-07-09T08:25:04Z</time>
      </trkpt>
      <trkpt lat="47.44047" lon="-1.4786">
        <ele>64</ele>
        <time>2022-07-09T08:25:06Z</time>
      </trkpt>
      <trkpt lat="47.44044" lon="-1.47841">
        <ele>64</ele>
        <time>2022-07-09T08:25:08Z</time>
      </trkpt>
      <trkpt lat="47.44041" lon="-1.47821">
        <ele>63</ele>
        <time>2022-07-09T08:25:10Z</time>
      </trkpt>
      <trkpt lat="47.44038" lon="-1.47803">
        <ele>63</ele>
        <time>2022-07-09T08:25:12Z</time>
      </trkpt>
      <trkpt lat="47.44035" lon="-1.47784">
        <ele>63</ele>
        <time>2022-07-09T08:25:14Z</time>
      </trkpt>
      <trkpt lat="47.44031" lon="-1.47765">
        <ele>63</ele>
        <time>2022-07-09T08:25:16Z</time>
      </trkpt>
      <trkpt lat="47.44028" lon="-1.47745">
        <ele>63</ele>
        <time>2022-07-09T08:25:18Z</time>
      </trkpt>
      <trkpt lat="47.44025" lon="-1.47726">
        <ele>63</ele>
        <time>2022-07-09T08:25:20Z</time>
      </trkpt>
      <trkpt lat="47.44021" lon="-1.47707">
        <ele>62</ele>
        <time>2022-07-09T08:25:22Z</time>
      </trkpt>
      <trkpt lat="47.44018" lon="-1.47688">
        <ele>62</ele>
        <time>2022-07-09T08:25:24Z</time>
      </trkpt>
      <trkpt lat="47.44014" lon="-1.47669">
        <ele>62</ele>
        <time>2022-07-09T08:25:26Z</time>
      </trkpt>
      <trkpt lat="47.4401" lon="-1.47649">
        <ele>61</ele>
        <time>2022-07-09T08:25:28Z</time>
      </trkpt>
      <trkpt lat="47.44007" lon="-1.4763">
        <ele>61</ele>
        <time>2022-07-09T08:25:30Z</time>
      </trkpt>
      <trkpt lat="47.44003" lon="-1.4761">
        <ele>61</ele>
        <time>2022-07-09T08:25:32Z</time>
      </trkpt>
      <trkpt lat="47.43999" lon="-1.47591">
        <ele>61</ele>
        <time>2022-07-09T08:25:34Z</time>
      </trkpt>
      <trkpt lat="47.43996" lon="-1.4757">
        <ele>61</ele>
        <time>2022-07-09T08:25:36Z</time>
      </trkpt>
      <trkpt lat="47.43992" lon="-1.4755">
        <ele>60</ele>
        <time>2022-07-09T08:25:38Z</time>
      </trkpt>
      <trkpt lat="47.43989" lon="-1.4753">
        <ele>59</ele>
        <time>2022-07-09T08:25:40Z</time>
      </trkpt>
      <trkpt lat="47.43985" lon="-1.4751">
        <ele>60</ele>
        <time>2022-07-09T08:25:42Z</time>
      </trkpt>
      <trkpt lat="47.43981" lon="-1.47489">
        <ele>59</ele>
        <time>2022-07-09T08:25:44Z</time>
      </trkpt>
      <trkpt lat="47.43978" lon="-1.47468">
        <ele>59</ele>
        <time>2022-07-09T08:25:46Z</time>
      </trkpt>
      <trkpt lat="47.43973" lon="-1.47448">
        <ele>59</ele>
        <time>2022-07-09T08:25:48Z</time>
      </trkpt>
      <trkpt lat="47.4397" lon="-1.47428">
        <ele>59</ele>
        <time>2022-07-09T08:25:50Z</time>
      </trkpt>
      <trkpt lat="47.43967" lon="-1.47408">
        <ele>60</ele>
        <time>2022-07-09T08:25:52Z</time>
      </trkpt>
      <trkpt lat="47.43963" lon="-1.47388">
        <ele>60</ele>
        <time>2022-07-09T08:25:54Z</time>
      </trkpt>
      <trkpt lat="47.43959" lon="-1.47368">
        <ele>61</ele>
        <time>2022-07-09T08:25:56Z</time>
      </trkpt>
      <trkpt lat="47.43956" lon="-1.47348">
        <ele>61</ele>
        <time>2022-07-09T08:25:58Z</time>
      </trkpt>
      <trkpt lat="47.43952" lon="-1.47328">
        <ele>62</ele>
        <time>2022-07-09T08:26:00Z</time>
      </trkpt>
      <trkpt lat="47.43949" lon="-1.47307">
        <ele>62</ele>
        <time>2022-07-09T08:26:02Z</time>
      </trkpt>
      <trkpt lat="47.43945" lon="-1.47286">
        <ele>62</ele>
        <time>2022-07-09T08:26:04Z</time>
      </trkpt>
      <trkpt lat="47.43941" lon="-1.47265">
        <ele>63</ele>
        <time>2022-07-09T08:26:06Z</time>
      </trkpt>
      <trkpt lat="47.43938" lon="-1.47244">
        <ele>63</ele>
        <time>2022-07-09T08:26:08Z</time>
      </trkpt>
      <trkpt lat="47.43934" lon="-1.47223">
        <ele>63</ele>
        <time>2022-07-09T08:26:10Z</time>
      </trkpt>
      <trkpt lat="47.43931" lon="-1.47203">
        <ele>63</ele>
        <time>2022-07-09T08:26:12Z</time>
      </trkpt>
      <trkpt lat="47.43927" lon="-1.47183">
        <ele>64</ele>
        <time>2022-07-09T08:26:14Z</time>
      </trkpt>
      <trkpt lat="47.43923" lon="-1.47163">
        <ele>64</ele>
        <time>2022-07-09T08:26:16Z</time>
      </trkpt>
      <trkpt lat="47.4392" lon="-1.47143">
        <ele>64</ele>
        <time>2022-07-09T08:26:18Z</time>
      </trkpt>
      <trkpt lat="47.43916" lon="-1.47124">
        <ele>64</ele>
        <time>2022-07-09T08:26:20Z</time>
      </trkpt>
      <trkpt lat="47.43913" lon="-1.47105">
        <ele>65</ele>
        <time>2022-07-09T08:26:22Z</time>
      </trkpt>
      <trkpt lat="47.43909" lon="-1.47087">
        <ele>65</ele>
        <time>2022-07-09T08:26:24Z</time>
      </trkpt>
      <trkpt lat="47.43906" lon="-1.47068">
        <ele>65</ele>
        <time>2022-07-09T08:26:26Z</time>
      </trkpt>
      <trkpt lat="47.43902" lon="-1.4705">
        <ele>65</ele>
        <time>2022-07-09T08:26:28Z</time>
      </trkpt>
      <trkpt lat="47.43899" lon="-1.47033">
        <ele>65</ele>
        <time>2022-07-09T08:26:30Z</time>
      </trkpt>
      <trkpt lat="47.43896" lon="-1.47015">
        <ele>65</ele>
        <time>2022-07-09T08:26:32Z</time>
      </trkpt>
      <trkpt lat="47.43892" lon="-1.46996">
        <ele>65</ele>
        <time>2022-07-09T08:26:34Z</time>
      </trkpt>
      <trkpt lat="47.43889" lon="-1.46977">
        <ele>65</ele>
        <time>2022-07-09T08:26:36Z</time>
      </trkpt>
      <trkpt lat="47.43885" lon="-1.46958">
        <ele>65</ele>
        <time>2022-07-09T08:26:38Z</time>
      </trkpt>
      <trkpt lat="47.43882" lon="-1.46938">
        <ele>65</ele>
        <time>2022-07-09T08:26:40Z</time>
      </trkpt>
      <trkpt lat="47.43878" lon="-1.46918">
        <ele>65</ele>
        <time>2022-07-09T08:26:42Z</time>
      </trkpt>
      <trkpt lat="47.43874" lon="-1.46898">
        <ele>64</ele>
        <time>2022-07-09T08:26:44Z</time>
      </trkpt>
      <trkpt lat="47.43871" lon="-1.46879">
        <ele>64</ele>
        <time>2022-07-09T08:26:46Z</time>
      </trkpt>
      <trkpt lat="47.43867" lon="-1.46858">
        <ele>63</ele>
        <time>2022-07-09T08:26:48Z</time>
      </trkpt>
      <trkpt lat="47.43864" lon="-1.46838">
        <ele>63</ele>
        <time>2022-07-09T08:26:50Z</time>
      </trkpt>
      <trkpt lat="47.4386" lon="-1.46818">
        <ele>63</ele>
        <time>2022-07-09T08:26:52Z</time>
      </trkpt>
      <trkpt lat="47.43856" lon="-1.46797">
        <ele>62</ele>
        <time>2022-07-09T08:26:54Z</time>
      </trkpt>
      <trkpt lat="47.43852" lon="-1.46776">
        <ele>62</ele>
        <time>2022-07-09T08:26:56Z</time>
      </trkpt>
      <trkpt lat="47.43849" lon="-1.46756">
        <ele>62</ele>
        <time>2022-07-09T08:26:58Z</time>
      </trkpt>
      <trkpt lat="47.43845" lon="-1.46735">
        <ele>62</ele>
        <time>2022-07-09T08:27:00Z</time>
      </trkpt>
      <trkpt lat="47.43842" lon="-1.46714">
        <ele>62</ele>
        <time>2022-07-09T08:27:02Z</time>
      </trkpt>
      <trkpt lat="47.43838" lon="-1.46693">
        <ele>62</ele>
        <time>2022-07-09T08:27:04Z</time>
      </trkpt>
      <trkpt lat="47.43834" lon="-1.46672">
        <ele>62</ele>
        <time>2022-07-09T08:27:06Z</time>
      </trkpt>
      <trkpt lat="47.4383" lon="-1.46652">
        <ele>61</ele>
        <time>2022-07-09T08:27:08Z</time>
      </trkpt>
      <trkpt lat="47.43825" lon="-1.46631">
        <ele>61</ele>
        <time>2022-07-09T08:27:10Z</time>
      </trkpt>
      <trkpt lat="47.4382" lon="-1.46611">
        <ele>61</ele>
        <time>2022-07-09T08:27:12Z</time>
      </trkpt>
      <trkpt lat="47.43815" lon="-1.4659">
        <ele>61</ele>
        <time>2022-07-09T08:27:14Z</time>
      </trkpt>
      <trkpt lat="47.4381" lon="-1.4657">
        <ele>61</ele>
        <time>2022-07-09T08:27:16Z</time>
      </trkpt>
      <trkpt lat="47.43804" lon="-1.4655">
        <ele>60</ele>
        <time>2022-07-09T08:27:18Z</time>
      </trkpt>
      <trkpt lat="47.43799" lon="-1.4653">
        <ele>60</ele>
        <time>2022-07-09T08:27:20Z</time>
      </trkpt>
      <trkpt lat="47.43794" lon="-1.46511">
        <ele>60</ele>
        <time>2022-07-09T08:27:22Z</time>
      </trkpt>
      <trkpt lat="47.43788" lon="-1.46492">
        <ele>61</ele>
        <time>2022-07-09T08:27:24Z</time>
      </trkpt>
      <trkpt lat="47.43783" lon="-1.46473">
        <ele>61</ele>
        <time>2022-07-09T08:27:26Z</time>
      </trkpt>
      <trkpt lat="47.43778" lon="-1.46454">
        <ele>61</ele>
        <time>2022-07-09T08:27:28Z</time>
      </trkpt>
      <trkpt lat="47.43773" lon="-1.46436">
        <ele>61</ele>
        <time>2022-07-09T08:27:30Z</time>
      </trkpt>
      <trkpt lat="47.43768" lon="-1.46417">
        <ele>61</ele>
        <time>2022-07-09T08:27:32Z</time>
      </trkpt>
      <trkpt lat="47.43763" lon="-1.46398">
        <ele>61</ele>
        <time>2022-07-09T08:27:34Z</time>
      </trkpt>
      <trkpt lat="47.43758" lon="-1.46379">
        <ele>61</ele>
        <time>2022-07-09T08:27:36Z</time>
      </trkpt>
      <trkpt lat="47.43754" lon="-1.46361">
        <ele>61</ele>
        <time>2022-07-09T08:27:38Z</time>
      </trkpt>
      <trkpt lat="47.43749" lon="-1.46341">
        <ele>61</ele>
        <time>2022-07-09T08:27:40Z</time>
      </trkpt>
      <trkpt lat="47.43746" lon="-1.4632">
        <ele>60</ele>
        <time>2022-07-09T08:27:42Z</time>
      </trkpt>
      <trkpt lat="47.43744" lon="-1.46299">
        <ele>60</ele>
        <time>2022-07-09T08:27:44Z</time>
      </trkpt>
      <trkpt lat="47.43742" lon="-1.46279">
        <ele>60</ele>
        <time>2022-07-09T08:27:46Z</time>
      </trkpt>
      <trkpt lat="47.43741" lon="-1.46259">
        <ele>60</ele>
        <time>2022-07-09T08:27:48Z</time>
      </trkpt>
      <trkpt lat="47.4374" lon="-1.46239">
        <ele>60</ele>
        <time>2022-07-09T08:27:50Z</time>
      </trkpt>
      <trkpt lat="47.4374" lon="-1.4622">
        <ele>60</ele>
        <time>2022-07-09T08:27:52Z</time>
      </trkpt>
      <trkpt lat="47.43739" lon="-1.462">
        <ele>60</ele>
        <time>2022-07-09T08:27:54Z</time>
      </trkpt>
      <trkpt lat="47.43739" lon="-1.46181">
        <ele>60</ele>
        <time>2022-07-09T08:27:56Z</time>
      </trkpt>
      <trkpt lat="47.43739" lon="-1.46164">
        <ele>60</ele>
        <time>2022-07-09T08:27:58Z</time>
      </trkpt>
      <trkpt lat="47.43738" lon="-1.46148">
        <ele>60</ele>
        <time>2022-07-09T08:28:00Z</time>
      </trkpt>
      <trkpt lat="47.43739" lon="-1.4613">
        <ele>60</ele>
        <time>2022-07-09T08:28:02Z</time>
      </trkpt>
      <trkpt lat="47.43739" lon="-1.46112">
        <ele>60</ele>
        <time>2022-07-09T08:28:04Z</time>
      </trkpt>
      <trkpt lat="47.4374" lon="-1.46093">
        <ele>61</ele>
        <time>2022-07-09T08:28:06Z</time>
      </trkpt>
      <trkpt lat="47.43742" lon="-1.46074">
        <ele>61</ele>
        <time>2022-07-09T08:28:08Z</time>
      </trkpt>
      <trkpt lat="47.43744" lon="-1.46056">
        <ele>61</ele>
        <time>2022-07-09T08:28:10Z</time>
      </trkpt>
      <trkpt lat="47.4374" lon="-1.4604">
        <ele>61</ele>
        <time>2022-07-09T08:28:12Z</time>
      </trkpt>
      <trkpt lat="47.43732" lon="-1.46029">
        <ele>60</ele>
        <time>2022-07-09T08:28:14Z</time>
      </trkpt>
      <trkpt lat="47.4372" lon="-1.46021">
        <ele>60</ele>
        <time>2022-07-09T08:28:16Z</time>
      </trkpt>
      <trkpt lat="47.43708" lon="-1.46015">
        <ele>60</ele>
        <time>2022-07-09T08:28:18Z</time>
      </trkpt>
      <trkpt lat="47.43696" lon="-1.46008">
        <ele>60</ele>
        <time>2022-07-09T08:28:20Z</time>
      </trkpt>
      <trkpt lat="47.43683" lon="-1.46001">
        <ele>60</ele>
        <time>2022-07-09T08:28:22Z</time>
      </trkpt>
      <trkpt lat="47.4367" lon="-1.45994">
        <ele>60</ele>
        <time>2022-07-09T08:28:24Z</time>
      </trkpt>
      <trkpt lat="47.43657" lon="-1.45987">
        <ele>60</ele>
        <time>2022-07-09T08:28:26Z</time>
      </trkpt>
      <trkpt lat="47.43644" lon="-1.4598">
        <ele>60</ele>
        <time>2022-07-09T08:28:28Z</time>
      </trkpt>
      <trkpt lat="47.43632" lon="-1.45972">
        <ele>60</ele>
        <time>2022-07-09T08:28:30Z</time>
      </trkpt>
      <trkpt lat="47.43619" lon="-1.45965">
        <ele>59</ele>
        <time>2022-07-09T08:28:32Z</time>
      </trkpt>
      <trkpt lat="47.43606" lon="-1.45957">
        <ele>60</ele>
        <time>2022-07-09T08:28:34Z</time>
      </trkpt>
      <trkpt lat="47.43593" lon="-1.4595">
        <ele>59</ele>
        <time>2022-07-09T08:28:36Z</time>
      </trkpt>
      <trkpt lat="47.4358" lon="-1.45943">
        <ele>59</ele>
        <time>2022-07-09T08:28:38Z</time>
      </trkpt>
      <trkpt lat="47.43566" lon="-1.45936">
        <ele>58</ele>
        <time>2022-07-09T08:28:40Z</time>
      </trkpt>
      <trkpt lat="47.43553" lon="-1.45931">
        <ele>57</ele>
        <time>2022-07-09T08:28:42Z</time>
      </trkpt>
      <trkpt lat="47.43539" lon="-1.45927">
        <ele>57</ele>
        <time>2022-07-09T08:28:44Z</time>
      </trkpt>
      <trkpt lat="47.43525" lon="-1.45925">
        <ele>58</ele>
        <time>2022-07-09T08:28:46Z</time>
      </trkpt>
      <trkpt lat="47.43511" lon="-1.45922">
        <ele>58</ele>
        <time>2022-07-09T08:28:48Z</time>
      </trkpt>
      <trkpt lat="47.43497" lon="-1.4592">
        <ele>57</ele>
        <time>2022-07-09T08:28:50Z</time>
      </trkpt>
      <trkpt lat="47.43482" lon="-1.45917">
        <ele>57</ele>
        <time>2022-07-09T08:28:52Z</time>
      </trkpt>
      <trkpt lat="47.43468" lon="-1.45915">
        <ele>56</ele>
        <time>2022-07-09T08:28:54Z</time>
      </trkpt>
      <trkpt lat="47.43453" lon="-1.45913">
        <ele>57</ele>
        <time>2022-07-09T08:28:56Z</time>
      </trkpt>
      <trkpt lat="47.43438" lon="-1.45911">
        <ele>57</ele>
        <time>2022-07-09T08:28:58Z</time>
      </trkpt>
      <trkpt lat="47.43423" lon="-1.45909">
        <ele>57</ele>
        <time>2022-07-09T08:29:00Z</time>
      </trkpt>
      <trkpt lat="47.43409" lon="-1.45905">
        <ele>57</ele>
        <time>2022-07-09T08:29:02Z</time>
      </trkpt>
      <trkpt lat="47.43394" lon="-1.45904">
        <ele>57</ele>
        <time>2022-07-09T08:29:04Z</time>
      </trkpt>
      <trkpt lat="47.4338" lon="-1.45901">
        <ele>57</ele>
        <time>2022-07-09T08:29:06Z</time>
      </trkpt>
      <trkpt lat="47.43366" lon="-1.45899">
        <ele>57</ele>
        <time>2022-07-09T08:29:08Z</time>
      </trkpt>
      <trkpt lat="47.43352" lon="-1.45897">
        <ele>58</ele>
        <time>2022-07-09T08:29:10Z</time>
      </trkpt>
      <trkpt lat="47.43338" lon="-1.45895">
        <ele>58</ele>
        <time>2022-07-09T08:29:12Z</time>
      </trkpt>
      <trkpt lat="47.43324" lon="-1.45892">
        <ele>59</ele>
        <time>2022-07-09T08:29:14Z</time>
      </trkpt>
      <trkpt lat="47.43311" lon="-1.4589">
        <ele>59</ele>
        <time>2022-07-09T08:29:16Z</time>
      </trkpt>
      <trkpt lat="47.43298" lon="-1.45888">
        <ele>59</ele>
        <time>2022-07-09T08:29:18Z</time>
      </trkpt>
      <trkpt lat="47.43285" lon="-1.45886">
        <ele>59</ele>
        <time>2022-07-09T08:29:20Z</time>
      </trkpt>
      <trkpt lat="47.43272" lon="-1.45884">
        <ele>59</ele>
        <time>2022-07-09T08:29:22Z</time>
      </trkpt>
      <trkpt lat="47.43259" lon="-1.45882">
        <ele>59</ele>
        <time>2022-07-09T08:29:24Z</time>
      </trkpt>
      <trkpt lat="47.43247" lon="-1.45879">
        <ele>59</ele>
        <time>2022-07-09T08:29:26Z</time>
      </trkpt>
      <trkpt lat="47.43235" lon="-1.45877">
        <ele>58</ele>
        <time>2022-07-09T08:29:28Z</time>
      </trkpt>
      <trkpt lat="47.43222" lon="-1.45875">
        <ele>58</ele>
        <time>2022-07-09T08:29:30Z</time>
      </trkpt>
      <trkpt lat="47.43209" lon="-1.45874">
        <ele>58</ele>
        <time>2022-07-09T08:29:32Z</time>
      </trkpt>
      <trkpt lat="47.43197" lon="-1.45872">
        <ele>58</ele>
        <time>2022-07-09T08:29:34Z</time>
      </trkpt>
      <trkpt lat="47.43184" lon="-1.45869">
        <ele>58</ele>
        <time>2022-07-09T08:29:36Z</time>
      </trkpt>
      <trkpt lat="47.43173" lon="-1.45867">
        <ele>58</ele>
        <time>2022-07-09T08:29:38Z</time>
      </trkpt>
      <trkpt lat="47.43161" lon="-1.45865">
        <ele>58</ele>
        <time>2022-07-09T08:29:40Z</time>
      </trkpt>
      <trkpt lat="47.43149" lon="-1.45863">
        <ele>58</ele>
        <time>2022-07-09T08:29:42Z</time>
      </trkpt>
      <trkpt lat="47.43137" lon="-1.45862">
        <ele>59</ele>
        <time>2022-07-09T08:29:44Z</time>
      </trkpt>
      <trkpt lat="47.43125" lon="-1.4586">
        <ele>59</ele>
        <time>2022-07-09T08:29:46Z</time>
      </trkpt>
      <trkpt lat="47.43112" lon="-1.45859">
        <ele>59</ele>
        <time>2022-07-09T08:29:48Z</time>
      </trkpt>
      <trkpt lat="47.431" lon="-1.45857">
        <ele>59</ele>
        <time>2022-07-09T08:29:50Z</time>
      </trkpt>
      <trkpt lat="47.43089" lon="-1.45852">
        <ele>59</ele>
        <time>2022-07-09T08:29:52Z</time>
      </trkpt>
      <trkpt lat="47.43077" lon="-1.45847">
        <ele>59</ele>
        <time>2022-07-09T08:29:54Z</time>
      </trkpt>
      <trkpt lat="47.43067" lon="-1.4584">
        <ele>59</ele>
        <time>2022-07-09T08:29:56Z</time>
      </trkpt>
      <trkpt lat="47.43057" lon="-1.4583">
        <ele>59</ele>
        <time>2022-07-09T08:29:58Z</time>
      </trkpt>
      <trkpt lat="47.43049" lon="-1.45819">
        <ele>59</ele>
        <time>2022-07-09T08:30:00Z</time>
      </trkpt>
      <trkpt lat="47.43041" lon="-1.45806">
        <ele>59</ele>
        <time>2022-07-09T08:30:02Z</time>
      </trkpt>
      <trkpt lat="47.43035" lon="-1.45791">
        <ele>59</ele>
        <time>2022-07-09T08:30:04Z</time>
      </trkpt>
      <trkpt lat="47.43029" lon="-1.45775">
        <ele>59</ele>
        <time>2022-07-09T08:30:06Z</time>
      </trkpt>
      <trkpt lat="47.43024" lon="-1.45759">
        <ele>59</ele>
        <time>2022-07-09T08:30:08Z</time>
      </trkpt>
      <trkpt lat="47.43019" lon="-1.45743">
        <ele>58</ele>
        <time>2022-07-09T08:30:10Z</time>
      </trkpt>
      <trkpt lat="47.43014" lon="-1.45727">
        <ele>58</ele>
        <time>2022-07-09T08:30:12Z</time>
      </trkpt>
      <trkpt lat="47.4301" lon="-1.4571">
        <ele>58</ele>
        <time>2022-07-09T08:30:14Z</time>
      </trkpt>
      <trkpt lat="47.43005" lon="-1.45694">
        <ele>58</ele>
        <time>2022-07-09T08:30:16Z</time>
      </trkpt>
      <trkpt lat="47.43001" lon="-1.45677">
        <ele>59</ele>
        <time>2022-07-09T08:30:18Z</time>
      </trkpt>
      <trkpt lat="47.42997" lon="-1.4566">
        <ele>59</ele>
        <time>2022-07-09T08:30:20Z</time>
      </trkpt>
      <trkpt lat="47.42993" lon="-1.45644">
        <ele>59</ele>
        <time>2022-07-09T08:30:22Z</time>
      </trkpt>
      <trkpt lat="47.42989" lon="-1.45628">
        <ele>59</ele>
        <time>2022-07-09T08:30:24Z</time>
      </trkpt>
      <trkpt lat="47.42985" lon="-1.45611">
        <ele>59</ele>
        <time>2022-07-09T08:30:26Z</time>
      </trkpt>
      <trkpt lat="47.4298" lon="-1.45594">
        <ele>60</ele>
        <time>2022-07-09T08:30:28Z</time>
      </trkpt>
      <trkpt lat="47.42976" lon="-1.45577">
        <ele>60</ele>
        <time>2022-07-09T08:30:30Z</time>
      </trkpt>
      <trkpt lat="47.42972" lon="-1.4556">
        <ele>60</ele>
        <time>2022-07-09T08:30:32Z</time>
      </trkpt>
      <trkpt lat="47.42967" lon="-1.45543">
        <ele>59</ele>
        <time>2022-07-09T08:30:34Z</time>
      </trkpt>
      <trkpt lat="47.42963" lon="-1.45526">
        <ele>60</ele>
        <time>2022-07-09T08:30:36Z</time>
      </trkpt>
      <trkpt lat="47.42959" lon="-1.45509">
        <ele>60</ele>
        <time>2022-07-09T08:30:38Z</time>
      </trkpt>
      <trkpt lat="47.42955" lon="-1.45492">
        <ele>60</ele>
        <time>2022-07-09T08:30:40Z</time>
      </trkpt>
      <trkpt lat="47.42951" lon="-1.45475">
        <ele>60</ele>
        <time>2022-07-09T08:30:42Z</time>
      </trkpt>
      <trkpt lat="47.42947" lon="-1.45457">
        <ele>60</ele>
        <time>2022-07-09T08:30:44Z</time>
      </trkpt>
      <trkpt lat="47.42942" lon="-1.4544">
        <ele>60</ele>
        <time>2022-07-09T08:30:46Z</time>
      </trkpt>
      <trkpt lat="47.42938" lon="-1.45422">
        <ele>60</ele>
        <time>2022-07-09T08:30:48Z</time>
      </trkpt>
      <trkpt lat="47.42934" lon="-1.45405">
        <ele>60</ele>
        <time>2022-07-09T08:30:50Z</time>
      </trkpt>
      <trkpt lat="47.4293" lon="-1.45387">
        <ele>59</ele>
        <time>2022-07-09T08:30:52Z</time>
      </trkpt>
      <trkpt lat="47.42925" lon="-1.4537">
        <ele>59</ele>
        <time>2022-07-09T08:30:54Z</time>
      </trkpt>
      <trkpt lat="47.42921" lon="-1.45353">
        <ele>59</ele>
        <time>2022-07-09T08:30:56Z</time>
      </trkpt>
      <trkpt lat="47.42916" lon="-1.45336">
        <ele>59</ele>
        <time>2022-07-09T08:30:58Z</time>
      </trkpt>
      <trkpt lat="47.42913" lon="-1.45318">
        <ele>58</ele>
        <time>2022-07-09T08:31:00Z</time>
      </trkpt>
      <trkpt lat="47.42908" lon="-1.45301">
        <ele>58</ele>
        <time>2022-07-09T08:31:02Z</time>
      </trkpt>
      <trkpt lat="47.42904" lon="-1.45284">
        <ele>58</ele>
        <time>2022-07-09T08:31:04Z</time>
      </trkpt>
      <trkpt lat="47.429" lon="-1.45267">
        <ele>58</ele>
        <time>2022-07-09T08:31:06Z</time>
      </trkpt>
      <trkpt lat="47.42895" lon="-1.45249">
        <ele>58</ele>
        <time>2022-07-09T08:31:08Z</time>
      </trkpt>
      <trkpt lat="47.42891" lon="-1.45232">
        <ele>58</ele>
        <time>2022-07-09T08:31:10Z</time>
      </trkpt>
      <trkpt lat="47.42886" lon="-1.45216">
        <ele>58</ele>
        <time>2022-07-09T08:31:12Z</time>
      </trkpt>
      <trkpt lat="47.42882" lon="-1.45199">
        <ele>59</ele>
        <time>2022-07-09T08:31:14Z</time>
      </trkpt>
      <trkpt lat="47.42877" lon="-1.45182">
        <ele>59</ele>
        <time>2022-07-09T08:31:16Z</time>
      </trkpt>
      <trkpt lat="47.42872" lon="-1.45166">
        <ele>59</ele>
        <time>2022-07-09T08:31:18Z</time>
      </trkpt>
      <trkpt lat="47.42866" lon="-1.4515">
        <ele>59</ele>
        <time>2022-07-09T08:31:20Z</time>
      </trkpt>
      <trkpt lat="47.42861" lon="-1.45133">
        <ele>59</ele>
        <time>2022-07-09T08:31:22Z</time>
      </trkpt>
      <trkpt lat="47.42855" lon="-1.45118">
        <ele>59</ele>
        <time>2022-07-09T08:31:24Z</time>
      </trkpt>
      <trkpt lat="47.42849" lon="-1.45103">
        <ele>60</ele>
        <time>2022-07-09T08:31:26Z</time>
      </trkpt>
      <trkpt lat="47.42843" lon="-1.45087">
        <ele>60</ele>
        <time>2022-07-09T08:31:28Z</time>
      </trkpt>
      <trkpt lat="47.42837" lon="-1.45071">
        <ele>60</ele>
        <time>2022-07-09T08:31:30Z</time>
      </trkpt>
      <trkpt lat="47.42831" lon="-1.45056">
        <ele>60</ele>
        <time>2022-07-09T08:31:32Z</time>
      </trkpt>
      <trkpt lat="47.42825" lon="-1.45042">
        <ele>61</ele>
        <time>2022-07-09T08:31:34Z</time>
      </trkpt>
      <trkpt lat="47.42819" lon="-1.45028">
        <ele>61</ele>
        <time>2022-07-09T08:31:36Z</time>
      </trkpt>
      <trkpt lat="47.42813" lon="-1.45014">
        <ele>61</ele>
        <time>2022-07-09T08:31:38Z</time>
      </trkpt>
      <trkpt lat="47.42807" lon="-1.44999">
        <ele>62</ele>
        <time>2022-07-09T08:31:40Z</time>
      </trkpt>
      <trkpt lat="47.42801" lon="-1.44983">
        <ele>62</ele>
        <time>2022-07-09T08:31:42Z</time>
      </trkpt>
      <trkpt lat="47.42796" lon="-1.44967">
        <ele>62</ele>
        <time>2022-07-09T08:31:44Z</time>
      </trkpt>
      <trkpt lat="47.42791" lon="-1.44951">
        <ele>61</ele>
        <time>2022-07-09T08:31:46Z</time>
      </trkpt>
      <trkpt lat="47.42787" lon="-1.44934">
        <ele>61</ele>
        <time>2022-07-09T08:31:48Z</time>
      </trkpt>
      <trkpt lat="47.42783" lon="-1.44917">
        <ele>61</ele>
        <time>2022-07-09T08:31:50Z</time>
      </trkpt>
      <trkpt lat="47.42779" lon="-1.44901">
        <ele>61</ele>
        <time>2022-07-09T08:31:52Z</time>
      </trkpt>
      <trkpt lat="47.42776" lon="-1.44884">
        <ele>61</ele>
        <time>2022-07-09T08:31:54Z</time>
      </trkpt>
      <trkpt lat="47.42773" lon="-1.44867">
        <ele>60</ele>
        <time>2022-07-09T08:31:56Z</time>
      </trkpt>
      <trkpt lat="47.42769" lon="-1.4485">
        <ele>61</ele>
        <time>2022-07-09T08:31:58Z</time>
      </trkpt>
      <trkpt lat="47.42765" lon="-1.44833">
        <ele>61</ele>
        <time>2022-07-09T08:32:00Z</time>
      </trkpt>
      <trkpt lat="47.42762" lon="-1.44817">
        <ele>60</ele>
        <time>2022-07-09T08:32:02Z</time>
      </trkpt>
      <trkpt lat="47.42759" lon="-1.448">
        <ele>60</ele>
        <time>2022-07-09T08:32:04Z</time>
      </trkpt>
      <trkpt lat="47.42756" lon="-1.44784">
        <ele>60</ele>
        <time>2022-07-09T08:32:06Z</time>
      </trkpt>
      <trkpt lat="47.42752" lon="-1.44767">
        <ele>60</ele>
        <time>2022-07-09T08:32:08Z</time>
      </trkpt>
      <trkpt lat="47.42749" lon="-1.4475">
        <ele>60</ele>
        <time>2022-07-09T08:32:10Z</time>
      </trkpt>
      <trkpt lat="47.42745" lon="-1.44734">
        <ele>60</ele>
        <time>2022-07-09T08:32:12Z</time>
      </trkpt>
      <trkpt lat="47.42742" lon="-1.44718">
        <ele>60</ele>
        <time>2022-07-09T08:32:14Z</time>
      </trkpt>
      <trkpt lat="47.42739" lon="-1.44702">
        <ele>59</ele>
        <time>2022-07-09T08:32:16Z</time>
      </trkpt>
      <trkpt lat="47.42735" lon="-1.44686">
        <ele>59</ele>
        <time>2022-07-09T08:32:18Z</time>
      </trkpt>
      <trkpt lat="47.42732" lon="-1.44669">
        <ele>59</ele>
        <time>2022-07-09T08:32:20Z</time>
      </trkpt>
      <trkpt lat="47.42728" lon="-1.44651">
        <ele>59</ele>
        <time>2022-07-09T08:32:22Z</time>
      </trkpt>
      <trkpt lat="47.42725" lon="-1.44634">
        <ele>59</ele>
        <time>2022-07-09T08:32:24Z</time>
      </trkpt>
      <trkpt lat="47.42721" lon="-1.44617">
        <ele>58</ele>
        <time>2022-07-09T08:32:26Z</time>
      </trkpt>
      <trkpt lat="47.42718" lon="-1.446">
        <ele>59</ele>
        <time>2022-07-09T08:32:28Z</time>
      </trkpt>
      <trkpt lat="47.42714" lon="-1.44583">
        <ele>59</ele>
        <time>2022-07-09T08:32:30Z</time>
      </trkpt>
      <trkpt lat="47.42711" lon="-1.44566">
        <ele>59</ele>
        <time>2022-07-09T08:32:32Z</time>
      </trkpt>
      <trkpt lat="47.42708" lon="-1.44549">
        <ele>60</ele>
        <time>2022-07-09T08:32:34Z</time>
      </trkpt>
      <trkpt lat="47.42705" lon="-1.44532">
        <ele>60</ele>
        <time>2022-07-09T08:32:36Z</time>
      </trkpt>
      <trkpt lat="47.42702" lon="-1.44515">
        <ele>60</ele>
        <time>2022-07-09T08:32:38Z</time>
      </trkpt>
      <trkpt lat="47.427" lon="-1.44497">
        <ele>60</ele>
        <time>2022-07-09T08:32:40Z</time>
      </trkpt>
      <trkpt lat="47.42699" lon="-1.44479">
        <ele>60</ele>
        <time>2022-07-09T08:32:42Z</time>
      </trkpt>
      <trkpt lat="47.42698" lon="-1.44462">
        <ele>60</ele>
        <time>2022-07-09T08:32:44Z</time>
      </trkpt>
      <trkpt lat="47.42698" lon="-1.44443">
        <ele>60</ele>
        <time>2022-07-09T08:32:46Z</time>
      </trkpt>
      <trkpt lat="47.42698" lon="-1.44425">
        <ele>60</ele>
        <time>2022-07-09T08:32:48Z</time>
      </trkpt>
      <trkpt lat="47.42698" lon="-1.44408">
        <ele>60</ele>
        <time>2022-07-09T08:32:50Z</time>
      </trkpt>
      <trkpt lat="47.42698" lon="-1.44389">
        <ele>60</ele>
        <time>2022-07-09T08:32:52Z</time>
      </trkpt>
      <trkpt lat="47.42698" lon="-1.44372">
        <ele>60</ele>
        <time>2022-07-09T08:32:54Z</time>
      </trkpt>
      <trkpt lat="47.42697" lon="-1.44354">
        <ele>60</ele>
        <time>2022-07-09T08:32:56Z</time>
      </trkpt>
      <trkpt lat="47.42695" lon="-1.44336">
        <ele>60</ele>
        <time>2022-07-09T08:32:58Z</time>
      </trkpt>
      <trkpt lat="47.42692" lon="-1.44317">
        <ele>60</ele>
        <time>2022-07-09T08:33:00Z</time>
      </trkpt>
      <trkpt lat="47.4269" lon="-1.443">
        <ele>60</ele>
        <time>2022-07-09T08:33:02Z</time>
      </trkpt>
      <trkpt lat="47.42686" lon="-1.44282">
        <ele>60</ele>
        <time>2022-07-09T08:33:04Z</time>
      </trkpt>
      <trkpt lat="47.42681" lon="-1.44266">
        <ele>60</ele>
        <time>2022-07-09T08:33:06Z</time>
      </trkpt>
      <trkpt lat="47.42676" lon="-1.4425">
        <ele>60</ele>
        <time>2022-07-09T08:33:08Z</time>
      </trkpt>
      <trkpt lat="47.4267" lon="-1.44234">
        <ele>60</ele>
        <time>2022-07-09T08:33:10Z</time>
      </trkpt>
      <trkpt lat="47.42663" lon="-1.44219">
        <ele>60</ele>
        <time>2022-07-09T08:33:12Z</time>
      </trkpt>
      <trkpt lat="47.42656" lon="-1.44203">
        <ele>59</ele>
        <time>2022-07-09T08:33:14Z</time>
      </trkpt>
      <trkpt lat="47.42648" lon="-1.44189">
        <ele>59</ele>
        <time>2022-07-09T08:33:16Z</time>
      </trkpt>
      <trkpt lat="47.42641" lon="-1.44175">
        <ele>59</ele>
        <time>2022-07-09T08:33:18Z</time>
      </trkpt>
      <trkpt lat="47.42633" lon="-1.44161">
        <ele>59</ele>
        <time>2022-07-09T08:33:20Z</time>
      </trkpt>
      <trkpt lat="47.42626" lon="-1.44147">
        <ele>59</ele>
        <time>2022-07-09T08:33:22Z</time>
      </trkpt>
      <trkpt lat="47.42618" lon="-1.44134">
        <ele>60</ele>
        <time>2022-07-09T08:33:24Z</time>
      </trkpt>
      <trkpt lat="47.42611" lon="-1.4412">
        <ele>60</ele>
        <time>2022-07-09T08:33:26Z</time>
      </trkpt>
      <trkpt lat="47.42604" lon="-1.44107">
        <ele>60</ele>
        <time>2022-07-09T08:33:28Z</time>
      </trkpt>
      <trkpt lat="47.42597" lon="-1.44093">
        <ele>61</ele>
        <time>2022-07-09T08:33:30Z</time>
      </trkpt>
      <trkpt lat="47.42589" lon="-1.4408">
        <ele>61</ele>
        <time>2022-07-09T08:33:32Z</time>
      </trkpt>
      <trkpt lat="47.42581" lon="-1.44066">
        <ele>61</ele>
        <time>2022-07-09T08:33:34Z</time>
      </trkpt>
      <trkpt lat="47.42573" lon="-1.44053">
        <ele>61</ele>
        <time>2022-07-09T08:33:36Z</time>
      </trkpt>
      <trkpt lat="47.42566" lon="-1.4404">
        <ele>62</ele>
        <time>2022-07-09T08:33:38Z</time>
      </trkpt>
      <trkpt lat="47.42559" lon="-1.44027">
        <ele>62</ele>
        <time>2022-07-09T08:33:40Z</time>
      </trkpt>
      <trkpt lat="47.42551" lon="-1.44013">
        <ele>63</ele>
        <time>2022-07-09T08:33:42Z</time>
      </trkpt>
      <trkpt lat="47.42544" lon="-1.43999">
        <ele>63</ele>
        <time>2022-07-09T08:33:44Z</time>
      </trkpt>
      <trkpt lat="47.42536" lon="-1.43985">
        <ele>63</ele>
        <time>2022-07-09T08:33:46Z</time>
      </trkpt>
      <trkpt lat="47.42529" lon="-1.43972">
        <ele>63</ele>
        <time>2022-07-09T08:33:48Z</time>
      </trkpt>
      <trkpt lat="47.42522" lon="-1.43959">
        <ele>64</ele>
        <time>2022-07-09T08:33:50Z</time>
      </trkpt>
      <trkpt lat="47.42515" lon="-1.43946">
        <ele>64</ele>
        <time>2022-07-09T08:33:52Z</time>
      </trkpt>
      <trkpt lat="47.42508" lon="-1.43933">
        <ele>64</ele>
        <time>2022-07-09T08:33:54Z</time>
      </trkpt>
      <trkpt lat="47.42501" lon="-1.43919">
        <ele>64</ele>
        <time>2022-07-09T08:33:56Z</time>
      </trkpt>
      <trkpt lat="47.42494" lon="-1.43905">
        <ele>64</ele>
        <time>2022-07-09T08:33:58Z</time>
      </trkpt>
      <trkpt lat="47.42487" lon="-1.4389">
        <ele>63</ele>
        <time>2022-07-09T08:34:00Z</time>
      </trkpt>
      <trkpt lat="47.4248" lon="-1.43876">
        <ele>63</ele>
        <time>2022-07-09T08:34:02Z</time>
      </trkpt>
      <trkpt lat="47.42474" lon="-1.43862">
        <ele>63</ele>
        <time>2022-07-09T08:34:04Z</time>
      </trkpt>
      <trkpt lat="47.42468" lon="-1.43847">
        <ele>63</ele>
        <time>2022-07-09T08:34:06Z</time>
      </trkpt>
      <trkpt lat="47.42461" lon="-1.43833">
        <ele>64</ele>
        <time>2022-07-09T08:34:08Z</time>
      </trkpt>
      <trkpt lat="47.42455" lon="-1.43819">
        <ele>63</ele>
        <time>2022-07-09T08:34:10Z</time>
      </trkpt>
      <trkpt lat="47.42449" lon="-1.43805">
        <ele>64</ele>
        <time>2022-07-09T08:34:12Z</time>
      </trkpt>
      <trkpt lat="47.42442" lon="-1.43792">
        <ele>64</ele>
        <time>2022-07-09T08:34:14Z</time>
      </trkpt>
      <trkpt lat="47.42436" lon="-1.43777">
        <ele>64</ele>
        <time>2022-07-09T08:34:16Z</time>
      </trkpt>
      <trkpt lat="47.4243" lon="-1.43763">
        <ele>64</ele>
        <time>2022-07-09T08:34:18Z</time>
      </trkpt>
      <trkpt lat="47.42424" lon="-1.43749">
        <ele>64</ele>
        <time>2022-07-09T08:34:20Z</time>
      </trkpt>
      <trkpt lat="47.42417" lon="-1.43735">
        <ele>64</ele>
        <time>2022-07-09T08:34:22Z</time>
      </trkpt>
      <trkpt lat="47.42411" lon="-1.43721">
        <ele>64</ele>
        <time>2022-07-09T08:34:24Z</time>
      </trkpt>
      <trkpt lat="47.42404" lon="-1.43707">
        <ele>64</ele>
        <time>2022-07-09T08:34:26Z</time>
      </trkpt>
      <trkpt lat="47.42397" lon="-1.43693">
        <ele>64</ele>
        <time>2022-07-09T08:34:28Z</time>
      </trkpt>
      <trkpt lat="47.4239" lon="-1.43679">
        <ele>64</ele>
        <time>2022-07-09T08:34:30Z</time>
      </trkpt>
      <trkpt lat="47.42382" lon="-1.43666">
        <ele>64</ele>
        <time>2022-07-09T08:34:32Z</time>
      </trkpt>
      <trkpt lat="47.42373" lon="-1.43654">
        <ele>64</ele>
        <time>2022-07-09T08:34:34Z</time>
      </trkpt>
      <trkpt lat="47.42363" lon="-1.43645">
        <ele>64</ele>
        <time>2022-07-09T08:34:36Z</time>
      </trkpt>
      <trkpt lat="47.42353" lon="-1.43635">
        <ele>64</ele>
        <time>2022-07-09T08:34:38Z</time>
      </trkpt>
      <trkpt lat="47.42344" lon="-1.43626">
        <ele>64</ele>
        <time>2022-07-09T08:34:40Z</time>
      </trkpt>
      <trkpt lat="47.42334" lon="-1.43616">
        <ele>64</ele>
        <time>2022-07-09T08:34:42Z</time>
      </trkpt>
      <trkpt lat="47.42328" lon="-1.43604">
        <ele>64</ele>
        <time>2022-07-09T08:34:44Z</time>
      </trkpt>
      <trkpt lat="47.42323" lon="-1.43587">
        <ele>64</ele>
        <time>2022-07-09T08:34:47Z</time>
      </trkpt>
      <trkpt lat="47.4232" lon="-1.43573">
        <ele>65</ele>
        <time>2022-07-09T08:34:49Z</time>
      </trkpt>
      <trkpt lat="47.42319" lon="-1.43555">
        <ele>64</ele>
        <time>2022-07-09T08:34:51Z</time>
      </trkpt>
      <trkpt lat="47.42317" lon="-1.43538">
        <ele>64</ele>
        <time>2022-07-09T08:34:53Z</time>
      </trkpt>
      <trkpt lat="47.42314" lon="-1.43521">
        <ele>64</ele>
        <time>2022-07-09T08:34:55Z</time>
      </trkpt>
      <trkpt lat="47.4231" lon="-1.43504">
        <ele>64</ele>
        <time>2022-07-09T08:34:57Z</time>
      </trkpt>
      <trkpt lat="47.42305" lon="-1.43488">
        <ele>64</ele>
        <time>2022-07-09T08:34:59Z</time>
      </trkpt>
      <trkpt lat="47.42298" lon="-1.43473">
        <ele>65</ele>
        <time>2022-07-09T08:35:01Z</time>
      </trkpt>
      <trkpt lat="47.42292" lon="-1.43458">
        <ele>65</ele>
        <time>2022-07-09T08:35:03Z</time>
      </trkpt>
      <trkpt lat="47.42285" lon="-1.43443">
        <ele>65</ele>
        <time>2022-07-09T08:35:05Z</time>
      </trkpt>
      <trkpt lat="47.42278" lon="-1.43429">
        <ele>65</ele>
        <time>2022-07-09T08:35:07Z</time>
      </trkpt>
      <trkpt lat="47.42272" lon="-1.43415">
        <ele>66</ele>
        <time>2022-07-09T08:35:09Z</time>
      </trkpt>
      <trkpt lat="47.42265" lon="-1.434">
        <ele>66</ele>
        <time>2022-07-09T08:35:11Z</time>
      </trkpt>
      <trkpt lat="47.42258" lon="-1.43385">
        <ele>66</ele>
        <time>2022-07-09T08:35:13Z</time>
      </trkpt>
      <trkpt lat="47.42253" lon="-1.4337">
        <ele>67</ele>
        <time>2022-07-09T08:35:15Z</time>
      </trkpt>
      <trkpt lat="47.42247" lon="-1.43356">
        <ele>67</ele>
        <time>2022-07-09T08:35:17Z</time>
      </trkpt>
      <trkpt lat="47.42242" lon="-1.43341">
        <ele>68</ele>
        <time>2022-07-09T08:35:19Z</time>
      </trkpt>
      <trkpt lat="47.42237" lon="-1.43326">
        <ele>68</ele>
        <time>2022-07-09T08:35:21Z</time>
      </trkpt>
      <trkpt lat="47.42232" lon="-1.4331">
        <ele>68</ele>
        <time>2022-07-09T08:35:23Z</time>
      </trkpt>
      <trkpt lat="47.42228" lon="-1.43295">
        <ele>68</ele>
        <time>2022-07-09T08:35:25Z</time>
      </trkpt>
      <trkpt lat="47.42224" lon="-1.43279">
        <ele>68</ele>
        <time>2022-07-09T08:35:27Z</time>
      </trkpt>
      <trkpt lat="47.4222" lon="-1.43262">
        <ele>69</ele>
        <time>2022-07-09T08:35:29Z</time>
      </trkpt>
      <trkpt lat="47.42218" lon="-1.43246">
        <ele>69</ele>
        <time>2022-07-09T08:35:31Z</time>
      </trkpt>
      <trkpt lat="47.42215" lon="-1.4323">
        <ele>69</ele>
        <time>2022-07-09T08:35:33Z</time>
      </trkpt>
      <trkpt lat="47.42214" lon="-1.43213">
        <ele>68</ele>
        <time>2022-07-09T08:35:35Z</time>
      </trkpt>
      <trkpt lat="47.42212" lon="-1.43196">
        <ele>67</ele>
        <time>2022-07-09T08:35:37Z</time>
      </trkpt>
      <trkpt lat="47.4221" lon="-1.43178">
        <ele>67</ele>
        <time>2022-07-09T08:35:39Z</time>
      </trkpt>
      <trkpt lat="47.42209" lon="-1.43161">
        <ele>67</ele>
        <time>2022-07-09T08:35:41Z</time>
      </trkpt>
      <trkpt lat="47.42208" lon="-1.43142">
        <ele>67</ele>
        <time>2022-07-09T08:35:43Z</time>
      </trkpt>
      <trkpt lat="47.42206" lon="-1.43124">
        <ele>66</ele>
        <time>2022-07-09T08:35:45Z</time>
      </trkpt>
      <trkpt lat="47.42205" lon="-1.43105">
        <ele>66</ele>
        <time>2022-07-09T08:35:47Z</time>
      </trkpt>
      <trkpt lat="47.42203" lon="-1.43085">
        <ele>66</ele>
        <time>2022-07-09T08:35:49Z</time>
      </trkpt>
      <trkpt lat="47.42201" lon="-1.43066">
        <ele>66</ele>
        <time>2022-07-09T08:35:51Z</time>
      </trkpt>
      <trkpt lat="47.42199" lon="-1.43047">
        <ele>65</ele>
        <time>2022-07-09T08:35:53Z</time>
      </trkpt>
      <trkpt lat="47.42196" lon="-1.43028">
        <ele>65</ele>
        <time>2022-07-09T08:35:55Z</time>
      </trkpt>
      <trkpt lat="47.42194" lon="-1.4301">
        <ele>65</ele>
        <time>2022-07-09T08:35:57Z</time>
      </trkpt>
      <trkpt lat="47.42191" lon="-1.42992">
        <ele>65</ele>
        <time>2022-07-09T08:35:59Z</time>
      </trkpt>
      <trkpt lat="47.42188" lon="-1.42973">
        <ele>65</ele>
        <time>2022-07-09T08:36:01Z</time>
      </trkpt>
      <trkpt lat="47.42185" lon="-1.42955">
        <ele>65</ele>
        <time>2022-07-09T08:36:03Z</time>
      </trkpt>
      <trkpt lat="47.42183" lon="-1.42937">
        <ele>65</ele>
        <time>2022-07-09T08:36:05Z</time>
      </trkpt>
      <trkpt lat="47.4218" lon="-1.42919">
        <ele>65</ele>
        <time>2022-07-09T08:36:07Z</time>
      </trkpt>
      <trkpt lat="47.42177" lon="-1.42902">
        <ele>65</ele>
        <time>2022-07-09T08:36:09Z</time>
      </trkpt>
      <trkpt lat="47.42174" lon="-1.42884">
        <ele>65</ele>
        <time>2022-07-09T08:36:11Z</time>
      </trkpt>
      <trkpt lat="47.42171" lon="-1.42866">
        <ele>65</ele>
        <time>2022-07-09T08:36:13Z</time>
      </trkpt>
      <trkpt lat="47.42168" lon="-1.42848">
        <ele>65</ele>
        <time>2022-07-09T08:36:15Z</time>
      </trkpt>
      <trkpt lat="47.42165" lon="-1.42831">
        <ele>65</ele>
        <time>2022-07-09T08:36:17Z</time>
      </trkpt>
      <trkpt lat="47.42163" lon="-1.42813">
        <ele>65</ele>
        <time>2022-07-09T08:36:19Z</time>
      </trkpt>
      <trkpt lat="47.4216" lon="-1.42795">
        <ele>65</ele>
        <time>2022-07-09T08:36:21Z</time>
      </trkpt>
      <trkpt lat="47.42157" lon="-1.42776">
        <ele>65</ele>
        <time>2022-07-09T08:36:23Z</time>
      </trkpt>
      <trkpt lat="47.42154" lon="-1.42758">
        <ele>65</ele>
        <time>2022-07-09T08:36:25Z</time>
      </trkpt>
      <trkpt lat="47.42151" lon="-1.42741">
        <ele>64</ele>
        <time>2022-07-09T08:36:27Z</time>
      </trkpt>
      <trkpt lat="47.42149" lon="-1.42722">
        <ele>65</ele>
        <time>2022-07-09T08:36:29Z</time>
      </trkpt>
      <trkpt lat="47.42146" lon="-1.42704">
        <ele>64</ele>
        <time>2022-07-09T08:36:31Z</time>
      </trkpt>
      <trkpt lat="47.42143" lon="-1.42686">
        <ele>64</ele>
        <time>2022-07-09T08:36:33Z</time>
      </trkpt>
      <trkpt lat="47.42139" lon="-1.42668">
        <ele>64</ele>
        <time>2022-07-09T08:36:35Z</time>
      </trkpt>
      <trkpt lat="47.42136" lon="-1.4265">
        <ele>64</ele>
        <time>2022-07-09T08:36:37Z</time>
      </trkpt>
      <trkpt lat="47.42132" lon="-1.42632">
        <ele>63</ele>
        <time>2022-07-09T08:36:39Z</time>
      </trkpt>
      <trkpt lat="47.42128" lon="-1.42614">
        <ele>63</ele>
        <time>2022-07-09T08:36:41Z</time>
      </trkpt>
      <trkpt lat="47.42124" lon="-1.42596">
        <ele>63</ele>
        <time>2022-07-09T08:36:43Z</time>
      </trkpt>
      <trkpt lat="47.42119" lon="-1.42578">
        <ele>63</ele>
        <time>2022-07-09T08:36:45Z</time>
      </trkpt>
      <trkpt lat="47.42115" lon="-1.42559">
        <ele>63</ele>
        <time>2022-07-09T08:36:47Z</time>
      </trkpt>
      <trkpt lat="47.4211" lon="-1.4254">
        <ele>63</ele>
        <time>2022-07-09T08:36:49Z</time>
      </trkpt>
      <trkpt lat="47.42104" lon="-1.42521">
        <ele>62</ele>
        <time>2022-07-09T08:36:51Z</time>
      </trkpt>
      <trkpt lat="47.42099" lon="-1.42503">
        <ele>62</ele>
        <time>2022-07-09T08:36:53Z</time>
      </trkpt>
      <trkpt lat="47.42094" lon="-1.42484">
        <ele>61</ele>
        <time>2022-07-09T08:36:55Z</time>
      </trkpt>
      <trkpt lat="47.42089" lon="-1.42467">
        <ele>61</ele>
        <time>2022-07-09T08:36:57Z</time>
      </trkpt>
      <trkpt lat="47.42083" lon="-1.42449">
        <ele>61</ele>
        <time>2022-07-09T08:36:59Z</time>
      </trkpt>
      <trkpt lat="47.42077" lon="-1.42433">
        <ele>61</ele>
        <time>2022-07-09T08:37:01Z</time>
      </trkpt>
      <trkpt lat="47.4207" lon="-1.42416">
        <ele>61</ele>
        <time>2022-07-09T08:37:03Z</time>
      </trkpt>
      <trkpt lat="47.42064" lon="-1.42399">
        <ele>61</ele>
        <time>2022-07-09T08:37:05Z</time>
      </trkpt>
      <trkpt lat="47.42057" lon="-1.42382">
        <ele>61</ele>
        <time>2022-07-09T08:37:07Z</time>
      </trkpt>
      <trkpt lat="47.4205" lon="-1.42365">
        <ele>61</ele>
        <time>2022-07-09T08:37:09Z</time>
      </trkpt>
      <trkpt lat="47.42044" lon="-1.42348">
        <ele>61</ele>
        <time>2022-07-09T08:37:11Z</time>
      </trkpt>
      <trkpt lat="47.42036" lon="-1.42332">
        <ele>60</ele>
        <time>2022-07-09T08:37:13Z</time>
      </trkpt>
      <trkpt lat="47.4203" lon="-1.42317">
        <ele>60</ele>
        <time>2022-07-09T08:37:15Z</time>
      </trkpt>
      <trkpt lat="47.42022" lon="-1.42301">
        <ele>60</ele>
        <time>2022-07-09T08:37:17Z</time>
      </trkpt>
      <trkpt lat="47.42015" lon="-1.42286">
        <ele>60</ele>
        <time>2022-07-09T08:37:19Z</time>
      </trkpt>
      <trkpt lat="47.42007" lon="-1.42271">
        <ele>60</ele>
        <time>2022-07-09T08:37:21Z</time>
      </trkpt>
      <trkpt lat="47.41999" lon="-1.42255">
        <ele>60</ele>
        <time>2022-07-09T08:37:23Z</time>
      </trkpt>
      <trkpt lat="47.41991" lon="-1.4224">
        <ele>61</ele>
        <time>2022-07-09T08:37:25Z</time>
      </trkpt>
      <trkpt lat="47.41982" lon="-1.42224">
        <ele>60</ele>
        <time>2022-07-09T08:37:27Z</time>
      </trkpt>
      <trkpt lat="47.41973" lon="-1.42209">
        <ele>60</ele>
        <time>2022-07-09T08:37:29Z</time>
      </trkpt>
      <trkpt lat="47.41965" lon="-1.42194">
        <ele>60</ele>
        <time>2022-07-09T08:37:31Z</time>
      </trkpt>
      <trkpt lat="47.41956" lon="-1.42179">
        <ele>60</ele>
        <time>2022-07-09T08:37:33Z</time>
      </trkpt>
      <trkpt lat="47.41948" lon="-1.42164">
        <ele>60</ele>
        <time>2022-07-09T08:37:35Z</time>
      </trkpt>
      <trkpt lat="47.41939" lon="-1.42149">
        <ele>61</ele>
        <time>2022-07-09T08:37:37Z</time>
      </trkpt>
      <trkpt lat="47.41931" lon="-1.42134">
        <ele>61</ele>
        <time>2022-07-09T08:37:39Z</time>
      </trkpt>
      <trkpt lat="47.41923" lon="-1.4212">
        <ele>61</ele>
        <time>2022-07-09T08:37:41Z</time>
      </trkpt>
      <trkpt lat="47.41914" lon="-1.42105">
        <ele>61</ele>
        <time>2022-07-09T08:37:43Z</time>
      </trkpt>
      <trkpt lat="47.41907" lon="-1.4209">
        <ele>61</ele>
        <time>2022-07-09T08:37:45Z</time>
      </trkpt>
      <trkpt lat="47.41899" lon="-1.42076">
        <ele>61</ele>
        <time>2022-07-09T08:37:47Z</time>
      </trkpt>
      <trkpt lat="47.4189" lon="-1.42061">
        <ele>61</ele>
        <time>2022-07-09T08:37:49Z</time>
      </trkpt>
      <trkpt lat="47.41882" lon="-1.42047">
        <ele>61</ele>
        <time>2022-07-09T08:37:51Z</time>
      </trkpt>
      <trkpt lat="47.41874" lon="-1.42033">
        <ele>61</ele>
        <time>2022-07-09T08:37:53Z</time>
      </trkpt>
      <trkpt lat="47.41867" lon="-1.42019">
        <ele>62</ele>
        <time>2022-07-09T08:37:55Z</time>
      </trkpt>
      <trkpt lat="47.41859" lon="-1.42005">
        <ele>62</ele>
        <time>2022-07-09T08:37:57Z</time>
      </trkpt>
      <trkpt lat="47.41851" lon="-1.41992">
        <ele>62</ele>
        <time>2022-07-09T08:37:59Z</time>
      </trkpt>
      <trkpt lat="47.41844" lon="-1.41978">
        <ele>62</ele>
        <time>2022-07-09T08:38:01Z</time>
      </trkpt>
      <trkpt lat="47.41836" lon="-1.41964">
        <ele>62</ele>
        <time>2022-07-09T08:38:03Z</time>
      </trkpt>
      <trkpt lat="47.41828" lon="-1.41951">
        <ele>62</ele>
        <time>2022-07-09T08:38:05Z</time>
      </trkpt>
      <trkpt lat="47.41821" lon="-1.41937">
        <ele>62</ele>
        <time>2022-07-09T08:38:07Z</time>
      </trkpt>
      <trkpt lat="47.41813" lon="-1.41923">
        <ele>62</ele>
        <time>2022-07-09T08:38:09Z</time>
      </trkpt>
      <trkpt lat="47.41806" lon="-1.4191">
        <ele>63</ele>
        <time>2022-07-09T08:38:11Z</time>
      </trkpt>
      <trkpt lat="47.41798" lon="-1.41896">
        <ele>63</ele>
        <time>2022-07-09T08:38:13Z</time>
      </trkpt>
      <trkpt lat="47.4179" lon="-1.41883">
        <ele>63</ele>
        <time>2022-07-09T08:38:15Z</time>
      </trkpt>
      <trkpt lat="47.41783" lon="-1.41869">
        <ele>63</ele>
        <time>2022-07-09T08:38:17Z</time>
      </trkpt>
      <trkpt lat="47.41775" lon="-1.41855">
        <ele>63</ele>
        <time>2022-07-09T08:38:19Z</time>
      </trkpt>
      <trkpt lat="47.41766" lon="-1.4184">
        <ele>62</ele>
        <time>2022-07-09T08:38:21Z</time>
      </trkpt>
      <trkpt lat="47.41759" lon="-1.41825">
        <ele>62</ele>
        <time>2022-07-09T08:38:23Z</time>
      </trkpt>
      <trkpt lat="47.41751" lon="-1.41811">
        <ele>62</ele>
        <time>2022-07-09T08:38:25Z</time>
      </trkpt>
      <trkpt lat="47.41742" lon="-1.41796">
        <ele>62</ele>
        <time>2022-07-09T08:38:27Z</time>
      </trkpt>
      <trkpt lat="47.4173" lon="-1.41775">
        <ele>62</ele>
        <time>2022-07-09T08:38:30Z</time>
      </trkpt>
      <trkpt lat="47.41722" lon="-1.41761">
        <ele>62</ele>
        <time>2022-07-09T08:38:32Z</time>
      </trkpt>
      <trkpt lat="47.41709" lon="-1.41739">
        <ele>63</ele>
        <time>2022-07-09T08:38:35Z</time>
      </trkpt>
      <trkpt lat="47.41701" lon="-1.41725">
        <ele>62</ele>
        <time>2022-07-09T08:38:37Z</time>
      </trkpt>
      <trkpt lat="47.41693" lon="-1.41709">
        <ele>63</ele>
        <time>2022-07-09T08:38:39Z</time>
      </trkpt>
      <trkpt lat="47.41685" lon="-1.41694">
        <ele>63</ele>
        <time>2022-07-09T08:38:41Z</time>
      </trkpt>
      <trkpt lat="47.41677" lon="-1.4168">
        <ele>63</ele>
        <time>2022-07-09T08:38:43Z</time>
      </trkpt>
      <trkpt lat="47.41671" lon="-1.41665">
        <ele>62</ele>
        <time>2022-07-09T08:38:45Z</time>
      </trkpt>
      <trkpt lat="47.41664" lon="-1.41649">
        <ele>62</ele>
        <time>2022-07-09T08:38:47Z</time>
      </trkpt>
      <trkpt lat="47.41655" lon="-1.41625">
        <ele>63</ele>
        <time>2022-07-09T08:38:50Z</time>
      </trkpt>
      <trkpt lat="47.41649" lon="-1.41609">
        <ele>63</ele>
        <time>2022-07-09T08:38:52Z</time>
      </trkpt>
      <trkpt lat="47.41644" lon="-1.41593">
        <ele>62</ele>
        <time>2022-07-09T08:38:54Z</time>
      </trkpt>
      <trkpt lat="47.4164" lon="-1.41576">
        <ele>62</ele>
        <time>2022-07-09T08:38:56Z</time>
      </trkpt>
      <trkpt lat="47.41635" lon="-1.41561">
        <ele>63</ele>
        <time>2022-07-09T08:38:58Z</time>
      </trkpt>
      <trkpt lat="47.41632" lon="-1.41544">
        <ele>63</ele>
        <time>2022-07-09T08:39:00Z</time>
      </trkpt>
      <trkpt lat="47.41628" lon="-1.41528">
        <ele>63</ele>
        <time>2022-07-09T08:39:02Z</time>
      </trkpt>
      <trkpt lat="47.41624" lon="-1.41512">
        <ele>63</ele>
        <time>2022-07-09T08:39:04Z</time>
      </trkpt>
      <trkpt lat="47.41621" lon="-1.41495">
        <ele>63</ele>
        <time>2022-07-09T08:39:06Z</time>
      </trkpt>
      <trkpt lat="47.41619" lon="-1.41478">
        <ele>63</ele>
        <time>2022-07-09T08:39:08Z</time>
      </trkpt>
      <trkpt lat="47.41615" lon="-1.41462">
        <ele>63</ele>
        <time>2022-07-09T08:39:10Z</time>
      </trkpt>
      <trkpt lat="47.41612" lon="-1.41447">
        <ele>63</ele>
        <time>2022-07-09T08:39:12Z</time>
      </trkpt>
      <trkpt lat="47.41608" lon="-1.4143">
        <ele>63</ele>
        <time>2022-07-09T08:39:14Z</time>
      </trkpt>
      <trkpt lat="47.41604" lon="-1.41413">
        <ele>63</ele>
        <time>2022-07-09T08:39:16Z</time>
      </trkpt>
      <trkpt lat="47.41601" lon="-1.41397">
        <ele>63</ele>
        <time>2022-07-09T08:39:18Z</time>
      </trkpt>
      <trkpt lat="47.41598" lon="-1.4138">
        <ele>63</ele>
        <time>2022-07-09T08:39:20Z</time>
      </trkpt>
      <trkpt lat="47.41595" lon="-1.41364">
        <ele>63</ele>
        <time>2022-07-09T08:39:22Z</time>
      </trkpt>
      <trkpt lat="47.41591" lon="-1.41347">
        <ele>63</ele>
        <time>2022-07-09T08:39:24Z</time>
      </trkpt>
      <trkpt lat="47.41588" lon="-1.4133">
        <ele>63</ele>
        <time>2022-07-09T08:39:26Z</time>
      </trkpt>
      <trkpt lat="47.41584" lon="-1.41315">
        <ele>63</ele>
        <time>2022-07-09T08:39:28Z</time>
      </trkpt>
      <trkpt lat="47.41581" lon="-1.41298">
        <ele>63</ele>
        <time>2022-07-09T08:39:30Z</time>
      </trkpt>
      <trkpt lat="47.41576" lon="-1.41282">
        <ele>63</ele>
        <time>2022-07-09T08:39:32Z</time>
      </trkpt>
      <trkpt lat="47.41572" lon="-1.41265">
        <ele>64</ele>
        <time>2022-07-09T08:39:34Z</time>
      </trkpt>
      <trkpt lat="47.41569" lon="-1.41248">
        <ele>64</ele>
        <time>2022-07-09T08:39:36Z</time>
      </trkpt>
      <trkpt lat="47.41564" lon="-1.41231">
        <ele>64</ele>
        <time>2022-07-09T08:39:38Z</time>
      </trkpt>
      <trkpt lat="47.41561" lon="-1.41215">
        <ele>64</ele>
        <time>2022-07-09T08:39:40Z</time>
      </trkpt>
      <trkpt lat="47.41557" lon="-1.412">
        <ele>63</ele>
        <time>2022-07-09T08:39:42Z</time>
      </trkpt>
      <trkpt lat="47.41554" lon="-1.41183">
        <ele>63</ele>
        <time>2022-07-09T08:39:44Z</time>
      </trkpt>
      <trkpt lat="47.4155" lon="-1.41167">
        <ele>64</ele>
        <time>2022-07-09T08:39:46Z</time>
      </trkpt>
      <trkpt lat="47.41546" lon="-1.41151">
        <ele>64</ele>
        <time>2022-07-09T08:39:48Z</time>
      </trkpt>
      <trkpt lat="47.41542" lon="-1.41135">
        <ele>64</ele>
        <time>2022-07-09T08:39:50Z</time>
      </trkpt>
      <trkpt lat="47.41539" lon="-1.41118">
        <ele>64</ele>
        <time>2022-07-09T08:39:52Z</time>
      </trkpt>
      <trkpt lat="47.41535" lon="-1.41102">
        <ele>64</ele>
        <time>2022-07-09T08:39:54Z</time>
      </trkpt>
      <trkpt lat="47.41531" lon="-1.41086">
        <ele>64</ele>
        <time>2022-07-09T08:39:56Z</time>
      </trkpt>
      <trkpt lat="47.41527" lon="-1.4107">
        <ele>64</ele>
        <time>2022-07-09T08:39:58Z</time>
      </trkpt>
      <trkpt lat="47.41523" lon="-1.41054">
        <ele>64</ele>
        <time>2022-07-09T08:40:00Z</time>
      </trkpt>
      <trkpt lat="47.4152" lon="-1.41038">
        <ele>65</ele>
        <time>2022-07-09T08:40:02Z</time>
      </trkpt>
      <trkpt lat="47.41516" lon="-1.41022">
        <ele>65</ele>
        <time>2022-07-09T08:40:04Z</time>
      </trkpt>
      <trkpt lat="47.41512" lon="-1.41006">
        <ele>65</ele>
        <time>2022-07-09T08:40:06Z</time>
      </trkpt>
      <trkpt lat="47.41508" lon="-1.40989">
        <ele>66</ele>
        <time>2022-07-09T08:40:08Z</time>
      </trkpt>
      <trkpt lat="47.41504" lon="-1.40973">
        <ele>65</ele>
        <time>2022-07-09T08:40:10Z</time>
      </trkpt>
      <trkpt lat="47.415" lon="-1.40957">
        <ele>65</ele>
        <time>2022-07-09T08:40:12Z</time>
      </trkpt>
      <trkpt lat="47.41497" lon="-1.4094">
        <ele>65</ele>
        <time>2022-07-09T08:40:14Z</time>
      </trkpt>
      <trkpt lat="47.41493" lon="-1.40924">
        <ele>65</ele>
        <time>2022-07-09T08:40:16Z</time>
      </trkpt>
      <trkpt lat="47.4149" lon="-1.40908">
        <ele>66</ele>
        <time>2022-07-09T08:40:18Z</time>
      </trkpt>
      <trkpt lat="47.41486" lon="-1.40892">
        <ele>65</ele>
        <time>2022-07-09T08:40:20Z</time>
      </trkpt>
      <trkpt lat="47.41483" lon="-1.40875">
        <ele>65</ele>
        <time>2022-07-09T08:40:22Z</time>
      </trkpt>
      <trkpt lat="47.4148" lon="-1.40858">
        <ele>65</ele>
        <time>2022-07-09T08:40:24Z</time>
      </trkpt>
      <trkpt lat="47.41479" lon="-1.40841">
        <ele>65</ele>
        <time>2022-07-09T08:40:26Z</time>
      </trkpt>
      <trkpt lat="47.41477" lon="-1.40823">
        <ele>65</ele>
        <time>2022-07-09T08:40:28Z</time>
      </trkpt>
      <trkpt lat="47.41476" lon="-1.40805">
        <ele>65</ele>
        <time>2022-07-09T08:40:30Z</time>
      </trkpt>
      <trkpt lat="47.41476" lon="-1.40787">
        <ele>64</ele>
        <time>2022-07-09T08:40:32Z</time>
      </trkpt>
      <trkpt lat="47.41474" lon="-1.4077">
        <ele>64</ele>
        <time>2022-07-09T08:40:34Z</time>
      </trkpt>
      <trkpt lat="47.41473" lon="-1.40754">
        <ele>65</ele>
        <time>2022-07-09T08:40:36Z</time>
      </trkpt>
      <trkpt lat="47.41472" lon="-1.40737">
        <ele>65</ele>
        <time>2022-07-09T08:40:38Z</time>
      </trkpt>
      <trkpt lat="47.41471" lon="-1.40721">
        <ele>65</ele>
        <time>2022-07-09T08:40:40Z</time>
      </trkpt>
      <trkpt lat="47.4147" lon="-1.40705">
        <ele>65</ele>
        <time>2022-07-09T08:40:42Z</time>
      </trkpt>
      <trkpt lat="47.41468" lon="-1.40688">
        <ele>65</ele>
        <time>2022-07-09T08:40:44Z</time>
      </trkpt>
      <trkpt lat="47.41467" lon="-1.4067">
        <ele>65</ele>
        <time>2022-07-09T08:40:46Z</time>
      </trkpt>
      <trkpt lat="47.41466" lon="-1.40652">
        <ele>64</ele>
        <time>2022-07-09T08:40:48Z</time>
      </trkpt>
      <trkpt lat="47.41465" lon="-1.40635">
        <ele>65</ele>
        <time>2022-07-09T08:40:50Z</time>
      </trkpt>
      <trkpt lat="47.41464" lon="-1.40617">
        <ele>65</ele>
        <time>2022-07-09T08:40:52Z</time>
      </trkpt>
      <trkpt lat="47.41462" lon="-1.406">
        <ele>65</ele>
        <time>2022-07-09T08:40:54Z</time>
      </trkpt>
      <trkpt lat="47.41461" lon="-1.40582">
        <ele>65</ele>
        <time>2022-07-09T08:40:56Z</time>
      </trkpt>
      <trkpt lat="47.4146" lon="-1.40565">
        <ele>65</ele>
        <time>2022-07-09T08:40:58Z</time>
      </trkpt>
      <trkpt lat="47.41458" lon="-1.40547">
        <ele>65</ele>
        <time>2022-07-09T08:41:00Z</time>
      </trkpt>
      <trkpt lat="47.41457" lon="-1.40529">
        <ele>65</ele>
        <time>2022-07-09T08:41:02Z</time>
      </trkpt>
      <trkpt lat="47.41456" lon="-1.40512">
        <ele>65</ele>
        <time>2022-07-09T08:41:04Z</time>
      </trkpt>
      <trkpt lat="47.41454" lon="-1.40495">
        <ele>65</ele>
        <time>2022-07-09T08:41:06Z</time>
      </trkpt>
      <trkpt lat="47.41453" lon="-1.40478">
        <ele>65</ele>
        <time>2022-07-09T08:41:08Z</time>
      </trkpt>
      <trkpt lat="47.41452" lon="-1.40461">
        <ele>65</ele>
        <time>2022-07-09T08:41:10Z</time>
      </trkpt>
      <trkpt lat="47.41451" lon="-1.40443">
        <ele>65</ele>
        <time>2022-07-09T08:41:12Z</time>
      </trkpt>
      <trkpt lat="47.41449" lon="-1.40425">
        <ele>65</ele>
        <time>2022-07-09T08:41:14Z</time>
      </trkpt>
      <trkpt lat="47.41448" lon="-1.40407">
        <ele>65</ele>
        <time>2022-07-09T08:41:16Z</time>
      </trkpt>
      <trkpt lat="47.41447" lon="-1.40391">
        <ele>65</ele>
        <time>2022-07-09T08:41:18Z</time>
      </trkpt>
      <trkpt lat="47.41446" lon="-1.40374">
        <ele>65</ele>
        <time>2022-07-09T08:41:20Z</time>
      </trkpt>
      <trkpt lat="47.41445" lon="-1.40356">
        <ele>65</ele>
        <time>2022-07-09T08:41:22Z</time>
      </trkpt>
      <trkpt lat="47.41444" lon="-1.4034">
        <ele>66</ele>
        <time>2022-07-09T08:41:24Z</time>
      </trkpt>
      <trkpt lat="47.41442" lon="-1.40322">
        <ele>66</ele>
        <time>2022-07-09T08:41:26Z</time>
      </trkpt>
      <trkpt lat="47.41441" lon="-1.40306">
        <ele>66</ele>
        <time>2022-07-09T08:41:28Z</time>
      </trkpt>
      <trkpt lat="47.4144" lon="-1.4029">
        <ele>66</ele>
        <time>2022-07-09T08:41:30Z</time>
      </trkpt>
      <trkpt lat="47.41439" lon="-1.40274">
        <ele>67</ele>
        <time>2022-07-09T08:41:32Z</time>
      </trkpt>
      <trkpt lat="47.41438" lon="-1.40259">
        <ele>67</ele>
        <time>2022-07-09T08:41:34Z</time>
      </trkpt>
      <trkpt lat="47.41437" lon="-1.40244">
        <ele>66</ele>
        <time>2022-07-09T08:41:36Z</time>
      </trkpt>
      <trkpt lat="47.41436" lon="-1.40231">
        <ele>67</ele>
        <time>2022-07-09T08:41:38Z</time>
      </trkpt>
      <trkpt lat="47.41434" lon="-1.40212">
        <ele>68</ele>
        <time>2022-07-09T08:41:41Z</time>
      </trkpt>
      <trkpt lat="47.41433" lon="-1.40192">
        <ele>69</ele>
        <time>2022-07-09T08:41:44Z</time>
      </trkpt>
      <trkpt lat="47.41431" lon="-1.40173">
        <ele>69</ele>
        <time>2022-07-09T08:41:47Z</time>
      </trkpt>
      <trkpt lat="47.41429" lon="-1.40153">
        <ele>70</ele>
        <time>2022-07-09T08:41:50Z</time>
      </trkpt>
      <trkpt lat="47.41429" lon="-1.4014">
        <ele>70</ele>
        <time>2022-07-09T08:41:52Z</time>
      </trkpt>
      <trkpt lat="47.41427" lon="-1.40121">
        <ele>71</ele>
        <time>2022-07-09T08:41:55Z</time>
      </trkpt>
      <trkpt lat="47.41425" lon="-1.40102">
        <ele>72</ele>
        <time>2022-07-09T08:41:58Z</time>
      </trkpt>
      <trkpt lat="47.41424" lon="-1.40083">
        <ele>73</ele>
        <time>2022-07-09T08:42:01Z</time>
      </trkpt>
      <trkpt lat="47.41422" lon="-1.40064">
        <ele>74</ele>
        <time>2022-07-09T08:42:04Z</time>
      </trkpt>
      <trkpt lat="47.41421" lon="-1.40046">
        <ele>75</ele>
        <time>2022-07-09T08:42:07Z</time>
      </trkpt>
      <trkpt lat="47.4142" lon="-1.40027">
        <ele>76</ele>
        <time>2022-07-09T08:42:10Z</time>
      </trkpt>
      <trkpt lat="47.41418" lon="-1.40009">
        <ele>76</ele>
        <time>2022-07-09T08:42:13Z</time>
      </trkpt>
      <trkpt lat="47.41417" lon="-1.3999">
        <ele>77</ele>
        <time>2022-07-09T08:42:16Z</time>
      </trkpt>
      <trkpt lat="47.41416" lon="-1.39972">
        <ele>78</ele>
        <time>2022-07-09T08:42:19Z</time>
      </trkpt>
      <trkpt lat="47.41415" lon="-1.39954">
        <ele>78</ele>
        <time>2022-07-09T08:42:22Z</time>
      </trkpt>
      <trkpt lat="47.41413" lon="-1.39936">
        <ele>79</ele>
        <time>2022-07-09T08:42:25Z</time>
      </trkpt>
      <trkpt lat="47.41412" lon="-1.39919">
        <ele>80</ele>
        <time>2022-07-09T08:42:28Z</time>
      </trkpt>
      <trkpt lat="47.41411" lon="-1.399">
        <ele>80</ele>
        <time>2022-07-09T08:42:31Z</time>
      </trkpt>
      <trkpt lat="47.41409" lon="-1.39882">
        <ele>81</ele>
        <time>2022-07-09T08:42:34Z</time>
      </trkpt>
      <trkpt lat="47.41408" lon="-1.39863">
        <ele>81</ele>
        <time>2022-07-09T08:42:37Z</time>
      </trkpt>
      <trkpt lat="47.41406" lon="-1.39845">
        <ele>82</ele>
        <time>2022-07-09T08:42:40Z</time>
      </trkpt>
      <trkpt lat="47.41406" lon="-1.39828">
        <ele>82</ele>
        <time>2022-07-09T08:42:43Z</time>
      </trkpt>
      <trkpt lat="47.41404" lon="-1.39809">
        <ele>82</ele>
        <time>2022-07-09T08:42:46Z</time>
      </trkpt>
      <trkpt lat="47.41403" lon="-1.39792">
        <ele>83</ele>
        <time>2022-07-09T08:42:49Z</time>
      </trkpt>
      <trkpt lat="47.41401" lon="-1.39774">
        <ele>83</ele>
        <time>2022-07-09T08:42:52Z</time>
      </trkpt>
      <trkpt lat="47.414" lon="-1.39757">
        <ele>84</ele>
        <time>2022-07-09T08:42:55Z</time>
      </trkpt>
      <trkpt lat="47.41399" lon="-1.39739">
        <ele>84</ele>
        <time>2022-07-09T08:42:58Z</time>
      </trkpt>
      <trkpt lat="47.41398" lon="-1.39721">
        <ele>84</ele>
        <time>2022-07-09T08:43:01Z</time>
      </trkpt>
      <trkpt lat="47.41397" lon="-1.39703">
        <ele>85</ele>
        <time>2022-07-09T08:43:04Z</time>
      </trkpt>
      <trkpt lat="47.41396" lon="-1.39685">
        <ele>85</ele>
        <time>2022-07-09T08:43:07Z</time>
      </trkpt>
      <trkpt lat="47.41395" lon="-1.39666">
        <ele>85</ele>
        <time>2022-07-09T08:43:10Z</time>
      </trkpt>
      <trkpt lat="47.41393" lon="-1.39647">
        <ele>86</ele>
        <time>2022-07-09T08:43:13Z</time>
      </trkpt>
      <trkpt lat="47.41392" lon="-1.39634">
        <ele>86</ele>
        <time>2022-07-09T08:43:15Z</time>
      </trkpt>
      <trkpt lat="47.4139" lon="-1.39613">
        <ele>85</ele>
        <time>2022-07-09T08:43:18Z</time>
      </trkpt>
      <trkpt lat="47.41389" lon="-1.396">
        <ele>86</ele>
        <time>2022-07-09T08:43:20Z</time>
      </trkpt>
      <trkpt lat="47.41388" lon="-1.39585">
        <ele>85</ele>
        <time>2022-07-09T08:43:22Z</time>
      </trkpt>
      <trkpt lat="47.41387" lon="-1.3957">
        <ele>85</ele>
        <time>2022-07-09T08:43:24Z</time>
      </trkpt>
      <trkpt lat="47.41386" lon="-1.39555">
        <ele>85</ele>
        <time>2022-07-09T08:43:26Z</time>
      </trkpt>
      <trkpt lat="47.41385" lon="-1.39538">
        <ele>85</ele>
        <time>2022-07-09T08:43:28Z</time>
      </trkpt>
      <trkpt lat="47.41384" lon="-1.39522">
        <ele>85</ele>
        <time>2022-07-09T08:43:30Z</time>
      </trkpt>
      <trkpt lat="47.41382" lon="-1.39505">
        <ele>84</ele>
        <time>2022-07-09T08:43:32Z</time>
      </trkpt>
      <trkpt lat="47.41381" lon="-1.3949">
        <ele>84</ele>
        <time>2022-07-09T08:43:34Z</time>
      </trkpt>
      <trkpt lat="47.4138" lon="-1.39473">
        <ele>84</ele>
        <time>2022-07-09T08:43:36Z</time>
      </trkpt>
      <trkpt lat="47.41379" lon="-1.39455">
        <ele>83</ele>
        <time>2022-07-09T08:43:38Z</time>
      </trkpt>
      <trkpt lat="47.41377" lon="-1.39437">
        <ele>83</ele>
        <time>2022-07-09T08:43:40Z</time>
      </trkpt>
      <trkpt lat="47.41376" lon="-1.39419">
        <ele>83</ele>
        <time>2022-07-09T08:43:42Z</time>
      </trkpt>
      <trkpt lat="47.41375" lon="-1.39401">
        <ele>83</ele>
        <time>2022-07-09T08:43:44Z</time>
      </trkpt>
      <trkpt lat="47.41373" lon="-1.39383">
        <ele>82</ele>
        <time>2022-07-09T08:43:46Z</time>
      </trkpt>
      <trkpt lat="47.41372" lon="-1.39366">
        <ele>83</ele>
        <time>2022-07-09T08:43:48Z</time>
      </trkpt>
      <trkpt lat="47.41371" lon="-1.39348">
        <ele>83</ele>
        <time>2022-07-09T08:43:50Z</time>
      </trkpt>
      <trkpt lat="47.4137" lon="-1.39331">
        <ele>83</ele>
        <time>2022-07-09T08:43:52Z</time>
      </trkpt>
      <trkpt lat="47.41369" lon="-1.39313">
        <ele>82</ele>
        <time>2022-07-09T08:43:54Z</time>
      </trkpt>
      <trkpt lat="47.41367" lon="-1.39296">
        <ele>82</ele>
        <time>2022-07-09T08:43:56Z</time>
      </trkpt>
      <trkpt lat="47.41366" lon="-1.39278">
        <ele>82</ele>
        <time>2022-07-09T08:43:58Z</time>
      </trkpt>
      <trkpt lat="47.41365" lon="-1.39261">
        <ele>82</ele>
        <time>2022-07-09T08:44:00Z</time>
      </trkpt>
      <trkpt lat="47.41364" lon="-1.39244">
        <ele>82</ele>
        <time>2022-07-09T08:44:02Z</time>
      </trkpt>
      <trkpt lat="47.41363" lon="-1.39228">
        <ele>82</ele>
        <time>2022-07-09T08:44:04Z</time>
      </trkpt>
      <trkpt lat="47.41361" lon="-1.39212">
        <ele>83</ele>
        <time>2022-07-09T08:44:06Z</time>
      </trkpt>
      <trkpt lat="47.41358" lon="-1.39196">
        <ele>83</ele>
        <time>2022-07-09T08:44:08Z</time>
      </trkpt>
      <trkpt lat="47.41354" lon="-1.39182">
        <ele>83</ele>
        <time>2022-07-09T08:44:10Z</time>
      </trkpt>
      <trkpt lat="47.41348" lon="-1.39169">
        <ele>83</ele>
        <time>2022-07-09T08:44:12Z</time>
      </trkpt>
      <trkpt lat="47.41348" lon="-1.39153">
        <ele>83</ele>
        <time>2022-07-09T08:44:14Z</time>
      </trkpt>
      <trkpt lat="47.41351" lon="-1.39137">
        <ele>83</ele>
        <time>2022-07-09T08:44:16Z</time>
      </trkpt>
      <trkpt lat="47.41353" lon="-1.3912">
        <ele>83</ele>
        <time>2022-07-09T08:44:18Z</time>
      </trkpt>
      <trkpt lat="47.41353" lon="-1.39103">
        <ele>83</ele>
        <time>2022-07-09T08:44:20Z</time>
      </trkpt>
      <trkpt lat="47.41352" lon="-1.39086">
        <ele>83</ele>
        <time>2022-07-09T08:44:22Z</time>
      </trkpt>
      <trkpt lat="47.41352" lon="-1.39069">
        <ele>83</ele>
        <time>2022-07-09T08:44:24Z</time>
      </trkpt>
      <trkpt lat="47.4135" lon="-1.39052">
        <ele>83</ele>
        <time>2022-07-09T08:44:26Z</time>
      </trkpt>
      <trkpt lat="47.41349" lon="-1.39035">
        <ele>83</ele>
        <time>2022-07-09T08:44:28Z</time>
      </trkpt>
      <trkpt lat="47.41348" lon="-1.39019">
        <ele>83</ele>
        <time>2022-07-09T08:44:30Z</time>
      </trkpt>
      <trkpt lat="47.41347" lon="-1.39003">
        <ele>84</ele>
        <time>2022-07-09T08:44:32Z</time>
      </trkpt>
      <trkpt lat="47.41345" lon="-1.38987">
        <ele>83</ele>
        <time>2022-07-09T08:44:34Z</time>
      </trkpt>
      <trkpt lat="47.41344" lon="-1.38971">
        <ele>84</ele>
        <time>2022-07-09T08:44:36Z</time>
      </trkpt>
      <trkpt lat="47.41343" lon="-1.38956">
        <ele>84</ele>
        <time>2022-07-09T08:44:38Z</time>
      </trkpt>
      <trkpt lat="47.41341" lon="-1.38939">
        <ele>84</ele>
        <time>2022-07-09T08:44:40Z</time>
      </trkpt>
      <trkpt lat="47.41339" lon="-1.38923">
        <ele>84</ele>
        <time>2022-07-09T08:44:42Z</time>
      </trkpt>
      <trkpt lat="47.41338" lon="-1.38907">
        <ele>85</ele>
        <time>2022-07-09T08:44:44Z</time>
      </trkpt>
      <trkpt lat="47.41337" lon="-1.3889">
        <ele>85</ele>
        <time>2022-07-09T08:44:46Z</time>
      </trkpt>
      <trkpt lat="47.41336" lon="-1.38874">
        <ele>85</ele>
        <time>2022-07-09T08:44:48Z</time>
      </trkpt>
      <trkpt lat="47.41335" lon="-1.38858">
        <ele>85</ele>
        <time>2022-07-09T08:44:50Z</time>
      </trkpt>
      <trkpt lat="47.41334" lon="-1.38842">
        <ele>85</ele>
        <time>2022-07-09T08:44:52Z</time>
      </trkpt>
      <trkpt lat="47.41333" lon="-1.38826">
        <ele>85</ele>
        <time>2022-07-09T08:44:54Z</time>
      </trkpt>
      <trkpt lat="47.41332" lon="-1.3881">
        <ele>85</ele>
        <time>2022-07-09T08:44:56Z</time>
      </trkpt>
      <trkpt lat="47.4133" lon="-1.38794">
        <ele>85</ele>
        <time>2022-07-09T08:44:58Z</time>
      </trkpt>
      <trkpt lat="47.41329" lon="-1.38778">
        <ele>85</ele>
        <time>2022-07-09T08:45:00Z</time>
      </trkpt>
      <trkpt lat="47.41328" lon="-1.38761">
        <ele>85</ele>
        <time>2022-07-09T08:45:02Z</time>
      </trkpt>
      <trkpt lat="47.41327" lon="-1.38743">
        <ele>84</ele>
        <time>2022-07-09T08:45:04Z</time>
      </trkpt>
      <trkpt lat="47.41326" lon="-1.38726">
        <ele>84</ele>
        <time>2022-07-09T08:45:06Z</time>
      </trkpt>
      <trkpt lat="47.41325" lon="-1.38711">
        <ele>85</ele>
        <time>2022-07-09T08:45:08Z</time>
      </trkpt>
      <trkpt lat="47.41323" lon="-1.38695">
        <ele>85</ele>
        <time>2022-07-09T08:45:10Z</time>
      </trkpt>
      <trkpt lat="47.41322" lon="-1.3868">
        <ele>84</ele>
        <time>2022-07-09T08:45:12Z</time>
      </trkpt>
      <trkpt lat="47.41321" lon="-1.38664">
        <ele>85</ele>
        <time>2022-07-09T08:45:14Z</time>
      </trkpt>
      <trkpt lat="47.4132" lon="-1.38649">
        <ele>85</ele>
        <time>2022-07-09T08:45:16Z</time>
      </trkpt>
      <trkpt lat="47.4132" lon="-1.38633">
        <ele>85</ele>
        <time>2022-07-09T08:45:18Z</time>
      </trkpt>
      <trkpt lat="47.41318" lon="-1.38617">
        <ele>84</ele>
        <time>2022-07-09T08:45:20Z</time>
      </trkpt>
      <trkpt lat="47.41316" lon="-1.386">
        <ele>84</ele>
        <time>2022-07-09T08:45:22Z</time>
      </trkpt>
      <trkpt lat="47.41315" lon="-1.38583">
        <ele>85</ele>
        <time>2022-07-09T08:45:24Z</time>
      </trkpt>
      <trkpt lat="47.41314" lon="-1.38567">
        <ele>85</ele>
        <time>2022-07-09T08:45:26Z</time>
      </trkpt>
      <trkpt lat="47.41313" lon="-1.3855">
        <ele>85</ele>
        <time>2022-07-09T08:45:28Z</time>
      </trkpt>
      <trkpt lat="47.41311" lon="-1.38533">
        <ele>85</ele>
        <time>2022-07-09T08:45:30Z</time>
      </trkpt>
      <trkpt lat="47.4131" lon="-1.38516">
        <ele>85</ele>
        <time>2022-07-09T08:45:32Z</time>
      </trkpt>
      <trkpt lat="47.41308" lon="-1.385">
        <ele>85</ele>
        <time>2022-07-09T08:45:34Z</time>
      </trkpt>
      <trkpt lat="47.41307" lon="-1.38484">
        <ele>85</ele>
        <time>2022-07-09T08:45:36Z</time>
      </trkpt>
      <trkpt lat="47.41305" lon="-1.38467">
        <ele>86</ele>
        <time>2022-07-09T08:45:38Z</time>
      </trkpt>
      <trkpt lat="47.41304" lon="-1.3845">
        <ele>85</ele>
        <time>2022-07-09T08:45:40Z</time>
      </trkpt>
      <trkpt lat="47.41302" lon="-1.38432">
        <ele>85</ele>
        <time>2022-07-09T08:45:42Z</time>
      </trkpt>
      <trkpt lat="47.413" lon="-1.38415">
        <ele>85</ele>
        <time>2022-07-09T08:45:44Z</time>
      </trkpt>
      <trkpt lat="47.41298" lon="-1.38397">
        <ele>85</ele>
        <time>2022-07-09T08:45:46Z</time>
      </trkpt>
      <trkpt lat="47.41296" lon="-1.3838">
        <ele>85</ele>
        <time>2022-07-09T08:45:48Z</time>
      </trkpt>
      <trkpt lat="47.41293" lon="-1.38363">
        <ele>85</ele>
        <time>2022-07-09T08:45:50Z</time>
      </trkpt>
      <trkpt lat="47.41291" lon="-1.38346">
        <ele>85</ele>
        <time>2022-07-09T08:45:52Z</time>
      </trkpt>
      <trkpt lat="47.41289" lon="-1.3833">
        <ele>84</ele>
        <time>2022-07-09T08:45:54Z</time>
      </trkpt>
      <trkpt lat="47.41288" lon="-1.38313">
        <ele>84</ele>
        <time>2022-07-09T08:45:56Z</time>
      </trkpt>
      <trkpt lat="47.41286" lon="-1.38296">
        <ele>84</ele>
        <time>2022-07-09T08:45:58Z</time>
      </trkpt>
      <trkpt lat="47.41284" lon="-1.38279">
        <ele>84</ele>
        <time>2022-07-09T08:46:00Z</time>
      </trkpt>
      <trkpt lat="47.41281" lon="-1.38263">
        <ele>84</ele>
        <time>2022-07-09T08:46:02Z</time>
      </trkpt>
      <trkpt lat="47.41279" lon="-1.38246">
        <ele>85</ele>
        <time>2022-07-09T08:46:04Z</time>
      </trkpt>
      <trkpt lat="47.41277" lon="-1.38229">
        <ele>85</ele>
        <time>2022-07-09T08:46:06Z</time>
      </trkpt>
      <trkpt lat="47.41275" lon="-1.38214">
        <ele>85</ele>
        <time>2022-07-09T08:46:08Z</time>
      </trkpt>
      <trkpt lat="47.41272" lon="-1.38195">
        <ele>85</ele>
        <time>2022-07-09T08:46:11Z</time>
      </trkpt>
      <trkpt lat="47.41271" lon="-1.38181">
        <ele>85</ele>
        <time>2022-07-09T08:46:13Z</time>
      </trkpt>
      <trkpt lat="47.41269" lon="-1.38165">
        <ele>85</ele>
        <time>2022-07-09T08:46:15Z</time>
      </trkpt>
      <trkpt lat="47.41267" lon="-1.38151">
        <ele>85</ele>
        <time>2022-07-09T08:46:17Z</time>
      </trkpt>
      <trkpt lat="47.41266" lon="-1.38136">
        <ele>86</ele>
        <time>2022-07-09T08:46:19Z</time>
      </trkpt>
      <trkpt lat="47.41264" lon="-1.38121">
        <ele>86</ele>
        <time>2022-07-09T08:46:21Z</time>
      </trkpt>
      <trkpt lat="47.41263" lon="-1.38105">
        <ele>86</ele>
        <time>2022-07-09T08:46:23Z</time>
      </trkpt>
      <trkpt lat="47.41261" lon="-1.3809">
        <ele>86</ele>
        <time>2022-07-09T08:46:25Z</time>
      </trkpt>
      <trkpt lat="47.41259" lon="-1.38076">
        <ele>86</ele>
        <time>2022-07-09T08:46:27Z</time>
      </trkpt>
      <trkpt lat="47.41257" lon="-1.3806">
        <ele>86</ele>
        <time>2022-07-09T08:46:29Z</time>
      </trkpt>
      <trkpt lat="47.41255" lon="-1.38044">
        <ele>86</ele>
        <time>2022-07-09T08:46:31Z</time>
      </trkpt>
      <trkpt lat="47.41253" lon="-1.3803">
        <ele>86</ele>
        <time>2022-07-09T08:46:33Z</time>
      </trkpt>
      <trkpt lat="47.41252" lon="-1.38016">
        <ele>86</ele>
        <time>2022-07-09T08:46:35Z</time>
      </trkpt>
      <trkpt lat="47.4125" lon="-1.38">
        <ele>86</ele>
        <time>2022-07-09T08:46:37Z</time>
      </trkpt>
      <trkpt lat="47.41248" lon="-1.37984">
        <ele>86</ele>
        <time>2022-07-09T08:46:39Z</time>
      </trkpt>
      <trkpt lat="47.41246" lon="-1.37968">
        <ele>86</ele>
        <time>2022-07-09T08:46:41Z</time>
      </trkpt>
      <trkpt lat="47.41243" lon="-1.37952">
        <ele>86</ele>
        <time>2022-07-09T08:46:43Z</time>
      </trkpt>
      <trkpt lat="47.41242" lon="-1.37935">
        <ele>86</ele>
        <time>2022-07-09T08:46:45Z</time>
      </trkpt>
      <trkpt lat="47.4124" lon="-1.37917">
        <ele>86</ele>
        <time>2022-07-09T08:46:47Z</time>
      </trkpt>
      <trkpt lat="47.41238" lon="-1.37899">
        <ele>86</ele>
        <time>2022-07-09T08:46:49Z</time>
      </trkpt>
      <trkpt lat="47.41236" lon="-1.37882">
        <ele>86</ele>
        <time>2022-07-09T08:46:51Z</time>
      </trkpt>
      <trkpt lat="47.41234" lon="-1.37866">
        <ele>85</ele>
        <time>2022-07-09T08:46:53Z</time>
      </trkpt>
      <trkpt lat="47.41231" lon="-1.3785">
        <ele>85</ele>
        <time>2022-07-09T08:46:55Z</time>
      </trkpt>
      <trkpt lat="47.4123" lon="-1.37833">
        <ele>87</ele>
        <time>2022-07-09T08:46:57Z</time>
      </trkpt>
      <trkpt lat="47.41228" lon="-1.37817">
        <ele>87</ele>
        <time>2022-07-09T08:46:59Z</time>
      </trkpt>
      <trkpt lat="47.41225" lon="-1.37801">
        <ele>87</ele>
        <time>2022-07-09T08:47:01Z</time>
      </trkpt>
      <trkpt lat="47.41223" lon="-1.37785">
        <ele>87</ele>
        <time>2022-07-09T08:47:03Z</time>
      </trkpt>
      <trkpt lat="47.4122" lon="-1.3777">
        <ele>87</ele>
        <time>2022-07-09T08:47:05Z</time>
      </trkpt>
      <trkpt lat="47.41217" lon="-1.37756">
        <ele>88</ele>
        <time>2022-07-09T08:47:07Z</time>
      </trkpt>
      <trkpt lat="47.41214" lon="-1.3774">
        <ele>87</ele>
        <time>2022-07-09T08:47:09Z</time>
      </trkpt>
      <trkpt lat="47.4121" lon="-1.37726">
        <ele>87</ele>
        <time>2022-07-09T08:47:11Z</time>
      </trkpt>
      <trkpt lat="47.41206" lon="-1.37711">
        <ele>87</ele>
        <time>2022-07-09T08:47:13Z</time>
      </trkpt>
      <trkpt lat="47.41201" lon="-1.37696">
        <ele>87</ele>
        <time>2022-07-09T08:47:15Z</time>
      </trkpt>
      <trkpt lat="47.41198" lon="-1.37679">
        <ele>87</ele>
        <time>2022-07-09T08:47:17Z</time>
      </trkpt>
      <trkpt lat="47.41195" lon="-1.37663">
        <ele>87</ele>
        <time>2022-07-09T08:47:19Z</time>
      </trkpt>
      <trkpt lat="47.41189" lon="-1.3765">
        <ele>87</ele>
        <time>2022-07-09T08:47:21Z</time>
      </trkpt>
      <trkpt lat="47.41178" lon="-1.37644">
        <ele>86</ele>
        <time>2022-07-09T08:47:23Z</time>
      </trkpt>
      <trkpt lat="47.41167" lon="-1.37637">
        <ele>86</ele>
        <time>2022-07-09T08:47:25Z</time>
      </trkpt>
      <trkpt lat="47.41156" lon="-1.37629">
        <ele>85</ele>
        <time>2022-07-09T08:47:27Z</time>
      </trkpt>
      <trkpt lat="47.41145" lon="-1.3762">
        <ele>84</ele>
        <time>2022-07-09T08:47:29Z</time>
      </trkpt>
      <trkpt lat="47.41137" lon="-1.37608">
        <ele>85</ele>
        <time>2022-07-09T08:47:31Z</time>
      </trkpt>
      <trkpt lat="47.41129" lon="-1.37598">
        <ele>85</ele>
        <time>2022-07-09T08:47:33Z</time>
      </trkpt>
      <trkpt lat="47.4112" lon="-1.37592">
        <ele>86</ele>
        <time>2022-07-09T08:47:35Z</time>
      </trkpt>
      <trkpt lat="47.41109" lon="-1.37587">
        <ele>86</ele>
        <time>2022-07-09T08:47:37Z</time>
      </trkpt>
      <trkpt lat="47.41095" lon="-1.37584">
        <ele>86</ele>
        <time>2022-07-09T08:47:39Z</time>
      </trkpt>
      <trkpt lat="47.41083" lon="-1.37587">
        <ele>86</ele>
        <time>2022-07-09T08:47:41Z</time>
      </trkpt>
      <trkpt lat="47.4107" lon="-1.37591">
        <ele>86</ele>
        <time>2022-07-09T08:47:43Z</time>
      </trkpt>
      <trkpt lat="47.41058" lon="-1.37595">
        <ele>86</ele>
        <time>2022-07-09T08:47:45Z</time>
      </trkpt>
      <trkpt lat="47.41045" lon="-1.37599">
        <ele>86</ele>
        <time>2022-07-09T08:47:47Z</time>
      </trkpt>
      <trkpt lat="47.41033" lon="-1.37602">
        <ele>86</ele>
        <time>2022-07-09T08:47:49Z</time>
      </trkpt>
      <trkpt lat="47.41021" lon="-1.37606">
        <ele>86</ele>
        <time>2022-07-09T08:47:51Z</time>
      </trkpt>
      <trkpt lat="47.41009" lon="-1.37609">
        <ele>86</ele>
        <time>2022-07-09T08:47:53Z</time>
      </trkpt>
      <trkpt lat="47.40997" lon="-1.37613">
        <ele>86</ele>
        <time>2022-07-09T08:47:55Z</time>
      </trkpt>
      <trkpt lat="47.40986" lon="-1.37618">
        <ele>86</ele>
        <time>2022-07-09T08:47:57Z</time>
      </trkpt>
      <trkpt lat="47.40973" lon="-1.37621">
        <ele>86</ele>
        <time>2022-07-09T08:47:59Z</time>
      </trkpt>
      <trkpt lat="47.40961" lon="-1.37623">
        <ele>86</ele>
        <time>2022-07-09T08:48:01Z</time>
      </trkpt>
      <trkpt lat="47.40949" lon="-1.37627">
        <ele>86</ele>
        <time>2022-07-09T08:48:03Z</time>
      </trkpt>
      <trkpt lat="47.40937" lon="-1.37631">
        <ele>86</ele>
        <time>2022-07-09T08:48:05Z</time>
      </trkpt>
      <trkpt lat="47.40925" lon="-1.37635">
        <ele>86</ele>
        <time>2022-07-09T08:48:07Z</time>
      </trkpt>
      <trkpt lat="47.40912" lon="-1.37638">
        <ele>85</ele>
        <time>2022-07-09T08:48:09Z</time>
      </trkpt>
      <trkpt lat="47.409" lon="-1.37642">
        <ele>85</ele>
        <time>2022-07-09T08:48:11Z</time>
      </trkpt>
      <trkpt lat="47.40888" lon="-1.37647">
        <ele>84</ele>
        <time>2022-07-09T08:48:13Z</time>
      </trkpt>
      <trkpt lat="47.40877" lon="-1.37653">
        <ele>84</ele>
        <time>2022-07-09T08:48:15Z</time>
      </trkpt>
      <trkpt lat="47.40865" lon="-1.37652">
        <ele>83</ele>
        <time>2022-07-09T08:48:17Z</time>
      </trkpt>
      <trkpt lat="47.40852" lon="-1.37655">
        <ele>83</ele>
        <time>2022-07-09T08:48:19Z</time>
      </trkpt>
      <trkpt lat="47.40839" lon="-1.37659">
        <ele>83</ele>
        <time>2022-07-09T08:48:21Z</time>
      </trkpt>
      <trkpt lat="47.40825" lon="-1.37664">
        <ele>84</ele>
        <time>2022-07-09T08:48:23Z</time>
      </trkpt>
      <trkpt lat="47.40812" lon="-1.37668">
        <ele>84</ele>
        <time>2022-07-09T08:48:25Z</time>
      </trkpt>
      <trkpt lat="47.408" lon="-1.37672">
        <ele>83</ele>
        <time>2022-07-09T08:48:27Z</time>
      </trkpt>
      <trkpt lat="47.40786" lon="-1.37676">
        <ele>84</ele>
        <time>2022-07-09T08:48:29Z</time>
      </trkpt>
      <trkpt lat="47.40774" lon="-1.37681">
        <ele>83</ele>
        <time>2022-07-09T08:48:31Z</time>
      </trkpt>
      <trkpt lat="47.40761" lon="-1.37686">
        <ele>83</ele>
        <time>2022-07-09T08:48:33Z</time>
      </trkpt>
      <trkpt lat="47.40749" lon="-1.37692">
        <ele>82</ele>
        <time>2022-07-09T08:48:35Z</time>
      </trkpt>
      <trkpt lat="47.40736" lon="-1.37696">
        <ele>82</ele>
        <time>2022-07-09T08:48:37Z</time>
      </trkpt>
      <trkpt lat="47.40723" lon="-1.377">
        <ele>82</ele>
        <time>2022-07-09T08:48:39Z</time>
      </trkpt>
      <trkpt lat="47.4071" lon="-1.37703">
        <ele>82</ele>
        <time>2022-07-09T08:48:41Z</time>
      </trkpt>
      <trkpt lat="47.40698" lon="-1.37704">
        <ele>82</ele>
        <time>2022-07-09T08:48:43Z</time>
      </trkpt>
      <trkpt lat="47.40685" lon="-1.37705">
        <ele>81</ele>
        <time>2022-07-09T08:48:45Z</time>
      </trkpt>
      <trkpt lat="47.40672" lon="-1.37708">
        <ele>81</ele>
        <time>2022-07-09T08:48:47Z</time>
      </trkpt>
      <trkpt lat="47.40661" lon="-1.37711">
        <ele>81</ele>
        <time>2022-07-09T08:48:49Z</time>
      </trkpt>
      <trkpt lat="47.4065" lon="-1.37713">
        <ele>81</ele>
        <time>2022-07-09T08:48:51Z</time>
      </trkpt>
      <trkpt lat="47.40638" lon="-1.37714">
        <ele>82</ele>
        <time>2022-07-09T08:48:53Z</time>
      </trkpt>
      <trkpt lat="47.40626" lon="-1.37716">
        <ele>81</ele>
        <time>2022-07-09T08:48:55Z</time>
      </trkpt>
      <trkpt lat="47.40614" lon="-1.37716">
        <ele>81</ele>
        <time>2022-07-09T08:48:57Z</time>
      </trkpt>
      <trkpt lat="47.40603" lon="-1.37718">
        <ele>81</ele>
        <time>2022-07-09T08:48:59Z</time>
      </trkpt>
      <trkpt lat="47.40591" lon="-1.37719">
        <ele>81</ele>
        <time>2022-07-09T08:49:01Z</time>
      </trkpt>
      <trkpt lat="47.40579" lon="-1.37719">
        <ele>81</ele>
        <time>2022-07-09T08:49:03Z</time>
      </trkpt>
      <trkpt lat="47.40567" lon="-1.37721">
        <ele>82</ele>
        <time>2022-07-09T08:49:05Z</time>
      </trkpt>
      <trkpt lat="47.40555" lon="-1.37721">
        <ele>82</ele>
        <time>2022-07-09T08:49:07Z</time>
      </trkpt>
      <trkpt lat="47.40543" lon="-1.37722">
        <ele>83</ele>
        <time>2022-07-09T08:49:09Z</time>
      </trkpt>
      <trkpt lat="47.40531" lon="-1.37723">
        <ele>83</ele>
        <time>2022-07-09T08:49:11Z</time>
      </trkpt>
      <trkpt lat="47.4052" lon="-1.37726">
        <ele>84</ele>
        <time>2022-07-09T08:49:13Z</time>
      </trkpt>
      <trkpt lat="47.40509" lon="-1.37732">
        <ele>84</ele>
        <time>2022-07-09T08:49:15Z</time>
      </trkpt>
      <trkpt lat="47.40497" lon="-1.37735">
        <ele>85</ele>
        <time>2022-07-09T08:49:17Z</time>
      </trkpt>
      <trkpt lat="47.40486" lon="-1.37733">
        <ele>85</ele>
        <time>2022-07-09T08:49:19Z</time>
      </trkpt>
      <trkpt lat="47.40475" lon="-1.3773">
        <ele>85</ele>
        <time>2022-07-09T08:49:21Z</time>
      </trkpt>
      <trkpt lat="47.40463" lon="-1.3773">
        <ele>86</ele>
        <time>2022-07-09T08:49:23Z</time>
      </trkpt>
      <trkpt lat="47.40452" lon="-1.3773">
        <ele>86</ele>
        <time>2022-07-09T08:49:25Z</time>
      </trkpt>
      <trkpt lat="47.40441" lon="-1.37731">
        <ele>87</ele>
        <time>2022-07-09T08:49:27Z</time>
      </trkpt>
      <trkpt lat="47.4043" lon="-1.37732">
        <ele>87</ele>
        <time>2022-07-09T08:49:29Z</time>
      </trkpt>
      <trkpt lat="47.40418" lon="-1.37733">
        <ele>87</ele>
        <time>2022-07-09T08:49:31Z</time>
      </trkpt>
      <trkpt lat="47.40406" lon="-1.37733">
        <ele>87</ele>
        <time>2022-07-09T08:49:33Z</time>
      </trkpt>
      <trkpt lat="47.40395" lon="-1.37734">
        <ele>87</ele>
        <time>2022-07-09T08:49:35Z</time>
      </trkpt>
      <trkpt lat="47.40384" lon="-1.37735">
        <ele>88</ele>
        <time>2022-07-09T08:49:37Z</time>
      </trkpt>
      <trkpt lat="47.40374" lon="-1.37735">
        <ele>88</ele>
        <time>2022-07-09T08:49:39Z</time>
      </trkpt>
      <trkpt lat="47.40363" lon="-1.37736">
        <ele>88</ele>
        <time>2022-07-09T08:49:41Z</time>
      </trkpt>
      <trkpt lat="47.40353" lon="-1.37737">
        <ele>88</ele>
        <time>2022-07-09T08:49:43Z</time>
      </trkpt>
      <trkpt lat="47.40343" lon="-1.37738">
        <ele>88</ele>
        <time>2022-07-09T08:49:45Z</time>
      </trkpt>
      <trkpt lat="47.40333" lon="-1.37739">
        <ele>88</ele>
        <time>2022-07-09T08:49:47Z</time>
      </trkpt>
      <trkpt lat="47.40323" lon="-1.37739">
        <ele>88</ele>
        <time>2022-07-09T08:49:49Z</time>
      </trkpt>
      <trkpt lat="47.40313" lon="-1.3774">
        <ele>89</ele>
        <time>2022-07-09T08:49:51Z</time>
      </trkpt>
      <trkpt lat="47.40304" lon="-1.37741">
        <ele>89</ele>
        <time>2022-07-09T08:49:53Z</time>
      </trkpt>
      <trkpt lat="47.40294" lon="-1.37741">
        <ele>89</ele>
        <time>2022-07-09T08:49:55Z</time>
      </trkpt>
      <trkpt lat="47.40285" lon="-1.37743">
        <ele>90</ele>
        <time>2022-07-09T08:49:57Z</time>
      </trkpt>
      <trkpt lat="47.40275" lon="-1.37744">
        <ele>90</ele>
        <time>2022-07-09T08:49:59Z</time>
      </trkpt>
      <trkpt lat="47.40262" lon="-1.37745">
        <ele>91</ele>
        <time>2022-07-09T08:50:02Z</time>
      </trkpt>
      <trkpt lat="47.40253" lon="-1.37747">
        <ele>92</ele>
        <time>2022-07-09T08:50:04Z</time>
      </trkpt>
      <trkpt lat="47.40244" lon="-1.3775">
        <ele>93</ele>
        <time>2022-07-09T08:50:06Z</time>
      </trkpt>
      <trkpt lat="47.40235" lon="-1.37753">
        <ele>93</ele>
        <time>2022-07-09T08:50:08Z</time>
      </trkpt>
      <trkpt lat="47.40226" lon="-1.37757">
        <ele>93</ele>
        <time>2022-07-09T08:50:10Z</time>
      </trkpt>
      <trkpt lat="47.40217" lon="-1.37762">
        <ele>93</ele>
        <time>2022-07-09T08:50:12Z</time>
      </trkpt>
      <trkpt lat="47.40208" lon="-1.37767">
        <ele>94</ele>
        <time>2022-07-09T08:50:14Z</time>
      </trkpt>
      <trkpt lat="47.402" lon="-1.37773">
        <ele>94</ele>
        <time>2022-07-09T08:50:16Z</time>
      </trkpt>
      <trkpt lat="47.40191" lon="-1.37779">
        <ele>95</ele>
        <time>2022-07-09T08:50:18Z</time>
      </trkpt>
      <trkpt lat="47.40182" lon="-1.37786">
        <ele>96</ele>
        <time>2022-07-09T08:50:20Z</time>
      </trkpt>
      <trkpt lat="47.40173" lon="-1.37792">
        <ele>96</ele>
        <time>2022-07-09T08:50:22Z</time>
      </trkpt>
      <trkpt lat="47.40164" lon="-1.37799">
        <ele>97</ele>
        <time>2022-07-09T08:50:24Z</time>
      </trkpt>
      <trkpt lat="47.40156" lon="-1.37805">
        <ele>97</ele>
        <time>2022-07-09T08:50:26Z</time>
      </trkpt>
      <trkpt lat="47.40147" lon="-1.37812">
        <ele>98</ele>
        <time>2022-07-09T08:50:28Z</time>
      </trkpt>
      <trkpt lat="47.40138" lon="-1.37819">
        <ele>98</ele>
        <time>2022-07-09T08:50:30Z</time>
      </trkpt>
      <trkpt lat="47.40129" lon="-1.37826">
        <ele>99</ele>
        <time>2022-07-09T08:50:32Z</time>
      </trkpt>
      <trkpt lat="47.40121" lon="-1.37832">
        <ele>100</ele>
        <time>2022-07-09T08:50:34Z</time>
      </trkpt>
      <trkpt lat="47.40113" lon="-1.37839">
        <ele>100</ele>
        <time>2022-07-09T08:50:36Z</time>
      </trkpt>
      <trkpt lat="47.40104" lon="-1.37846">
        <ele>100</ele>
        <time>2022-07-09T08:50:38Z</time>
      </trkpt>
      <trkpt lat="47.40096" lon="-1.37852">
        <ele>101</ele>
        <time>2022-07-09T08:50:40Z</time>
      </trkpt>
      <trkpt lat="47.40087" lon="-1.37858">
        <ele>101</ele>
        <time>2022-07-09T08:50:42Z</time>
      </trkpt>
      <trkpt lat="47.40079" lon="-1.37864">
        <ele>101</ele>
        <time>2022-07-09T08:50:44Z</time>
      </trkpt>
      <trkpt lat="47.40071" lon="-1.3787">
        <ele>102</ele>
        <time>2022-07-09T08:50:46Z</time>
      </trkpt>
      <trkpt lat="47.40063" lon="-1.37877">
        <ele>102</ele>
        <time>2022-07-09T08:50:48Z</time>
      </trkpt>
      <trkpt lat="47.40055" lon="-1.37884">
        <ele>102</ele>
        <time>2022-07-09T08:50:50Z</time>
      </trkpt>
      <trkpt lat="47.40043" lon="-1.37892">
        <ele>103</ele>
        <time>2022-07-09T08:50:53Z</time>
      </trkpt>
      <trkpt lat="47.40035" lon="-1.37898">
        <ele>104</ele>
        <time>2022-07-09T08:50:55Z</time>
      </trkpt>
      <trkpt lat="47.40026" lon="-1.37905">
        <ele>104</ele>
        <time>2022-07-09T08:50:57Z</time>
      </trkpt>
      <trkpt lat="47.40018" lon="-1.37911">
        <ele>104</ele>
        <time>2022-07-09T08:50:59Z</time>
      </trkpt>
      <trkpt lat="47.4001" lon="-1.37917">
        <ele>104</ele>
        <time>2022-07-09T08:51:01Z</time>
      </trkpt>
      <trkpt lat="47.39998" lon="-1.37926">
        <ele>105</ele>
        <time>2022-07-09T08:51:04Z</time>
      </trkpt>
      <trkpt lat="47.3999" lon="-1.37932">
        <ele>105</ele>
        <time>2022-07-09T08:51:06Z</time>
      </trkpt>
      <trkpt lat="47.39981" lon="-1.37939">
        <ele>106</ele>
        <time>2022-07-09T08:51:08Z</time>
      </trkpt>
      <trkpt lat="47.39972" lon="-1.37947">
        <ele>106</ele>
        <time>2022-07-09T08:51:10Z</time>
      </trkpt>
      <trkpt lat="47.39963" lon="-1.37953">
        <ele>106</ele>
        <time>2022-07-09T08:51:12Z</time>
      </trkpt>
      <trkpt lat="47.39955" lon="-1.37958">
        <ele>106</ele>
        <time>2022-07-09T08:51:14Z</time>
      </trkpt>
      <trkpt lat="47.39945" lon="-1.37961">
        <ele>107</ele>
        <time>2022-07-09T08:51:16Z</time>
      </trkpt>
      <trkpt lat="47.39936" lon="-1.37965">
        <ele>107</ele>
        <time>2022-07-09T08:51:18Z</time>
      </trkpt>
      <trkpt lat="47.39927" lon="-1.37969">
        <ele>108</ele>
        <time>2022-07-09T08:51:20Z</time>
      </trkpt>
      <trkpt lat="47.39918" lon="-1.37973">
        <ele>108</ele>
        <time>2022-07-09T08:51:22Z</time>
      </trkpt>
      <trkpt lat="47.39904" lon="-1.37978">
        <ele>109</ele>
        <time>2022-07-09T08:51:25Z</time>
      </trkpt>
      <trkpt lat="47.39895" lon="-1.37982">
        <ele>109</ele>
        <time>2022-07-09T08:51:27Z</time>
      </trkpt>
      <trkpt lat="47.39882" lon="-1.37988">
        <ele>110</ele>
        <time>2022-07-09T08:51:30Z</time>
      </trkpt>
      <trkpt lat="47.39874" lon="-1.37992">
        <ele>110</ele>
        <time>2022-07-09T08:51:32Z</time>
      </trkpt>
      <trkpt lat="47.39864" lon="-1.37996">
        <ele>110</ele>
        <time>2022-07-09T08:51:34Z</time>
      </trkpt>
      <trkpt lat="47.39854" lon="-1.37999">
        <ele>110</ele>
        <time>2022-07-09T08:51:36Z</time>
      </trkpt>
      <trkpt lat="47.39845" lon="-1.38004">
        <ele>110</ele>
        <time>2022-07-09T08:51:38Z</time>
      </trkpt>
      <trkpt lat="47.39834" lon="-1.38007">
        <ele>110</ele>
        <time>2022-07-09T08:51:40Z</time>
      </trkpt>
      <trkpt lat="47.39824" lon="-1.38012">
        <ele>109</ele>
        <time>2022-07-09T08:51:42Z</time>
      </trkpt>
      <trkpt lat="47.39813" lon="-1.38016">
        <ele>109</ele>
        <time>2022-07-09T08:51:44Z</time>
      </trkpt>
      <trkpt lat="47.39804" lon="-1.3802">
        <ele>108</ele>
        <time>2022-07-09T08:51:46Z</time>
      </trkpt>
      <trkpt lat="47.39794" lon="-1.38024">
        <ele>108</ele>
        <time>2022-07-09T08:51:48Z</time>
      </trkpt>
      <trkpt lat="47.39783" lon="-1.38028">
        <ele>107</ele>
        <time>2022-07-09T08:51:50Z</time>
      </trkpt>
      <trkpt lat="47.39772" lon="-1.38033">
        <ele>107</ele>
        <time>2022-07-09T08:51:52Z</time>
      </trkpt>
      <trkpt lat="47.39761" lon="-1.38038">
        <ele>106</ele>
        <time>2022-07-09T08:51:54Z</time>
      </trkpt>
      <trkpt lat="47.39748" lon="-1.38043">
        <ele>106</ele>
        <time>2022-07-09T08:51:56Z</time>
      </trkpt>
      <trkpt lat="47.39736" lon="-1.38048">
        <ele>106</ele>
        <time>2022-07-09T08:51:58Z</time>
      </trkpt>
      <trkpt lat="47.39723" lon="-1.38053">
        <ele>105</ele>
        <time>2022-07-09T08:52:00Z</time>
      </trkpt>
      <trkpt lat="47.39711" lon="-1.38058">
        <ele>104</ele>
        <time>2022-07-09T08:52:02Z</time>
      </trkpt>
      <trkpt lat="47.39698" lon="-1.38064">
        <ele>104</ele>
        <time>2022-07-09T08:52:04Z</time>
      </trkpt>
      <trkpt lat="47.39684" lon="-1.3807">
        <ele>104</ele>
        <time>2022-07-09T08:52:06Z</time>
      </trkpt>
      <trkpt lat="47.39671" lon="-1.38075">
        <ele>103</ele>
        <time>2022-07-09T08:52:08Z</time>
      </trkpt>
      <trkpt lat="47.39657" lon="-1.3808">
        <ele>103</ele>
        <time>2022-07-09T08:52:10Z</time>
      </trkpt>
      <trkpt lat="47.39643" lon="-1.38086">
        <ele>102</ele>
        <time>2022-07-09T08:52:12Z</time>
      </trkpt>
      <trkpt lat="47.39629" lon="-1.38092">
        <ele>102</ele>
        <time>2022-07-09T08:52:14Z</time>
      </trkpt>
      <trkpt lat="47.39616" lon="-1.38097">
        <ele>102</ele>
        <time>2022-07-09T08:52:16Z</time>
      </trkpt>
      <trkpt lat="47.39601" lon="-1.38103">
        <ele>101</ele>
        <time>2022-07-09T08:52:18Z</time>
      </trkpt>
      <trkpt lat="47.39587" lon="-1.38109">
        <ele>101</ele>
        <time>2022-07-09T08:52:20Z</time>
      </trkpt>
      <trkpt lat="47.39573" lon="-1.38114">
        <ele>101</ele>
        <time>2022-07-09T08:52:22Z</time>
      </trkpt>
      <trkpt lat="47.39559" lon="-1.3812">
        <ele>101</ele>
        <time>2022-07-09T08:52:24Z</time>
      </trkpt>
      <trkpt lat="47.39545" lon="-1.38126">
        <ele>101</ele>
        <time>2022-07-09T08:52:26Z</time>
      </trkpt>
      <trkpt lat="47.3953" lon="-1.38133">
        <ele>100</ele>
        <time>2022-07-09T08:52:28Z</time>
      </trkpt>
      <trkpt lat="47.39516" lon="-1.3814">
        <ele>100</ele>
        <time>2022-07-09T08:52:30Z</time>
      </trkpt>
      <trkpt lat="47.39502" lon="-1.38149">
        <ele>100</ele>
        <time>2022-07-09T08:52:32Z</time>
      </trkpt>
      <trkpt lat="47.39489" lon="-1.38158">
        <ele>100</ele>
        <time>2022-07-09T08:52:34Z</time>
      </trkpt>
      <trkpt lat="47.39476" lon="-1.38167">
        <ele>99</ele>
        <time>2022-07-09T08:52:36Z</time>
      </trkpt>
      <trkpt lat="47.39463" lon="-1.38177">
        <ele>99</ele>
        <time>2022-07-09T08:52:38Z</time>
      </trkpt>
      <trkpt lat="47.3945" lon="-1.38187">
        <ele>99</ele>
        <time>2022-07-09T08:52:40Z</time>
      </trkpt>
      <trkpt lat="47.39437" lon="-1.38196">
        <ele>99</ele>
        <time>2022-07-09T08:52:42Z</time>
      </trkpt>
      <trkpt lat="47.39426" lon="-1.38205">
        <ele>99</ele>
        <time>2022-07-09T08:52:44Z</time>
      </trkpt>
      <trkpt lat="47.39413" lon="-1.38214">
        <ele>99</ele>
        <time>2022-07-09T08:52:46Z</time>
      </trkpt>
      <trkpt lat="47.39401" lon="-1.38223">
        <ele>99</ele>
        <time>2022-07-09T08:52:48Z</time>
      </trkpt>
      <trkpt lat="47.39388" lon="-1.38232">
        <ele>99</ele>
        <time>2022-07-09T08:52:50Z</time>
      </trkpt>
      <trkpt lat="47.39376" lon="-1.3824">
        <ele>99</ele>
        <time>2022-07-09T08:52:52Z</time>
      </trkpt>
      <trkpt lat="47.39364" lon="-1.3825">
        <ele>99</ele>
        <time>2022-07-09T08:52:54Z</time>
      </trkpt>
      <trkpt lat="47.39353" lon="-1.38259">
        <ele>99</ele>
        <time>2022-07-09T08:52:56Z</time>
      </trkpt>
      <trkpt lat="47.3934" lon="-1.38268">
        <ele>100</ele>
        <time>2022-07-09T08:52:58Z</time>
      </trkpt>
      <trkpt lat="47.39329" lon="-1.38277">
        <ele>100</ele>
        <time>2022-07-09T08:53:00Z</time>
      </trkpt>
      <trkpt lat="47.39317" lon="-1.38286">
        <ele>100</ele>
        <time>2022-07-09T08:53:02Z</time>
      </trkpt>
      <trkpt lat="47.39305" lon="-1.38294">
        <ele>100</ele>
        <time>2022-07-09T08:53:04Z</time>
      </trkpt>
      <trkpt lat="47.39293" lon="-1.38303">
        <ele>100</ele>
        <time>2022-07-09T08:53:06Z</time>
      </trkpt>
      <trkpt lat="47.3928" lon="-1.38312">
        <ele>100</ele>
        <time>2022-07-09T08:53:08Z</time>
      </trkpt>
      <trkpt lat="47.39269" lon="-1.38321">
        <ele>101</ele>
        <time>2022-07-09T08:53:10Z</time>
      </trkpt>
      <trkpt lat="47.39257" lon="-1.3833">
        <ele>100</ele>
        <time>2022-07-09T08:53:12Z</time>
      </trkpt>
      <trkpt lat="47.39245" lon="-1.38338">
        <ele>101</ele>
        <time>2022-07-09T08:53:14Z</time>
      </trkpt>
      <trkpt lat="47.39233" lon="-1.38347">
        <ele>101</ele>
        <time>2022-07-09T08:53:16Z</time>
      </trkpt>
      <trkpt lat="47.39221" lon="-1.38356">
        <ele>101</ele>
        <time>2022-07-09T08:53:18Z</time>
      </trkpt>
      <trkpt lat="47.39209" lon="-1.38365">
        <ele>101</ele>
        <time>2022-07-09T08:53:20Z</time>
      </trkpt>
      <trkpt lat="47.39197" lon="-1.38374">
        <ele>101</ele>
        <time>2022-07-09T08:53:22Z</time>
      </trkpt>
      <trkpt lat="47.39185" lon="-1.38383">
        <ele>101</ele>
        <time>2022-07-09T08:53:24Z</time>
      </trkpt>
      <trkpt lat="47.39173" lon="-1.38391">
        <ele>101</ele>
        <time>2022-07-09T08:53:26Z</time>
      </trkpt>
      <trkpt lat="47.39161" lon="-1.38401">
        <ele>101</ele>
        <time>2022-07-09T08:53:28Z</time>
      </trkpt>
      <trkpt lat="47.39149" lon="-1.3841">
        <ele>101</ele>
        <time>2022-07-09T08:53:30Z</time>
      </trkpt>
      <trkpt lat="47.39136" lon="-1.38418">
        <ele>100</ele>
        <time>2022-07-09T08:53:32Z</time>
      </trkpt>
      <trkpt lat="47.39124" lon="-1.38428">
        <ele>100</ele>
        <time>2022-07-09T08:53:34Z</time>
      </trkpt>
      <trkpt lat="47.39112" lon="-1.38436">
        <ele>100</ele>
        <time>2022-07-09T08:53:36Z</time>
      </trkpt>
      <trkpt lat="47.391" lon="-1.38445">
        <ele>100</ele>
        <time>2022-07-09T08:53:38Z</time>
      </trkpt>
      <trkpt lat="47.39088" lon="-1.38454">
        <ele>100</ele>
        <time>2022-07-09T08:53:40Z</time>
      </trkpt>
      <trkpt lat="47.39076" lon="-1.38463">
        <ele>100</ele>
        <time>2022-07-09T08:53:42Z</time>
      </trkpt>
      <trkpt lat="47.39064" lon="-1.38472">
        <ele>100</ele>
        <time>2022-07-09T08:53:44Z</time>
      </trkpt>
      <trkpt lat="47.39052" lon="-1.38481">
        <ele>100</ele>
        <time>2022-07-09T08:53:46Z</time>
      </trkpt>
      <trkpt lat="47.3904" lon="-1.38489">
        <ele>100</ele>
        <time>2022-07-09T08:53:48Z</time>
      </trkpt>
      <trkpt lat="47.39028" lon="-1.38498">
        <ele>99</ele>
        <time>2022-07-09T08:53:50Z</time>
      </trkpt>
      <trkpt lat="47.39016" lon="-1.38507">
        <ele>99</ele>
        <time>2022-07-09T08:53:52Z</time>
      </trkpt>
      <trkpt lat="47.39004" lon="-1.38515">
        <ele>99</ele>
        <time>2022-07-09T08:53:54Z</time>
      </trkpt>
      <trkpt lat="47.38993" lon="-1.38524">
        <ele>99</ele>
        <time>2022-07-09T08:53:56Z</time>
      </trkpt>
      <trkpt lat="47.38981" lon="-1.38533">
        <ele>100</ele>
        <time>2022-07-09T08:53:58Z</time>
      </trkpt>
      <trkpt lat="47.3897" lon="-1.38541">
        <ele>99</ele>
        <time>2022-07-09T08:54:00Z</time>
      </trkpt>
      <trkpt lat="47.38958" lon="-1.3855">
        <ele>99</ele>
        <time>2022-07-09T08:54:02Z</time>
      </trkpt>
      <trkpt lat="47.38946" lon="-1.38558">
        <ele>99</ele>
        <time>2022-07-09T08:54:04Z</time>
      </trkpt>
      <trkpt lat="47.38935" lon="-1.38567">
        <ele>99</ele>
        <time>2022-07-09T08:54:06Z</time>
      </trkpt>
      <trkpt lat="47.38924" lon="-1.38575">
        <ele>99</ele>
        <time>2022-07-09T08:54:08Z</time>
      </trkpt>
      <trkpt lat="47.38912" lon="-1.38583">
        <ele>99</ele>
        <time>2022-07-09T08:54:10Z</time>
      </trkpt>
      <trkpt lat="47.389" lon="-1.38592">
        <ele>100</ele>
        <time>2022-07-09T08:54:12Z</time>
      </trkpt>
      <trkpt lat="47.38889" lon="-1.38601">
        <ele>100</ele>
        <time>2022-07-09T08:54:14Z</time>
      </trkpt>
      <trkpt lat="47.38876" lon="-1.3861">
        <ele>100</ele>
        <time>2022-07-09T08:54:16Z</time>
      </trkpt>
      <trkpt lat="47.38864" lon="-1.38619">
        <ele>100</ele>
        <time>2022-07-09T08:54:18Z</time>
      </trkpt>
      <trkpt lat="47.38853" lon="-1.38628">
        <ele>100</ele>
        <time>2022-07-09T08:54:20Z</time>
      </trkpt>
      <trkpt lat="47.38835" lon="-1.38642">
        <ele>100</ele>
        <time>2022-07-09T08:54:23Z</time>
      </trkpt>
      <trkpt lat="47.38824" lon="-1.38651">
        <ele>100</ele>
        <time>2022-07-09T08:54:25Z</time>
      </trkpt>
      <trkpt lat="47.38806" lon="-1.38666">
        <ele>100</ele>
        <time>2022-07-09T08:54:28Z</time>
      </trkpt>
      <trkpt lat="47.3879" lon="-1.38683">
        <ele>100</ele>
        <time>2022-07-09T08:54:31Z</time>
      </trkpt>
      <trkpt lat="47.38779" lon="-1.38695">
        <ele>100</ele>
        <time>2022-07-09T08:54:33Z</time>
      </trkpt>
      <trkpt lat="47.38768" lon="-1.38707">
        <ele>100</ele>
        <time>2022-07-09T08:54:35Z</time>
      </trkpt>
      <trkpt lat="47.38753" lon="-1.38724">
        <ele>100</ele>
        <time>2022-07-09T08:54:38Z</time>
      </trkpt>
      <trkpt lat="47.38742" lon="-1.38735">
        <ele>100</ele>
        <time>2022-07-09T08:54:40Z</time>
      </trkpt>
      <trkpt lat="47.38731" lon="-1.38746">
        <ele>101</ele>
        <time>2022-07-09T08:54:42Z</time>
      </trkpt>
      <trkpt lat="47.38716" lon="-1.38763">
        <ele>101</ele>
        <time>2022-07-09T08:54:45Z</time>
      </trkpt>
      <trkpt lat="47.38705" lon="-1.38774">
        <ele>101</ele>
        <time>2022-07-09T08:54:47Z</time>
      </trkpt>
      <trkpt lat="47.38696" lon="-1.38786">
        <ele>101</ele>
        <time>2022-07-09T08:54:49Z</time>
      </trkpt>
      <trkpt lat="47.38685" lon="-1.38797">
        <ele>101</ele>
        <time>2022-07-09T08:54:51Z</time>
      </trkpt>
      <trkpt lat="47.38675" lon="-1.3881">
        <ele>101</ele>
        <time>2022-07-09T08:54:53Z</time>
      </trkpt>
      <trkpt lat="47.38664" lon="-1.38821">
        <ele>101</ele>
        <time>2022-07-09T08:54:55Z</time>
      </trkpt>
      <trkpt lat="47.38654" lon="-1.38834">
        <ele>101</ele>
        <time>2022-07-09T08:54:57Z</time>
      </trkpt>
      <trkpt lat="47.38643" lon="-1.38845">
        <ele>101</ele>
        <time>2022-07-09T08:54:59Z</time>
      </trkpt>
      <trkpt lat="47.38632" lon="-1.38857">
        <ele>101</ele>
        <time>2022-07-09T08:55:01Z</time>
      </trkpt>
      <trkpt lat="47.38621" lon="-1.38869">
        <ele>101</ele>
        <time>2022-07-09T08:55:03Z</time>
      </trkpt>
      <trkpt lat="47.3861" lon="-1.38881">
        <ele>101</ele>
        <time>2022-07-09T08:55:05Z</time>
      </trkpt>
      <trkpt lat="47.38599" lon="-1.38893">
        <ele>101</ele>
        <time>2022-07-09T08:55:07Z</time>
      </trkpt>
      <trkpt lat="47.38588" lon="-1.38905">
        <ele>101</ele>
        <time>2022-07-09T08:55:09Z</time>
      </trkpt>
      <trkpt lat="47.38579" lon="-1.38916">
        <ele>102</ele>
        <time>2022-07-09T08:55:11Z</time>
      </trkpt>
      <trkpt lat="47.38569" lon="-1.38929">
        <ele>102</ele>
        <time>2022-07-09T08:55:13Z</time>
      </trkpt>
      <trkpt lat="47.38557" lon="-1.38941">
        <ele>102</ele>
        <time>2022-07-09T08:55:15Z</time>
      </trkpt>
      <trkpt lat="47.38545" lon="-1.38954">
        <ele>102</ele>
        <time>2022-07-09T08:55:17Z</time>
      </trkpt>
      <trkpt lat="47.38534" lon="-1.38969">
        <ele>101</ele>
        <time>2022-07-09T08:55:19Z</time>
      </trkpt>
      <trkpt lat="47.38523" lon="-1.38983">
        <ele>101</ele>
        <time>2022-07-09T08:55:21Z</time>
      </trkpt>
      <trkpt lat="47.38511" lon="-1.38995">
        <ele>100</ele>
        <time>2022-07-09T08:55:23Z</time>
      </trkpt>
      <trkpt lat="47.385" lon="-1.39007">
        <ele>100</ele>
        <time>2022-07-09T08:55:25Z</time>
      </trkpt>
      <trkpt lat="47.38489" lon="-1.39019">
        <ele>99</ele>
        <time>2022-07-09T08:55:27Z</time>
      </trkpt>
      <trkpt lat="47.38478" lon="-1.39031">
        <ele>100</ele>
        <time>2022-07-09T08:55:29Z</time>
      </trkpt>
      <trkpt lat="47.38468" lon="-1.39043">
        <ele>100</ele>
        <time>2022-07-09T08:55:31Z</time>
      </trkpt>
      <trkpt lat="47.38457" lon="-1.39055">
        <ele>100</ele>
        <time>2022-07-09T08:55:33Z</time>
      </trkpt>
      <trkpt lat="47.38446" lon="-1.39066">
        <ele>99</ele>
        <time>2022-07-09T08:55:35Z</time>
      </trkpt>
      <trkpt lat="47.38435" lon="-1.39078">
        <ele>99</ele>
        <time>2022-07-09T08:55:37Z</time>
      </trkpt>
      <trkpt lat="47.38425" lon="-1.3909">
        <ele>99</ele>
        <time>2022-07-09T08:55:39Z</time>
      </trkpt>
      <trkpt lat="47.38414" lon="-1.39102">
        <ele>100</ele>
        <time>2022-07-09T08:55:41Z</time>
      </trkpt>
      <trkpt lat="47.38405" lon="-1.39114">
        <ele>100</ele>
        <time>2022-07-09T08:55:43Z</time>
      </trkpt>
      <trkpt lat="47.38394" lon="-1.39125">
        <ele>101</ele>
        <time>2022-07-09T08:55:45Z</time>
      </trkpt>
      <trkpt lat="47.38384" lon="-1.39137">
        <ele>101</ele>
        <time>2022-07-09T08:55:47Z</time>
      </trkpt>
      <trkpt lat="47.38375" lon="-1.39148">
        <ele>101</ele>
        <time>2022-07-09T08:55:49Z</time>
      </trkpt>
      <trkpt lat="47.38365" lon="-1.39159">
        <ele>101</ele>
        <time>2022-07-09T08:55:51Z</time>
      </trkpt>
      <trkpt lat="47.38356" lon="-1.39169">
        <ele>102</ele>
        <time>2022-07-09T08:55:53Z</time>
      </trkpt>
      <trkpt lat="47.38347" lon="-1.3918">
        <ele>102</ele>
        <time>2022-07-09T08:55:55Z</time>
      </trkpt>
      <trkpt lat="47.38337" lon="-1.3919">
        <ele>102</ele>
        <time>2022-07-09T08:55:57Z</time>
      </trkpt>
      <trkpt lat="47.38328" lon="-1.392">
        <ele>102</ele>
        <time>2022-07-09T08:55:59Z</time>
      </trkpt>
      <trkpt lat="47.38318" lon="-1.39211">
        <ele>102</ele>
        <time>2022-07-09T08:56:01Z</time>
      </trkpt>
      <trkpt lat="47.38309" lon="-1.39221">
        <ele>102</ele>
        <time>2022-07-09T08:56:03Z</time>
      </trkpt>
      <trkpt lat="47.38299" lon="-1.39231">
        <ele>103</ele>
        <time>2022-07-09T08:56:05Z</time>
      </trkpt>
      <trkpt lat="47.3829" lon="-1.39242">
        <ele>103</ele>
        <time>2022-07-09T08:56:07Z</time>
      </trkpt>
      <trkpt lat="47.3828" lon="-1.39252">
        <ele>103</ele>
        <time>2022-07-09T08:56:09Z</time>
      </trkpt>
      <trkpt lat="47.38271" lon="-1.39262">
        <ele>103</ele>
        <time>2022-07-09T08:56:11Z</time>
      </trkpt>
      <trkpt lat="47.38262" lon="-1.39273">
        <ele>103</ele>
        <time>2022-07-09T08:56:13Z</time>
      </trkpt>
      <trkpt lat="47.38252" lon="-1.39283">
        <ele>103</ele>
        <time>2022-07-09T08:56:15Z</time>
      </trkpt>
      <trkpt lat="47.38243" lon="-1.39294">
        <ele>104</ele>
        <time>2022-07-09T08:56:17Z</time>
      </trkpt>
      <trkpt lat="47.38234" lon="-1.39305">
        <ele>104</ele>
        <time>2022-07-09T08:56:19Z</time>
      </trkpt>
      <trkpt lat="47.38226" lon="-1.39316">
        <ele>104</ele>
        <time>2022-07-09T08:56:21Z</time>
      </trkpt>
      <trkpt lat="47.38217" lon="-1.39327">
        <ele>103</ele>
        <time>2022-07-09T08:56:23Z</time>
      </trkpt>
      <trkpt lat="47.38208" lon="-1.39339">
        <ele>104</ele>
        <time>2022-07-09T08:56:25Z</time>
      </trkpt>
      <trkpt lat="47.38199" lon="-1.3935">
        <ele>104</ele>
        <time>2022-07-09T08:56:27Z</time>
      </trkpt>
      <trkpt lat="47.3819" lon="-1.39361">
        <ele>103</ele>
        <time>2022-07-09T08:56:29Z</time>
      </trkpt>
      <trkpt lat="47.38181" lon="-1.39373">
        <ele>103</ele>
        <time>2022-07-09T08:56:31Z</time>
      </trkpt>
      <trkpt lat="47.38173" lon="-1.39384">
        <ele>104</ele>
        <time>2022-07-09T08:56:33Z</time>
      </trkpt>
      <trkpt lat="47.38164" lon="-1.39395">
        <ele>104</ele>
        <time>2022-07-09T08:56:35Z</time>
      </trkpt>
      <trkpt lat="47.38155" lon="-1.39406">
        <ele>104</ele>
        <time>2022-07-09T08:56:37Z</time>
      </trkpt>
      <trkpt lat="47.38146" lon="-1.39417">
        <ele>105</ele>
        <time>2022-07-09T08:56:39Z</time>
      </trkpt>
      <trkpt lat="47.38137" lon="-1.39429">
        <ele>105</ele>
        <time>2022-07-09T08:56:41Z</time>
      </trkpt>
      <trkpt lat="47.38128" lon="-1.39441">
        <ele>105</ele>
        <time>2022-07-09T08:56:43Z</time>
      </trkpt>
      <trkpt lat="47.3812" lon="-1.39453">
        <ele>104</ele>
        <time>2022-07-09T08:56:45Z</time>
      </trkpt>
      <trkpt lat="47.38111" lon="-1.39465">
        <ele>104</ele>
        <time>2022-07-09T08:56:47Z</time>
      </trkpt>
      <trkpt lat="47.38101" lon="-1.39477">
        <ele>104</ele>
        <time>2022-07-09T08:56:49Z</time>
      </trkpt>
      <trkpt lat="47.38091" lon="-1.39489">
        <ele>104</ele>
        <time>2022-07-09T08:56:51Z</time>
      </trkpt>
      <trkpt lat="47.38082" lon="-1.39501">
        <ele>104</ele>
        <time>2022-07-09T08:56:53Z</time>
      </trkpt>
      <trkpt lat="47.38072" lon="-1.39513">
        <ele>104</ele>
        <time>2022-07-09T08:56:55Z</time>
      </trkpt>
      <trkpt lat="47.38062" lon="-1.39525">
        <ele>104</ele>
        <time>2022-07-09T08:56:57Z</time>
      </trkpt>
      <trkpt lat="47.38052" lon="-1.39537">
        <ele>104</ele>
        <time>2022-07-09T08:56:59Z</time>
      </trkpt>
      <trkpt lat="47.38043" lon="-1.3955">
        <ele>105</ele>
        <time>2022-07-09T08:57:01Z</time>
      </trkpt>
      <trkpt lat="47.38034" lon="-1.39562">
        <ele>104</ele>
        <time>2022-07-09T08:57:03Z</time>
      </trkpt>
      <trkpt lat="47.38024" lon="-1.39575">
        <ele>105</ele>
        <time>2022-07-09T08:57:05Z</time>
      </trkpt>
      <trkpt lat="47.38015" lon="-1.39587">
        <ele>104</ele>
        <time>2022-07-09T08:57:07Z</time>
      </trkpt>
      <trkpt lat="47.38005" lon="-1.39598">
        <ele>105</ele>
        <time>2022-07-09T08:57:09Z</time>
      </trkpt>
      <trkpt lat="47.37996" lon="-1.39611">
        <ele>104</ele>
        <time>2022-07-09T08:57:11Z</time>
      </trkpt>
      <trkpt lat="47.37986" lon="-1.39622">
        <ele>104</ele>
        <time>2022-07-09T08:57:13Z</time>
      </trkpt>
      <trkpt lat="47.37977" lon="-1.39634">
        <ele>104</ele>
        <time>2022-07-09T08:57:15Z</time>
      </trkpt>
      <trkpt lat="47.37968" lon="-1.39646">
        <ele>104</ele>
        <time>2022-07-09T08:57:17Z</time>
      </trkpt>
      <trkpt lat="47.37959" lon="-1.39658">
        <ele>104</ele>
        <time>2022-07-09T08:57:19Z</time>
      </trkpt>
      <trkpt lat="47.37949" lon="-1.39669">
        <ele>104</ele>
        <time>2022-07-09T08:57:21Z</time>
      </trkpt>
      <trkpt lat="47.3794" lon="-1.39681">
        <ele>103</ele>
        <time>2022-07-09T08:57:23Z</time>
      </trkpt>
      <trkpt lat="47.37932" lon="-1.39693">
        <ele>103</ele>
        <time>2022-07-09T08:57:25Z</time>
      </trkpt>
      <trkpt lat="47.37923" lon="-1.39705">
        <ele>103</ele>
        <time>2022-07-09T08:57:27Z</time>
      </trkpt>
      <trkpt lat="47.37914" lon="-1.39717">
        <ele>103</ele>
        <time>2022-07-09T08:57:29Z</time>
      </trkpt>
      <trkpt lat="47.37905" lon="-1.39728">
        <ele>104</ele>
        <time>2022-07-09T08:57:31Z</time>
      </trkpt>
      <trkpt lat="47.37896" lon="-1.39739">
        <ele>104</ele>
        <time>2022-07-09T08:57:33Z</time>
      </trkpt>
      <trkpt lat="47.37887" lon="-1.39751">
        <ele>104</ele>
        <time>2022-07-09T08:57:35Z</time>
      </trkpt>
      <trkpt lat="47.37878" lon="-1.39763">
        <ele>104</ele>
        <time>2022-07-09T08:57:37Z</time>
      </trkpt>
      <trkpt lat="47.37869" lon="-1.39774">
        <ele>104</ele>
        <time>2022-07-09T08:57:39Z</time>
      </trkpt>
      <trkpt lat="47.3786" lon="-1.39785">
        <ele>104</ele>
        <time>2022-07-09T08:57:41Z</time>
      </trkpt>
      <trkpt lat="47.3785" lon="-1.39797">
        <ele>104</ele>
        <time>2022-07-09T08:57:43Z</time>
      </trkpt>
      <trkpt lat="47.37842" lon="-1.39809">
        <ele>104</ele>
        <time>2022-07-09T08:57:45Z</time>
      </trkpt>
      <trkpt lat="47.37832" lon="-1.39821">
        <ele>104</ele>
        <time>2022-07-09T08:57:47Z</time>
      </trkpt>
      <trkpt lat="47.37823" lon="-1.39833">
        <ele>104</ele>
        <time>2022-07-09T08:57:49Z</time>
      </trkpt>
      <trkpt lat="47.37813" lon="-1.39845">
        <ele>104</ele>
        <time>2022-07-09T08:57:51Z</time>
      </trkpt>
      <trkpt lat="47.37804" lon="-1.39858">
        <ele>103</ele>
        <time>2022-07-09T08:57:53Z</time>
      </trkpt>
      <trkpt lat="47.37795" lon="-1.39871">
        <ele>103</ele>
        <time>2022-07-09T08:57:55Z</time>
      </trkpt>
      <trkpt lat="47.37785" lon="-1.39883">
        <ele>103</ele>
        <time>2022-07-09T08:57:57Z</time>
      </trkpt>
      <trkpt lat="47.37776" lon="-1.39895">
        <ele>103</ele>
        <time>2022-07-09T08:57:59Z</time>
      </trkpt>
      <trkpt lat="47.37767" lon="-1.39908">
        <ele>103</ele>
        <time>2022-07-09T08:58:01Z</time>
      </trkpt>
      <trkpt lat="47.37757" lon="-1.39921">
        <ele>103</ele>
        <time>2022-07-09T08:58:03Z</time>
      </trkpt>
      <trkpt lat="47.37746" lon="-1.39934">
        <ele>103</ele>
        <time>2022-07-09T08:58:05Z</time>
      </trkpt>
      <trkpt lat="47.37735" lon="-1.39947">
        <ele>103</ele>
        <time>2022-07-09T08:58:07Z</time>
      </trkpt>
      <trkpt lat="47.37725" lon="-1.3996">
        <ele>103</ele>
        <time>2022-07-09T08:58:09Z</time>
      </trkpt>
      <trkpt lat="47.37715" lon="-1.39972">
        <ele>103</ele>
        <time>2022-07-09T08:58:11Z</time>
      </trkpt>
      <trkpt lat="47.37704" lon="-1.39984">
        <ele>102</ele>
        <time>2022-07-09T08:58:13Z</time>
      </trkpt>
      <trkpt lat="47.37692" lon="-1.39995">
        <ele>102</ele>
        <time>2022-07-09T08:58:15Z</time>
      </trkpt>
      <trkpt lat="47.3768" lon="-1.40005">
        <ele>102</ele>
        <time>2022-07-09T08:58:17Z</time>
      </trkpt>
      <trkpt lat="47.37668" lon="-1.40015">
        <ele>102</ele>
        <time>2022-07-09T08:58:19Z</time>
      </trkpt>
      <trkpt lat="47.37656" lon="-1.40026">
        <ele>101</ele>
        <time>2022-07-09T08:58:21Z</time>
      </trkpt>
      <trkpt lat="47.37644" lon="-1.40038">
        <ele>101</ele>
        <time>2022-07-09T08:58:23Z</time>
      </trkpt>
      <trkpt lat="47.37633" lon="-1.40054">
        <ele>101</ele>
        <time>2022-07-09T08:58:25Z</time>
      </trkpt>
      <trkpt lat="47.37623" lon="-1.40071">
        <ele>101</ele>
        <time>2022-07-09T08:58:27Z</time>
      </trkpt>
      <trkpt lat="47.37614" lon="-1.40089">
        <ele>101</ele>
        <time>2022-07-09T08:58:29Z</time>
      </trkpt>
      <trkpt lat="47.37605" lon="-1.40107">
        <ele>100</ele>
        <time>2022-07-09T08:58:31Z</time>
      </trkpt>
      <trkpt lat="47.37596" lon="-1.40124">
        <ele>99</ele>
        <time>2022-07-09T08:58:33Z</time>
      </trkpt>
      <trkpt lat="47.37587" lon="-1.40141">
        <ele>99</ele>
        <time>2022-07-09T08:58:35Z</time>
      </trkpt>
      <trkpt lat="47.37577" lon="-1.40159">
        <ele>98</ele>
        <time>2022-07-09T08:58:37Z</time>
      </trkpt>
      <trkpt lat="47.37568" lon="-1.40177">
        <ele>98</ele>
        <time>2022-07-09T08:58:39Z</time>
      </trkpt>
      <trkpt lat="47.37558" lon="-1.40195">
        <ele>97</ele>
        <time>2022-07-09T08:58:41Z</time>
      </trkpt>
      <trkpt lat="47.37549" lon="-1.40212">
        <ele>97</ele>
        <time>2022-07-09T08:58:43Z</time>
      </trkpt>
      <trkpt lat="47.3754" lon="-1.4023">
        <ele>97</ele>
        <time>2022-07-09T08:58:45Z</time>
      </trkpt>
      <trkpt lat="47.37531" lon="-1.40247">
        <ele>97</ele>
        <time>2022-07-09T08:58:47Z</time>
      </trkpt>
      <trkpt lat="47.37522" lon="-1.40266">
        <ele>96</ele>
        <time>2022-07-09T08:58:49Z</time>
      </trkpt>
      <trkpt lat="47.37513" lon="-1.40283">
        <ele>96</ele>
        <time>2022-07-09T08:58:51Z</time>
      </trkpt>
      <trkpt lat="47.37503" lon="-1.403">
        <ele>96</ele>
        <time>2022-07-09T08:58:53Z</time>
      </trkpt>
      <trkpt lat="47.37494" lon="-1.40317">
        <ele>97</ele>
        <time>2022-07-09T08:58:55Z</time>
      </trkpt>
      <trkpt lat="47.37486" lon="-1.40333">
        <ele>97</ele>
        <time>2022-07-09T08:58:57Z</time>
      </trkpt>
      <trkpt lat="47.37478" lon="-1.4035">
        <ele>98</ele>
        <time>2022-07-09T08:58:59Z</time>
      </trkpt>
      <trkpt lat="47.37468" lon="-1.40367">
        <ele>97</ele>
        <time>2022-07-09T08:59:01Z</time>
      </trkpt>
      <trkpt lat="47.3746" lon="-1.40383">
        <ele>98</ele>
        <time>2022-07-09T08:59:03Z</time>
      </trkpt>
      <trkpt lat="47.37453" lon="-1.40399">
        <ele>98</ele>
        <time>2022-07-09T08:59:05Z</time>
      </trkpt>
      <trkpt lat="47.37444" lon="-1.40414">
        <ele>98</ele>
        <time>2022-07-09T08:59:07Z</time>
      </trkpt>
      <trkpt lat="47.37437" lon="-1.40428">
        <ele>99</ele>
        <time>2022-07-09T08:59:09Z</time>
      </trkpt>
      <trkpt lat="47.3743" lon="-1.40442">
        <ele>99</ele>
        <time>2022-07-09T08:59:11Z</time>
      </trkpt>
      <trkpt lat="47.37423" lon="-1.40455">
        <ele>99</ele>
        <time>2022-07-09T08:59:13Z</time>
      </trkpt>
      <trkpt lat="47.37416" lon="-1.40468">
        <ele>100</ele>
        <time>2022-07-09T08:59:15Z</time>
      </trkpt>
      <trkpt lat="47.37409" lon="-1.40482">
        <ele>99</ele>
        <time>2022-07-09T08:59:17Z</time>
      </trkpt>
      <trkpt lat="47.37403" lon="-1.40495">
        <ele>99</ele>
        <time>2022-07-09T08:59:19Z</time>
      </trkpt>
      <trkpt lat="47.37396" lon="-1.40507">
        <ele>100</ele>
        <time>2022-07-09T08:59:21Z</time>
      </trkpt>
      <trkpt lat="47.3739" lon="-1.40519">
        <ele>100</ele>
        <time>2022-07-09T08:59:23Z</time>
      </trkpt>
      <trkpt lat="47.37383" lon="-1.40533">
        <ele>101</ele>
        <time>2022-07-09T08:59:25Z</time>
      </trkpt>
      <trkpt lat="47.37377" lon="-1.40544">
        <ele>101</ele>
        <time>2022-07-09T08:59:27Z</time>
      </trkpt>
      <trkpt lat="47.37371" lon="-1.40557">
        <ele>102</ele>
        <time>2022-07-09T08:59:29Z</time>
      </trkpt>
      <trkpt lat="47.37365" lon="-1.40569">
        <ele>101</ele>
        <time>2022-07-09T08:59:31Z</time>
      </trkpt>
      <trkpt lat="47.37359" lon="-1.40581">
        <ele>102</ele>
        <time>2022-07-09T08:59:33Z</time>
      </trkpt>
      <trkpt lat="47.37352" lon="-1.40593">
        <ele>102</ele>
        <time>2022-07-09T08:59:35Z</time>
      </trkpt>
      <trkpt lat="47.37346" lon="-1.40605">
        <ele>102</ele>
        <time>2022-07-09T08:59:37Z</time>
      </trkpt>
      <trkpt lat="47.3734" lon="-1.40617">
        <ele>102</ele>
        <time>2022-07-09T08:59:39Z</time>
      </trkpt>
      <trkpt lat="47.37333" lon="-1.40629">
        <ele>103</ele>
        <time>2022-07-09T08:59:41Z</time>
      </trkpt>
      <trkpt lat="47.37327" lon="-1.4064">
        <ele>103</ele>
        <time>2022-07-09T08:59:43Z</time>
      </trkpt>
      <trkpt lat="47.37321" lon="-1.40652">
        <ele>103</ele>
        <time>2022-07-09T08:59:45Z</time>
      </trkpt>
      <trkpt lat="47.37315" lon="-1.40664">
        <ele>104</ele>
        <time>2022-07-09T08:59:47Z</time>
      </trkpt>
      <trkpt lat="47.37308" lon="-1.40676">
        <ele>104</ele>
        <time>2022-07-09T08:59:49Z</time>
      </trkpt>
      <trkpt lat="47.37302" lon="-1.40688">
        <ele>105</ele>
        <time>2022-07-09T08:59:51Z</time>
      </trkpt>
      <trkpt lat="47.37295" lon="-1.40699">
        <ele>106</ele>
        <time>2022-07-09T08:59:53Z</time>
      </trkpt>
      <trkpt lat="47.37287" lon="-1.40709">
        <ele>106</ele>
        <time>2022-07-09T08:59:55Z</time>
      </trkpt>
      <trkpt lat="47.37278" lon="-1.40719">
        <ele>105</ele>
        <time>2022-07-09T08:59:57Z</time>
      </trkpt>
      <trkpt lat="47.37269" lon="-1.40727">
        <ele>105</ele>
        <time>2022-07-09T08:59:59Z</time>
      </trkpt>
      <trkpt lat="47.37259" lon="-1.40734">
        <ele>105</ele>
        <time>2022-07-09T09:00:01Z</time>
      </trkpt>
      <trkpt lat="47.37249" lon="-1.4074">
        <ele>105</ele>
        <time>2022-07-09T09:00:03Z</time>
      </trkpt>
      <trkpt lat="47.37238" lon="-1.40744">
        <ele>105</ele>
        <time>2022-07-09T09:00:05Z</time>
      </trkpt>
      <trkpt lat="47.37226" lon="-1.40747">
        <ele>105</ele>
        <time>2022-07-09T09:00:07Z</time>
      </trkpt>
      <trkpt lat="47.37214" lon="-1.40747">
        <ele>105</ele>
        <time>2022-07-09T09:00:09Z</time>
      </trkpt>
      <trkpt lat="47.37203" lon="-1.40745">
        <ele>104</ele>
        <time>2022-07-09T09:00:11Z</time>
      </trkpt>
      <trkpt lat="47.3719" lon="-1.40741">
        <ele>104</ele>
        <time>2022-07-09T09:00:13Z</time>
      </trkpt>
      <trkpt lat="47.37177" lon="-1.40735">
        <ele>103</ele>
        <time>2022-07-09T09:00:15Z</time>
      </trkpt>
      <trkpt lat="47.37164" lon="-1.40727">
        <ele>103</ele>
        <time>2022-07-09T09:00:17Z</time>
      </trkpt>
      <trkpt lat="47.3715" lon="-1.40719">
        <ele>102</ele>
        <time>2022-07-09T09:00:19Z</time>
      </trkpt>
      <trkpt lat="47.37136" lon="-1.40711">
        <ele>101</ele>
        <time>2022-07-09T09:00:21Z</time>
      </trkpt>
      <trkpt lat="47.37121" lon="-1.40703">
        <ele>101</ele>
        <time>2022-07-09T09:00:23Z</time>
      </trkpt>
      <trkpt lat="47.37106" lon="-1.40695">
        <ele>100</ele>
        <time>2022-07-09T09:00:25Z</time>
      </trkpt>
      <trkpt lat="47.37091" lon="-1.40687">
        <ele>99</ele>
        <time>2022-07-09T09:00:27Z</time>
      </trkpt>
      <trkpt lat="47.37074" lon="-1.40683">
        <ele>98</ele>
        <time>2022-07-09T09:00:29Z</time>
      </trkpt>
      <trkpt lat="47.37057" lon="-1.40683">
        <ele>98</ele>
        <time>2022-07-09T09:00:31Z</time>
      </trkpt>
      <trkpt lat="47.37039" lon="-1.40685">
        <ele>98</ele>
        <time>2022-07-09T09:00:33Z</time>
      </trkpt>
      <trkpt lat="47.37022" lon="-1.40686">
        <ele>96</ele>
        <time>2022-07-09T09:00:35Z</time>
      </trkpt>
      <trkpt lat="47.37005" lon="-1.40684">
        <ele>95</ele>
        <time>2022-07-09T09:00:37Z</time>
      </trkpt>
      <trkpt lat="47.36988" lon="-1.40678">
        <ele>94</ele>
        <time>2022-07-09T09:00:39Z</time>
      </trkpt>
      <trkpt lat="47.36973" lon="-1.40673">
        <ele>94</ele>
        <time>2022-07-09T09:00:41Z</time>
      </trkpt>
      <trkpt lat="47.36956" lon="-1.40672">
        <ele>94</ele>
        <time>2022-07-09T09:00:43Z</time>
      </trkpt>
      <trkpt lat="47.3694" lon="-1.40676">
        <ele>95</ele>
        <time>2022-07-09T09:00:45Z</time>
      </trkpt>
      <trkpt lat="47.36925" lon="-1.40681">
        <ele>95</ele>
        <time>2022-07-09T09:00:47Z</time>
      </trkpt>
      <trkpt lat="47.36911" lon="-1.40685">
        <ele>95</ele>
        <time>2022-07-09T09:00:49Z</time>
      </trkpt>
      <trkpt lat="47.36898" lon="-1.40687">
        <ele>94</ele>
        <time>2022-07-09T09:00:51Z</time>
      </trkpt>
      <trkpt lat="47.36887" lon="-1.40684">
        <ele>94</ele>
        <time>2022-07-09T09:00:53Z</time>
      </trkpt>
      <trkpt lat="47.36876" lon="-1.40678">
        <ele>94</ele>
        <time>2022-07-09T09:00:55Z</time>
      </trkpt>
      <trkpt lat="47.36867" lon="-1.40671">
        <ele>95</ele>
        <time>2022-07-09T09:00:57Z</time>
      </trkpt>
      <trkpt lat="47.36858" lon="-1.40662">
        <ele>95</ele>
        <time>2022-07-09T09:00:59Z</time>
      </trkpt>
      <trkpt lat="47.36849" lon="-1.40654">
        <ele>96</ele>
        <time>2022-07-09T09:01:01Z</time>
      </trkpt>
      <trkpt lat="47.36841" lon="-1.40646">
        <ele>96</ele>
        <time>2022-07-09T09:01:03Z</time>
      </trkpt>
      <trkpt lat="47.36833" lon="-1.40638">
        <ele>97</ele>
        <time>2022-07-09T09:01:05Z</time>
      </trkpt>
      <trkpt lat="47.36823" lon="-1.4063">
        <ele>97</ele>
        <time>2022-07-09T09:01:07Z</time>
      </trkpt>
      <trkpt lat="47.36815" lon="-1.40621">
        <ele>98</ele>
        <time>2022-07-09T09:01:09Z</time>
      </trkpt>
      <trkpt lat="47.36806" lon="-1.40614">
        <ele>98</ele>
        <time>2022-07-09T09:01:11Z</time>
      </trkpt>
      <trkpt lat="47.36797" lon="-1.40607">
        <ele>98</ele>
        <time>2022-07-09T09:01:13Z</time>
      </trkpt>
      <trkpt lat="47.3679" lon="-1.40598">
        <ele>99</ele>
        <time>2022-07-09T09:01:15Z</time>
      </trkpt>
      <trkpt lat="47.36782" lon="-1.4059">
        <ele>99</ele>
        <time>2022-07-09T09:01:17Z</time>
      </trkpt>
      <trkpt lat="47.36774" lon="-1.40583">
        <ele>100</ele>
        <time>2022-07-09T09:01:19Z</time>
      </trkpt>
      <trkpt lat="47.36765" lon="-1.40576">
        <ele>100</ele>
        <time>2022-07-09T09:01:21Z</time>
      </trkpt>
      <trkpt lat="47.36757" lon="-1.40569">
        <ele>100</ele>
        <time>2022-07-09T09:01:23Z</time>
      </trkpt>
      <trkpt lat="47.36749" lon="-1.40561">
        <ele>101</ele>
        <time>2022-07-09T09:01:25Z</time>
      </trkpt>
      <trkpt lat="47.36741" lon="-1.40554">
        <ele>101</ele>
        <time>2022-07-09T09:01:27Z</time>
      </trkpt>
      <trkpt lat="47.36731" lon="-1.40544">
        <ele>101</ele>
        <time>2022-07-09T09:01:30Z</time>
      </trkpt>
      <trkpt lat="47.3672" lon="-1.40533">
        <ele>102</ele>
        <time>2022-07-09T09:01:33Z</time>
      </trkpt>
      <trkpt lat="47.36708" lon="-1.40524">
        <ele>102</ele>
        <time>2022-07-09T09:01:36Z</time>
      </trkpt>
      <trkpt lat="47.36697" lon="-1.40521">
        <ele>103</ele>
        <time>2022-07-09T09:01:39Z</time>
      </trkpt>
      <trkpt lat="47.36684" lon="-1.40522">
        <ele>104</ele>
        <time>2022-07-09T09:01:42Z</time>
      </trkpt>
      <trkpt lat="47.36675" lon="-1.40524">
        <ele>105</ele>
        <time>2022-07-09T09:01:44Z</time>
      </trkpt>
      <trkpt lat="47.36666" lon="-1.40529">
        <ele>105</ele>
        <time>2022-07-09T09:01:46Z</time>
      </trkpt>
      <trkpt lat="47.36658" lon="-1.40534">
        <ele>106</ele>
        <time>2022-07-09T09:01:48Z</time>
      </trkpt>
      <trkpt lat="47.36649" lon="-1.4054">
        <ele>106</ele>
        <time>2022-07-09T09:01:50Z</time>
      </trkpt>
      <trkpt lat="47.36641" lon="-1.40546">
        <ele>106</ele>
        <time>2022-07-09T09:01:52Z</time>
      </trkpt>
      <trkpt lat="47.36631" lon="-1.4055">
        <ele>107</ele>
        <time>2022-07-09T09:01:54Z</time>
      </trkpt>
      <trkpt lat="47.36622" lon="-1.40554">
        <ele>107</ele>
        <time>2022-07-09T09:01:56Z</time>
      </trkpt>
      <trkpt lat="47.36613" lon="-1.40554">
        <ele>107</ele>
        <time>2022-07-09T09:01:58Z</time>
      </trkpt>
      <trkpt lat="47.36603" lon="-1.40554">
        <ele>107</ele>
        <time>2022-07-09T09:02:00Z</time>
      </trkpt>
      <trkpt lat="47.36593" lon="-1.40554">
        <ele>108</ele>
        <time>2022-07-09T09:02:02Z</time>
      </trkpt>
      <trkpt lat="47.36584" lon="-1.40554">
        <ele>108</ele>
        <time>2022-07-09T09:02:04Z</time>
      </trkpt>
      <trkpt lat="47.3657" lon="-1.40553">
        <ele>109</ele>
        <time>2022-07-09T09:02:07Z</time>
      </trkpt>
      <trkpt lat="47.3656" lon="-1.40553">
        <ele>110</ele>
        <time>2022-07-09T09:02:09Z</time>
      </trkpt>
      <trkpt lat="47.36551" lon="-1.40554">
        <ele>110</ele>
        <time>2022-07-09T09:02:11Z</time>
      </trkpt>
      <trkpt lat="47.36541" lon="-1.40553">
        <ele>111</ele>
        <time>2022-07-09T09:02:13Z</time>
      </trkpt>
      <trkpt lat="47.36528" lon="-1.40553">
        <ele>111</ele>
        <time>2022-07-09T09:02:16Z</time>
      </trkpt>
      <trkpt lat="47.36515" lon="-1.40555">
        <ele>111</ele>
        <time>2022-07-09T09:02:19Z</time>
      </trkpt>
      <trkpt lat="47.36506" lon="-1.40556">
        <ele>112</ele>
        <time>2022-07-09T09:02:21Z</time>
      </trkpt>
      <trkpt lat="47.36495" lon="-1.40555">
        <ele>113</ele>
        <time>2022-07-09T09:02:23Z</time>
      </trkpt>
      <trkpt lat="47.36485" lon="-1.40555">
        <ele>114</ele>
        <time>2022-07-09T09:02:25Z</time>
      </trkpt>
      <trkpt lat="47.36472" lon="-1.40555">
        <ele>114</ele>
        <time>2022-07-09T09:02:28Z</time>
      </trkpt>
      <trkpt lat="47.36463" lon="-1.40553">
        <ele>113</ele>
        <time>2022-07-09T09:02:30Z</time>
      </trkpt>
      <trkpt lat="47.36453" lon="-1.40553">
        <ele>114</ele>
        <time>2022-07-09T09:02:32Z</time>
      </trkpt>
      <trkpt lat="47.36443" lon="-1.40552">
        <ele>114</ele>
        <time>2022-07-09T09:02:34Z</time>
      </trkpt>
      <trkpt lat="47.36434" lon="-1.40552">
        <ele>115</ele>
        <time>2022-07-09T09:02:36Z</time>
      </trkpt>
      <trkpt lat="47.36424" lon="-1.40552">
        <ele>116</ele>
        <time>2022-07-09T09:02:38Z</time>
      </trkpt>
      <trkpt lat="47.36414" lon="-1.40552">
        <ele>117</ele>
        <time>2022-07-09T09:02:40Z</time>
      </trkpt>
      <trkpt lat="47.36404" lon="-1.40552">
        <ele>118</ele>
        <time>2022-07-09T09:02:42Z</time>
      </trkpt>
      <trkpt lat="47.36395" lon="-1.40556">
        <ele>118</ele>
        <time>2022-07-09T09:02:44Z</time>
      </trkpt>
      <trkpt lat="47.36386" lon="-1.4056">
        <ele>119</ele>
        <time>2022-07-09T09:02:46Z</time>
      </trkpt>
      <trkpt lat="47.36376" lon="-1.40565">
        <ele>119</ele>
        <time>2022-07-09T09:02:48Z</time>
      </trkpt>
      <trkpt lat="47.36368" lon="-1.40571">
        <ele>119</ele>
        <time>2022-07-09T09:02:50Z</time>
      </trkpt>
      <trkpt lat="47.3636" lon="-1.40577">
        <ele>119</ele>
        <time>2022-07-09T09:02:52Z</time>
      </trkpt>
      <trkpt lat="47.36351" lon="-1.40584">
        <ele>119</ele>
        <time>2022-07-09T09:02:54Z</time>
      </trkpt>
      <trkpt lat="47.36343" lon="-1.40592">
        <ele>119</ele>
        <time>2022-07-09T09:02:56Z</time>
      </trkpt>
      <trkpt lat="47.36334" lon="-1.40601">
        <ele>119</ele>
        <time>2022-07-09T09:02:58Z</time>
      </trkpt>
      <trkpt lat="47.36325" lon="-1.4061">
        <ele>119</ele>
        <time>2022-07-09T09:03:00Z</time>
      </trkpt>
      <trkpt lat="47.36316" lon="-1.40619">
        <ele>119</ele>
        <time>2022-07-09T09:03:02Z</time>
      </trkpt>
      <trkpt lat="47.36308" lon="-1.40628">
        <ele>119</ele>
        <time>2022-07-09T09:03:04Z</time>
      </trkpt>
      <trkpt lat="47.36299" lon="-1.40638">
        <ele>120</ele>
        <time>2022-07-09T09:03:06Z</time>
      </trkpt>
      <trkpt lat="47.36291" lon="-1.40649">
        <ele>120</ele>
        <time>2022-07-09T09:03:08Z</time>
      </trkpt>
      <trkpt lat="47.36282" lon="-1.40658">
        <ele>120</ele>
        <time>2022-07-09T09:03:10Z</time>
      </trkpt>
      <trkpt lat="47.36273" lon="-1.40668">
        <ele>120</ele>
        <time>2022-07-09T09:03:12Z</time>
      </trkpt>
      <trkpt lat="47.36263" lon="-1.40678">
        <ele>119</ele>
        <time>2022-07-09T09:03:14Z</time>
      </trkpt>
      <trkpt lat="47.36253" lon="-1.40687">
        <ele>119</ele>
        <time>2022-07-09T09:03:16Z</time>
      </trkpt>
      <trkpt lat="47.36243" lon="-1.40697">
        <ele>119</ele>
        <time>2022-07-09T09:03:18Z</time>
      </trkpt>
      <trkpt lat="47.36234" lon="-1.40707">
        <ele>119</ele>
        <time>2022-07-09T09:03:20Z</time>
      </trkpt>
      <trkpt lat="47.36224" lon="-1.40718">
        <ele>119</ele>
        <time>2022-07-09T09:03:22Z</time>
      </trkpt>
      <trkpt lat="47.36215" lon="-1.40728">
        <ele>119</ele>
        <time>2022-07-09T09:03:24Z</time>
      </trkpt>
      <trkpt lat="47.36205" lon="-1.40739">
        <ele>119</ele>
        <time>2022-07-09T09:03:26Z</time>
      </trkpt>
      <trkpt lat="47.36195" lon="-1.40748">
        <ele>119</ele>
        <time>2022-07-09T09:03:28Z</time>
      </trkpt>
      <trkpt lat="47.36184" lon="-1.40758">
        <ele>120</ele>
        <time>2022-07-09T09:03:30Z</time>
      </trkpt>
      <trkpt lat="47.36174" lon="-1.40768">
        <ele>119</ele>
        <time>2022-07-09T09:03:32Z</time>
      </trkpt>
      <trkpt lat="47.36164" lon="-1.4078">
        <ele>119</ele>
        <time>2022-07-09T09:03:34Z</time>
      </trkpt>
      <trkpt lat="47.36155" lon="-1.40791">
        <ele>119</ele>
        <time>2022-07-09T09:03:36Z</time>
      </trkpt>
      <trkpt lat="47.36145" lon="-1.40802">
        <ele>119</ele>
        <time>2022-07-09T09:03:38Z</time>
      </trkpt>
      <trkpt lat="47.36135" lon="-1.40812">
        <ele>119</ele>
        <time>2022-07-09T09:03:40Z</time>
      </trkpt>
      <trkpt lat="47.36125" lon="-1.40823">
        <ele>119</ele>
        <time>2022-07-09T09:03:42Z</time>
      </trkpt>
      <trkpt lat="47.36115" lon="-1.40834">
        <ele>119</ele>
        <time>2022-07-09T09:03:44Z</time>
      </trkpt>
      <trkpt lat="47.36106" lon="-1.40846">
        <ele>119</ele>
        <time>2022-07-09T09:03:46Z</time>
      </trkpt>
      <trkpt lat="47.36098" lon="-1.40859">
        <ele>119</ele>
        <time>2022-07-09T09:03:48Z</time>
      </trkpt>
      <trkpt lat="47.36089" lon="-1.4087">
        <ele>119</ele>
        <time>2022-07-09T09:03:50Z</time>
      </trkpt>
      <trkpt lat="47.36078" lon="-1.40878">
        <ele>119</ele>
        <time>2022-07-09T09:03:52Z</time>
      </trkpt>
      <trkpt lat="47.36066" lon="-1.40886">
        <ele>119</ele>
        <time>2022-07-09T09:03:54Z</time>
      </trkpt>
      <trkpt lat="47.36056" lon="-1.40896">
        <ele>119</ele>
        <time>2022-07-09T09:03:56Z</time>
      </trkpt>
      <trkpt lat="47.36046" lon="-1.40907">
        <ele>119</ele>
        <time>2022-07-09T09:03:58Z</time>
      </trkpt>
      <trkpt lat="47.36036" lon="-1.40917">
        <ele>118</ele>
        <time>2022-07-09T09:04:00Z</time>
      </trkpt>
      <trkpt lat="47.36026" lon="-1.40928">
        <ele>119</ele>
        <time>2022-07-09T09:04:02Z</time>
      </trkpt>
      <trkpt lat="47.36016" lon="-1.40938">
        <ele>119</ele>
        <time>2022-07-09T09:04:04Z</time>
      </trkpt>
      <trkpt lat="47.36006" lon="-1.40948">
        <ele>119</ele>
        <time>2022-07-09T09:04:06Z</time>
      </trkpt>
      <trkpt lat="47.35996" lon="-1.40959">
        <ele>119</ele>
        <time>2022-07-09T09:04:08Z</time>
      </trkpt>
      <trkpt lat="47.35986" lon="-1.40969">
        <ele>119</ele>
        <time>2022-07-09T09:04:10Z</time>
      </trkpt>
      <trkpt lat="47.35976" lon="-1.40979">
        <ele>119</ele>
        <time>2022-07-09T09:04:12Z</time>
      </trkpt>
      <trkpt lat="47.35966" lon="-1.4099">
        <ele>120</ele>
        <time>2022-07-09T09:04:14Z</time>
      </trkpt>
      <trkpt lat="47.35956" lon="-1.41001">
        <ele>119</ele>
        <time>2022-07-09T09:04:16Z</time>
      </trkpt>
      <trkpt lat="47.35947" lon="-1.41011">
        <ele>119</ele>
        <time>2022-07-09T09:04:18Z</time>
      </trkpt>
      <trkpt lat="47.35937" lon="-1.41022">
        <ele>119</ele>
        <time>2022-07-09T09:04:20Z</time>
      </trkpt>
      <trkpt lat="47.35928" lon="-1.41032">
        <ele>119</ele>
        <time>2022-07-09T09:04:22Z</time>
      </trkpt>
      <trkpt lat="47.35918" lon="-1.41043">
        <ele>119</ele>
        <time>2022-07-09T09:04:24Z</time>
      </trkpt>
      <trkpt lat="47.35908" lon="-1.41054">
        <ele>118</ele>
        <time>2022-07-09T09:04:26Z</time>
      </trkpt>
      <trkpt lat="47.35897" lon="-1.41067">
        <ele>118</ele>
        <time>2022-07-09T09:04:28Z</time>
      </trkpt>
      <trkpt lat="47.35886" lon="-1.41079">
        <ele>118</ele>
        <time>2022-07-09T09:04:30Z</time>
      </trkpt>
      <trkpt lat="47.35875" lon="-1.4109">
        <ele>118</ele>
        <time>2022-07-09T09:04:32Z</time>
      </trkpt>
      <trkpt lat="47.35863" lon="-1.41102">
        <ele>118</ele>
        <time>2022-07-09T09:04:34Z</time>
      </trkpt>
      <trkpt lat="47.35852" lon="-1.41113">
        <ele>117</ele>
        <time>2022-07-09T09:04:36Z</time>
      </trkpt>
      <trkpt lat="47.35841" lon="-1.41125">
        <ele>117</ele>
        <time>2022-07-09T09:04:38Z</time>
      </trkpt>
      <trkpt lat="47.35831" lon="-1.41137">
        <ele>117</ele>
        <time>2022-07-09T09:04:40Z</time>
      </trkpt>
      <trkpt lat="47.35819" lon="-1.41149">
        <ele>117</ele>
        <time>2022-07-09T09:04:42Z</time>
      </trkpt>
      <trkpt lat="47.35808" lon="-1.41161">
        <ele>116</ele>
        <time>2022-07-09T09:04:44Z</time>
      </trkpt>
      <trkpt lat="47.35796" lon="-1.41174">
        <ele>116</ele>
        <time>2022-07-09T09:04:46Z</time>
      </trkpt>
      <trkpt lat="47.35784" lon="-1.41186">
        <ele>115</ele>
        <time>2022-07-09T09:04:48Z</time>
      </trkpt>
      <trkpt lat="47.35772" lon="-1.41199">
        <ele>115</ele>
        <time>2022-07-09T09:04:50Z</time>
      </trkpt>
      <trkpt lat="47.3576" lon="-1.41212">
        <ele>115</ele>
        <time>2022-07-09T09:04:52Z</time>
      </trkpt>
      <trkpt lat="47.35748" lon="-1.41224">
        <ele>114</ele>
        <time>2022-07-09T09:04:54Z</time>
      </trkpt>
      <trkpt lat="47.35736" lon="-1.41238">
        <ele>114</ele>
        <time>2022-07-09T09:04:56Z</time>
      </trkpt>
      <trkpt lat="47.35724" lon="-1.41251">
        <ele>113</ele>
        <time>2022-07-09T09:04:58Z</time>
      </trkpt>
      <trkpt lat="47.35712" lon="-1.41265">
        <ele>113</ele>
        <time>2022-07-09T09:05:00Z</time>
      </trkpt>
      <trkpt lat="47.357" lon="-1.41278">
        <ele>113</ele>
        <time>2022-07-09T09:05:02Z</time>
      </trkpt>
      <trkpt lat="47.35688" lon="-1.41293">
        <ele>113</ele>
        <time>2022-07-09T09:05:04Z</time>
      </trkpt>
      <trkpt lat="47.35676" lon="-1.41305">
        <ele>113</ele>
        <time>2022-07-09T09:05:06Z</time>
      </trkpt>
      <trkpt lat="47.35664" lon="-1.41316">
        <ele>113</ele>
        <time>2022-07-09T09:05:08Z</time>
      </trkpt>
      <trkpt lat="47.35652" lon="-1.41327">
        <ele>113</ele>
        <time>2022-07-09T09:05:10Z</time>
      </trkpt>
      <trkpt lat="47.35641" lon="-1.41338">
        <ele>113</ele>
        <time>2022-07-09T09:05:12Z</time>
      </trkpt>
      <trkpt lat="47.35631" lon="-1.41349">
        <ele>113</ele>
        <time>2022-07-09T09:05:14Z</time>
      </trkpt>
      <trkpt lat="47.3562" lon="-1.41361">
        <ele>112</ele>
        <time>2022-07-09T09:05:16Z</time>
      </trkpt>
      <trkpt lat="47.35609" lon="-1.41373">
        <ele>112</ele>
        <time>2022-07-09T09:05:18Z</time>
      </trkpt>
      <trkpt lat="47.35598" lon="-1.41385">
        <ele>112</ele>
        <time>2022-07-09T09:05:20Z</time>
      </trkpt>
      <trkpt lat="47.35588" lon="-1.41395">
        <ele>112</ele>
        <time>2022-07-09T09:05:22Z</time>
      </trkpt>
      <trkpt lat="47.35577" lon="-1.41407">
        <ele>112</ele>
        <time>2022-07-09T09:05:24Z</time>
      </trkpt>
      <trkpt lat="47.35566" lon="-1.41419">
        <ele>112</ele>
        <time>2022-07-09T09:05:26Z</time>
      </trkpt>
      <trkpt lat="47.35555" lon="-1.4143">
        <ele>113</ele>
        <time>2022-07-09T09:05:28Z</time>
      </trkpt>
      <trkpt lat="47.35544" lon="-1.41442">
        <ele>114</ele>
        <time>2022-07-09T09:05:30Z</time>
      </trkpt>
      <trkpt lat="47.35534" lon="-1.41454">
        <ele>114</ele>
        <time>2022-07-09T09:05:32Z</time>
      </trkpt>
      <trkpt lat="47.35523" lon="-1.41466">
        <ele>114</ele>
        <time>2022-07-09T09:05:34Z</time>
      </trkpt>
      <trkpt lat="47.35512" lon="-1.41477">
        <ele>114</ele>
        <time>2022-07-09T09:05:36Z</time>
      </trkpt>
      <trkpt lat="47.35501" lon="-1.41488">
        <ele>114</ele>
        <time>2022-07-09T09:05:38Z</time>
      </trkpt>
      <trkpt lat="47.3549" lon="-1.41499">
        <ele>115</ele>
        <time>2022-07-09T09:05:40Z</time>
      </trkpt>
      <trkpt lat="47.3548" lon="-1.4151">
        <ele>115</ele>
        <time>2022-07-09T09:05:42Z</time>
      </trkpt>
      <trkpt lat="47.3547" lon="-1.41521">
        <ele>115</ele>
        <time>2022-07-09T09:05:44Z</time>
      </trkpt>
      <trkpt lat="47.3546" lon="-1.41533">
        <ele>115</ele>
        <time>2022-07-09T09:05:46Z</time>
      </trkpt>
      <trkpt lat="47.35449" lon="-1.41543">
        <ele>114</ele>
        <time>2022-07-09T09:05:48Z</time>
      </trkpt>
      <trkpt lat="47.35438" lon="-1.41554">
        <ele>114</ele>
        <time>2022-07-09T09:05:50Z</time>
      </trkpt>
      <trkpt lat="47.35428" lon="-1.41565">
        <ele>114</ele>
        <time>2022-07-09T09:05:52Z</time>
      </trkpt>
      <trkpt lat="47.35417" lon="-1.41576">
        <ele>114</ele>
        <time>2022-07-09T09:05:54Z</time>
      </trkpt>
      <trkpt lat="47.35407" lon="-1.41587">
        <ele>114</ele>
        <time>2022-07-09T09:05:56Z</time>
      </trkpt>
      <trkpt lat="47.35396" lon="-1.41598">
        <ele>115</ele>
        <time>2022-07-09T09:05:58Z</time>
      </trkpt>
      <trkpt lat="47.35386" lon="-1.41609">
        <ele>115</ele>
        <time>2022-07-09T09:06:00Z</time>
      </trkpt>
      <trkpt lat="47.35376" lon="-1.4162">
        <ele>115</ele>
        <time>2022-07-09T09:06:02Z</time>
      </trkpt>
      <trkpt lat="47.35365" lon="-1.41631">
        <ele>115</ele>
        <time>2022-07-09T09:06:04Z</time>
      </trkpt>
      <trkpt lat="47.35354" lon="-1.41642">
        <ele>115</ele>
        <time>2022-07-09T09:06:06Z</time>
      </trkpt>
      <trkpt lat="47.35344" lon="-1.41653">
        <ele>115</ele>
        <time>2022-07-09T09:06:08Z</time>
      </trkpt>
      <trkpt lat="47.35333" lon="-1.41664">
        <ele>115</ele>
        <time>2022-07-09T09:06:10Z</time>
      </trkpt>
      <trkpt lat="47.35322" lon="-1.41675">
        <ele>116</ele>
        <time>2022-07-09T09:06:12Z</time>
      </trkpt>
      <trkpt lat="47.35312" lon="-1.41687">
        <ele>116</ele>
        <time>2022-07-09T09:06:14Z</time>
      </trkpt>
      <trkpt lat="47.35301" lon="-1.41698">
        <ele>116</ele>
        <time>2022-07-09T09:06:16Z</time>
      </trkpt>
      <trkpt lat="47.3529" lon="-1.41709">
        <ele>116</ele>
        <time>2022-07-09T09:06:18Z</time>
      </trkpt>
      <trkpt lat="47.3528" lon="-1.4172">
        <ele>116</ele>
        <time>2022-07-09T09:06:20Z</time>
      </trkpt>
      <trkpt lat="47.3527" lon="-1.41732">
        <ele>115</ele>
        <time>2022-07-09T09:06:22Z</time>
      </trkpt>
      <trkpt lat="47.3526" lon="-1.41743">
        <ele>115</ele>
        <time>2022-07-09T09:06:24Z</time>
      </trkpt>
      <trkpt lat="47.35249" lon="-1.41754">
        <ele>115</ele>
        <time>2022-07-09T09:06:26Z</time>
      </trkpt>
      <trkpt lat="47.35239" lon="-1.41765">
        <ele>115</ele>
        <time>2022-07-09T09:06:28Z</time>
      </trkpt>
      <trkpt lat="47.35228" lon="-1.41776">
        <ele>115</ele>
        <time>2022-07-09T09:06:30Z</time>
      </trkpt>
      <trkpt lat="47.35218" lon="-1.41787">
        <ele>115</ele>
        <time>2022-07-09T09:06:32Z</time>
      </trkpt>
      <trkpt lat="47.35208" lon="-1.41798">
        <ele>116</ele>
        <time>2022-07-09T09:06:34Z</time>
      </trkpt>
      <trkpt lat="47.35198" lon="-1.41809">
        <ele>116</ele>
        <time>2022-07-09T09:06:36Z</time>
      </trkpt>
      <trkpt lat="47.35187" lon="-1.41819">
        <ele>116</ele>
        <time>2022-07-09T09:06:38Z</time>
      </trkpt>
      <trkpt lat="47.35177" lon="-1.4183">
        <ele>116</ele>
        <time>2022-07-09T09:06:40Z</time>
      </trkpt>
      <trkpt lat="47.35167" lon="-1.41841">
        <ele>116</ele>
        <time>2022-07-09T09:06:42Z</time>
      </trkpt>
      <trkpt lat="47.35156" lon="-1.41851">
        <ele>116</ele>
        <time>2022-07-09T09:06:44Z</time>
      </trkpt>
      <trkpt lat="47.35145" lon="-1.41862">
        <ele>115</ele>
        <time>2022-07-09T09:06:46Z</time>
      </trkpt>
      <trkpt lat="47.35134" lon="-1.41874">
        <ele>115</ele>
        <time>2022-07-09T09:06:48Z</time>
      </trkpt>
      <trkpt lat="47.35122" lon="-1.41886">
        <ele>115</ele>
        <time>2022-07-09T09:06:50Z</time>
      </trkpt>
      <trkpt lat="47.35111" lon="-1.41899">
        <ele>114</ele>
        <time>2022-07-09T09:06:52Z</time>
      </trkpt>
      <trkpt lat="47.35099" lon="-1.41911">
        <ele>114</ele>
        <time>2022-07-09T09:06:54Z</time>
      </trkpt>
      <trkpt lat="47.35088" lon="-1.41924">
        <ele>114</ele>
        <time>2022-07-09T09:06:56Z</time>
      </trkpt>
      <trkpt lat="47.35076" lon="-1.41936">
        <ele>113</ele>
        <time>2022-07-09T09:06:58Z</time>
      </trkpt>
      <trkpt lat="47.35063" lon="-1.41949">
        <ele>113</ele>
        <time>2022-07-09T09:07:00Z</time>
      </trkpt>
      <trkpt lat="47.35051" lon="-1.41963">
        <ele>112</ele>
        <time>2022-07-09T09:07:02Z</time>
      </trkpt>
      <trkpt lat="47.35038" lon="-1.41978">
        <ele>111</ele>
        <time>2022-07-09T09:07:04Z</time>
      </trkpt>
      <trkpt lat="47.35024" lon="-1.41994">
        <ele>110</ele>
        <time>2022-07-09T09:07:06Z</time>
      </trkpt>
      <trkpt lat="47.3501" lon="-1.4201">
        <ele>109</ele>
        <time>2022-07-09T09:07:08Z</time>
      </trkpt>
      <trkpt lat="47.34998" lon="-1.42028">
        <ele>108</ele>
        <time>2022-07-09T09:07:10Z</time>
      </trkpt>
      <trkpt lat="47.34987" lon="-1.4205">
        <ele>107</ele>
        <time>2022-07-09T09:07:12Z</time>
      </trkpt>
      <trkpt lat="47.34979" lon="-1.42073">
        <ele>106</ele>
        <time>2022-07-09T09:07:14Z</time>
      </trkpt>
      <trkpt lat="47.34975" lon="-1.42085">
        <ele>105</ele>
        <time>2022-07-09T09:07:15Z</time>
      </trkpt>
      <trkpt lat="47.34971" lon="-1.42097">
        <ele>105</ele>
        <time>2022-07-09T09:07:16Z</time>
      </trkpt>
      <trkpt lat="47.34968" lon="-1.4211">
        <ele>104</ele>
        <time>2022-07-09T09:07:17Z</time>
      </trkpt>
      <trkpt lat="47.34961" lon="-1.42134">
        <ele>104</ele>
        <time>2022-07-09T09:07:19Z</time>
      </trkpt>
      <trkpt lat="47.34955" lon="-1.42158">
        <ele>104</ele>
        <time>2022-07-09T09:07:21Z</time>
      </trkpt>
      <trkpt lat="47.34952" lon="-1.42171">
        <ele>103</ele>
        <time>2022-07-09T09:07:22Z</time>
      </trkpt>
      <trkpt lat="47.34949" lon="-1.42185">
        <ele>102</ele>
        <time>2022-07-09T09:07:23Z</time>
      </trkpt>
      <trkpt lat="47.34946" lon="-1.42198">
        <ele>101</ele>
        <time>2022-07-09T09:07:24Z</time>
      </trkpt>
      <trkpt lat="47.34943" lon="-1.42211">
        <ele>101</ele>
        <time>2022-07-09T09:07:25Z</time>
      </trkpt>
      <trkpt lat="47.34939" lon="-1.42225">
        <ele>100</ele>
        <time>2022-07-09T09:07:26Z</time>
      </trkpt>
      <trkpt lat="47.34936" lon="-1.42239">
        <ele>100</ele>
        <time>2022-07-09T09:07:27Z</time>
      </trkpt>
      <trkpt lat="47.34933" lon="-1.42253">
        <ele>99</ele>
        <time>2022-07-09T09:07:28Z</time>
      </trkpt>
      <trkpt lat="47.3493" lon="-1.42266">
        <ele>99</ele>
        <time>2022-07-09T09:07:29Z</time>
      </trkpt>
      <trkpt lat="47.34925" lon="-1.42279">
        <ele>98</ele>
        <time>2022-07-09T09:07:30Z</time>
      </trkpt>
      <trkpt lat="47.34921" lon="-1.42292">
        <ele>98</ele>
        <time>2022-07-09T09:07:31Z</time>
      </trkpt>
      <trkpt lat="47.34916" lon="-1.42304">
        <ele>97</ele>
        <time>2022-07-09T09:07:32Z</time>
      </trkpt>
      <trkpt lat="47.3491" lon="-1.42315">
        <ele>97</ele>
        <time>2022-07-09T09:07:33Z</time>
      </trkpt>
      <trkpt lat="47.34903" lon="-1.42324">
        <ele>96</ele>
        <time>2022-07-09T09:07:34Z</time>
      </trkpt>
      <trkpt lat="47.34895" lon="-1.42332">
        <ele>96</ele>
        <time>2022-07-09T09:07:35Z</time>
      </trkpt>
      <trkpt lat="47.34887" lon="-1.42339">
        <ele>96</ele>
        <time>2022-07-09T09:07:36Z</time>
      </trkpt>
      <trkpt lat="47.34872" lon="-1.42351">
        <ele>96</ele>
        <time>2022-07-09T09:07:38Z</time>
      </trkpt>
      <trkpt lat="47.34857" lon="-1.42362">
        <ele>96</ele>
        <time>2022-07-09T09:07:40Z</time>
      </trkpt>
      <trkpt lat="47.34842" lon="-1.42372">
        <ele>97</ele>
        <time>2022-07-09T09:07:42Z</time>
      </trkpt>
      <trkpt lat="47.34828" lon="-1.42382">
        <ele>98</ele>
        <time>2022-07-09T09:07:44Z</time>
      </trkpt>
      <trkpt lat="47.34815" lon="-1.42391">
        <ele>98</ele>
        <time>2022-07-09T09:07:46Z</time>
      </trkpt>
      <trkpt lat="47.34803" lon="-1.424">
        <ele>99</ele>
        <time>2022-07-09T09:07:48Z</time>
      </trkpt>
      <trkpt lat="47.34791" lon="-1.42407">
        <ele>99</ele>
        <time>2022-07-09T09:07:50Z</time>
      </trkpt>
      <trkpt lat="47.3478" lon="-1.42414">
        <ele>99</ele>
        <time>2022-07-09T09:07:52Z</time>
      </trkpt>
      <trkpt lat="47.3477" lon="-1.4242">
        <ele>100</ele>
        <time>2022-07-09T09:07:54Z</time>
      </trkpt>
      <trkpt lat="47.3476" lon="-1.42428">
        <ele>100</ele>
        <time>2022-07-09T09:07:56Z</time>
      </trkpt>
      <trkpt lat="47.34749" lon="-1.42435">
        <ele>100</ele>
        <time>2022-07-09T09:07:58Z</time>
      </trkpt>
      <trkpt lat="47.34739" lon="-1.42443">
        <ele>100</ele>
        <time>2022-07-09T09:08:00Z</time>
      </trkpt>
      <trkpt lat="47.34728" lon="-1.42451">
        <ele>100</ele>
        <time>2022-07-09T09:08:02Z</time>
      </trkpt>
      <trkpt lat="47.34718" lon="-1.4246">
        <ele>101</ele>
        <time>2022-07-09T09:08:04Z</time>
      </trkpt>
      <trkpt lat="47.34708" lon="-1.4247">
        <ele>101</ele>
        <time>2022-07-09T09:08:06Z</time>
      </trkpt>
      <trkpt lat="47.34699" lon="-1.4248">
        <ele>101</ele>
        <time>2022-07-09T09:08:08Z</time>
      </trkpt>
      <trkpt lat="47.3469" lon="-1.42489">
        <ele>101</ele>
        <time>2022-07-09T09:08:10Z</time>
      </trkpt>
      <trkpt lat="47.34682" lon="-1.425">
        <ele>101</ele>
        <time>2022-07-09T09:08:12Z</time>
      </trkpt>
      <trkpt lat="47.34673" lon="-1.42512">
        <ele>102</ele>
        <time>2022-07-09T09:08:14Z</time>
      </trkpt>
      <trkpt lat="47.34666" lon="-1.42523">
        <ele>103</ele>
        <time>2022-07-09T09:08:16Z</time>
      </trkpt>
      <trkpt lat="47.34658" lon="-1.42535">
        <ele>104</ele>
        <time>2022-07-09T09:08:18Z</time>
      </trkpt>
      <trkpt lat="47.34651" lon="-1.42547">
        <ele>104</ele>
        <time>2022-07-09T09:08:20Z</time>
      </trkpt>
      <trkpt lat="47.34644" lon="-1.4256">
        <ele>105</ele>
        <time>2022-07-09T09:08:22Z</time>
      </trkpt>
      <trkpt lat="47.34637" lon="-1.42573">
        <ele>105</ele>
        <time>2022-07-09T09:08:24Z</time>
      </trkpt>
      <trkpt lat="47.34631" lon="-1.42586">
        <ele>106</ele>
        <time>2022-07-09T09:08:26Z</time>
      </trkpt>
      <trkpt lat="47.34626" lon="-1.426">
        <ele>106</ele>
        <time>2022-07-09T09:08:28Z</time>
      </trkpt>
      <trkpt lat="47.34621" lon="-1.42614">
        <ele>107</ele>
        <time>2022-07-09T09:08:30Z</time>
      </trkpt>
      <trkpt lat="47.34616" lon="-1.42628">
        <ele>107</ele>
        <time>2022-07-09T09:08:32Z</time>
      </trkpt>
      <trkpt lat="47.34611" lon="-1.42643">
        <ele>108</ele>
        <time>2022-07-09T09:08:34Z</time>
      </trkpt>
      <trkpt lat="47.34607" lon="-1.42657">
        <ele>108</ele>
        <time>2022-07-09T09:08:36Z</time>
      </trkpt>
      <trkpt lat="47.34603" lon="-1.42671">
        <ele>109</ele>
        <time>2022-07-09T09:08:38Z</time>
      </trkpt>
      <trkpt lat="47.34598" lon="-1.42685">
        <ele>109</ele>
        <time>2022-07-09T09:08:40Z</time>
      </trkpt>
      <trkpt lat="47.34594" lon="-1.42698">
        <ele>110</ele>
        <time>2022-07-09T09:08:42Z</time>
      </trkpt>
      <trkpt lat="47.3459" lon="-1.42712">
        <ele>110</ele>
        <time>2022-07-09T09:08:44Z</time>
      </trkpt>
      <trkpt lat="47.34585" lon="-1.42727">
        <ele>111</ele>
        <time>2022-07-09T09:08:46Z</time>
      </trkpt>
      <trkpt lat="47.34581" lon="-1.42741">
        <ele>111</ele>
        <time>2022-07-09T09:08:48Z</time>
      </trkpt>
      <trkpt lat="47.34577" lon="-1.42755">
        <ele>111</ele>
        <time>2022-07-09T09:08:50Z</time>
      </trkpt>
      <trkpt lat="47.34572" lon="-1.42769">
        <ele>111</ele>
        <time>2022-07-09T09:08:52Z</time>
      </trkpt>
      <trkpt lat="47.34567" lon="-1.42784">
        <ele>112</ele>
        <time>2022-07-09T09:08:54Z</time>
      </trkpt>
      <trkpt lat="47.34562" lon="-1.42798">
        <ele>112</ele>
        <time>2022-07-09T09:08:56Z</time>
      </trkpt>
      <trkpt lat="47.34558" lon="-1.42812">
        <ele>111</ele>
        <time>2022-07-09T09:08:58Z</time>
      </trkpt>
      <trkpt lat="47.34554" lon="-1.42827">
        <ele>111</ele>
        <time>2022-07-09T09:09:00Z</time>
      </trkpt>
      <trkpt lat="47.3455" lon="-1.42842">
        <ele>111</ele>
        <time>2022-07-09T09:09:02Z</time>
      </trkpt>
      <trkpt lat="47.34545" lon="-1.42857">
        <ele>111</ele>
        <time>2022-07-09T09:09:04Z</time>
      </trkpt>
      <trkpt lat="47.3454" lon="-1.42871">
        <ele>112</ele>
        <time>2022-07-09T09:09:06Z</time>
      </trkpt>
      <trkpt lat="47.34536" lon="-1.42886">
        <ele>112</ele>
        <time>2022-07-09T09:09:08Z</time>
      </trkpt>
      <trkpt lat="47.34531" lon="-1.42902">
        <ele>112</ele>
        <time>2022-07-09T09:09:10Z</time>
      </trkpt>
      <trkpt lat="47.34526" lon="-1.42917">
        <ele>112</ele>
        <time>2022-07-09T09:09:12Z</time>
      </trkpt>
      <trkpt lat="47.34521" lon="-1.42933">
        <ele>112</ele>
        <time>2022-07-09T09:09:14Z</time>
      </trkpt>
      <trkpt lat="47.34516" lon="-1.42949">
        <ele>113</ele>
        <time>2022-07-09T09:09:16Z</time>
      </trkpt>
      <trkpt lat="47.34512" lon="-1.42965">
        <ele>113</ele>
        <time>2022-07-09T09:09:18Z</time>
      </trkpt>
      <trkpt lat="47.34507" lon="-1.42981">
        <ele>113</ele>
        <time>2022-07-09T09:09:20Z</time>
      </trkpt>
      <trkpt lat="47.34502" lon="-1.42997">
        <ele>113</ele>
        <time>2022-07-09T09:09:22Z</time>
      </trkpt>
      <trkpt lat="47.34497" lon="-1.43013">
        <ele>113</ele>
        <time>2022-07-09T09:09:24Z</time>
      </trkpt>
      <trkpt lat="47.34492" lon="-1.43029">
        <ele>114</ele>
        <time>2022-07-09T09:09:26Z</time>
      </trkpt>
      <trkpt lat="47.34487" lon="-1.43045">
        <ele>114</ele>
        <time>2022-07-09T09:09:28Z</time>
      </trkpt>
      <trkpt lat="47.34483" lon="-1.43061">
        <ele>114</ele>
        <time>2022-07-09T09:09:30Z</time>
      </trkpt>
      <trkpt lat="47.34477" lon="-1.43077">
        <ele>114</ele>
        <time>2022-07-09T09:09:32Z</time>
      </trkpt>
      <trkpt lat="47.34472" lon="-1.43093">
        <ele>114</ele>
        <time>2022-07-09T09:09:34Z</time>
      </trkpt>
      <trkpt lat="47.34467" lon="-1.43109">
        <ele>114</ele>
        <time>2022-07-09T09:09:36Z</time>
      </trkpt>
      <trkpt lat="47.34462" lon="-1.43125">
        <ele>114</ele>
        <time>2022-07-09T09:09:38Z</time>
      </trkpt>
      <trkpt lat="47.34456" lon="-1.43141">
        <ele>114</ele>
        <time>2022-07-09T09:09:40Z</time>
      </trkpt>
      <trkpt lat="47.34451" lon="-1.43157">
        <ele>114</ele>
        <time>2022-07-09T09:09:42Z</time>
      </trkpt>
      <trkpt lat="47.34446" lon="-1.43173">
        <ele>114</ele>
        <time>2022-07-09T09:09:44Z</time>
      </trkpt>
      <trkpt lat="47.3444" lon="-1.43189">
        <ele>114</ele>
        <time>2022-07-09T09:09:46Z</time>
      </trkpt>
      <trkpt lat="47.34436" lon="-1.43206">
        <ele>114</ele>
        <time>2022-07-09T09:09:48Z</time>
      </trkpt>
      <trkpt lat="47.34431" lon="-1.43223">
        <ele>114</ele>
        <time>2022-07-09T09:09:50Z</time>
      </trkpt>
      <trkpt lat="47.34426" lon="-1.4324">
        <ele>115</ele>
        <time>2022-07-09T09:09:52Z</time>
      </trkpt>
      <trkpt lat="47.3442" lon="-1.43257">
        <ele>115</ele>
        <time>2022-07-09T09:09:54Z</time>
      </trkpt>
      <trkpt lat="47.34415" lon="-1.43274">
        <ele>115</ele>
        <time>2022-07-09T09:09:56Z</time>
      </trkpt>
      <trkpt lat="47.3441" lon="-1.43292">
        <ele>114</ele>
        <time>2022-07-09T09:09:58Z</time>
      </trkpt>
      <trkpt lat="47.34404" lon="-1.43309">
        <ele>114</ele>
        <time>2022-07-09T09:10:00Z</time>
      </trkpt>
      <trkpt lat="47.34398" lon="-1.43326">
        <ele>114</ele>
        <time>2022-07-09T09:10:02Z</time>
      </trkpt>
      <trkpt lat="47.34393" lon="-1.43343">
        <ele>114</ele>
        <time>2022-07-09T09:10:04Z</time>
      </trkpt>
      <trkpt lat="47.34388" lon="-1.43361">
        <ele>114</ele>
        <time>2022-07-09T09:10:06Z</time>
      </trkpt>
      <trkpt lat="47.34382" lon="-1.43379">
        <ele>114</ele>
        <time>2022-07-09T09:10:08Z</time>
      </trkpt>
      <trkpt lat="47.34376" lon="-1.43398">
        <ele>114</ele>
        <time>2022-07-09T09:10:10Z</time>
      </trkpt>
      <trkpt lat="47.3437" lon="-1.43416">
        <ele>113</ele>
        <time>2022-07-09T09:10:12Z</time>
      </trkpt>
      <trkpt lat="47.34365" lon="-1.43432">
        <ele>113</ele>
        <time>2022-07-09T09:10:14Z</time>
      </trkpt>
      <trkpt lat="47.3436" lon="-1.43449">
        <ele>112</ele>
        <time>2022-07-09T09:10:16Z</time>
      </trkpt>
      <trkpt lat="47.34355" lon="-1.43466">
        <ele>112</ele>
        <time>2022-07-09T09:10:18Z</time>
      </trkpt>
      <trkpt lat="47.34348" lon="-1.43485">
        <ele>112</ele>
        <time>2022-07-09T09:10:20Z</time>
      </trkpt>
      <trkpt lat="47.34342" lon="-1.43504">
        <ele>112</ele>
        <time>2022-07-09T09:10:22Z</time>
      </trkpt>
      <trkpt lat="47.34336" lon="-1.43522">
        <ele>112</ele>
        <time>2022-07-09T09:10:24Z</time>
      </trkpt>
      <trkpt lat="47.34331" lon="-1.43541">
        <ele>111</ele>
        <time>2022-07-09T09:10:26Z</time>
      </trkpt>
      <trkpt lat="47.34325" lon="-1.43559">
        <ele>111</ele>
        <time>2022-07-09T09:10:28Z</time>
      </trkpt>
      <trkpt lat="47.34319" lon="-1.43578">
        <ele>111</ele>
        <time>2022-07-09T09:10:30Z</time>
      </trkpt>
      <trkpt lat="47.34313" lon="-1.43598">
        <ele>110</ele>
        <time>2022-07-09T09:10:32Z</time>
      </trkpt>
      <trkpt lat="47.34307" lon="-1.43617">
        <ele>110</ele>
        <time>2022-07-09T09:10:34Z</time>
      </trkpt>
      <trkpt lat="47.34301" lon="-1.43635">
        <ele>109</ele>
        <time>2022-07-09T09:10:36Z</time>
      </trkpt>
      <trkpt lat="47.34295" lon="-1.43654">
        <ele>109</ele>
        <time>2022-07-09T09:10:38Z</time>
      </trkpt>
      <trkpt lat="47.34289" lon="-1.43673">
        <ele>109</ele>
        <time>2022-07-09T09:10:40Z</time>
      </trkpt>
      <trkpt lat="47.34283" lon="-1.43692">
        <ele>109</ele>
        <time>2022-07-09T09:10:42Z</time>
      </trkpt>
      <trkpt lat="47.34277" lon="-1.4371">
        <ele>109</ele>
        <time>2022-07-09T09:10:44Z</time>
      </trkpt>
      <trkpt lat="47.34271" lon="-1.43728">
        <ele>109</ele>
        <time>2022-07-09T09:10:46Z</time>
      </trkpt>
      <trkpt lat="47.34265" lon="-1.43748">
        <ele>109</ele>
        <time>2022-07-09T09:10:48Z</time>
      </trkpt>
      <trkpt lat="47.34259" lon="-1.43767">
        <ele>108</ele>
        <time>2022-07-09T09:10:50Z</time>
      </trkpt>
      <trkpt lat="47.34253" lon="-1.43786">
        <ele>108</ele>
        <time>2022-07-09T09:10:52Z</time>
      </trkpt>
      <trkpt lat="47.34247" lon="-1.43805">
        <ele>108</ele>
        <time>2022-07-09T09:10:54Z</time>
      </trkpt>
      <trkpt lat="47.34238" lon="-1.43833">
        <ele>107</ele>
        <time>2022-07-09T09:10:57Z</time>
      </trkpt>
      <trkpt lat="47.34229" lon="-1.43862">
        <ele>107</ele>
        <time>2022-07-09T09:11:00Z</time>
      </trkpt>
      <trkpt lat="47.34219" lon="-1.43891">
        <ele>106</ele>
        <time>2022-07-09T09:11:03Z</time>
      </trkpt>
      <trkpt lat="47.34211" lon="-1.43919">
        <ele>105</ele>
        <time>2022-07-09T09:11:06Z</time>
      </trkpt>
      <trkpt lat="47.34205" lon="-1.43938">
        <ele>105</ele>
        <time>2022-07-09T09:11:08Z</time>
      </trkpt>
      <trkpt lat="47.342" lon="-1.43958">
        <ele>105</ele>
        <time>2022-07-09T09:11:10Z</time>
      </trkpt>
      <trkpt lat="47.34193" lon="-1.43977">
        <ele>105</ele>
        <time>2022-07-09T09:11:12Z</time>
      </trkpt>
      <trkpt lat="47.34187" lon="-1.43996">
        <ele>104</ele>
        <time>2022-07-09T09:11:14Z</time>
      </trkpt>
      <trkpt lat="47.3418" lon="-1.44016">
        <ele>104</ele>
        <time>2022-07-09T09:11:16Z</time>
      </trkpt>
      <trkpt lat="47.34174" lon="-1.44037">
        <ele>103</ele>
        <time>2022-07-09T09:11:18Z</time>
      </trkpt>
      <trkpt lat="47.34168" lon="-1.44057">
        <ele>103</ele>
        <time>2022-07-09T09:11:20Z</time>
      </trkpt>
      <trkpt lat="47.34161" lon="-1.44078">
        <ele>103</ele>
        <time>2022-07-09T09:11:22Z</time>
      </trkpt>
      <trkpt lat="47.34155" lon="-1.44099">
        <ele>102</ele>
        <time>2022-07-09T09:11:24Z</time>
      </trkpt>
      <trkpt lat="47.34148" lon="-1.4412">
        <ele>102</ele>
        <time>2022-07-09T09:11:26Z</time>
      </trkpt>
      <trkpt lat="47.34142" lon="-1.44142">
        <ele>101</ele>
        <time>2022-07-09T09:11:28Z</time>
      </trkpt>
      <trkpt lat="47.34135" lon="-1.44164">
        <ele>101</ele>
        <time>2022-07-09T09:11:30Z</time>
      </trkpt>
      <trkpt lat="47.34128" lon="-1.44185">
        <ele>101</ele>
        <time>2022-07-09T09:11:32Z</time>
      </trkpt>
      <trkpt lat="47.34121" lon="-1.44207">
        <ele>100</ele>
        <time>2022-07-09T09:11:34Z</time>
      </trkpt>
      <trkpt lat="47.34114" lon="-1.44229">
        <ele>99</ele>
        <time>2022-07-09T09:11:36Z</time>
      </trkpt>
      <trkpt lat="47.34107" lon="-1.44252">
        <ele>99</ele>
        <time>2022-07-09T09:11:38Z</time>
      </trkpt>
      <trkpt lat="47.341" lon="-1.44275">
        <ele>98</ele>
        <time>2022-07-09T09:11:40Z</time>
      </trkpt>
      <trkpt lat="47.34093" lon="-1.44297">
        <ele>97</ele>
        <time>2022-07-09T09:11:42Z</time>
      </trkpt>
      <trkpt lat="47.34085" lon="-1.4432">
        <ele>96</ele>
        <time>2022-07-09T09:11:44Z</time>
      </trkpt>
      <trkpt lat="47.34078" lon="-1.44342">
        <ele>96</ele>
        <time>2022-07-09T09:11:46Z</time>
      </trkpt>
      <trkpt lat="47.34072" lon="-1.44363">
        <ele>96</ele>
        <time>2022-07-09T09:11:48Z</time>
      </trkpt>
      <trkpt lat="47.34065" lon="-1.44386">
        <ele>97</ele>
        <time>2022-07-09T09:11:50Z</time>
      </trkpt>
      <trkpt lat="47.34058" lon="-1.44408">
        <ele>96</ele>
        <time>2022-07-09T09:11:52Z</time>
      </trkpt>
      <trkpt lat="47.34051" lon="-1.4443">
        <ele>95</ele>
        <time>2022-07-09T09:11:54Z</time>
      </trkpt>
      <trkpt lat="47.34044" lon="-1.44451">
        <ele>94</ele>
        <time>2022-07-09T09:11:56Z</time>
      </trkpt>
      <trkpt lat="47.34038" lon="-1.44471">
        <ele>93</ele>
        <time>2022-07-09T09:11:58Z</time>
      </trkpt>
      <trkpt lat="47.34031" lon="-1.44492">
        <ele>93</ele>
        <time>2022-07-09T09:12:00Z</time>
      </trkpt>
      <trkpt lat="47.34024" lon="-1.44512">
        <ele>92</ele>
        <time>2022-07-09T09:12:02Z</time>
      </trkpt>
      <trkpt lat="47.34017" lon="-1.44532">
        <ele>92</ele>
        <time>2022-07-09T09:12:04Z</time>
      </trkpt>
      <trkpt lat="47.34011" lon="-1.44552">
        <ele>91</ele>
        <time>2022-07-09T09:12:06Z</time>
      </trkpt>
      <trkpt lat="47.34005" lon="-1.44572">
        <ele>91</ele>
        <time>2022-07-09T09:12:08Z</time>
      </trkpt>
      <trkpt lat="47.33998" lon="-1.44592">
        <ele>91</ele>
        <time>2022-07-09T09:12:10Z</time>
      </trkpt>
      <trkpt lat="47.33992" lon="-1.44612">
        <ele>91</ele>
        <time>2022-07-09T09:12:12Z</time>
      </trkpt>
      <trkpt lat="47.33986" lon="-1.44631">
        <ele>91</ele>
        <time>2022-07-09T09:12:14Z</time>
      </trkpt>
      <trkpt lat="47.33979" lon="-1.44649">
        <ele>91</ele>
        <time>2022-07-09T09:12:16Z</time>
      </trkpt>
      <trkpt lat="47.33974" lon="-1.44666">
        <ele>91</ele>
        <time>2022-07-09T09:12:18Z</time>
      </trkpt>
      <trkpt lat="47.3397" lon="-1.44681">
        <ele>91</ele>
        <time>2022-07-09T09:12:20Z</time>
      </trkpt>
      <trkpt lat="47.33966" lon="-1.44696">
        <ele>91</ele>
        <time>2022-07-09T09:12:22Z</time>
      </trkpt>
      <trkpt lat="47.33962" lon="-1.4471">
        <ele>92</ele>
        <time>2022-07-09T09:12:24Z</time>
      </trkpt>
      <trkpt lat="47.33957" lon="-1.44723">
        <ele>92</ele>
        <time>2022-07-09T09:12:26Z</time>
      </trkpt>
      <trkpt lat="47.33952" lon="-1.44736">
        <ele>93</ele>
        <time>2022-07-09T09:12:28Z</time>
      </trkpt>
      <trkpt lat="47.33948" lon="-1.4475">
        <ele>94</ele>
        <time>2022-07-09T09:12:30Z</time>
      </trkpt>
      <trkpt lat="47.33944" lon="-1.44764">
        <ele>94</ele>
        <time>2022-07-09T09:12:32Z</time>
      </trkpt>
      <trkpt lat="47.3394" lon="-1.44778">
        <ele>95</ele>
        <time>2022-07-09T09:12:34Z</time>
      </trkpt>
      <trkpt lat="47.33935" lon="-1.44791">
        <ele>95</ele>
        <time>2022-07-09T09:12:36Z</time>
      </trkpt>
      <trkpt lat="47.33931" lon="-1.44804">
        <ele>95</ele>
        <time>2022-07-09T09:12:38Z</time>
      </trkpt>
      <trkpt lat="47.33927" lon="-1.44818">
        <ele>96</ele>
        <time>2022-07-09T09:12:40Z</time>
      </trkpt>
      <trkpt lat="47.33922" lon="-1.44831">
        <ele>96</ele>
        <time>2022-07-09T09:12:42Z</time>
      </trkpt>
      <trkpt lat="47.33918" lon="-1.44845">
        <ele>97</ele>
        <time>2022-07-09T09:12:44Z</time>
      </trkpt>
      <trkpt lat="47.33914" lon="-1.44859">
        <ele>97</ele>
        <time>2022-07-09T09:12:46Z</time>
      </trkpt>
      <trkpt lat="47.3391" lon="-1.44872">
        <ele>98</ele>
        <time>2022-07-09T09:12:48Z</time>
      </trkpt>
      <trkpt lat="47.33906" lon="-1.44885">
        <ele>98</ele>
        <time>2022-07-09T09:12:50Z</time>
      </trkpt>
      <trkpt lat="47.33902" lon="-1.44899">
        <ele>98</ele>
        <time>2022-07-09T09:12:52Z</time>
      </trkpt>
      <trkpt lat="47.33897" lon="-1.44912">
        <ele>98</ele>
        <time>2022-07-09T09:12:54Z</time>
      </trkpt>
      <trkpt lat="47.33893" lon="-1.44925">
        <ele>99</ele>
        <time>2022-07-09T09:12:56Z</time>
      </trkpt>
      <trkpt lat="47.33888" lon="-1.44939">
        <ele>99</ele>
        <time>2022-07-09T09:12:58Z</time>
      </trkpt>
      <trkpt lat="47.33884" lon="-1.44951">
        <ele>100</ele>
        <time>2022-07-09T09:13:00Z</time>
      </trkpt>
      <trkpt lat="47.3388" lon="-1.44966">
        <ele>100</ele>
        <time>2022-07-09T09:13:02Z</time>
      </trkpt>
      <trkpt lat="47.33876" lon="-1.4498">
        <ele>100</ele>
        <time>2022-07-09T09:13:04Z</time>
      </trkpt>
      <trkpt lat="47.33871" lon="-1.44994">
        <ele>101</ele>
        <time>2022-07-09T09:13:06Z</time>
      </trkpt>
      <trkpt lat="47.33867" lon="-1.45007">
        <ele>101</ele>
        <time>2022-07-09T09:13:08Z</time>
      </trkpt>
      <trkpt lat="47.33863" lon="-1.45021">
        <ele>101</ele>
        <time>2022-07-09T09:13:10Z</time>
      </trkpt>
      <trkpt lat="47.33859" lon="-1.45035">
        <ele>101</ele>
        <time>2022-07-09T09:13:12Z</time>
      </trkpt>
      <trkpt lat="47.33854" lon="-1.45049">
        <ele>101</ele>
        <time>2022-07-09T09:13:14Z</time>
      </trkpt>
      <trkpt lat="47.33849" lon="-1.45064">
        <ele>101</ele>
        <time>2022-07-09T09:13:16Z</time>
      </trkpt>
      <trkpt lat="47.33845" lon="-1.45078">
        <ele>101</ele>
        <time>2022-07-09T09:13:18Z</time>
      </trkpt>
      <trkpt lat="47.3384" lon="-1.45092">
        <ele>101</ele>
        <time>2022-07-09T09:13:20Z</time>
      </trkpt>
      <trkpt lat="47.33835" lon="-1.45106">
        <ele>102</ele>
        <time>2022-07-09T09:13:22Z</time>
      </trkpt>
      <trkpt lat="47.3383" lon="-1.4512">
        <ele>102</ele>
        <time>2022-07-09T09:13:24Z</time>
      </trkpt>
      <trkpt lat="47.33826" lon="-1.45133">
        <ele>102</ele>
        <time>2022-07-09T09:13:26Z</time>
      </trkpt>
      <trkpt lat="47.33821" lon="-1.45147">
        <ele>103</ele>
        <time>2022-07-09T09:13:28Z</time>
      </trkpt>
      <trkpt lat="47.33815" lon="-1.45159">
        <ele>102</ele>
        <time>2022-07-09T09:13:30Z</time>
      </trkpt>
      <trkpt lat="47.33809" lon="-1.45171">
        <ele>103</ele>
        <time>2022-07-09T09:13:32Z</time>
      </trkpt>
      <trkpt lat="47.33802" lon="-1.45182">
        <ele>103</ele>
        <time>2022-07-09T09:13:34Z</time>
      </trkpt>
      <trkpt lat="47.33794" lon="-1.45192">
        <ele>103</ele>
        <time>2022-07-09T09:13:36Z</time>
      </trkpt>
      <trkpt lat="47.33784" lon="-1.45201">
        <ele>103</ele>
        <time>2022-07-09T09:13:38Z</time>
      </trkpt>
      <trkpt lat="47.33774" lon="-1.45208">
        <ele>103</ele>
        <time>2022-07-09T09:13:40Z</time>
      </trkpt>
      <trkpt lat="47.33764" lon="-1.45213">
        <ele>104</ele>
        <time>2022-07-09T09:13:42Z</time>
      </trkpt>
      <trkpt lat="47.33754" lon="-1.45219">
        <ele>104</ele>
        <time>2022-07-09T09:13:44Z</time>
      </trkpt>
      <trkpt lat="47.33743" lon="-1.45224">
        <ele>104</ele>
        <time>2022-07-09T09:13:46Z</time>
      </trkpt>
      <trkpt lat="47.33733" lon="-1.45229">
        <ele>105</ele>
        <time>2022-07-09T09:13:48Z</time>
      </trkpt>
      <trkpt lat="47.33722" lon="-1.45234">
        <ele>104</ele>
        <time>2022-07-09T09:13:50Z</time>
      </trkpt>
      <trkpt lat="47.3371" lon="-1.45239">
        <ele>105</ele>
        <time>2022-07-09T09:13:52Z</time>
      </trkpt>
      <trkpt lat="47.33699" lon="-1.45243">
        <ele>105</ele>
        <time>2022-07-09T09:13:54Z</time>
      </trkpt>
      <trkpt lat="47.33688" lon="-1.45248">
        <ele>105</ele>
        <time>2022-07-09T09:13:56Z</time>
      </trkpt>
      <trkpt lat="47.33677" lon="-1.45253">
        <ele>105</ele>
        <time>2022-07-09T09:13:58Z</time>
      </trkpt>
      <trkpt lat="47.33665" lon="-1.45258">
        <ele>105</ele>
        <time>2022-07-09T09:14:00Z</time>
      </trkpt>
      <trkpt lat="47.33654" lon="-1.45262">
        <ele>105</ele>
        <time>2022-07-09T09:14:02Z</time>
      </trkpt>
      <trkpt lat="47.33643" lon="-1.45267">
        <ele>105</ele>
        <time>2022-07-09T09:14:04Z</time>
      </trkpt>
      <trkpt lat="47.33632" lon="-1.45272">
        <ele>105</ele>
        <time>2022-07-09T09:14:06Z</time>
      </trkpt>
      <trkpt lat="47.33622" lon="-1.45276">
        <ele>106</ele>
        <time>2022-07-09T09:14:08Z</time>
      </trkpt>
      <trkpt lat="47.33611" lon="-1.4528">
        <ele>106</ele>
        <time>2022-07-09T09:14:10Z</time>
      </trkpt>
      <trkpt lat="47.336" lon="-1.45286">
        <ele>106</ele>
        <time>2022-07-09T09:14:12Z</time>
      </trkpt>
      <trkpt lat="47.33589" lon="-1.4529">
        <ele>106</ele>
        <time>2022-07-09T09:14:14Z</time>
      </trkpt>
      <trkpt lat="47.33578" lon="-1.45295">
        <ele>106</ele>
        <time>2022-07-09T09:14:16Z</time>
      </trkpt>
      <trkpt lat="47.33567" lon="-1.45299">
        <ele>107</ele>
        <time>2022-07-09T09:14:18Z</time>
      </trkpt>
      <trkpt lat="47.33556" lon="-1.45303">
        <ele>107</ele>
        <time>2022-07-09T09:14:20Z</time>
      </trkpt>
      <trkpt lat="47.33546" lon="-1.45308">
        <ele>107</ele>
        <time>2022-07-09T09:14:22Z</time>
      </trkpt>
      <trkpt lat="47.33535" lon="-1.45313">
        <ele>107</ele>
        <time>2022-07-09T09:14:24Z</time>
      </trkpt>
      <trkpt lat="47.33524" lon="-1.45318">
        <ele>108</ele>
        <time>2022-07-09T09:14:26Z</time>
      </trkpt>
      <trkpt lat="47.33513" lon="-1.45323">
        <ele>108</ele>
        <time>2022-07-09T09:14:28Z</time>
      </trkpt>
      <trkpt lat="47.33501" lon="-1.45328">
        <ele>108</ele>
        <time>2022-07-09T09:14:30Z</time>
      </trkpt>
      <trkpt lat="47.3349" lon="-1.45332">
        <ele>108</ele>
        <time>2022-07-09T09:14:32Z</time>
      </trkpt>
      <trkpt lat="47.33479" lon="-1.45337">
        <ele>108</ele>
        <time>2022-07-09T09:14:34Z</time>
      </trkpt>
      <trkpt lat="47.33468" lon="-1.45341">
        <ele>108</ele>
        <time>2022-07-09T09:14:36Z</time>
      </trkpt>
      <trkpt lat="47.33458" lon="-1.45346">
        <ele>108</ele>
        <time>2022-07-09T09:14:38Z</time>
      </trkpt>
      <trkpt lat="47.33447" lon="-1.45351">
        <ele>108</ele>
        <time>2022-07-09T09:14:40Z</time>
      </trkpt>
      <trkpt lat="47.33436" lon="-1.45355">
        <ele>108</ele>
        <time>2022-07-09T09:14:42Z</time>
      </trkpt>
      <trkpt lat="47.33424" lon="-1.4536">
        <ele>109</ele>
        <time>2022-07-09T09:14:44Z</time>
      </trkpt>
      <trkpt lat="47.33413" lon="-1.45365">
        <ele>109</ele>
        <time>2022-07-09T09:14:46Z</time>
      </trkpt>
      <trkpt lat="47.33401" lon="-1.45371">
        <ele>109</ele>
        <time>2022-07-09T09:14:48Z</time>
      </trkpt>
      <trkpt lat="47.33389" lon="-1.45376">
        <ele>109</ele>
        <time>2022-07-09T09:14:50Z</time>
      </trkpt>
      <trkpt lat="47.33377" lon="-1.45381">
        <ele>109</ele>
        <time>2022-07-09T09:14:52Z</time>
      </trkpt>
      <trkpt lat="47.33365" lon="-1.45386">
        <ele>109</ele>
        <time>2022-07-09T09:14:54Z</time>
      </trkpt>
      <trkpt lat="47.33352" lon="-1.45391">
        <ele>109</ele>
        <time>2022-07-09T09:14:56Z</time>
      </trkpt>
      <trkpt lat="47.33339" lon="-1.45397">
        <ele>108</ele>
        <time>2022-07-09T09:14:58Z</time>
      </trkpt>
      <trkpt lat="47.33326" lon="-1.45401">
        <ele>108</ele>
        <time>2022-07-09T09:15:00Z</time>
      </trkpt>
      <trkpt lat="47.33313" lon="-1.45407">
        <ele>108</ele>
        <time>2022-07-09T09:15:02Z</time>
      </trkpt>
      <trkpt lat="47.333" lon="-1.45412">
        <ele>108</ele>
        <time>2022-07-09T09:15:04Z</time>
      </trkpt>
      <trkpt lat="47.33286" lon="-1.45417">
        <ele>108</ele>
        <time>2022-07-09T09:15:06Z</time>
      </trkpt>
      <trkpt lat="47.33273" lon="-1.45423">
        <ele>108</ele>
        <time>2022-07-09T09:15:08Z</time>
      </trkpt>
      <trkpt lat="47.33259" lon="-1.45429">
        <ele>107</ele>
        <time>2022-07-09T09:15:10Z</time>
      </trkpt>
      <trkpt lat="47.33245" lon="-1.45435">
        <ele>107</ele>
        <time>2022-07-09T09:15:12Z</time>
      </trkpt>
      <trkpt lat="47.33231" lon="-1.45441">
        <ele>107</ele>
        <time>2022-07-09T09:15:14Z</time>
      </trkpt>
      <trkpt lat="47.33217" lon="-1.45447">
        <ele>107</ele>
        <time>2022-07-09T09:15:16Z</time>
      </trkpt>
      <trkpt lat="47.33203" lon="-1.45454">
        <ele>107</ele>
        <time>2022-07-09T09:15:18Z</time>
      </trkpt>
      <trkpt lat="47.3319" lon="-1.4546">
        <ele>107</ele>
        <time>2022-07-09T09:15:20Z</time>
      </trkpt>
      <trkpt lat="47.33178" lon="-1.45467">
        <ele>106</ele>
        <time>2022-07-09T09:15:22Z</time>
      </trkpt>
      <trkpt lat="47.33165" lon="-1.45476">
        <ele>106</ele>
        <time>2022-07-09T09:15:24Z</time>
      </trkpt>
      <trkpt lat="47.33154" lon="-1.45486">
        <ele>106</ele>
        <time>2022-07-09T09:15:26Z</time>
      </trkpt>
      <trkpt lat="47.33143" lon="-1.45498">
        <ele>106</ele>
        <time>2022-07-09T09:15:28Z</time>
      </trkpt>
      <trkpt lat="47.33131" lon="-1.45511">
        <ele>106</ele>
        <time>2022-07-09T09:15:30Z</time>
      </trkpt>
      <trkpt lat="47.3312" lon="-1.45526">
        <ele>106</ele>
        <time>2022-07-09T09:15:32Z</time>
      </trkpt>
      <trkpt lat="47.33109" lon="-1.4554">
        <ele>106</ele>
        <time>2022-07-09T09:15:34Z</time>
      </trkpt>
      <trkpt lat="47.33098" lon="-1.45554">
        <ele>106</ele>
        <time>2022-07-09T09:15:36Z</time>
      </trkpt>
      <trkpt lat="47.33088" lon="-1.45568">
        <ele>105</ele>
        <time>2022-07-09T09:15:38Z</time>
      </trkpt>
      <trkpt lat="47.33077" lon="-1.45583">
        <ele>104</ele>
        <time>2022-07-09T09:15:40Z</time>
      </trkpt>
      <trkpt lat="47.33066" lon="-1.45597">
        <ele>104</ele>
        <time>2022-07-09T09:15:42Z</time>
      </trkpt>
      <trkpt lat="47.33055" lon="-1.45612">
        <ele>104</ele>
        <time>2022-07-09T09:15:44Z</time>
      </trkpt>
      <trkpt lat="47.33044" lon="-1.45628">
        <ele>103</ele>
        <time>2022-07-09T09:15:46Z</time>
      </trkpt>
      <trkpt lat="47.33033" lon="-1.45643">
        <ele>102</ele>
        <time>2022-07-09T09:15:48Z</time>
      </trkpt>
      <trkpt lat="47.33022" lon="-1.45659">
        <ele>102</ele>
        <time>2022-07-09T09:15:50Z</time>
      </trkpt>
      <trkpt lat="47.3301" lon="-1.45674">
        <ele>102</ele>
        <time>2022-07-09T09:15:52Z</time>
      </trkpt>
      <trkpt lat="47.32998" lon="-1.45689">
        <ele>101</ele>
        <time>2022-07-09T09:15:54Z</time>
      </trkpt>
      <trkpt lat="47.32987" lon="-1.45706">
        <ele>101</ele>
        <time>2022-07-09T09:15:56Z</time>
      </trkpt>
      <trkpt lat="47.32975" lon="-1.45721">
        <ele>101</ele>
        <time>2022-07-09T09:15:58Z</time>
      </trkpt>
      <trkpt lat="47.32962" lon="-1.45737">
        <ele>100</ele>
        <time>2022-07-09T09:16:00Z</time>
      </trkpt>
      <trkpt lat="47.3295" lon="-1.45752">
        <ele>100</ele>
        <time>2022-07-09T09:16:02Z</time>
      </trkpt>
      <trkpt lat="47.32938" lon="-1.45769">
        <ele>99</ele>
        <time>2022-07-09T09:16:04Z</time>
      </trkpt>
      <trkpt lat="47.32927" lon="-1.45785">
        <ele>99</ele>
        <time>2022-07-09T09:16:06Z</time>
      </trkpt>
      <trkpt lat="47.32916" lon="-1.458">
        <ele>98</ele>
        <time>2022-07-09T09:16:08Z</time>
      </trkpt>
      <trkpt lat="47.32904" lon="-1.45817">
        <ele>97</ele>
        <time>2022-07-09T09:16:10Z</time>
      </trkpt>
      <trkpt lat="47.32892" lon="-1.45832">
        <ele>97</ele>
        <time>2022-07-09T09:16:12Z</time>
      </trkpt>
      <trkpt lat="47.32881" lon="-1.45848">
        <ele>97</ele>
        <time>2022-07-09T09:16:14Z</time>
      </trkpt>
      <trkpt lat="47.3287" lon="-1.45864">
        <ele>97</ele>
        <time>2022-07-09T09:16:16Z</time>
      </trkpt>
      <trkpt lat="47.32858" lon="-1.45879">
        <ele>97</ele>
        <time>2022-07-09T09:16:18Z</time>
      </trkpt>
      <trkpt lat="47.32847" lon="-1.45895">
        <ele>96</ele>
        <time>2022-07-09T09:16:20Z</time>
      </trkpt>
      <trkpt lat="47.32835" lon="-1.4591">
        <ele>96</ele>
        <time>2022-07-09T09:16:22Z</time>
      </trkpt>
      <trkpt lat="47.32824" lon="-1.45924">
        <ele>96</ele>
        <time>2022-07-09T09:16:24Z</time>
      </trkpt>
      <trkpt lat="47.32812" lon="-1.4594">
        <ele>95</ele>
        <time>2022-07-09T09:16:26Z</time>
      </trkpt>
      <trkpt lat="47.32801" lon="-1.45955">
        <ele>95</ele>
        <time>2022-07-09T09:16:28Z</time>
      </trkpt>
      <trkpt lat="47.32789" lon="-1.45972">
        <ele>94</ele>
        <time>2022-07-09T09:16:30Z</time>
      </trkpt>
      <trkpt lat="47.32777" lon="-1.45991">
        <ele>93</ele>
        <time>2022-07-09T09:16:32Z</time>
      </trkpt>
      <trkpt lat="47.32772" lon="-1.46001">
        <ele>93</ele>
        <time>2022-07-09T09:16:33Z</time>
      </trkpt>
      <trkpt lat="47.32764" lon="-1.46026">
        <ele>91</ele>
        <time>2022-07-09T09:16:35Z</time>
      </trkpt>
      <trkpt lat="47.32763" lon="-1.4604">
        <ele>91</ele>
        <time>2022-07-09T09:16:36Z</time>
      </trkpt>
      <trkpt lat="47.32762" lon="-1.46054">
        <ele>90</ele>
        <time>2022-07-09T09:16:37Z</time>
      </trkpt>
      <trkpt lat="47.32763" lon="-1.46068">
        <ele>90</ele>
        <time>2022-07-09T09:16:38Z</time>
      </trkpt>
      <trkpt lat="47.32764" lon="-1.46083">
        <ele>90</ele>
        <time>2022-07-09T09:16:39Z</time>
      </trkpt>
      <trkpt lat="47.32766" lon="-1.46096">
        <ele>90</ele>
        <time>2022-07-09T09:16:40Z</time>
      </trkpt>
      <trkpt lat="47.32768" lon="-1.4611">
        <ele>89</ele>
        <time>2022-07-09T09:16:41Z</time>
      </trkpt>
      <trkpt lat="47.32768" lon="-1.46136">
        <ele>89</ele>
        <time>2022-07-09T09:16:43Z</time>
      </trkpt>
      <trkpt lat="47.32763" lon="-1.46161">
        <ele>87</ele>
        <time>2022-07-09T09:16:45Z</time>
      </trkpt>
      <trkpt lat="47.32758" lon="-1.46173">
        <ele>87</ele>
        <time>2022-07-09T09:16:46Z</time>
      </trkpt>
      <trkpt lat="47.32752" lon="-1.46184">
        <ele>87</ele>
        <time>2022-07-09T09:16:47Z</time>
      </trkpt>
      <trkpt lat="47.32746" lon="-1.46194">
        <ele>86</ele>
        <time>2022-07-09T09:16:48Z</time>
      </trkpt>
      <trkpt lat="47.32738" lon="-1.46203">
        <ele>86</ele>
        <time>2022-07-09T09:16:49Z</time>
      </trkpt>
      <trkpt lat="47.32731" lon="-1.4621">
        <ele>85</ele>
        <time>2022-07-09T09:16:50Z</time>
      </trkpt>
      <trkpt lat="47.32723" lon="-1.46218">
        <ele>84</ele>
        <time>2022-07-09T09:16:51Z</time>
      </trkpt>
      <trkpt lat="47.32715" lon="-1.46225">
        <ele>84</ele>
        <time>2022-07-09T09:16:52Z</time>
      </trkpt>
      <trkpt lat="47.32707" lon="-1.46232">
        <ele>83</ele>
        <time>2022-07-09T09:16:53Z</time>
      </trkpt>
      <trkpt lat="47.32699" lon="-1.46239">
        <ele>82</ele>
        <time>2022-07-09T09:16:54Z</time>
      </trkpt>
      <trkpt lat="47.32691" lon="-1.46247">
        <ele>82</ele>
        <time>2022-07-09T09:16:55Z</time>
      </trkpt>
      <trkpt lat="47.32683" lon="-1.46255">
        <ele>81</ele>
        <time>2022-07-09T09:16:56Z</time>
      </trkpt>
      <trkpt lat="47.32675" lon="-1.46264">
        <ele>80</ele>
        <time>2022-07-09T09:16:57Z</time>
      </trkpt>
      <trkpt lat="47.32668" lon="-1.46275">
        <ele>80</ele>
        <time>2022-07-09T09:16:58Z</time>
      </trkpt>
      <trkpt lat="47.32662" lon="-1.46286">
        <ele>79</ele>
        <time>2022-07-09T09:16:59Z</time>
      </trkpt>
      <trkpt lat="47.32657" lon="-1.46299">
        <ele>79</ele>
        <time>2022-07-09T09:17:00Z</time>
      </trkpt>
      <trkpt lat="47.32652" lon="-1.46312">
        <ele>78</ele>
        <time>2022-07-09T09:17:01Z</time>
      </trkpt>
      <trkpt lat="47.3265" lon="-1.46327">
        <ele>78</ele>
        <time>2022-07-09T09:17:02Z</time>
      </trkpt>
      <trkpt lat="47.32648" lon="-1.46341">
        <ele>77</ele>
        <time>2022-07-09T09:17:03Z</time>
      </trkpt>
      <trkpt lat="47.32648" lon="-1.46356">
        <ele>77</ele>
        <time>2022-07-09T09:17:04Z</time>
      </trkpt>
      <trkpt lat="47.32647" lon="-1.4637">
        <ele>76</ele>
        <time>2022-07-09T09:17:05Z</time>
      </trkpt>
      <trkpt lat="47.32646" lon="-1.46385">
        <ele>76</ele>
        <time>2022-07-09T09:17:06Z</time>
      </trkpt>
      <trkpt lat="47.32645" lon="-1.464">
        <ele>75</ele>
        <time>2022-07-09T09:17:07Z</time>
      </trkpt>
      <trkpt lat="47.32644" lon="-1.46414">
        <ele>74</ele>
        <time>2022-07-09T09:17:08Z</time>
      </trkpt>
      <trkpt lat="47.32641" lon="-1.46428">
        <ele>74</ele>
        <time>2022-07-09T09:17:09Z</time>
      </trkpt>
      <trkpt lat="47.32638" lon="-1.46443">
        <ele>74</ele>
        <time>2022-07-09T09:17:10Z</time>
      </trkpt>
      <trkpt lat="47.32634" lon="-1.46457">
        <ele>73</ele>
        <time>2022-07-09T09:17:11Z</time>
      </trkpt>
      <trkpt lat="47.3263" lon="-1.4647">
        <ele>73</ele>
        <time>2022-07-09T09:17:12Z</time>
      </trkpt>
      <trkpt lat="47.32626" lon="-1.46483">
        <ele>73</ele>
        <time>2022-07-09T09:17:13Z</time>
      </trkpt>
      <trkpt lat="47.3262" lon="-1.46495">
        <ele>73</ele>
        <time>2022-07-09T09:17:14Z</time>
      </trkpt>
      <trkpt lat="47.32614" lon="-1.46507">
        <ele>73</ele>
        <time>2022-07-09T09:17:15Z</time>
      </trkpt>
      <trkpt lat="47.32608" lon="-1.46519">
        <ele>72</ele>
        <time>2022-07-09T09:17:16Z</time>
      </trkpt>
      <trkpt lat="47.32602" lon="-1.4653">
        <ele>72</ele>
        <time>2022-07-09T09:17:17Z</time>
      </trkpt>
      <trkpt lat="47.32596" lon="-1.4654">
        <ele>71</ele>
        <time>2022-07-09T09:17:18Z</time>
      </trkpt>
      <trkpt lat="47.32589" lon="-1.46549">
        <ele>71</ele>
        <time>2022-07-09T09:17:19Z</time>
      </trkpt>
      <trkpt lat="47.32581" lon="-1.46558">
        <ele>71</ele>
        <time>2022-07-09T09:17:20Z</time>
      </trkpt>
      <trkpt lat="47.32567" lon="-1.46573">
        <ele>70</ele>
        <time>2022-07-09T09:17:22Z</time>
      </trkpt>
      <trkpt lat="47.32552" lon="-1.46588">
        <ele>70</ele>
        <time>2022-07-09T09:17:24Z</time>
      </trkpt>
      <trkpt lat="47.32545" lon="-1.46595">
        <ele>70</ele>
        <time>2022-07-09T09:17:25Z</time>
      </trkpt>
      <trkpt lat="47.3253" lon="-1.4661">
        <ele>69</ele>
        <time>2022-07-09T09:17:27Z</time>
      </trkpt>
      <trkpt lat="47.32523" lon="-1.46617">
        <ele>68</ele>
        <time>2022-07-09T09:17:28Z</time>
      </trkpt>
      <trkpt lat="47.32515" lon="-1.46624">
        <ele>68</ele>
        <time>2022-07-09T09:17:29Z</time>
      </trkpt>
      <trkpt lat="47.32507" lon="-1.46632">
        <ele>67</ele>
        <time>2022-07-09T09:17:30Z</time>
      </trkpt>
      <trkpt lat="47.32493" lon="-1.46646">
        <ele>66</ele>
        <time>2022-07-09T09:17:32Z</time>
      </trkpt>
      <trkpt lat="47.32479" lon="-1.4666">
        <ele>66</ele>
        <time>2022-07-09T09:17:34Z</time>
      </trkpt>
      <trkpt lat="47.32464" lon="-1.46674">
        <ele>65</ele>
        <time>2022-07-09T09:17:36Z</time>
      </trkpt>
      <trkpt lat="47.3245" lon="-1.46688">
        <ele>65</ele>
        <time>2022-07-09T09:17:38Z</time>
      </trkpt>
      <trkpt lat="47.32436" lon="-1.46702">
        <ele>65</ele>
        <time>2022-07-09T09:17:40Z</time>
      </trkpt>
      <trkpt lat="47.32422" lon="-1.46717">
        <ele>64</ele>
        <time>2022-07-09T09:17:42Z</time>
      </trkpt>
      <trkpt lat="47.32409" lon="-1.46731">
        <ele>65</ele>
        <time>2022-07-09T09:17:44Z</time>
      </trkpt>
      <trkpt lat="47.32395" lon="-1.46745">
        <ele>65</ele>
        <time>2022-07-09T09:17:46Z</time>
      </trkpt>
      <trkpt lat="47.32381" lon="-1.46759">
        <ele>65</ele>
        <time>2022-07-09T09:17:48Z</time>
      </trkpt>
      <trkpt lat="47.32367" lon="-1.46772">
        <ele>65</ele>
        <time>2022-07-09T09:17:50Z</time>
      </trkpt>
      <trkpt lat="47.32353" lon="-1.46786">
        <ele>65</ele>
        <time>2022-07-09T09:17:52Z</time>
      </trkpt>
      <trkpt lat="47.3234" lon="-1.46799">
        <ele>65</ele>
        <time>2022-07-09T09:17:54Z</time>
      </trkpt>
      <trkpt lat="47.32326" lon="-1.46813">
        <ele>65</ele>
        <time>2022-07-09T09:17:56Z</time>
      </trkpt>
      <trkpt lat="47.32313" lon="-1.46827">
        <ele>65</ele>
        <time>2022-07-09T09:17:58Z</time>
      </trkpt>
      <trkpt lat="47.323" lon="-1.46839">
        <ele>65</ele>
        <time>2022-07-09T09:18:00Z</time>
      </trkpt>
      <trkpt lat="47.32288" lon="-1.46852">
        <ele>65</ele>
        <time>2022-07-09T09:18:02Z</time>
      </trkpt>
      <trkpt lat="47.32275" lon="-1.46865">
        <ele>65</ele>
        <time>2022-07-09T09:18:04Z</time>
      </trkpt>
      <trkpt lat="47.32262" lon="-1.46877">
        <ele>64</ele>
        <time>2022-07-09T09:18:06Z</time>
      </trkpt>
      <trkpt lat="47.3225" lon="-1.4689">
        <ele>64</ele>
        <time>2022-07-09T09:18:08Z</time>
      </trkpt>
      <trkpt lat="47.32238" lon="-1.46903">
        <ele>64</ele>
        <time>2022-07-09T09:18:10Z</time>
      </trkpt>
      <trkpt lat="47.32225" lon="-1.46914">
        <ele>64</ele>
        <time>2022-07-09T09:18:12Z</time>
      </trkpt>
      <trkpt lat="47.32213" lon="-1.46926">
        <ele>64</ele>
        <time>2022-07-09T09:18:14Z</time>
      </trkpt>
      <trkpt lat="47.322" lon="-1.46937">
        <ele>64</ele>
        <time>2022-07-09T09:18:16Z</time>
      </trkpt>
      <trkpt lat="47.32188" lon="-1.46948">
        <ele>63</ele>
        <time>2022-07-09T09:18:18Z</time>
      </trkpt>
      <trkpt lat="47.32175" lon="-1.46959">
        <ele>63</ele>
        <time>2022-07-09T09:18:20Z</time>
      </trkpt>
      <trkpt lat="47.32162" lon="-1.46968">
        <ele>63</ele>
        <time>2022-07-09T09:18:22Z</time>
      </trkpt>
      <trkpt lat="47.32149" lon="-1.46978">
        <ele>63</ele>
        <time>2022-07-09T09:18:24Z</time>
      </trkpt>
      <trkpt lat="47.32136" lon="-1.46987">
        <ele>63</ele>
        <time>2022-07-09T09:18:26Z</time>
      </trkpt>
      <trkpt lat="47.32122" lon="-1.46996">
        <ele>63</ele>
        <time>2022-07-09T09:18:28Z</time>
      </trkpt>
      <trkpt lat="47.32108" lon="-1.47005">
        <ele>63</ele>
        <time>2022-07-09T09:18:30Z</time>
      </trkpt>
      <trkpt lat="47.32095" lon="-1.47014">
        <ele>63</ele>
        <time>2022-07-09T09:18:32Z</time>
      </trkpt>
      <trkpt lat="47.32082" lon="-1.47023">
        <ele>63</ele>
        <time>2022-07-09T09:18:34Z</time>
      </trkpt>
      <trkpt lat="47.32069" lon="-1.47034">
        <ele>63</ele>
        <time>2022-07-09T09:18:36Z</time>
      </trkpt>
      <trkpt lat="47.32057" lon="-1.47045">
        <ele>62</ele>
        <time>2022-07-09T09:18:38Z</time>
      </trkpt>
      <trkpt lat="47.32045" lon="-1.47058">
        <ele>62</ele>
        <time>2022-07-09T09:18:40Z</time>
      </trkpt>
      <trkpt lat="47.32034" lon="-1.47073">
        <ele>62</ele>
        <time>2022-07-09T09:18:42Z</time>
      </trkpt>
      <trkpt lat="47.32024" lon="-1.47089">
        <ele>62</ele>
        <time>2022-07-09T09:18:44Z</time>
      </trkpt>
      <trkpt lat="47.32014" lon="-1.47107">
        <ele>62</ele>
        <time>2022-07-09T09:18:46Z</time>
      </trkpt>
      <trkpt lat="47.32005" lon="-1.47126">
        <ele>61</ele>
        <time>2022-07-09T09:18:48Z</time>
      </trkpt>
      <trkpt lat="47.31997" lon="-1.47146">
        <ele>61</ele>
        <time>2022-07-09T09:18:50Z</time>
      </trkpt>
      <trkpt lat="47.31989" lon="-1.47165">
        <ele>61</ele>
        <time>2022-07-09T09:18:52Z</time>
      </trkpt>
      <trkpt lat="47.3198" lon="-1.47184">
        <ele>60</ele>
        <time>2022-07-09T09:18:54Z</time>
      </trkpt>
      <trkpt lat="47.31972" lon="-1.47202">
        <ele>60</ele>
        <time>2022-07-09T09:18:56Z</time>
      </trkpt>
      <trkpt lat="47.31964" lon="-1.47221">
        <ele>60</ele>
        <time>2022-07-09T09:18:58Z</time>
      </trkpt>
      <trkpt lat="47.31956" lon="-1.4724">
        <ele>60</ele>
        <time>2022-07-09T09:19:00Z</time>
      </trkpt>
      <trkpt lat="47.31947" lon="-1.47259">
        <ele>60</ele>
        <time>2022-07-09T09:19:02Z</time>
      </trkpt>
      <trkpt lat="47.31939" lon="-1.47277">
        <ele>60</ele>
        <time>2022-07-09T09:19:04Z</time>
      </trkpt>
      <trkpt lat="47.31931" lon="-1.47296">
        <ele>60</ele>
        <time>2022-07-09T09:19:06Z</time>
      </trkpt>
      <trkpt lat="47.31922" lon="-1.47314">
        <ele>60</ele>
        <time>2022-07-09T09:19:08Z</time>
      </trkpt>
      <trkpt lat="47.31912" lon="-1.47331">
        <ele>60</ele>
        <time>2022-07-09T09:19:10Z</time>
      </trkpt>
      <trkpt lat="47.31901" lon="-1.47347">
        <ele>59</ele>
        <time>2022-07-09T09:19:12Z</time>
      </trkpt>
      <trkpt lat="47.3189" lon="-1.47363">
        <ele>59</ele>
        <time>2022-07-09T09:19:14Z</time>
      </trkpt>
      <trkpt lat="47.31879" lon="-1.47378">
        <ele>59</ele>
        <time>2022-07-09T09:19:16Z</time>
      </trkpt>
      <trkpt lat="47.31868" lon="-1.47394">
        <ele>59</ele>
        <time>2022-07-09T09:19:18Z</time>
      </trkpt>
      <trkpt lat="47.31857" lon="-1.47409">
        <ele>60</ele>
        <time>2022-07-09T09:19:20Z</time>
      </trkpt>
      <trkpt lat="47.31845" lon="-1.47424">
        <ele>60</ele>
        <time>2022-07-09T09:19:22Z</time>
      </trkpt>
      <trkpt lat="47.31834" lon="-1.4744">
        <ele>60</ele>
        <time>2022-07-09T09:19:24Z</time>
      </trkpt>
      <trkpt lat="47.31822" lon="-1.47455">
        <ele>60</ele>
        <time>2022-07-09T09:19:26Z</time>
      </trkpt>
      <trkpt lat="47.31811" lon="-1.47471">
        <ele>60</ele>
        <time>2022-07-09T09:19:28Z</time>
      </trkpt>
      <trkpt lat="47.31801" lon="-1.47486">
        <ele>59</ele>
        <time>2022-07-09T09:19:30Z</time>
      </trkpt>
      <trkpt lat="47.31789" lon="-1.475">
        <ele>59</ele>
        <time>2022-07-09T09:19:32Z</time>
      </trkpt>
      <trkpt lat="47.31778" lon="-1.47515">
        <ele>59</ele>
        <time>2022-07-09T09:19:34Z</time>
      </trkpt>
      <trkpt lat="47.31767" lon="-1.4753">
        <ele>59</ele>
        <time>2022-07-09T09:19:36Z</time>
      </trkpt>
      <trkpt lat="47.31756" lon="-1.47546">
        <ele>59</ele>
        <time>2022-07-09T09:19:38Z</time>
      </trkpt>
      <trkpt lat="47.31744" lon="-1.47561">
        <ele>59</ele>
        <time>2022-07-09T09:19:40Z</time>
      </trkpt>
      <trkpt lat="47.31733" lon="-1.47575">
        <ele>59</ele>
        <time>2022-07-09T09:19:42Z</time>
      </trkpt>
      <trkpt lat="47.31722" lon="-1.47591">
        <ele>59</ele>
        <time>2022-07-09T09:19:44Z</time>
      </trkpt>
      <trkpt lat="47.31711" lon="-1.47606">
        <ele>58</ele>
        <time>2022-07-09T09:19:46Z</time>
      </trkpt>
      <trkpt lat="47.317" lon="-1.4762">
        <ele>58</ele>
        <time>2022-07-09T09:19:48Z</time>
      </trkpt>
      <trkpt lat="47.31689" lon="-1.47636">
        <ele>58</ele>
        <time>2022-07-09T09:19:50Z</time>
      </trkpt>
      <trkpt lat="47.31679" lon="-1.47654">
        <ele>58</ele>
        <time>2022-07-09T09:19:52Z</time>
      </trkpt>
      <trkpt lat="47.31673" lon="-1.47674">
        <ele>58</ele>
        <time>2022-07-09T09:19:54Z</time>
      </trkpt>
      <trkpt lat="47.3167" lon="-1.47695">
        <ele>58</ele>
        <time>2022-07-09T09:19:56Z</time>
      </trkpt>
      <trkpt lat="47.31668" lon="-1.47716">
        <ele>58</ele>
        <time>2022-07-09T09:19:58Z</time>
      </trkpt>
      <trkpt lat="47.31668" lon="-1.47737">
        <ele>58</ele>
        <time>2022-07-09T09:20:00Z</time>
      </trkpt>
      <trkpt lat="47.31668" lon="-1.47758">
        <ele>58</ele>
        <time>2022-07-09T09:20:02Z</time>
      </trkpt>
      <trkpt lat="47.31668" lon="-1.47779">
        <ele>57</ele>
        <time>2022-07-09T09:20:04Z</time>
      </trkpt>
      <trkpt lat="47.31669" lon="-1.47798">
        <ele>57</ele>
        <time>2022-07-09T09:20:06Z</time>
      </trkpt>
      <trkpt lat="47.31672" lon="-1.47818">
        <ele>57</ele>
        <time>2022-07-09T09:20:08Z</time>
      </trkpt>
      <trkpt lat="47.31675" lon="-1.47839">
        <ele>57</ele>
        <time>2022-07-09T09:20:10Z</time>
      </trkpt>
      <trkpt lat="47.31666" lon="-1.47852">
        <ele>57</ele>
        <time>2022-07-09T09:20:12Z</time>
      </trkpt>
      <trkpt lat="47.31652" lon="-1.47851">
        <ele>57</ele>
        <time>2022-07-09T09:20:14Z</time>
      </trkpt>
      <trkpt lat="47.31639" lon="-1.47844">
        <ele>57</ele>
        <time>2022-07-09T09:20:16Z</time>
      </trkpt>
      <trkpt lat="47.31626" lon="-1.47843">
        <ele>57</ele>
        <time>2022-07-09T09:20:18Z</time>
      </trkpt>
      <trkpt lat="47.31613" lon="-1.47843">
        <ele>57</ele>
        <time>2022-07-09T09:20:20Z</time>
      </trkpt>
      <trkpt lat="47.316" lon="-1.47843">
        <ele>58</ele>
        <time>2022-07-09T09:20:22Z</time>
      </trkpt>
      <trkpt lat="47.31587" lon="-1.47844">
        <ele>58</ele>
        <time>2022-07-09T09:20:24Z</time>
      </trkpt>
      <trkpt lat="47.31575" lon="-1.47845">
        <ele>58</ele>
        <time>2022-07-09T09:20:26Z</time>
      </trkpt>
      <trkpt lat="47.31564" lon="-1.47848">
        <ele>58</ele>
        <time>2022-07-09T09:20:28Z</time>
      </trkpt>
      <trkpt lat="47.31553" lon="-1.47851">
        <ele>59</ele>
        <time>2022-07-09T09:20:30Z</time>
      </trkpt>
      <trkpt lat="47.31542" lon="-1.47854">
        <ele>59</ele>
        <time>2022-07-09T09:20:32Z</time>
      </trkpt>
      <trkpt lat="47.31531" lon="-1.47857">
        <ele>60</ele>
        <time>2022-07-09T09:20:34Z</time>
      </trkpt>
      <trkpt lat="47.31521" lon="-1.47861">
        <ele>60</ele>
        <time>2022-07-09T09:20:36Z</time>
      </trkpt>
      <trkpt lat="47.3151" lon="-1.47865">
        <ele>60</ele>
        <time>2022-07-09T09:20:38Z</time>
      </trkpt>
      <trkpt lat="47.31499" lon="-1.4787">
        <ele>60</ele>
        <time>2022-07-09T09:20:40Z</time>
      </trkpt>
      <trkpt lat="47.31489" lon="-1.47875">
        <ele>60</ele>
        <time>2022-07-09T09:20:42Z</time>
      </trkpt>
      <trkpt lat="47.31478" lon="-1.4788">
        <ele>60</ele>
        <time>2022-07-09T09:20:44Z</time>
      </trkpt>
      <trkpt lat="47.31466" lon="-1.47887">
        <ele>60</ele>
        <time>2022-07-09T09:20:46Z</time>
      </trkpt>
      <trkpt lat="47.31454" lon="-1.47893">
        <ele>60</ele>
        <time>2022-07-09T09:20:48Z</time>
      </trkpt>
      <trkpt lat="47.31442" lon="-1.479">
        <ele>61</ele>
        <time>2022-07-09T09:20:50Z</time>
      </trkpt>
      <trkpt lat="47.3143" lon="-1.47907">
        <ele>61</ele>
        <time>2022-07-09T09:20:52Z</time>
      </trkpt>
      <trkpt lat="47.31416" lon="-1.47915">
        <ele>61</ele>
        <time>2022-07-09T09:20:54Z</time>
      </trkpt>
      <trkpt lat="47.31403" lon="-1.47923">
        <ele>60</ele>
        <time>2022-07-09T09:20:56Z</time>
      </trkpt>
      <trkpt lat="47.3139" lon="-1.47931">
        <ele>60</ele>
        <time>2022-07-09T09:20:58Z</time>
      </trkpt>
      <trkpt lat="47.31378" lon="-1.47938">
        <ele>60</ele>
        <time>2022-07-09T09:21:00Z</time>
      </trkpt>
      <trkpt lat="47.31365" lon="-1.47945">
        <ele>60</ele>
        <time>2022-07-09T09:21:02Z</time>
      </trkpt>
      <trkpt lat="47.31353" lon="-1.47953">
        <ele>60</ele>
        <time>2022-07-09T09:21:04Z</time>
      </trkpt>
      <trkpt lat="47.3134" lon="-1.47961">
        <ele>59</ele>
        <time>2022-07-09T09:21:06Z</time>
      </trkpt>
      <trkpt lat="47.31328" lon="-1.47968">
        <ele>59</ele>
        <time>2022-07-09T09:21:08Z</time>
      </trkpt>
      <trkpt lat="47.31316" lon="-1.47975">
        <ele>60</ele>
        <time>2022-07-09T09:21:10Z</time>
      </trkpt>
      <trkpt lat="47.31304" lon="-1.47981">
        <ele>61</ele>
        <time>2022-07-09T09:21:12Z</time>
      </trkpt>
      <trkpt lat="47.31293" lon="-1.47987">
        <ele>61</ele>
        <time>2022-07-09T09:21:14Z</time>
      </trkpt>
      <trkpt lat="47.31283" lon="-1.47993">
        <ele>62</ele>
        <time>2022-07-09T09:21:16Z</time>
      </trkpt>
      <trkpt lat="47.31272" lon="-1.48">
        <ele>62</ele>
        <time>2022-07-09T09:21:18Z</time>
      </trkpt>
      <trkpt lat="47.31262" lon="-1.48005">
        <ele>62</ele>
        <time>2022-07-09T09:21:20Z</time>
      </trkpt>
      <trkpt lat="47.31252" lon="-1.48011">
        <ele>62</ele>
        <time>2022-07-09T09:21:22Z</time>
      </trkpt>
      <trkpt lat="47.31241" lon="-1.48017">
        <ele>62</ele>
        <time>2022-07-09T09:21:24Z</time>
      </trkpt>
      <trkpt lat="47.3123" lon="-1.48024">
        <ele>63</ele>
        <time>2022-07-09T09:21:26Z</time>
      </trkpt>
      <trkpt lat="47.31219" lon="-1.4803">
        <ele>63</ele>
        <time>2022-07-09T09:21:28Z</time>
      </trkpt>
      <trkpt lat="47.31208" lon="-1.48036">
        <ele>63</ele>
        <time>2022-07-09T09:21:30Z</time>
      </trkpt>
      <trkpt lat="47.31197" lon="-1.48043">
        <ele>63</ele>
        <time>2022-07-09T09:21:32Z</time>
      </trkpt>
      <trkpt lat="47.31184" lon="-1.4805">
        <ele>62</ele>
        <time>2022-07-09T09:21:34Z</time>
      </trkpt>
      <trkpt lat="47.31172" lon="-1.48057">
        <ele>62</ele>
        <time>2022-07-09T09:21:36Z</time>
      </trkpt>
      <trkpt lat="47.31159" lon="-1.48065">
        <ele>61</ele>
        <time>2022-07-09T09:21:38Z</time>
      </trkpt>
      <trkpt lat="47.31146" lon="-1.48072">
        <ele>61</ele>
        <time>2022-07-09T09:21:40Z</time>
      </trkpt>
      <trkpt lat="47.31133" lon="-1.48079">
        <ele>61</ele>
        <time>2022-07-09T09:21:42Z</time>
      </trkpt>
      <trkpt lat="47.3112" lon="-1.48086">
        <ele>60</ele>
        <time>2022-07-09T09:21:44Z</time>
      </trkpt>
      <trkpt lat="47.31107" lon="-1.48092">
        <ele>60</ele>
        <time>2022-07-09T09:21:46Z</time>
      </trkpt>
      <trkpt lat="47.31096" lon="-1.48098">
        <ele>60</ele>
        <time>2022-07-09T09:21:48Z</time>
      </trkpt>
      <trkpt lat="47.31083" lon="-1.48105">
        <ele>60</ele>
        <time>2022-07-09T09:21:50Z</time>
      </trkpt>
      <trkpt lat="47.31071" lon="-1.48111">
        <ele>60</ele>
        <time>2022-07-09T09:21:52Z</time>
      </trkpt>
      <trkpt lat="47.31059" lon="-1.48117">
        <ele>60</ele>
        <time>2022-07-09T09:21:54Z</time>
      </trkpt>
      <trkpt lat="47.31047" lon="-1.48122">
        <ele>60</ele>
        <time>2022-07-09T09:21:56Z</time>
      </trkpt>
      <trkpt lat="47.31035" lon="-1.48128">
        <ele>60</ele>
        <time>2022-07-09T09:21:58Z</time>
      </trkpt>
      <trkpt lat="47.31024" lon="-1.48132">
        <ele>60</ele>
        <time>2022-07-09T09:22:00Z</time>
      </trkpt>
      <trkpt lat="47.31012" lon="-1.48137">
        <ele>60</ele>
        <time>2022-07-09T09:22:02Z</time>
      </trkpt>
      <trkpt lat="47.31001" lon="-1.48141">
        <ele>60</ele>
        <time>2022-07-09T09:22:04Z</time>
      </trkpt>
      <trkpt lat="47.3099" lon="-1.48144">
        <ele>61</ele>
        <time>2022-07-09T09:22:06Z</time>
      </trkpt>
      <trkpt lat="47.30979" lon="-1.48146">
        <ele>61</ele>
        <time>2022-07-09T09:22:08Z</time>
      </trkpt>
      <trkpt lat="47.30969" lon="-1.48147">
        <ele>61</ele>
        <time>2022-07-09T09:22:10Z</time>
      </trkpt>
      <trkpt lat="47.30959" lon="-1.48147">
        <ele>61</ele>
        <time>2022-07-09T09:22:12Z</time>
      </trkpt>
      <trkpt lat="47.30949" lon="-1.48142">
        <ele>61</ele>
        <time>2022-07-09T09:22:14Z</time>
      </trkpt>
      <trkpt lat="47.30938" lon="-1.48134">
        <ele>61</ele>
        <time>2022-07-09T09:22:16Z</time>
      </trkpt>
      <trkpt lat="47.30927" lon="-1.48127">
        <ele>61</ele>
        <time>2022-07-09T09:22:18Z</time>
      </trkpt>
      <trkpt lat="47.30916" lon="-1.48121">
        <ele>61</ele>
        <time>2022-07-09T09:22:20Z</time>
      </trkpt>
      <trkpt lat="47.30905" lon="-1.48114">
        <ele>61</ele>
        <time>2022-07-09T09:22:22Z</time>
      </trkpt>
      <trkpt lat="47.30893" lon="-1.48108">
        <ele>61</ele>
        <time>2022-07-09T09:22:24Z</time>
      </trkpt>
      <trkpt lat="47.30883" lon="-1.48101">
        <ele>62</ele>
        <time>2022-07-09T09:22:26Z</time>
      </trkpt>
      <trkpt lat="47.30873" lon="-1.48093">
        <ele>62</ele>
        <time>2022-07-09T09:22:28Z</time>
      </trkpt>
      <trkpt lat="47.30863" lon="-1.48084">
        <ele>62</ele>
        <time>2022-07-09T09:22:30Z</time>
      </trkpt>
      <trkpt lat="47.30855" lon="-1.48074">
        <ele>62</ele>
        <time>2022-07-09T09:22:32Z</time>
      </trkpt>
      <trkpt lat="47.30846" lon="-1.48065">
        <ele>62</ele>
        <time>2022-07-09T09:22:34Z</time>
      </trkpt>
      <trkpt lat="47.30836" lon="-1.48057">
        <ele>63</ele>
        <time>2022-07-09T09:22:36Z</time>
      </trkpt>
      <trkpt lat="47.30825" lon="-1.48054">
        <ele>63</ele>
        <time>2022-07-09T09:22:38Z</time>
      </trkpt>
      <trkpt lat="47.30815" lon="-1.48063">
        <ele>64</ele>
        <time>2022-07-09T09:22:40Z</time>
      </trkpt>
      <trkpt lat="47.30809" lon="-1.48077">
        <ele>64</ele>
        <time>2022-07-09T09:22:42Z</time>
      </trkpt>
      <trkpt lat="47.30804" lon="-1.48092">
        <ele>64</ele>
        <time>2022-07-09T09:22:44Z</time>
      </trkpt>
      <trkpt lat="47.308" lon="-1.48106">
        <ele>64</ele>
        <time>2022-07-09T09:22:46Z</time>
      </trkpt>
      <trkpt lat="47.30796" lon="-1.4812">
        <ele>64</ele>
        <time>2022-07-09T09:22:48Z</time>
      </trkpt>
      <trkpt lat="47.30793" lon="-1.48135">
        <ele>65</ele>
        <time>2022-07-09T09:22:50Z</time>
      </trkpt>
      <trkpt lat="47.30789" lon="-1.48149">
        <ele>65</ele>
        <time>2022-07-09T09:22:52Z</time>
      </trkpt>
      <trkpt lat="47.30785" lon="-1.48164">
        <ele>66</ele>
        <time>2022-07-09T09:22:54Z</time>
      </trkpt>
      <trkpt lat="47.30782" lon="-1.48178">
        <ele>67</ele>
        <time>2022-07-09T09:22:56Z</time>
      </trkpt>
      <trkpt lat="47.30779" lon="-1.48192">
        <ele>67</ele>
        <time>2022-07-09T09:22:58Z</time>
      </trkpt>
      <trkpt lat="47.30775" lon="-1.48207">
        <ele>67</ele>
        <time>2022-07-09T09:23:00Z</time>
      </trkpt>
      <trkpt lat="47.30772" lon="-1.48223">
        <ele>67</ele>
        <time>2022-07-09T09:23:02Z</time>
      </trkpt>
      <trkpt lat="47.30771" lon="-1.48239">
        <ele>68</ele>
        <time>2022-07-09T09:23:04Z</time>
      </trkpt>
      <trkpt lat="47.30771" lon="-1.48255">
        <ele>68</ele>
        <time>2022-07-09T09:23:06Z</time>
      </trkpt>
      <trkpt lat="47.3077" lon="-1.4827">
        <ele>69</ele>
        <time>2022-07-09T09:23:08Z</time>
      </trkpt>
      <trkpt lat="47.30766" lon="-1.48285">
        <ele>69</ele>
        <time>2022-07-09T09:23:10Z</time>
      </trkpt>
      <trkpt lat="47.30757" lon="-1.48291">
        <ele>69</ele>
        <time>2022-07-09T09:23:12Z</time>
      </trkpt>
      <trkpt lat="47.30746" lon="-1.48287">
        <ele>70</ele>
        <time>2022-07-09T09:23:14Z</time>
      </trkpt>
      <trkpt lat="47.30737" lon="-1.48278">
        <ele>69</ele>
        <time>2022-07-09T09:23:16Z</time>
      </trkpt>
      <trkpt lat="47.30728" lon="-1.4827">
        <ele>69</ele>
        <time>2022-07-09T09:23:18Z</time>
      </trkpt>
      <trkpt lat="47.30717" lon="-1.48263">
        <ele>69</ele>
        <time>2022-07-09T09:23:20Z</time>
      </trkpt>
      <trkpt lat="47.30706" lon="-1.48258">
        <ele>69</ele>
        <time>2022-07-09T09:23:22Z</time>
      </trkpt>
      <trkpt lat="47.30694" lon="-1.48257">
        <ele>68</ele>
        <time>2022-07-09T09:23:24Z</time>
      </trkpt>
      <trkpt lat="47.30681" lon="-1.48258">
        <ele>68</ele>
        <time>2022-07-09T09:23:26Z</time>
      </trkpt>
      <trkpt lat="47.30669" lon="-1.48266">
        <ele>68</ele>
        <time>2022-07-09T09:23:28Z</time>
      </trkpt>
      <trkpt lat="47.30658" lon="-1.4828">
        <ele>68</ele>
        <time>2022-07-09T09:23:30Z</time>
      </trkpt>
      <trkpt lat="47.30648" lon="-1.48294">
        <ele>67</ele>
        <time>2022-07-09T09:23:32Z</time>
      </trkpt>
      <trkpt lat="47.30636" lon="-1.48305">
        <ele>67</ele>
        <time>2022-07-09T09:23:34Z</time>
      </trkpt>
      <trkpt lat="47.30623" lon="-1.48316">
        <ele>66</ele>
        <time>2022-07-09T09:23:36Z</time>
      </trkpt>
      <trkpt lat="47.3061" lon="-1.4833">
        <ele>65</ele>
        <time>2022-07-09T09:23:38Z</time>
      </trkpt>
      <trkpt lat="47.30596" lon="-1.48344">
        <ele>64</ele>
        <time>2022-07-09T09:23:40Z</time>
      </trkpt>
      <trkpt lat="47.30582" lon="-1.48359">
        <ele>64</ele>
        <time>2022-07-09T09:23:42Z</time>
      </trkpt>
      <trkpt lat="47.30566" lon="-1.48373">
        <ele>63</ele>
        <time>2022-07-09T09:23:44Z</time>
      </trkpt>
      <trkpt lat="47.30559" lon="-1.4838">
        <ele>62</ele>
        <time>2022-07-09T09:23:45Z</time>
      </trkpt>
      <trkpt lat="47.30551" lon="-1.48387">
        <ele>61</ele>
        <time>2022-07-09T09:23:46Z</time>
      </trkpt>
      <trkpt lat="47.30536" lon="-1.484">
        <ele>61</ele>
        <time>2022-07-09T09:23:48Z</time>
      </trkpt>
      <trkpt lat="47.30522" lon="-1.48413">
        <ele>61</ele>
        <time>2022-07-09T09:23:50Z</time>
      </trkpt>
      <trkpt lat="47.30509" lon="-1.48423">
        <ele>60</ele>
        <time>2022-07-09T09:23:52Z</time>
      </trkpt>
      <trkpt lat="47.30498" lon="-1.48434">
        <ele>60</ele>
        <time>2022-07-09T09:23:54Z</time>
      </trkpt>
      <trkpt lat="47.30486" lon="-1.48445">
        <ele>60</ele>
        <time>2022-07-09T09:23:56Z</time>
      </trkpt>
      <trkpt lat="47.30475" lon="-1.48456">
        <ele>61</ele>
        <time>2022-07-09T09:23:58Z</time>
      </trkpt>
      <trkpt lat="47.30464" lon="-1.48466">
        <ele>61</ele>
        <time>2022-07-09T09:24:00Z</time>
      </trkpt>
      <trkpt lat="47.30453" lon="-1.48475">
        <ele>61</ele>
        <time>2022-07-09T09:24:02Z</time>
      </trkpt>
      <trkpt lat="47.30444" lon="-1.48484">
        <ele>62</ele>
        <time>2022-07-09T09:24:04Z</time>
      </trkpt>
      <trkpt lat="47.30434" lon="-1.48493">
        <ele>62</ele>
        <time>2022-07-09T09:24:06Z</time>
      </trkpt>
      <trkpt lat="47.30424" lon="-1.48501">
        <ele>62</ele>
        <time>2022-07-09T09:24:08Z</time>
      </trkpt>
      <trkpt lat="47.30415" lon="-1.48508">
        <ele>62</ele>
        <time>2022-07-09T09:24:10Z</time>
      </trkpt>
      <trkpt lat="47.30406" lon="-1.48516">
        <ele>62</ele>
        <time>2022-07-09T09:24:12Z</time>
      </trkpt>
      <trkpt lat="47.30398" lon="-1.48526">
        <ele>63</ele>
        <time>2022-07-09T09:24:14Z</time>
      </trkpt>
      <trkpt lat="47.30389" lon="-1.48535">
        <ele>63</ele>
        <time>2022-07-09T09:24:16Z</time>
      </trkpt>
      <trkpt lat="47.30379" lon="-1.48543">
        <ele>63</ele>
        <time>2022-07-09T09:24:18Z</time>
      </trkpt>
      <trkpt lat="47.30369" lon="-1.48553">
        <ele>64</ele>
        <time>2022-07-09T09:24:20Z</time>
      </trkpt>
      <trkpt lat="47.30359" lon="-1.48562">
        <ele>64</ele>
        <time>2022-07-09T09:24:22Z</time>
      </trkpt>
      <trkpt lat="47.3035" lon="-1.48571">
        <ele>64</ele>
        <time>2022-07-09T09:24:24Z</time>
      </trkpt>
      <trkpt lat="47.3034" lon="-1.4858">
        <ele>64</ele>
        <time>2022-07-09T09:24:26Z</time>
      </trkpt>
      <trkpt lat="47.3033" lon="-1.48589">
        <ele>65</ele>
        <time>2022-07-09T09:24:28Z</time>
      </trkpt>
      <trkpt lat="47.30321" lon="-1.48598">
        <ele>65</ele>
        <time>2022-07-09T09:24:30Z</time>
      </trkpt>
      <trkpt lat="47.3031" lon="-1.48607">
        <ele>65</ele>
        <time>2022-07-09T09:24:32Z</time>
      </trkpt>
      <trkpt lat="47.30301" lon="-1.48616">
        <ele>65</ele>
        <time>2022-07-09T09:24:34Z</time>
      </trkpt>
      <trkpt lat="47.30291" lon="-1.48625">
        <ele>66</ele>
        <time>2022-07-09T09:24:36Z</time>
      </trkpt>
      <trkpt lat="47.30281" lon="-1.48632">
        <ele>66</ele>
        <time>2022-07-09T09:24:38Z</time>
      </trkpt>
      <trkpt lat="47.30271" lon="-1.48641">
        <ele>66</ele>
        <time>2022-07-09T09:24:40Z</time>
      </trkpt>
      <trkpt lat="47.30262" lon="-1.48651">
        <ele>66</ele>
        <time>2022-07-09T09:24:42Z</time>
      </trkpt>
      <trkpt lat="47.30252" lon="-1.48661">
        <ele>66</ele>
        <time>2022-07-09T09:24:44Z</time>
      </trkpt>
      <trkpt lat="47.30243" lon="-1.48672">
        <ele>65</ele>
        <time>2022-07-09T09:24:46Z</time>
      </trkpt>
      <trkpt lat="47.30233" lon="-1.48682">
        <ele>65</ele>
        <time>2022-07-09T09:24:48Z</time>
      </trkpt>
      <trkpt lat="47.30224" lon="-1.48693">
        <ele>64</ele>
        <time>2022-07-09T09:24:50Z</time>
      </trkpt>
      <trkpt lat="47.30215" lon="-1.48704">
        <ele>64</ele>
        <time>2022-07-09T09:24:52Z</time>
      </trkpt>
      <trkpt lat="47.30205" lon="-1.48714">
        <ele>65</ele>
        <time>2022-07-09T09:24:54Z</time>
      </trkpt>
      <trkpt lat="47.30195" lon="-1.48724">
        <ele>65</ele>
        <time>2022-07-09T09:24:56Z</time>
      </trkpt>
      <trkpt lat="47.30186" lon="-1.48734">
        <ele>66</ele>
        <time>2022-07-09T09:24:58Z</time>
      </trkpt>
      <trkpt lat="47.30176" lon="-1.48744">
        <ele>66</ele>
        <time>2022-07-09T09:25:00Z</time>
      </trkpt>
      <trkpt lat="47.30166" lon="-1.48754">
        <ele>67</ele>
        <time>2022-07-09T09:25:02Z</time>
      </trkpt>
      <trkpt lat="47.30156" lon="-1.48765">
        <ele>68</ele>
        <time>2022-07-09T09:25:04Z</time>
      </trkpt>
      <trkpt lat="47.30146" lon="-1.48773">
        <ele>69</ele>
        <time>2022-07-09T09:25:06Z</time>
      </trkpt>
      <trkpt lat="47.30137" lon="-1.48783">
        <ele>69</ele>
        <time>2022-07-09T09:25:08Z</time>
      </trkpt>
      <trkpt lat="47.30128" lon="-1.48793">
        <ele>69</ele>
        <time>2022-07-09T09:25:10Z</time>
      </trkpt>
      <trkpt lat="47.3012" lon="-1.48804">
        <ele>68</ele>
        <time>2022-07-09T09:25:12Z</time>
      </trkpt>
      <trkpt lat="47.3011" lon="-1.48813">
        <ele>69</ele>
        <time>2022-07-09T09:25:14Z</time>
      </trkpt>
      <trkpt lat="47.30102" lon="-1.48822">
        <ele>69</ele>
        <time>2022-07-09T09:25:16Z</time>
      </trkpt>
      <trkpt lat="47.30093" lon="-1.48831">
        <ele>69</ele>
        <time>2022-07-09T09:25:18Z</time>
      </trkpt>
      <trkpt lat="47.30084" lon="-1.48841">
        <ele>69</ele>
        <time>2022-07-09T09:25:20Z</time>
      </trkpt>
      <trkpt lat="47.30075" lon="-1.48851">
        <ele>69</ele>
        <time>2022-07-09T09:25:22Z</time>
      </trkpt>
      <trkpt lat="47.30066" lon="-1.48861">
        <ele>69</ele>
        <time>2022-07-09T09:25:24Z</time>
      </trkpt>
      <trkpt lat="47.30057" lon="-1.4887">
        <ele>68</ele>
        <time>2022-07-09T09:25:26Z</time>
      </trkpt>
      <trkpt lat="47.3005" lon="-1.48879">
        <ele>68</ele>
        <time>2022-07-09T09:25:28Z</time>
      </trkpt>
      <trkpt lat="47.30045" lon="-1.48889">
        <ele>69</ele>
        <time>2022-07-09T09:25:30Z</time>
      </trkpt>
      <trkpt lat="47.30038" lon="-1.48898">
        <ele>69</ele>
        <time>2022-07-09T09:25:32Z</time>
      </trkpt>
      <trkpt lat="47.30028" lon="-1.48905">
        <ele>70</ele>
        <time>2022-07-09T09:25:34Z</time>
      </trkpt>
      <trkpt lat="47.30019" lon="-1.48914">
        <ele>70</ele>
        <time>2022-07-09T09:25:36Z</time>
      </trkpt>
      <trkpt lat="47.3001" lon="-1.48924">
        <ele>71</ele>
        <time>2022-07-09T09:25:38Z</time>
      </trkpt>
      <trkpt lat="47.30001" lon="-1.48931">
        <ele>72</ele>
        <time>2022-07-09T09:25:40Z</time>
      </trkpt>
      <trkpt lat="47.29992" lon="-1.48937">
        <ele>72</ele>
        <time>2022-07-09T09:25:46Z</time>
      </trkpt>
      <trkpt lat="47.29981" lon="-1.48931">
        <ele>72</ele>
        <time>2022-07-09T09:25:49Z</time>
      </trkpt>
      <trkpt lat="47.29974" lon="-1.48922">
        <ele>72</ele>
        <time>2022-07-09T09:25:51Z</time>
      </trkpt>
      <trkpt lat="47.29966" lon="-1.48912">
        <ele>73</ele>
        <time>2022-07-09T09:25:53Z</time>
      </trkpt>
      <trkpt lat="47.29958" lon="-1.48902">
        <ele>74</ele>
        <time>2022-07-09T09:25:55Z</time>
      </trkpt>
      <trkpt lat="47.29949" lon="-1.48893">
        <ele>74</ele>
        <time>2022-07-09T09:25:57Z</time>
      </trkpt>
      <trkpt lat="47.29938" lon="-1.48885">
        <ele>74</ele>
        <time>2022-07-09T09:25:59Z</time>
      </trkpt>
      <trkpt lat="47.29928" lon="-1.48877">
        <ele>75</ele>
        <time>2022-07-09T09:26:01Z</time>
      </trkpt>
      <trkpt lat="47.29918" lon="-1.4887">
        <ele>75</ele>
        <time>2022-07-09T09:26:03Z</time>
      </trkpt>
      <trkpt lat="47.29908" lon="-1.48864">
        <ele>76</ele>
        <time>2022-07-09T09:26:05Z</time>
      </trkpt>
      <trkpt lat="47.29899" lon="-1.48858">
        <ele>77</ele>
        <time>2022-07-09T09:26:07Z</time>
      </trkpt>
      <trkpt lat="47.2989" lon="-1.48852">
        <ele>77</ele>
        <time>2022-07-09T09:26:09Z</time>
      </trkpt>
      <trkpt lat="47.2988" lon="-1.48845">
        <ele>77</ele>
        <time>2022-07-09T09:26:11Z</time>
      </trkpt>
      <trkpt lat="47.29871" lon="-1.48838">
        <ele>77</ele>
        <time>2022-07-09T09:26:13Z</time>
      </trkpt>
      <trkpt lat="47.29862" lon="-1.48829">
        <ele>77</ele>
        <time>2022-07-09T09:26:15Z</time>
      </trkpt>
      <trkpt lat="47.29852" lon="-1.4882">
        <ele>78</ele>
        <time>2022-07-09T09:26:17Z</time>
      </trkpt>
      <trkpt lat="47.29841" lon="-1.48812">
        <ele>78</ele>
        <time>2022-07-09T09:26:19Z</time>
      </trkpt>
      <trkpt lat="47.29831" lon="-1.48804">
        <ele>78</ele>
        <time>2022-07-09T09:26:21Z</time>
      </trkpt>
      <trkpt lat="47.2982" lon="-1.48796">
        <ele>77</ele>
        <time>2022-07-09T09:26:23Z</time>
      </trkpt>
      <trkpt lat="47.29809" lon="-1.48788">
        <ele>77</ele>
        <time>2022-07-09T09:26:25Z</time>
      </trkpt>
      <trkpt lat="47.29798" lon="-1.48779">
        <ele>77</ele>
        <time>2022-07-09T09:26:27Z</time>
      </trkpt>
      <trkpt lat="47.29787" lon="-1.48771">
        <ele>77</ele>
        <time>2022-07-09T09:26:29Z</time>
      </trkpt>
      <trkpt lat="47.29777" lon="-1.48764">
        <ele>77</ele>
        <time>2022-07-09T09:26:31Z</time>
      </trkpt>
      <trkpt lat="47.29767" lon="-1.48756">
        <ele>76</ele>
        <time>2022-07-09T09:26:33Z</time>
      </trkpt>
      <trkpt lat="47.29757" lon="-1.48748">
        <ele>76</ele>
        <time>2022-07-09T09:26:35Z</time>
      </trkpt>
      <trkpt lat="47.29747" lon="-1.4874">
        <ele>77</ele>
        <time>2022-07-09T09:26:37Z</time>
      </trkpt>
      <trkpt lat="47.29737" lon="-1.48733">
        <ele>77</ele>
        <time>2022-07-09T09:26:39Z</time>
      </trkpt>
      <trkpt lat="47.29727" lon="-1.48724">
        <ele>76</ele>
        <time>2022-07-09T09:26:41Z</time>
      </trkpt>
      <trkpt lat="47.29717" lon="-1.48718">
        <ele>76</ele>
        <time>2022-07-09T09:26:43Z</time>
      </trkpt>
      <trkpt lat="47.29708" lon="-1.48709">
        <ele>76</ele>
        <time>2022-07-09T09:26:45Z</time>
      </trkpt>
      <trkpt lat="47.29702" lon="-1.48694">
        <ele>76</ele>
        <time>2022-07-09T09:26:47Z</time>
      </trkpt>
      <trkpt lat="47.29696" lon="-1.48679">
        <ele>76</ele>
        <time>2022-07-09T09:26:49Z</time>
      </trkpt>
      <trkpt lat="47.29689" lon="-1.48666">
        <ele>76</ele>
        <time>2022-07-09T09:26:51Z</time>
      </trkpt>
      <trkpt lat="47.29679" lon="-1.48655">
        <ele>76</ele>
        <time>2022-07-09T09:26:53Z</time>
      </trkpt>
      <trkpt lat="47.29669" lon="-1.48648">
        <ele>76</ele>
        <time>2022-07-09T09:26:55Z</time>
      </trkpt>
      <trkpt lat="47.29659" lon="-1.48647">
        <ele>76</ele>
        <time>2022-07-09T09:26:57Z</time>
      </trkpt>
      <trkpt lat="47.29647" lon="-1.48651">
        <ele>76</ele>
        <time>2022-07-09T09:26:59Z</time>
      </trkpt>
      <trkpt lat="47.29637" lon="-1.48653">
        <ele>76</ele>
        <time>2022-07-09T09:27:01Z</time>
      </trkpt>
      <trkpt lat="47.29626" lon="-1.48655">
        <ele>76</ele>
        <time>2022-07-09T09:27:03Z</time>
      </trkpt>
      <trkpt lat="47.29614" lon="-1.48658">
        <ele>76</ele>
        <time>2022-07-09T09:27:05Z</time>
      </trkpt>
      <trkpt lat="47.29603" lon="-1.48662">
        <ele>77</ele>
        <time>2022-07-09T09:27:07Z</time>
      </trkpt>
      <trkpt lat="47.29591" lon="-1.48667">
        <ele>77</ele>
        <time>2022-07-09T09:27:09Z</time>
      </trkpt>
      <trkpt lat="47.2958" lon="-1.48672">
        <ele>77</ele>
        <time>2022-07-09T09:27:11Z</time>
      </trkpt>
      <trkpt lat="47.29569" lon="-1.48677">
        <ele>78</ele>
        <time>2022-07-09T09:27:13Z</time>
      </trkpt>
      <trkpt lat="47.29558" lon="-1.48682">
        <ele>78</ele>
        <time>2022-07-09T09:27:15Z</time>
      </trkpt>
      <trkpt lat="47.29547" lon="-1.48686">
        <ele>78</ele>
        <time>2022-07-09T09:27:17Z</time>
      </trkpt>
      <trkpt lat="47.29531" lon="-1.48693">
        <ele>78</ele>
        <time>2022-07-09T09:27:20Z</time>
      </trkpt>
      <trkpt lat="47.2952" lon="-1.48698">
        <ele>79</ele>
        <time>2022-07-09T09:27:22Z</time>
      </trkpt>
      <trkpt lat="47.29505" lon="-1.48708">
        <ele>80</ele>
        <time>2022-07-09T09:27:25Z</time>
      </trkpt>
      <trkpt lat="47.29491" lon="-1.4872">
        <ele>80</ele>
        <time>2022-07-09T09:27:28Z</time>
      </trkpt>
      <trkpt lat="47.29482" lon="-1.48729">
        <ele>79</ele>
        <time>2022-07-09T09:27:30Z</time>
      </trkpt>
      <trkpt lat="47.29472" lon="-1.48737">
        <ele>79</ele>
        <time>2022-07-09T09:27:32Z</time>
      </trkpt>
      <trkpt lat="47.29457" lon="-1.4875">
        <ele>78</ele>
        <time>2022-07-09T09:27:35Z</time>
      </trkpt>
      <trkpt lat="47.29447" lon="-1.48759">
        <ele>79</ele>
        <time>2022-07-09T09:27:37Z</time>
      </trkpt>
      <trkpt lat="47.29437" lon="-1.48768">
        <ele>78</ele>
        <time>2022-07-09T09:27:39Z</time>
      </trkpt>
      <trkpt lat="47.29426" lon="-1.48774">
        <ele>77</ele>
        <time>2022-07-09T09:27:41Z</time>
      </trkpt>
      <trkpt lat="47.29415" lon="-1.4878">
        <ele>77</ele>
        <time>2022-07-09T09:27:43Z</time>
      </trkpt>
      <trkpt lat="47.29403" lon="-1.48785">
        <ele>77</ele>
        <time>2022-07-09T09:27:45Z</time>
      </trkpt>
      <trkpt lat="47.29392" lon="-1.48785">
        <ele>76</ele>
        <time>2022-07-09T09:27:47Z</time>
      </trkpt>
      <trkpt lat="47.29379" lon="-1.4879">
        <ele>76</ele>
        <time>2022-07-09T09:27:49Z</time>
      </trkpt>
      <trkpt lat="47.29366" lon="-1.48788">
        <ele>75</ele>
        <time>2022-07-09T09:27:51Z</time>
      </trkpt>
      <trkpt lat="47.29353" lon="-1.48783">
        <ele>76</ele>
        <time>2022-07-09T09:27:53Z</time>
      </trkpt>
      <trkpt lat="47.29336" lon="-1.4877">
        <ele>76</ele>
        <time>2022-07-09T09:27:56Z</time>
      </trkpt>
      <trkpt lat="47.29324" lon="-1.48761">
        <ele>76</ele>
        <time>2022-07-09T09:27:58Z</time>
      </trkpt>
      <trkpt lat="47.29313" lon="-1.48753">
        <ele>77</ele>
        <time>2022-07-09T09:28:00Z</time>
      </trkpt>
      <trkpt lat="47.29302" lon="-1.48744">
        <ele>77</ele>
        <time>2022-07-09T09:28:02Z</time>
      </trkpt>
      <trkpt lat="47.29292" lon="-1.48735">
        <ele>77</ele>
        <time>2022-07-09T09:28:04Z</time>
      </trkpt>
      <trkpt lat="47.29282" lon="-1.48727">
        <ele>78</ele>
        <time>2022-07-09T09:28:06Z</time>
      </trkpt>
      <trkpt lat="47.29275" lon="-1.48714">
        <ele>78</ele>
        <time>2022-07-09T09:28:08Z</time>
      </trkpt>
      <trkpt lat="47.29275" lon="-1.48699">
        <ele>78</ele>
        <time>2022-07-09T09:28:10Z</time>
      </trkpt>
      <trkpt lat="47.29267" lon="-1.48685">
        <ele>79</ele>
        <time>2022-07-09T09:28:14Z</time>
      </trkpt>
      <trkpt lat="47.29258" lon="-1.48683">
        <ele>78</ele>
        <time>2022-07-09T09:28:16Z</time>
      </trkpt>
      <trkpt lat="47.29247" lon="-1.48685">
        <ele>78</ele>
        <time>2022-07-09T09:28:18Z</time>
      </trkpt>
      <trkpt lat="47.29234" lon="-1.48687">
        <ele>78</ele>
        <time>2022-07-09T09:28:20Z</time>
      </trkpt>
      <trkpt lat="47.29221" lon="-1.48678">
        <ele>77</ele>
        <time>2022-07-09T09:28:22Z</time>
      </trkpt>
      <trkpt lat="47.2921" lon="-1.48669">
        <ele>77</ele>
        <time>2022-07-09T09:28:24Z</time>
      </trkpt>
      <trkpt lat="47.29199" lon="-1.48659">
        <ele>76</ele>
        <time>2022-07-09T09:28:26Z</time>
      </trkpt>
      <trkpt lat="47.29188" lon="-1.4865">
        <ele>76</ele>
        <time>2022-07-09T09:28:28Z</time>
      </trkpt>
      <trkpt lat="47.29177" lon="-1.48641">
        <ele>76</ele>
        <time>2022-07-09T09:28:30Z</time>
      </trkpt>
      <trkpt lat="47.29165" lon="-1.48633">
        <ele>75</ele>
        <time>2022-07-09T09:28:32Z</time>
      </trkpt>
      <trkpt lat="47.29154" lon="-1.48624">
        <ele>75</ele>
        <time>2022-07-09T09:28:34Z</time>
      </trkpt>
      <trkpt lat="47.29143" lon="-1.48616">
        <ele>75</ele>
        <time>2022-07-09T09:28:36Z</time>
      </trkpt>
      <trkpt lat="47.29132" lon="-1.48608">
        <ele>75</ele>
        <time>2022-07-09T09:28:38Z</time>
      </trkpt>
      <trkpt lat="47.2912" lon="-1.486">
        <ele>75</ele>
        <time>2022-07-09T09:28:40Z</time>
      </trkpt>
      <trkpt lat="47.29109" lon="-1.48592">
        <ele>76</ele>
        <time>2022-07-09T09:28:42Z</time>
      </trkpt>
      <trkpt lat="47.29098" lon="-1.48583">
        <ele>76</ele>
        <time>2022-07-09T09:28:44Z</time>
      </trkpt>
      <trkpt lat="47.29086" lon="-1.48574">
        <ele>76</ele>
        <time>2022-07-09T09:28:46Z</time>
      </trkpt>
      <trkpt lat="47.29075" lon="-1.48565">
        <ele>76</ele>
        <time>2022-07-09T09:28:48Z</time>
      </trkpt>
      <trkpt lat="47.29066" lon="-1.48554">
        <ele>76</ele>
        <time>2022-07-09T09:28:50Z</time>
      </trkpt>
      <trkpt lat="47.29055" lon="-1.4855">
        <ele>76</ele>
        <time>2022-07-09T09:28:52Z</time>
      </trkpt>
      <trkpt lat="47.29045" lon="-1.48544">
        <ele>76</ele>
        <time>2022-07-09T09:28:54Z</time>
      </trkpt>
      <trkpt lat="47.29034" lon="-1.48537">
        <ele>77</ele>
        <time>2022-07-09T09:28:56Z</time>
      </trkpt>
      <trkpt lat="47.29023" lon="-1.48529">
        <ele>77</ele>
        <time>2022-07-09T09:28:58Z</time>
      </trkpt>
      <trkpt lat="47.29012" lon="-1.48522">
        <ele>77</ele>
        <time>2022-07-09T09:29:00Z</time>
      </trkpt>
      <trkpt lat="47.29002" lon="-1.48515">
        <ele>77</ele>
        <time>2022-07-09T09:29:02Z</time>
      </trkpt>
      <trkpt lat="47.28992" lon="-1.48507">
        <ele>77</ele>
        <time>2022-07-09T09:29:04Z</time>
      </trkpt>
      <trkpt lat="47.28981" lon="-1.48499">
        <ele>77</ele>
        <time>2022-07-09T09:29:06Z</time>
      </trkpt>
      <trkpt lat="47.28971" lon="-1.48491">
        <ele>78</ele>
        <time>2022-07-09T09:29:08Z</time>
      </trkpt>
      <trkpt lat="47.28961" lon="-1.48484">
        <ele>78</ele>
        <time>2022-07-09T09:29:10Z</time>
      </trkpt>
      <trkpt lat="47.28952" lon="-1.48476">
        <ele>78</ele>
        <time>2022-07-09T09:29:12Z</time>
      </trkpt>
      <trkpt lat="47.28944" lon="-1.48469">
        <ele>79</ele>
        <time>2022-07-09T09:29:14Z</time>
      </trkpt>
      <trkpt lat="47.28933" lon="-1.48465">
        <ele>79</ele>
        <time>2022-07-09T09:29:16Z</time>
      </trkpt>
      <trkpt lat="47.28923" lon="-1.48459">
        <ele>79</ele>
        <time>2022-07-09T09:29:18Z</time>
      </trkpt>
      <trkpt lat="47.28913" lon="-1.48451">
        <ele>79</ele>
        <time>2022-07-09T09:29:20Z</time>
      </trkpt>
      <trkpt lat="47.28902" lon="-1.48445">
        <ele>80</ele>
        <time>2022-07-09T09:29:22Z</time>
      </trkpt>
      <trkpt lat="47.28891" lon="-1.48437">
        <ele>80</ele>
        <time>2022-07-09T09:29:24Z</time>
      </trkpt>
      <trkpt lat="47.28881" lon="-1.48431">
        <ele>80</ele>
        <time>2022-07-09T09:29:26Z</time>
      </trkpt>
      <trkpt lat="47.2887" lon="-1.48427">
        <ele>80</ele>
        <time>2022-07-09T09:29:28Z</time>
      </trkpt>
      <trkpt lat="47.28859" lon="-1.48421">
        <ele>80</ele>
        <time>2022-07-09T09:29:30Z</time>
      </trkpt>
      <trkpt lat="47.28848" lon="-1.48416">
        <ele>80</ele>
        <time>2022-07-09T09:29:32Z</time>
      </trkpt>
      <trkpt lat="47.28838" lon="-1.48411">
        <ele>80</ele>
        <time>2022-07-09T09:29:34Z</time>
      </trkpt>
      <trkpt lat="47.28827" lon="-1.48407">
        <ele>81</ele>
        <time>2022-07-09T09:29:36Z</time>
      </trkpt>
      <trkpt lat="47.28817" lon="-1.48403">
        <ele>81</ele>
        <time>2022-07-09T09:29:38Z</time>
      </trkpt>
      <trkpt lat="47.28809" lon="-1.48395">
        <ele>81</ele>
        <time>2022-07-09T09:29:40Z</time>
      </trkpt>
      <trkpt lat="47.28802" lon="-1.48385">
        <ele>80</ele>
        <time>2022-07-09T09:29:42Z</time>
      </trkpt>
      <trkpt lat="47.28794" lon="-1.4838">
        <ele>80</ele>
        <time>2022-07-09T09:29:44Z</time>
      </trkpt>
      <trkpt lat="47.28783" lon="-1.48378">
        <ele>79</ele>
        <time>2022-07-09T09:29:46Z</time>
      </trkpt>
      <trkpt lat="47.28773" lon="-1.48382">
        <ele>80</ele>
        <time>2022-07-09T09:29:48Z</time>
      </trkpt>
      <trkpt lat="47.28766" lon="-1.48394">
        <ele>79</ele>
        <time>2022-07-09T09:29:50Z</time>
      </trkpt>
      <trkpt lat="47.28759" lon="-1.48405">
        <ele>79</ele>
        <time>2022-07-09T09:29:52Z</time>
      </trkpt>
      <trkpt lat="47.28752" lon="-1.48415">
        <ele>80</ele>
        <time>2022-07-09T09:29:54Z</time>
      </trkpt>
      <trkpt lat="47.28743" lon="-1.48421">
        <ele>80</ele>
        <time>2022-07-09T09:29:56Z</time>
      </trkpt>
      <trkpt lat="47.28732" lon="-1.48426">
        <ele>81</ele>
        <time>2022-07-09T09:29:58Z</time>
      </trkpt>
      <trkpt lat="47.28719" lon="-1.4843">
        <ele>82</ele>
        <time>2022-07-09T09:30:00Z</time>
      </trkpt>
      <trkpt lat="47.28705" lon="-1.48433">
        <ele>81</ele>
        <time>2022-07-09T09:30:02Z</time>
      </trkpt>
      <trkpt lat="47.28693" lon="-1.48436">
        <ele>81</ele>
        <time>2022-07-09T09:30:04Z</time>
      </trkpt>
      <trkpt lat="47.2868" lon="-1.48441">
        <ele>80</ele>
        <time>2022-07-09T09:30:06Z</time>
      </trkpt>
      <trkpt lat="47.28667" lon="-1.48446">
        <ele>80</ele>
        <time>2022-07-09T09:30:08Z</time>
      </trkpt>
      <trkpt lat="47.28654" lon="-1.48452">
        <ele>80</ele>
        <time>2022-07-09T09:30:10Z</time>
      </trkpt>
      <trkpt lat="47.28642" lon="-1.48458">
        <ele>80</ele>
        <time>2022-07-09T09:30:12Z</time>
      </trkpt>
      <trkpt lat="47.2863" lon="-1.48465">
        <ele>80</ele>
        <time>2022-07-09T09:30:14Z</time>
      </trkpt>
      <trkpt lat="47.28617" lon="-1.48473">
        <ele>79</ele>
        <time>2022-07-09T09:30:16Z</time>
      </trkpt>
      <trkpt lat="47.28605" lon="-1.48483">
        <ele>79</ele>
        <time>2022-07-09T09:30:18Z</time>
      </trkpt>
      <trkpt lat="47.28594" lon="-1.48493">
        <ele>79</ele>
        <time>2022-07-09T09:30:20Z</time>
      </trkpt>
      <trkpt lat="47.28582" lon="-1.48503">
        <ele>78</ele>
        <time>2022-07-09T09:30:22Z</time>
      </trkpt>
      <trkpt lat="47.2857" lon="-1.48512">
        <ele>78</ele>
        <time>2022-07-09T09:30:24Z</time>
      </trkpt>
      <trkpt lat="47.28558" lon="-1.48522">
        <ele>78</ele>
        <time>2022-07-09T09:30:26Z</time>
      </trkpt>
      <trkpt lat="47.28546" lon="-1.4853">
        <ele>78</ele>
        <time>2022-07-09T09:30:28Z</time>
      </trkpt>
      <trkpt lat="47.28534" lon="-1.4854">
        <ele>77</ele>
        <time>2022-07-09T09:30:30Z</time>
      </trkpt>
      <trkpt lat="47.28521" lon="-1.4855">
        <ele>77</ele>
        <time>2022-07-09T09:30:32Z</time>
      </trkpt>
      <trkpt lat="47.28509" lon="-1.48561">
        <ele>77</ele>
        <time>2022-07-09T09:30:34Z</time>
      </trkpt>
      <trkpt lat="47.28497" lon="-1.48573">
        <ele>76</ele>
        <time>2022-07-09T09:30:36Z</time>
      </trkpt>
      <trkpt lat="47.28485" lon="-1.48583">
        <ele>76</ele>
        <time>2022-07-09T09:30:38Z</time>
      </trkpt>
      <trkpt lat="47.28473" lon="-1.48594">
        <ele>75</ele>
        <time>2022-07-09T09:30:40Z</time>
      </trkpt>
      <trkpt lat="47.28461" lon="-1.48604">
        <ele>75</ele>
        <time>2022-07-09T09:30:42Z</time>
      </trkpt>
      <trkpt lat="47.28448" lon="-1.48614">
        <ele>74</ele>
        <time>2022-07-09T09:30:44Z</time>
      </trkpt>
      <trkpt lat="47.28435" lon="-1.48624">
        <ele>73</ele>
        <time>2022-07-09T09:30:46Z</time>
      </trkpt>
      <trkpt lat="47.28422" lon="-1.48634">
        <ele>73</ele>
        <time>2022-07-09T09:30:48Z</time>
      </trkpt>
      <trkpt lat="47.28409" lon="-1.48643">
        <ele>72</ele>
        <time>2022-07-09T09:30:50Z</time>
      </trkpt>
      <trkpt lat="47.28395" lon="-1.48648">
        <ele>72</ele>
        <time>2022-07-09T09:30:52Z</time>
      </trkpt>
      <trkpt lat="47.2838" lon="-1.48649">
        <ele>72</ele>
        <time>2022-07-09T09:30:54Z</time>
      </trkpt>
      <trkpt lat="47.28367" lon="-1.48638">
        <ele>72</ele>
        <time>2022-07-09T09:30:56Z</time>
      </trkpt>
      <trkpt lat="47.28355" lon="-1.48626">
        <ele>72</ele>
        <time>2022-07-09T09:30:58Z</time>
      </trkpt>
      <trkpt lat="47.28342" lon="-1.48617">
        <ele>71</ele>
        <time>2022-07-09T09:31:00Z</time>
      </trkpt>
      <trkpt lat="47.28329" lon="-1.48615">
        <ele>71</ele>
        <time>2022-07-09T09:31:02Z</time>
      </trkpt>
      <trkpt lat="47.28315" lon="-1.4861">
        <ele>70</ele>
        <time>2022-07-09T09:31:04Z</time>
      </trkpt>
      <trkpt lat="47.28303" lon="-1.48599">
        <ele>70</ele>
        <time>2022-07-09T09:31:06Z</time>
      </trkpt>
      <trkpt lat="47.28295" lon="-1.48582">
        <ele>70</ele>
        <time>2022-07-09T09:31:08Z</time>
      </trkpt>
      <trkpt lat="47.28288" lon="-1.48566">
        <ele>71</ele>
        <time>2022-07-09T09:31:10Z</time>
      </trkpt>
      <trkpt lat="47.28279" lon="-1.48557">
        <ele>73</ele>
        <time>2022-07-09T09:31:12Z</time>
      </trkpt>
      <trkpt lat="47.28268" lon="-1.48546">
        <ele>74</ele>
        <time>2022-07-09T09:31:14Z</time>
      </trkpt>
      <trkpt lat="47.28258" lon="-1.48536">
        <ele>74</ele>
        <time>2022-07-09T09:31:16Z</time>
      </trkpt>
      <trkpt lat="47.28247" lon="-1.48527">
        <ele>73</ele>
        <time>2022-07-09T09:31:18Z</time>
      </trkpt>
      <trkpt lat="47.28238" lon="-1.48516">
        <ele>73</ele>
        <time>2022-07-09T09:31:20Z</time>
      </trkpt>
      <trkpt lat="47.28231" lon="-1.48504">
        <ele>72</ele>
        <time>2022-07-09T09:31:22Z</time>
      </trkpt>
      <trkpt lat="47.28221" lon="-1.485">
        <ele>71</ele>
        <time>2022-07-09T09:31:24Z</time>
      </trkpt>
      <trkpt lat="47.28211" lon="-1.485">
        <ele>71</ele>
        <time>2022-07-09T09:31:26Z</time>
      </trkpt>
      <trkpt lat="47.28206" lon="-1.48517">
        <ele>70</ele>
        <time>2022-07-09T09:31:29Z</time>
      </trkpt>
      <trkpt lat="47.28201" lon="-1.48532">
        <ele>70</ele>
        <time>2022-07-09T09:31:32Z</time>
      </trkpt>
      <trkpt lat="47.28197" lon="-1.48552">
        <ele>70</ele>
        <time>2022-07-09T09:31:35Z</time>
      </trkpt>
      <trkpt lat="47.28191" lon="-1.48563">
        <ele>69</ele>
        <time>2022-07-09T09:31:37Z</time>
      </trkpt>
      <trkpt lat="47.28181" lon="-1.48565">
        <ele>69</ele>
        <time>2022-07-09T09:31:39Z</time>
      </trkpt>
      <trkpt lat="47.28168" lon="-1.48562">
        <ele>69</ele>
        <time>2022-07-09T09:31:41Z</time>
      </trkpt>
      <trkpt lat="47.28158" lon="-1.48558">
        <ele>69</ele>
        <time>2022-07-09T09:31:43Z</time>
      </trkpt>
      <trkpt lat="47.28146" lon="-1.48554">
        <ele>70</ele>
        <time>2022-07-09T09:31:45Z</time>
      </trkpt>
      <trkpt lat="47.28133" lon="-1.48552">
        <ele>71</ele>
        <time>2022-07-09T09:31:47Z</time>
      </trkpt>
      <trkpt lat="47.28121" lon="-1.48552">
        <ele>71</ele>
        <time>2022-07-09T09:31:49Z</time>
      </trkpt>
      <trkpt lat="47.28109" lon="-1.48553">
        <ele>72</ele>
        <time>2022-07-09T09:31:51Z</time>
      </trkpt>
      <trkpt lat="47.28096" lon="-1.48553">
        <ele>72</ele>
        <time>2022-07-09T09:31:53Z</time>
      </trkpt>
      <trkpt lat="47.28084" lon="-1.48554">
        <ele>73</ele>
        <time>2022-07-09T09:31:55Z</time>
      </trkpt>
      <trkpt lat="47.28072" lon="-1.48555">
        <ele>73</ele>
        <time>2022-07-09T09:31:57Z</time>
      </trkpt>
      <trkpt lat="47.28061" lon="-1.48555">
        <ele>73</ele>
        <time>2022-07-09T09:31:59Z</time>
      </trkpt>
      <trkpt lat="47.28049" lon="-1.48554">
        <ele>73</ele>
        <time>2022-07-09T09:32:01Z</time>
      </trkpt>
      <trkpt lat="47.28038" lon="-1.48551">
        <ele>72</ele>
        <time>2022-07-09T09:32:03Z</time>
      </trkpt>
      <trkpt lat="47.28027" lon="-1.48549">
        <ele>72</ele>
        <time>2022-07-09T09:32:05Z</time>
      </trkpt>
      <trkpt lat="47.28017" lon="-1.48546">
        <ele>72</ele>
        <time>2022-07-09T09:32:07Z</time>
      </trkpt>
      <trkpt lat="47.28006" lon="-1.48544">
        <ele>73</ele>
        <time>2022-07-09T09:32:09Z</time>
      </trkpt>
      <trkpt lat="47.27997" lon="-1.48546">
        <ele>73</ele>
        <time>2022-07-09T09:32:11Z</time>
      </trkpt>
      <trkpt lat="47.27988" lon="-1.48547">
        <ele>73</ele>
        <time>2022-07-09T09:32:13Z</time>
      </trkpt>
      <trkpt lat="47.27979" lon="-1.4854">
        <ele>73</ele>
        <time>2022-07-09T09:32:15Z</time>
      </trkpt>
      <trkpt lat="47.27972" lon="-1.48529">
        <ele>73</ele>
        <time>2022-07-09T09:32:17Z</time>
      </trkpt>
      <trkpt lat="47.27962" lon="-1.48524">
        <ele>73</ele>
        <time>2022-07-09T09:32:19Z</time>
      </trkpt>
      <trkpt lat="47.27952" lon="-1.4852">
        <ele>73</ele>
        <time>2022-07-09T09:32:21Z</time>
      </trkpt>
      <trkpt lat="47.27942" lon="-1.48516">
        <ele>74</ele>
        <time>2022-07-09T09:32:23Z</time>
      </trkpt>
      <trkpt lat="47.27931" lon="-1.48511">
        <ele>74</ele>
        <time>2022-07-09T09:32:25Z</time>
      </trkpt>
      <trkpt lat="47.2792" lon="-1.48507">
        <ele>74</ele>
        <time>2022-07-09T09:32:27Z</time>
      </trkpt>
      <trkpt lat="47.2791" lon="-1.48502">
        <ele>75</ele>
        <time>2022-07-09T09:32:29Z</time>
      </trkpt>
      <trkpt lat="47.279" lon="-1.48498">
        <ele>75</ele>
        <time>2022-07-09T09:32:31Z</time>
      </trkpt>
      <trkpt lat="47.27891" lon="-1.48493">
        <ele>75</ele>
        <time>2022-07-09T09:32:33Z</time>
      </trkpt>
      <trkpt lat="47.2788" lon="-1.48488">
        <ele>76</ele>
        <time>2022-07-09T09:32:35Z</time>
      </trkpt>
      <trkpt lat="47.2787" lon="-1.48484">
        <ele>76</ele>
        <time>2022-07-09T09:32:37Z</time>
      </trkpt>
      <trkpt lat="47.2786" lon="-1.4848">
        <ele>76</ele>
        <time>2022-07-09T09:32:39Z</time>
      </trkpt>
      <trkpt lat="47.2785" lon="-1.48475">
        <ele>77</ele>
        <time>2022-07-09T09:32:41Z</time>
      </trkpt>
      <trkpt lat="47.27839" lon="-1.4847">
        <ele>77</ele>
        <time>2022-07-09T09:32:43Z</time>
      </trkpt>
      <trkpt lat="47.27829" lon="-1.48465">
        <ele>77</ele>
        <time>2022-07-09T09:32:45Z</time>
      </trkpt>
      <trkpt lat="47.27818" lon="-1.48459">
        <ele>78</ele>
        <time>2022-07-09T09:32:47Z</time>
      </trkpt>
      <trkpt lat="47.27809" lon="-1.48452">
        <ele>78</ele>
        <time>2022-07-09T09:32:49Z</time>
      </trkpt>
      <trkpt lat="47.27799" lon="-1.48445">
        <ele>78</ele>
        <time>2022-07-09T09:32:51Z</time>
      </trkpt>
      <trkpt lat="47.2779" lon="-1.48437">
        <ele>79</ele>
        <time>2022-07-09T09:32:53Z</time>
      </trkpt>
      <trkpt lat="47.27781" lon="-1.48429">
        <ele>79</ele>
        <time>2022-07-09T09:32:55Z</time>
      </trkpt>
      <trkpt lat="47.27773" lon="-1.48422">
        <ele>80</ele>
        <time>2022-07-09T09:32:57Z</time>
      </trkpt>
      <trkpt lat="47.27765" lon="-1.48415">
        <ele>80</ele>
        <time>2022-07-09T09:32:59Z</time>
      </trkpt>
      <trkpt lat="47.27758" lon="-1.48407">
        <ele>80</ele>
        <time>2022-07-09T09:33:01Z</time>
      </trkpt>
      <trkpt lat="47.2775" lon="-1.48401">
        <ele>81</ele>
        <time>2022-07-09T09:33:03Z</time>
      </trkpt>
      <trkpt lat="47.27742" lon="-1.48393">
        <ele>82</ele>
        <time>2022-07-09T09:33:05Z</time>
      </trkpt>
      <trkpt lat="47.27734" lon="-1.48385">
        <ele>82</ele>
        <time>2022-07-09T09:33:07Z</time>
      </trkpt>
      <trkpt lat="47.27726" lon="-1.48377">
        <ele>83</ele>
        <time>2022-07-09T09:33:09Z</time>
      </trkpt>
      <trkpt lat="47.27718" lon="-1.4837">
        <ele>83</ele>
        <time>2022-07-09T09:33:11Z</time>
      </trkpt>
      <trkpt lat="47.27709" lon="-1.48365">
        <ele>83</ele>
        <time>2022-07-09T09:33:13Z</time>
      </trkpt>
      <trkpt lat="47.27697" lon="-1.48359">
        <ele>83</ele>
        <time>2022-07-09T09:33:16Z</time>
      </trkpt>
      <trkpt lat="47.27684" lon="-1.48355">
        <ele>83</ele>
        <time>2022-07-09T09:33:19Z</time>
      </trkpt>
      <trkpt lat="47.27672" lon="-1.48352">
        <ele>83</ele>
        <time>2022-07-09T09:33:22Z</time>
      </trkpt>
      <trkpt lat="47.2766" lon="-1.48352">
        <ele>83</ele>
        <time>2022-07-09T09:33:25Z</time>
      </trkpt>
      <trkpt lat="47.2765" lon="-1.48353">
        <ele>84</ele>
        <time>2022-07-09T09:33:27Z</time>
      </trkpt>
      <trkpt lat="47.2764" lon="-1.48354">
        <ele>84</ele>
        <time>2022-07-09T09:33:29Z</time>
      </trkpt>
      <trkpt lat="47.2763" lon="-1.48355">
        <ele>84</ele>
        <time>2022-07-09T09:33:31Z</time>
      </trkpt>
      <trkpt lat="47.2762" lon="-1.48357">
        <ele>84</ele>
        <time>2022-07-09T09:33:33Z</time>
      </trkpt>
      <trkpt lat="47.27611" lon="-1.48359">
        <ele>85</ele>
        <time>2022-07-09T09:33:35Z</time>
      </trkpt>
      <trkpt lat="47.27601" lon="-1.48361">
        <ele>85</ele>
        <time>2022-07-09T09:33:37Z</time>
      </trkpt>
      <trkpt lat="47.27588" lon="-1.48365">
        <ele>85</ele>
        <time>2022-07-09T09:33:40Z</time>
      </trkpt>
      <trkpt lat="47.27578" lon="-1.48366">
        <ele>85</ele>
        <time>2022-07-09T09:33:42Z</time>
      </trkpt>
      <trkpt lat="47.27569" lon="-1.48367">
        <ele>85</ele>
        <time>2022-07-09T09:33:44Z</time>
      </trkpt>
      <trkpt lat="47.27559" lon="-1.48367">
        <ele>86</ele>
        <time>2022-07-09T09:33:46Z</time>
      </trkpt>
      <trkpt lat="47.27549" lon="-1.48368">
        <ele>85</ele>
        <time>2022-07-09T09:33:48Z</time>
      </trkpt>
      <trkpt lat="47.27538" lon="-1.48367">
        <ele>85</ele>
        <time>2022-07-09T09:33:50Z</time>
      </trkpt>
      <trkpt lat="47.27527" lon="-1.48365">
        <ele>85</ele>
        <time>2022-07-09T09:33:52Z</time>
      </trkpt>
      <trkpt lat="47.27516" lon="-1.48363">
        <ele>85</ele>
        <time>2022-07-09T09:33:54Z</time>
      </trkpt>
      <trkpt lat="47.27505" lon="-1.48361">
        <ele>84</ele>
        <time>2022-07-09T09:33:56Z</time>
      </trkpt>
      <trkpt lat="47.27496" lon="-1.48357">
        <ele>85</ele>
        <time>2022-07-09T09:33:58Z</time>
      </trkpt>
      <trkpt lat="47.27486" lon="-1.48356">
        <ele>85</ele>
        <time>2022-07-09T09:34:00Z</time>
      </trkpt>
      <trkpt lat="47.27475" lon="-1.48355">
        <ele>85</ele>
        <time>2022-07-09T09:34:02Z</time>
      </trkpt>
      <trkpt lat="47.27464" lon="-1.48354">
        <ele>85</ele>
        <time>2022-07-09T09:34:04Z</time>
      </trkpt>
      <trkpt lat="47.27449" lon="-1.48354">
        <ele>85</ele>
        <time>2022-07-09T09:34:06Z</time>
      </trkpt>
      <trkpt lat="47.27437" lon="-1.48352">
        <ele>86</ele>
        <time>2022-07-09T09:34:08Z</time>
      </trkpt>
      <trkpt lat="47.27426" lon="-1.48349">
        <ele>86</ele>
        <time>2022-07-09T09:34:10Z</time>
      </trkpt>
      <trkpt lat="47.27414" lon="-1.48348">
        <ele>86</ele>
        <time>2022-07-09T09:34:12Z</time>
      </trkpt>
      <trkpt lat="47.274" lon="-1.48346">
        <ele>86</ele>
        <time>2022-07-09T09:34:14Z</time>
      </trkpt>
      <trkpt lat="47.27388" lon="-1.48344">
        <ele>86</ele>
        <time>2022-07-09T09:34:16Z</time>
      </trkpt>
      <trkpt lat="47.27376" lon="-1.48343">
        <ele>85</ele>
        <time>2022-07-09T09:34:18Z</time>
      </trkpt>
      <trkpt lat="47.27364" lon="-1.48344">
        <ele>84</ele>
        <time>2022-07-09T09:34:20Z</time>
      </trkpt>
      <trkpt lat="47.2735" lon="-1.48345">
        <ele>83</ele>
        <time>2022-07-09T09:34:22Z</time>
      </trkpt>
      <trkpt lat="47.27336" lon="-1.48352">
        <ele>83</ele>
        <time>2022-07-09T09:34:24Z</time>
      </trkpt>
      <trkpt lat="47.27323" lon="-1.4836">
        <ele>82</ele>
        <time>2022-07-09T09:34:26Z</time>
      </trkpt>
      <trkpt lat="47.27309" lon="-1.48367">
        <ele>82</ele>
        <time>2022-07-09T09:34:28Z</time>
      </trkpt>
      <trkpt lat="47.27296" lon="-1.48376">
        <ele>81</ele>
        <time>2022-07-09T09:34:30Z</time>
      </trkpt>
      <trkpt lat="47.27284" lon="-1.48385">
        <ele>81</ele>
        <time>2022-07-09T09:34:32Z</time>
      </trkpt>
      <trkpt lat="47.27272" lon="-1.48398">
        <ele>82</ele>
        <time>2022-07-09T09:34:34Z</time>
      </trkpt>
      <trkpt lat="47.27261" lon="-1.48409">
        <ele>82</ele>
        <time>2022-07-09T09:34:36Z</time>
      </trkpt>
      <trkpt lat="47.27248" lon="-1.48416">
        <ele>82</ele>
        <time>2022-07-09T09:34:38Z</time>
      </trkpt>
      <trkpt lat="47.27236" lon="-1.48418">
        <ele>81</ele>
        <time>2022-07-09T09:34:40Z</time>
      </trkpt>
      <trkpt lat="47.27225" lon="-1.48426">
        <ele>79</ele>
        <time>2022-07-09T09:34:42Z</time>
      </trkpt>
      <trkpt lat="47.27214" lon="-1.48435">
        <ele>79</ele>
        <time>2022-07-09T09:34:44Z</time>
      </trkpt>
      <trkpt lat="47.27203" lon="-1.48444">
        <ele>79</ele>
        <time>2022-07-09T09:34:46Z</time>
      </trkpt>
      <trkpt lat="47.27191" lon="-1.48454">
        <ele>80</ele>
        <time>2022-07-09T09:34:48Z</time>
      </trkpt>
      <trkpt lat="47.27178" lon="-1.48464">
        <ele>79</ele>
        <time>2022-07-09T09:34:50Z</time>
      </trkpt>
      <trkpt lat="47.27166" lon="-1.48474">
        <ele>79</ele>
        <time>2022-07-09T09:34:52Z</time>
      </trkpt>
      <trkpt lat="47.27154" lon="-1.48484">
        <ele>79</ele>
        <time>2022-07-09T09:34:54Z</time>
      </trkpt>
      <trkpt lat="47.27143" lon="-1.48492">
        <ele>79</ele>
        <time>2022-07-09T09:34:56Z</time>
      </trkpt>
      <trkpt lat="47.27131" lon="-1.48502">
        <ele>79</ele>
        <time>2022-07-09T09:34:58Z</time>
      </trkpt>
      <trkpt lat="47.27119" lon="-1.48512">
        <ele>80</ele>
        <time>2022-07-09T09:35:00Z</time>
      </trkpt>
      <trkpt lat="47.27108" lon="-1.48521">
        <ele>80</ele>
        <time>2022-07-09T09:35:02Z</time>
      </trkpt>
      <trkpt lat="47.27096" lon="-1.48531">
        <ele>80</ele>
        <time>2022-07-09T09:35:04Z</time>
      </trkpt>
      <trkpt lat="47.27086" lon="-1.48539">
        <ele>80</ele>
        <time>2022-07-09T09:35:06Z</time>
      </trkpt>
      <trkpt lat="47.27076" lon="-1.48549">
        <ele>81</ele>
        <time>2022-07-09T09:35:09Z</time>
      </trkpt>
      <trkpt lat="47.27067" lon="-1.48558">
        <ele>80</ele>
        <time>2022-07-09T09:35:11Z</time>
      </trkpt>
      <trkpt lat="47.27055" lon="-1.48561">
        <ele>80</ele>
        <time>2022-07-09T09:35:13Z</time>
      </trkpt>
      <trkpt lat="47.27042" lon="-1.48567">
        <ele>80</ele>
        <time>2022-07-09T09:35:15Z</time>
      </trkpt>
      <trkpt lat="47.27031" lon="-1.48577">
        <ele>79</ele>
        <time>2022-07-09T09:35:17Z</time>
      </trkpt>
      <trkpt lat="47.27019" lon="-1.48587">
        <ele>79</ele>
        <time>2022-07-09T09:35:19Z</time>
      </trkpt>
      <trkpt lat="47.27006" lon="-1.48596">
        <ele>79</ele>
        <time>2022-07-09T09:35:21Z</time>
      </trkpt>
      <trkpt lat="47.26994" lon="-1.48605">
        <ele>79</ele>
        <time>2022-07-09T09:35:23Z</time>
      </trkpt>
      <trkpt lat="47.26982" lon="-1.48614">
        <ele>79</ele>
        <time>2022-07-09T09:35:25Z</time>
      </trkpt>
      <trkpt lat="47.2697" lon="-1.48622">
        <ele>80</ele>
        <time>2022-07-09T09:35:27Z</time>
      </trkpt>
      <trkpt lat="47.26957" lon="-1.48631">
        <ele>81</ele>
        <time>2022-07-09T09:35:29Z</time>
      </trkpt>
      <trkpt lat="47.26945" lon="-1.4864">
        <ele>81</ele>
        <time>2022-07-09T09:35:31Z</time>
      </trkpt>
      <trkpt lat="47.26934" lon="-1.48649">
        <ele>82</ele>
        <time>2022-07-09T09:35:33Z</time>
      </trkpt>
      <trkpt lat="47.26922" lon="-1.48657">
        <ele>82</ele>
        <time>2022-07-09T09:35:35Z</time>
      </trkpt>
      <trkpt lat="47.26911" lon="-1.48666">
        <ele>82</ele>
        <time>2022-07-09T09:35:37Z</time>
      </trkpt>
      <trkpt lat="47.269" lon="-1.48676">
        <ele>82</ele>
        <time>2022-07-09T09:35:39Z</time>
      </trkpt>
      <trkpt lat="47.2689" lon="-1.48686">
        <ele>82</ele>
        <time>2022-07-09T09:35:41Z</time>
      </trkpt>
      <trkpt lat="47.2688" lon="-1.48697">
        <ele>82</ele>
        <time>2022-07-09T09:35:43Z</time>
      </trkpt>
      <trkpt lat="47.26869" lon="-1.48709">
        <ele>82</ele>
        <time>2022-07-09T09:35:45Z</time>
      </trkpt>
      <trkpt lat="47.2686" lon="-1.48721">
        <ele>82</ele>
        <time>2022-07-09T09:35:47Z</time>
      </trkpt>
      <trkpt lat="47.2685" lon="-1.48734">
        <ele>82</ele>
        <time>2022-07-09T09:35:49Z</time>
      </trkpt>
      <trkpt lat="47.2684" lon="-1.48747">
        <ele>82</ele>
        <time>2022-07-09T09:35:51Z</time>
      </trkpt>
      <trkpt lat="47.2683" lon="-1.4876">
        <ele>82</ele>
        <time>2022-07-09T09:35:53Z</time>
      </trkpt>
      <trkpt lat="47.26821" lon="-1.48773">
        <ele>81</ele>
        <time>2022-07-09T09:35:55Z</time>
      </trkpt>
      <trkpt lat="47.26811" lon="-1.48786">
        <ele>81</ele>
        <time>2022-07-09T09:35:57Z</time>
      </trkpt>
      <trkpt lat="47.26801" lon="-1.48799">
        <ele>80</ele>
        <time>2022-07-09T09:35:59Z</time>
      </trkpt>
      <trkpt lat="47.26792" lon="-1.48813">
        <ele>80</ele>
        <time>2022-07-09T09:36:01Z</time>
      </trkpt>
      <trkpt lat="47.26782" lon="-1.48826">
        <ele>80</ele>
        <time>2022-07-09T09:36:03Z</time>
      </trkpt>
      <trkpt lat="47.26772" lon="-1.4884">
        <ele>80</ele>
        <time>2022-07-09T09:36:05Z</time>
      </trkpt>
      <trkpt lat="47.26762" lon="-1.48853">
        <ele>80</ele>
        <time>2022-07-09T09:36:07Z</time>
      </trkpt>
      <trkpt lat="47.26753" lon="-1.48866">
        <ele>80</ele>
        <time>2022-07-09T09:36:09Z</time>
      </trkpt>
      <trkpt lat="47.26743" lon="-1.48878">
        <ele>80</ele>
        <time>2022-07-09T09:36:11Z</time>
      </trkpt>
      <trkpt lat="47.26734" lon="-1.48888">
        <ele>80</ele>
        <time>2022-07-09T09:36:13Z</time>
      </trkpt>
      <trkpt lat="47.26723" lon="-1.48898">
        <ele>80</ele>
        <time>2022-07-09T09:36:15Z</time>
      </trkpt>
      <trkpt lat="47.26712" lon="-1.48901">
        <ele>80</ele>
        <time>2022-07-09T09:36:17Z</time>
      </trkpt>
      <trkpt lat="47.26704" lon="-1.48889">
        <ele>80</ele>
        <time>2022-07-09T09:36:19Z</time>
      </trkpt>
      <trkpt lat="47.26701" lon="-1.48873">
        <ele>80</ele>
        <time>2022-07-09T09:36:21Z</time>
      </trkpt>
      <trkpt lat="47.26697" lon="-1.48858">
        <ele>81</ele>
        <time>2022-07-09T09:36:23Z</time>
      </trkpt>
      <trkpt lat="47.2669" lon="-1.48843">
        <ele>81</ele>
        <time>2022-07-09T09:36:25Z</time>
      </trkpt>
      <trkpt lat="47.26681" lon="-1.48832">
        <ele>81</ele>
        <time>2022-07-09T09:36:27Z</time>
      </trkpt>
      <trkpt lat="47.26672" lon="-1.48823">
        <ele>82</ele>
        <time>2022-07-09T09:36:29Z</time>
      </trkpt>
      <trkpt lat="47.26663" lon="-1.48813">
        <ele>82</ele>
        <time>2022-07-09T09:36:31Z</time>
      </trkpt>
      <trkpt lat="47.26654" lon="-1.48804">
        <ele>83</ele>
        <time>2022-07-09T09:36:33Z</time>
      </trkpt>
      <trkpt lat="47.26646" lon="-1.48795">
        <ele>83</ele>
        <time>2022-07-09T09:36:35Z</time>
      </trkpt>
      <trkpt lat="47.26637" lon="-1.48789">
        <ele>83</ele>
        <time>2022-07-09T09:36:37Z</time>
      </trkpt>
      <trkpt lat="47.26624" lon="-1.48789">
        <ele>83</ele>
        <time>2022-07-09T09:36:40Z</time>
      </trkpt>
      <trkpt lat="47.26614" lon="-1.48788">
        <ele>82</ele>
        <time>2022-07-09T09:36:43Z</time>
      </trkpt>
      <trkpt lat="47.26604" lon="-1.48793">
        <ele>82</ele>
        <time>2022-07-09T09:36:46Z</time>
      </trkpt>
      <trkpt lat="47.26597" lon="-1.48782">
        <ele>82</ele>
        <time>2022-07-09T09:36:50Z</time>
      </trkpt>
      <trkpt lat="47.26589" lon="-1.48773">
        <ele>83</ele>
        <time>2022-07-09T09:36:56Z</time>
      </trkpt>
      <trkpt lat="47.26582" lon="-1.48764">
        <ele>82</ele>
        <time>2022-07-09T09:36:59Z</time>
      </trkpt>
      <trkpt lat="47.26576" lon="-1.48754">
        <ele>82</ele>
        <time>2022-07-09T09:37:02Z</time>
      </trkpt>
      <trkpt lat="47.26572" lon="-1.4874">
        <ele>82</ele>
        <time>2022-07-09T09:37:04Z</time>
      </trkpt>
      <trkpt lat="47.26563" lon="-1.4873">
        <ele>82</ele>
        <time>2022-07-09T09:37:06Z</time>
      </trkpt>
      <trkpt lat="47.26553" lon="-1.48725">
        <ele>81</ele>
        <time>2022-07-09T09:37:08Z</time>
      </trkpt>
      <trkpt lat="47.26542" lon="-1.4872">
        <ele>81</ele>
        <time>2022-07-09T09:37:10Z</time>
      </trkpt>
      <trkpt lat="47.26531" lon="-1.48715">
        <ele>81</ele>
        <time>2022-07-09T09:37:12Z</time>
      </trkpt>
      <trkpt lat="47.2652" lon="-1.4871">
        <ele>80</ele>
        <time>2022-07-09T09:37:14Z</time>
      </trkpt>
      <trkpt lat="47.26507" lon="-1.48706">
        <ele>80</ele>
        <time>2022-07-09T09:37:16Z</time>
      </trkpt>
      <trkpt lat="47.26495" lon="-1.48702">
        <ele>79</ele>
        <time>2022-07-09T09:37:18Z</time>
      </trkpt>
      <trkpt lat="47.26482" lon="-1.48699">
        <ele>80</ele>
        <time>2022-07-09T09:37:20Z</time>
      </trkpt>
      <trkpt lat="47.2647" lon="-1.48696">
        <ele>80</ele>
        <time>2022-07-09T09:37:22Z</time>
      </trkpt>
      <trkpt lat="47.26457" lon="-1.48694">
        <ele>79</ele>
        <time>2022-07-09T09:37:24Z</time>
      </trkpt>
      <trkpt lat="47.26444" lon="-1.48692">
        <ele>79</ele>
        <time>2022-07-09T09:37:26Z</time>
      </trkpt>
      <trkpt lat="47.26431" lon="-1.4869">
        <ele>78</ele>
        <time>2022-07-09T09:37:28Z</time>
      </trkpt>
      <trkpt lat="47.26417" lon="-1.48688">
        <ele>78</ele>
        <time>2022-07-09T09:37:30Z</time>
      </trkpt>
      <trkpt lat="47.26403" lon="-1.48686">
        <ele>78</ele>
        <time>2022-07-09T09:37:32Z</time>
      </trkpt>
      <trkpt lat="47.26389" lon="-1.48684">
        <ele>77</ele>
        <time>2022-07-09T09:37:34Z</time>
      </trkpt>
      <trkpt lat="47.26375" lon="-1.48682">
        <ele>77</ele>
        <time>2022-07-09T09:37:36Z</time>
      </trkpt>
      <trkpt lat="47.2636" lon="-1.4868">
        <ele>77</ele>
        <time>2022-07-09T09:37:38Z</time>
      </trkpt>
      <trkpt lat="47.26347" lon="-1.48678">
        <ele>77</ele>
        <time>2022-07-09T09:37:40Z</time>
      </trkpt>
      <trkpt lat="47.26333" lon="-1.48676">
        <ele>77</ele>
        <time>2022-07-09T09:37:42Z</time>
      </trkpt>
      <trkpt lat="47.26319" lon="-1.48676">
        <ele>77</ele>
        <time>2022-07-09T09:37:44Z</time>
      </trkpt>
      <trkpt lat="47.26306" lon="-1.48676">
        <ele>76</ele>
        <time>2022-07-09T09:37:46Z</time>
      </trkpt>
      <trkpt lat="47.26293" lon="-1.48676">
        <ele>76</ele>
        <time>2022-07-09T09:37:48Z</time>
      </trkpt>
      <trkpt lat="47.2628" lon="-1.48677">
        <ele>76</ele>
        <time>2022-07-09T09:37:50Z</time>
      </trkpt>
      <trkpt lat="47.26267" lon="-1.48679">
        <ele>76</ele>
        <time>2022-07-09T09:37:52Z</time>
      </trkpt>
      <trkpt lat="47.26253" lon="-1.48681">
        <ele>76</ele>
        <time>2022-07-09T09:37:54Z</time>
      </trkpt>
      <trkpt lat="47.2624" lon="-1.48685">
        <ele>75</ele>
        <time>2022-07-09T09:37:56Z</time>
      </trkpt>
      <trkpt lat="47.26227" lon="-1.48689">
        <ele>75</ele>
        <time>2022-07-09T09:37:58Z</time>
      </trkpt>
      <trkpt lat="47.26214" lon="-1.48694">
        <ele>75</ele>
        <time>2022-07-09T09:38:00Z</time>
      </trkpt>
      <trkpt lat="47.26201" lon="-1.48699">
        <ele>75</ele>
        <time>2022-07-09T09:38:02Z</time>
      </trkpt>
      <trkpt lat="47.26188" lon="-1.48705">
        <ele>75</ele>
        <time>2022-07-09T09:38:04Z</time>
      </trkpt>
      <trkpt lat="47.26175" lon="-1.48712">
        <ele>74</ele>
        <time>2022-07-09T09:38:06Z</time>
      </trkpt>
      <trkpt lat="47.26161" lon="-1.48718">
        <ele>74</ele>
        <time>2022-07-09T09:38:08Z</time>
      </trkpt>
      <trkpt lat="47.26147" lon="-1.48722">
        <ele>74</ele>
        <time>2022-07-09T09:38:10Z</time>
      </trkpt>
      <trkpt lat="47.26134" lon="-1.48728">
        <ele>73</ele>
        <time>2022-07-09T09:38:12Z</time>
      </trkpt>
      <trkpt lat="47.26121" lon="-1.48735">
        <ele>73</ele>
        <time>2022-07-09T09:38:14Z</time>
      </trkpt>
      <trkpt lat="47.26107" lon="-1.48739">
        <ele>73</ele>
        <time>2022-07-09T09:38:16Z</time>
      </trkpt>
      <trkpt lat="47.26094" lon="-1.48743">
        <ele>73</ele>
        <time>2022-07-09T09:38:18Z</time>
      </trkpt>
      <trkpt lat="47.2608" lon="-1.48746">
        <ele>72</ele>
        <time>2022-07-09T09:38:20Z</time>
      </trkpt>
      <trkpt lat="47.26067" lon="-1.48749">
        <ele>72</ele>
        <time>2022-07-09T09:38:22Z</time>
      </trkpt>
      <trkpt lat="47.26054" lon="-1.48753">
        <ele>72</ele>
        <time>2022-07-09T09:38:24Z</time>
      </trkpt>
      <trkpt lat="47.2604" lon="-1.48756">
        <ele>72</ele>
        <time>2022-07-09T09:38:26Z</time>
      </trkpt>
      <trkpt lat="47.26027" lon="-1.48759">
        <ele>72</ele>
        <time>2022-07-09T09:38:28Z</time>
      </trkpt>
      <trkpt lat="47.26015" lon="-1.48762">
        <ele>72</ele>
        <time>2022-07-09T09:38:30Z</time>
      </trkpt>
      <trkpt lat="47.26002" lon="-1.48761">
        <ele>72</ele>
        <time>2022-07-09T09:38:32Z</time>
      </trkpt>
      <trkpt lat="47.25989" lon="-1.4876">
        <ele>72</ele>
        <time>2022-07-09T09:38:34Z</time>
      </trkpt>
      <trkpt lat="47.25976" lon="-1.4876">
        <ele>72</ele>
        <time>2022-07-09T09:38:36Z</time>
      </trkpt>
      <trkpt lat="47.25963" lon="-1.4876">
        <ele>72</ele>
        <time>2022-07-09T09:38:38Z</time>
      </trkpt>
      <trkpt lat="47.2595" lon="-1.48758">
        <ele>72</ele>
        <time>2022-07-09T09:38:40Z</time>
      </trkpt>
      <trkpt lat="47.25938" lon="-1.48758">
        <ele>72</ele>
        <time>2022-07-09T09:38:42Z</time>
      </trkpt>
      <trkpt lat="47.25925" lon="-1.48757">
        <ele>72</ele>
        <time>2022-07-09T09:38:44Z</time>
      </trkpt>
      <trkpt lat="47.25913" lon="-1.48756">
        <ele>72</ele>
        <time>2022-07-09T09:38:46Z</time>
      </trkpt>
      <trkpt lat="47.259" lon="-1.48756">
        <ele>72</ele>
        <time>2022-07-09T09:38:48Z</time>
      </trkpt>
      <trkpt lat="47.25888" lon="-1.48755">
        <ele>73</ele>
        <time>2022-07-09T09:38:50Z</time>
      </trkpt>
      <trkpt lat="47.25875" lon="-1.48755">
        <ele>73</ele>
        <time>2022-07-09T09:38:52Z</time>
      </trkpt>
      <trkpt lat="47.25863" lon="-1.48754">
        <ele>74</ele>
        <time>2022-07-09T09:38:54Z</time>
      </trkpt>
      <trkpt lat="47.25851" lon="-1.48753">
        <ele>74</ele>
        <time>2022-07-09T09:38:56Z</time>
      </trkpt>
      <trkpt lat="47.25839" lon="-1.48753">
        <ele>74</ele>
        <time>2022-07-09T09:38:58Z</time>
      </trkpt>
      <trkpt lat="47.25826" lon="-1.48752">
        <ele>74</ele>
        <time>2022-07-09T09:39:00Z</time>
      </trkpt>
      <trkpt lat="47.25814" lon="-1.48751">
        <ele>74</ele>
        <time>2022-07-09T09:39:02Z</time>
      </trkpt>
      <trkpt lat="47.25801" lon="-1.4875">
        <ele>74</ele>
        <time>2022-07-09T09:39:04Z</time>
      </trkpt>
      <trkpt lat="47.25789" lon="-1.48751">
        <ele>74</ele>
        <time>2022-07-09T09:39:06Z</time>
      </trkpt>
      <trkpt lat="47.25777" lon="-1.48752">
        <ele>74</ele>
        <time>2022-07-09T09:39:08Z</time>
      </trkpt>
      <trkpt lat="47.25764" lon="-1.48756">
        <ele>75</ele>
        <time>2022-07-09T09:39:10Z</time>
      </trkpt>
      <trkpt lat="47.25752" lon="-1.48759">
        <ele>75</ele>
        <time>2022-07-09T09:39:12Z</time>
      </trkpt>
      <trkpt lat="47.2574" lon="-1.48762">
        <ele>75</ele>
        <time>2022-07-09T09:39:14Z</time>
      </trkpt>
      <trkpt lat="47.25728" lon="-1.48765">
        <ele>75</ele>
        <time>2022-07-09T09:39:16Z</time>
      </trkpt>
      <trkpt lat="47.25715" lon="-1.48767">
        <ele>75</ele>
        <time>2022-07-09T09:39:18Z</time>
      </trkpt>
      <trkpt lat="47.25702" lon="-1.48766">
        <ele>75</ele>
        <time>2022-07-09T09:39:20Z</time>
      </trkpt>
      <trkpt lat="47.2569" lon="-1.48765">
        <ele>75</ele>
        <time>2022-07-09T09:39:22Z</time>
      </trkpt>
      <trkpt lat="47.25678" lon="-1.48765">
        <ele>74</ele>
        <time>2022-07-09T09:39:24Z</time>
      </trkpt>
      <trkpt lat="47.25666" lon="-1.48765">
        <ele>74</ele>
        <time>2022-07-09T09:39:26Z</time>
      </trkpt>
      <trkpt lat="47.25654" lon="-1.48761">
        <ele>74</ele>
        <time>2022-07-09T09:39:28Z</time>
      </trkpt>
      <trkpt lat="47.25641" lon="-1.4876">
        <ele>74</ele>
        <time>2022-07-09T09:39:30Z</time>
      </trkpt>
      <trkpt lat="47.25627" lon="-1.48758">
        <ele>74</ele>
        <time>2022-07-09T09:39:32Z</time>
      </trkpt>
      <trkpt lat="47.25615" lon="-1.48755">
        <ele>73</ele>
        <time>2022-07-09T09:39:34Z</time>
      </trkpt>
      <trkpt lat="47.25602" lon="-1.48754">
        <ele>73</ele>
        <time>2022-07-09T09:39:36Z</time>
      </trkpt>
      <trkpt lat="47.25588" lon="-1.48754">
        <ele>73</ele>
        <time>2022-07-09T09:39:38Z</time>
      </trkpt>
      <trkpt lat="47.25574" lon="-1.48757">
        <ele>72</ele>
        <time>2022-07-09T09:39:40Z</time>
      </trkpt>
      <trkpt lat="47.2556" lon="-1.4876">
        <ele>72</ele>
        <time>2022-07-09T09:39:42Z</time>
      </trkpt>
      <trkpt lat="47.25545" lon="-1.48764">
        <ele>72</ele>
        <time>2022-07-09T09:39:44Z</time>
      </trkpt>
      <trkpt lat="47.25531" lon="-1.48768">
        <ele>72</ele>
        <time>2022-07-09T09:39:46Z</time>
      </trkpt>
      <trkpt lat="47.25517" lon="-1.48772">
        <ele>72</ele>
        <time>2022-07-09T09:39:48Z</time>
      </trkpt>
      <trkpt lat="47.25502" lon="-1.48776">
        <ele>72</ele>
        <time>2022-07-09T09:39:50Z</time>
      </trkpt>
      <trkpt lat="47.25488" lon="-1.48779">
        <ele>71</ele>
        <time>2022-07-09T09:39:52Z</time>
      </trkpt>
      <trkpt lat="47.25474" lon="-1.48782">
        <ele>71</ele>
        <time>2022-07-09T09:39:54Z</time>
      </trkpt>
      <trkpt lat="47.25459" lon="-1.48785">
        <ele>70</ele>
        <time>2022-07-09T09:39:56Z</time>
      </trkpt>
      <trkpt lat="47.25446" lon="-1.48786">
        <ele>70</ele>
        <time>2022-07-09T09:39:58Z</time>
      </trkpt>
      <trkpt lat="47.25432" lon="-1.48785">
        <ele>70</ele>
        <time>2022-07-09T09:40:00Z</time>
      </trkpt>
      <trkpt lat="47.25418" lon="-1.48785">
        <ele>69</ele>
        <time>2022-07-09T09:40:02Z</time>
      </trkpt>
      <trkpt lat="47.25405" lon="-1.48784">
        <ele>69</ele>
        <time>2022-07-09T09:40:04Z</time>
      </trkpt>
      <trkpt lat="47.25391" lon="-1.48782">
        <ele>69</ele>
        <time>2022-07-09T09:40:06Z</time>
      </trkpt>
      <trkpt lat="47.25377" lon="-1.48779">
        <ele>68</ele>
        <time>2022-07-09T09:40:08Z</time>
      </trkpt>
      <trkpt lat="47.25363" lon="-1.48776">
        <ele>68</ele>
        <time>2022-07-09T09:40:10Z</time>
      </trkpt>
      <trkpt lat="47.25349" lon="-1.48773">
        <ele>67</ele>
        <time>2022-07-09T09:40:12Z</time>
      </trkpt>
      <trkpt lat="47.25335" lon="-1.48769">
        <ele>67</ele>
        <time>2022-07-09T09:40:14Z</time>
      </trkpt>
      <trkpt lat="47.25322" lon="-1.48764">
        <ele>67</ele>
        <time>2022-07-09T09:40:16Z</time>
      </trkpt>
      <trkpt lat="47.25309" lon="-1.48762">
        <ele>67</ele>
        <time>2022-07-09T09:40:18Z</time>
      </trkpt>
      <trkpt lat="47.25296" lon="-1.48759">
        <ele>67</ele>
        <time>2022-07-09T09:40:20Z</time>
      </trkpt>
      <trkpt lat="47.25284" lon="-1.48749">
        <ele>67</ele>
        <time>2022-07-09T09:40:22Z</time>
      </trkpt>
      <trkpt lat="47.25271" lon="-1.48744">
        <ele>66</ele>
        <time>2022-07-09T09:40:24Z</time>
      </trkpt>
      <trkpt lat="47.25256" lon="-1.48742">
        <ele>66</ele>
        <time>2022-07-09T09:40:26Z</time>
      </trkpt>
      <trkpt lat="47.25241" lon="-1.4874">
        <ele>66</ele>
        <time>2022-07-09T09:40:28Z</time>
      </trkpt>
      <trkpt lat="47.25226" lon="-1.4874">
        <ele>66</ele>
        <time>2022-07-09T09:40:30Z</time>
      </trkpt>
      <trkpt lat="47.25211" lon="-1.48743">
        <ele>66</ele>
        <time>2022-07-09T09:40:32Z</time>
      </trkpt>
      <trkpt lat="47.25196" lon="-1.48745">
        <ele>66</ele>
        <time>2022-07-09T09:40:34Z</time>
      </trkpt>
      <trkpt lat="47.25182" lon="-1.48749">
        <ele>67</ele>
        <time>2022-07-09T09:40:36Z</time>
      </trkpt>
      <trkpt lat="47.25168" lon="-1.48751">
        <ele>66</ele>
        <time>2022-07-09T09:40:38Z</time>
      </trkpt>
      <trkpt lat="47.25155" lon="-1.48753">
        <ele>66</ele>
        <time>2022-07-09T09:40:40Z</time>
      </trkpt>
      <trkpt lat="47.25142" lon="-1.48754">
        <ele>65</ele>
        <time>2022-07-09T09:40:42Z</time>
      </trkpt>
      <trkpt lat="47.25129" lon="-1.48754">
        <ele>65</ele>
        <time>2022-07-09T09:40:44Z</time>
      </trkpt>
      <trkpt lat="47.25115" lon="-1.48757">
        <ele>66</ele>
        <time>2022-07-09T09:40:46Z</time>
      </trkpt>
      <trkpt lat="47.25101" lon="-1.48755">
        <ele>66</ele>
        <time>2022-07-09T09:40:48Z</time>
      </trkpt>
      <trkpt lat="47.25088" lon="-1.48755">
        <ele>66</ele>
        <time>2022-07-09T09:40:50Z</time>
      </trkpt>
      <trkpt lat="47.25076" lon="-1.48753">
        <ele>66</ele>
        <time>2022-07-09T09:40:52Z</time>
      </trkpt>
      <trkpt lat="47.25063" lon="-1.48751">
        <ele>66</ele>
        <time>2022-07-09T09:40:54Z</time>
      </trkpt>
      <trkpt lat="47.2505" lon="-1.48747">
        <ele>66</ele>
        <time>2022-07-09T09:40:56Z</time>
      </trkpt>
      <trkpt lat="47.25037" lon="-1.48742">
        <ele>66</ele>
        <time>2022-07-09T09:40:58Z</time>
      </trkpt>
      <trkpt lat="47.25024" lon="-1.48737">
        <ele>66</ele>
        <time>2022-07-09T09:41:00Z</time>
      </trkpt>
      <trkpt lat="47.25011" lon="-1.48731">
        <ele>65</ele>
        <time>2022-07-09T09:41:02Z</time>
      </trkpt>
      <trkpt lat="47.24998" lon="-1.48726">
        <ele>66</ele>
        <time>2022-07-09T09:41:04Z</time>
      </trkpt>
      <trkpt lat="47.24987" lon="-1.4872">
        <ele>66</ele>
        <time>2022-07-09T09:41:06Z</time>
      </trkpt>
      <trkpt lat="47.24975" lon="-1.48715">
        <ele>67</ele>
        <time>2022-07-09T09:41:08Z</time>
      </trkpt>
      <trkpt lat="47.24965" lon="-1.48712">
        <ele>67</ele>
        <time>2022-07-09T09:41:10Z</time>
      </trkpt>
      <trkpt lat="47.24954" lon="-1.48708">
        <ele>66</ele>
        <time>2022-07-09T09:41:14Z</time>
      </trkpt>
      <trkpt lat="47.24944" lon="-1.48703">
        <ele>65</ele>
        <time>2022-07-09T09:41:17Z</time>
      </trkpt>
      <trkpt lat="47.24934" lon="-1.48691">
        <ele>64</ele>
        <time>2022-07-09T09:41:20Z</time>
      </trkpt>
      <trkpt lat="47.24921" lon="-1.48684">
        <ele>63</ele>
        <time>2022-07-09T09:41:22Z</time>
      </trkpt>
      <trkpt lat="47.24906" lon="-1.48678">
        <ele>63</ele>
        <time>2022-07-09T09:41:24Z</time>
      </trkpt>
      <trkpt lat="47.24892" lon="-1.48674">
        <ele>62</ele>
        <time>2022-07-09T09:41:26Z</time>
      </trkpt>
      <trkpt lat="47.24877" lon="-1.48671">
        <ele>62</ele>
        <time>2022-07-09T09:41:28Z</time>
      </trkpt>
      <trkpt lat="47.24863" lon="-1.4867">
        <ele>61</ele>
        <time>2022-07-09T09:41:30Z</time>
      </trkpt>
      <trkpt lat="47.24851" lon="-1.48666">
        <ele>61</ele>
        <time>2022-07-09T09:41:32Z</time>
      </trkpt>
      <trkpt lat="47.24837" lon="-1.4866">
        <ele>60</ele>
        <time>2022-07-09T09:41:34Z</time>
      </trkpt>
      <trkpt lat="47.24823" lon="-1.48659">
        <ele>61</ele>
        <time>2022-07-09T09:41:36Z</time>
      </trkpt>
      <trkpt lat="47.24809" lon="-1.48658">
        <ele>60</ele>
        <time>2022-07-09T09:41:38Z</time>
      </trkpt>
      <trkpt lat="47.24795" lon="-1.48658">
        <ele>60</ele>
        <time>2022-07-09T09:41:40Z</time>
      </trkpt>
      <trkpt lat="47.2478" lon="-1.48658">
        <ele>59</ele>
        <time>2022-07-09T09:41:42Z</time>
      </trkpt>
      <trkpt lat="47.24766" lon="-1.48655">
        <ele>59</ele>
        <time>2022-07-09T09:41:44Z</time>
      </trkpt>
      <trkpt lat="47.24752" lon="-1.48653">
        <ele>59</ele>
        <time>2022-07-09T09:41:46Z</time>
      </trkpt>
      <trkpt lat="47.24738" lon="-1.48649">
        <ele>59</ele>
        <time>2022-07-09T09:41:48Z</time>
      </trkpt>
      <trkpt lat="47.24724" lon="-1.4864">
        <ele>58</ele>
        <time>2022-07-09T09:41:50Z</time>
      </trkpt>
      <trkpt lat="47.24711" lon="-1.48629">
        <ele>58</ele>
        <time>2022-07-09T09:41:52Z</time>
      </trkpt>
      <trkpt lat="47.24698" lon="-1.48616">
        <ele>57</ele>
        <time>2022-07-09T09:41:54Z</time>
      </trkpt>
      <trkpt lat="47.24685" lon="-1.48603">
        <ele>56</ele>
        <time>2022-07-09T09:41:56Z</time>
      </trkpt>
      <trkpt lat="47.24672" lon="-1.4859">
        <ele>56</ele>
        <time>2022-07-09T09:41:58Z</time>
      </trkpt>
      <trkpt lat="47.2466" lon="-1.48578">
        <ele>56</ele>
        <time>2022-07-09T09:42:00Z</time>
      </trkpt>
      <trkpt lat="47.24647" lon="-1.48566">
        <ele>55</ele>
        <time>2022-07-09T09:42:02Z</time>
      </trkpt>
      <trkpt lat="47.24634" lon="-1.48553">
        <ele>55</ele>
        <time>2022-07-09T09:42:04Z</time>
      </trkpt>
      <trkpt lat="47.24621" lon="-1.48538">
        <ele>55</ele>
        <time>2022-07-09T09:42:06Z</time>
      </trkpt>
      <trkpt lat="47.24609" lon="-1.48524">
        <ele>56</ele>
        <time>2022-07-09T09:42:08Z</time>
      </trkpt>
      <trkpt lat="47.24597" lon="-1.4851">
        <ele>56</ele>
        <time>2022-07-09T09:42:10Z</time>
      </trkpt>
      <trkpt lat="47.24585" lon="-1.48495">
        <ele>56</ele>
        <time>2022-07-09T09:42:12Z</time>
      </trkpt>
      <trkpt lat="47.24573" lon="-1.48481">
        <ele>56</ele>
        <time>2022-07-09T09:42:14Z</time>
      </trkpt>
      <trkpt lat="47.24562" lon="-1.48467">
        <ele>55</ele>
        <time>2022-07-09T09:42:16Z</time>
      </trkpt>
      <trkpt lat="47.24551" lon="-1.48454">
        <ele>55</ele>
        <time>2022-07-09T09:42:18Z</time>
      </trkpt>
      <trkpt lat="47.24539" lon="-1.48443">
        <ele>55</ele>
        <time>2022-07-09T09:42:20Z</time>
      </trkpt>
      <trkpt lat="47.24528" lon="-1.48431">
        <ele>55</ele>
        <time>2022-07-09T09:42:22Z</time>
      </trkpt>
      <trkpt lat="47.24516" lon="-1.4842">
        <ele>55</ele>
        <time>2022-07-09T09:42:24Z</time>
      </trkpt>
      <trkpt lat="47.24503" lon="-1.4841">
        <ele>55</ele>
        <time>2022-07-09T09:42:26Z</time>
      </trkpt>
      <trkpt lat="47.2449" lon="-1.48402">
        <ele>55</ele>
        <time>2022-07-09T09:42:28Z</time>
      </trkpt>
      <trkpt lat="47.24476" lon="-1.48396">
        <ele>55</ele>
        <time>2022-07-09T09:42:30Z</time>
      </trkpt>
      <trkpt lat="47.24464" lon="-1.48389">
        <ele>56</ele>
        <time>2022-07-09T09:42:32Z</time>
      </trkpt>
      <trkpt lat="47.24451" lon="-1.48382">
        <ele>56</ele>
        <time>2022-07-09T09:42:34Z</time>
      </trkpt>
      <trkpt lat="47.24439" lon="-1.48375">
        <ele>55</ele>
        <time>2022-07-09T09:42:36Z</time>
      </trkpt>
      <trkpt lat="47.24427" lon="-1.48369">
        <ele>55</ele>
        <time>2022-07-09T09:42:38Z</time>
      </trkpt>
      <trkpt lat="47.24414" lon="-1.48361">
        <ele>55</ele>
        <time>2022-07-09T09:42:40Z</time>
      </trkpt>
      <trkpt lat="47.24403" lon="-1.4835">
        <ele>54</ele>
        <time>2022-07-09T09:42:42Z</time>
      </trkpt>
      <trkpt lat="47.24393" lon="-1.48336">
        <ele>54</ele>
        <time>2022-07-09T09:42:44Z</time>
      </trkpt>
      <trkpt lat="47.24384" lon="-1.48323">
        <ele>53</ele>
        <time>2022-07-09T09:42:46Z</time>
      </trkpt>
      <trkpt lat="47.24374" lon="-1.48311">
        <ele>53</ele>
        <time>2022-07-09T09:42:48Z</time>
      </trkpt>
      <trkpt lat="47.24365" lon="-1.483">
        <ele>54</ele>
        <time>2022-07-09T09:42:50Z</time>
      </trkpt>
      <trkpt lat="47.24357" lon="-1.4829">
        <ele>54</ele>
        <time>2022-07-09T09:42:52Z</time>
      </trkpt>
      <trkpt lat="47.24348" lon="-1.48287">
        <ele>54</ele>
        <time>2022-07-09T09:42:54Z</time>
      </trkpt>
      <trkpt lat="47.24339" lon="-1.48292">
        <ele>53</ele>
        <time>2022-07-09T09:42:57Z</time>
      </trkpt>
      <trkpt lat="47.24329" lon="-1.48295">
        <ele>53</ele>
        <time>2022-07-09T09:43:01Z</time>
      </trkpt>
      <trkpt lat="47.24328" lon="-1.4831">
        <ele>53</ele>
        <time>2022-07-09T09:43:05Z</time>
      </trkpt>
      <trkpt lat="47.24326" lon="-1.48326">
        <ele>52</ele>
        <time>2022-07-09T09:43:09Z</time>
      </trkpt>
      <trkpt lat="47.24318" lon="-1.48335">
        <ele>52</ele>
        <time>2022-07-09T09:43:14Z</time>
      </trkpt>
      <trkpt lat="47.24309" lon="-1.48334">
        <ele>52</ele>
        <time>2022-07-09T09:43:19Z</time>
      </trkpt>
      <trkpt lat="47.2431" lon="-1.48323">
        <ele>54</ele>
        <time>2022-07-09T09:45:20Z</time>
      </trkpt>
      <trkpt lat="47.2431" lon="-1.48317">
        <ele>57</ele>
        <time>2022-07-09T09:47:21Z</time>
      </trkpt>
      <trkpt lat="47.24311" lon="-1.48303">
        <ele>61</ele>
        <time>2022-07-09T09:47:27Z</time>
      </trkpt>
      <trkpt lat="47.24315" lon="-1.48288">
        <ele>63</ele>
        <time>2022-07-09T09:47:32Z</time>
      </trkpt>
      <trkpt lat="47.24315" lon="-1.48271">
        <ele>64</ele>
        <time>2022-07-09T09:47:35Z</time>
      </trkpt>
      <trkpt lat="47.24311" lon="-1.48255">
        <ele>63</ele>
        <time>2022-07-09T09:47:37Z</time>
      </trkpt>
      <trkpt lat="47.24304" lon="-1.48242">
        <ele>60</ele>
        <time>2022-07-09T09:47:39Z</time>
      </trkpt>
      <trkpt lat="47.24295" lon="-1.48231">
        <ele>59</ele>
        <time>2022-07-09T09:47:41Z</time>
      </trkpt>
      <trkpt lat="47.24286" lon="-1.48222">
        <ele>57</ele>
        <time>2022-07-09T09:47:43Z</time>
      </trkpt>
      <trkpt lat="47.24277" lon="-1.48213">
        <ele>57</ele>
        <time>2022-07-09T09:47:45Z</time>
      </trkpt>
      <trkpt lat="47.24266" lon="-1.48205">
        <ele>56</ele>
        <time>2022-07-09T09:47:47Z</time>
      </trkpt>
      <trkpt lat="47.24255" lon="-1.48197">
        <ele>56</ele>
        <time>2022-07-09T09:47:49Z</time>
      </trkpt>
      <trkpt lat="47.24243" lon="-1.48189">
        <ele>56</ele>
        <time>2022-07-09T09:47:51Z</time>
      </trkpt>
      <trkpt lat="47.24232" lon="-1.48182">
        <ele>56</ele>
        <time>2022-07-09T09:47:53Z</time>
      </trkpt>
      <trkpt lat="47.24222" lon="-1.48175">
        <ele>56</ele>
        <time>2022-07-09T09:47:55Z</time>
      </trkpt>
      <trkpt lat="47.2421" lon="-1.48168">
        <ele>56</ele>
        <time>2022-07-09T09:47:57Z</time>
      </trkpt>
      <trkpt lat="47.24199" lon="-1.4816">
        <ele>57</ele>
        <time>2022-07-09T09:47:59Z</time>
      </trkpt>
      <trkpt lat="47.24187" lon="-1.48151">
        <ele>57</ele>
        <time>2022-07-09T09:48:01Z</time>
      </trkpt>
      <trkpt lat="47.24175" lon="-1.48142">
        <ele>56</ele>
        <time>2022-07-09T09:48:03Z</time>
      </trkpt>
      <trkpt lat="47.24164" lon="-1.48132">
        <ele>56</ele>
        <time>2022-07-09T09:48:05Z</time>
      </trkpt>
      <trkpt lat="47.24153" lon="-1.4812">
        <ele>55</ele>
        <time>2022-07-09T09:48:07Z</time>
      </trkpt>
      <trkpt lat="47.24142" lon="-1.48108">
        <ele>54</ele>
        <time>2022-07-09T09:48:09Z</time>
      </trkpt>
      <trkpt lat="47.24132" lon="-1.48094">
        <ele>54</ele>
        <time>2022-07-09T09:48:11Z</time>
      </trkpt>
      <trkpt lat="47.24122" lon="-1.48081">
        <ele>53</ele>
        <time>2022-07-09T09:48:13Z</time>
      </trkpt>
      <trkpt lat="47.24112" lon="-1.48067">
        <ele>54</ele>
        <time>2022-07-09T09:48:15Z</time>
      </trkpt>
      <trkpt lat="47.24104" lon="-1.48053">
        <ele>54</ele>
        <time>2022-07-09T09:48:17Z</time>
      </trkpt>
      <trkpt lat="47.24096" lon="-1.48037">
        <ele>55</ele>
        <time>2022-07-09T09:48:19Z</time>
      </trkpt>
      <trkpt lat="47.24089" lon="-1.4802">
        <ele>55</ele>
        <time>2022-07-09T09:48:21Z</time>
      </trkpt>
      <trkpt lat="47.24083" lon="-1.48004">
        <ele>54</ele>
        <time>2022-07-09T09:48:23Z</time>
      </trkpt>
      <trkpt lat="47.24077" lon="-1.47989">
        <ele>54</ele>
        <time>2022-07-09T09:48:25Z</time>
      </trkpt>
      <trkpt lat="47.24072" lon="-1.47974">
        <ele>55</ele>
        <time>2022-07-09T09:48:27Z</time>
      </trkpt>
      <trkpt lat="47.24068" lon="-1.4796">
        <ele>55</ele>
        <time>2022-07-09T09:48:29Z</time>
      </trkpt>
      <trkpt lat="47.24063" lon="-1.47945">
        <ele>56</ele>
        <time>2022-07-09T09:48:31Z</time>
      </trkpt>
      <trkpt lat="47.24059" lon="-1.4793">
        <ele>56</ele>
        <time>2022-07-09T09:48:33Z</time>
      </trkpt>
      <trkpt lat="47.24054" lon="-1.47914">
        <ele>56</ele>
        <time>2022-07-09T09:48:35Z</time>
      </trkpt>
      <trkpt lat="47.24048" lon="-1.47899">
        <ele>56</ele>
        <time>2022-07-09T09:48:37Z</time>
      </trkpt>
      <trkpt lat="47.24043" lon="-1.47883">
        <ele>56</ele>
        <time>2022-07-09T09:48:39Z</time>
      </trkpt>
      <trkpt lat="47.24038" lon="-1.47869">
        <ele>56</ele>
        <time>2022-07-09T09:48:41Z</time>
      </trkpt>
      <trkpt lat="47.24033" lon="-1.47854">
        <ele>56</ele>
        <time>2022-07-09T09:48:43Z</time>
      </trkpt>
      <trkpt lat="47.24027" lon="-1.47839">
        <ele>56</ele>
        <time>2022-07-09T09:48:45Z</time>
      </trkpt>
      <trkpt lat="47.2402" lon="-1.47825">
        <ele>56</ele>
        <time>2022-07-09T09:48:47Z</time>
      </trkpt>
      <trkpt lat="47.24014" lon="-1.47811">
        <ele>56</ele>
        <time>2022-07-09T09:48:49Z</time>
      </trkpt>
      <trkpt lat="47.24009" lon="-1.47797">
        <ele>56</ele>
        <time>2022-07-09T09:48:51Z</time>
      </trkpt>
      <trkpt lat="47.24003" lon="-1.47782">
        <ele>56</ele>
        <time>2022-07-09T09:48:53Z</time>
      </trkpt>
      <trkpt lat="47.23998" lon="-1.47768">
        <ele>56</ele>
        <time>2022-07-09T09:48:55Z</time>
      </trkpt>
      <trkpt lat="47.23993" lon="-1.47753">
        <ele>56</ele>
        <time>2022-07-09T09:48:57Z</time>
      </trkpt>
      <trkpt lat="47.23988" lon="-1.47737">
        <ele>56</ele>
        <time>2022-07-09T09:48:59Z</time>
      </trkpt>
      <trkpt lat="47.23978" lon="-1.47724">
        <ele>56</ele>
        <time>2022-07-09T09:49:01Z</time>
      </trkpt>
      <trkpt lat="47.23971" lon="-1.4771">
        <ele>56</ele>
        <time>2022-07-09T09:49:03Z</time>
      </trkpt>
      <trkpt lat="47.23963" lon="-1.47696">
        <ele>55</ele>
        <time>2022-07-09T09:49:05Z</time>
      </trkpt>
      <trkpt lat="47.23956" lon="-1.47683">
        <ele>55</ele>
        <time>2022-07-09T09:49:07Z</time>
      </trkpt>
      <trkpt lat="47.23947" lon="-1.4767">
        <ele>55</ele>
        <time>2022-07-09T09:49:09Z</time>
      </trkpt>
      <trkpt lat="47.23937" lon="-1.4766">
        <ele>55</ele>
        <time>2022-07-09T09:49:11Z</time>
      </trkpt>
      <trkpt lat="47.23926" lon="-1.47651">
        <ele>55</ele>
        <time>2022-07-09T09:49:13Z</time>
      </trkpt>
      <trkpt lat="47.23914" lon="-1.47644">
        <ele>55</ele>
        <time>2022-07-09T09:49:15Z</time>
      </trkpt>
      <trkpt lat="47.23902" lon="-1.4764">
        <ele>55</ele>
        <time>2022-07-09T09:49:17Z</time>
      </trkpt>
      <trkpt lat="47.2389" lon="-1.47638">
        <ele>55</ele>
        <time>2022-07-09T09:49:19Z</time>
      </trkpt>
      <trkpt lat="47.23878" lon="-1.47639">
        <ele>55</ele>
        <time>2022-07-09T09:49:21Z</time>
      </trkpt>
      <trkpt lat="47.23866" lon="-1.47643">
        <ele>55</ele>
        <time>2022-07-09T09:49:23Z</time>
      </trkpt>
      <trkpt lat="47.23854" lon="-1.47649">
        <ele>54</ele>
        <time>2022-07-09T09:49:25Z</time>
      </trkpt>
      <trkpt lat="47.23843" lon="-1.47657">
        <ele>54</ele>
        <time>2022-07-09T09:49:27Z</time>
      </trkpt>
      <trkpt lat="47.23833" lon="-1.47667">
        <ele>53</ele>
        <time>2022-07-09T09:49:29Z</time>
      </trkpt>
      <trkpt lat="47.23825" lon="-1.47679">
        <ele>52</ele>
        <time>2022-07-09T09:49:31Z</time>
      </trkpt>
      <trkpt lat="47.23816" lon="-1.47692">
        <ele>52</ele>
        <time>2022-07-09T09:49:33Z</time>
      </trkpt>
      <trkpt lat="47.23803" lon="-1.47693">
        <ele>52</ele>
        <time>2022-07-09T09:49:35Z</time>
      </trkpt>
      <trkpt lat="47.23791" lon="-1.47687">
        <ele>52</ele>
        <time>2022-07-09T09:49:37Z</time>
      </trkpt>
      <trkpt lat="47.23778" lon="-1.47687">
        <ele>52</ele>
        <time>2022-07-09T09:49:39Z</time>
      </trkpt>
      <trkpt lat="47.23766" lon="-1.47694">
        <ele>52</ele>
        <time>2022-07-09T09:49:41Z</time>
      </trkpt>
      <trkpt lat="47.23755" lon="-1.47705">
        <ele>52</ele>
        <time>2022-07-09T09:49:43Z</time>
      </trkpt>
      <trkpt lat="47.23745" lon="-1.47717">
        <ele>53</ele>
        <time>2022-07-09T09:49:45Z</time>
      </trkpt>
      <trkpt lat="47.23735" lon="-1.47728">
        <ele>53</ele>
        <time>2022-07-09T09:49:47Z</time>
      </trkpt>
      <trkpt lat="47.23725" lon="-1.47739">
        <ele>53</ele>
        <time>2022-07-09T09:49:49Z</time>
      </trkpt>
      <trkpt lat="47.23715" lon="-1.47748">
        <ele>53</ele>
        <time>2022-07-09T09:49:51Z</time>
      </trkpt>
      <trkpt lat="47.23704" lon="-1.47755">
        <ele>53</ele>
        <time>2022-07-09T09:49:53Z</time>
      </trkpt>
      <trkpt lat="47.23691" lon="-1.47758">
        <ele>53</ele>
        <time>2022-07-09T09:49:55Z</time>
      </trkpt>
      <trkpt lat="47.23678" lon="-1.47757">
        <ele>53</ele>
        <time>2022-07-09T09:49:57Z</time>
      </trkpt>
      <trkpt lat="47.23665" lon="-1.47754">
        <ele>53</ele>
        <time>2022-07-09T09:49:59Z</time>
      </trkpt>
      <trkpt lat="47.23653" lon="-1.47747">
        <ele>53</ele>
        <time>2022-07-09T09:50:01Z</time>
      </trkpt>
      <trkpt lat="47.23641" lon="-1.4774">
        <ele>52</ele>
        <time>2022-07-09T09:50:03Z</time>
      </trkpt>
      <trkpt lat="47.2363" lon="-1.47733">
        <ele>52</ele>
        <time>2022-07-09T09:50:05Z</time>
      </trkpt>
      <trkpt lat="47.23619" lon="-1.47726">
        <ele>52</ele>
        <time>2022-07-09T09:50:07Z</time>
      </trkpt>
      <trkpt lat="47.23608" lon="-1.47719">
        <ele>52</ele>
        <time>2022-07-09T09:50:09Z</time>
      </trkpt>
      <trkpt lat="47.23596" lon="-1.47712">
        <ele>52</ele>
        <time>2022-07-09T09:50:11Z</time>
      </trkpt>
      <trkpt lat="47.23586" lon="-1.47705">
        <ele>52</ele>
        <time>2022-07-09T09:50:13Z</time>
      </trkpt>
      <trkpt lat="47.23575" lon="-1.47697">
        <ele>52</ele>
        <time>2022-07-09T09:50:15Z</time>
      </trkpt>
      <trkpt lat="47.23565" lon="-1.47688">
        <ele>53</ele>
        <time>2022-07-09T09:50:17Z</time>
      </trkpt>
      <trkpt lat="47.23557" lon="-1.47676">
        <ele>53</ele>
        <time>2022-07-09T09:50:19Z</time>
      </trkpt>
      <trkpt lat="47.23549" lon="-1.47662">
        <ele>52</ele>
        <time>2022-07-09T09:50:21Z</time>
      </trkpt>
      <trkpt lat="47.23541" lon="-1.47649">
        <ele>53</ele>
        <time>2022-07-09T09:50:23Z</time>
      </trkpt>
      <trkpt lat="47.23533" lon="-1.47636">
        <ele>53</ele>
        <time>2022-07-09T09:50:25Z</time>
      </trkpt>
      <trkpt lat="47.23526" lon="-1.47624">
        <ele>53</ele>
        <time>2022-07-09T09:50:27Z</time>
      </trkpt>
      <trkpt lat="47.23518" lon="-1.47611">
        <ele>53</ele>
        <time>2022-07-09T09:50:29Z</time>
      </trkpt>
      <trkpt lat="47.2351" lon="-1.47598">
        <ele>53</ele>
        <time>2022-07-09T09:50:31Z</time>
      </trkpt>
      <trkpt lat="47.23503" lon="-1.47585">
        <ele>53</ele>
        <time>2022-07-09T09:50:33Z</time>
      </trkpt>
      <trkpt lat="47.23495" lon="-1.47572">
        <ele>54</ele>
        <time>2022-07-09T09:50:35Z</time>
      </trkpt>
      <trkpt lat="47.23487" lon="-1.47559">
        <ele>54</ele>
        <time>2022-07-09T09:50:37Z</time>
      </trkpt>
      <trkpt lat="47.23478" lon="-1.47546">
        <ele>53</ele>
        <time>2022-07-09T09:50:39Z</time>
      </trkpt>
      <trkpt lat="47.2347" lon="-1.47534">
        <ele>54</ele>
        <time>2022-07-09T09:50:41Z</time>
      </trkpt>
      <trkpt lat="47.23462" lon="-1.47521">
        <ele>54</ele>
        <time>2022-07-09T09:50:43Z</time>
      </trkpt>
      <trkpt lat="47.23454" lon="-1.47509">
        <ele>54</ele>
        <time>2022-07-09T09:50:45Z</time>
      </trkpt>
      <trkpt lat="47.23445" lon="-1.47496">
        <ele>54</ele>
        <time>2022-07-09T09:50:47Z</time>
      </trkpt>
      <trkpt lat="47.23437" lon="-1.47484">
        <ele>54</ele>
        <time>2022-07-09T09:50:49Z</time>
      </trkpt>
      <trkpt lat="47.2343" lon="-1.47471">
        <ele>55</ele>
        <time>2022-07-09T09:50:51Z</time>
      </trkpt>
      <trkpt lat="47.23422" lon="-1.4746">
        <ele>55</ele>
        <time>2022-07-09T09:50:53Z</time>
      </trkpt>
      <trkpt lat="47.23416" lon="-1.47448">
        <ele>54</ele>
        <time>2022-07-09T09:50:55Z</time>
      </trkpt>
      <trkpt lat="47.23402" lon="-1.47446">
        <ele>54</ele>
        <time>2022-07-09T09:50:58Z</time>
      </trkpt>
      <trkpt lat="47.23392" lon="-1.47452">
        <ele>54</ele>
        <time>2022-07-09T09:51:00Z</time>
      </trkpt>
      <trkpt lat="47.23381" lon="-1.47458">
        <ele>54</ele>
        <time>2022-07-09T09:51:02Z</time>
      </trkpt>
      <trkpt lat="47.2337" lon="-1.47464">
        <ele>54</ele>
        <time>2022-07-09T09:51:04Z</time>
      </trkpt>
      <trkpt lat="47.23359" lon="-1.47469">
        <ele>54</ele>
        <time>2022-07-09T09:51:06Z</time>
      </trkpt>
      <trkpt lat="47.23347" lon="-1.47473">
        <ele>54</ele>
        <time>2022-07-09T09:51:08Z</time>
      </trkpt>
      <trkpt lat="47.23336" lon="-1.47478">
        <ele>54</ele>
        <time>2022-07-09T09:51:10Z</time>
      </trkpt>
      <trkpt lat="47.23327" lon="-1.47484">
        <ele>54</ele>
        <time>2022-07-09T09:51:12Z</time>
      </trkpt>
      <trkpt lat="47.23317" lon="-1.47495">
        <ele>55</ele>
        <time>2022-07-09T09:51:14Z</time>
      </trkpt>
      <trkpt lat="47.23305" lon="-1.47503">
        <ele>55</ele>
        <time>2022-07-09T09:51:16Z</time>
      </trkpt>
      <trkpt lat="47.23293" lon="-1.4751">
        <ele>56</ele>
        <time>2022-07-09T09:51:18Z</time>
      </trkpt>
      <trkpt lat="47.2328" lon="-1.47516">
        <ele>55</ele>
        <time>2022-07-09T09:51:20Z</time>
      </trkpt>
      <trkpt lat="47.2327" lon="-1.47523">
        <ele>55</ele>
        <time>2022-07-09T09:51:22Z</time>
      </trkpt>
      <trkpt lat="47.2326" lon="-1.47534">
        <ele>56</ele>
        <time>2022-07-09T09:51:24Z</time>
      </trkpt>
      <trkpt lat="47.23252" lon="-1.47548">
        <ele>56</ele>
        <time>2022-07-09T09:51:26Z</time>
      </trkpt>
      <trkpt lat="47.23244" lon="-1.47561">
        <ele>55</ele>
        <time>2022-07-09T09:51:28Z</time>
      </trkpt>
      <trkpt lat="47.23236" lon="-1.47576">
        <ele>55</ele>
        <time>2022-07-09T09:51:30Z</time>
      </trkpt>
      <trkpt lat="47.2323" lon="-1.47588">
        <ele>54</ele>
        <time>2022-07-09T09:51:32Z</time>
      </trkpt>
      <trkpt lat="47.23224" lon="-1.476">
        <ele>54</ele>
        <time>2022-07-09T09:51:34Z</time>
      </trkpt>
      <trkpt lat="47.23217" lon="-1.47617">
        <ele>55</ele>
        <time>2022-07-09T09:51:36Z</time>
      </trkpt>
      <trkpt lat="47.23211" lon="-1.47633">
        <ele>55</ele>
        <time>2022-07-09T09:51:38Z</time>
      </trkpt>
      <trkpt lat="47.23205" lon="-1.47649">
        <ele>54</ele>
        <time>2022-07-09T09:51:40Z</time>
      </trkpt>
      <trkpt lat="47.232" lon="-1.47663">
        <ele>53</ele>
        <time>2022-07-09T09:51:42Z</time>
      </trkpt>
      <trkpt lat="47.23195" lon="-1.47679">
        <ele>54</ele>
        <time>2022-07-09T09:51:44Z</time>
      </trkpt>
      <trkpt lat="47.23188" lon="-1.47695">
        <ele>54</ele>
        <time>2022-07-09T09:51:46Z</time>
      </trkpt>
      <trkpt lat="47.23181" lon="-1.47709">
        <ele>55</ele>
        <time>2022-07-09T09:51:48Z</time>
      </trkpt>
      <trkpt lat="47.23173" lon="-1.47725">
        <ele>55</ele>
        <time>2022-07-09T09:51:50Z</time>
      </trkpt>
      <trkpt lat="47.23166" lon="-1.47741">
        <ele>54</ele>
        <time>2022-07-09T09:51:52Z</time>
      </trkpt>
      <trkpt lat="47.23158" lon="-1.47756">
        <ele>54</ele>
        <time>2022-07-09T09:51:54Z</time>
      </trkpt>
      <trkpt lat="47.23151" lon="-1.47771">
        <ele>54</ele>
        <time>2022-07-09T09:51:56Z</time>
      </trkpt>
      <trkpt lat="47.23145" lon="-1.47786">
        <ele>54</ele>
        <time>2022-07-09T09:51:58Z</time>
      </trkpt>
      <trkpt lat="47.23139" lon="-1.47802">
        <ele>54</ele>
        <time>2022-07-09T09:52:00Z</time>
      </trkpt>
      <trkpt lat="47.23134" lon="-1.47816">
        <ele>54</ele>
        <time>2022-07-09T09:52:02Z</time>
      </trkpt>
      <trkpt lat="47.23127" lon="-1.47833">
        <ele>54</ele>
        <time>2022-07-09T09:52:04Z</time>
      </trkpt>
      <trkpt lat="47.2312" lon="-1.4785">
        <ele>54</ele>
        <time>2022-07-09T09:52:06Z</time>
      </trkpt>
      <trkpt lat="47.23111" lon="-1.47865">
        <ele>54</ele>
        <time>2022-07-09T09:52:08Z</time>
      </trkpt>
      <trkpt lat="47.23102" lon="-1.47879">
        <ele>54</ele>
        <time>2022-07-09T09:52:10Z</time>
      </trkpt>
      <trkpt lat="47.23093" lon="-1.47892">
        <ele>54</ele>
        <time>2022-07-09T09:52:12Z</time>
      </trkpt>
      <trkpt lat="47.23083" lon="-1.47905">
        <ele>53</ele>
        <time>2022-07-09T09:52:14Z</time>
      </trkpt>
      <trkpt lat="47.23073" lon="-1.47917">
        <ele>53</ele>
        <time>2022-07-09T09:52:16Z</time>
      </trkpt>
      <trkpt lat="47.23064" lon="-1.47929">
        <ele>53</ele>
        <time>2022-07-09T09:52:18Z</time>
      </trkpt>
      <trkpt lat="47.23054" lon="-1.47943">
        <ele>53</ele>
        <time>2022-07-09T09:52:20Z</time>
      </trkpt>
      <trkpt lat="47.23044" lon="-1.47957">
        <ele>54</ele>
        <time>2022-07-09T09:52:22Z</time>
      </trkpt>
      <trkpt lat="47.23034" lon="-1.4797">
        <ele>54</ele>
        <time>2022-07-09T09:52:24Z</time>
      </trkpt>
      <trkpt lat="47.23025" lon="-1.47982">
        <ele>54</ele>
        <time>2022-07-09T09:52:26Z</time>
      </trkpt>
      <trkpt lat="47.23016" lon="-1.47995">
        <ele>53</ele>
        <time>2022-07-09T09:52:28Z</time>
      </trkpt>
      <trkpt lat="47.23007" lon="-1.48008">
        <ele>53</ele>
        <time>2022-07-09T09:52:30Z</time>
      </trkpt>
      <trkpt lat="47.22998" lon="-1.48022">
        <ele>53</ele>
        <time>2022-07-09T09:52:32Z</time>
      </trkpt>
      <trkpt lat="47.2299" lon="-1.48037">
        <ele>53</ele>
        <time>2022-07-09T09:52:34Z</time>
      </trkpt>
      <trkpt lat="47.22981" lon="-1.48051">
        <ele>53</ele>
        <time>2022-07-09T09:52:36Z</time>
      </trkpt>
      <trkpt lat="47.22973" lon="-1.48065">
        <ele>52</ele>
        <time>2022-07-09T09:52:38Z</time>
      </trkpt>
      <trkpt lat="47.22964" lon="-1.48078">
        <ele>53</ele>
        <time>2022-07-09T09:52:40Z</time>
      </trkpt>
      <trkpt lat="47.22957" lon="-1.48091">
        <ele>52</ele>
        <time>2022-07-09T09:52:42Z</time>
      </trkpt>
      <trkpt lat="47.22949" lon="-1.48104">
        <ele>52</ele>
        <time>2022-07-09T09:52:44Z</time>
      </trkpt>
      <trkpt lat="47.22939" lon="-1.4811">
        <ele>52</ele>
        <time>2022-07-09T09:52:46Z</time>
      </trkpt>
      <trkpt lat="47.22927" lon="-1.48112">
        <ele>52</ele>
        <time>2022-07-09T09:52:48Z</time>
      </trkpt>
      <trkpt lat="47.22915" lon="-1.48116">
        <ele>53</ele>
        <time>2022-07-09T09:52:50Z</time>
      </trkpt>
      <trkpt lat="47.22903" lon="-1.48123">
        <ele>53</ele>
        <time>2022-07-09T09:52:52Z</time>
      </trkpt>
      <trkpt lat="47.22894" lon="-1.48134">
        <ele>53</ele>
        <time>2022-07-09T09:52:54Z</time>
      </trkpt>
      <trkpt lat="47.22885" lon="-1.48147">
        <ele>53</ele>
        <time>2022-07-09T09:52:56Z</time>
      </trkpt>
      <trkpt lat="47.22877" lon="-1.48161">
        <ele>52</ele>
        <time>2022-07-09T09:52:58Z</time>
      </trkpt>
      <trkpt lat="47.22869" lon="-1.48173">
        <ele>52</ele>
        <time>2022-07-09T09:53:00Z</time>
      </trkpt>
      <trkpt lat="47.22861" lon="-1.48186">
        <ele>53</ele>
        <time>2022-07-09T09:53:02Z</time>
      </trkpt>
      <trkpt lat="47.22853" lon="-1.482">
        <ele>54</ele>
        <time>2022-07-09T09:53:04Z</time>
      </trkpt>
      <trkpt lat="47.22845" lon="-1.48214">
        <ele>54</ele>
        <time>2022-07-09T09:53:06Z</time>
      </trkpt>
      <trkpt lat="47.22835" lon="-1.48228">
        <ele>53</ele>
        <time>2022-07-09T09:53:08Z</time>
      </trkpt>
      <trkpt lat="47.22826" lon="-1.48241">
        <ele>53</ele>
        <time>2022-07-09T09:53:10Z</time>
      </trkpt>
      <trkpt lat="47.22818" lon="-1.48253">
        <ele>54</ele>
        <time>2022-07-09T09:53:12Z</time>
      </trkpt>
      <trkpt lat="47.22809" lon="-1.48266">
        <ele>54</ele>
        <time>2022-07-09T09:53:14Z</time>
      </trkpt>
      <trkpt lat="47.22801" lon="-1.48279">
        <ele>54</ele>
        <time>2022-07-09T09:53:16Z</time>
      </trkpt>
      <trkpt lat="47.22792" lon="-1.48293">
        <ele>55</ele>
        <time>2022-07-09T09:53:18Z</time>
      </trkpt>
      <trkpt lat="47.22784" lon="-1.48306">
        <ele>55</ele>
        <time>2022-07-09T09:53:20Z</time>
      </trkpt>
      <trkpt lat="47.22776" lon="-1.48319">
        <ele>55</ele>
        <time>2022-07-09T09:53:22Z</time>
      </trkpt>
      <trkpt lat="47.22767" lon="-1.48333">
        <ele>55</ele>
        <time>2022-07-09T09:53:24Z</time>
      </trkpt>
      <trkpt lat="47.22757" lon="-1.48346">
        <ele>54</ele>
        <time>2022-07-09T09:53:26Z</time>
      </trkpt>
      <trkpt lat="47.22748" lon="-1.48358">
        <ele>54</ele>
        <time>2022-07-09T09:53:28Z</time>
      </trkpt>
      <trkpt lat="47.22739" lon="-1.48371">
        <ele>54</ele>
        <time>2022-07-09T09:53:30Z</time>
      </trkpt>
      <trkpt lat="47.22729" lon="-1.48383">
        <ele>53</ele>
        <time>2022-07-09T09:53:32Z</time>
      </trkpt>
      <trkpt lat="47.2272" lon="-1.48395">
        <ele>53</ele>
        <time>2022-07-09T09:53:34Z</time>
      </trkpt>
      <trkpt lat="47.22712" lon="-1.48407">
        <ele>54</ele>
        <time>2022-07-09T09:53:36Z</time>
      </trkpt>
      <trkpt lat="47.22704" lon="-1.48423">
        <ele>54</ele>
        <time>2022-07-09T09:53:38Z</time>
      </trkpt>
      <trkpt lat="47.22698" lon="-1.48439">
        <ele>53</ele>
        <time>2022-07-09T09:53:40Z</time>
      </trkpt>
      <trkpt lat="47.22692" lon="-1.48456">
        <ele>53</ele>
        <time>2022-07-09T09:53:42Z</time>
      </trkpt>
      <trkpt lat="47.22686" lon="-1.48473">
        <ele>52</ele>
        <time>2022-07-09T09:53:44Z</time>
      </trkpt>
      <trkpt lat="47.22679" lon="-1.48488">
        <ele>53</ele>
        <time>2022-07-09T09:53:46Z</time>
      </trkpt>
      <trkpt lat="47.22672" lon="-1.48502">
        <ele>53</ele>
        <time>2022-07-09T09:53:48Z</time>
      </trkpt>
      <trkpt lat="47.22667" lon="-1.48517">
        <ele>53</ele>
        <time>2022-07-09T09:53:50Z</time>
      </trkpt>
      <trkpt lat="47.22662" lon="-1.48535">
        <ele>53</ele>
        <time>2022-07-09T09:53:52Z</time>
      </trkpt>
      <trkpt lat="47.22657" lon="-1.48554">
        <ele>54</ele>
        <time>2022-07-09T09:53:54Z</time>
      </trkpt>
      <trkpt lat="47.22651" lon="-1.48572">
        <ele>53</ele>
        <time>2022-07-09T09:53:56Z</time>
      </trkpt>
      <trkpt lat="47.22645" lon="-1.48587">
        <ele>54</ele>
        <time>2022-07-09T09:53:58Z</time>
      </trkpt>
      <trkpt lat="47.22639" lon="-1.48601">
        <ele>55</ele>
        <time>2022-07-09T09:54:00Z</time>
      </trkpt>
      <trkpt lat="47.22633" lon="-1.48614">
        <ele>55</ele>
        <time>2022-07-09T09:54:02Z</time>
      </trkpt>
      <trkpt lat="47.22627" lon="-1.4863">
        <ele>56</ele>
        <time>2022-07-09T09:54:04Z</time>
      </trkpt>
      <trkpt lat="47.2262" lon="-1.48646">
        <ele>57</ele>
        <time>2022-07-09T09:54:06Z</time>
      </trkpt>
      <trkpt lat="47.22615" lon="-1.48662">
        <ele>58</ele>
        <time>2022-07-09T09:54:08Z</time>
      </trkpt>
      <trkpt lat="47.22609" lon="-1.48682">
        <ele>58</ele>
        <time>2022-07-09T09:54:10Z</time>
      </trkpt>
      <trkpt lat="47.22603" lon="-1.48701">
        <ele>57</ele>
        <time>2022-07-09T09:54:12Z</time>
      </trkpt>
      <trkpt lat="47.22599" lon="-1.48719">
        <ele>57</ele>
        <time>2022-07-09T09:54:14Z</time>
      </trkpt>
      <trkpt lat="47.22594" lon="-1.48738">
        <ele>57</ele>
        <time>2022-07-09T09:54:16Z</time>
      </trkpt>
      <trkpt lat="47.22589" lon="-1.48756">
        <ele>56</ele>
        <time>2022-07-09T09:54:18Z</time>
      </trkpt>
      <trkpt lat="47.22584" lon="-1.48774">
        <ele>56</ele>
        <time>2022-07-09T09:54:20Z</time>
      </trkpt>
      <trkpt lat="47.22579" lon="-1.48789">
        <ele>56</ele>
        <time>2022-07-09T09:54:22Z</time>
      </trkpt>
      <trkpt lat="47.22574" lon="-1.48807">
        <ele>57</ele>
        <time>2022-07-09T09:54:24Z</time>
      </trkpt>
      <trkpt lat="47.22567" lon="-1.48821">
        <ele>57</ele>
        <time>2022-07-09T09:54:26Z</time>
      </trkpt>
      <trkpt lat="47.22562" lon="-1.48836">
        <ele>58</ele>
        <time>2022-07-09T09:54:28Z</time>
      </trkpt>
      <trkpt lat="47.22557" lon="-1.4885">
        <ele>58</ele>
        <time>2022-07-09T09:54:30Z</time>
      </trkpt>
      <trkpt lat="47.22552" lon="-1.48866">
        <ele>59</ele>
        <time>2022-07-09T09:54:32Z</time>
      </trkpt>
      <trkpt lat="47.22549" lon="-1.48884">
        <ele>60</ele>
        <time>2022-07-09T09:54:34Z</time>
      </trkpt>
      <trkpt lat="47.22545" lon="-1.489">
        <ele>61</ele>
        <time>2022-07-09T09:54:36Z</time>
      </trkpt>
      <trkpt lat="47.22539" lon="-1.4892">
        <ele>62</ele>
        <time>2022-07-09T09:54:38Z</time>
      </trkpt>
      <trkpt lat="47.22533" lon="-1.48941">
        <ele>62</ele>
        <time>2022-07-09T09:54:40Z</time>
      </trkpt>
      <trkpt lat="47.22527" lon="-1.48959">
        <ele>62</ele>
        <time>2022-07-09T09:54:42Z</time>
      </trkpt>
      <trkpt lat="47.22521" lon="-1.48976">
        <ele>61</ele>
        <time>2022-07-09T09:54:44Z</time>
      </trkpt>
      <trkpt lat="47.22515" lon="-1.48994">
        <ele>61</ele>
        <time>2022-07-09T09:54:46Z</time>
      </trkpt>
      <trkpt lat="47.22509" lon="-1.49009">
        <ele>60</ele>
        <time>2022-07-09T09:54:48Z</time>
      </trkpt>
      <trkpt lat="47.22504" lon="-1.49025">
        <ele>61</ele>
        <time>2022-07-09T09:54:50Z</time>
      </trkpt>
      <trkpt lat="47.225" lon="-1.49041">
        <ele>60</ele>
        <time>2022-07-09T09:54:52Z</time>
      </trkpt>
      <trkpt lat="47.22495" lon="-1.49058">
        <ele>60</ele>
        <time>2022-07-09T09:54:54Z</time>
      </trkpt>
      <trkpt lat="47.22489" lon="-1.49076">
        <ele>61</ele>
        <time>2022-07-09T09:54:56Z</time>
      </trkpt>
      <trkpt lat="47.22485" lon="-1.49095">
        <ele>62</ele>
        <time>2022-07-09T09:54:58Z</time>
      </trkpt>
      <trkpt lat="47.2248" lon="-1.49114">
        <ele>62</ele>
        <time>2022-07-09T09:55:00Z</time>
      </trkpt>
      <trkpt lat="47.22475" lon="-1.49133">
        <ele>61</ele>
        <time>2022-07-09T09:55:02Z</time>
      </trkpt>
      <trkpt lat="47.2247" lon="-1.49151">
        <ele>61</ele>
        <time>2022-07-09T09:55:04Z</time>
      </trkpt>
      <trkpt lat="47.22464" lon="-1.49169">
        <ele>59</ele>
        <time>2022-07-09T09:55:06Z</time>
      </trkpt>
      <trkpt lat="47.22457" lon="-1.49187">
        <ele>58</ele>
        <time>2022-07-09T09:55:08Z</time>
      </trkpt>
      <trkpt lat="47.2245" lon="-1.49204">
        <ele>57</ele>
        <time>2022-07-09T09:55:10Z</time>
      </trkpt>
      <trkpt lat="47.22443" lon="-1.49221">
        <ele>56</ele>
        <time>2022-07-09T09:55:12Z</time>
      </trkpt>
      <trkpt lat="47.22437" lon="-1.4924">
        <ele>55</ele>
        <time>2022-07-09T09:55:14Z</time>
      </trkpt>
      <trkpt lat="47.22431" lon="-1.49258">
        <ele>54</ele>
        <time>2022-07-09T09:55:16Z</time>
      </trkpt>
      <trkpt lat="47.22424" lon="-1.49273">
        <ele>55</ele>
        <time>2022-07-09T09:55:18Z</time>
      </trkpt>
      <trkpt lat="47.22417" lon="-1.49289">
        <ele>54</ele>
        <time>2022-07-09T09:55:20Z</time>
      </trkpt>
      <trkpt lat="47.2241" lon="-1.49305">
        <ele>53</ele>
        <time>2022-07-09T09:55:22Z</time>
      </trkpt>
      <trkpt lat="47.22403" lon="-1.49321">
        <ele>53</ele>
        <time>2022-07-09T09:55:24Z</time>
      </trkpt>
      <trkpt lat="47.22397" lon="-1.49338">
        <ele>53</ele>
        <time>2022-07-09T09:55:26Z</time>
      </trkpt>
      <trkpt lat="47.22391" lon="-1.49355">
        <ele>53</ele>
        <time>2022-07-09T09:55:28Z</time>
      </trkpt>
      <trkpt lat="47.22386" lon="-1.4937">
        <ele>53</ele>
        <time>2022-07-09T09:55:30Z</time>
      </trkpt>
      <trkpt lat="47.2238" lon="-1.49386">
        <ele>53</ele>
        <time>2022-07-09T09:55:32Z</time>
      </trkpt>
      <trkpt lat="47.22373" lon="-1.49402">
        <ele>53</ele>
        <time>2022-07-09T09:55:34Z</time>
      </trkpt>
      <trkpt lat="47.22367" lon="-1.49418">
        <ele>53</ele>
        <time>2022-07-09T09:55:36Z</time>
      </trkpt>
      <trkpt lat="47.2236" lon="-1.49434">
        <ele>53</ele>
        <time>2022-07-09T09:55:38Z</time>
      </trkpt>
      <trkpt lat="47.22354" lon="-1.49448">
        <ele>54</ele>
        <time>2022-07-09T09:55:40Z</time>
      </trkpt>
      <trkpt lat="47.22347" lon="-1.49463">
        <ele>55</ele>
        <time>2022-07-09T09:55:42Z</time>
      </trkpt>
      <trkpt lat="47.22343" lon="-1.49479">
        <ele>55</ele>
        <time>2022-07-09T09:55:44Z</time>
      </trkpt>
      <trkpt lat="47.22338" lon="-1.49496">
        <ele>56</ele>
        <time>2022-07-09T09:55:46Z</time>
      </trkpt>
      <trkpt lat="47.22332" lon="-1.49512">
        <ele>56</ele>
        <time>2022-07-09T09:55:48Z</time>
      </trkpt>
      <trkpt lat="47.22326" lon="-1.4953">
        <ele>55</ele>
        <time>2022-07-09T09:55:50Z</time>
      </trkpt>
      <trkpt lat="47.22321" lon="-1.49546">
        <ele>55</ele>
        <time>2022-07-09T09:55:52Z</time>
      </trkpt>
      <trkpt lat="47.22315" lon="-1.49562">
        <ele>55</ele>
        <time>2022-07-09T09:55:54Z</time>
      </trkpt>
      <trkpt lat="47.22309" lon="-1.49578">
        <ele>56</ele>
        <time>2022-07-09T09:55:56Z</time>
      </trkpt>
      <trkpt lat="47.22303" lon="-1.49594">
        <ele>56</ele>
        <time>2022-07-09T09:55:58Z</time>
      </trkpt>
      <trkpt lat="47.22297" lon="-1.49609">
        <ele>55</ele>
        <time>2022-07-09T09:56:00Z</time>
      </trkpt>
      <trkpt lat="47.22293" lon="-1.49626">
        <ele>55</ele>
        <time>2022-07-09T09:56:02Z</time>
      </trkpt>
      <trkpt lat="47.22288" lon="-1.49644">
        <ele>55</ele>
        <time>2022-07-09T09:56:04Z</time>
      </trkpt>
      <trkpt lat="47.22283" lon="-1.49661">
        <ele>55</ele>
        <time>2022-07-09T09:56:06Z</time>
      </trkpt>
      <trkpt lat="47.22278" lon="-1.49678">
        <ele>54</ele>
        <time>2022-07-09T09:56:08Z</time>
      </trkpt>
      <trkpt lat="47.22273" lon="-1.49695">
        <ele>54</ele>
        <time>2022-07-09T09:56:10Z</time>
      </trkpt>
      <trkpt lat="47.22267" lon="-1.49712">
        <ele>54</ele>
        <time>2022-07-09T09:56:12Z</time>
      </trkpt>
      <trkpt lat="47.22262" lon="-1.49729">
        <ele>55</ele>
        <time>2022-07-09T09:56:14Z</time>
      </trkpt>
      <trkpt lat="47.22256" lon="-1.49745">
        <ele>54</ele>
        <time>2022-07-09T09:56:16Z</time>
      </trkpt>
      <trkpt lat="47.22252" lon="-1.49763">
        <ele>54</ele>
        <time>2022-07-09T09:56:18Z</time>
      </trkpt>
      <trkpt lat="47.2225" lon="-1.4978">
        <ele>55</ele>
        <time>2022-07-09T09:56:20Z</time>
      </trkpt>
      <trkpt lat="47.22248" lon="-1.498">
        <ele>55</ele>
        <time>2022-07-09T09:56:22Z</time>
      </trkpt>
      <trkpt lat="47.22244" lon="-1.49817">
        <ele>55</ele>
        <time>2022-07-09T09:56:24Z</time>
      </trkpt>
      <trkpt lat="47.2224" lon="-1.49836">
        <ele>55</ele>
        <time>2022-07-09T09:56:26Z</time>
      </trkpt>
      <trkpt lat="47.22237" lon="-1.49854">
        <ele>55</ele>
        <time>2022-07-09T09:56:28Z</time>
      </trkpt>
      <trkpt lat="47.22233" lon="-1.49872">
        <ele>55</ele>
        <time>2022-07-09T09:56:30Z</time>
      </trkpt>
      <trkpt lat="47.2223" lon="-1.4989">
        <ele>55</ele>
        <time>2022-07-09T09:56:32Z</time>
      </trkpt>
      <trkpt lat="47.22226" lon="-1.49909">
        <ele>55</ele>
        <time>2022-07-09T09:56:34Z</time>
      </trkpt>
      <trkpt lat="47.22222" lon="-1.49926">
        <ele>55</ele>
        <time>2022-07-09T09:56:36Z</time>
      </trkpt>
      <trkpt lat="47.22219" lon="-1.49943">
        <ele>55</ele>
        <time>2022-07-09T09:56:38Z</time>
      </trkpt>
      <trkpt lat="47.22216" lon="-1.49963">
        <ele>56</ele>
        <time>2022-07-09T09:56:40Z</time>
      </trkpt>
      <trkpt lat="47.22211" lon="-1.49979">
        <ele>56</ele>
        <time>2022-07-09T09:56:42Z</time>
      </trkpt>
      <trkpt lat="47.22206" lon="-1.49994">
        <ele>56</ele>
        <time>2022-07-09T09:56:44Z</time>
      </trkpt>
      <trkpt lat="47.22201" lon="-1.50013">
        <ele>56</ele>
        <time>2022-07-09T09:56:46Z</time>
      </trkpt>
      <trkpt lat="47.22195" lon="-1.50032">
        <ele>56</ele>
        <time>2022-07-09T09:56:48Z</time>
      </trkpt>
      <trkpt lat="47.2219" lon="-1.5005">
        <ele>57</ele>
        <time>2022-07-09T09:56:50Z</time>
      </trkpt>
      <trkpt lat="47.22186" lon="-1.50067">
        <ele>57</ele>
        <time>2022-07-09T09:56:52Z</time>
      </trkpt>
      <trkpt lat="47.22182" lon="-1.50084">
        <ele>56</ele>
        <time>2022-07-09T09:56:54Z</time>
      </trkpt>
      <trkpt lat="47.22177" lon="-1.50103">
        <ele>56</ele>
        <time>2022-07-09T09:56:56Z</time>
      </trkpt>
      <trkpt lat="47.22171" lon="-1.5012">
        <ele>56</ele>
        <time>2022-07-09T09:56:58Z</time>
      </trkpt>
      <trkpt lat="47.22165" lon="-1.50137">
        <ele>56</ele>
        <time>2022-07-09T09:57:00Z</time>
      </trkpt>
      <trkpt lat="47.22159" lon="-1.50154">
        <ele>56</ele>
        <time>2022-07-09T09:57:02Z</time>
      </trkpt>
      <trkpt lat="47.22153" lon="-1.50171">
        <ele>56</ele>
        <time>2022-07-09T09:57:04Z</time>
      </trkpt>
      <trkpt lat="47.22148" lon="-1.50188">
        <ele>57</ele>
        <time>2022-07-09T09:57:06Z</time>
      </trkpt>
      <trkpt lat="47.22144" lon="-1.50205">
        <ele>57</ele>
        <time>2022-07-09T09:57:08Z</time>
      </trkpt>
      <trkpt lat="47.2214" lon="-1.50222">
        <ele>57</ele>
        <time>2022-07-09T09:57:10Z</time>
      </trkpt>
      <trkpt lat="47.22134" lon="-1.50238">
        <ele>56</ele>
        <time>2022-07-09T09:57:12Z</time>
      </trkpt>
      <trkpt lat="47.22129" lon="-1.50256">
        <ele>56</ele>
        <time>2022-07-09T09:57:14Z</time>
      </trkpt>
      <trkpt lat="47.22123" lon="-1.50273">
        <ele>56</ele>
        <time>2022-07-09T09:57:16Z</time>
      </trkpt>
      <trkpt lat="47.22117" lon="-1.5029">
        <ele>56</ele>
        <time>2022-07-09T09:57:18Z</time>
      </trkpt>
      <trkpt lat="47.2211" lon="-1.50304">
        <ele>56</ele>
        <time>2022-07-09T09:57:20Z</time>
      </trkpt>
      <trkpt lat="47.22104" lon="-1.50319">
        <ele>56</ele>
        <time>2022-07-09T09:57:22Z</time>
      </trkpt>
      <trkpt lat="47.22097" lon="-1.5033">
        <ele>56</ele>
        <time>2022-07-09T09:57:24Z</time>
      </trkpt>
      <trkpt lat="47.2209" lon="-1.50345">
        <ele>57</ele>
        <time>2022-07-09T09:57:26Z</time>
      </trkpt>
      <trkpt lat="47.22086" lon="-1.50364">
        <ele>57</ele>
        <time>2022-07-09T09:57:28Z</time>
      </trkpt>
      <trkpt lat="47.22081" lon="-1.50383">
        <ele>56</ele>
        <time>2022-07-09T09:57:30Z</time>
      </trkpt>
      <trkpt lat="47.22077" lon="-1.504">
        <ele>55</ele>
        <time>2022-07-09T09:57:32Z</time>
      </trkpt>
      <trkpt lat="47.22073" lon="-1.50417">
        <ele>55</ele>
        <time>2022-07-09T09:57:34Z</time>
      </trkpt>
      <trkpt lat="47.22069" lon="-1.50435">
        <ele>55</ele>
        <time>2022-07-09T09:57:36Z</time>
      </trkpt>
      <trkpt lat="47.22066" lon="-1.50454">
        <ele>54</ele>
        <time>2022-07-09T09:57:38Z</time>
      </trkpt>
      <trkpt lat="47.22063" lon="-1.50473">
        <ele>54</ele>
        <time>2022-07-09T09:57:40Z</time>
      </trkpt>
      <trkpt lat="47.22062" lon="-1.5049">
        <ele>54</ele>
        <time>2022-07-09T09:57:42Z</time>
      </trkpt>
      <trkpt lat="47.22061" lon="-1.50507">
        <ele>54</ele>
        <time>2022-07-09T09:57:44Z</time>
      </trkpt>
      <trkpt lat="47.2206" lon="-1.50526">
        <ele>54</ele>
        <time>2022-07-09T09:57:46Z</time>
      </trkpt>
      <trkpt lat="47.22058" lon="-1.50545">
        <ele>54</ele>
        <time>2022-07-09T09:57:48Z</time>
      </trkpt>
      <trkpt lat="47.22057" lon="-1.50562">
        <ele>55</ele>
        <time>2022-07-09T09:57:50Z</time>
      </trkpt>
      <trkpt lat="47.22057" lon="-1.50578">
        <ele>55</ele>
        <time>2022-07-09T09:57:52Z</time>
      </trkpt>
      <trkpt lat="47.22057" lon="-1.50595">
        <ele>56</ele>
        <time>2022-07-09T09:57:54Z</time>
      </trkpt>
      <trkpt lat="47.22056" lon="-1.50611">
        <ele>56</ele>
        <time>2022-07-09T09:57:56Z</time>
      </trkpt>
      <trkpt lat="47.22054" lon="-1.50629">
        <ele>57</ele>
        <time>2022-07-09T09:57:58Z</time>
      </trkpt>
      <trkpt lat="47.22053" lon="-1.50647">
        <ele>58</ele>
        <time>2022-07-09T09:58:00Z</time>
      </trkpt>
      <trkpt lat="47.2205" lon="-1.50665">
        <ele>58</ele>
        <time>2022-07-09T09:58:02Z</time>
      </trkpt>
      <trkpt lat="47.22048" lon="-1.5068">
        <ele>59</ele>
        <time>2022-07-09T09:58:04Z</time>
      </trkpt>
      <trkpt lat="47.22046" lon="-1.50696">
        <ele>58</ele>
        <time>2022-07-09T09:58:06Z</time>
      </trkpt>
      <trkpt lat="47.22045" lon="-1.50713">
        <ele>59</ele>
        <time>2022-07-09T09:58:08Z</time>
      </trkpt>
      <trkpt lat="47.22043" lon="-1.50732">
        <ele>60</ele>
        <time>2022-07-09T09:58:10Z</time>
      </trkpt>
      <trkpt lat="47.2204" lon="-1.5075">
        <ele>61</ele>
        <time>2022-07-09T09:58:12Z</time>
      </trkpt>
      <trkpt lat="47.22039" lon="-1.5077">
        <ele>60</ele>
        <time>2022-07-09T09:58:14Z</time>
      </trkpt>
      <trkpt lat="47.22033" lon="-1.50788">
        <ele>60</ele>
        <time>2022-07-09T09:58:16Z</time>
      </trkpt>
      <trkpt lat="47.22026" lon="-1.50805">
        <ele>59</ele>
        <time>2022-07-09T09:58:18Z</time>
      </trkpt>
      <trkpt lat="47.22021" lon="-1.50822">
        <ele>59</ele>
        <time>2022-07-09T09:58:20Z</time>
      </trkpt>
      <trkpt lat="47.22015" lon="-1.50843">
        <ele>60</ele>
        <time>2022-07-09T09:58:23Z</time>
      </trkpt>
      <trkpt lat="47.22009" lon="-1.5086">
        <ele>60</ele>
        <time>2022-07-09T09:58:25Z</time>
      </trkpt>
      <trkpt lat="47.22001" lon="-1.50878">
        <ele>60</ele>
        <time>2022-07-09T09:58:27Z</time>
      </trkpt>
      <trkpt lat="47.21995" lon="-1.50896">
        <ele>60</ele>
        <time>2022-07-09T09:58:29Z</time>
      </trkpt>
      <trkpt lat="47.21989" lon="-1.50913">
        <ele>59</ele>
        <time>2022-07-09T09:58:31Z</time>
      </trkpt>
      <trkpt lat="47.21982" lon="-1.50939">
        <ele>59</ele>
        <time>2022-07-09T09:58:34Z</time>
      </trkpt>
      <trkpt lat="47.21977" lon="-1.50955">
        <ele>59</ele>
        <time>2022-07-09T09:58:36Z</time>
      </trkpt>
      <trkpt lat="47.21972" lon="-1.50972">
        <ele>59</ele>
        <time>2022-07-09T09:58:38Z</time>
      </trkpt>
      <trkpt lat="47.21967" lon="-1.50989">
        <ele>58</ele>
        <time>2022-07-09T09:58:40Z</time>
      </trkpt>
      <trkpt lat="47.21959" lon="-1.51014">
        <ele>57</ele>
        <time>2022-07-09T09:58:43Z</time>
      </trkpt>
      <trkpt lat="47.21953" lon="-1.51039">
        <ele>56</ele>
        <time>2022-07-09T09:58:46Z</time>
      </trkpt>
      <trkpt lat="47.2195" lon="-1.51054">
        <ele>56</ele>
        <time>2022-07-09T09:58:48Z</time>
      </trkpt>
      <trkpt lat="47.2194" lon="-1.51067">
        <ele>55</ele>
        <time>2022-07-09T09:58:51Z</time>
      </trkpt>
      <trkpt lat="47.21933" lon="-1.51081">
        <ele>54</ele>
        <time>2022-07-09T09:58:53Z</time>
      </trkpt>
      <trkpt lat="47.21927" lon="-1.51098">
        <ele>54</ele>
        <time>2022-07-09T09:58:55Z</time>
      </trkpt>
      <trkpt lat="47.21922" lon="-1.51114">
        <ele>53</ele>
        <time>2022-07-09T09:58:57Z</time>
      </trkpt>
      <trkpt lat="47.21916" lon="-1.51129">
        <ele>53</ele>
        <time>2022-07-09T09:58:59Z</time>
      </trkpt>
      <trkpt lat="47.21911" lon="-1.51146">
        <ele>53</ele>
        <time>2022-07-09T09:59:01Z</time>
      </trkpt>
      <trkpt lat="47.21906" lon="-1.51163">
        <ele>53</ele>
        <time>2022-07-09T09:59:03Z</time>
      </trkpt>
      <trkpt lat="47.21901" lon="-1.51178">
        <ele>53</ele>
        <time>2022-07-09T09:59:05Z</time>
      </trkpt>
      <trkpt lat="47.21896" lon="-1.51193">
        <ele>53</ele>
        <time>2022-07-09T09:59:07Z</time>
      </trkpt>
      <trkpt lat="47.21891" lon="-1.51209">
        <ele>52</ele>
        <time>2022-07-09T09:59:09Z</time>
      </trkpt>
      <trkpt lat="47.21886" lon="-1.51225">
        <ele>52</ele>
        <time>2022-07-09T09:59:11Z</time>
      </trkpt>
      <trkpt lat="47.2188" lon="-1.51241">
        <ele>52</ele>
        <time>2022-07-09T09:59:13Z</time>
      </trkpt>
      <trkpt lat="47.21873" lon="-1.51265">
        <ele>52</ele>
        <time>2022-07-09T09:59:16Z</time>
      </trkpt>
      <trkpt lat="47.21867" lon="-1.51281">
        <ele>52</ele>
        <time>2022-07-09T09:59:18Z</time>
      </trkpt>
      <trkpt lat="47.21862" lon="-1.51297">
        <ele>52</ele>
        <time>2022-07-09T09:59:20Z</time>
      </trkpt>
      <trkpt lat="47.21857" lon="-1.51313">
        <ele>52</ele>
        <time>2022-07-09T09:59:22Z</time>
      </trkpt>
      <trkpt lat="47.21852" lon="-1.5133">
        <ele>53</ele>
        <time>2022-07-09T09:59:24Z</time>
      </trkpt>
      <trkpt lat="47.21847" lon="-1.51346">
        <ele>53</ele>
        <time>2022-07-09T09:59:26Z</time>
      </trkpt>
      <trkpt lat="47.21843" lon="-1.51362">
        <ele>53</ele>
        <time>2022-07-09T09:59:28Z</time>
      </trkpt>
      <trkpt lat="47.21839" lon="-1.51379">
        <ele>53</ele>
        <time>2022-07-09T09:59:30Z</time>
      </trkpt>
      <trkpt lat="47.21834" lon="-1.51396">
        <ele>53</ele>
        <time>2022-07-09T09:59:32Z</time>
      </trkpt>
      <trkpt lat="47.2183" lon="-1.51414">
        <ele>53</ele>
        <time>2022-07-09T09:59:34Z</time>
      </trkpt>
      <trkpt lat="47.21826" lon="-1.51431">
        <ele>53</ele>
        <time>2022-07-09T09:59:36Z</time>
      </trkpt>
      <trkpt lat="47.21823" lon="-1.51449">
        <ele>53</ele>
        <time>2022-07-09T09:59:38Z</time>
      </trkpt>
      <trkpt lat="47.21819" lon="-1.51467">
        <ele>52</ele>
        <time>2022-07-09T09:59:40Z</time>
      </trkpt>
      <trkpt lat="47.21815" lon="-1.51485">
        <ele>52</ele>
        <time>2022-07-09T09:59:42Z</time>
      </trkpt>
      <trkpt lat="47.2181" lon="-1.51502">
        <ele>52</ele>
        <time>2022-07-09T09:59:44Z</time>
      </trkpt>
      <trkpt lat="47.21803" lon="-1.51518">
        <ele>51</ele>
        <time>2022-07-09T09:59:46Z</time>
      </trkpt>
      <trkpt lat="47.21797" lon="-1.51533">
        <ele>52</ele>
        <time>2022-07-09T09:59:48Z</time>
      </trkpt>
      <trkpt lat="47.21791" lon="-1.51547">
        <ele>52</ele>
        <time>2022-07-09T09:59:50Z</time>
      </trkpt>
      <trkpt lat="47.21784" lon="-1.51563">
        <ele>52</ele>
        <time>2022-07-09T09:59:52Z</time>
      </trkpt>
      <trkpt lat="47.21776" lon="-1.51577">
        <ele>52</ele>
        <time>2022-07-09T09:59:54Z</time>
      </trkpt>
      <trkpt lat="47.21768" lon="-1.51591">
        <ele>52</ele>
        <time>2022-07-09T09:59:56Z</time>
      </trkpt>
      <trkpt lat="47.21759" lon="-1.51603">
        <ele>52</ele>
        <time>2022-07-09T09:59:58Z</time>
      </trkpt>
      <trkpt lat="47.21751" lon="-1.51616">
        <ele>52</ele>
        <time>2022-07-09T10:00:00Z</time>
      </trkpt>
      <trkpt lat="47.21744" lon="-1.51631">
        <ele>52</ele>
        <time>2022-07-09T10:00:02Z</time>
      </trkpt>
      <trkpt lat="47.21737" lon="-1.51646">
        <ele>52</ele>
        <time>2022-07-09T10:00:04Z</time>
      </trkpt>
      <trkpt lat="47.2173" lon="-1.51661">
        <ele>51</ele>
        <time>2022-07-09T10:00:06Z</time>
      </trkpt>
      <trkpt lat="47.21723" lon="-1.51676">
        <ele>52</ele>
        <time>2022-07-09T10:00:08Z</time>
      </trkpt>
      <trkpt lat="47.21717" lon="-1.5169">
        <ele>52</ele>
        <time>2022-07-09T10:00:10Z</time>
      </trkpt>
      <trkpt lat="47.21711" lon="-1.51703">
        <ele>53</ele>
        <time>2022-07-09T10:00:12Z</time>
      </trkpt>
      <trkpt lat="47.21705" lon="-1.51717">
        <ele>53</ele>
        <time>2022-07-09T10:00:14Z</time>
      </trkpt>
      <trkpt lat="47.21698" lon="-1.51733">
        <ele>54</ele>
        <time>2022-07-09T10:00:16Z</time>
      </trkpt>
      <trkpt lat="47.21691" lon="-1.5175">
        <ele>54</ele>
        <time>2022-07-09T10:00:18Z</time>
      </trkpt>
      <trkpt lat="47.21683" lon="-1.51766">
        <ele>54</ele>
        <time>2022-07-09T10:00:20Z</time>
      </trkpt>
      <trkpt lat="47.21676" lon="-1.51782">
        <ele>54</ele>
        <time>2022-07-09T10:00:22Z</time>
      </trkpt>
      <trkpt lat="47.21669" lon="-1.51797">
        <ele>54</ele>
        <time>2022-07-09T10:00:24Z</time>
      </trkpt>
      <trkpt lat="47.21663" lon="-1.51812">
        <ele>54</ele>
        <time>2022-07-09T10:00:26Z</time>
      </trkpt>
      <trkpt lat="47.21657" lon="-1.51828">
        <ele>53</ele>
        <time>2022-07-09T10:00:28Z</time>
      </trkpt>
      <trkpt lat="47.21651" lon="-1.51844">
        <ele>53</ele>
        <time>2022-07-09T10:00:30Z</time>
      </trkpt>
      <trkpt lat="47.21647" lon="-1.51858">
        <ele>53</ele>
        <time>2022-07-09T10:00:32Z</time>
      </trkpt>
      <trkpt lat="47.21644" lon="-1.51876">
        <ele>54</ele>
        <time>2022-07-09T10:00:34Z</time>
      </trkpt>
      <trkpt lat="47.21638" lon="-1.51892">
        <ele>54</ele>
        <time>2022-07-09T10:00:36Z</time>
      </trkpt>
      <trkpt lat="47.21629" lon="-1.51906">
        <ele>54</ele>
        <time>2022-07-09T10:00:38Z</time>
      </trkpt>
      <trkpt lat="47.21624" lon="-1.51922">
        <ele>54</ele>
        <time>2022-07-09T10:00:40Z</time>
      </trkpt>
      <trkpt lat="47.2162" lon="-1.5194">
        <ele>54</ele>
        <time>2022-07-09T10:00:42Z</time>
      </trkpt>
      <trkpt lat="47.21618" lon="-1.51957">
        <ele>53</ele>
        <time>2022-07-09T10:00:44Z</time>
      </trkpt>
      <trkpt lat="47.21615" lon="-1.51974">
        <ele>53</ele>
        <time>2022-07-09T10:00:46Z</time>
      </trkpt>
      <trkpt lat="47.21608" lon="-1.51986">
        <ele>52</ele>
        <time>2022-07-09T10:00:48Z</time>
      </trkpt>
      <trkpt lat="47.21602" lon="-1.51999">
        <ele>53</ele>
        <time>2022-07-09T10:00:50Z</time>
      </trkpt>
      <trkpt lat="47.21597" lon="-1.52017">
        <ele>54</ele>
        <time>2022-07-09T10:00:52Z</time>
      </trkpt>
      <trkpt lat="47.2159" lon="-1.52034">
        <ele>53</ele>
        <time>2022-07-09T10:00:54Z</time>
      </trkpt>
      <trkpt lat="47.21584" lon="-1.52052">
        <ele>53</ele>
        <time>2022-07-09T10:00:56Z</time>
      </trkpt>
      <trkpt lat="47.21579" lon="-1.52069">
        <ele>53</ele>
        <time>2022-07-09T10:00:58Z</time>
      </trkpt>
      <trkpt lat="47.21574" lon="-1.52086">
        <ele>53</ele>
        <time>2022-07-09T10:01:00Z</time>
      </trkpt>
      <trkpt lat="47.21568" lon="-1.52104">
        <ele>52</ele>
        <time>2022-07-09T10:01:02Z</time>
      </trkpt>
      <trkpt lat="47.21563" lon="-1.52121">
        <ele>53</ele>
        <time>2022-07-09T10:01:04Z</time>
      </trkpt>
      <trkpt lat="47.21557" lon="-1.52138">
        <ele>53</ele>
        <time>2022-07-09T10:01:06Z</time>
      </trkpt>
      <trkpt lat="47.21552" lon="-1.52155">
        <ele>52</ele>
        <time>2022-07-09T10:01:08Z</time>
      </trkpt>
      <trkpt lat="47.21546" lon="-1.52172">
        <ele>52</ele>
        <time>2022-07-09T10:01:10Z</time>
      </trkpt>
      <trkpt lat="47.2154" lon="-1.5219">
        <ele>52</ele>
        <time>2022-07-09T10:01:12Z</time>
      </trkpt>
      <trkpt lat="47.21535" lon="-1.52207">
        <ele>52</ele>
        <time>2022-07-09T10:01:14Z</time>
      </trkpt>
      <trkpt lat="47.21529" lon="-1.52223">
        <ele>52</ele>
        <time>2022-07-09T10:01:16Z</time>
      </trkpt>
      <trkpt lat="47.21524" lon="-1.5224">
        <ele>51</ele>
        <time>2022-07-09T10:01:18Z</time>
      </trkpt>
      <trkpt lat="47.21519" lon="-1.52257">
        <ele>52</ele>
        <time>2022-07-09T10:01:20Z</time>
      </trkpt>
      <trkpt lat="47.21514" lon="-1.52274">
        <ele>52</ele>
        <time>2022-07-09T10:01:22Z</time>
      </trkpt>
      <trkpt lat="47.21508" lon="-1.5229">
        <ele>52</ele>
        <time>2022-07-09T10:01:24Z</time>
      </trkpt>
      <trkpt lat="47.21502" lon="-1.52307">
        <ele>52</ele>
        <time>2022-07-09T10:01:26Z</time>
      </trkpt>
      <trkpt lat="47.21497" lon="-1.52325">
        <ele>52</ele>
        <time>2022-07-09T10:01:28Z</time>
      </trkpt>
      <trkpt lat="47.21491" lon="-1.52341">
        <ele>52</ele>
        <time>2022-07-09T10:01:30Z</time>
      </trkpt>
      <trkpt lat="47.21487" lon="-1.52359">
        <ele>52</ele>
        <time>2022-07-09T10:01:32Z</time>
      </trkpt>
      <trkpt lat="47.21481" lon="-1.52376">
        <ele>52</ele>
        <time>2022-07-09T10:01:34Z</time>
      </trkpt>
      <trkpt lat="47.21476" lon="-1.52392">
        <ele>52</ele>
        <time>2022-07-09T10:01:36Z</time>
      </trkpt>
      <trkpt lat="47.21471" lon="-1.52409">
        <ele>52</ele>
        <time>2022-07-09T10:01:38Z</time>
      </trkpt>
      <trkpt lat="47.21465" lon="-1.52426">
        <ele>52</ele>
        <time>2022-07-09T10:01:40Z</time>
      </trkpt>
      <trkpt lat="47.21459" lon="-1.52443">
        <ele>51</ele>
        <time>2022-07-09T10:01:42Z</time>
      </trkpt>
      <trkpt lat="47.21454" lon="-1.52459">
        <ele>51</ele>
        <time>2022-07-09T10:01:44Z</time>
      </trkpt>
      <trkpt lat="47.2145" lon="-1.52475">
        <ele>51</ele>
        <time>2022-07-09T10:01:46Z</time>
      </trkpt>
      <trkpt lat="47.21445" lon="-1.52492">
        <ele>52</ele>
        <time>2022-07-09T10:01:48Z</time>
      </trkpt>
      <trkpt lat="47.21439" lon="-1.52509">
        <ele>52</ele>
        <time>2022-07-09T10:01:50Z</time>
      </trkpt>
      <trkpt lat="47.21432" lon="-1.52526">
        <ele>52</ele>
        <time>2022-07-09T10:01:52Z</time>
      </trkpt>
      <trkpt lat="47.21426" lon="-1.52543">
        <ele>52</ele>
        <time>2022-07-09T10:01:54Z</time>
      </trkpt>
      <trkpt lat="47.21421" lon="-1.5256">
        <ele>52</ele>
        <time>2022-07-09T10:01:56Z</time>
      </trkpt>
      <trkpt lat="47.21415" lon="-1.52577">
        <ele>52</ele>
        <time>2022-07-09T10:01:58Z</time>
      </trkpt>
      <trkpt lat="47.2141" lon="-1.52593">
        <ele>52</ele>
        <time>2022-07-09T10:02:00Z</time>
      </trkpt>
      <trkpt lat="47.21405" lon="-1.52611">
        <ele>52</ele>
        <time>2022-07-09T10:02:02Z</time>
      </trkpt>
      <trkpt lat="47.21399" lon="-1.52628">
        <ele>52</ele>
        <time>2022-07-09T10:02:04Z</time>
      </trkpt>
      <trkpt lat="47.21394" lon="-1.52645">
        <ele>52</ele>
        <time>2022-07-09T10:02:06Z</time>
      </trkpt>
      <trkpt lat="47.21391" lon="-1.52661">
        <ele>52</ele>
        <time>2022-07-09T10:02:08Z</time>
      </trkpt>
      <trkpt lat="47.21387" lon="-1.52675">
        <ele>52</ele>
        <time>2022-07-09T10:02:10Z</time>
      </trkpt>
      <trkpt lat="47.21383" lon="-1.52696">
        <ele>55</ele>
        <time>2022-07-09T10:02:12Z</time>
      </trkpt>
      <trkpt lat="47.21378" lon="-1.52714">
        <ele>55</ele>
        <time>2022-07-09T10:02:14Z</time>
      </trkpt>
      <trkpt lat="47.21374" lon="-1.52732">
        <ele>55</ele>
        <time>2022-07-09T10:02:16Z</time>
      </trkpt>
      <trkpt lat="47.21371" lon="-1.52752">
        <ele>55</ele>
        <time>2022-07-09T10:02:18Z</time>
      </trkpt>
      <trkpt lat="47.21366" lon="-1.52771">
        <ele>54</ele>
        <time>2022-07-09T10:02:20Z</time>
      </trkpt>
      <trkpt lat="47.21365" lon="-1.5279">
        <ele>54</ele>
        <time>2022-07-09T10:02:22Z</time>
      </trkpt>
      <trkpt lat="47.21363" lon="-1.52806">
        <ele>54</ele>
        <time>2022-07-09T10:02:24Z</time>
      </trkpt>
      <trkpt lat="47.2136" lon="-1.52822">
        <ele>54</ele>
        <time>2022-07-09T10:02:26Z</time>
      </trkpt>
      <trkpt lat="47.21356" lon="-1.52839">
        <ele>54</ele>
        <time>2022-07-09T10:02:28Z</time>
      </trkpt>
      <trkpt lat="47.21352" lon="-1.52858">
        <ele>54</ele>
        <time>2022-07-09T10:02:30Z</time>
      </trkpt>
      <trkpt lat="47.21348" lon="-1.52876">
        <ele>53</ele>
        <time>2022-07-09T10:02:32Z</time>
      </trkpt>
      <trkpt lat="47.21344" lon="-1.52895">
        <ele>53</ele>
        <time>2022-07-09T10:02:34Z</time>
      </trkpt>
      <trkpt lat="47.21341" lon="-1.52913">
        <ele>52</ele>
        <time>2022-07-09T10:02:36Z</time>
      </trkpt>
      <trkpt lat="47.21338" lon="-1.52932">
        <ele>52</ele>
        <time>2022-07-09T10:02:38Z</time>
      </trkpt>
      <trkpt lat="47.21337" lon="-1.5295">
        <ele>51</ele>
        <time>2022-07-09T10:02:40Z</time>
      </trkpt>
      <trkpt lat="47.21339" lon="-1.52969">
        <ele>52</ele>
        <time>2022-07-09T10:02:42Z</time>
      </trkpt>
      <trkpt lat="47.21335" lon="-1.52986">
        <ele>53</ele>
        <time>2022-07-09T10:02:44Z</time>
      </trkpt>
      <trkpt lat="47.21333" lon="-1.53004">
        <ele>54</ele>
        <time>2022-07-09T10:02:46Z</time>
      </trkpt>
      <trkpt lat="47.2133" lon="-1.53022">
        <ele>53</ele>
        <time>2022-07-09T10:02:48Z</time>
      </trkpt>
      <trkpt lat="47.21328" lon="-1.53041">
        <ele>53</ele>
        <time>2022-07-09T10:02:50Z</time>
      </trkpt>
      <trkpt lat="47.21326" lon="-1.53059">
        <ele>53</ele>
        <time>2022-07-09T10:02:52Z</time>
      </trkpt>
      <trkpt lat="47.21325" lon="-1.53077">
        <ele>53</ele>
        <time>2022-07-09T10:02:54Z</time>
      </trkpt>
      <trkpt lat="47.21325" lon="-1.53096">
        <ele>54</ele>
        <time>2022-07-09T10:02:56Z</time>
      </trkpt>
      <trkpt lat="47.21323" lon="-1.53113">
        <ele>54</ele>
        <time>2022-07-09T10:02:58Z</time>
      </trkpt>
      <trkpt lat="47.21319" lon="-1.53129">
        <ele>53</ele>
        <time>2022-07-09T10:03:00Z</time>
      </trkpt>
      <trkpt lat="47.21317" lon="-1.53146">
        <ele>54</ele>
        <time>2022-07-09T10:03:02Z</time>
      </trkpt>
      <trkpt lat="47.21314" lon="-1.53163">
        <ele>54</ele>
        <time>2022-07-09T10:03:04Z</time>
      </trkpt>
      <trkpt lat="47.21312" lon="-1.53181">
        <ele>54</ele>
        <time>2022-07-09T10:03:06Z</time>
      </trkpt>
      <trkpt lat="47.2131" lon="-1.53199">
        <ele>55</ele>
        <time>2022-07-09T10:03:08Z</time>
      </trkpt>
      <trkpt lat="47.21308" lon="-1.53217">
        <ele>55</ele>
        <time>2022-07-09T10:03:10Z</time>
      </trkpt>
      <trkpt lat="47.21307" lon="-1.53236">
        <ele>55</ele>
        <time>2022-07-09T10:03:12Z</time>
      </trkpt>
      <trkpt lat="47.21308" lon="-1.53255">
        <ele>55</ele>
        <time>2022-07-09T10:03:14Z</time>
      </trkpt>
      <trkpt lat="47.21308" lon="-1.53274">
        <ele>55</ele>
        <time>2022-07-09T10:03:16Z</time>
      </trkpt>
      <trkpt lat="47.21308" lon="-1.53292">
        <ele>55</ele>
        <time>2022-07-09T10:03:18Z</time>
      </trkpt>
      <trkpt lat="47.21306" lon="-1.5331">
        <ele>56</ele>
        <time>2022-07-09T10:03:20Z</time>
      </trkpt>
      <trkpt lat="47.21304" lon="-1.53329">
        <ele>56</ele>
        <time>2022-07-09T10:03:22Z</time>
      </trkpt>
      <trkpt lat="47.21301" lon="-1.53346">
        <ele>56</ele>
        <time>2022-07-09T10:03:24Z</time>
      </trkpt>
      <trkpt lat="47.21298" lon="-1.53364">
        <ele>56</ele>
        <time>2022-07-09T10:03:26Z</time>
      </trkpt>
      <trkpt lat="47.21295" lon="-1.53382">
        <ele>56</ele>
        <time>2022-07-09T10:03:28Z</time>
      </trkpt>
      <trkpt lat="47.21292" lon="-1.53401">
        <ele>57</ele>
        <time>2022-07-09T10:03:30Z</time>
      </trkpt>
      <trkpt lat="47.21291" lon="-1.53419">
        <ele>57</ele>
        <time>2022-07-09T10:03:32Z</time>
      </trkpt>
      <trkpt lat="47.21289" lon="-1.53436">
        <ele>56</ele>
        <time>2022-07-09T10:03:34Z</time>
      </trkpt>
      <trkpt lat="47.2129" lon="-1.53454">
        <ele>57</ele>
        <time>2022-07-09T10:03:36Z</time>
      </trkpt>
      <trkpt lat="47.21295" lon="-1.53471">
        <ele>57</ele>
        <time>2022-07-09T10:03:38Z</time>
      </trkpt>
      <trkpt lat="47.21298" lon="-1.53488">
        <ele>58</ele>
        <time>2022-07-09T10:03:40Z</time>
      </trkpt>
      <trkpt lat="47.213" lon="-1.53506">
        <ele>58</ele>
        <time>2022-07-09T10:03:42Z</time>
      </trkpt>
      <trkpt lat="47.213" lon="-1.53523">
        <ele>58</ele>
        <time>2022-07-09T10:03:44Z</time>
      </trkpt>
      <trkpt lat="47.21301" lon="-1.53542">
        <ele>59</ele>
        <time>2022-07-09T10:03:46Z</time>
      </trkpt>
      <trkpt lat="47.21301" lon="-1.53559">
        <ele>59</ele>
        <time>2022-07-09T10:03:48Z</time>
      </trkpt>
      <trkpt lat="47.21301" lon="-1.53576">
        <ele>59</ele>
        <time>2022-07-09T10:03:50Z</time>
      </trkpt>
      <trkpt lat="47.21301" lon="-1.53593">
        <ele>59</ele>
        <time>2022-07-09T10:03:52Z</time>
      </trkpt>
      <trkpt lat="47.21301" lon="-1.53609">
        <ele>59</ele>
        <time>2022-07-09T10:03:54Z</time>
      </trkpt>
      <trkpt lat="47.21299" lon="-1.53623">
        <ele>60</ele>
        <time>2022-07-09T10:03:56Z</time>
      </trkpt>
      <trkpt lat="47.21292" lon="-1.53637">
        <ele>60</ele>
        <time>2022-07-09T10:03:59Z</time>
      </trkpt>
      <trkpt lat="47.21288" lon="-1.53654">
        <ele>60</ele>
        <time>2022-07-09T10:04:02Z</time>
      </trkpt>
      <trkpt lat="47.21277" lon="-1.53658">
        <ele>58</ele>
        <time>2022-07-09T10:04:05Z</time>
      </trkpt>
      <trkpt lat="47.21263" lon="-1.53655">
        <ele>60</ele>
        <time>2022-07-09T10:04:08Z</time>
      </trkpt>
      <trkpt lat="47.21251" lon="-1.53648">
        <ele>62</ele>
        <time>2022-07-09T10:04:11Z</time>
      </trkpt>
      <trkpt lat="47.21242" lon="-1.53642">
        <ele>61</ele>
        <time>2022-07-09T10:04:13Z</time>
      </trkpt>
      <trkpt lat="47.21231" lon="-1.53635">
        <ele>61</ele>
        <time>2022-07-09T10:04:15Z</time>
      </trkpt>
      <trkpt lat="47.2122" lon="-1.5363">
        <ele>61</ele>
        <time>2022-07-09T10:04:17Z</time>
      </trkpt>
      <trkpt lat="47.2121" lon="-1.53625">
        <ele>60</ele>
        <time>2022-07-09T10:04:19Z</time>
      </trkpt>
      <trkpt lat="47.21202" lon="-1.53619">
        <ele>59</ele>
        <time>2022-07-09T10:04:21Z</time>
      </trkpt>
      <trkpt lat="47.21192" lon="-1.53615">
        <ele>59</ele>
        <time>2022-07-09T10:04:23Z</time>
      </trkpt>
      <trkpt lat="47.21182" lon="-1.5361">
        <ele>59</ele>
        <time>2022-07-09T10:04:25Z</time>
      </trkpt>
      <trkpt lat="47.21173" lon="-1.53606">
        <ele>59</ele>
        <time>2022-07-09T10:04:27Z</time>
      </trkpt>
      <trkpt lat="47.21163" lon="-1.53601">
        <ele>59</ele>
        <time>2022-07-09T10:04:29Z</time>
      </trkpt>
      <trkpt lat="47.21153" lon="-1.53596">
        <ele>59</ele>
        <time>2022-07-09T10:04:31Z</time>
      </trkpt>
      <trkpt lat="47.21143" lon="-1.53591">
        <ele>58</ele>
        <time>2022-07-09T10:04:33Z</time>
      </trkpt>
      <trkpt lat="47.21133" lon="-1.53587">
        <ele>58</ele>
        <time>2022-07-09T10:04:35Z</time>
      </trkpt>
      <trkpt lat="47.21123" lon="-1.53582">
        <ele>58</ele>
        <time>2022-07-09T10:04:37Z</time>
      </trkpt>
      <trkpt lat="47.21113" lon="-1.53578">
        <ele>57</ele>
        <time>2022-07-09T10:04:39Z</time>
      </trkpt>
      <trkpt lat="47.21103" lon="-1.53573">
        <ele>56</ele>
        <time>2022-07-09T10:04:41Z</time>
      </trkpt>
      <trkpt lat="47.21092" lon="-1.53568">
        <ele>55</ele>
        <time>2022-07-09T10:04:43Z</time>
      </trkpt>
      <trkpt lat="47.21081" lon="-1.53561">
        <ele>54</ele>
        <time>2022-07-09T10:04:45Z</time>
      </trkpt>
      <trkpt lat="47.21068" lon="-1.53561">
        <ele>54</ele>
        <time>2022-07-09T10:04:47Z</time>
      </trkpt>
      <trkpt lat="47.21057" lon="-1.53574">
        <ele>53</ele>
        <time>2022-07-09T10:04:49Z</time>
      </trkpt>
      <trkpt lat="47.21053" lon="-1.53592">
        <ele>54</ele>
        <time>2022-07-09T10:04:51Z</time>
      </trkpt>
      <trkpt lat="47.21052" lon="-1.53612">
        <ele>54</ele>
        <time>2022-07-09T10:04:53Z</time>
      </trkpt>
      <trkpt lat="47.21051" lon="-1.53632">
        <ele>55</ele>
        <time>2022-07-09T10:04:55Z</time>
      </trkpt>
      <trkpt lat="47.2105" lon="-1.53651">
        <ele>55</ele>
        <time>2022-07-09T10:04:57Z</time>
      </trkpt>
      <trkpt lat="47.21048" lon="-1.5367">
        <ele>55</ele>
        <time>2022-07-09T10:04:59Z</time>
      </trkpt>
      <trkpt lat="47.21044" lon="-1.53688">
        <ele>56</ele>
        <time>2022-07-09T10:05:01Z</time>
      </trkpt>
      <trkpt lat="47.21042" lon="-1.53706">
        <ele>56</ele>
        <time>2022-07-09T10:05:03Z</time>
      </trkpt>
      <trkpt lat="47.21039" lon="-1.53725">
        <ele>57</ele>
        <time>2022-07-09T10:05:05Z</time>
      </trkpt>
      <trkpt lat="47.21035" lon="-1.53744">
        <ele>57</ele>
        <time>2022-07-09T10:05:07Z</time>
      </trkpt>
      <trkpt lat="47.21032" lon="-1.53762">
        <ele>56</ele>
        <time>2022-07-09T10:05:09Z</time>
      </trkpt>
      <trkpt lat="47.21028" lon="-1.53779">
        <ele>56</ele>
        <time>2022-07-09T10:05:11Z</time>
      </trkpt>
      <trkpt lat="47.21024" lon="-1.53794">
        <ele>55</ele>
        <time>2022-07-09T10:05:13Z</time>
      </trkpt>
      <trkpt lat="47.21022" lon="-1.5381">
        <ele>56</ele>
        <time>2022-07-09T10:05:15Z</time>
      </trkpt>
      <trkpt lat="47.21021" lon="-1.5383">
        <ele>56</ele>
        <time>2022-07-09T10:05:17Z</time>
      </trkpt>
      <trkpt lat="47.21015" lon="-1.53847">
        <ele>55</ele>
        <time>2022-07-09T10:05:19Z</time>
      </trkpt>
      <trkpt lat="47.21009" lon="-1.53863">
        <ele>55</ele>
        <time>2022-07-09T10:05:21Z</time>
      </trkpt>
      <trkpt lat="47.21003" lon="-1.53879">
        <ele>55</ele>
        <time>2022-07-09T10:05:23Z</time>
      </trkpt>
      <trkpt lat="47.20996" lon="-1.53895">
        <ele>55</ele>
        <time>2022-07-09T10:05:25Z</time>
      </trkpt>
      <trkpt lat="47.20994" lon="-1.53913">
        <ele>55</ele>
        <time>2022-07-09T10:05:27Z</time>
      </trkpt>
      <trkpt lat="47.2099" lon="-1.53931">
        <ele>55</ele>
        <time>2022-07-09T10:05:29Z</time>
      </trkpt>
      <trkpt lat="47.20985" lon="-1.53949">
        <ele>56</ele>
        <time>2022-07-09T10:05:31Z</time>
      </trkpt>
      <trkpt lat="47.2098" lon="-1.53967">
        <ele>55</ele>
        <time>2022-07-09T10:05:33Z</time>
      </trkpt>
      <trkpt lat="47.20976" lon="-1.53985">
        <ele>56</ele>
        <time>2022-07-09T10:05:35Z</time>
      </trkpt>
      <trkpt lat="47.20971" lon="-1.54003">
        <ele>55</ele>
        <time>2022-07-09T10:05:37Z</time>
      </trkpt>
      <trkpt lat="47.20965" lon="-1.54019">
        <ele>56</ele>
        <time>2022-07-09T10:05:39Z</time>
      </trkpt>
      <trkpt lat="47.20959" lon="-1.54037">
        <ele>56</ele>
        <time>2022-07-09T10:05:41Z</time>
      </trkpt>
      <trkpt lat="47.20954" lon="-1.54056">
        <ele>56</ele>
        <time>2022-07-09T10:05:43Z</time>
      </trkpt>
      <trkpt lat="47.2095" lon="-1.54075">
        <ele>56</ele>
        <time>2022-07-09T10:05:45Z</time>
      </trkpt>
      <trkpt lat="47.20944" lon="-1.54093">
        <ele>56</ele>
        <time>2022-07-09T10:05:47Z</time>
      </trkpt>
      <trkpt lat="47.20938" lon="-1.54112">
        <ele>56</ele>
        <time>2022-07-09T10:05:49Z</time>
      </trkpt>
      <trkpt lat="47.20931" lon="-1.54131">
        <ele>56</ele>
        <time>2022-07-09T10:05:51Z</time>
      </trkpt>
      <trkpt lat="47.20927" lon="-1.54147">
        <ele>56</ele>
        <time>2022-07-09T10:05:53Z</time>
      </trkpt>
      <trkpt lat="47.20923" lon="-1.54165">
        <ele>57</ele>
        <time>2022-07-09T10:05:55Z</time>
      </trkpt>
      <trkpt lat="47.20919" lon="-1.54186">
        <ele>59</ele>
        <time>2022-07-09T10:05:57Z</time>
      </trkpt>
      <trkpt lat="47.20911" lon="-1.54204">
        <ele>60</ele>
        <time>2022-07-09T10:05:59Z</time>
      </trkpt>
      <trkpt lat="47.20904" lon="-1.54222">
        <ele>61</ele>
        <time>2022-07-09T10:06:01Z</time>
      </trkpt>
      <trkpt lat="47.20898" lon="-1.5424">
        <ele>61</ele>
        <time>2022-07-09T10:06:03Z</time>
      </trkpt>
      <trkpt lat="47.20892" lon="-1.54256">
        <ele>61</ele>
        <time>2022-07-09T10:06:05Z</time>
      </trkpt>
      <trkpt lat="47.20886" lon="-1.54272">
        <ele>59</ele>
        <time>2022-07-09T10:06:07Z</time>
      </trkpt>
      <trkpt lat="47.20881" lon="-1.54288">
        <ele>58</ele>
        <time>2022-07-09T10:06:09Z</time>
      </trkpt>
      <trkpt lat="47.20876" lon="-1.54304">
        <ele>58</ele>
        <time>2022-07-09T10:06:11Z</time>
      </trkpt>
      <trkpt lat="47.20871" lon="-1.54321">
        <ele>59</ele>
        <time>2022-07-09T10:06:13Z</time>
      </trkpt>
      <trkpt lat="47.20866" lon="-1.54337">
        <ele>60</ele>
        <time>2022-07-09T10:06:15Z</time>
      </trkpt>
      <trkpt lat="47.20861" lon="-1.54351">
        <ele>61</ele>
        <time>2022-07-09T10:06:17Z</time>
      </trkpt>
      <trkpt lat="47.20855" lon="-1.54369">
        <ele>61</ele>
        <time>2022-07-09T10:06:19Z</time>
      </trkpt>
      <trkpt lat="47.2085" lon="-1.54386">
        <ele>61</ele>
        <time>2022-07-09T10:06:21Z</time>
      </trkpt>
      <trkpt lat="47.20845" lon="-1.54402">
        <ele>61</ele>
        <time>2022-07-09T10:06:23Z</time>
      </trkpt>
      <trkpt lat="47.20839" lon="-1.54418">
        <ele>61</ele>
        <time>2022-07-09T10:06:25Z</time>
      </trkpt>
      <trkpt lat="47.20833" lon="-1.54434">
        <ele>61</ele>
        <time>2022-07-09T10:06:27Z</time>
      </trkpt>
      <trkpt lat="47.20828" lon="-1.5445">
        <ele>61</ele>
        <time>2022-07-09T10:06:29Z</time>
      </trkpt>
      <trkpt lat="47.20824" lon="-1.54467">
        <ele>60</ele>
        <time>2022-07-09T10:06:31Z</time>
      </trkpt>
      <trkpt lat="47.20819" lon="-1.54484">
        <ele>61</ele>
        <time>2022-07-09T10:06:33Z</time>
      </trkpt>
      <trkpt lat="47.20813" lon="-1.54501">
        <ele>61</ele>
        <time>2022-07-09T10:06:35Z</time>
      </trkpt>
      <trkpt lat="47.20808" lon="-1.54517">
        <ele>62</ele>
        <time>2022-07-09T10:06:37Z</time>
      </trkpt>
      <trkpt lat="47.20803" lon="-1.54534">
        <ele>61</ele>
        <time>2022-07-09T10:06:39Z</time>
      </trkpt>
      <trkpt lat="47.20798" lon="-1.54551">
        <ele>61</ele>
        <time>2022-07-09T10:06:41Z</time>
      </trkpt>
      <trkpt lat="47.20794" lon="-1.54567">
        <ele>61</ele>
        <time>2022-07-09T10:06:43Z</time>
      </trkpt>
      <trkpt lat="47.20789" lon="-1.54584">
        <ele>61</ele>
        <time>2022-07-09T10:06:45Z</time>
      </trkpt>
      <trkpt lat="47.20783" lon="-1.546">
        <ele>61</ele>
        <time>2022-07-09T10:06:47Z</time>
      </trkpt>
      <trkpt lat="47.20778" lon="-1.54618">
        <ele>60</ele>
        <time>2022-07-09T10:06:49Z</time>
      </trkpt>
      <trkpt lat="47.20772" lon="-1.54635">
        <ele>60</ele>
        <time>2022-07-09T10:06:51Z</time>
      </trkpt>
      <trkpt lat="47.20767" lon="-1.54652">
        <ele>58</ele>
        <time>2022-07-09T10:06:53Z</time>
      </trkpt>
      <trkpt lat="47.20762" lon="-1.54669">
        <ele>58</ele>
        <time>2022-07-09T10:06:55Z</time>
      </trkpt>
      <trkpt lat="47.20757" lon="-1.54685">
        <ele>58</ele>
        <time>2022-07-09T10:06:57Z</time>
      </trkpt>
      <trkpt lat="47.20751" lon="-1.54702">
        <ele>58</ele>
        <time>2022-07-09T10:06:59Z</time>
      </trkpt>
      <trkpt lat="47.20746" lon="-1.5472">
        <ele>58</ele>
        <time>2022-07-09T10:07:01Z</time>
      </trkpt>
      <trkpt lat="47.2074" lon="-1.54737">
        <ele>57</ele>
        <time>2022-07-09T10:07:03Z</time>
      </trkpt>
      <trkpt lat="47.20735" lon="-1.54752">
        <ele>57</ele>
        <time>2022-07-09T10:07:05Z</time>
      </trkpt>
      <trkpt lat="47.2073" lon="-1.54767">
        <ele>57</ele>
        <time>2022-07-09T10:07:07Z</time>
      </trkpt>
      <trkpt lat="47.20726" lon="-1.54782">
        <ele>57</ele>
        <time>2022-07-09T10:07:09Z</time>
      </trkpt>
      <trkpt lat="47.20722" lon="-1.54796">
        <ele>56</ele>
        <time>2022-07-09T10:07:11Z</time>
      </trkpt>
      <trkpt lat="47.20719" lon="-1.54811">
        <ele>56</ele>
        <time>2022-07-09T10:07:13Z</time>
      </trkpt>
      <trkpt lat="47.20715" lon="-1.54826">
        <ele>56</ele>
        <time>2022-07-09T10:07:15Z</time>
      </trkpt>
      <trkpt lat="47.20713" lon="-1.54841">
        <ele>55</ele>
        <time>2022-07-09T10:07:17Z</time>
      </trkpt>
      <trkpt lat="47.20706" lon="-1.54858">
        <ele>55</ele>
        <time>2022-07-09T10:07:20Z</time>
      </trkpt>
      <trkpt lat="47.20701" lon="-1.54869">
        <ele>54</ele>
        <time>2022-07-09T10:07:43Z</time>
      </trkpt>
      <trkpt lat="47.20687" lon="-1.54872">
        <ele>54</ele>
        <time>2022-07-09T10:07:47Z</time>
      </trkpt>
      <trkpt lat="47.20677" lon="-1.54868">
        <ele>55</ele>
        <time>2022-07-09T10:07:50Z</time>
      </trkpt>
      <trkpt lat="47.20666" lon="-1.54863">
        <ele>56</ele>
        <time>2022-07-09T10:07:53Z</time>
      </trkpt>
      <trkpt lat="47.20656" lon="-1.54856">
        <ele>56</ele>
        <time>2022-07-09T10:07:55Z</time>
      </trkpt>
      <trkpt lat="47.20646" lon="-1.54849">
        <ele>56</ele>
        <time>2022-07-09T10:07:57Z</time>
      </trkpt>
      <trkpt lat="47.20636" lon="-1.54841">
        <ele>56</ele>
        <time>2022-07-09T10:07:59Z</time>
      </trkpt>
      <trkpt lat="47.20626" lon="-1.54833">
        <ele>57</ele>
        <time>2022-07-09T10:08:01Z</time>
      </trkpt>
      <trkpt lat="47.20617" lon="-1.54826">
        <ele>57</ele>
        <time>2022-07-09T10:08:04Z</time>
      </trkpt>
      <trkpt lat="47.20608" lon="-1.54818">
        <ele>57</ele>
        <time>2022-07-09T10:08:14Z</time>
      </trkpt>
      <trkpt lat="47.20596" lon="-1.54806">
        <ele>57</ele>
        <time>2022-07-09T10:08:16Z</time>
      </trkpt>
      <trkpt lat="47.20583" lon="-1.54793">
        <ele>56</ele>
        <time>2022-07-09T10:08:18Z</time>
      </trkpt>
      <trkpt lat="47.20567" lon="-1.54783">
        <ele>57</ele>
        <time>2022-07-09T10:08:20Z</time>
      </trkpt>
      <trkpt lat="47.20552" lon="-1.54772">
        <ele>57</ele>
        <time>2022-07-09T10:08:22Z</time>
      </trkpt>
      <trkpt lat="47.20538" lon="-1.54765">
        <ele>58</ele>
        <time>2022-07-09T10:08:24Z</time>
      </trkpt>
      <trkpt lat="47.20524" lon="-1.54766">
        <ele>58</ele>
        <time>2022-07-09T10:08:26Z</time>
      </trkpt>
      <trkpt lat="47.20513" lon="-1.54776">
        <ele>60</ele>
        <time>2022-07-09T10:08:28Z</time>
      </trkpt>
      <trkpt lat="47.2051" lon="-1.54799">
        <ele>59</ele>
        <time>2022-07-09T10:08:30Z</time>
      </trkpt>
      <trkpt lat="47.20505" lon="-1.5482">
        <ele>58</ele>
        <time>2022-07-09T10:08:32Z</time>
      </trkpt>
      <trkpt lat="47.20501" lon="-1.54841">
        <ele>57</ele>
        <time>2022-07-09T10:08:34Z</time>
      </trkpt>
      <trkpt lat="47.20496" lon="-1.54861">
        <ele>56</ele>
        <time>2022-07-09T10:08:36Z</time>
      </trkpt>
      <trkpt lat="47.20492" lon="-1.5488">
        <ele>55</ele>
        <time>2022-07-09T10:08:38Z</time>
      </trkpt>
      <trkpt lat="47.20487" lon="-1.54899">
        <ele>55</ele>
        <time>2022-07-09T10:08:40Z</time>
      </trkpt>
      <trkpt lat="47.20482" lon="-1.54917">
        <ele>55</ele>
        <time>2022-07-09T10:08:42Z</time>
      </trkpt>
      <trkpt lat="47.20476" lon="-1.54937">
        <ele>54</ele>
        <time>2022-07-09T10:08:44Z</time>
      </trkpt>
      <trkpt lat="47.20471" lon="-1.54956">
        <ele>54</ele>
        <time>2022-07-09T10:08:46Z</time>
      </trkpt>
      <trkpt lat="47.20466" lon="-1.54975">
        <ele>54</ele>
        <time>2022-07-09T10:08:48Z</time>
      </trkpt>
      <trkpt lat="47.2046" lon="-1.54993">
        <ele>53</ele>
        <time>2022-07-09T10:08:50Z</time>
      </trkpt>
      <trkpt lat="47.20455" lon="-1.55012">
        <ele>54</ele>
        <time>2022-07-09T10:08:52Z</time>
      </trkpt>
      <trkpt lat="47.20449" lon="-1.5503">
        <ele>54</ele>
        <time>2022-07-09T10:08:54Z</time>
      </trkpt>
      <trkpt lat="47.20443" lon="-1.55047">
        <ele>53</ele>
        <time>2022-07-09T10:08:56Z</time>
      </trkpt>
      <trkpt lat="47.20434" lon="-1.55071">
        <ele>54</ele>
        <time>2022-07-09T10:08:59Z</time>
      </trkpt>
      <trkpt lat="47.20427" lon="-1.55088">
        <ele>54</ele>
        <time>2022-07-09T10:09:01Z</time>
      </trkpt>
      <trkpt lat="47.2042" lon="-1.55105">
        <ele>54</ele>
        <time>2022-07-09T10:09:03Z</time>
      </trkpt>
      <trkpt lat="47.20414" lon="-1.55122">
        <ele>55</ele>
        <time>2022-07-09T10:09:05Z</time>
      </trkpt>
      <trkpt lat="47.20408" lon="-1.55138">
        <ele>55</ele>
        <time>2022-07-09T10:09:07Z</time>
      </trkpt>
      <trkpt lat="47.20403" lon="-1.5515">
        <ele>55</ele>
        <time>2022-07-09T10:09:09Z</time>
      </trkpt>
      <trkpt lat="47.20397" lon="-1.55163">
        <ele>56</ele>
        <time>2022-07-09T10:09:13Z</time>
      </trkpt>
      <trkpt lat="47.20391" lon="-1.55176">
        <ele>56</ele>
        <time>2022-07-09T10:09:16Z</time>
      </trkpt>
      <trkpt lat="47.20382" lon="-1.55182">
        <ele>57</ele>
        <time>2022-07-09T10:09:19Z</time>
      </trkpt>
      <trkpt lat="47.20366" lon="-1.55195">
        <ele>58</ele>
        <time>2022-07-09T10:09:24Z</time>
      </trkpt>
      <trkpt lat="47.20353" lon="-1.55215">
        <ele>57</ele>
        <time>2022-07-09T10:09:27Z</time>
      </trkpt>
      <trkpt lat="47.20342" lon="-1.55228">
        <ele>56</ele>
        <time>2022-07-09T10:09:29Z</time>
      </trkpt>
      <trkpt lat="47.20332" lon="-1.55242">
        <ele>56</ele>
        <time>2022-07-09T10:09:31Z</time>
      </trkpt>
      <trkpt lat="47.20322" lon="-1.55256">
        <ele>56</ele>
        <time>2022-07-09T10:09:33Z</time>
      </trkpt>
      <trkpt lat="47.20312" lon="-1.55268">
        <ele>57</ele>
        <time>2022-07-09T10:09:35Z</time>
      </trkpt>
      <trkpt lat="47.20302" lon="-1.5528">
        <ele>58</ele>
        <time>2022-07-09T10:09:37Z</time>
      </trkpt>
      <trkpt lat="47.20292" lon="-1.55293">
        <ele>58</ele>
        <time>2022-07-09T10:09:39Z</time>
      </trkpt>
      <trkpt lat="47.20283" lon="-1.55304">
        <ele>58</ele>
        <time>2022-07-09T10:09:41Z</time>
      </trkpt>
      <trkpt lat="47.20269" lon="-1.55323">
        <ele>58</ele>
        <time>2022-07-09T10:09:44Z</time>
      </trkpt>
      <trkpt lat="47.2026" lon="-1.55337">
        <ele>57</ele>
        <time>2022-07-09T10:09:46Z</time>
      </trkpt>
      <trkpt lat="47.20244" lon="-1.55357">
        <ele>57</ele>
        <time>2022-07-09T10:09:49Z</time>
      </trkpt>
      <trkpt lat="47.20234" lon="-1.55371">
        <ele>57</ele>
        <time>2022-07-09T10:09:51Z</time>
      </trkpt>
      <trkpt lat="47.20224" lon="-1.55385">
        <ele>56</ele>
        <time>2022-07-09T10:09:53Z</time>
      </trkpt>
      <trkpt lat="47.20214" lon="-1.55398">
        <ele>55</ele>
        <time>2022-07-09T10:09:55Z</time>
      </trkpt>
      <trkpt lat="47.20205" lon="-1.5541">
        <ele>55</ele>
        <time>2022-07-09T10:09:57Z</time>
      </trkpt>
      <trkpt lat="47.20197" lon="-1.55423">
        <ele>55</ele>
        <time>2022-07-09T10:09:59Z</time>
      </trkpt>
      <trkpt lat="47.20189" lon="-1.55438">
        <ele>55</ele>
        <time>2022-07-09T10:10:01Z</time>
      </trkpt>
      <trkpt lat="47.20182" lon="-1.55455">
        <ele>54</ele>
        <time>2022-07-09T10:10:03Z</time>
      </trkpt>
      <trkpt lat="47.20179" lon="-1.55474">
        <ele>54</ele>
        <time>2022-07-09T10:10:05Z</time>
      </trkpt>
      <trkpt lat="47.20177" lon="-1.55492">
        <ele>53</ele>
        <time>2022-07-09T10:10:07Z</time>
      </trkpt>
      <trkpt lat="47.20177" lon="-1.5551">
        <ele>53</ele>
        <time>2022-07-09T10:10:09Z</time>
      </trkpt>
      <trkpt lat="47.20182" lon="-1.55525">
        <ele>53</ele>
        <time>2022-07-09T10:10:11Z</time>
      </trkpt>
      <trkpt lat="47.20192" lon="-1.55536">
        <ele>53</ele>
        <time>2022-07-09T10:10:13Z</time>
      </trkpt>
      <trkpt lat="47.20203" lon="-1.55541">
        <ele>53</ele>
        <time>2022-07-09T10:10:15Z</time>
      </trkpt>
      <trkpt lat="47.20215" lon="-1.55546">
        <ele>54</ele>
        <time>2022-07-09T10:10:17Z</time>
      </trkpt>
      <trkpt lat="47.20226" lon="-1.5555">
        <ele>54</ele>
        <time>2022-07-09T10:10:19Z</time>
      </trkpt>
      <trkpt lat="47.20237" lon="-1.55555">
        <ele>55</ele>
        <time>2022-07-09T10:10:21Z</time>
      </trkpt>
      <trkpt lat="47.20248" lon="-1.55559">
        <ele>55</ele>
        <time>2022-07-09T10:10:23Z</time>
      </trkpt>
      <trkpt lat="47.20259" lon="-1.55564">
        <ele>56</ele>
        <time>2022-07-09T10:10:25Z</time>
      </trkpt>
      <trkpt lat="47.20271" lon="-1.55566">
        <ele>56</ele>
        <time>2022-07-09T10:10:27Z</time>
      </trkpt>
      <trkpt lat="47.20282" lon="-1.55569">
        <ele>56</ele>
        <time>2022-07-09T10:10:29Z</time>
      </trkpt>
      <trkpt lat="47.20291" lon="-1.55576">
        <ele>56</ele>
        <time>2022-07-09T10:10:31Z</time>
      </trkpt>
      <trkpt lat="47.20296" lon="-1.5559">
        <ele>56</ele>
        <time>2022-07-09T10:10:33Z</time>
      </trkpt>
      <trkpt lat="47.20296" lon="-1.55606">
        <ele>56</ele>
        <time>2022-07-09T10:10:35Z</time>
      </trkpt>
      <trkpt lat="47.20294" lon="-1.55624">
        <ele>55</ele>
        <time>2022-07-09T10:10:37Z</time>
      </trkpt>
      <trkpt lat="47.20292" lon="-1.55641">
        <ele>55</ele>
        <time>2022-07-09T10:10:39Z</time>
      </trkpt>
      <trkpt lat="47.2029" lon="-1.55658">
        <ele>55</ele>
        <time>2022-07-09T10:10:41Z</time>
      </trkpt>
      <trkpt lat="47.20289" lon="-1.55677">
        <ele>55</ele>
        <time>2022-07-09T10:10:43Z</time>
      </trkpt>
      <trkpt lat="47.20287" lon="-1.55695">
        <ele>55</ele>
        <time>2022-07-09T10:10:45Z</time>
      </trkpt>
      <trkpt lat="47.20285" lon="-1.55713">
        <ele>55</ele>
        <time>2022-07-09T10:10:47Z</time>
      </trkpt>
      <trkpt lat="47.20283" lon="-1.55731">
        <ele>55</ele>
        <time>2022-07-09T10:10:49Z</time>
      </trkpt>
      <trkpt lat="47.20281" lon="-1.55749">
        <ele>55</ele>
        <time>2022-07-09T10:10:51Z</time>
      </trkpt>
      <trkpt lat="47.20279" lon="-1.55767">
        <ele>55</ele>
        <time>2022-07-09T10:10:53Z</time>
      </trkpt>
      <trkpt lat="47.20277" lon="-1.55785">
        <ele>55</ele>
        <time>2022-07-09T10:10:55Z</time>
      </trkpt>
      <trkpt lat="47.20274" lon="-1.55804">
        <ele>55</ele>
        <time>2022-07-09T10:10:57Z</time>
      </trkpt>
      <trkpt lat="47.20272" lon="-1.55822">
        <ele>55</ele>
        <time>2022-07-09T10:10:59Z</time>
      </trkpt>
      <trkpt lat="47.20271" lon="-1.5584">
        <ele>55</ele>
        <time>2022-07-09T10:11:01Z</time>
      </trkpt>
      <trkpt lat="47.20269" lon="-1.55858">
        <ele>55</ele>
        <time>2022-07-09T10:11:03Z</time>
      </trkpt>
      <trkpt lat="47.20267" lon="-1.55876">
        <ele>55</ele>
        <time>2022-07-09T10:11:05Z</time>
      </trkpt>
      <trkpt lat="47.20265" lon="-1.55894">
        <ele>55</ele>
        <time>2022-07-09T10:11:07Z</time>
      </trkpt>
      <trkpt lat="47.20263" lon="-1.55912">
        <ele>55</ele>
        <time>2022-07-09T10:11:09Z</time>
      </trkpt>
      <trkpt lat="47.20261" lon="-1.5593">
        <ele>55</ele>
        <time>2022-07-09T10:11:11Z</time>
      </trkpt>
      <trkpt lat="47.20259" lon="-1.55948">
        <ele>55</ele>
        <time>2022-07-09T10:11:13Z</time>
      </trkpt>
      <trkpt lat="47.20258" lon="-1.55965">
        <ele>56</ele>
        <time>2022-07-09T10:11:15Z</time>
      </trkpt>
      <trkpt lat="47.20256" lon="-1.55983">
        <ele>56</ele>
        <time>2022-07-09T10:11:17Z</time>
      </trkpt>
      <trkpt lat="47.20253" lon="-1.56">
        <ele>56</ele>
        <time>2022-07-09T10:11:19Z</time>
      </trkpt>
      <trkpt lat="47.20251" lon="-1.56018">
        <ele>56</ele>
        <time>2022-07-09T10:11:21Z</time>
      </trkpt>
      <trkpt lat="47.20249" lon="-1.56036">
        <ele>57</ele>
        <time>2022-07-09T10:11:23Z</time>
      </trkpt>
      <trkpt lat="47.20248" lon="-1.56054">
        <ele>56</ele>
        <time>2022-07-09T10:11:25Z</time>
      </trkpt>
      <trkpt lat="47.20246" lon="-1.56072">
        <ele>56</ele>
        <time>2022-07-09T10:11:27Z</time>
      </trkpt>
      <trkpt lat="47.20244" lon="-1.56089">
        <ele>56</ele>
        <time>2022-07-09T10:11:29Z</time>
      </trkpt>
      <trkpt lat="47.20243" lon="-1.56106">
        <ele>57</ele>
        <time>2022-07-09T10:11:31Z</time>
      </trkpt>
      <trkpt lat="47.20241" lon="-1.56123">
        <ele>57</ele>
        <time>2022-07-09T10:11:33Z</time>
      </trkpt>
      <trkpt lat="47.20236" lon="-1.56139">
        <ele>57</ele>
        <time>2022-07-09T10:11:35Z</time>
      </trkpt>
      <trkpt lat="47.20227" lon="-1.56152">
        <ele>57</ele>
        <time>2022-07-09T10:11:37Z</time>
      </trkpt>
      <trkpt lat="47.20217" lon="-1.56163">
        <ele>57</ele>
        <time>2022-07-09T10:11:39Z</time>
      </trkpt>
      <trkpt lat="47.20207" lon="-1.56171">
        <ele>57</ele>
        <time>2022-07-09T10:11:41Z</time>
      </trkpt>
      <trkpt lat="47.20195" lon="-1.56176">
        <ele>57</ele>
        <time>2022-07-09T10:11:43Z</time>
      </trkpt>
      <trkpt lat="47.20185" lon="-1.56182">
        <ele>56</ele>
        <time>2022-07-09T10:11:45Z</time>
      </trkpt>
      <trkpt lat="47.20176" lon="-1.56193">
        <ele>56</ele>
        <time>2022-07-09T10:11:47Z</time>
      </trkpt>
      <trkpt lat="47.20165" lon="-1.56195">
        <ele>56</ele>
        <time>2022-07-09T10:11:49Z</time>
      </trkpt>
      <trkpt lat="47.20155" lon="-1.56188">
        <ele>56</ele>
        <time>2022-07-09T10:11:51Z</time>
      </trkpt>
      <trkpt lat="47.20146" lon="-1.56182">
        <ele>56</ele>
        <time>2022-07-09T10:11:53Z</time>
      </trkpt>
      <trkpt lat="47.20134" lon="-1.56181">
        <ele>56</ele>
        <time>2022-07-09T10:11:55Z</time>
      </trkpt>
      <trkpt lat="47.20121" lon="-1.56181">
        <ele>57</ele>
        <time>2022-07-09T10:11:57Z</time>
      </trkpt>
      <trkpt lat="47.20109" lon="-1.56183">
        <ele>57</ele>
        <time>2022-07-09T10:11:59Z</time>
      </trkpt>
      <trkpt lat="47.20097" lon="-1.56182">
        <ele>57</ele>
        <time>2022-07-09T10:12:01Z</time>
      </trkpt>
      <trkpt lat="47.20084" lon="-1.56182">
        <ele>57</ele>
        <time>2022-07-09T10:12:03Z</time>
      </trkpt>
      <trkpt lat="47.20071" lon="-1.56182">
        <ele>57</ele>
        <time>2022-07-09T10:12:05Z</time>
      </trkpt>
      <trkpt lat="47.20058" lon="-1.56182">
        <ele>56</ele>
        <time>2022-07-09T10:12:07Z</time>
      </trkpt>
      <trkpt lat="47.20045" lon="-1.56182">
        <ele>56</ele>
        <time>2022-07-09T10:12:09Z</time>
      </trkpt>
      <trkpt lat="47.20031" lon="-1.56183">
        <ele>56</ele>
        <time>2022-07-09T10:12:11Z</time>
      </trkpt>
      <trkpt lat="47.20018" lon="-1.56183">
        <ele>55</ele>
        <time>2022-07-09T10:12:13Z</time>
      </trkpt>
      <trkpt lat="47.20008" lon="-1.56187">
        <ele>55</ele>
        <time>2022-07-09T10:12:15Z</time>
      </trkpt>
      <trkpt lat="47.19998" lon="-1.5619">
        <ele>55</ele>
        <time>2022-07-09T10:12:19Z</time>
      </trkpt>
      <trkpt lat="47.19987" lon="-1.56192">
        <ele>56</ele>
        <time>2022-07-09T10:12:22Z</time>
      </trkpt>
      <trkpt lat="47.19977" lon="-1.56187">
        <ele>56</ele>
        <time>2022-07-09T10:12:24Z</time>
      </trkpt>
      <trkpt lat="47.19972" lon="-1.56172">
        <ele>56</ele>
        <time>2022-07-09T10:12:26Z</time>
      </trkpt>
      <trkpt lat="47.19962" lon="-1.56165">
        <ele>55</ele>
        <time>2022-07-09T10:12:28Z</time>
      </trkpt>
      <trkpt lat="47.1995" lon="-1.56168">
        <ele>56</ele>
        <time>2022-07-09T10:12:30Z</time>
      </trkpt>
      <trkpt lat="47.19938" lon="-1.56171">
        <ele>56</ele>
        <time>2022-07-09T10:12:32Z</time>
      </trkpt>
      <trkpt lat="47.19927" lon="-1.56173">
        <ele>57</ele>
        <time>2022-07-09T10:12:34Z</time>
      </trkpt>
      <trkpt lat="47.19916" lon="-1.56175">
        <ele>58</ele>
        <time>2022-07-09T10:12:36Z</time>
      </trkpt>
      <trkpt lat="47.19904" lon="-1.56176">
        <ele>58</ele>
        <time>2022-07-09T10:12:38Z</time>
      </trkpt>
      <trkpt lat="47.19893" lon="-1.56178">
        <ele>58</ele>
        <time>2022-07-09T10:12:40Z</time>
      </trkpt>
      <trkpt lat="47.19881" lon="-1.5618">
        <ele>58</ele>
        <time>2022-07-09T10:12:42Z</time>
      </trkpt>
      <trkpt lat="47.19869" lon="-1.56182">
        <ele>58</ele>
        <time>2022-07-09T10:12:44Z</time>
      </trkpt>
      <trkpt lat="47.19858" lon="-1.56184">
        <ele>59</ele>
        <time>2022-07-09T10:12:46Z</time>
      </trkpt>
      <trkpt lat="47.19847" lon="-1.56186">
        <ele>59</ele>
        <time>2022-07-09T10:12:48Z</time>
      </trkpt>
      <trkpt lat="47.19836" lon="-1.56188">
        <ele>59</ele>
        <time>2022-07-09T10:12:50Z</time>
      </trkpt>
      <trkpt lat="47.19825" lon="-1.5619">
        <ele>59</ele>
        <time>2022-07-09T10:12:52Z</time>
      </trkpt>
      <trkpt lat="47.19815" lon="-1.56192">
        <ele>59</ele>
        <time>2022-07-09T10:12:54Z</time>
      </trkpt>
      <trkpt lat="47.19805" lon="-1.56194">
        <ele>59</ele>
        <time>2022-07-09T10:12:56Z</time>
      </trkpt>
      <trkpt lat="47.19794" lon="-1.56195">
        <ele>59</ele>
        <time>2022-07-09T10:12:58Z</time>
      </trkpt>
      <trkpt lat="47.19783" lon="-1.56198">
        <ele>59</ele>
        <time>2022-07-09T10:13:00Z</time>
      </trkpt>
      <trkpt lat="47.19772" lon="-1.56199">
        <ele>59</ele>
        <time>2022-07-09T10:13:02Z</time>
      </trkpt>
      <trkpt lat="47.19762" lon="-1.56201">
        <ele>58</ele>
        <time>2022-07-09T10:13:04Z</time>
      </trkpt>
      <trkpt lat="47.1975" lon="-1.56203">
        <ele>58</ele>
        <time>2022-07-09T10:13:06Z</time>
      </trkpt>
      <trkpt lat="47.19738" lon="-1.56206">
        <ele>58</ele>
        <time>2022-07-09T10:13:08Z</time>
      </trkpt>
      <trkpt lat="47.19726" lon="-1.56208">
        <ele>57</ele>
        <time>2022-07-09T10:13:10Z</time>
      </trkpt>
      <trkpt lat="47.19712" lon="-1.5621">
        <ele>56</ele>
        <time>2022-07-09T10:13:12Z</time>
      </trkpt>
      <trkpt lat="47.19698" lon="-1.56213">
        <ele>55</ele>
        <time>2022-07-09T10:13:14Z</time>
      </trkpt>
      <trkpt lat="47.19683" lon="-1.56216">
        <ele>54</ele>
        <time>2022-07-09T10:13:16Z</time>
      </trkpt>
      <trkpt lat="47.19667" lon="-1.56221">
        <ele>53</ele>
        <time>2022-07-09T10:13:18Z</time>
      </trkpt>
      <trkpt lat="47.19652" lon="-1.56227">
        <ele>52</ele>
        <time>2022-07-09T10:13:20Z</time>
      </trkpt>
      <trkpt lat="47.19637" lon="-1.56233">
        <ele>52</ele>
        <time>2022-07-09T10:13:22Z</time>
      </trkpt>
      <trkpt lat="47.19632" lon="-1.56254">
        <ele>52</ele>
        <time>2022-07-09T10:13:24Z</time>
      </trkpt>
      <trkpt lat="47.19632" lon="-1.56276">
        <ele>52</ele>
        <time>2022-07-09T10:13:26Z</time>
      </trkpt>
      <trkpt lat="47.19631" lon="-1.56296">
        <ele>52</ele>
        <time>2022-07-09T10:13:28Z</time>
      </trkpt>
      <trkpt lat="47.1963" lon="-1.56316">
        <ele>52</ele>
        <time>2022-07-09T10:13:30Z</time>
      </trkpt>
      <trkpt lat="47.1963" lon="-1.56336">
        <ele>52</ele>
        <time>2022-07-09T10:13:32Z</time>
      </trkpt>
      <trkpt lat="47.19629" lon="-1.56355">
        <ele>53</ele>
        <time>2022-07-09T10:13:34Z</time>
      </trkpt>
      <trkpt lat="47.19629" lon="-1.56374">
        <ele>53</ele>
        <time>2022-07-09T10:13:36Z</time>
      </trkpt>
      <trkpt lat="47.1963" lon="-1.56394">
        <ele>52</ele>
        <time>2022-07-09T10:13:38Z</time>
      </trkpt>
      <trkpt lat="47.19631" lon="-1.56413">
        <ele>52</ele>
        <time>2022-07-09T10:13:40Z</time>
      </trkpt>
      <trkpt lat="47.19632" lon="-1.56432">
        <ele>52</ele>
        <time>2022-07-09T10:13:42Z</time>
      </trkpt>
      <trkpt lat="47.19632" lon="-1.5645">
        <ele>52</ele>
        <time>2022-07-09T10:13:44Z</time>
      </trkpt>
      <trkpt lat="47.19633" lon="-1.56469">
        <ele>52</ele>
        <time>2022-07-09T10:13:46Z</time>
      </trkpt>
      <trkpt lat="47.19633" lon="-1.56487">
        <ele>52</ele>
        <time>2022-07-09T10:13:48Z</time>
      </trkpt>
      <trkpt lat="47.19634" lon="-1.56506">
        <ele>52</ele>
        <time>2022-07-09T10:13:50Z</time>
      </trkpt>
      <trkpt lat="47.19633" lon="-1.56524">
        <ele>52</ele>
        <time>2022-07-09T10:13:52Z</time>
      </trkpt>
      <trkpt lat="47.19633" lon="-1.56542">
        <ele>52</ele>
        <time>2022-07-09T10:13:54Z</time>
      </trkpt>
      <trkpt lat="47.19632" lon="-1.5656">
        <ele>52</ele>
        <time>2022-07-09T10:13:56Z</time>
      </trkpt>
      <trkpt lat="47.19633" lon="-1.56578">
        <ele>53</ele>
        <time>2022-07-09T10:13:58Z</time>
      </trkpt>
      <trkpt lat="47.19633" lon="-1.56596">
        <ele>54</ele>
        <time>2022-07-09T10:14:00Z</time>
      </trkpt>
      <trkpt lat="47.19632" lon="-1.56615">
        <ele>54</ele>
        <time>2022-07-09T10:14:02Z</time>
      </trkpt>
      <trkpt lat="47.19631" lon="-1.56633">
        <ele>55</ele>
        <time>2022-07-09T10:14:04Z</time>
      </trkpt>
      <trkpt lat="47.19631" lon="-1.56652">
        <ele>56</ele>
        <time>2022-07-09T10:14:06Z</time>
      </trkpt>
      <trkpt lat="47.19629" lon="-1.56671">
        <ele>56</ele>
        <time>2022-07-09T10:14:08Z</time>
      </trkpt>
      <trkpt lat="47.19628" lon="-1.5669">
        <ele>56</ele>
        <time>2022-07-09T10:14:10Z</time>
      </trkpt>
      <trkpt lat="47.19627" lon="-1.56708">
        <ele>56</ele>
        <time>2022-07-09T10:14:12Z</time>
      </trkpt>
      <trkpt lat="47.19626" lon="-1.56726">
        <ele>56</ele>
        <time>2022-07-09T10:14:14Z</time>
      </trkpt>
      <trkpt lat="47.19624" lon="-1.56745">
        <ele>55</ele>
        <time>2022-07-09T10:14:16Z</time>
      </trkpt>
      <trkpt lat="47.19623" lon="-1.56763">
        <ele>55</ele>
        <time>2022-07-09T10:14:18Z</time>
      </trkpt>
      <trkpt lat="47.19621" lon="-1.56782">
        <ele>54</ele>
        <time>2022-07-09T10:14:20Z</time>
      </trkpt>
      <trkpt lat="47.19619" lon="-1.56801">
        <ele>54</ele>
        <time>2022-07-09T10:14:22Z</time>
      </trkpt>
      <trkpt lat="47.19618" lon="-1.56821">
        <ele>53</ele>
        <time>2022-07-09T10:14:24Z</time>
      </trkpt>
      <trkpt lat="47.19617" lon="-1.56839">
        <ele>53</ele>
        <time>2022-07-09T10:14:26Z</time>
      </trkpt>
      <trkpt lat="47.19616" lon="-1.56857">
        <ele>53</ele>
        <time>2022-07-09T10:14:28Z</time>
      </trkpt>
      <trkpt lat="47.19614" lon="-1.56875">
        <ele>53</ele>
        <time>2022-07-09T10:14:30Z</time>
      </trkpt>
      <trkpt lat="47.19613" lon="-1.56893">
        <ele>53</ele>
        <time>2022-07-09T10:14:32Z</time>
      </trkpt>
      <trkpt lat="47.19612" lon="-1.56911">
        <ele>53</ele>
        <time>2022-07-09T10:14:34Z</time>
      </trkpt>
      <trkpt lat="47.19611" lon="-1.5693">
        <ele>53</ele>
        <time>2022-07-09T10:14:36Z</time>
      </trkpt>
      <trkpt lat="47.1961" lon="-1.56949">
        <ele>52</ele>
        <time>2022-07-09T10:14:38Z</time>
      </trkpt>
      <trkpt lat="47.19608" lon="-1.56968">
        <ele>52</ele>
        <time>2022-07-09T10:14:40Z</time>
      </trkpt>
      <trkpt lat="47.19607" lon="-1.56987">
        <ele>52</ele>
        <time>2022-07-09T10:14:42Z</time>
      </trkpt>
      <trkpt lat="47.19606" lon="-1.57006">
        <ele>52</ele>
        <time>2022-07-09T10:14:44Z</time>
      </trkpt>
      <trkpt lat="47.19604" lon="-1.57025">
        <ele>52</ele>
        <time>2022-07-09T10:14:46Z</time>
      </trkpt>
      <trkpt lat="47.19604" lon="-1.57044">
        <ele>52</ele>
        <time>2022-07-09T10:14:48Z</time>
      </trkpt>
      <trkpt lat="47.19603" lon="-1.57063">
        <ele>52</ele>
        <time>2022-07-09T10:14:50Z</time>
      </trkpt>
      <trkpt lat="47.19601" lon="-1.5708">
        <ele>52</ele>
        <time>2022-07-09T10:14:52Z</time>
      </trkpt>
      <trkpt lat="47.196" lon="-1.57098">
        <ele>52</ele>
        <time>2022-07-09T10:14:54Z</time>
      </trkpt>
      <trkpt lat="47.19598" lon="-1.57116">
        <ele>52</ele>
        <time>2022-07-09T10:14:56Z</time>
      </trkpt>
      <trkpt lat="47.19597" lon="-1.57133">
        <ele>53</ele>
        <time>2022-07-09T10:14:58Z</time>
      </trkpt>
      <trkpt lat="47.19596" lon="-1.57152">
        <ele>53</ele>
        <time>2022-07-09T10:15:00Z</time>
      </trkpt>
      <trkpt lat="47.19596" lon="-1.5717">
        <ele>53</ele>
        <time>2022-07-09T10:15:02Z</time>
      </trkpt>
      <trkpt lat="47.19594" lon="-1.57189">
        <ele>54</ele>
        <time>2022-07-09T10:15:04Z</time>
      </trkpt>
      <trkpt lat="47.19593" lon="-1.57209">
        <ele>55</ele>
        <time>2022-07-09T10:15:06Z</time>
      </trkpt>
      <trkpt lat="47.19592" lon="-1.57228">
        <ele>54</ele>
        <time>2022-07-09T10:15:08Z</time>
      </trkpt>
      <trkpt lat="47.1959" lon="-1.57248">
        <ele>53</ele>
        <time>2022-07-09T10:15:10Z</time>
      </trkpt>
      <trkpt lat="47.19588" lon="-1.57267">
        <ele>53</ele>
        <time>2022-07-09T10:15:12Z</time>
      </trkpt>
      <trkpt lat="47.19587" lon="-1.57285">
        <ele>53</ele>
        <time>2022-07-09T10:15:14Z</time>
      </trkpt>
      <trkpt lat="47.19586" lon="-1.57303">
        <ele>53</ele>
        <time>2022-07-09T10:15:16Z</time>
      </trkpt>
      <trkpt lat="47.19585" lon="-1.57322">
        <ele>53</ele>
        <time>2022-07-09T10:15:18Z</time>
      </trkpt>
      <trkpt lat="47.19581" lon="-1.57339">
        <ele>53</ele>
        <time>2022-07-09T10:15:20Z</time>
      </trkpt>
      <trkpt lat="47.19578" lon="-1.57356">
        <ele>53</ele>
        <time>2022-07-09T10:15:22Z</time>
      </trkpt>
      <trkpt lat="47.19575" lon="-1.57372">
        <ele>54</ele>
        <time>2022-07-09T10:15:24Z</time>
      </trkpt>
      <trkpt lat="47.19571" lon="-1.57389">
        <ele>54</ele>
        <time>2022-07-09T10:15:26Z</time>
      </trkpt>
      <trkpt lat="47.19567" lon="-1.57406">
        <ele>55</ele>
        <time>2022-07-09T10:15:28Z</time>
      </trkpt>
      <trkpt lat="47.19563" lon="-1.57425">
        <ele>56</ele>
        <time>2022-07-09T10:15:30Z</time>
      </trkpt>
      <trkpt lat="47.1956" lon="-1.57442">
        <ele>56</ele>
        <time>2022-07-09T10:15:32Z</time>
      </trkpt>
      <trkpt lat="47.19557" lon="-1.5746">
        <ele>56</ele>
        <time>2022-07-09T10:15:34Z</time>
      </trkpt>
      <trkpt lat="47.19554" lon="-1.57479">
        <ele>56</ele>
        <time>2022-07-09T10:15:36Z</time>
      </trkpt>
      <trkpt lat="47.19551" lon="-1.57497">
        <ele>57</ele>
        <time>2022-07-09T10:15:38Z</time>
      </trkpt>
      <trkpt lat="47.19547" lon="-1.57515">
        <ele>56</ele>
        <time>2022-07-09T10:15:40Z</time>
      </trkpt>
      <trkpt lat="47.19544" lon="-1.57534">
        <ele>56</ele>
        <time>2022-07-09T10:15:42Z</time>
      </trkpt>
      <trkpt lat="47.1954" lon="-1.57551">
        <ele>55</ele>
        <time>2022-07-09T10:15:44Z</time>
      </trkpt>
      <trkpt lat="47.19537" lon="-1.57568">
        <ele>55</ele>
        <time>2022-07-09T10:15:46Z</time>
      </trkpt>
      <trkpt lat="47.19533" lon="-1.57585">
        <ele>55</ele>
        <time>2022-07-09T10:15:48Z</time>
      </trkpt>
      <trkpt lat="47.1953" lon="-1.57603">
        <ele>54</ele>
        <time>2022-07-09T10:15:50Z</time>
      </trkpt>
      <trkpt lat="47.19526" lon="-1.57619">
        <ele>54</ele>
        <time>2022-07-09T10:15:52Z</time>
      </trkpt>
      <trkpt lat="47.19522" lon="-1.57635">
        <ele>53</ele>
        <time>2022-07-09T10:15:54Z</time>
      </trkpt>
      <trkpt lat="47.19519" lon="-1.57652">
        <ele>53</ele>
        <time>2022-07-09T10:15:56Z</time>
      </trkpt>
      <trkpt lat="47.19515" lon="-1.5767">
        <ele>52</ele>
        <time>2022-07-09T10:15:58Z</time>
      </trkpt>
      <trkpt lat="47.19512" lon="-1.57687">
        <ele>52</ele>
        <time>2022-07-09T10:16:00Z</time>
      </trkpt>
      <trkpt lat="47.19508" lon="-1.57705">
        <ele>51</ele>
        <time>2022-07-09T10:16:02Z</time>
      </trkpt>
      <trkpt lat="47.19504" lon="-1.57723">
        <ele>51</ele>
        <time>2022-07-09T10:16:04Z</time>
      </trkpt>
      <trkpt lat="47.195" lon="-1.5774">
        <ele>51</ele>
        <time>2022-07-09T10:16:06Z</time>
      </trkpt>
      <trkpt lat="47.19497" lon="-1.57758">
        <ele>51</ele>
        <time>2022-07-09T10:16:08Z</time>
      </trkpt>
      <trkpt lat="47.19493" lon="-1.57776">
        <ele>51</ele>
        <time>2022-07-09T10:16:10Z</time>
      </trkpt>
      <trkpt lat="47.1949" lon="-1.57794">
        <ele>50</ele>
        <time>2022-07-09T10:16:12Z</time>
      </trkpt>
      <trkpt lat="47.19486" lon="-1.57811">
        <ele>50</ele>
        <time>2022-07-09T10:16:14Z</time>
      </trkpt>
      <trkpt lat="47.19482" lon="-1.57828">
        <ele>50</ele>
        <time>2022-07-09T10:16:16Z</time>
      </trkpt>
      <trkpt lat="47.1948" lon="-1.57844">
        <ele>50</ele>
        <time>2022-07-09T10:16:18Z</time>
      </trkpt>
      <trkpt lat="47.19477" lon="-1.57862">
        <ele>50</ele>
        <time>2022-07-09T10:16:20Z</time>
      </trkpt>
      <trkpt lat="47.19476" lon="-1.57879">
        <ele>50</ele>
        <time>2022-07-09T10:16:22Z</time>
      </trkpt>
      <trkpt lat="47.19473" lon="-1.57898">
        <ele>50</ele>
        <time>2022-07-09T10:16:24Z</time>
      </trkpt>
      <trkpt lat="47.19471" lon="-1.57917">
        <ele>50</ele>
        <time>2022-07-09T10:16:26Z</time>
      </trkpt>
      <trkpt lat="47.19468" lon="-1.57937">
        <ele>50</ele>
        <time>2022-07-09T10:16:28Z</time>
      </trkpt>
      <trkpt lat="47.19466" lon="-1.57956">
        <ele>50</ele>
        <time>2022-07-09T10:16:30Z</time>
      </trkpt>
      <trkpt lat="47.19464" lon="-1.57973">
        <ele>50</ele>
        <time>2022-07-09T10:16:32Z</time>
      </trkpt>
      <trkpt lat="47.19463" lon="-1.5799">
        <ele>50</ele>
        <time>2022-07-09T10:16:34Z</time>
      </trkpt>
      <trkpt lat="47.19462" lon="-1.58008">
        <ele>50</ele>
        <time>2022-07-09T10:16:36Z</time>
      </trkpt>
      <trkpt lat="47.19461" lon="-1.58026">
        <ele>50</ele>
        <time>2022-07-09T10:16:38Z</time>
      </trkpt>
      <trkpt lat="47.19459" lon="-1.58044">
        <ele>50</ele>
        <time>2022-07-09T10:16:40Z</time>
      </trkpt>
      <trkpt lat="47.19457" lon="-1.58059">
        <ele>50</ele>
        <time>2022-07-09T10:16:42Z</time>
      </trkpt>
      <trkpt lat="47.19455" lon="-1.58077">
        <ele>50</ele>
        <time>2022-07-09T10:16:45Z</time>
      </trkpt>
      <trkpt lat="47.19455" lon="-1.58092">
        <ele>51</ele>
        <time>2022-07-09T10:16:50Z</time>
      </trkpt>
      <trkpt lat="47.19447" lon="-1.58103">
        <ele>51</ele>
        <time>2022-07-09T10:16:53Z</time>
      </trkpt>
      <trkpt lat="47.19438" lon="-1.58113">
        <ele>51</ele>
        <time>2022-07-09T10:16:56Z</time>
      </trkpt>
      <trkpt lat="47.1943" lon="-1.58121">
        <ele>51</ele>
        <time>2022-07-09T10:16:59Z</time>
      </trkpt>
      <trkpt lat="47.19422" lon="-1.5813">
        <ele>51</ele>
        <time>2022-07-09T10:17:02Z</time>
      </trkpt>
      <trkpt lat="47.19413" lon="-1.58141">
        <ele>52</ele>
        <time>2022-07-09T10:17:05Z</time>
      </trkpt>
      <trkpt lat="47.19405" lon="-1.58154">
        <ele>53</ele>
        <time>2022-07-09T10:17:08Z</time>
      </trkpt>
      <trkpt lat="47.19397" lon="-1.58169">
        <ele>53</ele>
        <time>2022-07-09T10:17:11Z</time>
      </trkpt>
      <trkpt lat="47.19392" lon="-1.5818">
        <ele>52</ele>
        <time>2022-07-09T10:17:13Z</time>
      </trkpt>
      <trkpt lat="47.19386" lon="-1.58194">
        <ele>52</ele>
        <time>2022-07-09T10:17:15Z</time>
      </trkpt>
      <trkpt lat="47.19379" lon="-1.58209">
        <ele>51</ele>
        <time>2022-07-09T10:17:17Z</time>
      </trkpt>
      <trkpt lat="47.19373" lon="-1.58225">
        <ele>51</ele>
        <time>2022-07-09T10:17:19Z</time>
      </trkpt>
      <trkpt lat="47.19368" lon="-1.5824">
        <ele>51</ele>
        <time>2022-07-09T10:17:21Z</time>
      </trkpt>
      <trkpt lat="47.19363" lon="-1.58255">
        <ele>51</ele>
        <time>2022-07-09T10:17:23Z</time>
      </trkpt>
      <trkpt lat="47.19357" lon="-1.58269">
        <ele>50</ele>
        <time>2022-07-09T10:17:25Z</time>
      </trkpt>
      <trkpt lat="47.19348" lon="-1.58282">
        <ele>50</ele>
        <time>2022-07-09T10:17:27Z</time>
      </trkpt>
      <trkpt lat="47.19338" lon="-1.58292">
        <ele>50</ele>
        <time>2022-07-09T10:17:29Z</time>
      </trkpt>
      <trkpt lat="47.19327" lon="-1.58302">
        <ele>51</ele>
        <time>2022-07-09T10:17:31Z</time>
      </trkpt>
      <trkpt lat="47.19317" lon="-1.58312">
        <ele>51</ele>
        <time>2022-07-09T10:17:33Z</time>
      </trkpt>
      <trkpt lat="47.19307" lon="-1.5832">
        <ele>51</ele>
        <time>2022-07-09T10:17:35Z</time>
      </trkpt>
      <trkpt lat="47.19299" lon="-1.58329">
        <ele>51</ele>
        <time>2022-07-09T10:17:37Z</time>
      </trkpt>
      <trkpt lat="47.19289" lon="-1.58339">
        <ele>51</ele>
        <time>2022-07-09T10:17:40Z</time>
      </trkpt>
      <trkpt lat="47.19281" lon="-1.58348">
        <ele>51</ele>
        <time>2022-07-09T10:17:43Z</time>
      </trkpt>
      <trkpt lat="47.19274" lon="-1.58355">
        <ele>51</ele>
        <time>2022-07-09T10:17:45Z</time>
      </trkpt>
      <trkpt lat="47.19264" lon="-1.58361">
        <ele>52</ele>
        <time>2022-07-09T10:17:47Z</time>
      </trkpt>
      <trkpt lat="47.19255" lon="-1.5837">
        <ele>52</ele>
        <time>2022-07-09T10:17:49Z</time>
      </trkpt>
      <trkpt lat="47.19246" lon="-1.5838">
        <ele>53</ele>
        <time>2022-07-09T10:17:51Z</time>
      </trkpt>
      <trkpt lat="47.19236" lon="-1.58389">
        <ele>53</ele>
        <time>2022-07-09T10:17:53Z</time>
      </trkpt>
      <trkpt lat="47.19226" lon="-1.58398">
        <ele>53</ele>
        <time>2022-07-09T10:17:55Z</time>
      </trkpt>
      <trkpt lat="47.19215" lon="-1.58407">
        <ele>53</ele>
        <time>2022-07-09T10:17:57Z</time>
      </trkpt>
      <trkpt lat="47.19205" lon="-1.58416">
        <ele>53</ele>
        <time>2022-07-09T10:17:59Z</time>
      </trkpt>
      <trkpt lat="47.19195" lon="-1.58425">
        <ele>53</ele>
        <time>2022-07-09T10:18:01Z</time>
      </trkpt>
      <trkpt lat="47.19185" lon="-1.58434">
        <ele>53</ele>
        <time>2022-07-09T10:18:03Z</time>
      </trkpt>
      <trkpt lat="47.19176" lon="-1.58443">
        <ele>53</ele>
        <time>2022-07-09T10:18:05Z</time>
      </trkpt>
      <trkpt lat="47.19166" lon="-1.58452">
        <ele>53</ele>
        <time>2022-07-09T10:18:07Z</time>
      </trkpt>
      <trkpt lat="47.19158" lon="-1.58461">
        <ele>53</ele>
        <time>2022-07-09T10:18:09Z</time>
      </trkpt>
      <trkpt lat="47.1915" lon="-1.5847">
        <ele>53</ele>
        <time>2022-07-09T10:18:11Z</time>
      </trkpt>
      <trkpt lat="47.19142" lon="-1.58478">
        <ele>53</ele>
        <time>2022-07-09T10:18:13Z</time>
      </trkpt>
      <trkpt lat="47.19132" lon="-1.58487">
        <ele>53</ele>
        <time>2022-07-09T10:18:15Z</time>
      </trkpt>
      <trkpt lat="47.19123" lon="-1.58497">
        <ele>53</ele>
        <time>2022-07-09T10:18:17Z</time>
      </trkpt>
      <trkpt lat="47.19112" lon="-1.58506">
        <ele>54</ele>
        <time>2022-07-09T10:18:19Z</time>
      </trkpt>
      <trkpt lat="47.19101" lon="-1.58514">
        <ele>55</ele>
        <time>2022-07-09T10:18:21Z</time>
      </trkpt>
      <trkpt lat="47.19092" lon="-1.58523">
        <ele>55</ele>
        <time>2022-07-09T10:18:23Z</time>
      </trkpt>
      <trkpt lat="47.19081" lon="-1.58534">
        <ele>55</ele>
        <time>2022-07-09T10:18:25Z</time>
      </trkpt>
      <trkpt lat="47.19072" lon="-1.58543">
        <ele>55</ele>
        <time>2022-07-09T10:18:27Z</time>
      </trkpt>
      <trkpt lat="47.19062" lon="-1.58553">
        <ele>56</ele>
        <time>2022-07-09T10:18:29Z</time>
      </trkpt>
      <trkpt lat="47.19052" lon="-1.58563">
        <ele>55</ele>
        <time>2022-07-09T10:18:31Z</time>
      </trkpt>
      <trkpt lat="47.19044" lon="-1.58573">
        <ele>55</ele>
        <time>2022-07-09T10:18:33Z</time>
      </trkpt>
      <trkpt lat="47.19035" lon="-1.58583">
        <ele>54</ele>
        <time>2022-07-09T10:18:35Z</time>
      </trkpt>
      <trkpt lat="47.19026" lon="-1.58593">
        <ele>53</ele>
        <time>2022-07-09T10:18:37Z</time>
      </trkpt>
      <trkpt lat="47.19018" lon="-1.58602">
        <ele>54</ele>
        <time>2022-07-09T10:18:39Z</time>
      </trkpt>
      <trkpt lat="47.19008" lon="-1.58611">
        <ele>54</ele>
        <time>2022-07-09T10:18:41Z</time>
      </trkpt>
      <trkpt lat="47.18998" lon="-1.5862">
        <ele>54</ele>
        <time>2022-07-09T10:18:43Z</time>
      </trkpt>
      <trkpt lat="47.18989" lon="-1.58629">
        <ele>54</ele>
        <time>2022-07-09T10:18:45Z</time>
      </trkpt>
      <trkpt lat="47.1898" lon="-1.58638">
        <ele>54</ele>
        <time>2022-07-09T10:18:47Z</time>
      </trkpt>
      <trkpt lat="47.18971" lon="-1.58647">
        <ele>54</ele>
        <time>2022-07-09T10:18:49Z</time>
      </trkpt>
      <trkpt lat="47.18961" lon="-1.58657">
        <ele>54</ele>
        <time>2022-07-09T10:18:51Z</time>
      </trkpt>
      <trkpt lat="47.18952" lon="-1.58666">
        <ele>54</ele>
        <time>2022-07-09T10:18:53Z</time>
      </trkpt>
      <trkpt lat="47.18942" lon="-1.58675">
        <ele>53</ele>
        <time>2022-07-09T10:18:55Z</time>
      </trkpt>
      <trkpt lat="47.18931" lon="-1.58684">
        <ele>53</ele>
        <time>2022-07-09T10:18:57Z</time>
      </trkpt>
      <trkpt lat="47.18921" lon="-1.58693">
        <ele>53</ele>
        <time>2022-07-09T10:18:59Z</time>
      </trkpt>
      <trkpt lat="47.18912" lon="-1.58702">
        <ele>53</ele>
        <time>2022-07-09T10:19:01Z</time>
      </trkpt>
      <trkpt lat="47.18902" lon="-1.5871">
        <ele>53</ele>
        <time>2022-07-09T10:19:03Z</time>
      </trkpt>
      <trkpt lat="47.18892" lon="-1.58717">
        <ele>53</ele>
        <time>2022-07-09T10:19:05Z</time>
      </trkpt>
      <trkpt lat="47.18882" lon="-1.58723">
        <ele>53</ele>
        <time>2022-07-09T10:19:07Z</time>
      </trkpt>
      <trkpt lat="47.18873" lon="-1.58728">
        <ele>53</ele>
        <time>2022-07-09T10:19:09Z</time>
      </trkpt>
      <trkpt lat="47.18864" lon="-1.58734">
        <ele>54</ele>
        <time>2022-07-09T10:19:11Z</time>
      </trkpt>
      <trkpt lat="47.18856" lon="-1.58738">
        <ele>54</ele>
        <time>2022-07-09T10:19:13Z</time>
      </trkpt>
      <trkpt lat="47.18846" lon="-1.58741">
        <ele>53</ele>
        <time>2022-07-09T10:19:15Z</time>
      </trkpt>
      <trkpt lat="47.18837" lon="-1.58746">
        <ele>53</ele>
        <time>2022-07-09T10:19:17Z</time>
      </trkpt>
      <trkpt lat="47.1883" lon="-1.58757">
        <ele>53</ele>
        <time>2022-07-09T10:19:19Z</time>
      </trkpt>
      <trkpt lat="47.18828" lon="-1.58771">
        <ele>52</ele>
        <time>2022-07-09T10:19:21Z</time>
      </trkpt>
      <trkpt lat="47.18824" lon="-1.58786">
        <ele>53</ele>
        <time>2022-07-09T10:19:23Z</time>
      </trkpt>
      <trkpt lat="47.18817" lon="-1.58798">
        <ele>53</ele>
        <time>2022-07-09T10:19:25Z</time>
      </trkpt>
      <trkpt lat="47.18808" lon="-1.58807">
        <ele>53</ele>
        <time>2022-07-09T10:19:27Z</time>
      </trkpt>
      <trkpt lat="47.18797" lon="-1.58812">
        <ele>53</ele>
        <time>2022-07-09T10:19:29Z</time>
      </trkpt>
      <trkpt lat="47.18788" lon="-1.58821">
        <ele>52</ele>
        <time>2022-07-09T10:19:31Z</time>
      </trkpt>
      <trkpt lat="47.18785" lon="-1.58836">
        <ele>52</ele>
        <time>2022-07-09T10:19:33Z</time>
      </trkpt>
      <trkpt lat="47.18781" lon="-1.58851">
        <ele>52</ele>
        <time>2022-07-09T10:19:35Z</time>
      </trkpt>
      <trkpt lat="47.18778" lon="-1.58866">
        <ele>52</ele>
        <time>2022-07-09T10:19:37Z</time>
      </trkpt>
      <trkpt lat="47.18775" lon="-1.58884">
        <ele>51</ele>
        <time>2022-07-09T10:19:39Z</time>
      </trkpt>
      <trkpt lat="47.18773" lon="-1.58901">
        <ele>51</ele>
        <time>2022-07-09T10:19:41Z</time>
      </trkpt>
      <trkpt lat="47.18771" lon="-1.58919">
        <ele>51</ele>
        <time>2022-07-09T10:19:43Z</time>
      </trkpt>
      <trkpt lat="47.18769" lon="-1.58937">
        <ele>51</ele>
        <time>2022-07-09T10:19:45Z</time>
      </trkpt>
      <trkpt lat="47.18767" lon="-1.58954">
        <ele>51</ele>
        <time>2022-07-09T10:19:47Z</time>
      </trkpt>
      <trkpt lat="47.18766" lon="-1.58972">
        <ele>51</ele>
        <time>2022-07-09T10:19:49Z</time>
      </trkpt>
      <trkpt lat="47.18764" lon="-1.5899">
        <ele>52</ele>
        <time>2022-07-09T10:19:51Z</time>
      </trkpt>
      <trkpt lat="47.18761" lon="-1.5901">
        <ele>52</ele>
        <time>2022-07-09T10:19:53Z</time>
      </trkpt>
      <trkpt lat="47.1876" lon="-1.59028">
        <ele>52</ele>
        <time>2022-07-09T10:19:55Z</time>
      </trkpt>
      <trkpt lat="47.18758" lon="-1.59047">
        <ele>52</ele>
        <time>2022-07-09T10:19:57Z</time>
      </trkpt>
      <trkpt lat="47.18756" lon="-1.59065">
        <ele>52</ele>
        <time>2022-07-09T10:19:59Z</time>
      </trkpt>
      <trkpt lat="47.18754" lon="-1.59083">
        <ele>52</ele>
        <time>2022-07-09T10:20:01Z</time>
      </trkpt>
      <trkpt lat="47.18753" lon="-1.59102">
        <ele>52</ele>
        <time>2022-07-09T10:20:03Z</time>
      </trkpt>
      <trkpt lat="47.1875" lon="-1.59119">
        <ele>52</ele>
        <time>2022-07-09T10:20:05Z</time>
      </trkpt>
      <trkpt lat="47.18748" lon="-1.59137">
        <ele>52</ele>
        <time>2022-07-09T10:20:07Z</time>
      </trkpt>
      <trkpt lat="47.18746" lon="-1.59154">
        <ele>52</ele>
        <time>2022-07-09T10:20:09Z</time>
      </trkpt>
      <trkpt lat="47.18744" lon="-1.59173">
        <ele>52</ele>
        <time>2022-07-09T10:20:11Z</time>
      </trkpt>
      <trkpt lat="47.18742" lon="-1.59191">
        <ele>52</ele>
        <time>2022-07-09T10:20:13Z</time>
      </trkpt>
      <trkpt lat="47.1874" lon="-1.59209">
        <ele>52</ele>
        <time>2022-07-09T10:20:15Z</time>
      </trkpt>
      <trkpt lat="47.18738" lon="-1.59228">
        <ele>52</ele>
        <time>2022-07-09T10:20:17Z</time>
      </trkpt>
      <trkpt lat="47.18736" lon="-1.59247">
        <ele>52</ele>
        <time>2022-07-09T10:20:19Z</time>
      </trkpt>
      <trkpt lat="47.18734" lon="-1.59265">
        <ele>52</ele>
        <time>2022-07-09T10:20:21Z</time>
      </trkpt>
      <trkpt lat="47.18732" lon="-1.59285">
        <ele>51</ele>
        <time>2022-07-09T10:20:23Z</time>
      </trkpt>
      <trkpt lat="47.1873" lon="-1.59303">
        <ele>52</ele>
        <time>2022-07-09T10:20:25Z</time>
      </trkpt>
      <trkpt lat="47.18728" lon="-1.59322">
        <ele>51</ele>
        <time>2022-07-09T10:20:27Z</time>
      </trkpt>
      <trkpt lat="47.18725" lon="-1.59341">
        <ele>51</ele>
        <time>2022-07-09T10:20:29Z</time>
      </trkpt>
      <trkpt lat="47.18723" lon="-1.59359">
        <ele>51</ele>
        <time>2022-07-09T10:20:31Z</time>
      </trkpt>
      <trkpt lat="47.18721" lon="-1.59378">
        <ele>52</ele>
        <time>2022-07-09T10:20:33Z</time>
      </trkpt>
      <trkpt lat="47.18719" lon="-1.59397">
        <ele>52</ele>
        <time>2022-07-09T10:20:35Z</time>
      </trkpt>
      <trkpt lat="47.18717" lon="-1.59415">
        <ele>51</ele>
        <time>2022-07-09T10:20:37Z</time>
      </trkpt>
      <trkpt lat="47.18716" lon="-1.59433">
        <ele>52</ele>
        <time>2022-07-09T10:20:39Z</time>
      </trkpt>
      <trkpt lat="47.18713" lon="-1.59451">
        <ele>52</ele>
        <time>2022-07-09T10:20:41Z</time>
      </trkpt>
      <trkpt lat="47.18712" lon="-1.59469">
        <ele>52</ele>
        <time>2022-07-09T10:20:43Z</time>
      </trkpt>
      <trkpt lat="47.1871" lon="-1.59487">
        <ele>52</ele>
        <time>2022-07-09T10:20:45Z</time>
      </trkpt>
      <trkpt lat="47.18708" lon="-1.59505">
        <ele>52</ele>
        <time>2022-07-09T10:20:47Z</time>
      </trkpt>
      <trkpt lat="47.18706" lon="-1.59523">
        <ele>52</ele>
        <time>2022-07-09T10:20:49Z</time>
      </trkpt>
      <trkpt lat="47.18704" lon="-1.59542">
        <ele>52</ele>
        <time>2022-07-09T10:20:51Z</time>
      </trkpt>
      <trkpt lat="47.18702" lon="-1.5956">
        <ele>52</ele>
        <time>2022-07-09T10:20:53Z</time>
      </trkpt>
      <trkpt lat="47.187" lon="-1.59578">
        <ele>53</ele>
        <time>2022-07-09T10:20:55Z</time>
      </trkpt>
      <trkpt lat="47.18698" lon="-1.59596">
        <ele>52</ele>
        <time>2022-07-09T10:20:57Z</time>
      </trkpt>
      <trkpt lat="47.18695" lon="-1.59614">
        <ele>53</ele>
        <time>2022-07-09T10:20:59Z</time>
      </trkpt>
      <trkpt lat="47.18693" lon="-1.59633">
        <ele>52</ele>
        <time>2022-07-09T10:21:01Z</time>
      </trkpt>
      <trkpt lat="47.1869" lon="-1.59651">
        <ele>52</ele>
        <time>2022-07-09T10:21:03Z</time>
      </trkpt>
      <trkpt lat="47.18688" lon="-1.5967">
        <ele>52</ele>
        <time>2022-07-09T10:21:05Z</time>
      </trkpt>
      <trkpt lat="47.18685" lon="-1.59688">
        <ele>52</ele>
        <time>2022-07-09T10:21:07Z</time>
      </trkpt>
      <trkpt lat="47.18683" lon="-1.59706">
        <ele>52</ele>
        <time>2022-07-09T10:21:09Z</time>
      </trkpt>
      <trkpt lat="47.18682" lon="-1.59724">
        <ele>52</ele>
        <time>2022-07-09T10:21:11Z</time>
      </trkpt>
      <trkpt lat="47.18682" lon="-1.59741">
        <ele>51</ele>
        <time>2022-07-09T10:21:13Z</time>
      </trkpt>
      <trkpt lat="47.18682" lon="-1.59758">
        <ele>51</ele>
        <time>2022-07-09T10:21:15Z</time>
      </trkpt>
      <trkpt lat="47.18682" lon="-1.59778">
        <ele>52</ele>
        <time>2022-07-09T10:21:17Z</time>
      </trkpt>
      <trkpt lat="47.18684" lon="-1.598">
        <ele>51</ele>
        <time>2022-07-09T10:21:19Z</time>
      </trkpt>
      <trkpt lat="47.18681" lon="-1.59821">
        <ele>51</ele>
        <time>2022-07-09T10:21:21Z</time>
      </trkpt>
      <trkpt lat="47.18672" lon="-1.59838">
        <ele>51</ele>
        <time>2022-07-09T10:21:23Z</time>
      </trkpt>
      <trkpt lat="47.18658" lon="-1.59846">
        <ele>52</ele>
        <time>2022-07-09T10:21:25Z</time>
      </trkpt>
      <trkpt lat="47.18645" lon="-1.59844">
        <ele>52</ele>
        <time>2022-07-09T10:21:27Z</time>
      </trkpt>
      <trkpt lat="47.18632" lon="-1.59836">
        <ele>52</ele>
        <time>2022-07-09T10:21:29Z</time>
      </trkpt>
      <trkpt lat="47.18618" lon="-1.59833">
        <ele>51</ele>
        <time>2022-07-09T10:21:31Z</time>
      </trkpt>
      <trkpt lat="47.18613" lon="-1.59845">
        <ele>51</ele>
        <time>2022-07-09T10:21:33Z</time>
      </trkpt>
      <trkpt lat="47.18618" lon="-1.59858">
        <ele>51</ele>
        <time>2022-07-09T10:21:35Z</time>
      </trkpt>
      <trkpt lat="47.1862" lon="-1.59873">
        <ele>51</ele>
        <time>2022-07-09T10:21:37Z</time>
      </trkpt>
      <trkpt lat="47.18618" lon="-1.59889">
        <ele>51</ele>
        <time>2022-07-09T10:21:39Z</time>
      </trkpt>
      <trkpt lat="47.18614" lon="-1.59906">
        <ele>51</ele>
        <time>2022-07-09T10:21:41Z</time>
      </trkpt>
      <trkpt lat="47.18609" lon="-1.59922">
        <ele>51</ele>
        <time>2022-07-09T10:21:43Z</time>
      </trkpt>
      <trkpt lat="47.18604" lon="-1.59937">
        <ele>51</ele>
        <time>2022-07-09T10:21:45Z</time>
      </trkpt>
      <trkpt lat="47.18599" lon="-1.59954">
        <ele>51</ele>
        <time>2022-07-09T10:21:47Z</time>
      </trkpt>
      <trkpt lat="47.18594" lon="-1.5997">
        <ele>51</ele>
        <time>2022-07-09T10:21:49Z</time>
      </trkpt>
      <trkpt lat="47.18589" lon="-1.59985">
        <ele>51</ele>
        <time>2022-07-09T10:21:51Z</time>
      </trkpt>
      <trkpt lat="47.18584" lon="-1.6">
        <ele>51</ele>
        <time>2022-07-09T10:21:53Z</time>
      </trkpt>
      <trkpt lat="47.18578" lon="-1.60016">
        <ele>51</ele>
        <time>2022-07-09T10:21:55Z</time>
      </trkpt>
      <trkpt lat="47.18573" lon="-1.60031">
        <ele>51</ele>
        <time>2022-07-09T10:21:57Z</time>
      </trkpt>
      <trkpt lat="47.18568" lon="-1.60046">
        <ele>52</ele>
        <time>2022-07-09T10:21:59Z</time>
      </trkpt>
      <trkpt lat="47.18562" lon="-1.60061">
        <ele>52</ele>
        <time>2022-07-09T10:22:01Z</time>
      </trkpt>
      <trkpt lat="47.18556" lon="-1.60076">
        <ele>52</ele>
        <time>2022-07-09T10:22:03Z</time>
      </trkpt>
      <trkpt lat="47.1855" lon="-1.60092">
        <ele>52</ele>
        <time>2022-07-09T10:22:05Z</time>
      </trkpt>
      <trkpt lat="47.18543" lon="-1.60108">
        <ele>52</ele>
        <time>2022-07-09T10:22:07Z</time>
      </trkpt>
      <trkpt lat="47.18537" lon="-1.60123">
        <ele>52</ele>
        <time>2022-07-09T10:22:09Z</time>
      </trkpt>
      <trkpt lat="47.18531" lon="-1.60139">
        <ele>51</ele>
        <time>2022-07-09T10:22:11Z</time>
      </trkpt>
      <trkpt lat="47.18524" lon="-1.60153">
        <ele>51</ele>
        <time>2022-07-09T10:22:13Z</time>
      </trkpt>
      <trkpt lat="47.18516" lon="-1.60168">
        <ele>51</ele>
        <time>2022-07-09T10:22:15Z</time>
      </trkpt>
      <trkpt lat="47.1851" lon="-1.60183">
        <ele>51</ele>
        <time>2022-07-09T10:22:17Z</time>
      </trkpt>
      <trkpt lat="47.18502" lon="-1.60197">
        <ele>51</ele>
        <time>2022-07-09T10:22:19Z</time>
      </trkpt>
      <trkpt lat="47.18495" lon="-1.60212">
        <ele>51</ele>
        <time>2022-07-09T10:22:21Z</time>
      </trkpt>
      <trkpt lat="47.18488" lon="-1.60226">
        <ele>51</ele>
        <time>2022-07-09T10:22:23Z</time>
      </trkpt>
      <trkpt lat="47.1848" lon="-1.6024">
        <ele>51</ele>
        <time>2022-07-09T10:22:25Z</time>
      </trkpt>
      <trkpt lat="47.18473" lon="-1.60254">
        <ele>51</ele>
        <time>2022-07-09T10:22:27Z</time>
      </trkpt>
      <trkpt lat="47.18465" lon="-1.60268">
        <ele>51</ele>
        <time>2022-07-09T10:22:29Z</time>
      </trkpt>
      <trkpt lat="47.18457" lon="-1.60282">
        <ele>51</ele>
        <time>2022-07-09T10:22:31Z</time>
      </trkpt>
      <trkpt lat="47.18449" lon="-1.60295">
        <ele>51</ele>
        <time>2022-07-09T10:22:33Z</time>
      </trkpt>
      <trkpt lat="47.18441" lon="-1.60309">
        <ele>51</ele>
        <time>2022-07-09T10:22:35Z</time>
      </trkpt>
      <trkpt lat="47.18433" lon="-1.60323">
        <ele>51</ele>
        <time>2022-07-09T10:22:37Z</time>
      </trkpt>
      <trkpt lat="47.18424" lon="-1.60337">
        <ele>51</ele>
        <time>2022-07-09T10:22:39Z</time>
      </trkpt>
      <trkpt lat="47.18416" lon="-1.6035">
        <ele>51</ele>
        <time>2022-07-09T10:22:41Z</time>
      </trkpt>
      <trkpt lat="47.18406" lon="-1.60362">
        <ele>51</ele>
        <time>2022-07-09T10:22:43Z</time>
      </trkpt>
      <trkpt lat="47.18397" lon="-1.60375">
        <ele>52</ele>
        <time>2022-07-09T10:22:45Z</time>
      </trkpt>
      <trkpt lat="47.18388" lon="-1.60387">
        <ele>52</ele>
        <time>2022-07-09T10:22:47Z</time>
      </trkpt>
      <trkpt lat="47.18378" lon="-1.604">
        <ele>52</ele>
        <time>2022-07-09T10:22:49Z</time>
      </trkpt>
      <trkpt lat="47.18369" lon="-1.60413">
        <ele>52</ele>
        <time>2022-07-09T10:22:51Z</time>
      </trkpt>
      <trkpt lat="47.18359" lon="-1.60425">
        <ele>52</ele>
        <time>2022-07-09T10:22:53Z</time>
      </trkpt>
      <trkpt lat="47.1835" lon="-1.60437">
        <ele>52</ele>
        <time>2022-07-09T10:22:55Z</time>
      </trkpt>
      <trkpt lat="47.1834" lon="-1.60449">
        <ele>52</ele>
        <time>2022-07-09T10:22:57Z</time>
      </trkpt>
      <trkpt lat="47.18331" lon="-1.60461">
        <ele>52</ele>
        <time>2022-07-09T10:22:59Z</time>
      </trkpt>
      <trkpt lat="47.18321" lon="-1.60472">
        <ele>53</ele>
        <time>2022-07-09T10:23:01Z</time>
      </trkpt>
      <trkpt lat="47.18311" lon="-1.60483">
        <ele>53</ele>
        <time>2022-07-09T10:23:03Z</time>
      </trkpt>
      <trkpt lat="47.18301" lon="-1.60494">
        <ele>53</ele>
        <time>2022-07-09T10:23:05Z</time>
      </trkpt>
      <trkpt lat="47.1829" lon="-1.60505">
        <ele>52</ele>
        <time>2022-07-09T10:23:07Z</time>
      </trkpt>
      <trkpt lat="47.1828" lon="-1.60516">
        <ele>52</ele>
        <time>2022-07-09T10:23:09Z</time>
      </trkpt>
      <trkpt lat="47.1827" lon="-1.60526">
        <ele>52</ele>
        <time>2022-07-09T10:23:11Z</time>
      </trkpt>
      <trkpt lat="47.18259" lon="-1.60536">
        <ele>52</ele>
        <time>2022-07-09T10:23:13Z</time>
      </trkpt>
      <trkpt lat="47.18248" lon="-1.60545">
        <ele>53</ele>
        <time>2022-07-09T10:23:15Z</time>
      </trkpt>
      <trkpt lat="47.18237" lon="-1.60553">
        <ele>53</ele>
        <time>2022-07-09T10:23:17Z</time>
      </trkpt>
      <trkpt lat="47.18226" lon="-1.6056">
        <ele>53</ele>
        <time>2022-07-09T10:23:19Z</time>
      </trkpt>
      <trkpt lat="47.18215" lon="-1.60566">
        <ele>53</ele>
        <time>2022-07-09T10:23:21Z</time>
      </trkpt>
      <trkpt lat="47.18205" lon="-1.60571">
        <ele>53</ele>
        <time>2022-07-09T10:23:23Z</time>
      </trkpt>
      <trkpt lat="47.18196" lon="-1.60575">
        <ele>54</ele>
        <time>2022-07-09T10:23:25Z</time>
      </trkpt>
      <trkpt lat="47.18187" lon="-1.60583">
        <ele>54</ele>
        <time>2022-07-09T10:23:28Z</time>
      </trkpt>
      <trkpt lat="47.18183" lon="-1.60598">
        <ele>54</ele>
        <time>2022-07-09T10:23:31Z</time>
      </trkpt>
      <trkpt lat="47.18173" lon="-1.60603">
        <ele>53</ele>
        <time>2022-07-09T10:23:33Z</time>
      </trkpt>
      <trkpt lat="47.1816" lon="-1.60604">
        <ele>53</ele>
        <time>2022-07-09T10:23:35Z</time>
      </trkpt>
      <trkpt lat="47.18148" lon="-1.60605">
        <ele>52</ele>
        <time>2022-07-09T10:23:37Z</time>
      </trkpt>
      <trkpt lat="47.18136" lon="-1.60604">
        <ele>53</ele>
        <time>2022-07-09T10:23:39Z</time>
      </trkpt>
      <trkpt lat="47.18124" lon="-1.60601">
        <ele>53</ele>
        <time>2022-07-09T10:23:41Z</time>
      </trkpt>
      <trkpt lat="47.18112" lon="-1.60597">
        <ele>53</ele>
        <time>2022-07-09T10:23:43Z</time>
      </trkpt>
      <trkpt lat="47.18099" lon="-1.60594">
        <ele>53</ele>
        <time>2022-07-09T10:23:45Z</time>
      </trkpt>
      <trkpt lat="47.18087" lon="-1.60588">
        <ele>53</ele>
        <time>2022-07-09T10:23:47Z</time>
      </trkpt>
      <trkpt lat="47.18075" lon="-1.60582">
        <ele>53</ele>
        <time>2022-07-09T10:23:49Z</time>
      </trkpt>
      <trkpt lat="47.18063" lon="-1.60576">
        <ele>53</ele>
        <time>2022-07-09T10:23:51Z</time>
      </trkpt>
      <trkpt lat="47.18052" lon="-1.60569">
        <ele>53</ele>
        <time>2022-07-09T10:23:53Z</time>
      </trkpt>
      <trkpt lat="47.18041" lon="-1.60562">
        <ele>53</ele>
        <time>2022-07-09T10:23:55Z</time>
      </trkpt>
      <trkpt lat="47.18029" lon="-1.60556">
        <ele>53</ele>
        <time>2022-07-09T10:23:57Z</time>
      </trkpt>
      <trkpt lat="47.18017" lon="-1.60554">
        <ele>53</ele>
        <time>2022-07-09T10:23:59Z</time>
      </trkpt>
      <trkpt lat="47.17999" lon="-1.60556">
        <ele>53</ele>
        <time>2022-07-09T10:24:02Z</time>
      </trkpt>
      <trkpt lat="47.17983" lon="-1.60562">
        <ele>54</ele>
        <time>2022-07-09T10:24:05Z</time>
      </trkpt>
      <trkpt lat="47.17967" lon="-1.60568">
        <ele>54</ele>
        <time>2022-07-09T10:24:08Z</time>
      </trkpt>
      <trkpt lat="47.17958" lon="-1.60572">
        <ele>53</ele>
        <time>2022-07-09T10:24:10Z</time>
      </trkpt>
      <trkpt lat="47.17943" lon="-1.60582">
        <ele>55</ele>
        <time>2022-07-09T10:24:13Z</time>
      </trkpt>
      <trkpt lat="47.17932" lon="-1.60586">
        <ele>57</ele>
        <time>2022-07-09T10:24:15Z</time>
      </trkpt>
      <trkpt lat="47.17921" lon="-1.60588">
        <ele>58</ele>
        <time>2022-07-09T10:24:17Z</time>
      </trkpt>
      <trkpt lat="47.17911" lon="-1.60589">
        <ele>58</ele>
        <time>2022-07-09T10:24:19Z</time>
      </trkpt>
      <trkpt lat="47.17904" lon="-1.60602">
        <ele>56</ele>
        <time>2022-07-09T10:24:21Z</time>
      </trkpt>
      <trkpt lat="47.179" lon="-1.6062">
        <ele>55</ele>
        <time>2022-07-09T10:24:23Z</time>
      </trkpt>
      <trkpt lat="47.17891" lon="-1.60647">
        <ele>54</ele>
        <time>2022-07-09T10:24:26Z</time>
      </trkpt>
      <trkpt lat="47.17885" lon="-1.60665">
        <ele>53</ele>
        <time>2022-07-09T10:24:28Z</time>
      </trkpt>
      <trkpt lat="47.17879" lon="-1.60683">
        <ele>52</ele>
        <time>2022-07-09T10:24:30Z</time>
      </trkpt>
      <trkpt lat="47.17874" lon="-1.60703">
        <ele>52</ele>
        <time>2022-07-09T10:24:32Z</time>
      </trkpt>
      <trkpt lat="47.17869" lon="-1.60721">
        <ele>51</ele>
        <time>2022-07-09T10:24:34Z</time>
      </trkpt>
      <trkpt lat="47.17865" lon="-1.60739">
        <ele>51</ele>
        <time>2022-07-09T10:24:36Z</time>
      </trkpt>
      <trkpt lat="47.1786" lon="-1.60758">
        <ele>51</ele>
        <time>2022-07-09T10:24:38Z</time>
      </trkpt>
      <trkpt lat="47.17856" lon="-1.60776">
        <ele>51</ele>
        <time>2022-07-09T10:24:40Z</time>
      </trkpt>
      <trkpt lat="47.17852" lon="-1.60794">
        <ele>51</ele>
        <time>2022-07-09T10:24:42Z</time>
      </trkpt>
      <trkpt lat="47.17848" lon="-1.60811">
        <ele>51</ele>
        <time>2022-07-09T10:24:44Z</time>
      </trkpt>
      <trkpt lat="47.17844" lon="-1.60828">
        <ele>51</ele>
        <time>2022-07-09T10:24:46Z</time>
      </trkpt>
      <trkpt lat="47.17838" lon="-1.60844">
        <ele>51</ele>
        <time>2022-07-09T10:24:48Z</time>
      </trkpt>
      <trkpt lat="47.17831" lon="-1.60858">
        <ele>51</ele>
        <time>2022-07-09T10:24:50Z</time>
      </trkpt>
      <trkpt lat="47.17823" lon="-1.60872">
        <ele>51</ele>
        <time>2022-07-09T10:24:52Z</time>
      </trkpt>
      <trkpt lat="47.17814" lon="-1.60885">
        <ele>51</ele>
        <time>2022-07-09T10:24:54Z</time>
      </trkpt>
      <trkpt lat="47.17804" lon="-1.60895">
        <ele>52</ele>
        <time>2022-07-09T10:24:56Z</time>
      </trkpt>
      <trkpt lat="47.17793" lon="-1.60903">
        <ele>52</ele>
        <time>2022-07-09T10:24:58Z</time>
      </trkpt>
      <trkpt lat="47.17781" lon="-1.60912">
        <ele>52</ele>
        <time>2022-07-09T10:25:00Z</time>
      </trkpt>
      <trkpt lat="47.1777" lon="-1.6092">
        <ele>52</ele>
        <time>2022-07-09T10:25:02Z</time>
      </trkpt>
      <trkpt lat="47.1776" lon="-1.60928">
        <ele>54</ele>
        <time>2022-07-09T10:25:04Z</time>
      </trkpt>
      <trkpt lat="47.17749" lon="-1.60936">
        <ele>54</ele>
        <time>2022-07-09T10:25:06Z</time>
      </trkpt>
      <trkpt lat="47.17738" lon="-1.60944">
        <ele>54</ele>
        <time>2022-07-09T10:25:08Z</time>
      </trkpt>
      <trkpt lat="47.17727" lon="-1.60952">
        <ele>54</ele>
        <time>2022-07-09T10:25:10Z</time>
      </trkpt>
      <trkpt lat="47.17716" lon="-1.6096">
        <ele>53</ele>
        <time>2022-07-09T10:25:12Z</time>
      </trkpt>
      <trkpt lat="47.17704" lon="-1.60966">
        <ele>53</ele>
        <time>2022-07-09T10:25:14Z</time>
      </trkpt>
      <trkpt lat="47.17692" lon="-1.60972">
        <ele>53</ele>
        <time>2022-07-09T10:25:16Z</time>
      </trkpt>
      <trkpt lat="47.17679" lon="-1.60973">
        <ele>52</ele>
        <time>2022-07-09T10:25:18Z</time>
      </trkpt>
      <trkpt lat="47.17665" lon="-1.60971">
        <ele>52</ele>
        <time>2022-07-09T10:25:20Z</time>
      </trkpt>
      <trkpt lat="47.17652" lon="-1.60976">
        <ele>52</ele>
        <time>2022-07-09T10:25:22Z</time>
      </trkpt>
      <trkpt lat="47.1764" lon="-1.60987">
        <ele>51</ele>
        <time>2022-07-09T10:25:24Z</time>
      </trkpt>
      <trkpt lat="47.17629" lon="-1.60997">
        <ele>51</ele>
        <time>2022-07-09T10:25:26Z</time>
      </trkpt>
      <trkpt lat="47.17617" lon="-1.61007">
        <ele>51</ele>
        <time>2022-07-09T10:25:28Z</time>
      </trkpt>
      <trkpt lat="47.17607" lon="-1.61017">
        <ele>51</ele>
        <time>2022-07-09T10:25:30Z</time>
      </trkpt>
      <trkpt lat="47.17596" lon="-1.61026">
        <ele>51</ele>
        <time>2022-07-09T10:25:32Z</time>
      </trkpt>
      <trkpt lat="47.17585" lon="-1.61035">
        <ele>51</ele>
        <time>2022-07-09T10:25:34Z</time>
      </trkpt>
      <trkpt lat="47.17574" lon="-1.61045">
        <ele>52</ele>
        <time>2022-07-09T10:25:36Z</time>
      </trkpt>
      <trkpt lat="47.17563" lon="-1.61054">
        <ele>52</ele>
        <time>2022-07-09T10:25:38Z</time>
      </trkpt>
      <trkpt lat="47.17553" lon="-1.61063">
        <ele>51</ele>
        <time>2022-07-09T10:25:40Z</time>
      </trkpt>
      <trkpt lat="47.17542" lon="-1.61073">
        <ele>52</ele>
        <time>2022-07-09T10:25:42Z</time>
      </trkpt>
      <trkpt lat="47.17532" lon="-1.61082">
        <ele>52</ele>
        <time>2022-07-09T10:25:44Z</time>
      </trkpt>
      <trkpt lat="47.17521" lon="-1.61092">
        <ele>52</ele>
        <time>2022-07-09T10:25:46Z</time>
      </trkpt>
      <trkpt lat="47.1751" lon="-1.61101">
        <ele>52</ele>
        <time>2022-07-09T10:25:48Z</time>
      </trkpt>
      <trkpt lat="47.17498" lon="-1.61105">
        <ele>52</ele>
        <time>2022-07-09T10:25:50Z</time>
      </trkpt>
      <trkpt lat="47.17486" lon="-1.61106">
        <ele>52</ele>
        <time>2022-07-09T10:25:52Z</time>
      </trkpt>
      <trkpt lat="47.17474" lon="-1.61104">
        <ele>52</ele>
        <time>2022-07-09T10:25:54Z</time>
      </trkpt>
      <trkpt lat="47.17463" lon="-1.61096">
        <ele>52</ele>
        <time>2022-07-09T10:25:56Z</time>
      </trkpt>
      <trkpt lat="47.17453" lon="-1.61087">
        <ele>52</ele>
        <time>2022-07-09T10:25:58Z</time>
      </trkpt>
      <trkpt lat="47.17444" lon="-1.61077">
        <ele>53</ele>
        <time>2022-07-09T10:26:00Z</time>
      </trkpt>
      <trkpt lat="47.17437" lon="-1.61065">
        <ele>53</ele>
        <time>2022-07-09T10:26:02Z</time>
      </trkpt>
      <trkpt lat="47.17431" lon="-1.61051">
        <ele>53</ele>
        <time>2022-07-09T10:26:04Z</time>
      </trkpt>
      <trkpt lat="47.17428" lon="-1.61039">
        <ele>54</ele>
        <time>2022-07-09T10:26:06Z</time>
      </trkpt>
      <trkpt lat="47.17423" lon="-1.61024">
        <ele>55</ele>
        <time>2022-07-09T10:26:09Z</time>
      </trkpt>
      <trkpt lat="47.17416" lon="-1.61035">
        <ele>55</ele>
        <time>2022-07-09T10:26:14Z</time>
      </trkpt>
      <trkpt lat="47.17421" lon="-1.61048">
        <ele>55</ele>
        <time>2022-07-09T10:26:16Z</time>
      </trkpt>
      <trkpt lat="47.17426" lon="-1.6106">
        <ele>55</ele>
        <time>2022-07-09T10:26:18Z</time>
      </trkpt>
      <trkpt lat="47.17432" lon="-1.61072">
        <ele>56</ele>
        <time>2022-07-09T10:26:20Z</time>
      </trkpt>
      <trkpt lat="47.17438" lon="-1.61088">
        <ele>57</ele>
        <time>2022-07-09T10:26:22Z</time>
      </trkpt>
      <trkpt lat="47.17443" lon="-1.61102">
        <ele>58</ele>
        <time>2022-07-09T10:26:24Z</time>
      </trkpt>
      <trkpt lat="47.17449" lon="-1.61116">
        <ele>58</ele>
        <time>2022-07-09T10:26:26Z</time>
      </trkpt>
      <trkpt lat="47.17454" lon="-1.61129">
        <ele>59</ele>
        <time>2022-07-09T10:26:28Z</time>
      </trkpt>
      <trkpt lat="47.17459" lon="-1.61142">
        <ele>59</ele>
        <time>2022-07-09T10:26:30Z</time>
      </trkpt>
      <trkpt lat="47.17464" lon="-1.61155">
        <ele>59</ele>
        <time>2022-07-09T10:26:32Z</time>
      </trkpt>
      <trkpt lat="47.1747" lon="-1.61168">
        <ele>60</ele>
        <time>2022-07-09T10:26:34Z</time>
      </trkpt>
      <trkpt lat="47.17476" lon="-1.61181">
        <ele>59</ele>
        <time>2022-07-09T10:26:36Z</time>
      </trkpt>
      <trkpt lat="47.17481" lon="-1.61195">
        <ele>59</ele>
        <time>2022-07-09T10:26:38Z</time>
      </trkpt>
      <trkpt lat="47.17486" lon="-1.61208">
        <ele>59</ele>
        <time>2022-07-09T10:26:40Z</time>
      </trkpt>
      <trkpt lat="47.17492" lon="-1.61221">
        <ele>58</ele>
        <time>2022-07-09T10:26:42Z</time>
      </trkpt>
      <trkpt lat="47.17497" lon="-1.61234">
        <ele>58</ele>
        <time>2022-07-09T10:26:44Z</time>
      </trkpt>
      <trkpt lat="47.17503" lon="-1.61247">
        <ele>59</ele>
        <time>2022-07-09T10:26:46Z</time>
      </trkpt>
      <trkpt lat="47.1751" lon="-1.61259">
        <ele>59</ele>
        <time>2022-07-09T10:26:48Z</time>
      </trkpt>
      <trkpt lat="47.17516" lon="-1.6127">
        <ele>59</ele>
        <time>2022-07-09T10:26:50Z</time>
      </trkpt>
      <trkpt lat="47.17524" lon="-1.6128">
        <ele>59</ele>
        <time>2022-07-09T10:26:52Z</time>
      </trkpt>
      <trkpt lat="47.17533" lon="-1.61288">
        <ele>59</ele>
        <time>2022-07-09T10:26:54Z</time>
      </trkpt>
      <trkpt lat="47.17543" lon="-1.61293">
        <ele>59</ele>
        <time>2022-07-09T10:26:56Z</time>
      </trkpt>
      <trkpt lat="47.17553" lon="-1.61301">
        <ele>59</ele>
        <time>2022-07-09T10:26:58Z</time>
      </trkpt>
      <trkpt lat="47.17559" lon="-1.61316">
        <ele>58</ele>
        <time>2022-07-09T10:27:00Z</time>
      </trkpt>
      <trkpt lat="47.17559" lon="-1.61333">
        <ele>58</ele>
        <time>2022-07-09T10:27:02Z</time>
      </trkpt>
      <trkpt lat="47.17552" lon="-1.61347">
        <ele>59</ele>
        <time>2022-07-09T10:27:04Z</time>
      </trkpt>
      <trkpt lat="47.17541" lon="-1.61357">
        <ele>59</ele>
        <time>2022-07-09T10:27:06Z</time>
      </trkpt>
      <trkpt lat="47.17532" lon="-1.61369">
        <ele>59</ele>
        <time>2022-07-09T10:27:08Z</time>
      </trkpt>
      <trkpt lat="47.17526" lon="-1.61384">
        <ele>59</ele>
        <time>2022-07-09T10:27:10Z</time>
      </trkpt>
      <trkpt lat="47.17522" lon="-1.614">
        <ele>59</ele>
        <time>2022-07-09T10:27:12Z</time>
      </trkpt>
      <trkpt lat="47.17519" lon="-1.61415">
        <ele>59</ele>
        <time>2022-07-09T10:27:14Z</time>
      </trkpt>
      <trkpt lat="47.17516" lon="-1.6143">
        <ele>59</ele>
        <time>2022-07-09T10:27:16Z</time>
      </trkpt>
      <trkpt lat="47.17515" lon="-1.61443">
        <ele>60</ele>
        <time>2022-07-09T10:27:18Z</time>
      </trkpt>
      <trkpt lat="47.17512" lon="-1.61457">
        <ele>61</ele>
        <time>2022-07-09T10:27:21Z</time>
      </trkpt>
      <trkpt lat="47.175" lon="-1.61465">
        <ele>61</ele>
        <time>2022-07-09T10:27:24Z</time>
      </trkpt>
      <trkpt lat="47.17488" lon="-1.6147">
        <ele>61</ele>
        <time>2022-07-09T10:27:26Z</time>
      </trkpt>
      <trkpt lat="47.17478" lon="-1.61474">
        <ele>62</ele>
        <time>2022-07-09T10:27:28Z</time>
      </trkpt>
      <trkpt lat="47.17467" lon="-1.61478">
        <ele>62</ele>
        <time>2022-07-09T10:27:30Z</time>
      </trkpt>
      <trkpt lat="47.17457" lon="-1.61482">
        <ele>63</ele>
        <time>2022-07-09T10:27:32Z</time>
      </trkpt>
      <trkpt lat="47.17446" lon="-1.61488">
        <ele>64</ele>
        <time>2022-07-09T10:27:34Z</time>
      </trkpt>
      <trkpt lat="47.17435" lon="-1.61493">
        <ele>64</ele>
        <time>2022-07-09T10:27:36Z</time>
      </trkpt>
      <trkpt lat="47.17425" lon="-1.615">
        <ele>64</ele>
        <time>2022-07-09T10:27:38Z</time>
      </trkpt>
      <trkpt lat="47.17416" lon="-1.61507">
        <ele>63</ele>
        <time>2022-07-09T10:27:40Z</time>
      </trkpt>
      <trkpt lat="47.17407" lon="-1.61513">
        <ele>63</ele>
        <time>2022-07-09T10:27:42Z</time>
      </trkpt>
      <trkpt lat="47.17398" lon="-1.6152">
        <ele>64</ele>
        <time>2022-07-09T10:27:44Z</time>
      </trkpt>
      <trkpt lat="47.17389" lon="-1.61528">
        <ele>64</ele>
        <time>2022-07-09T10:27:46Z</time>
      </trkpt>
      <trkpt lat="47.1738" lon="-1.61536">
        <ele>64</ele>
        <time>2022-07-09T10:27:48Z</time>
      </trkpt>
      <trkpt lat="47.17371" lon="-1.61543">
        <ele>64</ele>
        <time>2022-07-09T10:27:50Z</time>
      </trkpt>
      <trkpt lat="47.17364" lon="-1.61551">
        <ele>65</ele>
        <time>2022-07-09T10:27:52Z</time>
      </trkpt>
      <trkpt lat="47.17356" lon="-1.61559">
        <ele>65</ele>
        <time>2022-07-09T10:27:54Z</time>
      </trkpt>
      <trkpt lat="47.17349" lon="-1.61568">
        <ele>66</ele>
        <time>2022-07-09T10:27:56Z</time>
      </trkpt>
      <trkpt lat="47.17341" lon="-1.61578">
        <ele>66</ele>
        <time>2022-07-09T10:27:58Z</time>
      </trkpt>
      <trkpt lat="47.17333" lon="-1.61588">
        <ele>66</ele>
        <time>2022-07-09T10:28:00Z</time>
      </trkpt>
      <trkpt lat="47.17325" lon="-1.61597">
        <ele>67</ele>
        <time>2022-07-09T10:28:02Z</time>
      </trkpt>
      <trkpt lat="47.17317" lon="-1.61607">
        <ele>68</ele>
        <time>2022-07-09T10:28:04Z</time>
      </trkpt>
      <trkpt lat="47.1731" lon="-1.61618">
        <ele>68</ele>
        <time>2022-07-09T10:28:06Z</time>
      </trkpt>
      <trkpt lat="47.17302" lon="-1.61631">
        <ele>68</ele>
        <time>2022-07-09T10:28:08Z</time>
      </trkpt>
      <trkpt lat="47.17295" lon="-1.61643">
        <ele>67</ele>
        <time>2022-07-09T10:28:10Z</time>
      </trkpt>
      <trkpt lat="47.17289" lon="-1.61655">
        <ele>68</ele>
        <time>2022-07-09T10:28:12Z</time>
      </trkpt>
      <trkpt lat="47.17282" lon="-1.61668">
        <ele>68</ele>
        <time>2022-07-09T10:28:14Z</time>
      </trkpt>
      <trkpt lat="47.17276" lon="-1.61682">
        <ele>68</ele>
        <time>2022-07-09T10:28:16Z</time>
      </trkpt>
      <trkpt lat="47.17269" lon="-1.61695">
        <ele>68</ele>
        <time>2022-07-09T10:28:18Z</time>
      </trkpt>
      <trkpt lat="47.17262" lon="-1.61709">
        <ele>67</ele>
        <time>2022-07-09T10:28:20Z</time>
      </trkpt>
      <trkpt lat="47.17255" lon="-1.61723">
        <ele>67</ele>
        <time>2022-07-09T10:28:22Z</time>
      </trkpt>
      <trkpt lat="47.17249" lon="-1.61736">
        <ele>67</ele>
        <time>2022-07-09T10:28:24Z</time>
      </trkpt>
      <trkpt lat="47.17245" lon="-1.6175">
        <ele>66</ele>
        <time>2022-07-09T10:28:26Z</time>
      </trkpt>
      <trkpt lat="47.17243" lon="-1.61765">
        <ele>67</ele>
        <time>2022-07-09T10:28:28Z</time>
      </trkpt>
      <trkpt lat="47.17237" lon="-1.6178">
        <ele>67</ele>
        <time>2022-07-09T10:28:30Z</time>
      </trkpt>
      <trkpt lat="47.17228" lon="-1.6179">
        <ele>66</ele>
        <time>2022-07-09T10:28:32Z</time>
      </trkpt>
      <trkpt lat="47.17217" lon="-1.61799">
        <ele>66</ele>
        <time>2022-07-09T10:28:34Z</time>
      </trkpt>
      <trkpt lat="47.17207" lon="-1.61808">
        <ele>66</ele>
        <time>2022-07-09T10:28:36Z</time>
      </trkpt>
      <trkpt lat="47.17197" lon="-1.61816">
        <ele>66</ele>
        <time>2022-07-09T10:28:38Z</time>
      </trkpt>
      <trkpt lat="47.17188" lon="-1.61826">
        <ele>66</ele>
        <time>2022-07-09T10:28:40Z</time>
      </trkpt>
      <trkpt lat="47.17178" lon="-1.61835">
        <ele>66</ele>
        <time>2022-07-09T10:28:42Z</time>
      </trkpt>
      <trkpt lat="47.17167" lon="-1.61844">
        <ele>66</ele>
        <time>2022-07-09T10:28:44Z</time>
      </trkpt>
      <trkpt lat="47.17157" lon="-1.61854">
        <ele>66</ele>
        <time>2022-07-09T10:28:46Z</time>
      </trkpt>
      <trkpt lat="47.17147" lon="-1.61864">
        <ele>66</ele>
        <time>2022-07-09T10:28:48Z</time>
      </trkpt>
      <trkpt lat="47.17137" lon="-1.61874">
        <ele>66</ele>
        <time>2022-07-09T10:28:50Z</time>
      </trkpt>
      <trkpt lat="47.17126" lon="-1.61884">
        <ele>66</ele>
        <time>2022-07-09T10:28:52Z</time>
      </trkpt>
      <trkpt lat="47.17116" lon="-1.61894">
        <ele>67</ele>
        <time>2022-07-09T10:28:54Z</time>
      </trkpt>
      <trkpt lat="47.17106" lon="-1.61904">
        <ele>66</ele>
        <time>2022-07-09T10:28:56Z</time>
      </trkpt>
      <trkpt lat="47.17096" lon="-1.61914">
        <ele>66</ele>
        <time>2022-07-09T10:28:58Z</time>
      </trkpt>
      <trkpt lat="47.17086" lon="-1.61923">
        <ele>67</ele>
        <time>2022-07-09T10:29:00Z</time>
      </trkpt>
      <trkpt lat="47.17077" lon="-1.61932">
        <ele>67</ele>
        <time>2022-07-09T10:29:02Z</time>
      </trkpt>
      <trkpt lat="47.17068" lon="-1.61941">
        <ele>67</ele>
        <time>2022-07-09T10:29:04Z</time>
      </trkpt>
      <trkpt lat="47.17058" lon="-1.61953">
        <ele>67</ele>
        <time>2022-07-09T10:29:06Z</time>
      </trkpt>
      <trkpt lat="47.17049" lon="-1.61966">
        <ele>67</ele>
        <time>2022-07-09T10:29:08Z</time>
      </trkpt>
      <trkpt lat="47.17039" lon="-1.61978">
        <ele>67</ele>
        <time>2022-07-09T10:29:10Z</time>
      </trkpt>
      <trkpt lat="47.17031" lon="-1.61991">
        <ele>67</ele>
        <time>2022-07-09T10:29:12Z</time>
      </trkpt>
      <trkpt lat="47.17022" lon="-1.62005">
        <ele>67</ele>
        <time>2022-07-09T10:29:14Z</time>
      </trkpt>
      <trkpt lat="47.17013" lon="-1.62019">
        <ele>67</ele>
        <time>2022-07-09T10:29:16Z</time>
      </trkpt>
      <trkpt lat="47.17004" lon="-1.62032">
        <ele>66</ele>
        <time>2022-07-09T10:29:18Z</time>
      </trkpt>
      <trkpt lat="47.16996" lon="-1.62047">
        <ele>66</ele>
        <time>2022-07-09T10:29:20Z</time>
      </trkpt>
      <trkpt lat="47.16988" lon="-1.62061">
        <ele>66</ele>
        <time>2022-07-09T10:29:22Z</time>
      </trkpt>
      <trkpt lat="47.1698" lon="-1.62076">
        <ele>66</ele>
        <time>2022-07-09T10:29:24Z</time>
      </trkpt>
      <trkpt lat="47.16971" lon="-1.6209">
        <ele>66</ele>
        <time>2022-07-09T10:29:26Z</time>
      </trkpt>
      <trkpt lat="47.16963" lon="-1.62104">
        <ele>66</ele>
        <time>2022-07-09T10:29:28Z</time>
      </trkpt>
      <trkpt lat="47.16956" lon="-1.62118">
        <ele>65</ele>
        <time>2022-07-09T10:29:30Z</time>
      </trkpt>
      <trkpt lat="47.16948" lon="-1.62133">
        <ele>65</ele>
        <time>2022-07-09T10:29:32Z</time>
      </trkpt>
      <trkpt lat="47.16941" lon="-1.62147">
        <ele>65</ele>
        <time>2022-07-09T10:29:34Z</time>
      </trkpt>
      <trkpt lat="47.16934" lon="-1.62162">
        <ele>66</ele>
        <time>2022-07-09T10:29:36Z</time>
      </trkpt>
      <trkpt lat="47.16927" lon="-1.62177">
        <ele>66</ele>
        <time>2022-07-09T10:29:38Z</time>
      </trkpt>
      <trkpt lat="47.1692" lon="-1.62191">
        <ele>65</ele>
        <time>2022-07-09T10:29:40Z</time>
      </trkpt>
      <trkpt lat="47.16912" lon="-1.62205">
        <ele>66</ele>
        <time>2022-07-09T10:29:42Z</time>
      </trkpt>
      <trkpt lat="47.16903" lon="-1.62219">
        <ele>66</ele>
        <time>2022-07-09T10:29:44Z</time>
      </trkpt>
      <trkpt lat="47.16893" lon="-1.62231">
        <ele>66</ele>
        <time>2022-07-09T10:29:46Z</time>
      </trkpt>
      <trkpt lat="47.16883" lon="-1.62243">
        <ele>67</ele>
        <time>2022-07-09T10:29:48Z</time>
      </trkpt>
      <trkpt lat="47.16873" lon="-1.62255">
        <ele>66</ele>
        <time>2022-07-09T10:29:50Z</time>
      </trkpt>
      <trkpt lat="47.16863" lon="-1.62267">
        <ele>67</ele>
        <time>2022-07-09T10:29:52Z</time>
      </trkpt>
      <trkpt lat="47.16854" lon="-1.62279">
        <ele>67</ele>
        <time>2022-07-09T10:29:54Z</time>
      </trkpt>
      <trkpt lat="47.16844" lon="-1.62291">
        <ele>67</ele>
        <time>2022-07-09T10:29:56Z</time>
      </trkpt>
      <trkpt lat="47.16835" lon="-1.62303">
        <ele>67</ele>
        <time>2022-07-09T10:29:58Z</time>
      </trkpt>
      <trkpt lat="47.16824" lon="-1.62313">
        <ele>67</ele>
        <time>2022-07-09T10:30:00Z</time>
      </trkpt>
      <trkpt lat="47.16813" lon="-1.62321">
        <ele>68</ele>
        <time>2022-07-09T10:30:02Z</time>
      </trkpt>
      <trkpt lat="47.16802" lon="-1.62329">
        <ele>67</ele>
        <time>2022-07-09T10:30:04Z</time>
      </trkpt>
      <trkpt lat="47.1679" lon="-1.62336">
        <ele>68</ele>
        <time>2022-07-09T10:30:06Z</time>
      </trkpt>
      <trkpt lat="47.16778" lon="-1.62341">
        <ele>67</ele>
        <time>2022-07-09T10:30:08Z</time>
      </trkpt>
      <trkpt lat="47.16767" lon="-1.62348">
        <ele>67</ele>
        <time>2022-07-09T10:30:10Z</time>
      </trkpt>
      <trkpt lat="47.16755" lon="-1.62357">
        <ele>66</ele>
        <time>2022-07-09T10:30:12Z</time>
      </trkpt>
      <trkpt lat="47.16743" lon="-1.62368">
        <ele>66</ele>
        <time>2022-07-09T10:30:14Z</time>
      </trkpt>
      <trkpt lat="47.16734" lon="-1.62382">
        <ele>65</ele>
        <time>2022-07-09T10:30:16Z</time>
      </trkpt>
      <trkpt lat="47.16729" lon="-1.62399">
        <ele>65</ele>
        <time>2022-07-09T10:30:18Z</time>
      </trkpt>
      <trkpt lat="47.16727" lon="-1.62416">
        <ele>65</ele>
        <time>2022-07-09T10:30:20Z</time>
      </trkpt>
      <trkpt lat="47.16725" lon="-1.62433">
        <ele>65</ele>
        <time>2022-07-09T10:30:22Z</time>
      </trkpt>
      <trkpt lat="47.16722" lon="-1.6245">
        <ele>65</ele>
        <time>2022-07-09T10:30:24Z</time>
      </trkpt>
      <trkpt lat="47.16717" lon="-1.62466">
        <ele>65</ele>
        <time>2022-07-09T10:30:26Z</time>
      </trkpt>
      <trkpt lat="47.16713" lon="-1.62482">
        <ele>65</ele>
        <time>2022-07-09T10:30:28Z</time>
      </trkpt>
      <trkpt lat="47.16715" lon="-1.62496">
        <ele>65</ele>
        <time>2022-07-09T10:30:30Z</time>
      </trkpt>
      <trkpt lat="47.16726" lon="-1.62501">
        <ele>65</ele>
        <time>2022-07-09T10:30:32Z</time>
      </trkpt>
      <trkpt lat="47.16736" lon="-1.62506">
        <ele>66</ele>
        <time>2022-07-09T10:30:34Z</time>
      </trkpt>
      <trkpt lat="47.16747" lon="-1.62511">
        <ele>66</ele>
        <time>2022-07-09T10:30:36Z</time>
      </trkpt>
      <trkpt lat="47.16758" lon="-1.62517">
        <ele>67</ele>
        <time>2022-07-09T10:30:38Z</time>
      </trkpt>
      <trkpt lat="47.16768" lon="-1.62523">
        <ele>68</ele>
        <time>2022-07-09T10:30:40Z</time>
      </trkpt>
      <trkpt lat="47.16778" lon="-1.62529">
        <ele>68</ele>
        <time>2022-07-09T10:30:42Z</time>
      </trkpt>
      <trkpt lat="47.16787" lon="-1.62535">
        <ele>69</ele>
        <time>2022-07-09T10:30:44Z</time>
      </trkpt>
      <trkpt lat="47.16795" lon="-1.62541">
        <ele>69</ele>
        <time>2022-07-09T10:30:46Z</time>
      </trkpt>
      <trkpt lat="47.16805" lon="-1.62548">
        <ele>69</ele>
        <time>2022-07-09T10:30:49Z</time>
      </trkpt>
    </trkseg>
  </trk>
</gpx>